<?xml version="1.0" encoding="UTF-8" standalone="no" ?>
<gpx xmlns="http://www.topografix.com/GPX/1/1" xmlns:xsi="http://www.w3.org/2001/XMLSchema-instance" xsi:schemaLocation="http://www.topografix.com/GPX/1/1 http://www.topografix.com/GPX/1/1/gpx.xsd" version="1.1" creator="VisuGPX - https://www.visugpx.com">
  <metadata>
    <name>Creuse </name>
  </metadata>
  <trk>
    <name><![CDATA[Creuse _1]]></name>
    <trkseg>
      <trkpt lat="49.83" lon="2.16405">
        <ele>123.8</ele>
        <time>2023-03-29T12:02:54Z</time>
      </trkpt>
      <trkpt lat="49.83033" lon="2.16419">
        <ele>123.8</ele>
        <time>2023-03-29T12:02:55Z</time>
      </trkpt>
      <trkpt lat="49.83035" lon="2.1642">
        <ele>123.8</ele>
        <time>2023-03-29T12:02:57Z</time>
      </trkpt>
      <trkpt lat="49.83036" lon="2.1642">
        <ele>123.8</ele>
        <time>2023-03-29T12:02:58Z</time>
      </trkpt>
      <trkpt lat="49.83036" lon="2.1642">
        <ele>123.8</ele>
        <time>2023-03-29T12:03:00Z</time>
      </trkpt>
      <trkpt lat="49.83034" lon="2.1642">
        <ele>123.8</ele>
        <time>2023-03-29T12:03:01Z</time>
      </trkpt>
      <trkpt lat="49.83033" lon="2.1642">
        <ele>123.8</ele>
        <time>2023-03-29T12:03:02Z</time>
      </trkpt>
      <trkpt lat="49.83032" lon="2.1642">
        <ele>123.8</ele>
        <time>2023-03-29T12:03:04Z</time>
      </trkpt>
      <trkpt lat="49.83031" lon="2.16419">
        <ele>123.8</ele>
        <time>2023-03-29T12:03:05Z</time>
      </trkpt>
      <trkpt lat="49.83026" lon="2.16414">
        <ele>123.8</ele>
        <time>2023-03-29T12:03:07Z</time>
      </trkpt>
      <trkpt lat="49.83022" lon="2.16411">
        <ele>123.8</ele>
        <time>2023-03-29T12:03:08Z</time>
      </trkpt>
      <trkpt lat="49.83018" lon="2.16407">
        <ele>123.8</ele>
        <time>2023-03-29T12:03:09Z</time>
      </trkpt>
      <trkpt lat="49.83013" lon="2.16403">
        <ele>123.8</ele>
        <time>2023-03-29T12:03:11Z</time>
      </trkpt>
      <trkpt lat="49.83006" lon="2.16397">
        <ele>123.8</ele>
        <time>2023-03-29T12:03:12Z</time>
      </trkpt>
      <trkpt lat="49.83003" lon="2.16394">
        <ele>123.8</ele>
        <time>2023-03-29T12:03:13Z</time>
      </trkpt>
      <trkpt lat="49.83003" lon="2.16393">
        <ele>123.8</ele>
        <time>2023-03-29T12:03:14Z</time>
      </trkpt>
      <trkpt lat="49.83002" lon="2.16392">
        <ele>123.8</ele>
        <time>2023-03-29T12:03:15Z</time>
      </trkpt>
      <trkpt lat="49.83003" lon="2.16391">
        <ele>123.8</ele>
        <time>2023-03-29T12:03:16Z</time>
      </trkpt>
      <trkpt lat="49.83002" lon="2.1639">
        <ele>123.8</ele>
        <time>2023-03-29T12:03:17Z</time>
      </trkpt>
      <trkpt lat="49.83002" lon="2.16389">
        <ele>123.8</ele>
        <time>2023-03-29T12:03:19Z</time>
      </trkpt>
      <trkpt lat="49.83002" lon="2.16389">
        <ele>123.8</ele>
        <time>2023-03-29T12:03:20Z</time>
      </trkpt>
      <trkpt lat="49.83002" lon="2.16388">
        <ele>123.8</ele>
        <time>2023-03-29T12:03:21Z</time>
      </trkpt>
      <trkpt lat="49.83002" lon="2.16388">
        <ele>123.8</ele>
        <time>2023-03-29T12:03:22Z</time>
      </trkpt>
      <trkpt lat="49.83002" lon="2.16387">
        <ele>123.8</ele>
        <time>2023-03-29T12:03:23Z</time>
      </trkpt>
      <trkpt lat="49.83001" lon="2.16386">
        <ele>123.8</ele>
        <time>2023-03-29T12:03:24Z</time>
      </trkpt>
      <trkpt lat="49.83001" lon="2.16385">
        <ele>123.8</ele>
        <time>2023-03-29T12:03:26Z</time>
      </trkpt>
      <trkpt lat="49.83001" lon="2.16384">
        <ele>123.8</ele>
        <time>2023-03-29T12:03:27Z</time>
      </trkpt>
      <trkpt lat="49.83001" lon="2.16383">
        <ele>123.8</ele>
        <time>2023-03-29T12:03:28Z</time>
      </trkpt>
      <trkpt lat="49.83001" lon="2.16382">
        <ele>123.8</ele>
        <time>2023-03-29T12:03:29Z</time>
      </trkpt>
      <trkpt lat="49.83001" lon="2.16381">
        <ele>123.8</ele>
        <time>2023-03-29T12:03:30Z</time>
      </trkpt>
      <trkpt lat="49.83" lon="2.16379">
        <ele>123.8</ele>
        <time>2023-03-29T12:03:32Z</time>
      </trkpt>
      <trkpt lat="49.83" lon="2.16378">
        <ele>123.8</ele>
        <time>2023-03-29T12:03:33Z</time>
      </trkpt>
      <trkpt lat="49.83" lon="2.16377">
        <ele>123.8</ele>
        <time>2023-03-29T12:03:34Z</time>
      </trkpt>
      <trkpt lat="49.82999" lon="2.16376">
        <ele>123.8</ele>
        <time>2023-03-29T12:03:35Z</time>
      </trkpt>
      <trkpt lat="49.82999" lon="2.16373">
        <ele>123.8</ele>
        <time>2023-03-29T12:03:37Z</time>
      </trkpt>
      <trkpt lat="49.82998" lon="2.16372">
        <ele>123.8</ele>
        <time>2023-03-29T12:03:38Z</time>
      </trkpt>
      <trkpt lat="49.82997" lon="2.16369">
        <ele>123.8</ele>
        <time>2023-03-29T12:03:39Z</time>
      </trkpt>
      <trkpt lat="49.82997" lon="2.16367">
        <ele>123.8</ele>
        <time>2023-03-29T12:03:40Z</time>
      </trkpt>
      <trkpt lat="49.82996" lon="2.16366">
        <ele>123.8</ele>
        <time>2023-03-29T12:03:41Z</time>
      </trkpt>
      <trkpt lat="49.82996" lon="2.16364">
        <ele>123.8</ele>
        <time>2023-03-29T12:03:42Z</time>
      </trkpt>
      <trkpt lat="49.82995" lon="2.16363">
        <ele>123.8</ele>
        <time>2023-03-29T12:03:43Z</time>
      </trkpt>
      <trkpt lat="49.82995" lon="2.16362">
        <ele>123.8</ele>
        <time>2023-03-29T12:03:44Z</time>
      </trkpt>
      <trkpt lat="49.82995" lon="2.16361">
        <ele>123.8</ele>
        <time>2023-03-29T12:03:45Z</time>
      </trkpt>
      <trkpt lat="49.82995" lon="2.1636">
        <ele>123.8</ele>
        <time>2023-03-29T12:03:47Z</time>
      </trkpt>
      <trkpt lat="49.82995" lon="2.1636">
        <ele>123.8</ele>
        <time>2023-03-29T12:03:48Z</time>
      </trkpt>
      <trkpt lat="49.82994" lon="2.16358">
        <ele>123.7</ele>
        <time>2023-03-29T12:03:49Z</time>
      </trkpt>
      <trkpt lat="49.82994" lon="2.16357">
        <ele>123.7</ele>
        <time>2023-03-29T12:03:50Z</time>
      </trkpt>
      <trkpt lat="49.82993" lon="2.16354">
        <ele>123.7</ele>
        <time>2023-03-29T12:03:51Z</time>
      </trkpt>
      <trkpt lat="49.82993" lon="2.16352">
        <ele>123.7</ele>
        <time>2023-03-29T12:03:52Z</time>
      </trkpt>
      <trkpt lat="49.82992" lon="2.16347">
        <ele>123.7</ele>
        <time>2023-03-29T12:03:53Z</time>
      </trkpt>
      <trkpt lat="49.82991" lon="2.16346">
        <ele>123.7</ele>
        <time>2023-03-29T12:03:54Z</time>
      </trkpt>
      <trkpt lat="49.82991" lon="2.16343">
        <ele>123.7</ele>
        <time>2023-03-29T12:03:55Z</time>
      </trkpt>
      <trkpt lat="49.8299" lon="2.16341">
        <ele>123.7</ele>
        <time>2023-03-29T12:03:57Z</time>
      </trkpt>
      <trkpt lat="49.82989" lon="2.16338">
        <ele>123.7</ele>
        <time>2023-03-29T12:03:58Z</time>
      </trkpt>
      <trkpt lat="49.82988" lon="2.16336">
        <ele>123.7</ele>
        <time>2023-03-29T12:03:59Z</time>
      </trkpt>
      <trkpt lat="49.82988" lon="2.16334">
        <ele>123.6</ele>
        <time>2023-03-29T12:04:00Z</time>
      </trkpt>
      <trkpt lat="49.82987" lon="2.16331">
        <ele>123.6</ele>
        <time>2023-03-29T12:04:01Z</time>
      </trkpt>
      <trkpt lat="49.82986" lon="2.16329">
        <ele>123.6</ele>
        <time>2023-03-29T12:04:02Z</time>
      </trkpt>
      <trkpt lat="49.82985" lon="2.16328">
        <ele>123.6</ele>
        <time>2023-03-29T12:04:04Z</time>
      </trkpt>
      <trkpt lat="49.82985" lon="2.16325">
        <ele>123.6</ele>
        <time>2023-03-29T12:04:05Z</time>
      </trkpt>
      <trkpt lat="49.82984" lon="2.16324">
        <ele>123.6</ele>
        <time>2023-03-29T12:04:06Z</time>
      </trkpt>
      <trkpt lat="49.82983" lon="2.16321">
        <ele>123.6</ele>
        <time>2023-03-29T12:04:07Z</time>
      </trkpt>
      <trkpt lat="49.82983" lon="2.16319">
        <ele>123.6</ele>
        <time>2023-03-29T12:04:08Z</time>
      </trkpt>
      <trkpt lat="49.82982" lon="2.16318">
        <ele>123.6</ele>
        <time>2023-03-29T12:04:09Z</time>
      </trkpt>
      <trkpt lat="49.82982" lon="2.16315">
        <ele>123.6</ele>
        <time>2023-03-29T12:04:11Z</time>
      </trkpt>
      <trkpt lat="49.82982" lon="2.16314">
        <ele>123.6</ele>
        <time>2023-03-29T12:04:12Z</time>
      </trkpt>
      <trkpt lat="49.82982" lon="2.16312">
        <ele>123.6</ele>
        <time>2023-03-29T12:04:13Z</time>
      </trkpt>
      <trkpt lat="49.82982" lon="2.16309">
        <ele>123.5</ele>
        <time>2023-03-29T12:04:14Z</time>
      </trkpt>
      <trkpt lat="49.82982" lon="2.1631">
        <ele>123.5</ele>
        <time>2023-03-29T12:04:15Z</time>
      </trkpt>
      <trkpt lat="49.82983" lon="2.1631">
        <ele>123.5</ele>
        <time>2023-03-29T12:04:17Z</time>
      </trkpt>
      <trkpt lat="49.82983" lon="2.1631">
        <ele>123.5</ele>
        <time>2023-03-29T12:04:18Z</time>
      </trkpt>
      <trkpt lat="49.82983" lon="2.16309">
        <ele>123.5</ele>
        <time>2023-03-29T12:04:19Z</time>
      </trkpt>
      <trkpt lat="49.82983" lon="2.16308">
        <ele>123.5</ele>
        <time>2023-03-29T12:04:20Z</time>
      </trkpt>
      <trkpt lat="49.82983" lon="2.16307">
        <ele>123.5</ele>
        <time>2023-03-29T12:04:21Z</time>
      </trkpt>
      <trkpt lat="49.82983" lon="2.16307">
        <ele>123.5</ele>
        <time>2023-03-29T12:04:22Z</time>
      </trkpt>
      <trkpt lat="49.82983" lon="2.16306">
        <ele>123.5</ele>
        <time>2023-03-29T12:04:23Z</time>
      </trkpt>
      <trkpt lat="49.82983" lon="2.16305">
        <ele>123.5</ele>
        <time>2023-03-29T12:04:24Z</time>
      </trkpt>
      <trkpt lat="49.82982" lon="2.16304">
        <ele>123.5</ele>
        <time>2023-03-29T12:04:25Z</time>
      </trkpt>
      <trkpt lat="49.82981" lon="2.16301">
        <ele>123.5</ele>
        <time>2023-03-29T12:04:27Z</time>
      </trkpt>
      <trkpt lat="49.82981" lon="2.163">
        <ele>123.5</ele>
        <time>2023-03-29T12:04:28Z</time>
      </trkpt>
      <trkpt lat="49.8298" lon="2.16299">
        <ele>123.5</ele>
        <time>2023-03-29T12:04:29Z</time>
      </trkpt>
      <trkpt lat="49.82978" lon="2.16294">
        <ele>123.5</ele>
        <time>2023-03-29T12:04:30Z</time>
      </trkpt>
      <trkpt lat="49.82977" lon="2.16292">
        <ele>123.5</ele>
        <time>2023-03-29T12:04:31Z</time>
      </trkpt>
      <trkpt lat="49.82976" lon="2.16287">
        <ele>123.5</ele>
        <time>2023-03-29T12:04:32Z</time>
      </trkpt>
      <trkpt lat="49.82976" lon="2.16286">
        <ele>123.4</ele>
        <time>2023-03-29T12:04:33Z</time>
      </trkpt>
      <trkpt lat="49.82974" lon="2.16281">
        <ele>123.4</ele>
        <time>2023-03-29T12:04:34Z</time>
      </trkpt>
      <trkpt lat="49.82974" lon="2.1628">
        <ele>123.4</ele>
        <time>2023-03-29T12:04:36Z</time>
      </trkpt>
      <trkpt lat="49.82973" lon="2.16278">
        <ele>123.4</ele>
        <time>2023-03-29T12:04:37Z</time>
      </trkpt>
      <trkpt lat="49.82973" lon="2.16277">
        <ele>123.4</ele>
        <time>2023-03-29T12:04:38Z</time>
      </trkpt>
      <trkpt lat="49.82973" lon="2.16275">
        <ele>123.4</ele>
        <time>2023-03-29T12:04:39Z</time>
      </trkpt>
      <trkpt lat="49.8297" lon="2.16271">
        <ele>123.4</ele>
        <time>2023-03-29T12:04:40Z</time>
      </trkpt>
      <trkpt lat="49.8297" lon="2.16269">
        <ele>123.4</ele>
        <time>2023-03-29T12:04:41Z</time>
      </trkpt>
      <trkpt lat="49.82968" lon="2.16265">
        <ele>123.4</ele>
        <time>2023-03-29T12:04:42Z</time>
      </trkpt>
      <trkpt lat="49.82968" lon="2.16264">
        <ele>123.4</ele>
        <time>2023-03-29T12:04:43Z</time>
      </trkpt>
      <trkpt lat="49.82967" lon="2.16261">
        <ele>123.4</ele>
        <time>2023-03-29T12:04:44Z</time>
      </trkpt>
      <trkpt lat="49.82966" lon="2.1626">
        <ele>123.4</ele>
        <time>2023-03-29T12:04:45Z</time>
      </trkpt>
      <trkpt lat="49.82966" lon="2.16258">
        <ele>123.4</ele>
        <time>2023-03-29T12:04:46Z</time>
      </trkpt>
      <trkpt lat="49.82965" lon="2.16256">
        <ele>123.4</ele>
        <time>2023-03-29T12:04:48Z</time>
      </trkpt>
      <trkpt lat="49.82964" lon="2.16255">
        <ele>123.4</ele>
        <time>2023-03-29T12:04:49Z</time>
      </trkpt>
      <trkpt lat="49.82964" lon="2.16253">
        <ele>123.4</ele>
        <time>2023-03-29T12:04:50Z</time>
      </trkpt>
      <trkpt lat="49.82962" lon="2.16249">
        <ele>123.3</ele>
        <time>2023-03-29T12:04:51Z</time>
      </trkpt>
      <trkpt lat="49.82961" lon="2.16244">
        <ele>123.3</ele>
        <time>2023-03-29T12:04:52Z</time>
      </trkpt>
      <trkpt lat="49.8296" lon="2.1624">
        <ele>123.3</ele>
        <time>2023-03-29T12:04:53Z</time>
      </trkpt>
      <trkpt lat="49.82958" lon="2.16236">
        <ele>123.3</ele>
        <time>2023-03-29T12:04:54Z</time>
      </trkpt>
      <trkpt lat="49.82957" lon="2.16231">
        <ele>123.3</ele>
        <time>2023-03-29T12:04:55Z</time>
      </trkpt>
      <trkpt lat="49.82956" lon="2.1623">
        <ele>123.3</ele>
        <time>2023-03-29T12:04:56Z</time>
      </trkpt>
      <trkpt lat="49.82955" lon="2.16225">
        <ele>123.3</ele>
        <time>2023-03-29T12:04:57Z</time>
      </trkpt>
      <trkpt lat="49.82954" lon="2.16224">
        <ele>123.2</ele>
        <time>2023-03-29T12:04:58Z</time>
      </trkpt>
      <trkpt lat="49.82952" lon="2.1622">
        <ele>123.2</ele>
        <time>2023-03-29T12:04:59Z</time>
      </trkpt>
      <trkpt lat="49.82951" lon="2.16218">
        <ele>123.2</ele>
        <time>2023-03-29T12:05:00Z</time>
      </trkpt>
      <trkpt lat="49.8295" lon="2.16215">
        <ele>123.2</ele>
        <time>2023-03-29T12:05:01Z</time>
      </trkpt>
      <trkpt lat="49.82948" lon="2.16213">
        <ele>123.2</ele>
        <time>2023-03-29T12:05:03Z</time>
      </trkpt>
      <trkpt lat="49.82946" lon="2.16209">
        <ele>123.2</ele>
        <time>2023-03-29T12:05:04Z</time>
      </trkpt>
      <trkpt lat="49.82946" lon="2.16208">
        <ele>123.2</ele>
        <time>2023-03-29T12:05:05Z</time>
      </trkpt>
      <trkpt lat="49.82944" lon="2.16205">
        <ele>123.2</ele>
        <time>2023-03-29T12:05:06Z</time>
      </trkpt>
      <trkpt lat="49.82943" lon="2.16203">
        <ele>123.2</ele>
        <time>2023-03-29T12:05:07Z</time>
      </trkpt>
      <trkpt lat="49.82942" lon="2.16201">
        <ele>123.2</ele>
        <time>2023-03-29T12:05:08Z</time>
      </trkpt>
      <trkpt lat="49.82942" lon="2.16198">
        <ele>123.2</ele>
        <time>2023-03-29T12:05:09Z</time>
      </trkpt>
      <trkpt lat="49.82941" lon="2.16196">
        <ele>123.2</ele>
        <time>2023-03-29T12:05:10Z</time>
      </trkpt>
      <trkpt lat="49.82941" lon="2.16194">
        <ele>123.2</ele>
        <time>2023-03-29T12:05:12Z</time>
      </trkpt>
      <trkpt lat="49.82941" lon="2.16191">
        <ele>123.2</ele>
        <time>2023-03-29T12:05:13Z</time>
      </trkpt>
      <trkpt lat="49.8294" lon="2.16189">
        <ele>123.2</ele>
        <time>2023-03-29T12:05:14Z</time>
      </trkpt>
      <trkpt lat="49.8294" lon="2.16187">
        <ele>123.2</ele>
        <time>2023-03-29T12:05:15Z</time>
      </trkpt>
      <trkpt lat="49.82939" lon="2.16185">
        <ele>123.2</ele>
        <time>2023-03-29T12:05:16Z</time>
      </trkpt>
      <trkpt lat="49.82938" lon="2.16182">
        <ele>123.2</ele>
        <time>2023-03-29T12:05:17Z</time>
      </trkpt>
      <trkpt lat="49.82938" lon="2.16181">
        <ele>123.2</ele>
        <time>2023-03-29T12:05:18Z</time>
      </trkpt>
      <trkpt lat="49.82937" lon="2.1618">
        <ele>123.1</ele>
        <time>2023-03-29T12:05:19Z</time>
      </trkpt>
      <trkpt lat="49.82937" lon="2.1618">
        <ele>123.1</ele>
        <time>2023-03-29T12:05:21Z</time>
      </trkpt>
      <trkpt lat="49.82937" lon="2.16179">
        <ele>123.1</ele>
        <time>2023-03-29T12:05:22Z</time>
      </trkpt>
      <trkpt lat="49.82937" lon="2.1618">
        <ele>123.1</ele>
        <time>2023-03-29T12:05:23Z</time>
      </trkpt>
      <trkpt lat="49.82936" lon="2.16179">
        <ele>123.1</ele>
        <time>2023-03-29T12:05:24Z</time>
      </trkpt>
      <trkpt lat="49.82936" lon="2.16177">
        <ele>123.1</ele>
        <time>2023-03-29T12:05:25Z</time>
      </trkpt>
      <trkpt lat="49.82935" lon="2.16176">
        <ele>123.1</ele>
        <time>2023-03-29T12:05:27Z</time>
      </trkpt>
      <trkpt lat="49.82934" lon="2.16174">
        <ele>123.1</ele>
        <time>2023-03-29T12:05:28Z</time>
      </trkpt>
      <trkpt lat="49.82933" lon="2.16171">
        <ele>123.1</ele>
        <time>2023-03-29T12:05:29Z</time>
      </trkpt>
      <trkpt lat="49.82931" lon="2.16168">
        <ele>123.1</ele>
        <time>2023-03-29T12:05:30Z</time>
      </trkpt>
      <trkpt lat="49.82931" lon="2.16166">
        <ele>123.1</ele>
        <time>2023-03-29T12:05:31Z</time>
      </trkpt>
      <trkpt lat="49.8293" lon="2.16164">
        <ele>123.1</ele>
        <time>2023-03-29T12:05:32Z</time>
      </trkpt>
      <trkpt lat="49.82929" lon="2.16163">
        <ele>123.1</ele>
        <time>2023-03-29T12:05:33Z</time>
      </trkpt>
      <trkpt lat="49.82927" lon="2.1616">
        <ele>123</ele>
        <time>2023-03-29T12:05:35Z</time>
      </trkpt>
      <trkpt lat="49.82927" lon="2.16158">
        <ele>123</ele>
        <time>2023-03-29T12:05:36Z</time>
      </trkpt>
      <trkpt lat="49.82926" lon="2.16158">
        <ele>123</ele>
        <time>2023-03-29T12:05:37Z</time>
      </trkpt>
      <trkpt lat="49.82926" lon="2.16157">
        <ele>123</ele>
        <time>2023-03-29T12:05:38Z</time>
      </trkpt>
      <trkpt lat="49.82926" lon="2.16156">
        <ele>123</ele>
        <time>2023-03-29T12:05:39Z</time>
      </trkpt>
      <trkpt lat="49.82926" lon="2.16154">
        <ele>123</ele>
        <time>2023-03-29T12:05:40Z</time>
      </trkpt>
      <trkpt lat="49.82925" lon="2.16152">
        <ele>123</ele>
        <time>2023-03-29T12:05:41Z</time>
      </trkpt>
      <trkpt lat="49.82925" lon="2.1615">
        <ele>123</ele>
        <time>2023-03-29T12:05:43Z</time>
      </trkpt>
      <trkpt lat="49.82925" lon="2.16148">
        <ele>122.9</ele>
        <time>2023-03-29T12:05:44Z</time>
      </trkpt>
      <trkpt lat="49.82925" lon="2.16147">
        <ele>122.9</ele>
        <time>2023-03-29T12:05:45Z</time>
      </trkpt>
      <trkpt lat="49.82925" lon="2.16145">
        <ele>122.9</ele>
        <time>2023-03-29T12:05:46Z</time>
      </trkpt>
      <trkpt lat="49.82926" lon="2.16141">
        <ele>122.9</ele>
        <time>2023-03-29T12:05:47Z</time>
      </trkpt>
      <trkpt lat="49.82926" lon="2.16139">
        <ele>122.9</ele>
        <time>2023-03-29T12:05:48Z</time>
      </trkpt>
      <trkpt lat="49.82926" lon="2.16137">
        <ele>122.9</ele>
        <time>2023-03-29T12:05:50Z</time>
      </trkpt>
      <trkpt lat="49.82927" lon="2.16135">
        <ele>122.8</ele>
        <time>2023-03-29T12:05:51Z</time>
      </trkpt>
      <trkpt lat="49.82928" lon="2.16133">
        <ele>122.8</ele>
        <time>2023-03-29T12:05:52Z</time>
      </trkpt>
      <trkpt lat="49.82929" lon="2.16132">
        <ele>122.8</ele>
        <time>2023-03-29T12:05:53Z</time>
      </trkpt>
      <trkpt lat="49.82929" lon="2.16131">
        <ele>122.8</ele>
        <time>2023-03-29T12:05:54Z</time>
      </trkpt>
      <trkpt lat="49.8293" lon="2.1613">
        <ele>122.8</ele>
        <time>2023-03-29T12:05:55Z</time>
      </trkpt>
      <trkpt lat="49.82932" lon="2.16129">
        <ele>122.8</ele>
        <time>2023-03-29T12:05:56Z</time>
      </trkpt>
      <trkpt lat="49.82933" lon="2.16128">
        <ele>122.7</ele>
        <time>2023-03-29T12:05:58Z</time>
      </trkpt>
      <trkpt lat="49.82934" lon="2.16126">
        <ele>122.7</ele>
        <time>2023-03-29T12:05:59Z</time>
      </trkpt>
      <trkpt lat="49.82935" lon="2.16126">
        <ele>122.7</ele>
        <time>2023-03-29T12:06:00Z</time>
      </trkpt>
      <trkpt lat="49.82936" lon="2.16127">
        <ele>122.7</ele>
        <time>2023-03-29T12:06:01Z</time>
      </trkpt>
      <trkpt lat="49.82937" lon="2.16126">
        <ele>122.7</ele>
        <time>2023-03-29T12:06:02Z</time>
      </trkpt>
      <trkpt lat="49.82939" lon="2.16125">
        <ele>122.7</ele>
        <time>2023-03-29T12:06:03Z</time>
      </trkpt>
      <trkpt lat="49.82941" lon="2.16124">
        <ele>122.6</ele>
        <time>2023-03-29T12:06:04Z</time>
      </trkpt>
      <trkpt lat="49.82942" lon="2.16123">
        <ele>122.6</ele>
        <time>2023-03-29T12:06:06Z</time>
      </trkpt>
      <trkpt lat="49.82943" lon="2.16121">
        <ele>122.6</ele>
        <time>2023-03-29T12:06:07Z</time>
      </trkpt>
      <trkpt lat="49.82944" lon="2.1612">
        <ele>122.6</ele>
        <time>2023-03-29T12:06:08Z</time>
      </trkpt>
      <trkpt lat="49.82945" lon="2.16119">
        <ele>122.5</ele>
        <time>2023-03-29T12:06:09Z</time>
      </trkpt>
      <trkpt lat="49.82948" lon="2.16117">
        <ele>122.5</ele>
        <time>2023-03-29T12:06:10Z</time>
      </trkpt>
      <trkpt lat="49.82949" lon="2.16116">
        <ele>122.5</ele>
        <time>2023-03-29T12:06:12Z</time>
      </trkpt>
      <trkpt lat="49.8295" lon="2.16114">
        <ele>122.5</ele>
        <time>2023-03-29T12:06:13Z</time>
      </trkpt>
      <trkpt lat="49.82952" lon="2.16113">
        <ele>122.4</ele>
        <time>2023-03-29T12:06:14Z</time>
      </trkpt>
      <trkpt lat="49.82955" lon="2.16111">
        <ele>122.4</ele>
        <time>2023-03-29T12:06:15Z</time>
      </trkpt>
      <trkpt lat="49.82956" lon="2.1611">
        <ele>122.4</ele>
        <time>2023-03-29T12:06:16Z</time>
      </trkpt>
      <trkpt lat="49.82959" lon="2.16107">
        <ele>122.3</ele>
        <time>2023-03-29T12:06:17Z</time>
      </trkpt>
      <trkpt lat="49.8296" lon="2.16106">
        <ele>122.3</ele>
        <time>2023-03-29T12:06:18Z</time>
      </trkpt>
      <trkpt lat="49.82963" lon="2.16103">
        <ele>122.3</ele>
        <time>2023-03-29T12:06:20Z</time>
      </trkpt>
      <trkpt lat="49.82964" lon="2.16102">
        <ele>122.3</ele>
        <time>2023-03-29T12:06:21Z</time>
      </trkpt>
      <trkpt lat="49.82966" lon="2.16101">
        <ele>122.2</ele>
        <time>2023-03-29T12:06:22Z</time>
      </trkpt>
      <trkpt lat="49.82967" lon="2.161">
        <ele>122.2</ele>
        <time>2023-03-29T12:06:23Z</time>
      </trkpt>
      <trkpt lat="49.82969" lon="2.16099">
        <ele>122.2</ele>
        <time>2023-03-29T12:06:24Z</time>
      </trkpt>
      <trkpt lat="49.8297" lon="2.16098">
        <ele>122.2</ele>
        <time>2023-03-29T12:06:25Z</time>
      </trkpt>
      <trkpt lat="49.8297" lon="2.16098">
        <ele>122.2</ele>
        <time>2023-03-29T12:06:26Z</time>
      </trkpt>
      <trkpt lat="49.82971" lon="2.16097">
        <ele>122.2</ele>
        <time>2023-03-29T12:06:28Z</time>
      </trkpt>
      <trkpt lat="49.82972" lon="2.16096">
        <ele>122.2</ele>
        <time>2023-03-29T12:06:29Z</time>
      </trkpt>
      <trkpt lat="49.82974" lon="2.16095">
        <ele>122.1</ele>
        <time>2023-03-29T12:06:30Z</time>
      </trkpt>
      <trkpt lat="49.82976" lon="2.16092">
        <ele>122.1</ele>
        <time>2023-03-29T12:06:31Z</time>
      </trkpt>
      <trkpt lat="49.82977" lon="2.16091">
        <ele>122</ele>
        <time>2023-03-29T12:06:32Z</time>
      </trkpt>
      <trkpt lat="49.82978" lon="2.1609">
        <ele>121.9</ele>
        <time>2023-03-29T12:06:33Z</time>
      </trkpt>
      <trkpt lat="49.82979" lon="2.16089">
        <ele>121.9</ele>
        <time>2023-03-29T12:06:34Z</time>
      </trkpt>
      <trkpt lat="49.8298" lon="2.16089">
        <ele>121.8</ele>
        <time>2023-03-29T12:06:35Z</time>
      </trkpt>
      <trkpt lat="49.82981" lon="2.16088">
        <ele>121.8</ele>
        <time>2023-03-29T12:06:37Z</time>
      </trkpt>
      <trkpt lat="49.82982" lon="2.16087">
        <ele>121.7</ele>
        <time>2023-03-29T12:06:38Z</time>
      </trkpt>
      <trkpt lat="49.82983" lon="2.16085">
        <ele>121.6</ele>
        <time>2023-03-29T12:06:39Z</time>
      </trkpt>
      <trkpt lat="49.82984" lon="2.16084">
        <ele>121.6</ele>
        <time>2023-03-29T12:06:40Z</time>
      </trkpt>
      <trkpt lat="49.82985" lon="2.16083">
        <ele>121.5</ele>
        <time>2023-03-29T12:06:41Z</time>
      </trkpt>
      <trkpt lat="49.82985" lon="2.16082">
        <ele>121.5</ele>
        <time>2023-03-29T12:06:43Z</time>
      </trkpt>
      <trkpt lat="49.82986" lon="2.16082">
        <ele>121.4</ele>
        <time>2023-03-29T12:06:44Z</time>
      </trkpt>
      <trkpt lat="49.82986" lon="2.16081">
        <ele>121.4</ele>
        <time>2023-03-29T12:06:45Z</time>
      </trkpt>
      <trkpt lat="49.82986" lon="2.1608">
        <ele>121.4</ele>
        <time>2023-03-29T12:06:46Z</time>
      </trkpt>
      <trkpt lat="49.82987" lon="2.16079">
        <ele>121.3</ele>
        <time>2023-03-29T12:06:47Z</time>
      </trkpt>
      <trkpt lat="49.82988" lon="2.16078">
        <ele>121.2</ele>
        <time>2023-03-29T12:06:48Z</time>
      </trkpt>
      <trkpt lat="49.82989" lon="2.16077">
        <ele>121.2</ele>
        <time>2023-03-29T12:06:49Z</time>
      </trkpt>
      <trkpt lat="49.82991" lon="2.16075">
        <ele>121.1</ele>
        <time>2023-03-29T12:06:51Z</time>
      </trkpt>
      <trkpt lat="49.82992" lon="2.16074">
        <ele>121</ele>
        <time>2023-03-29T12:06:52Z</time>
      </trkpt>
      <trkpt lat="49.82993" lon="2.16072">
        <ele>120.9</ele>
        <time>2023-03-29T12:06:53Z</time>
      </trkpt>
      <trkpt lat="49.82994" lon="2.16071">
        <ele>120.9</ele>
        <time>2023-03-29T12:06:54Z</time>
      </trkpt>
      <trkpt lat="49.82994" lon="2.1607">
        <ele>120.9</ele>
        <time>2023-03-29T12:06:55Z</time>
      </trkpt>
      <trkpt lat="49.82995" lon="2.16067">
        <ele>120.9</ele>
        <time>2023-03-29T12:06:57Z</time>
      </trkpt>
      <trkpt lat="49.82994" lon="2.16065">
        <ele>120.9</ele>
        <time>2023-03-29T12:06:58Z</time>
      </trkpt>
      <trkpt lat="49.82993" lon="2.16063">
        <ele>120.9</ele>
        <time>2023-03-29T12:06:59Z</time>
      </trkpt>
      <trkpt lat="49.82992" lon="2.16062">
        <ele>120.9</ele>
        <time>2023-03-29T12:07:01Z</time>
      </trkpt>
      <trkpt lat="49.82991" lon="2.16061">
        <ele>120.9</ele>
        <time>2023-03-29T12:07:02Z</time>
      </trkpt>
      <trkpt lat="49.82989" lon="2.1606">
        <ele>120.9</ele>
        <time>2023-03-29T12:07:03Z</time>
      </trkpt>
      <trkpt lat="49.82988" lon="2.16059">
        <ele>120.9</ele>
        <time>2023-03-29T12:07:04Z</time>
      </trkpt>
      <trkpt lat="49.82984" lon="2.16058">
        <ele>120.9</ele>
        <time>2023-03-29T12:07:05Z</time>
      </trkpt>
      <trkpt lat="49.82983" lon="2.16058">
        <ele>120.9</ele>
        <time>2023-03-29T12:07:06Z</time>
      </trkpt>
      <trkpt lat="49.8298" lon="2.16059">
        <ele>120.9</ele>
        <time>2023-03-29T12:07:08Z</time>
      </trkpt>
      <trkpt lat="49.82978" lon="2.16059">
        <ele>120.9</ele>
        <time>2023-03-29T12:07:09Z</time>
      </trkpt>
      <trkpt lat="49.82977" lon="2.1606">
        <ele>120.9</ele>
        <time>2023-03-29T12:07:10Z</time>
      </trkpt>
      <trkpt lat="49.82975" lon="2.1606">
        <ele>120.9</ele>
        <time>2023-03-29T12:07:11Z</time>
      </trkpt>
      <trkpt lat="49.82973" lon="2.1606">
        <ele>120.9</ele>
        <time>2023-03-29T12:07:12Z</time>
      </trkpt>
      <trkpt lat="49.82972" lon="2.1606">
        <ele>120.9</ele>
        <time>2023-03-29T12:07:13Z</time>
      </trkpt>
      <trkpt lat="49.82971" lon="2.1606">
        <ele>120.9</ele>
        <time>2023-03-29T12:07:14Z</time>
      </trkpt>
      <trkpt lat="49.82969" lon="2.16061">
        <ele>120.9</ele>
        <time>2023-03-29T12:07:15Z</time>
      </trkpt>
      <trkpt lat="49.82968" lon="2.16061">
        <ele>120.9</ele>
        <time>2023-03-29T12:07:16Z</time>
      </trkpt>
      <trkpt lat="49.82966" lon="2.16061">
        <ele>120.9</ele>
        <time>2023-03-29T12:07:18Z</time>
      </trkpt>
      <trkpt lat="49.82965" lon="2.16061">
        <ele>120.9</ele>
        <time>2023-03-29T12:07:19Z</time>
      </trkpt>
      <trkpt lat="49.82962" lon="2.16061">
        <ele>120.9</ele>
        <time>2023-03-29T12:07:20Z</time>
      </trkpt>
      <trkpt lat="49.82961" lon="2.16061">
        <ele>120.9</ele>
        <time>2023-03-29T12:07:21Z</time>
      </trkpt>
      <trkpt lat="49.82959" lon="2.16061">
        <ele>120.9</ele>
        <time>2023-03-29T12:07:22Z</time>
      </trkpt>
      <trkpt lat="49.82958" lon="2.16061">
        <ele>120.9</ele>
        <time>2023-03-29T12:07:23Z</time>
      </trkpt>
      <trkpt lat="49.82956" lon="2.16061">
        <ele>120.9</ele>
        <time>2023-03-29T12:07:24Z</time>
      </trkpt>
      <trkpt lat="49.82954" lon="2.1606">
        <ele>120.8</ele>
        <time>2023-03-29T12:07:25Z</time>
      </trkpt>
      <trkpt lat="49.82953" lon="2.16059">
        <ele>120.8</ele>
        <time>2023-03-29T12:07:26Z</time>
      </trkpt>
      <trkpt lat="49.82951" lon="2.16059">
        <ele>120.8</ele>
        <time>2023-03-29T12:07:27Z</time>
      </trkpt>
      <trkpt lat="49.82949" lon="2.16058">
        <ele>120.8</ele>
        <time>2023-03-29T12:07:29Z</time>
      </trkpt>
      <trkpt lat="49.82948" lon="2.16058">
        <ele>120.8</ele>
        <time>2023-03-29T12:07:30Z</time>
      </trkpt>
      <trkpt lat="49.82946" lon="2.16057">
        <ele>120.8</ele>
        <time>2023-03-29T12:07:31Z</time>
      </trkpt>
      <trkpt lat="49.82945" lon="2.16057">
        <ele>120.8</ele>
        <time>2023-03-29T12:07:32Z</time>
      </trkpt>
      <trkpt lat="49.82943" lon="2.16056">
        <ele>120.8</ele>
        <time>2023-03-29T12:07:33Z</time>
      </trkpt>
      <trkpt lat="49.82942" lon="2.16055">
        <ele>120.8</ele>
        <time>2023-03-29T12:07:34Z</time>
      </trkpt>
      <trkpt lat="49.8294" lon="2.16055">
        <ele>120.8</ele>
        <time>2023-03-29T12:07:35Z</time>
      </trkpt>
      <trkpt lat="49.82939" lon="2.16054">
        <ele>120.8</ele>
        <time>2023-03-29T12:07:37Z</time>
      </trkpt>
      <trkpt lat="49.82937" lon="2.16053">
        <ele>120.8</ele>
        <time>2023-03-29T12:07:38Z</time>
      </trkpt>
      <trkpt lat="49.82936" lon="2.16052">
        <ele>120.8</ele>
        <time>2023-03-29T12:07:39Z</time>
      </trkpt>
      <trkpt lat="49.82935" lon="2.16051">
        <ele>120.8</ele>
        <time>2023-03-29T12:07:40Z</time>
      </trkpt>
      <trkpt lat="49.82933" lon="2.1605">
        <ele>120.8</ele>
        <time>2023-03-29T12:07:41Z</time>
      </trkpt>
      <trkpt lat="49.82932" lon="2.16049">
        <ele>120.8</ele>
        <time>2023-03-29T12:07:42Z</time>
      </trkpt>
      <trkpt lat="49.8293" lon="2.16048">
        <ele>120.8</ele>
        <time>2023-03-29T12:07:43Z</time>
      </trkpt>
      <trkpt lat="49.82929" lon="2.16048">
        <ele>120.8</ele>
        <time>2023-03-29T12:07:44Z</time>
      </trkpt>
      <trkpt lat="49.82928" lon="2.16047">
        <ele>120.8</ele>
        <time>2023-03-29T12:07:45Z</time>
      </trkpt>
      <trkpt lat="49.82927" lon="2.16047">
        <ele>120.8</ele>
        <time>2023-03-29T12:07:46Z</time>
      </trkpt>
      <trkpt lat="49.82926" lon="2.16046">
        <ele>120.8</ele>
        <time>2023-03-29T12:07:47Z</time>
      </trkpt>
      <trkpt lat="49.82925" lon="2.16045">
        <ele>120.8</ele>
        <time>2023-03-29T12:07:49Z</time>
      </trkpt>
      <trkpt lat="49.82924" lon="2.16045">
        <ele>120.8</ele>
        <time>2023-03-29T12:07:50Z</time>
      </trkpt>
      <trkpt lat="49.82923" lon="2.16044">
        <ele>120.8</ele>
        <time>2023-03-29T12:07:51Z</time>
      </trkpt>
      <trkpt lat="49.82922" lon="2.16043">
        <ele>120.8</ele>
        <time>2023-03-29T12:07:52Z</time>
      </trkpt>
      <trkpt lat="49.82921" lon="2.16042">
        <ele>120.8</ele>
        <time>2023-03-29T12:07:53Z</time>
      </trkpt>
      <trkpt lat="49.8292" lon="2.16041">
        <ele>120.8</ele>
        <time>2023-03-29T12:07:55Z</time>
      </trkpt>
      <trkpt lat="49.82919" lon="2.1604">
        <ele>120.8</ele>
        <time>2023-03-29T12:07:56Z</time>
      </trkpt>
      <trkpt lat="49.82918" lon="2.16039">
        <ele>120.8</ele>
        <time>2023-03-29T12:07:57Z</time>
      </trkpt>
      <trkpt lat="49.82917" lon="2.16039">
        <ele>120.8</ele>
        <time>2023-03-29T12:07:58Z</time>
      </trkpt>
      <trkpt lat="49.82917" lon="2.16038">
        <ele>120.8</ele>
        <time>2023-03-29T12:07:59Z</time>
      </trkpt>
      <trkpt lat="49.82915" lon="2.16037">
        <ele>120.8</ele>
        <time>2023-03-29T12:08:00Z</time>
      </trkpt>
      <trkpt lat="49.82914" lon="2.16035">
        <ele>120.8</ele>
        <time>2023-03-29T12:08:01Z</time>
      </trkpt>
      <trkpt lat="49.82913" lon="2.16034">
        <ele>120.8</ele>
        <time>2023-03-29T12:08:03Z</time>
      </trkpt>
      <trkpt lat="49.82912" lon="2.16033">
        <ele>120.8</ele>
        <time>2023-03-29T12:08:04Z</time>
      </trkpt>
      <trkpt lat="49.82912" lon="2.16032">
        <ele>120.8</ele>
        <time>2023-03-29T12:08:05Z</time>
      </trkpt>
      <trkpt lat="49.82911" lon="2.1603">
        <ele>120.8</ele>
        <time>2023-03-29T12:08:06Z</time>
      </trkpt>
      <trkpt lat="49.82909" lon="2.16028">
        <ele>120.8</ele>
        <time>2023-03-29T12:08:08Z</time>
      </trkpt>
      <trkpt lat="49.82909" lon="2.16027">
        <ele>120.8</ele>
        <time>2023-03-29T12:08:09Z</time>
      </trkpt>
      <trkpt lat="49.82908" lon="2.16026">
        <ele>120.8</ele>
        <time>2023-03-29T12:08:10Z</time>
      </trkpt>
      <trkpt lat="49.82907" lon="2.16024">
        <ele>120.8</ele>
        <time>2023-03-29T12:08:11Z</time>
      </trkpt>
      <trkpt lat="49.82905" lon="2.16022">
        <ele>120.8</ele>
        <time>2023-03-29T12:08:12Z</time>
      </trkpt>
      <trkpt lat="49.82904" lon="2.16021">
        <ele>120.8</ele>
        <time>2023-03-29T12:08:13Z</time>
      </trkpt>
      <trkpt lat="49.82903" lon="2.16019">
        <ele>120.8</ele>
        <time>2023-03-29T12:08:14Z</time>
      </trkpt>
      <trkpt lat="49.82902" lon="2.16018">
        <ele>120.8</ele>
        <time>2023-03-29T12:08:15Z</time>
      </trkpt>
      <trkpt lat="49.82901" lon="2.16017">
        <ele>120.8</ele>
        <time>2023-03-29T12:08:17Z</time>
      </trkpt>
      <trkpt lat="49.82901" lon="2.16015">
        <ele>120.8</ele>
        <time>2023-03-29T12:08:18Z</time>
      </trkpt>
      <trkpt lat="49.829" lon="2.16014">
        <ele>120.8</ele>
        <time>2023-03-29T12:08:19Z</time>
      </trkpt>
      <trkpt lat="49.82899" lon="2.16013">
        <ele>120.8</ele>
        <time>2023-03-29T12:08:20Z</time>
      </trkpt>
      <trkpt lat="49.82898" lon="2.16012">
        <ele>120.8</ele>
        <time>2023-03-29T12:08:21Z</time>
      </trkpt>
      <trkpt lat="49.82898" lon="2.16011">
        <ele>120.8</ele>
        <time>2023-03-29T12:08:22Z</time>
      </trkpt>
      <trkpt lat="49.82896" lon="2.1601">
        <ele>120.8</ele>
        <time>2023-03-29T12:08:24Z</time>
      </trkpt>
      <trkpt lat="49.82895" lon="2.16008">
        <ele>120.8</ele>
        <time>2023-03-29T12:08:25Z</time>
      </trkpt>
      <trkpt lat="49.82894" lon="2.16007">
        <ele>120.8</ele>
        <time>2023-03-29T12:08:26Z</time>
      </trkpt>
      <trkpt lat="49.82893" lon="2.16005">
        <ele>120.8</ele>
        <time>2023-03-29T12:08:27Z</time>
      </trkpt>
      <trkpt lat="49.82892" lon="2.16003">
        <ele>120.8</ele>
        <time>2023-03-29T12:08:28Z</time>
      </trkpt>
      <trkpt lat="49.8289" lon="2.16002">
        <ele>120.8</ele>
        <time>2023-03-29T12:08:29Z</time>
      </trkpt>
      <trkpt lat="49.82889" lon="2.15999">
        <ele>120.8</ele>
        <time>2023-03-29T12:08:30Z</time>
      </trkpt>
      <trkpt lat="49.82888" lon="2.15997">
        <ele>120.8</ele>
        <time>2023-03-29T12:08:32Z</time>
      </trkpt>
      <trkpt lat="49.82887" lon="2.15996">
        <ele>120.8</ele>
        <time>2023-03-29T12:08:33Z</time>
      </trkpt>
      <trkpt lat="49.82887" lon="2.15995">
        <ele>120.8</ele>
        <time>2023-03-29T12:08:34Z</time>
      </trkpt>
      <trkpt lat="49.82886" lon="2.15993">
        <ele>120.8</ele>
        <time>2023-03-29T12:08:35Z</time>
      </trkpt>
      <trkpt lat="49.82885" lon="2.15992">
        <ele>120.8</ele>
        <time>2023-03-29T12:08:36Z</time>
      </trkpt>
      <trkpt lat="49.82884" lon="2.1599">
        <ele>120.8</ele>
        <time>2023-03-29T12:08:37Z</time>
      </trkpt>
      <trkpt lat="49.82883" lon="2.15989">
        <ele>120.8</ele>
        <time>2023-03-29T12:08:38Z</time>
      </trkpt>
      <trkpt lat="49.82883" lon="2.15988">
        <ele>120.8</ele>
        <time>2023-03-29T12:08:39Z</time>
      </trkpt>
      <trkpt lat="49.82882" lon="2.15987">
        <ele>120.8</ele>
        <time>2023-03-29T12:08:40Z</time>
      </trkpt>
      <trkpt lat="49.8288" lon="2.15985">
        <ele>120.8</ele>
        <time>2023-03-29T12:08:41Z</time>
      </trkpt>
      <trkpt lat="49.82879" lon="2.15983">
        <ele>120.8</ele>
        <time>2023-03-29T12:08:42Z</time>
      </trkpt>
      <trkpt lat="49.82877" lon="2.1598">
        <ele>120.8</ele>
        <time>2023-03-29T12:08:44Z</time>
      </trkpt>
      <trkpt lat="49.82877" lon="2.15979">
        <ele>120.8</ele>
        <time>2023-03-29T12:08:45Z</time>
      </trkpt>
      <trkpt lat="49.82876" lon="2.15977">
        <ele>120.8</ele>
        <time>2023-03-29T12:08:46Z</time>
      </trkpt>
      <trkpt lat="49.82875" lon="2.15975">
        <ele>120.8</ele>
        <time>2023-03-29T12:08:47Z</time>
      </trkpt>
      <trkpt lat="49.82873" lon="2.15972">
        <ele>120.8</ele>
        <time>2023-03-29T12:08:48Z</time>
      </trkpt>
      <trkpt lat="49.82872" lon="2.15971">
        <ele>120.8</ele>
        <time>2023-03-29T12:08:50Z</time>
      </trkpt>
      <trkpt lat="49.82872" lon="2.1597">
        <ele>120.8</ele>
        <time>2023-03-29T12:08:51Z</time>
      </trkpt>
      <trkpt lat="49.82871" lon="2.15968">
        <ele>120.8</ele>
        <time>2023-03-29T12:08:52Z</time>
      </trkpt>
      <trkpt lat="49.8287" lon="2.15967">
        <ele>120.8</ele>
        <time>2023-03-29T12:08:53Z</time>
      </trkpt>
      <trkpt lat="49.82869" lon="2.15964">
        <ele>120.8</ele>
        <time>2023-03-29T12:08:54Z</time>
      </trkpt>
      <trkpt lat="49.82868" lon="2.15963">
        <ele>120.9</ele>
        <time>2023-03-29T12:08:55Z</time>
      </trkpt>
      <trkpt lat="49.82868" lon="2.15961">
        <ele>120.9</ele>
        <time>2023-03-29T12:08:57Z</time>
      </trkpt>
      <trkpt lat="49.82867" lon="2.1596">
        <ele>120.9</ele>
        <time>2023-03-29T12:08:58Z</time>
      </trkpt>
      <trkpt lat="49.82867" lon="2.15959">
        <ele>120.9</ele>
        <time>2023-03-29T12:08:59Z</time>
      </trkpt>
      <trkpt lat="49.82866" lon="2.15957">
        <ele>120.9</ele>
        <time>2023-03-29T12:09:00Z</time>
      </trkpt>
      <trkpt lat="49.82866" lon="2.15956">
        <ele>120.9</ele>
        <time>2023-03-29T12:09:01Z</time>
      </trkpt>
      <trkpt lat="49.82865" lon="2.15954">
        <ele>120.9</ele>
        <time>2023-03-29T12:09:03Z</time>
      </trkpt>
      <trkpt lat="49.82865" lon="2.15953">
        <ele>120.9</ele>
        <time>2023-03-29T12:09:04Z</time>
      </trkpt>
      <trkpt lat="49.82864" lon="2.15952">
        <ele>120.9</ele>
        <time>2023-03-29T12:09:05Z</time>
      </trkpt>
      <trkpt lat="49.82864" lon="2.15951">
        <ele>120.9</ele>
        <time>2023-03-29T12:09:06Z</time>
      </trkpt>
      <trkpt lat="49.82863" lon="2.15949">
        <ele>120.9</ele>
        <time>2023-03-29T12:09:07Z</time>
      </trkpt>
      <trkpt lat="49.82863" lon="2.15948">
        <ele>120.9</ele>
        <time>2023-03-29T12:09:08Z</time>
      </trkpt>
      <trkpt lat="49.82862" lon="2.15946">
        <ele>120.9</ele>
        <time>2023-03-29T12:09:09Z</time>
      </trkpt>
      <trkpt lat="49.82861" lon="2.15945">
        <ele>120.9</ele>
        <time>2023-03-29T12:09:11Z</time>
      </trkpt>
      <trkpt lat="49.8286" lon="2.15942">
        <ele>120.9</ele>
        <time>2023-03-29T12:09:12Z</time>
      </trkpt>
      <trkpt lat="49.82859" lon="2.15941">
        <ele>120.9</ele>
        <time>2023-03-29T12:09:13Z</time>
      </trkpt>
      <trkpt lat="49.82859" lon="2.1594">
        <ele>120.9</ele>
        <time>2023-03-29T12:09:14Z</time>
      </trkpt>
      <trkpt lat="49.82858" lon="2.15938">
        <ele>121</ele>
        <time>2023-03-29T12:09:15Z</time>
      </trkpt>
      <trkpt lat="49.82857" lon="2.15937">
        <ele>121</ele>
        <time>2023-03-29T12:09:16Z</time>
      </trkpt>
      <trkpt lat="49.82857" lon="2.15936">
        <ele>121</ele>
        <time>2023-03-29T12:09:18Z</time>
      </trkpt>
      <trkpt lat="49.82856" lon="2.15934">
        <ele>121</ele>
        <time>2023-03-29T12:09:19Z</time>
      </trkpt>
      <trkpt lat="49.82856" lon="2.15933">
        <ele>121</ele>
        <time>2023-03-29T12:09:20Z</time>
      </trkpt>
      <trkpt lat="49.82855" lon="2.15932">
        <ele>121</ele>
        <time>2023-03-29T12:09:21Z</time>
      </trkpt>
      <trkpt lat="49.82855" lon="2.1593">
        <ele>121</ele>
        <time>2023-03-29T12:09:22Z</time>
      </trkpt>
      <trkpt lat="49.82854" lon="2.15928">
        <ele>121</ele>
        <time>2023-03-29T12:09:23Z</time>
      </trkpt>
      <trkpt lat="49.82853" lon="2.15925">
        <ele>121</ele>
        <time>2023-03-29T12:09:24Z</time>
      </trkpt>
      <trkpt lat="49.82852" lon="2.15924">
        <ele>121</ele>
        <time>2023-03-29T12:09:25Z</time>
      </trkpt>
      <trkpt lat="49.82852" lon="2.15923">
        <ele>121</ele>
        <time>2023-03-29T12:09:26Z</time>
      </trkpt>
      <trkpt lat="49.8285" lon="2.15921">
        <ele>121</ele>
        <time>2023-03-29T12:09:28Z</time>
      </trkpt>
      <trkpt lat="49.8285" lon="2.1592">
        <ele>121</ele>
        <time>2023-03-29T12:09:29Z</time>
      </trkpt>
      <trkpt lat="49.82849" lon="2.15919">
        <ele>121</ele>
        <time>2023-03-29T12:09:30Z</time>
      </trkpt>
      <trkpt lat="49.82848" lon="2.15917">
        <ele>121</ele>
        <time>2023-03-29T12:09:31Z</time>
      </trkpt>
      <trkpt lat="49.82847" lon="2.15915">
        <ele>121</ele>
        <time>2023-03-29T12:09:32Z</time>
      </trkpt>
      <trkpt lat="49.82845" lon="2.15911">
        <ele>121</ele>
        <time>2023-03-29T12:09:33Z</time>
      </trkpt>
      <trkpt lat="49.82845" lon="2.1591">
        <ele>121.1</ele>
        <time>2023-03-29T12:09:35Z</time>
      </trkpt>
      <trkpt lat="49.82844" lon="2.15909">
        <ele>121.1</ele>
        <time>2023-03-29T12:09:36Z</time>
      </trkpt>
      <trkpt lat="49.82843" lon="2.15907">
        <ele>121.1</ele>
        <time>2023-03-29T12:09:37Z</time>
      </trkpt>
      <trkpt lat="49.82843" lon="2.15906">
        <ele>121.1</ele>
        <time>2023-03-29T12:09:38Z</time>
      </trkpt>
      <trkpt lat="49.82842" lon="2.15905">
        <ele>121.1</ele>
        <time>2023-03-29T12:09:39Z</time>
      </trkpt>
      <trkpt lat="49.82841" lon="2.15903">
        <ele>121.1</ele>
        <time>2023-03-29T12:09:40Z</time>
      </trkpt>
      <trkpt lat="49.8284" lon="2.15902">
        <ele>121.1</ele>
        <time>2023-03-29T12:09:42Z</time>
      </trkpt>
      <trkpt lat="49.82839" lon="2.15899">
        <ele>121.1</ele>
        <time>2023-03-29T12:09:43Z</time>
      </trkpt>
      <trkpt lat="49.82839" lon="2.15898">
        <ele>121.1</ele>
        <time>2023-03-29T12:09:44Z</time>
      </trkpt>
      <trkpt lat="49.82838" lon="2.15897">
        <ele>121.1</ele>
        <time>2023-03-29T12:09:45Z</time>
      </trkpt>
      <trkpt lat="49.82836" lon="2.15893">
        <ele>121.1</ele>
        <time>2023-03-29T12:09:46Z</time>
      </trkpt>
      <trkpt lat="49.82836" lon="2.15892">
        <ele>121.1</ele>
        <time>2023-03-29T12:09:48Z</time>
      </trkpt>
      <trkpt lat="49.82835" lon="2.1589">
        <ele>121.1</ele>
        <time>2023-03-29T12:09:49Z</time>
      </trkpt>
      <trkpt lat="49.82834" lon="2.15889">
        <ele>121.1</ele>
        <time>2023-03-29T12:09:50Z</time>
      </trkpt>
      <trkpt lat="49.82834" lon="2.15887">
        <ele>121.1</ele>
        <time>2023-03-29T12:09:51Z</time>
      </trkpt>
      <trkpt lat="49.82831" lon="2.15884">
        <ele>121.1</ele>
        <time>2023-03-29T12:09:52Z</time>
      </trkpt>
      <trkpt lat="49.8283" lon="2.15882">
        <ele>121.1</ele>
        <time>2023-03-29T12:09:54Z</time>
      </trkpt>
      <trkpt lat="49.82829" lon="2.15881">
        <ele>121.1</ele>
        <time>2023-03-29T12:09:55Z</time>
      </trkpt>
      <trkpt lat="49.82828" lon="2.15879">
        <ele>121.1</ele>
        <time>2023-03-29T12:09:56Z</time>
      </trkpt>
      <trkpt lat="49.82827" lon="2.15878">
        <ele>121.1</ele>
        <time>2023-03-29T12:09:57Z</time>
      </trkpt>
      <trkpt lat="49.82826" lon="2.15876">
        <ele>121.1</ele>
        <time>2023-03-29T12:09:58Z</time>
      </trkpt>
      <trkpt lat="49.82825" lon="2.15875">
        <ele>121.1</ele>
        <time>2023-03-29T12:09:59Z</time>
      </trkpt>
      <trkpt lat="49.82824" lon="2.15874">
        <ele>121.1</ele>
        <time>2023-03-29T12:10:00Z</time>
      </trkpt>
      <trkpt lat="49.82824" lon="2.15873">
        <ele>121.1</ele>
        <time>2023-03-29T12:10:02Z</time>
      </trkpt>
      <trkpt lat="49.82823" lon="2.15872">
        <ele>121.1</ele>
        <time>2023-03-29T12:10:03Z</time>
      </trkpt>
      <trkpt lat="49.82821" lon="2.1587">
        <ele>121.1</ele>
        <time>2023-03-29T12:10:04Z</time>
      </trkpt>
      <trkpt lat="49.8282" lon="2.15868">
        <ele>121.1</ele>
        <time>2023-03-29T12:10:05Z</time>
      </trkpt>
      <trkpt lat="49.82819" lon="2.15867">
        <ele>121.1</ele>
        <time>2023-03-29T12:10:07Z</time>
      </trkpt>
      <trkpt lat="49.82817" lon="2.15866">
        <ele>121.1</ele>
        <time>2023-03-29T12:10:08Z</time>
      </trkpt>
      <trkpt lat="49.82816" lon="2.15864">
        <ele>121.1</ele>
        <time>2023-03-29T12:10:09Z</time>
      </trkpt>
      <trkpt lat="49.82813" lon="2.15861">
        <ele>121.1</ele>
        <time>2023-03-29T12:10:10Z</time>
      </trkpt>
      <trkpt lat="49.82812" lon="2.1586">
        <ele>121.1</ele>
        <time>2023-03-29T12:10:11Z</time>
      </trkpt>
      <trkpt lat="49.82811" lon="2.15859">
        <ele>121.1</ele>
        <time>2023-03-29T12:10:12Z</time>
      </trkpt>
      <trkpt lat="49.8281" lon="2.15858">
        <ele>121.1</ele>
        <time>2023-03-29T12:10:14Z</time>
      </trkpt>
      <trkpt lat="49.82809" lon="2.15857">
        <ele>121.1</ele>
        <time>2023-03-29T12:10:15Z</time>
      </trkpt>
      <trkpt lat="49.82808" lon="2.15856">
        <ele>121.1</ele>
        <time>2023-03-29T12:10:16Z</time>
      </trkpt>
      <trkpt lat="49.82807" lon="2.15855">
        <ele>121.1</ele>
        <time>2023-03-29T12:10:17Z</time>
      </trkpt>
      <trkpt lat="49.82806" lon="2.15853">
        <ele>121.1</ele>
        <time>2023-03-29T12:10:18Z</time>
      </trkpt>
      <trkpt lat="49.82804" lon="2.15851">
        <ele>121.2</ele>
        <time>2023-03-29T12:10:19Z</time>
      </trkpt>
      <trkpt lat="49.82803" lon="2.1585">
        <ele>121.2</ele>
        <time>2023-03-29T12:10:21Z</time>
      </trkpt>
      <trkpt lat="49.82802" lon="2.15849">
        <ele>121.2</ele>
        <time>2023-03-29T12:10:22Z</time>
      </trkpt>
      <trkpt lat="49.82801" lon="2.15848">
        <ele>121.2</ele>
        <time>2023-03-29T12:10:23Z</time>
      </trkpt>
      <trkpt lat="49.82801" lon="2.15847">
        <ele>121.2</ele>
        <time>2023-03-29T12:10:24Z</time>
      </trkpt>
      <trkpt lat="49.828" lon="2.15845">
        <ele>121.2</ele>
        <time>2023-03-29T12:10:25Z</time>
      </trkpt>
      <trkpt lat="49.82798" lon="2.15843">
        <ele>121.2</ele>
        <time>2023-03-29T12:10:26Z</time>
      </trkpt>
      <trkpt lat="49.82798" lon="2.15842">
        <ele>121.2</ele>
        <time>2023-03-29T12:10:27Z</time>
      </trkpt>
      <trkpt lat="49.82797" lon="2.15841">
        <ele>121.2</ele>
        <time>2023-03-29T12:10:28Z</time>
      </trkpt>
      <trkpt lat="49.82796" lon="2.15839">
        <ele>121.2</ele>
        <time>2023-03-29T12:10:29Z</time>
      </trkpt>
      <trkpt lat="49.82795" lon="2.15837">
        <ele>121.2</ele>
        <time>2023-03-29T12:10:30Z</time>
      </trkpt>
      <trkpt lat="49.82795" lon="2.15836">
        <ele>121.2</ele>
        <time>2023-03-29T12:10:32Z</time>
      </trkpt>
      <trkpt lat="49.82794" lon="2.15836">
        <ele>121.2</ele>
        <time>2023-03-29T12:10:33Z</time>
      </trkpt>
      <trkpt lat="49.82793" lon="2.15835">
        <ele>121.2</ele>
        <time>2023-03-29T12:10:34Z</time>
      </trkpt>
      <trkpt lat="49.82791" lon="2.15832">
        <ele>121.2</ele>
        <time>2023-03-29T12:10:35Z</time>
      </trkpt>
      <trkpt lat="49.8279" lon="2.15831">
        <ele>121.2</ele>
        <time>2023-03-29T12:10:36Z</time>
      </trkpt>
      <trkpt lat="49.82789" lon="2.1583">
        <ele>121.2</ele>
        <time>2023-03-29T12:10:37Z</time>
      </trkpt>
      <trkpt lat="49.82788" lon="2.1583">
        <ele>121.2</ele>
        <time>2023-03-29T12:10:39Z</time>
      </trkpt>
      <trkpt lat="49.82787" lon="2.15829">
        <ele>121.2</ele>
        <time>2023-03-29T12:10:40Z</time>
      </trkpt>
      <trkpt lat="49.82786" lon="2.15828">
        <ele>121.3</ele>
        <time>2023-03-29T12:10:41Z</time>
      </trkpt>
      <trkpt lat="49.82785" lon="2.15827">
        <ele>121.3</ele>
        <time>2023-03-29T12:10:42Z</time>
      </trkpt>
      <trkpt lat="49.82784" lon="2.15826">
        <ele>121.3</ele>
        <time>2023-03-29T12:10:43Z</time>
      </trkpt>
      <trkpt lat="49.82783" lon="2.15825">
        <ele>121.3</ele>
        <time>2023-03-29T12:10:44Z</time>
      </trkpt>
      <trkpt lat="49.82782" lon="2.15824">
        <ele>121.3</ele>
        <time>2023-03-29T12:10:45Z</time>
      </trkpt>
      <trkpt lat="49.82781" lon="2.15822">
        <ele>121.3</ele>
        <time>2023-03-29T12:10:47Z</time>
      </trkpt>
      <trkpt lat="49.82779" lon="2.15821">
        <ele>121.3</ele>
        <time>2023-03-29T12:10:48Z</time>
      </trkpt>
      <trkpt lat="49.82778" lon="2.1582">
        <ele>121.3</ele>
        <time>2023-03-29T12:10:49Z</time>
      </trkpt>
      <trkpt lat="49.82777" lon="2.15819">
        <ele>121.3</ele>
        <time>2023-03-29T12:10:50Z</time>
      </trkpt>
      <trkpt lat="49.82776" lon="2.15817">
        <ele>121.3</ele>
        <time>2023-03-29T12:10:51Z</time>
      </trkpt>
      <trkpt lat="49.82773" lon="2.15814">
        <ele>121.3</ele>
        <time>2023-03-29T12:10:52Z</time>
      </trkpt>
      <trkpt lat="49.82772" lon="2.15813">
        <ele>121.3</ele>
        <time>2023-03-29T12:10:54Z</time>
      </trkpt>
      <trkpt lat="49.82771" lon="2.15812">
        <ele>121.3</ele>
        <time>2023-03-29T12:10:55Z</time>
      </trkpt>
      <trkpt lat="49.8277" lon="2.15811">
        <ele>121.4</ele>
        <time>2023-03-29T12:10:56Z</time>
      </trkpt>
      <trkpt lat="49.8277" lon="2.1581">
        <ele>121.4</ele>
        <time>2023-03-29T12:10:57Z</time>
      </trkpt>
      <trkpt lat="49.82768" lon="2.15808">
        <ele>121.4</ele>
        <time>2023-03-29T12:10:58Z</time>
      </trkpt>
      <trkpt lat="49.82767" lon="2.15806">
        <ele>121.4</ele>
        <time>2023-03-29T12:10:59Z</time>
      </trkpt>
      <trkpt lat="49.82765" lon="2.15805">
        <ele>121.4</ele>
        <time>2023-03-29T12:11:01Z</time>
      </trkpt>
      <trkpt lat="49.82764" lon="2.15803">
        <ele>121.4</ele>
        <time>2023-03-29T12:11:02Z</time>
      </trkpt>
      <trkpt lat="49.82763" lon="2.15802">
        <ele>121.4</ele>
        <time>2023-03-29T12:11:03Z</time>
      </trkpt>
      <trkpt lat="49.82762" lon="2.158">
        <ele>121.4</ele>
        <time>2023-03-29T12:11:04Z</time>
      </trkpt>
      <trkpt lat="49.82761" lon="2.15799">
        <ele>121.4</ele>
        <time>2023-03-29T12:11:05Z</time>
      </trkpt>
      <trkpt lat="49.8276" lon="2.15798">
        <ele>121.4</ele>
        <time>2023-03-29T12:11:06Z</time>
      </trkpt>
      <trkpt lat="49.82759" lon="2.15797">
        <ele>121.4</ele>
        <time>2023-03-29T12:11:07Z</time>
      </trkpt>
      <trkpt lat="49.82758" lon="2.15796">
        <ele>121.4</ele>
        <time>2023-03-29T12:11:08Z</time>
      </trkpt>
      <trkpt lat="49.82758" lon="2.15795">
        <ele>121.4</ele>
        <time>2023-03-29T12:11:10Z</time>
      </trkpt>
      <trkpt lat="49.82758" lon="2.15795">
        <ele>121.4</ele>
        <time>2023-03-29T12:11:11Z</time>
      </trkpt>
      <trkpt lat="49.82756" lon="2.15793">
        <ele>121.4</ele>
        <time>2023-03-29T12:11:12Z</time>
      </trkpt>
      <trkpt lat="49.82755" lon="2.15792">
        <ele>121.4</ele>
        <time>2023-03-29T12:11:13Z</time>
      </trkpt>
      <trkpt lat="49.82754" lon="2.15791">
        <ele>121.4</ele>
        <time>2023-03-29T12:11:14Z</time>
      </trkpt>
      <trkpt lat="49.82753" lon="2.15789">
        <ele>121.4</ele>
        <time>2023-03-29T12:11:15Z</time>
      </trkpt>
      <trkpt lat="49.82752" lon="2.15788">
        <ele>121.4</ele>
        <time>2023-03-29T12:11:17Z</time>
      </trkpt>
      <trkpt lat="49.82751" lon="2.15787">
        <ele>121.4</ele>
        <time>2023-03-29T12:11:18Z</time>
      </trkpt>
      <trkpt lat="49.8275" lon="2.15786">
        <ele>121.4</ele>
        <time>2023-03-29T12:11:19Z</time>
      </trkpt>
      <trkpt lat="49.82749" lon="2.15784">
        <ele>121.4</ele>
        <time>2023-03-29T12:11:20Z</time>
      </trkpt>
      <trkpt lat="49.82748" lon="2.15783">
        <ele>121.4</ele>
        <time>2023-03-29T12:11:21Z</time>
      </trkpt>
      <trkpt lat="49.82747" lon="2.15782">
        <ele>121.4</ele>
        <time>2023-03-29T12:11:22Z</time>
      </trkpt>
      <trkpt lat="49.82746" lon="2.15781">
        <ele>121.5</ele>
        <time>2023-03-29T12:11:23Z</time>
      </trkpt>
      <trkpt lat="49.82745" lon="2.1578">
        <ele>121.5</ele>
        <time>2023-03-29T12:11:24Z</time>
      </trkpt>
      <trkpt lat="49.82744" lon="2.15779">
        <ele>121.5</ele>
        <time>2023-03-29T12:11:25Z</time>
      </trkpt>
      <trkpt lat="49.82743" lon="2.15778">
        <ele>121.5</ele>
        <time>2023-03-29T12:11:26Z</time>
      </trkpt>
      <trkpt lat="49.82743" lon="2.15778">
        <ele>121.5</ele>
        <time>2023-03-29T12:11:28Z</time>
      </trkpt>
      <trkpt lat="49.82742" lon="2.15777">
        <ele>121.5</ele>
        <time>2023-03-29T12:11:29Z</time>
      </trkpt>
      <trkpt lat="49.82741" lon="2.15776">
        <ele>121.5</ele>
        <time>2023-03-29T12:11:30Z</time>
      </trkpt>
      <trkpt lat="49.8274" lon="2.15775">
        <ele>121.5</ele>
        <time>2023-03-29T12:11:31Z</time>
      </trkpt>
      <trkpt lat="49.82739" lon="2.15774">
        <ele>121.5</ele>
        <time>2023-03-29T12:11:33Z</time>
      </trkpt>
      <trkpt lat="49.82737" lon="2.15772">
        <ele>121.5</ele>
        <time>2023-03-29T12:11:34Z</time>
      </trkpt>
      <trkpt lat="49.82735" lon="2.15771">
        <ele>121.5</ele>
        <time>2023-03-29T12:11:35Z</time>
      </trkpt>
      <trkpt lat="49.82734" lon="2.1577">
        <ele>121.5</ele>
        <time>2023-03-29T12:11:36Z</time>
      </trkpt>
      <trkpt lat="49.82733" lon="2.15768">
        <ele>121.5</ele>
        <time>2023-03-29T12:11:37Z</time>
      </trkpt>
      <trkpt lat="49.82732" lon="2.15767">
        <ele>121.5</ele>
        <time>2023-03-29T12:11:38Z</time>
      </trkpt>
      <trkpt lat="49.82731" lon="2.15766">
        <ele>121.5</ele>
        <time>2023-03-29T12:11:39Z</time>
      </trkpt>
      <trkpt lat="49.8273" lon="2.15764">
        <ele>121.5</ele>
        <time>2023-03-29T12:11:40Z</time>
      </trkpt>
      <trkpt lat="49.82729" lon="2.15763">
        <ele>121.5</ele>
        <time>2023-03-29T12:11:41Z</time>
      </trkpt>
      <trkpt lat="49.82728" lon="2.15762">
        <ele>121.5</ele>
        <time>2023-03-29T12:11:42Z</time>
      </trkpt>
      <trkpt lat="49.82727" lon="2.15761">
        <ele>121.6</ele>
        <time>2023-03-29T12:11:44Z</time>
      </trkpt>
      <trkpt lat="49.82726" lon="2.15761">
        <ele>121.6</ele>
        <time>2023-03-29T12:11:45Z</time>
      </trkpt>
      <trkpt lat="49.82724" lon="2.15759">
        <ele>121.6</ele>
        <time>2023-03-29T12:11:46Z</time>
      </trkpt>
      <trkpt lat="49.82723" lon="2.15757">
        <ele>121.6</ele>
        <time>2023-03-29T12:11:47Z</time>
      </trkpt>
      <trkpt lat="49.82721" lon="2.15756">
        <ele>121.6</ele>
        <time>2023-03-29T12:11:49Z</time>
      </trkpt>
      <trkpt lat="49.8272" lon="2.15755">
        <ele>121.6</ele>
        <time>2023-03-29T12:11:50Z</time>
      </trkpt>
      <trkpt lat="49.82719" lon="2.15753">
        <ele>121.6</ele>
        <time>2023-03-29T12:11:51Z</time>
      </trkpt>
      <trkpt lat="49.82717" lon="2.1575">
        <ele>121.6</ele>
        <time>2023-03-29T12:11:53Z</time>
      </trkpt>
      <trkpt lat="49.82717" lon="2.15749">
        <ele>121.6</ele>
        <time>2023-03-29T12:11:54Z</time>
      </trkpt>
      <trkpt lat="49.82716" lon="2.15748">
        <ele>121.6</ele>
        <time>2023-03-29T12:11:55Z</time>
      </trkpt>
      <trkpt lat="49.82715" lon="2.15747">
        <ele>121.6</ele>
        <time>2023-03-29T12:11:56Z</time>
      </trkpt>
      <trkpt lat="49.82714" lon="2.15746">
        <ele>121.6</ele>
        <time>2023-03-29T12:11:57Z</time>
      </trkpt>
      <trkpt lat="49.82713" lon="2.15745">
        <ele>121.6</ele>
        <time>2023-03-29T12:11:58Z</time>
      </trkpt>
      <trkpt lat="49.82712" lon="2.15744">
        <ele>121.6</ele>
        <time>2023-03-29T12:11:59Z</time>
      </trkpt>
      <trkpt lat="49.82711" lon="2.15742">
        <ele>121.6</ele>
        <time>2023-03-29T12:12:01Z</time>
      </trkpt>
      <trkpt lat="49.8271" lon="2.15741">
        <ele>121.7</ele>
        <time>2023-03-29T12:12:02Z</time>
      </trkpt>
      <trkpt lat="49.82709" lon="2.15739">
        <ele>121.7</ele>
        <time>2023-03-29T12:12:03Z</time>
      </trkpt>
      <trkpt lat="49.82707" lon="2.15736">
        <ele>121.7</ele>
        <time>2023-03-29T12:12:04Z</time>
      </trkpt>
      <trkpt lat="49.82706" lon="2.15735">
        <ele>121.7</ele>
        <time>2023-03-29T12:12:05Z</time>
      </trkpt>
      <trkpt lat="49.82705" lon="2.15734">
        <ele>121.7</ele>
        <time>2023-03-29T12:12:06Z</time>
      </trkpt>
      <trkpt lat="49.82705" lon="2.15733">
        <ele>121.7</ele>
        <time>2023-03-29T12:12:08Z</time>
      </trkpt>
      <trkpt lat="49.82704" lon="2.15732">
        <ele>121.7</ele>
        <time>2023-03-29T12:12:09Z</time>
      </trkpt>
      <trkpt lat="49.82703" lon="2.15731">
        <ele>121.7</ele>
        <time>2023-03-29T12:12:10Z</time>
      </trkpt>
      <trkpt lat="49.82703" lon="2.1573">
        <ele>121.7</ele>
        <time>2023-03-29T12:12:11Z</time>
      </trkpt>
      <trkpt lat="49.82702" lon="2.15728">
        <ele>121.7</ele>
        <time>2023-03-29T12:12:12Z</time>
      </trkpt>
      <trkpt lat="49.82701" lon="2.15726">
        <ele>121.8</ele>
        <time>2023-03-29T12:12:13Z</time>
      </trkpt>
      <trkpt lat="49.827" lon="2.15724">
        <ele>121.8</ele>
        <time>2023-03-29T12:12:14Z</time>
      </trkpt>
      <trkpt lat="49.82699" lon="2.15723">
        <ele>121.8</ele>
        <time>2023-03-29T12:12:15Z</time>
      </trkpt>
      <trkpt lat="49.82698" lon="2.15721">
        <ele>121.8</ele>
        <time>2023-03-29T12:12:16Z</time>
      </trkpt>
      <trkpt lat="49.82698" lon="2.1572">
        <ele>121.8</ele>
        <time>2023-03-29T12:12:18Z</time>
      </trkpt>
      <trkpt lat="49.82696" lon="2.15717">
        <ele>121.8</ele>
        <time>2023-03-29T12:12:19Z</time>
      </trkpt>
      <trkpt lat="49.82696" lon="2.15716">
        <ele>121.8</ele>
        <time>2023-03-29T12:12:20Z</time>
      </trkpt>
      <trkpt lat="49.82696" lon="2.15715">
        <ele>121.8</ele>
        <time>2023-03-29T12:12:21Z</time>
      </trkpt>
      <trkpt lat="49.82695" lon="2.15713">
        <ele>121.8</ele>
        <time>2023-03-29T12:12:22Z</time>
      </trkpt>
      <trkpt lat="49.82694" lon="2.15711">
        <ele>121.9</ele>
        <time>2023-03-29T12:12:23Z</time>
      </trkpt>
      <trkpt lat="49.82693" lon="2.15708">
        <ele>121.9</ele>
        <time>2023-03-29T12:12:24Z</time>
      </trkpt>
      <trkpt lat="49.82693" lon="2.15706">
        <ele>121.9</ele>
        <time>2023-03-29T12:12:25Z</time>
      </trkpt>
      <trkpt lat="49.82693" lon="2.15705">
        <ele>121.9</ele>
        <time>2023-03-29T12:12:26Z</time>
      </trkpt>
      <trkpt lat="49.82692" lon="2.15702">
        <ele>121.9</ele>
        <time>2023-03-29T12:12:27Z</time>
      </trkpt>
      <trkpt lat="49.82691" lon="2.157">
        <ele>121.9</ele>
        <time>2023-03-29T12:12:29Z</time>
      </trkpt>
      <trkpt lat="49.82691" lon="2.15698">
        <ele>121.9</ele>
        <time>2023-03-29T12:12:30Z</time>
      </trkpt>
      <trkpt lat="49.82691" lon="2.15697">
        <ele>121.9</ele>
        <time>2023-03-29T12:12:31Z</time>
      </trkpt>
      <trkpt lat="49.8269" lon="2.15695">
        <ele>122</ele>
        <time>2023-03-29T12:12:32Z</time>
      </trkpt>
      <trkpt lat="49.82689" lon="2.15693">
        <ele>122</ele>
        <time>2023-03-29T12:12:33Z</time>
      </trkpt>
      <trkpt lat="49.82689" lon="2.15692">
        <ele>122</ele>
        <time>2023-03-29T12:12:34Z</time>
      </trkpt>
      <trkpt lat="49.82688" lon="2.1569">
        <ele>122</ele>
        <time>2023-03-29T12:12:36Z</time>
      </trkpt>
      <trkpt lat="49.82687" lon="2.15687">
        <ele>122</ele>
        <time>2023-03-29T12:12:37Z</time>
      </trkpt>
      <trkpt lat="49.82687" lon="2.15685">
        <ele>122</ele>
        <time>2023-03-29T12:12:38Z</time>
      </trkpt>
      <trkpt lat="49.82686" lon="2.15684">
        <ele>122</ele>
        <time>2023-03-29T12:12:39Z</time>
      </trkpt>
      <trkpt lat="49.82685" lon="2.15682">
        <ele>122</ele>
        <time>2023-03-29T12:12:40Z</time>
      </trkpt>
      <trkpt lat="49.82685" lon="2.15681">
        <ele>122</ele>
        <time>2023-03-29T12:12:42Z</time>
      </trkpt>
      <trkpt lat="49.82685" lon="2.15679">
        <ele>122.1</ele>
        <time>2023-03-29T12:12:43Z</time>
      </trkpt>
      <trkpt lat="49.82684" lon="2.15678">
        <ele>122.1</ele>
        <time>2023-03-29T12:12:44Z</time>
      </trkpt>
      <trkpt lat="49.82683" lon="2.15676">
        <ele>122.1</ele>
        <time>2023-03-29T12:12:45Z</time>
      </trkpt>
      <trkpt lat="49.82682" lon="2.15674">
        <ele>122.1</ele>
        <time>2023-03-29T12:12:46Z</time>
      </trkpt>
      <trkpt lat="49.82681" lon="2.15672">
        <ele>122.1</ele>
        <time>2023-03-29T12:12:47Z</time>
      </trkpt>
      <trkpt lat="49.8268" lon="2.1567">
        <ele>122.1</ele>
        <time>2023-03-29T12:12:48Z</time>
      </trkpt>
      <trkpt lat="49.82679" lon="2.15669">
        <ele>122.1</ele>
        <time>2023-03-29T12:12:49Z</time>
      </trkpt>
      <trkpt lat="49.82679" lon="2.15668">
        <ele>122.1</ele>
        <time>2023-03-29T12:12:51Z</time>
      </trkpt>
      <trkpt lat="49.82678" lon="2.15667">
        <ele>122.1</ele>
        <time>2023-03-29T12:12:52Z</time>
      </trkpt>
      <trkpt lat="49.82678" lon="2.15666">
        <ele>122.1</ele>
        <time>2023-03-29T12:12:53Z</time>
      </trkpt>
      <trkpt lat="49.82677" lon="2.15665">
        <ele>122.2</ele>
        <time>2023-03-29T12:12:54Z</time>
      </trkpt>
      <trkpt lat="49.82677" lon="2.15664">
        <ele>122.2</ele>
        <time>2023-03-29T12:12:55Z</time>
      </trkpt>
      <trkpt lat="49.82676" lon="2.15662">
        <ele>122.2</ele>
        <time>2023-03-29T12:12:56Z</time>
      </trkpt>
      <trkpt lat="49.82675" lon="2.1566">
        <ele>122.2</ele>
        <time>2023-03-29T12:12:58Z</time>
      </trkpt>
      <trkpt lat="49.82675" lon="2.1566">
        <ele>122.2</ele>
        <time>2023-03-29T12:12:59Z</time>
      </trkpt>
      <trkpt lat="49.82674" lon="2.15658">
        <ele>122.2</ele>
        <time>2023-03-29T12:13:00Z</time>
      </trkpt>
      <trkpt lat="49.82674" lon="2.15656">
        <ele>122.2</ele>
        <time>2023-03-29T12:13:01Z</time>
      </trkpt>
      <trkpt lat="49.82672" lon="2.15653">
        <ele>122.2</ele>
        <time>2023-03-29T12:13:02Z</time>
      </trkpt>
      <trkpt lat="49.82672" lon="2.15652">
        <ele>122.2</ele>
        <time>2023-03-29T12:13:04Z</time>
      </trkpt>
      <trkpt lat="49.82671" lon="2.15651">
        <ele>122.2</ele>
        <time>2023-03-29T12:13:05Z</time>
      </trkpt>
      <trkpt lat="49.82669" lon="2.15648">
        <ele>122.3</ele>
        <time>2023-03-29T12:13:06Z</time>
      </trkpt>
      <trkpt lat="49.82668" lon="2.15647">
        <ele>122.3</ele>
        <time>2023-03-29T12:13:07Z</time>
      </trkpt>
      <trkpt lat="49.82667" lon="2.15646">
        <ele>122.3</ele>
        <time>2023-03-29T12:13:08Z</time>
      </trkpt>
      <trkpt lat="49.82667" lon="2.15644">
        <ele>122.3</ele>
        <time>2023-03-29T12:13:10Z</time>
      </trkpt>
      <trkpt lat="49.82666" lon="2.15643">
        <ele>122.3</ele>
        <time>2023-03-29T12:13:11Z</time>
      </trkpt>
      <trkpt lat="49.82664" lon="2.15641">
        <ele>122.3</ele>
        <time>2023-03-29T12:13:12Z</time>
      </trkpt>
      <trkpt lat="49.82664" lon="2.1564">
        <ele>122.3</ele>
        <time>2023-03-29T12:13:13Z</time>
      </trkpt>
      <trkpt lat="49.82663" lon="2.15639">
        <ele>122.3</ele>
        <time>2023-03-29T12:13:14Z</time>
      </trkpt>
      <trkpt lat="49.82662" lon="2.15638">
        <ele>122.3</ele>
        <time>2023-03-29T12:13:15Z</time>
      </trkpt>
      <trkpt lat="49.82661" lon="2.15637">
        <ele>122.3</ele>
        <time>2023-03-29T12:13:17Z</time>
      </trkpt>
      <trkpt lat="49.82661" lon="2.15636">
        <ele>122.3</ele>
        <time>2023-03-29T12:13:18Z</time>
      </trkpt>
      <trkpt lat="49.8266" lon="2.15636">
        <ele>122.3</ele>
        <time>2023-03-29T12:13:19Z</time>
      </trkpt>
      <trkpt lat="49.82659" lon="2.15634">
        <ele>122.3</ele>
        <time>2023-03-29T12:13:20Z</time>
      </trkpt>
      <trkpt lat="49.82658" lon="2.15633">
        <ele>122.3</ele>
        <time>2023-03-29T12:13:21Z</time>
      </trkpt>
      <trkpt lat="49.82657" lon="2.15632">
        <ele>122.3</ele>
        <time>2023-03-29T12:13:22Z</time>
      </trkpt>
      <trkpt lat="49.82656" lon="2.1563">
        <ele>122.3</ele>
        <time>2023-03-29T12:13:23Z</time>
      </trkpt>
      <trkpt lat="49.82655" lon="2.15629">
        <ele>122.3</ele>
        <time>2023-03-29T12:13:24Z</time>
      </trkpt>
      <trkpt lat="49.82654" lon="2.15628">
        <ele>122.3</ele>
        <time>2023-03-29T12:13:25Z</time>
      </trkpt>
      <trkpt lat="49.82652" lon="2.15624">
        <ele>122.4</ele>
        <time>2023-03-29T12:13:27Z</time>
      </trkpt>
      <trkpt lat="49.82651" lon="2.15624">
        <ele>122.4</ele>
        <time>2023-03-29T12:13:28Z</time>
      </trkpt>
      <trkpt lat="49.82649" lon="2.15621">
        <ele>122.4</ele>
        <time>2023-03-29T12:13:29Z</time>
      </trkpt>
      <trkpt lat="49.82647" lon="2.15618">
        <ele>122.4</ele>
        <time>2023-03-29T12:13:31Z</time>
      </trkpt>
      <trkpt lat="49.82646" lon="2.15617">
        <ele>122.4</ele>
        <time>2023-03-29T12:13:32Z</time>
      </trkpt>
      <trkpt lat="49.82646" lon="2.15616">
        <ele>122.4</ele>
        <time>2023-03-29T12:13:33Z</time>
      </trkpt>
      <trkpt lat="49.82644" lon="2.15614">
        <ele>122.4</ele>
        <time>2023-03-29T12:13:34Z</time>
      </trkpt>
      <trkpt lat="49.82643" lon="2.15613">
        <ele>122.4</ele>
        <time>2023-03-29T12:13:36Z</time>
      </trkpt>
      <trkpt lat="49.82642" lon="2.15611">
        <ele>122.4</ele>
        <time>2023-03-29T12:13:37Z</time>
      </trkpt>
      <trkpt lat="49.82641" lon="2.1561">
        <ele>122.4</ele>
        <time>2023-03-29T12:13:38Z</time>
      </trkpt>
      <trkpt lat="49.8264" lon="2.15608">
        <ele>122.4</ele>
        <time>2023-03-29T12:13:39Z</time>
      </trkpt>
      <trkpt lat="49.82639" lon="2.15607">
        <ele>122.4</ele>
        <time>2023-03-29T12:13:40Z</time>
      </trkpt>
      <trkpt lat="49.82636" lon="2.15604">
        <ele>122.5</ele>
        <time>2023-03-29T12:13:41Z</time>
      </trkpt>
      <trkpt lat="49.82635" lon="2.15602">
        <ele>122.5</ele>
        <time>2023-03-29T12:13:43Z</time>
      </trkpt>
      <trkpt lat="49.82634" lon="2.15601">
        <ele>122.5</ele>
        <time>2023-03-29T12:13:44Z</time>
      </trkpt>
      <trkpt lat="49.82633" lon="2.156">
        <ele>122.5</ele>
        <time>2023-03-29T12:13:45Z</time>
      </trkpt>
      <trkpt lat="49.82632" lon="2.15598">
        <ele>122.5</ele>
        <time>2023-03-29T12:13:46Z</time>
      </trkpt>
      <trkpt lat="49.82631" lon="2.15596">
        <ele>122.5</ele>
        <time>2023-03-29T12:13:47Z</time>
      </trkpt>
      <trkpt lat="49.8263" lon="2.15595">
        <ele>122.5</ele>
        <time>2023-03-29T12:13:48Z</time>
      </trkpt>
      <trkpt lat="49.82629" lon="2.15595">
        <ele>122.5</ele>
        <time>2023-03-29T12:13:49Z</time>
      </trkpt>
      <trkpt lat="49.82629" lon="2.15594">
        <ele>122.5</ele>
        <time>2023-03-29T12:13:50Z</time>
      </trkpt>
      <trkpt lat="49.82629" lon="2.15594">
        <ele>122.5</ele>
        <time>2023-03-29T12:13:51Z</time>
      </trkpt>
      <trkpt lat="49.82629" lon="2.15593">
        <ele>122.5</ele>
        <time>2023-03-29T12:13:52Z</time>
      </trkpt>
      <trkpt lat="49.82628" lon="2.15593">
        <ele>122.5</ele>
        <time>2023-03-29T12:13:53Z</time>
      </trkpt>
      <trkpt lat="49.82627" lon="2.15592">
        <ele>122.5</ele>
        <time>2023-03-29T12:13:55Z</time>
      </trkpt>
      <trkpt lat="49.82626" lon="2.15591">
        <ele>122.6</ele>
        <time>2023-03-29T12:13:56Z</time>
      </trkpt>
      <trkpt lat="49.82626" lon="2.1559">
        <ele>122.6</ele>
        <time>2023-03-29T12:13:57Z</time>
      </trkpt>
      <trkpt lat="49.82625" lon="2.1559">
        <ele>122.6</ele>
        <time>2023-03-29T12:13:58Z</time>
      </trkpt>
      <trkpt lat="49.82624" lon="2.15588">
        <ele>122.6</ele>
        <time>2023-03-29T12:14:00Z</time>
      </trkpt>
      <trkpt lat="49.82623" lon="2.15587">
        <ele>122.6</ele>
        <time>2023-03-29T12:14:01Z</time>
      </trkpt>
      <trkpt lat="49.82622" lon="2.15586">
        <ele>122.6</ele>
        <time>2023-03-29T12:14:02Z</time>
      </trkpt>
      <trkpt lat="49.82621" lon="2.15584">
        <ele>122.6</ele>
        <time>2023-03-29T12:14:03Z</time>
      </trkpt>
      <trkpt lat="49.82619" lon="2.15583">
        <ele>122.6</ele>
        <time>2023-03-29T12:14:04Z</time>
      </trkpt>
      <trkpt lat="49.82618" lon="2.15581">
        <ele>122.6</ele>
        <time>2023-03-29T12:14:05Z</time>
      </trkpt>
      <trkpt lat="49.82617" lon="2.1558">
        <ele>122.6</ele>
        <time>2023-03-29T12:14:06Z</time>
      </trkpt>
      <trkpt lat="49.82616" lon="2.15579">
        <ele>122.6</ele>
        <time>2023-03-29T12:14:07Z</time>
      </trkpt>
      <trkpt lat="49.82615" lon="2.15577">
        <ele>122.7</ele>
        <time>2023-03-29T12:14:08Z</time>
      </trkpt>
      <trkpt lat="49.82613" lon="2.15576">
        <ele>122.7</ele>
        <time>2023-03-29T12:14:10Z</time>
      </trkpt>
      <trkpt lat="49.82612" lon="2.15575">
        <ele>122.7</ele>
        <time>2023-03-29T12:14:11Z</time>
      </trkpt>
      <trkpt lat="49.82612" lon="2.15574">
        <ele>122.7</ele>
        <time>2023-03-29T12:14:12Z</time>
      </trkpt>
      <trkpt lat="49.82611" lon="2.15573">
        <ele>122.7</ele>
        <time>2023-03-29T12:14:13Z</time>
      </trkpt>
      <trkpt lat="49.82609" lon="2.15572">
        <ele>122.7</ele>
        <time>2023-03-29T12:14:14Z</time>
      </trkpt>
      <trkpt lat="49.82608" lon="2.1557">
        <ele>122.7</ele>
        <time>2023-03-29T12:14:15Z</time>
      </trkpt>
      <trkpt lat="49.82607" lon="2.15569">
        <ele>122.7</ele>
        <time>2023-03-29T12:14:16Z</time>
      </trkpt>
      <trkpt lat="49.82606" lon="2.15567">
        <ele>122.7</ele>
        <time>2023-03-29T12:14:17Z</time>
      </trkpt>
      <trkpt lat="49.82605" lon="2.15567">
        <ele>122.7</ele>
        <time>2023-03-29T12:14:18Z</time>
      </trkpt>
      <trkpt lat="49.82604" lon="2.15566">
        <ele>122.7</ele>
        <time>2023-03-29T12:14:20Z</time>
      </trkpt>
      <trkpt lat="49.82604" lon="2.15566">
        <ele>122.7</ele>
        <time>2023-03-29T12:14:21Z</time>
      </trkpt>
      <trkpt lat="49.82603" lon="2.15566">
        <ele>122.7</ele>
        <time>2023-03-29T12:14:22Z</time>
      </trkpt>
      <trkpt lat="49.82602" lon="2.15564">
        <ele>122.7</ele>
        <time>2023-03-29T12:14:23Z</time>
      </trkpt>
      <trkpt lat="49.82602" lon="2.15564">
        <ele>122.7</ele>
        <time>2023-03-29T12:14:24Z</time>
      </trkpt>
      <trkpt lat="49.82601" lon="2.15562">
        <ele>122.7</ele>
        <time>2023-03-29T12:14:25Z</time>
      </trkpt>
      <trkpt lat="49.826" lon="2.15562">
        <ele>122.7</ele>
        <time>2023-03-29T12:14:27Z</time>
      </trkpt>
      <trkpt lat="49.82599" lon="2.15561">
        <ele>122.7</ele>
        <time>2023-03-29T12:14:28Z</time>
      </trkpt>
      <trkpt lat="49.82597" lon="2.15559">
        <ele>122.7</ele>
        <time>2023-03-29T12:14:29Z</time>
      </trkpt>
      <trkpt lat="49.82596" lon="2.15558">
        <ele>122.8</ele>
        <time>2023-03-29T12:14:30Z</time>
      </trkpt>
      <trkpt lat="49.82595" lon="2.15557">
        <ele>122.8</ele>
        <time>2023-03-29T12:14:31Z</time>
      </trkpt>
      <trkpt lat="49.82594" lon="2.15556">
        <ele>122.8</ele>
        <time>2023-03-29T12:14:32Z</time>
      </trkpt>
      <trkpt lat="49.82593" lon="2.15555">
        <ele>122.8</ele>
        <time>2023-03-29T12:14:33Z</time>
      </trkpt>
      <trkpt lat="49.82592" lon="2.15554">
        <ele>122.8</ele>
        <time>2023-03-29T12:14:35Z</time>
      </trkpt>
      <trkpt lat="49.82591" lon="2.15552">
        <ele>122.8</ele>
        <time>2023-03-29T12:14:36Z</time>
      </trkpt>
      <trkpt lat="49.82589" lon="2.15551">
        <ele>122.8</ele>
        <time>2023-03-29T12:14:37Z</time>
      </trkpt>
      <trkpt lat="49.82588" lon="2.1555">
        <ele>122.8</ele>
        <time>2023-03-29T12:14:38Z</time>
      </trkpt>
      <trkpt lat="49.82586" lon="2.15549">
        <ele>122.8</ele>
        <time>2023-03-29T12:14:39Z</time>
      </trkpt>
      <trkpt lat="49.82585" lon="2.15547">
        <ele>122.8</ele>
        <time>2023-03-29T12:14:40Z</time>
      </trkpt>
      <trkpt lat="49.82584" lon="2.15547">
        <ele>122.8</ele>
        <time>2023-03-29T12:14:41Z</time>
      </trkpt>
      <trkpt lat="49.82583" lon="2.15546">
        <ele>122.8</ele>
        <time>2023-03-29T12:14:42Z</time>
      </trkpt>
      <trkpt lat="49.82582" lon="2.15545">
        <ele>122.8</ele>
        <time>2023-03-29T12:14:44Z</time>
      </trkpt>
      <trkpt lat="49.82581" lon="2.15544">
        <ele>122.8</ele>
        <time>2023-03-29T12:14:45Z</time>
      </trkpt>
      <trkpt lat="49.82579" lon="2.15543">
        <ele>122.8</ele>
        <time>2023-03-29T12:14:46Z</time>
      </trkpt>
      <trkpt lat="49.82578" lon="2.15541">
        <ele>122.8</ele>
        <time>2023-03-29T12:14:47Z</time>
      </trkpt>
      <trkpt lat="49.82577" lon="2.1554">
        <ele>122.8</ele>
        <time>2023-03-29T12:14:48Z</time>
      </trkpt>
      <trkpt lat="49.82576" lon="2.1554">
        <ele>122.8</ele>
        <time>2023-03-29T12:14:49Z</time>
      </trkpt>
      <trkpt lat="49.82575" lon="2.1554">
        <ele>122.8</ele>
        <time>2023-03-29T12:14:50Z</time>
      </trkpt>
      <trkpt lat="49.82574" lon="2.15539">
        <ele>122.8</ele>
        <time>2023-03-29T12:14:52Z</time>
      </trkpt>
      <trkpt lat="49.82573" lon="2.15539">
        <ele>122.8</ele>
        <time>2023-03-29T12:14:53Z</time>
      </trkpt>
      <trkpt lat="49.82572" lon="2.15538">
        <ele>122.8</ele>
        <time>2023-03-29T12:14:54Z</time>
      </trkpt>
      <trkpt lat="49.82571" lon="2.15537">
        <ele>122.8</ele>
        <time>2023-03-29T12:14:55Z</time>
      </trkpt>
      <trkpt lat="49.8257" lon="2.15537">
        <ele>122.8</ele>
        <time>2023-03-29T12:14:56Z</time>
      </trkpt>
      <trkpt lat="49.82569" lon="2.15537">
        <ele>122.8</ele>
        <time>2023-03-29T12:14:57Z</time>
      </trkpt>
      <trkpt lat="49.82568" lon="2.15536">
        <ele>122.8</ele>
        <time>2023-03-29T12:14:59Z</time>
      </trkpt>
      <trkpt lat="49.82567" lon="2.15536">
        <ele>122.8</ele>
        <time>2023-03-29T12:15:00Z</time>
      </trkpt>
      <trkpt lat="49.82566" lon="2.15536">
        <ele>122.8</ele>
        <time>2023-03-29T12:15:01Z</time>
      </trkpt>
      <trkpt lat="49.82565" lon="2.15535">
        <ele>122.8</ele>
        <time>2023-03-29T12:15:02Z</time>
      </trkpt>
      <trkpt lat="49.82564" lon="2.15535">
        <ele>122.9</ele>
        <time>2023-03-29T12:15:03Z</time>
      </trkpt>
      <trkpt lat="49.82563" lon="2.15535">
        <ele>122.9</ele>
        <time>2023-03-29T12:15:04Z</time>
      </trkpt>
      <trkpt lat="49.82561" lon="2.15534">
        <ele>122.9</ele>
        <time>2023-03-29T12:15:05Z</time>
      </trkpt>
      <trkpt lat="49.8256" lon="2.15534">
        <ele>122.9</ele>
        <time>2023-03-29T12:15:06Z</time>
      </trkpt>
      <trkpt lat="49.82558" lon="2.15533">
        <ele>122.9</ele>
        <time>2023-03-29T12:15:07Z</time>
      </trkpt>
      <trkpt lat="49.82557" lon="2.15532">
        <ele>122.9</ele>
        <time>2023-03-29T12:15:08Z</time>
      </trkpt>
      <trkpt lat="49.82555" lon="2.15531">
        <ele>122.9</ele>
        <time>2023-03-29T12:15:09Z</time>
      </trkpt>
      <trkpt lat="49.82554" lon="2.1553">
        <ele>122.9</ele>
        <time>2023-03-29T12:15:10Z</time>
      </trkpt>
      <trkpt lat="49.82554" lon="2.1553">
        <ele>122.9</ele>
        <time>2023-03-29T12:15:12Z</time>
      </trkpt>
      <trkpt lat="49.82553" lon="2.15529">
        <ele>122.9</ele>
        <time>2023-03-29T12:15:13Z</time>
      </trkpt>
      <trkpt lat="49.82552" lon="2.15529">
        <ele>122.9</ele>
        <time>2023-03-29T12:15:14Z</time>
      </trkpt>
      <trkpt lat="49.82551" lon="2.15528">
        <ele>122.9</ele>
        <time>2023-03-29T12:15:15Z</time>
      </trkpt>
      <trkpt lat="49.8255" lon="2.15527">
        <ele>122.9</ele>
        <time>2023-03-29T12:15:16Z</time>
      </trkpt>
      <trkpt lat="49.82548" lon="2.15526">
        <ele>122.9</ele>
        <time>2023-03-29T12:15:18Z</time>
      </trkpt>
      <trkpt lat="49.82547" lon="2.15526">
        <ele>122.9</ele>
        <time>2023-03-29T12:15:19Z</time>
      </trkpt>
      <trkpt lat="49.82545" lon="2.15525">
        <ele>122.9</ele>
        <time>2023-03-29T12:15:20Z</time>
      </trkpt>
      <trkpt lat="49.82544" lon="2.15524">
        <ele>122.9</ele>
        <time>2023-03-29T12:15:21Z</time>
      </trkpt>
      <trkpt lat="49.82543" lon="2.15523">
        <ele>123</ele>
        <time>2023-03-29T12:15:22Z</time>
      </trkpt>
      <trkpt lat="49.82541" lon="2.15522">
        <ele>123</ele>
        <time>2023-03-29T12:15:23Z</time>
      </trkpt>
      <trkpt lat="49.82539" lon="2.15521">
        <ele>123</ele>
        <time>2023-03-29T12:15:24Z</time>
      </trkpt>
      <trkpt lat="49.82538" lon="2.1552">
        <ele>123</ele>
        <time>2023-03-29T12:15:25Z</time>
      </trkpt>
      <trkpt lat="49.82537" lon="2.15519">
        <ele>123</ele>
        <time>2023-03-29T12:15:26Z</time>
      </trkpt>
      <trkpt lat="49.82535" lon="2.15518">
        <ele>123</ele>
        <time>2023-03-29T12:15:28Z</time>
      </trkpt>
      <trkpt lat="49.82534" lon="2.15517">
        <ele>123</ele>
        <time>2023-03-29T12:15:29Z</time>
      </trkpt>
      <trkpt lat="49.82532" lon="2.15516">
        <ele>123</ele>
        <time>2023-03-29T12:15:30Z</time>
      </trkpt>
      <trkpt lat="49.8253" lon="2.15515">
        <ele>123</ele>
        <time>2023-03-29T12:15:31Z</time>
      </trkpt>
      <trkpt lat="49.8253" lon="2.15515">
        <ele>123</ele>
        <time>2023-03-29T12:15:32Z</time>
      </trkpt>
      <trkpt lat="49.82529" lon="2.15514">
        <ele>123</ele>
        <time>2023-03-29T12:15:34Z</time>
      </trkpt>
      <trkpt lat="49.82529" lon="2.15512">
        <ele>123</ele>
        <time>2023-03-29T12:15:35Z</time>
      </trkpt>
      <trkpt lat="49.82529" lon="2.1551">
        <ele>123</ele>
        <time>2023-03-29T12:15:37Z</time>
      </trkpt>
      <trkpt lat="49.8253" lon="2.15509">
        <ele>123</ele>
        <time>2023-03-29T12:15:38Z</time>
      </trkpt>
      <trkpt lat="49.82531" lon="2.15508">
        <ele>123</ele>
        <time>2023-03-29T12:15:40Z</time>
      </trkpt>
      <trkpt lat="49.82531" lon="2.15508">
        <ele>123</ele>
        <time>2023-03-29T12:15:41Z</time>
      </trkpt>
      <trkpt lat="49.82531" lon="2.15508">
        <ele>123</ele>
        <time>2023-03-29T12:15:42Z</time>
      </trkpt>
      <trkpt lat="49.82531" lon="2.15508">
        <ele>123</ele>
        <time>2023-03-29T12:15:43Z</time>
      </trkpt>
      <trkpt lat="49.82532" lon="2.15508">
        <ele>123</ele>
        <time>2023-03-29T12:15:45Z</time>
      </trkpt>
      <trkpt lat="49.82532" lon="2.15508">
        <ele>123</ele>
        <time>2023-03-29T12:15:47Z</time>
      </trkpt>
      <trkpt lat="49.82532" lon="2.15508">
        <ele>123</ele>
        <time>2023-03-29T12:15:48Z</time>
      </trkpt>
      <trkpt lat="49.82532" lon="2.15508">
        <ele>123</ele>
        <time>2023-03-29T12:15:50Z</time>
      </trkpt>
      <trkpt lat="49.82532" lon="2.15508">
        <ele>123</ele>
        <time>2023-03-29T12:15:51Z</time>
      </trkpt>
      <trkpt lat="49.82532" lon="2.15508">
        <ele>123</ele>
        <time>2023-03-29T12:15:52Z</time>
      </trkpt>
      <trkpt lat="49.82533" lon="2.15508">
        <ele>123</ele>
        <time>2023-03-29T12:15:53Z</time>
      </trkpt>
      <trkpt lat="49.82533" lon="2.15509">
        <ele>123</ele>
        <time>2023-03-29T12:15:54Z</time>
      </trkpt>
      <trkpt lat="49.82533" lon="2.15509">
        <ele>123</ele>
        <time>2023-03-29T12:15:55Z</time>
      </trkpt>
      <trkpt lat="49.82533" lon="2.15509">
        <ele>123</ele>
        <time>2023-03-29T12:15:56Z</time>
      </trkpt>
      <trkpt lat="49.82533" lon="2.15509">
        <ele>123</ele>
        <time>2023-03-29T12:15:57Z</time>
      </trkpt>
      <trkpt lat="49.82533" lon="2.15509">
        <ele>123</ele>
        <time>2023-03-29T12:15:58Z</time>
      </trkpt>
      <trkpt lat="49.82533" lon="2.15509">
        <ele>123</ele>
        <time>2023-03-29T12:15:59Z</time>
      </trkpt>
      <trkpt lat="49.82534" lon="2.15511">
        <ele>123</ele>
        <time>2023-03-29T12:16:00Z</time>
      </trkpt>
      <trkpt lat="49.82532" lon="2.15508">
        <ele>123</ele>
        <time>2023-03-29T12:16:01Z</time>
      </trkpt>
      <trkpt lat="49.82532" lon="2.15508">
        <ele>123</ele>
        <time>2023-03-29T12:16:03Z</time>
      </trkpt>
      <trkpt lat="49.82531" lon="2.15508">
        <ele>123</ele>
        <time>2023-03-29T12:16:05Z</time>
      </trkpt>
      <trkpt lat="49.82531" lon="2.15509">
        <ele>123</ele>
        <time>2023-03-29T12:16:06Z</time>
      </trkpt>
      <trkpt lat="49.82531" lon="2.15509">
        <ele>123</ele>
        <time>2023-03-29T12:16:07Z</time>
      </trkpt>
      <trkpt lat="49.8253" lon="2.15509">
        <ele>123</ele>
        <time>2023-03-29T12:16:08Z</time>
      </trkpt>
      <trkpt lat="49.8253" lon="2.15509">
        <ele>123</ele>
        <time>2023-03-29T12:16:10Z</time>
      </trkpt>
      <trkpt lat="49.8253" lon="2.15508">
        <ele>123</ele>
        <time>2023-03-29T12:16:11Z</time>
      </trkpt>
      <trkpt lat="49.8253" lon="2.15508">
        <ele>123</ele>
        <time>2023-03-29T12:16:12Z</time>
      </trkpt>
      <trkpt lat="49.82531" lon="2.15507">
        <ele>123</ele>
        <time>2023-03-29T12:16:13Z</time>
      </trkpt>
      <trkpt lat="49.82531" lon="2.15507">
        <ele>123</ele>
        <time>2023-03-29T12:16:15Z</time>
      </trkpt>
      <trkpt lat="49.82531" lon="2.15507">
        <ele>123</ele>
        <time>2023-03-29T12:16:17Z</time>
      </trkpt>
      <trkpt lat="49.82531" lon="2.15507">
        <ele>123</ele>
        <time>2023-03-29T12:16:18Z</time>
      </trkpt>
      <trkpt lat="49.82531" lon="2.15507">
        <ele>123</ele>
        <time>2023-03-29T12:16:20Z</time>
      </trkpt>
      <trkpt lat="49.82531" lon="2.15507">
        <ele>123</ele>
        <time>2023-03-29T12:16:21Z</time>
      </trkpt>
      <trkpt lat="49.82532" lon="2.15507">
        <ele>123</ele>
        <time>2023-03-29T12:16:22Z</time>
      </trkpt>
      <trkpt lat="49.82532" lon="2.15507">
        <ele>123</ele>
        <time>2023-03-29T12:16:23Z</time>
      </trkpt>
      <trkpt lat="49.82532" lon="2.15507">
        <ele>123</ele>
        <time>2023-03-29T12:16:24Z</time>
      </trkpt>
      <trkpt lat="49.82531" lon="2.15506">
        <ele>123</ele>
        <time>2023-03-29T12:16:25Z</time>
      </trkpt>
      <trkpt lat="49.82531" lon="2.15505">
        <ele>123</ele>
        <time>2023-03-29T12:16:27Z</time>
      </trkpt>
      <trkpt lat="49.82531" lon="2.15504">
        <ele>123.1</ele>
        <time>2023-03-29T12:16:28Z</time>
      </trkpt>
      <trkpt lat="49.82531" lon="2.15499">
        <ele>123.2</ele>
        <time>2023-03-29T12:16:29Z</time>
      </trkpt>
      <trkpt lat="49.82531" lon="2.15498">
        <ele>123.2</ele>
        <time>2023-03-29T12:16:30Z</time>
      </trkpt>
      <trkpt lat="49.82531" lon="2.15496">
        <ele>123.2</ele>
        <time>2023-03-29T12:16:31Z</time>
      </trkpt>
      <trkpt lat="49.82532" lon="2.15491">
        <ele>123.2</ele>
        <time>2023-03-29T12:16:33Z</time>
      </trkpt>
      <trkpt lat="49.82532" lon="2.1549">
        <ele>123.2</ele>
        <time>2023-03-29T12:16:35Z</time>
      </trkpt>
      <trkpt lat="49.82532" lon="2.15488">
        <ele>123.2</ele>
        <time>2023-03-29T12:16:37Z</time>
      </trkpt>
      <trkpt lat="49.82532" lon="2.15487">
        <ele>123.2</ele>
        <time>2023-03-29T12:16:38Z</time>
      </trkpt>
      <trkpt lat="49.82533" lon="2.15485">
        <ele>123.2</ele>
        <time>2023-03-29T12:16:39Z</time>
      </trkpt>
      <trkpt lat="49.82533" lon="2.15485">
        <ele>123.2</ele>
        <time>2023-03-29T12:16:41Z</time>
      </trkpt>
      <trkpt lat="49.82533" lon="2.15483">
        <ele>123.2</ele>
        <time>2023-03-29T12:16:43Z</time>
      </trkpt>
      <trkpt lat="49.82533" lon="2.15483">
        <ele>123.2</ele>
        <time>2023-03-29T12:16:44Z</time>
      </trkpt>
      <trkpt lat="49.82533" lon="2.15483">
        <ele>123.2</ele>
        <time>2023-03-29T12:16:45Z</time>
      </trkpt>
      <trkpt lat="49.82533" lon="2.15482">
        <ele>123.2</ele>
        <time>2023-03-29T12:16:46Z</time>
      </trkpt>
      <trkpt lat="49.82533" lon="2.15482">
        <ele>123.2</ele>
        <time>2023-03-29T12:16:47Z</time>
      </trkpt>
      <trkpt lat="49.82533" lon="2.15481">
        <ele>123.2</ele>
        <time>2023-03-29T12:16:48Z</time>
      </trkpt>
      <trkpt lat="49.82533" lon="2.1548">
        <ele>123.2</ele>
        <time>2023-03-29T12:16:50Z</time>
      </trkpt>
      <trkpt lat="49.82533" lon="2.1548">
        <ele>123.2</ele>
        <time>2023-03-29T12:16:51Z</time>
      </trkpt>
      <trkpt lat="49.82534" lon="2.1548">
        <ele>123.2</ele>
        <time>2023-03-29T12:16:52Z</time>
      </trkpt>
      <trkpt lat="49.82534" lon="2.15479">
        <ele>123.2</ele>
        <time>2023-03-29T12:16:53Z</time>
      </trkpt>
      <trkpt lat="49.82535" lon="2.15479">
        <ele>123.2</ele>
        <time>2023-03-29T12:16:54Z</time>
      </trkpt>
      <trkpt lat="49.82535" lon="2.15478">
        <ele>123.2</ele>
        <time>2023-03-29T12:16:55Z</time>
      </trkpt>
      <trkpt lat="49.82536" lon="2.15478">
        <ele>123.2</ele>
        <time>2023-03-29T12:16:56Z</time>
      </trkpt>
      <trkpt lat="49.82537" lon="2.15477">
        <ele>123.2</ele>
        <time>2023-03-29T12:16:58Z</time>
      </trkpt>
      <trkpt lat="49.82537" lon="2.15477">
        <ele>123.2</ele>
        <time>2023-03-29T12:16:59Z</time>
      </trkpt>
      <trkpt lat="49.82538" lon="2.15476">
        <ele>123.2</ele>
        <time>2023-03-29T12:17:00Z</time>
      </trkpt>
      <trkpt lat="49.82538" lon="2.15476">
        <ele>123.3</ele>
        <time>2023-03-29T12:17:01Z</time>
      </trkpt>
      <trkpt lat="49.82537" lon="2.15475">
        <ele>123.3</ele>
        <time>2023-03-29T12:17:02Z</time>
      </trkpt>
      <trkpt lat="49.82537" lon="2.15474">
        <ele>123.3</ele>
        <time>2023-03-29T12:17:03Z</time>
      </trkpt>
      <trkpt lat="49.82537" lon="2.15473">
        <ele>123.3</ele>
        <time>2023-03-29T12:17:05Z</time>
      </trkpt>
      <trkpt lat="49.82537" lon="2.15473">
        <ele>123.3</ele>
        <time>2023-03-29T12:17:06Z</time>
      </trkpt>
      <trkpt lat="49.82537" lon="2.15474">
        <ele>123.3</ele>
        <time>2023-03-29T12:17:07Z</time>
      </trkpt>
      <trkpt lat="49.82537" lon="2.15473">
        <ele>123.3</ele>
        <time>2023-03-29T12:17:08Z</time>
      </trkpt>
      <trkpt lat="49.82537" lon="2.15471">
        <ele>123.3</ele>
        <time>2023-03-29T12:17:09Z</time>
      </trkpt>
      <trkpt lat="49.82537" lon="2.15471">
        <ele>123.3</ele>
        <time>2023-03-29T12:17:10Z</time>
      </trkpt>
      <trkpt lat="49.82537" lon="2.15471">
        <ele>123.3</ele>
        <time>2023-03-29T12:17:12Z</time>
      </trkpt>
      <trkpt lat="49.82537" lon="2.1547">
        <ele>123.3</ele>
        <time>2023-03-29T12:17:13Z</time>
      </trkpt>
      <trkpt lat="49.82537" lon="2.1547">
        <ele>123.3</ele>
        <time>2023-03-29T12:17:14Z</time>
      </trkpt>
      <trkpt lat="49.82537" lon="2.15469">
        <ele>123.3</ele>
        <time>2023-03-29T12:17:15Z</time>
      </trkpt>
      <trkpt lat="49.82537" lon="2.15467">
        <ele>123.3</ele>
        <time>2023-03-29T12:17:16Z</time>
      </trkpt>
      <trkpt lat="49.82537" lon="2.15466">
        <ele>123.3</ele>
        <time>2023-03-29T12:17:17Z</time>
      </trkpt>
      <trkpt lat="49.82537" lon="2.15464">
        <ele>123.3</ele>
        <time>2023-03-29T12:17:19Z</time>
      </trkpt>
      <trkpt lat="49.82538" lon="2.15463">
        <ele>123.3</ele>
        <time>2023-03-29T12:17:20Z</time>
      </trkpt>
      <trkpt lat="49.82538" lon="2.1546">
        <ele>123.3</ele>
        <time>2023-03-29T12:17:21Z</time>
      </trkpt>
      <trkpt lat="49.82539" lon="2.15459">
        <ele>123.3</ele>
        <time>2023-03-29T12:17:22Z</time>
      </trkpt>
      <trkpt lat="49.8254" lon="2.15456">
        <ele>123.3</ele>
        <time>2023-03-29T12:17:23Z</time>
      </trkpt>
      <trkpt lat="49.82541" lon="2.15454">
        <ele>123.3</ele>
        <time>2023-03-29T12:17:24Z</time>
      </trkpt>
      <trkpt lat="49.82542" lon="2.15452">
        <ele>123.4</ele>
        <time>2023-03-29T12:17:26Z</time>
      </trkpt>
      <trkpt lat="49.82542" lon="2.15451">
        <ele>123.4</ele>
        <time>2023-03-29T12:17:27Z</time>
      </trkpt>
      <trkpt lat="49.82543" lon="2.1545">
        <ele>123.4</ele>
        <time>2023-03-29T12:17:28Z</time>
      </trkpt>
      <trkpt lat="49.82543" lon="2.15449">
        <ele>123.4</ele>
        <time>2023-03-29T12:17:29Z</time>
      </trkpt>
      <trkpt lat="49.82544" lon="2.15448">
        <ele>123.4</ele>
        <time>2023-03-29T12:17:30Z</time>
      </trkpt>
      <trkpt lat="49.82544" lon="2.15447">
        <ele>123.4</ele>
        <time>2023-03-29T12:17:31Z</time>
      </trkpt>
      <trkpt lat="49.82544" lon="2.15447">
        <ele>123.4</ele>
        <time>2023-03-29T12:17:32Z</time>
      </trkpt>
      <trkpt lat="49.82544" lon="2.15445">
        <ele>123.4</ele>
        <time>2023-03-29T12:17:34Z</time>
      </trkpt>
      <trkpt lat="49.82544" lon="2.15446">
        <ele>123.4</ele>
        <time>2023-03-29T12:17:35Z</time>
      </trkpt>
      <trkpt lat="49.82545" lon="2.15445">
        <ele>123.4</ele>
        <time>2023-03-29T12:17:36Z</time>
      </trkpt>
      <trkpt lat="49.82545" lon="2.15444">
        <ele>123.4</ele>
        <time>2023-03-29T12:17:37Z</time>
      </trkpt>
      <trkpt lat="49.82545" lon="2.15444">
        <ele>123.4</ele>
        <time>2023-03-29T12:17:38Z</time>
      </trkpt>
      <trkpt lat="49.82545" lon="2.15443">
        <ele>123.4</ele>
        <time>2023-03-29T12:17:39Z</time>
      </trkpt>
      <trkpt lat="49.82546" lon="2.15441">
        <ele>123.4</ele>
        <time>2023-03-29T12:17:40Z</time>
      </trkpt>
      <trkpt lat="49.82547" lon="2.1544">
        <ele>123.4</ele>
        <time>2023-03-29T12:17:42Z</time>
      </trkpt>
      <trkpt lat="49.82547" lon="2.15439">
        <ele>123.4</ele>
        <time>2023-03-29T12:17:43Z</time>
      </trkpt>
      <trkpt lat="49.82548" lon="2.15439">
        <ele>123.4</ele>
        <time>2023-03-29T12:17:44Z</time>
      </trkpt>
      <trkpt lat="49.82549" lon="2.15437">
        <ele>123.4</ele>
        <time>2023-03-29T12:17:45Z</time>
      </trkpt>
      <trkpt lat="49.8255" lon="2.15435">
        <ele>123.4</ele>
        <time>2023-03-29T12:17:46Z</time>
      </trkpt>
      <trkpt lat="49.82551" lon="2.15433">
        <ele>123.5</ele>
        <time>2023-03-29T12:17:47Z</time>
      </trkpt>
      <trkpt lat="49.82552" lon="2.15431">
        <ele>123.5</ele>
        <time>2023-03-29T12:17:48Z</time>
      </trkpt>
      <trkpt lat="49.82553" lon="2.15429">
        <ele>123.5</ele>
        <time>2023-03-29T12:17:50Z</time>
      </trkpt>
      <trkpt lat="49.82554" lon="2.15427">
        <ele>123.5</ele>
        <time>2023-03-29T12:17:51Z</time>
      </trkpt>
      <trkpt lat="49.82555" lon="2.15425">
        <ele>123.5</ele>
        <time>2023-03-29T12:17:52Z</time>
      </trkpt>
      <trkpt lat="49.82556" lon="2.15424">
        <ele>123.5</ele>
        <time>2023-03-29T12:17:53Z</time>
      </trkpt>
      <trkpt lat="49.82558" lon="2.1542">
        <ele>123.5</ele>
        <time>2023-03-29T12:17:54Z</time>
      </trkpt>
      <trkpt lat="49.82558" lon="2.15419">
        <ele>123.5</ele>
        <time>2023-03-29T12:17:55Z</time>
      </trkpt>
      <trkpt lat="49.82561" lon="2.15415">
        <ele>123.5</ele>
        <time>2023-03-29T12:17:57Z</time>
      </trkpt>
      <trkpt lat="49.82561" lon="2.15414">
        <ele>123.5</ele>
        <time>2023-03-29T12:17:58Z</time>
      </trkpt>
      <trkpt lat="49.82564" lon="2.1541">
        <ele>123.5</ele>
        <time>2023-03-29T12:17:59Z</time>
      </trkpt>
      <trkpt lat="49.82565" lon="2.15408">
        <ele>123.5</ele>
        <time>2023-03-29T12:18:00Z</time>
      </trkpt>
      <trkpt lat="49.82566" lon="2.15404">
        <ele>123.5</ele>
        <time>2023-03-29T12:18:01Z</time>
      </trkpt>
      <trkpt lat="49.82569" lon="2.15399">
        <ele>123.5</ele>
        <time>2023-03-29T12:18:02Z</time>
      </trkpt>
      <trkpt lat="49.82569" lon="2.15398">
        <ele>123.5</ele>
        <time>2023-03-29T12:18:03Z</time>
      </trkpt>
      <trkpt lat="49.82571" lon="2.15393">
        <ele>123.4</ele>
        <time>2023-03-29T12:18:04Z</time>
      </trkpt>
      <trkpt lat="49.82572" lon="2.15392">
        <ele>123.4</ele>
        <time>2023-03-29T12:18:05Z</time>
      </trkpt>
      <trkpt lat="49.82573" lon="2.1539">
        <ele>123.4</ele>
        <time>2023-03-29T12:18:07Z</time>
      </trkpt>
      <trkpt lat="49.82574" lon="2.15388">
        <ele>123.4</ele>
        <time>2023-03-29T12:18:08Z</time>
      </trkpt>
      <trkpt lat="49.82575" lon="2.15386">
        <ele>123.4</ele>
        <time>2023-03-29T12:18:09Z</time>
      </trkpt>
      <trkpt lat="49.82575" lon="2.15386">
        <ele>123.4</ele>
        <time>2023-03-29T12:18:10Z</time>
      </trkpt>
      <trkpt lat="49.82576" lon="2.15384">
        <ele>123.4</ele>
        <time>2023-03-29T12:18:11Z</time>
      </trkpt>
      <trkpt lat="49.82577" lon="2.15383">
        <ele>123.4</ele>
        <time>2023-03-29T12:18:12Z</time>
      </trkpt>
      <trkpt lat="49.82577" lon="2.15382">
        <ele>123.4</ele>
        <time>2023-03-29T12:18:13Z</time>
      </trkpt>
      <trkpt lat="49.82578" lon="2.1538">
        <ele>123.4</ele>
        <time>2023-03-29T12:18:15Z</time>
      </trkpt>
      <trkpt lat="49.82579" lon="2.1538">
        <ele>123.4</ele>
        <time>2023-03-29T12:18:16Z</time>
      </trkpt>
      <trkpt lat="49.82579" lon="2.15379">
        <ele>123.3</ele>
        <time>2023-03-29T12:18:17Z</time>
      </trkpt>
      <trkpt lat="49.8258" lon="2.15378">
        <ele>123.3</ele>
        <time>2023-03-29T12:18:18Z</time>
      </trkpt>
      <trkpt lat="49.82581" lon="2.15376">
        <ele>123.3</ele>
        <time>2023-03-29T12:18:19Z</time>
      </trkpt>
      <trkpt lat="49.82582" lon="2.15374">
        <ele>123.3</ele>
        <time>2023-03-29T12:18:20Z</time>
      </trkpt>
      <trkpt lat="49.82583" lon="2.15372">
        <ele>123.3</ele>
        <time>2023-03-29T12:18:21Z</time>
      </trkpt>
      <trkpt lat="49.82584" lon="2.15369">
        <ele>123.3</ele>
        <time>2023-03-29T12:18:22Z</time>
      </trkpt>
      <trkpt lat="49.82587" lon="2.15365">
        <ele>123.2</ele>
        <time>2023-03-29T12:18:24Z</time>
      </trkpt>
      <trkpt lat="49.82588" lon="2.15363">
        <ele>123.2</ele>
        <time>2023-03-29T12:18:25Z</time>
      </trkpt>
      <trkpt lat="49.8259" lon="2.1536">
        <ele>123.2</ele>
        <time>2023-03-29T12:18:27Z</time>
      </trkpt>
      <trkpt lat="49.82591" lon="2.15357">
        <ele>123.2</ele>
        <time>2023-03-29T12:18:28Z</time>
      </trkpt>
      <trkpt lat="49.82593" lon="2.15355">
        <ele>123.2</ele>
        <time>2023-03-29T12:18:30Z</time>
      </trkpt>
      <trkpt lat="49.82594" lon="2.15353">
        <ele>123.1</ele>
        <time>2023-03-29T12:18:31Z</time>
      </trkpt>
      <trkpt lat="49.82595" lon="2.15351">
        <ele>123.1</ele>
        <time>2023-03-29T12:18:32Z</time>
      </trkpt>
      <trkpt lat="49.82596" lon="2.1535">
        <ele>123.1</ele>
        <time>2023-03-29T12:18:33Z</time>
      </trkpt>
      <trkpt lat="49.82598" lon="2.15348">
        <ele>123.1</ele>
        <time>2023-03-29T12:18:34Z</time>
      </trkpt>
      <trkpt lat="49.82599" lon="2.15346">
        <ele>123.1</ele>
        <time>2023-03-29T12:18:35Z</time>
      </trkpt>
      <trkpt lat="49.826" lon="2.15345">
        <ele>123</ele>
        <time>2023-03-29T12:18:36Z</time>
      </trkpt>
      <trkpt lat="49.82602" lon="2.15345">
        <ele>123</ele>
        <time>2023-03-29T12:18:37Z</time>
      </trkpt>
      <trkpt lat="49.82602" lon="2.15343">
        <ele>123</ele>
        <time>2023-03-29T12:18:38Z</time>
      </trkpt>
      <trkpt lat="49.82603" lon="2.15342">
        <ele>123</ele>
        <time>2023-03-29T12:18:39Z</time>
      </trkpt>
      <trkpt lat="49.82604" lon="2.15342">
        <ele>123</ele>
        <time>2023-03-29T12:18:41Z</time>
      </trkpt>
      <trkpt lat="49.82605" lon="2.15341">
        <ele>123</ele>
        <time>2023-03-29T12:18:42Z</time>
      </trkpt>
      <trkpt lat="49.82605" lon="2.1534">
        <ele>123</ele>
        <time>2023-03-29T12:18:43Z</time>
      </trkpt>
      <trkpt lat="49.82606" lon="2.15338">
        <ele>123</ele>
        <time>2023-03-29T12:18:44Z</time>
      </trkpt>
      <trkpt lat="49.82608" lon="2.15336">
        <ele>122.9</ele>
        <time>2023-03-29T12:18:45Z</time>
      </trkpt>
      <trkpt lat="49.82609" lon="2.15334">
        <ele>122.9</ele>
        <time>2023-03-29T12:18:47Z</time>
      </trkpt>
      <trkpt lat="49.8261" lon="2.15333">
        <ele>122.9</ele>
        <time>2023-03-29T12:18:48Z</time>
      </trkpt>
      <trkpt lat="49.8261" lon="2.15333">
        <ele>122.9</ele>
        <time>2023-03-29T12:18:49Z</time>
      </trkpt>
      <trkpt lat="49.82611" lon="2.15332">
        <ele>122.9</ele>
        <time>2023-03-29T12:18:50Z</time>
      </trkpt>
      <trkpt lat="49.82613" lon="2.15331">
        <ele>122.9</ele>
        <time>2023-03-29T12:18:51Z</time>
      </trkpt>
      <trkpt lat="49.82615" lon="2.15328">
        <ele>122.8</ele>
        <time>2023-03-29T12:18:52Z</time>
      </trkpt>
      <trkpt lat="49.82616" lon="2.15327">
        <ele>122.8</ele>
        <time>2023-03-29T12:18:54Z</time>
      </trkpt>
      <trkpt lat="49.82617" lon="2.15325">
        <ele>122.8</ele>
        <time>2023-03-29T12:18:55Z</time>
      </trkpt>
      <trkpt lat="49.82618" lon="2.15323">
        <ele>122.8</ele>
        <time>2023-03-29T12:18:56Z</time>
      </trkpt>
      <trkpt lat="49.82619" lon="2.15321">
        <ele>122.8</ele>
        <time>2023-03-29T12:18:57Z</time>
      </trkpt>
      <trkpt lat="49.8262" lon="2.15319">
        <ele>122.7</ele>
        <time>2023-03-29T12:18:58Z</time>
      </trkpt>
      <trkpt lat="49.82621" lon="2.15317">
        <ele>122.7</ele>
        <time>2023-03-29T12:18:59Z</time>
      </trkpt>
      <trkpt lat="49.82623" lon="2.15316">
        <ele>122.7</ele>
        <time>2023-03-29T12:19:00Z</time>
      </trkpt>
      <trkpt lat="49.82624" lon="2.15313">
        <ele>122.7</ele>
        <time>2023-03-29T12:19:01Z</time>
      </trkpt>
      <trkpt lat="49.82625" lon="2.15312">
        <ele>122.7</ele>
        <time>2023-03-29T12:19:03Z</time>
      </trkpt>
      <trkpt lat="49.82626" lon="2.15311">
        <ele>122.6</ele>
        <time>2023-03-29T12:19:04Z</time>
      </trkpt>
      <trkpt lat="49.82626" lon="2.15309">
        <ele>122.6</ele>
        <time>2023-03-29T12:19:05Z</time>
      </trkpt>
      <trkpt lat="49.82627" lon="2.15308">
        <ele>122.6</ele>
        <time>2023-03-29T12:19:06Z</time>
      </trkpt>
      <trkpt lat="49.82628" lon="2.15307">
        <ele>122.6</ele>
        <time>2023-03-29T12:19:07Z</time>
      </trkpt>
      <trkpt lat="49.8263" lon="2.15306">
        <ele>122.6</ele>
        <time>2023-03-29T12:19:08Z</time>
      </trkpt>
      <trkpt lat="49.82631" lon="2.15304">
        <ele>122.6</ele>
        <time>2023-03-29T12:19:09Z</time>
      </trkpt>
      <trkpt lat="49.82632" lon="2.15303">
        <ele>122.6</ele>
        <time>2023-03-29T12:19:10Z</time>
      </trkpt>
      <trkpt lat="49.82633" lon="2.15301">
        <ele>122.6</ele>
        <time>2023-03-29T12:19:11Z</time>
      </trkpt>
      <trkpt lat="49.82634" lon="2.15299">
        <ele>122.5</ele>
        <time>2023-03-29T12:19:12Z</time>
      </trkpt>
      <trkpt lat="49.82635" lon="2.15297">
        <ele>122.5</ele>
        <time>2023-03-29T12:19:14Z</time>
      </trkpt>
      <trkpt lat="49.82636" lon="2.15296">
        <ele>122.5</ele>
        <time>2023-03-29T12:19:15Z</time>
      </trkpt>
      <trkpt lat="49.82636" lon="2.15295">
        <ele>122.5</ele>
        <time>2023-03-29T12:19:16Z</time>
      </trkpt>
      <trkpt lat="49.82638" lon="2.15292">
        <ele>122.5</ele>
        <time>2023-03-29T12:19:17Z</time>
      </trkpt>
      <trkpt lat="49.82639" lon="2.1529">
        <ele>122.5</ele>
        <time>2023-03-29T12:19:19Z</time>
      </trkpt>
      <trkpt lat="49.8264" lon="2.15288">
        <ele>122.4</ele>
        <time>2023-03-29T12:19:20Z</time>
      </trkpt>
      <trkpt lat="49.82641" lon="2.15287">
        <ele>122.4</ele>
        <time>2023-03-29T12:19:21Z</time>
      </trkpt>
      <trkpt lat="49.82642" lon="2.15285">
        <ele>122.4</ele>
        <time>2023-03-29T12:19:22Z</time>
      </trkpt>
      <trkpt lat="49.82643" lon="2.15283">
        <ele>122.4</ele>
        <time>2023-03-29T12:19:23Z</time>
      </trkpt>
      <trkpt lat="49.82644" lon="2.1528">
        <ele>122.3</ele>
        <time>2023-03-29T12:19:24Z</time>
      </trkpt>
      <trkpt lat="49.82645" lon="2.15279">
        <ele>122.3</ele>
        <time>2023-03-29T12:19:25Z</time>
      </trkpt>
      <trkpt lat="49.82645" lon="2.15278">
        <ele>122.3</ele>
        <time>2023-03-29T12:19:26Z</time>
      </trkpt>
      <trkpt lat="49.82646" lon="2.15277">
        <ele>122.3</ele>
        <time>2023-03-29T12:19:27Z</time>
      </trkpt>
      <trkpt lat="49.82646" lon="2.15275">
        <ele>122.3</ele>
        <time>2023-03-29T12:19:28Z</time>
      </trkpt>
      <trkpt lat="49.82647" lon="2.15273">
        <ele>122.3</ele>
        <time>2023-03-29T12:19:30Z</time>
      </trkpt>
      <trkpt lat="49.82648" lon="2.15269">
        <ele>122.2</ele>
        <time>2023-03-29T12:19:31Z</time>
      </trkpt>
      <trkpt lat="49.82648" lon="2.15267">
        <ele>122.2</ele>
        <time>2023-03-29T12:19:32Z</time>
      </trkpt>
      <trkpt lat="49.82649" lon="2.15265">
        <ele>122.2</ele>
        <time>2023-03-29T12:19:33Z</time>
      </trkpt>
      <trkpt lat="49.8265" lon="2.15263">
        <ele>122.2</ele>
        <time>2023-03-29T12:19:34Z</time>
      </trkpt>
      <trkpt lat="49.82651" lon="2.15261">
        <ele>122.1</ele>
        <time>2023-03-29T12:19:36Z</time>
      </trkpt>
      <trkpt lat="49.82651" lon="2.1526">
        <ele>122.1</ele>
        <time>2023-03-29T12:19:37Z</time>
      </trkpt>
      <trkpt lat="49.82652" lon="2.15258">
        <ele>122.1</ele>
        <time>2023-03-29T12:19:38Z</time>
      </trkpt>
      <trkpt lat="49.82652" lon="2.15256">
        <ele>122.1</ele>
        <time>2023-03-29T12:19:39Z</time>
      </trkpt>
      <trkpt lat="49.82653" lon="2.15254">
        <ele>122.1</ele>
        <time>2023-03-29T12:19:40Z</time>
      </trkpt>
      <trkpt lat="49.82654" lon="2.15251">
        <ele>122</ele>
        <time>2023-03-29T12:19:41Z</time>
      </trkpt>
      <trkpt lat="49.82655" lon="2.1525">
        <ele>122</ele>
        <time>2023-03-29T12:19:43Z</time>
      </trkpt>
      <trkpt lat="49.82655" lon="2.15248">
        <ele>122</ele>
        <time>2023-03-29T12:19:44Z</time>
      </trkpt>
      <trkpt lat="49.82657" lon="2.15245">
        <ele>121.9</ele>
        <time>2023-03-29T12:19:45Z</time>
      </trkpt>
      <trkpt lat="49.82657" lon="2.15243">
        <ele>121.9</ele>
        <time>2023-03-29T12:19:46Z</time>
      </trkpt>
      <trkpt lat="49.82658" lon="2.15241">
        <ele>121.9</ele>
        <time>2023-03-29T12:19:47Z</time>
      </trkpt>
      <trkpt lat="49.82659" lon="2.15239">
        <ele>121.9</ele>
        <time>2023-03-29T12:19:48Z</time>
      </trkpt>
      <trkpt lat="49.82659" lon="2.15236">
        <ele>121.8</ele>
        <time>2023-03-29T12:19:49Z</time>
      </trkpt>
      <trkpt lat="49.8266" lon="2.15234">
        <ele>121.8</ele>
        <time>2023-03-29T12:19:51Z</time>
      </trkpt>
      <trkpt lat="49.82661" lon="2.15232">
        <ele>121.8</ele>
        <time>2023-03-29T12:19:52Z</time>
      </trkpt>
      <trkpt lat="49.82661" lon="2.15231">
        <ele>121.7</ele>
        <time>2023-03-29T12:19:53Z</time>
      </trkpt>
      <trkpt lat="49.82661" lon="2.15229">
        <ele>121.7</ele>
        <time>2023-03-29T12:19:54Z</time>
      </trkpt>
      <trkpt lat="49.82661" lon="2.15228">
        <ele>121.7</ele>
        <time>2023-03-29T12:19:55Z</time>
      </trkpt>
      <trkpt lat="49.82662" lon="2.15227">
        <ele>121.7</ele>
        <time>2023-03-29T12:19:56Z</time>
      </trkpt>
      <trkpt lat="49.82662" lon="2.15225">
        <ele>121.6</ele>
        <time>2023-03-29T12:19:57Z</time>
      </trkpt>
      <trkpt lat="49.82663" lon="2.15222">
        <ele>121.6</ele>
        <time>2023-03-29T12:19:58Z</time>
      </trkpt>
      <trkpt lat="49.82663" lon="2.15221">
        <ele>121.6</ele>
        <time>2023-03-29T12:19:59Z</time>
      </trkpt>
      <trkpt lat="49.82663" lon="2.1522">
        <ele>121.5</ele>
        <time>2023-03-29T12:20:00Z</time>
      </trkpt>
      <trkpt lat="49.82664" lon="2.15218">
        <ele>121.5</ele>
        <time>2023-03-29T12:20:01Z</time>
      </trkpt>
      <trkpt lat="49.82664" lon="2.15217">
        <ele>121.5</ele>
        <time>2023-03-29T12:20:02Z</time>
      </trkpt>
      <trkpt lat="49.82664" lon="2.15216">
        <ele>121.5</ele>
        <time>2023-03-29T12:20:03Z</time>
      </trkpt>
      <trkpt lat="49.82664" lon="2.15215">
        <ele>121.5</ele>
        <time>2023-03-29T12:20:05Z</time>
      </trkpt>
      <trkpt lat="49.82664" lon="2.15213">
        <ele>121.4</ele>
        <time>2023-03-29T12:20:06Z</time>
      </trkpt>
      <trkpt lat="49.82665" lon="2.15212">
        <ele>121.4</ele>
        <time>2023-03-29T12:20:07Z</time>
      </trkpt>
      <trkpt lat="49.82665" lon="2.1521">
        <ele>121.3</ele>
        <time>2023-03-29T12:20:08Z</time>
      </trkpt>
      <trkpt lat="49.82665" lon="2.15209">
        <ele>121.3</ele>
        <time>2023-03-29T12:20:09Z</time>
      </trkpt>
      <trkpt lat="49.82666" lon="2.15207">
        <ele>121.3</ele>
        <time>2023-03-29T12:20:10Z</time>
      </trkpt>
      <trkpt lat="49.82666" lon="2.15206">
        <ele>121.2</ele>
        <time>2023-03-29T12:20:11Z</time>
      </trkpt>
      <trkpt lat="49.82667" lon="2.15204">
        <ele>121.2</ele>
        <time>2023-03-29T12:20:13Z</time>
      </trkpt>
      <trkpt lat="49.82667" lon="2.15202">
        <ele>121.2</ele>
        <time>2023-03-29T12:20:14Z</time>
      </trkpt>
      <trkpt lat="49.82667" lon="2.15201">
        <ele>121.1</ele>
        <time>2023-03-29T12:20:15Z</time>
      </trkpt>
      <trkpt lat="49.82668" lon="2.15199">
        <ele>121.1</ele>
        <time>2023-03-29T12:20:16Z</time>
      </trkpt>
      <trkpt lat="49.82669" lon="2.15196">
        <ele>121</ele>
        <time>2023-03-29T12:20:17Z</time>
      </trkpt>
      <trkpt lat="49.82669" lon="2.15195">
        <ele>120.9</ele>
        <time>2023-03-29T12:20:19Z</time>
      </trkpt>
      <trkpt lat="49.8267" lon="2.15192">
        <ele>120.8</ele>
        <time>2023-03-29T12:20:20Z</time>
      </trkpt>
      <trkpt lat="49.82671" lon="2.15189">
        <ele>120.7</ele>
        <time>2023-03-29T12:20:21Z</time>
      </trkpt>
      <trkpt lat="49.82671" lon="2.15187">
        <ele>120.6</ele>
        <time>2023-03-29T12:20:22Z</time>
      </trkpt>
      <trkpt lat="49.82672" lon="2.15185">
        <ele>120.5</ele>
        <time>2023-03-29T12:20:23Z</time>
      </trkpt>
      <trkpt lat="49.82672" lon="2.15183">
        <ele>120.4</ele>
        <time>2023-03-29T12:20:24Z</time>
      </trkpt>
      <trkpt lat="49.82673" lon="2.1518">
        <ele>120.3</ele>
        <time>2023-03-29T12:20:25Z</time>
      </trkpt>
      <trkpt lat="49.82674" lon="2.15177">
        <ele>120.2</ele>
        <time>2023-03-29T12:20:27Z</time>
      </trkpt>
      <trkpt lat="49.82675" lon="2.15175">
        <ele>120.1</ele>
        <time>2023-03-29T12:20:28Z</time>
      </trkpt>
      <trkpt lat="49.82675" lon="2.15172">
        <ele>120</ele>
        <time>2023-03-29T12:20:29Z</time>
      </trkpt>
      <trkpt lat="49.82675" lon="2.1517">
        <ele>119.9</ele>
        <time>2023-03-29T12:20:30Z</time>
      </trkpt>
      <trkpt lat="49.82675" lon="2.15167">
        <ele>119.8</ele>
        <time>2023-03-29T12:20:32Z</time>
      </trkpt>
      <trkpt lat="49.82675" lon="2.15166">
        <ele>119.7</ele>
        <time>2023-03-29T12:20:33Z</time>
      </trkpt>
      <trkpt lat="49.82676" lon="2.15163">
        <ele>119.6</ele>
        <time>2023-03-29T12:20:34Z</time>
      </trkpt>
      <trkpt lat="49.82676" lon="2.15161">
        <ele>119.5</ele>
        <time>2023-03-29T12:20:35Z</time>
      </trkpt>
      <trkpt lat="49.82676" lon="2.15159">
        <ele>119.4</ele>
        <time>2023-03-29T12:20:36Z</time>
      </trkpt>
      <trkpt lat="49.82677" lon="2.15156">
        <ele>119.3</ele>
        <time>2023-03-29T12:20:38Z</time>
      </trkpt>
      <trkpt lat="49.82677" lon="2.15154">
        <ele>119.3</ele>
        <time>2023-03-29T12:20:39Z</time>
      </trkpt>
      <trkpt lat="49.82677" lon="2.15149">
        <ele>119</ele>
        <time>2023-03-29T12:20:40Z</time>
      </trkpt>
      <trkpt lat="49.82678" lon="2.15148">
        <ele>119</ele>
        <time>2023-03-29T12:20:41Z</time>
      </trkpt>
      <trkpt lat="49.82678" lon="2.15147">
        <ele>118.9</ele>
        <time>2023-03-29T12:20:43Z</time>
      </trkpt>
      <trkpt lat="49.82678" lon="2.15146">
        <ele>118.9</ele>
        <time>2023-03-29T12:20:44Z</time>
      </trkpt>
      <trkpt lat="49.82679" lon="2.15145">
        <ele>118.8</ele>
        <time>2023-03-29T12:20:45Z</time>
      </trkpt>
      <trkpt lat="49.82679" lon="2.15143">
        <ele>118.7</ele>
        <time>2023-03-29T12:20:46Z</time>
      </trkpt>
      <trkpt lat="49.82679" lon="2.15141">
        <ele>118.6</ele>
        <time>2023-03-29T12:20:47Z</time>
      </trkpt>
      <trkpt lat="49.8268" lon="2.15139">
        <ele>118.5</ele>
        <time>2023-03-29T12:20:48Z</time>
      </trkpt>
      <trkpt lat="49.8268" lon="2.15137">
        <ele>118.5</ele>
        <time>2023-03-29T12:20:49Z</time>
      </trkpt>
      <trkpt lat="49.82681" lon="2.15136">
        <ele>118.4</ele>
        <time>2023-03-29T12:20:50Z</time>
      </trkpt>
      <trkpt lat="49.82681" lon="2.15134">
        <ele>118.3</ele>
        <time>2023-03-29T12:20:52Z</time>
      </trkpt>
      <trkpt lat="49.82682" lon="2.15133">
        <ele>118.2</ele>
        <time>2023-03-29T12:20:53Z</time>
      </trkpt>
      <trkpt lat="49.82682" lon="2.15131">
        <ele>118.1</ele>
        <time>2023-03-29T12:20:54Z</time>
      </trkpt>
      <trkpt lat="49.82683" lon="2.1513">
        <ele>118.1</ele>
        <time>2023-03-29T12:20:55Z</time>
      </trkpt>
      <trkpt lat="49.82684" lon="2.15127">
        <ele>117.9</ele>
        <time>2023-03-29T12:20:56Z</time>
      </trkpt>
      <trkpt lat="49.82684" lon="2.15125">
        <ele>117.8</ele>
        <time>2023-03-29T12:20:57Z</time>
      </trkpt>
      <trkpt lat="49.82685" lon="2.15123">
        <ele>117.7</ele>
        <time>2023-03-29T12:20:58Z</time>
      </trkpt>
      <trkpt lat="49.82685" lon="2.15121">
        <ele>117.6</ele>
        <time>2023-03-29T12:20:59Z</time>
      </trkpt>
      <trkpt lat="49.82686" lon="2.15119">
        <ele>117.5</ele>
        <time>2023-03-29T12:21:01Z</time>
      </trkpt>
      <trkpt lat="49.82687" lon="2.15117">
        <ele>117.4</ele>
        <time>2023-03-29T12:21:02Z</time>
      </trkpt>
      <trkpt lat="49.82688" lon="2.15115">
        <ele>117.3</ele>
        <time>2023-03-29T12:21:03Z</time>
      </trkpt>
      <trkpt lat="49.82688" lon="2.15113">
        <ele>117.2</ele>
        <time>2023-03-29T12:21:04Z</time>
      </trkpt>
      <trkpt lat="49.82689" lon="2.15109">
        <ele>116.9</ele>
        <time>2023-03-29T12:21:05Z</time>
      </trkpt>
      <trkpt lat="49.8269" lon="2.15107">
        <ele>116.8</ele>
        <time>2023-03-29T12:21:06Z</time>
      </trkpt>
      <trkpt lat="49.82691" lon="2.15105">
        <ele>116.7</ele>
        <time>2023-03-29T12:21:07Z</time>
      </trkpt>
      <trkpt lat="49.82691" lon="2.15103">
        <ele>116.6</ele>
        <time>2023-03-29T12:21:08Z</time>
      </trkpt>
      <trkpt lat="49.82692" lon="2.151">
        <ele>116.4</ele>
        <time>2023-03-29T12:21:09Z</time>
      </trkpt>
      <trkpt lat="49.82693" lon="2.15099">
        <ele>116.3</ele>
        <time>2023-03-29T12:21:10Z</time>
      </trkpt>
      <trkpt lat="49.82693" lon="2.15097">
        <ele>116.3</ele>
        <time>2023-03-29T12:21:11Z</time>
      </trkpt>
      <trkpt lat="49.82694" lon="2.15096">
        <ele>116.2</ele>
        <time>2023-03-29T12:21:13Z</time>
      </trkpt>
      <trkpt lat="49.82694" lon="2.15095">
        <ele>116.1</ele>
        <time>2023-03-29T12:21:14Z</time>
      </trkpt>
      <trkpt lat="49.82694" lon="2.15093">
        <ele>116</ele>
        <time>2023-03-29T12:21:15Z</time>
      </trkpt>
      <trkpt lat="49.82695" lon="2.15092">
        <ele>115.9</ele>
        <time>2023-03-29T12:21:16Z</time>
      </trkpt>
      <trkpt lat="49.82696" lon="2.15088">
        <ele>115.7</ele>
        <time>2023-03-29T12:21:18Z</time>
      </trkpt>
      <trkpt lat="49.82696" lon="2.15087">
        <ele>115.6</ele>
        <time>2023-03-29T12:21:19Z</time>
      </trkpt>
      <trkpt lat="49.82696" lon="2.15087">
        <ele>115.6</ele>
        <time>2023-03-29T12:21:20Z</time>
      </trkpt>
      <trkpt lat="49.82697" lon="2.15085">
        <ele>115.5</ele>
        <time>2023-03-29T12:21:21Z</time>
      </trkpt>
      <trkpt lat="49.82697" lon="2.15084">
        <ele>115.4</ele>
        <time>2023-03-29T12:21:22Z</time>
      </trkpt>
      <trkpt lat="49.82698" lon="2.1508">
        <ele>115.2</ele>
        <time>2023-03-29T12:21:24Z</time>
      </trkpt>
      <trkpt lat="49.82699" lon="2.15079">
        <ele>115.1</ele>
        <time>2023-03-29T12:21:25Z</time>
      </trkpt>
      <trkpt lat="49.82699" lon="2.15078">
        <ele>115</ele>
        <time>2023-03-29T12:21:26Z</time>
      </trkpt>
      <trkpt lat="49.827" lon="2.15077">
        <ele>114.9</ele>
        <time>2023-03-29T12:21:27Z</time>
      </trkpt>
      <trkpt lat="49.827" lon="2.15076">
        <ele>114.8</ele>
        <time>2023-03-29T12:21:28Z</time>
      </trkpt>
      <trkpt lat="49.82701" lon="2.15075">
        <ele>114.7</ele>
        <time>2023-03-29T12:21:29Z</time>
      </trkpt>
      <trkpt lat="49.82701" lon="2.15073">
        <ele>114.6</ele>
        <time>2023-03-29T12:21:30Z</time>
      </trkpt>
      <trkpt lat="49.82702" lon="2.15072">
        <ele>114.5</ele>
        <time>2023-03-29T12:21:31Z</time>
      </trkpt>
      <trkpt lat="49.82702" lon="2.15072">
        <ele>114.5</ele>
        <time>2023-03-29T12:21:32Z</time>
      </trkpt>
      <trkpt lat="49.82702" lon="2.1507">
        <ele>114.4</ele>
        <time>2023-03-29T12:21:33Z</time>
      </trkpt>
      <trkpt lat="49.82704" lon="2.15067">
        <ele>114.2</ele>
        <time>2023-03-29T12:21:35Z</time>
      </trkpt>
      <trkpt lat="49.82704" lon="2.15066">
        <ele>114.1</ele>
        <time>2023-03-29T12:21:36Z</time>
      </trkpt>
      <trkpt lat="49.82704" lon="2.15065">
        <ele>114</ele>
        <time>2023-03-29T12:21:37Z</time>
      </trkpt>
      <trkpt lat="49.82705" lon="2.15062">
        <ele>113.8</ele>
        <time>2023-03-29T12:21:38Z</time>
      </trkpt>
      <trkpt lat="49.82706" lon="2.1506">
        <ele>113.7</ele>
        <time>2023-03-29T12:21:39Z</time>
      </trkpt>
      <trkpt lat="49.82706" lon="2.15059">
        <ele>113.6</ele>
        <time>2023-03-29T12:21:40Z</time>
      </trkpt>
      <trkpt lat="49.82707" lon="2.15055">
        <ele>113.3</ele>
        <time>2023-03-29T12:21:42Z</time>
      </trkpt>
      <trkpt lat="49.82708" lon="2.15053">
        <ele>113.2</ele>
        <time>2023-03-29T12:21:44Z</time>
      </trkpt>
      <trkpt lat="49.82708" lon="2.15052">
        <ele>113.1</ele>
        <time>2023-03-29T12:21:45Z</time>
      </trkpt>
      <trkpt lat="49.82709" lon="2.1505">
        <ele>113</ele>
        <time>2023-03-29T12:21:46Z</time>
      </trkpt>
      <trkpt lat="49.82709" lon="2.15049">
        <ele>112.9</ele>
        <time>2023-03-29T12:21:47Z</time>
      </trkpt>
      <trkpt lat="49.8271" lon="2.15047">
        <ele>112.8</ele>
        <time>2023-03-29T12:21:48Z</time>
      </trkpt>
      <trkpt lat="49.8271" lon="2.15046">
        <ele>112.6</ele>
        <time>2023-03-29T12:21:49Z</time>
      </trkpt>
      <trkpt lat="49.82711" lon="2.15044">
        <ele>112.5</ele>
        <time>2023-03-29T12:21:50Z</time>
      </trkpt>
      <trkpt lat="49.82711" lon="2.15043">
        <ele>112.4</ele>
        <time>2023-03-29T12:21:52Z</time>
      </trkpt>
      <trkpt lat="49.82711" lon="2.15042">
        <ele>112.4</ele>
        <time>2023-03-29T12:21:53Z</time>
      </trkpt>
      <trkpt lat="49.82711" lon="2.1504">
        <ele>112.2</ele>
        <time>2023-03-29T12:21:54Z</time>
      </trkpt>
      <trkpt lat="49.82712" lon="2.15038">
        <ele>112.1</ele>
        <time>2023-03-29T12:21:55Z</time>
      </trkpt>
      <trkpt lat="49.82712" lon="2.15036">
        <ele>111.9</ele>
        <time>2023-03-29T12:21:56Z</time>
      </trkpt>
      <trkpt lat="49.82713" lon="2.15035">
        <ele>111.9</ele>
        <time>2023-03-29T12:21:57Z</time>
      </trkpt>
      <trkpt lat="49.82713" lon="2.15034">
        <ele>111.8</ele>
        <time>2023-03-29T12:21:58Z</time>
      </trkpt>
      <trkpt lat="49.82713" lon="2.15032">
        <ele>111.7</ele>
        <time>2023-03-29T12:21:59Z</time>
      </trkpt>
      <trkpt lat="49.82713" lon="2.15031">
        <ele>111.6</ele>
        <time>2023-03-29T12:22:01Z</time>
      </trkpt>
      <trkpt lat="49.82713" lon="2.1503">
        <ele>111.5</ele>
        <time>2023-03-29T12:22:02Z</time>
      </trkpt>
      <trkpt lat="49.82714" lon="2.15028">
        <ele>111.4</ele>
        <time>2023-03-29T12:22:03Z</time>
      </trkpt>
      <trkpt lat="49.82714" lon="2.15027">
        <ele>111.3</ele>
        <time>2023-03-29T12:22:04Z</time>
      </trkpt>
      <trkpt lat="49.82715" lon="2.15024">
        <ele>111.1</ele>
        <time>2023-03-29T12:22:05Z</time>
      </trkpt>
      <trkpt lat="49.82715" lon="2.15022">
        <ele>111</ele>
        <time>2023-03-29T12:22:06Z</time>
      </trkpt>
      <trkpt lat="49.82716" lon="2.15021">
        <ele>110.9</ele>
        <time>2023-03-29T12:22:07Z</time>
      </trkpt>
      <trkpt lat="49.82716" lon="2.15018">
        <ele>110.7</ele>
        <time>2023-03-29T12:22:08Z</time>
      </trkpt>
      <trkpt lat="49.82716" lon="2.15017">
        <ele>110.6</ele>
        <time>2023-03-29T12:22:09Z</time>
      </trkpt>
      <trkpt lat="49.82716" lon="2.15015">
        <ele>110.5</ele>
        <time>2023-03-29T12:22:11Z</time>
      </trkpt>
      <trkpt lat="49.82717" lon="2.15014">
        <ele>110.4</ele>
        <time>2023-03-29T12:22:12Z</time>
      </trkpt>
      <trkpt lat="49.82717" lon="2.15012">
        <ele>110.3</ele>
        <time>2023-03-29T12:22:13Z</time>
      </trkpt>
      <trkpt lat="49.82717" lon="2.15011">
        <ele>110.2</ele>
        <time>2023-03-29T12:22:14Z</time>
      </trkpt>
      <trkpt lat="49.82718" lon="2.15009">
        <ele>110</ele>
        <time>2023-03-29T12:22:15Z</time>
      </trkpt>
      <trkpt lat="49.82718" lon="2.15007">
        <ele>109.9</ele>
        <time>2023-03-29T12:22:16Z</time>
      </trkpt>
      <trkpt lat="49.82718" lon="2.15005">
        <ele>109.8</ele>
        <time>2023-03-29T12:22:18Z</time>
      </trkpt>
      <trkpt lat="49.82719" lon="2.15004">
        <ele>109.7</ele>
        <time>2023-03-29T12:22:19Z</time>
      </trkpt>
      <trkpt lat="49.82719" lon="2.15003">
        <ele>109.6</ele>
        <time>2023-03-29T12:22:20Z</time>
      </trkpt>
      <trkpt lat="49.82719" lon="2.15002">
        <ele>109.6</ele>
        <time>2023-03-29T12:22:21Z</time>
      </trkpt>
      <trkpt lat="49.82719" lon="2.15">
        <ele>109.4</ele>
        <time>2023-03-29T12:22:22Z</time>
      </trkpt>
      <trkpt lat="49.82719" lon="2.14999">
        <ele>109.4</ele>
        <time>2023-03-29T12:22:23Z</time>
      </trkpt>
      <trkpt lat="49.8272" lon="2.14995">
        <ele>109.1</ele>
        <time>2023-03-29T12:22:24Z</time>
      </trkpt>
      <trkpt lat="49.82721" lon="2.14994">
        <ele>109</ele>
        <time>2023-03-29T12:22:25Z</time>
      </trkpt>
      <trkpt lat="49.82721" lon="2.14992">
        <ele>108.9</ele>
        <time>2023-03-29T12:22:27Z</time>
      </trkpt>
      <trkpt lat="49.82722" lon="2.14991">
        <ele>108.8</ele>
        <time>2023-03-29T12:22:28Z</time>
      </trkpt>
      <trkpt lat="49.82722" lon="2.1499">
        <ele>108.7</ele>
        <time>2023-03-29T12:22:29Z</time>
      </trkpt>
      <trkpt lat="49.82722" lon="2.14988">
        <ele>108.6</ele>
        <time>2023-03-29T12:22:30Z</time>
      </trkpt>
      <trkpt lat="49.82723" lon="2.14985">
        <ele>108.4</ele>
        <time>2023-03-29T12:22:31Z</time>
      </trkpt>
      <trkpt lat="49.82724" lon="2.14984">
        <ele>108.3</ele>
        <time>2023-03-29T12:22:32Z</time>
      </trkpt>
      <trkpt lat="49.82724" lon="2.14982">
        <ele>108.1</ele>
        <time>2023-03-29T12:22:33Z</time>
      </trkpt>
      <trkpt lat="49.82724" lon="2.1498">
        <ele>108</ele>
        <time>2023-03-29T12:22:35Z</time>
      </trkpt>
      <trkpt lat="49.82725" lon="2.14978">
        <ele>107.8</ele>
        <time>2023-03-29T12:22:36Z</time>
      </trkpt>
      <trkpt lat="49.82726" lon="2.14974">
        <ele>107.5</ele>
        <time>2023-03-29T12:22:37Z</time>
      </trkpt>
      <trkpt lat="49.82726" lon="2.14973">
        <ele>107.4</ele>
        <time>2023-03-29T12:22:38Z</time>
      </trkpt>
      <trkpt lat="49.82727" lon="2.14968">
        <ele>107.1</ele>
        <time>2023-03-29T12:22:39Z</time>
      </trkpt>
      <trkpt lat="49.82727" lon="2.14966">
        <ele>107</ele>
        <time>2023-03-29T12:22:40Z</time>
      </trkpt>
      <trkpt lat="49.82727" lon="2.14964">
        <ele>106.8</ele>
        <time>2023-03-29T12:22:41Z</time>
      </trkpt>
      <trkpt lat="49.82727" lon="2.14962">
        <ele>106.7</ele>
        <time>2023-03-29T12:22:42Z</time>
      </trkpt>
      <trkpt lat="49.82728" lon="2.1496">
        <ele>106.6</ele>
        <time>2023-03-29T12:22:44Z</time>
      </trkpt>
      <trkpt lat="49.82728" lon="2.1496">
        <ele>106.5</ele>
        <time>2023-03-29T12:22:45Z</time>
      </trkpt>
      <trkpt lat="49.82728" lon="2.1496">
        <ele>106.5</ele>
        <time>2023-03-29T12:22:46Z</time>
      </trkpt>
      <trkpt lat="49.82728" lon="2.14959">
        <ele>106.5</ele>
        <time>2023-03-29T12:22:47Z</time>
      </trkpt>
      <trkpt lat="49.82728" lon="2.14957">
        <ele>106.4</ele>
        <time>2023-03-29T12:22:48Z</time>
      </trkpt>
      <trkpt lat="49.82729" lon="2.14956">
        <ele>106.3</ele>
        <time>2023-03-29T12:22:49Z</time>
      </trkpt>
      <trkpt lat="49.82729" lon="2.14954">
        <ele>106.2</ele>
        <time>2023-03-29T12:22:51Z</time>
      </trkpt>
      <trkpt lat="49.8273" lon="2.14953">
        <ele>106.1</ele>
        <time>2023-03-29T12:22:52Z</time>
      </trkpt>
      <trkpt lat="49.8273" lon="2.14952">
        <ele>105.9</ele>
        <time>2023-03-29T12:22:53Z</time>
      </trkpt>
      <trkpt lat="49.82731" lon="2.1495">
        <ele>105.8</ele>
        <time>2023-03-29T12:22:54Z</time>
      </trkpt>
      <trkpt lat="49.82732" lon="2.14949">
        <ele>105.7</ele>
        <time>2023-03-29T12:22:55Z</time>
      </trkpt>
      <trkpt lat="49.82732" lon="2.14948">
        <ele>105.7</ele>
        <time>2023-03-29T12:22:56Z</time>
      </trkpt>
      <trkpt lat="49.82733" lon="2.14947">
        <ele>105.6</ele>
        <time>2023-03-29T12:22:57Z</time>
      </trkpt>
      <trkpt lat="49.82733" lon="2.14946">
        <ele>105.5</ele>
        <time>2023-03-29T12:22:59Z</time>
      </trkpt>
      <trkpt lat="49.82734" lon="2.14945">
        <ele>105.4</ele>
        <time>2023-03-29T12:23:00Z</time>
      </trkpt>
      <trkpt lat="49.82734" lon="2.14943">
        <ele>105.3</ele>
        <time>2023-03-29T12:23:01Z</time>
      </trkpt>
      <trkpt lat="49.82735" lon="2.1494">
        <ele>105.1</ele>
        <time>2023-03-29T12:23:02Z</time>
      </trkpt>
      <trkpt lat="49.82736" lon="2.14936">
        <ele>104.9</ele>
        <time>2023-03-29T12:23:03Z</time>
      </trkpt>
      <trkpt lat="49.82736" lon="2.14935">
        <ele>104.8</ele>
        <time>2023-03-29T12:23:05Z</time>
      </trkpt>
      <trkpt lat="49.82736" lon="2.14933">
        <ele>104.7</ele>
        <time>2023-03-29T12:23:06Z</time>
      </trkpt>
      <trkpt lat="49.82737" lon="2.14932">
        <ele>104.7</ele>
        <time>2023-03-29T12:23:07Z</time>
      </trkpt>
      <trkpt lat="49.82737" lon="2.1493">
        <ele>104.6</ele>
        <time>2023-03-29T12:23:08Z</time>
      </trkpt>
      <trkpt lat="49.82737" lon="2.14929">
        <ele>104.5</ele>
        <time>2023-03-29T12:23:09Z</time>
      </trkpt>
      <trkpt lat="49.82737" lon="2.14927">
        <ele>104.5</ele>
        <time>2023-03-29T12:23:10Z</time>
      </trkpt>
      <trkpt lat="49.82738" lon="2.14927">
        <ele>104.4</ele>
        <time>2023-03-29T12:23:12Z</time>
      </trkpt>
      <trkpt lat="49.82738" lon="2.14927">
        <ele>104.4</ele>
        <time>2023-03-29T12:23:13Z</time>
      </trkpt>
      <trkpt lat="49.82738" lon="2.14925">
        <ele>104.4</ele>
        <time>2023-03-29T12:23:14Z</time>
      </trkpt>
      <trkpt lat="49.82738" lon="2.14923">
        <ele>104.3</ele>
        <time>2023-03-29T12:23:15Z</time>
      </trkpt>
      <trkpt lat="49.82739" lon="2.14922">
        <ele>104.2</ele>
        <time>2023-03-29T12:23:16Z</time>
      </trkpt>
      <trkpt lat="49.82739" lon="2.1492">
        <ele>104.1</ele>
        <time>2023-03-29T12:23:18Z</time>
      </trkpt>
      <trkpt lat="49.82739" lon="2.14918">
        <ele>104.1</ele>
        <time>2023-03-29T12:23:19Z</time>
      </trkpt>
      <trkpt lat="49.82739" lon="2.14915">
        <ele>104</ele>
        <time>2023-03-29T12:23:20Z</time>
      </trkpt>
      <trkpt lat="49.8274" lon="2.14913">
        <ele>103.9</ele>
        <time>2023-03-29T12:23:21Z</time>
      </trkpt>
      <trkpt lat="49.8274" lon="2.14911">
        <ele>103.9</ele>
        <time>2023-03-29T12:23:22Z</time>
      </trkpt>
      <trkpt lat="49.8274" lon="2.1491">
        <ele>103.8</ele>
        <time>2023-03-29T12:23:23Z</time>
      </trkpt>
      <trkpt lat="49.82741" lon="2.14909">
        <ele>103.8</ele>
        <time>2023-03-29T12:23:25Z</time>
      </trkpt>
      <trkpt lat="49.82741" lon="2.1491">
        <ele>103.8</ele>
        <time>2023-03-29T12:23:26Z</time>
      </trkpt>
      <trkpt lat="49.82741" lon="2.1491">
        <ele>103.8</ele>
        <time>2023-03-29T12:23:27Z</time>
      </trkpt>
      <trkpt lat="49.82741" lon="2.14909">
        <ele>103.8</ele>
        <time>2023-03-29T12:23:28Z</time>
      </trkpt>
      <trkpt lat="49.82742" lon="2.14907">
        <ele>103.7</ele>
        <time>2023-03-29T12:23:29Z</time>
      </trkpt>
      <trkpt lat="49.82742" lon="2.14906">
        <ele>103.7</ele>
        <time>2023-03-29T12:23:30Z</time>
      </trkpt>
      <trkpt lat="49.82742" lon="2.14905">
        <ele>103.7</ele>
        <time>2023-03-29T12:23:32Z</time>
      </trkpt>
      <trkpt lat="49.82742" lon="2.14904">
        <ele>103.7</ele>
        <time>2023-03-29T12:23:33Z</time>
      </trkpt>
      <trkpt lat="49.82743" lon="2.14903">
        <ele>103.7</ele>
        <time>2023-03-29T12:23:34Z</time>
      </trkpt>
      <trkpt lat="49.82743" lon="2.14902">
        <ele>103.6</ele>
        <time>2023-03-29T12:23:35Z</time>
      </trkpt>
      <trkpt lat="49.82743" lon="2.149">
        <ele>103.6</ele>
        <time>2023-03-29T12:23:36Z</time>
      </trkpt>
      <trkpt lat="49.82744" lon="2.14898">
        <ele>103.6</ele>
        <time>2023-03-29T12:23:37Z</time>
      </trkpt>
      <trkpt lat="49.82744" lon="2.14897">
        <ele>103.6</ele>
        <time>2023-03-29T12:23:39Z</time>
      </trkpt>
      <trkpt lat="49.82745" lon="2.14895">
        <ele>103.5</ele>
        <time>2023-03-29T12:23:40Z</time>
      </trkpt>
      <trkpt lat="49.82745" lon="2.14893">
        <ele>103.5</ele>
        <time>2023-03-29T12:23:41Z</time>
      </trkpt>
      <trkpt lat="49.82746" lon="2.14892">
        <ele>103.5</ele>
        <time>2023-03-29T12:23:42Z</time>
      </trkpt>
      <trkpt lat="49.82747" lon="2.14889">
        <ele>103.5</ele>
        <time>2023-03-29T12:23:43Z</time>
      </trkpt>
      <trkpt lat="49.82748" lon="2.14886">
        <ele>103.5</ele>
        <time>2023-03-29T12:23:45Z</time>
      </trkpt>
      <trkpt lat="49.82749" lon="2.14884">
        <ele>103.5</ele>
        <time>2023-03-29T12:23:46Z</time>
      </trkpt>
      <trkpt lat="49.82749" lon="2.14883">
        <ele>103.5</ele>
        <time>2023-03-29T12:23:47Z</time>
      </trkpt>
      <trkpt lat="49.8275" lon="2.1488">
        <ele>103.4</ele>
        <time>2023-03-29T12:23:48Z</time>
      </trkpt>
      <trkpt lat="49.8275" lon="2.14879">
        <ele>103.4</ele>
        <time>2023-03-29T12:23:49Z</time>
      </trkpt>
      <trkpt lat="49.82751" lon="2.14878">
        <ele>103.4</ele>
        <time>2023-03-29T12:23:50Z</time>
      </trkpt>
      <trkpt lat="49.82751" lon="2.14878">
        <ele>103.4</ele>
        <time>2023-03-29T12:23:52Z</time>
      </trkpt>
      <trkpt lat="49.82752" lon="2.14877">
        <ele>103.4</ele>
        <time>2023-03-29T12:23:53Z</time>
      </trkpt>
      <trkpt lat="49.82752" lon="2.14876">
        <ele>103.4</ele>
        <time>2023-03-29T12:23:54Z</time>
      </trkpt>
      <trkpt lat="49.82753" lon="2.14875">
        <ele>103.4</ele>
        <time>2023-03-29T12:23:55Z</time>
      </trkpt>
      <trkpt lat="49.82753" lon="2.14874">
        <ele>103.4</ele>
        <time>2023-03-29T12:23:56Z</time>
      </trkpt>
      <trkpt lat="49.82754" lon="2.14874">
        <ele>103.4</ele>
        <time>2023-03-29T12:23:57Z</time>
      </trkpt>
      <trkpt lat="49.82754" lon="2.14873">
        <ele>103.3</ele>
        <time>2023-03-29T12:23:59Z</time>
      </trkpt>
      <trkpt lat="49.82755" lon="2.14873">
        <ele>103.3</ele>
        <time>2023-03-29T12:24:00Z</time>
      </trkpt>
      <trkpt lat="49.82755" lon="2.14873">
        <ele>103.3</ele>
        <time>2023-03-29T12:24:01Z</time>
      </trkpt>
      <trkpt lat="49.82756" lon="2.14874">
        <ele>103.3</ele>
        <time>2023-03-29T12:24:03Z</time>
      </trkpt>
      <trkpt lat="49.82757" lon="2.14876">
        <ele>103.3</ele>
        <time>2023-03-29T12:24:04Z</time>
      </trkpt>
      <trkpt lat="49.82757" lon="2.14877">
        <ele>103.3</ele>
        <time>2023-03-29T12:24:06Z</time>
      </trkpt>
      <trkpt lat="49.82757" lon="2.14879">
        <ele>103.3</ele>
        <time>2023-03-29T12:24:08Z</time>
      </trkpt>
      <trkpt lat="49.82757" lon="2.14879">
        <ele>103.3</ele>
        <time>2023-03-29T12:24:09Z</time>
      </trkpt>
      <trkpt lat="49.82756" lon="2.14881">
        <ele>103.2</ele>
        <time>2023-03-29T12:24:10Z</time>
      </trkpt>
      <trkpt lat="49.82756" lon="2.14882">
        <ele>103.2</ele>
        <time>2023-03-29T12:24:12Z</time>
      </trkpt>
      <trkpt lat="49.82756" lon="2.14882">
        <ele>103.2</ele>
        <time>2023-03-29T12:24:13Z</time>
      </trkpt>
      <trkpt lat="49.82756" lon="2.14883">
        <ele>103.2</ele>
        <time>2023-03-29T12:24:15Z</time>
      </trkpt>
      <trkpt lat="49.82755" lon="2.14883">
        <ele>103.2</ele>
        <time>2023-03-29T12:24:16Z</time>
      </trkpt>
      <trkpt lat="49.82755" lon="2.14883">
        <ele>103.2</ele>
        <time>2023-03-29T12:24:18Z</time>
      </trkpt>
      <trkpt lat="49.82754" lon="2.14884">
        <ele>103.2</ele>
        <time>2023-03-29T12:24:19Z</time>
      </trkpt>
      <trkpt lat="49.82754" lon="2.14884">
        <ele>103.2</ele>
        <time>2023-03-29T12:24:21Z</time>
      </trkpt>
      <trkpt lat="49.82754" lon="2.14884">
        <ele>103.2</ele>
        <time>2023-03-29T12:24:22Z</time>
      </trkpt>
      <trkpt lat="49.82753" lon="2.14883">
        <ele>103.2</ele>
        <time>2023-03-29T12:24:23Z</time>
      </trkpt>
      <trkpt lat="49.82753" lon="2.14883">
        <ele>103.2</ele>
        <time>2023-03-29T12:24:24Z</time>
      </trkpt>
      <trkpt lat="49.82753" lon="2.14883">
        <ele>103.2</ele>
        <time>2023-03-29T12:24:25Z</time>
      </trkpt>
      <trkpt lat="49.82753" lon="2.14883">
        <ele>103.2</ele>
        <time>2023-03-29T12:24:26Z</time>
      </trkpt>
      <trkpt lat="49.82753" lon="2.14882">
        <ele>103.2</ele>
        <time>2023-03-29T12:24:27Z</time>
      </trkpt>
      <trkpt lat="49.82752" lon="2.14882">
        <ele>103.2</ele>
        <time>2023-03-29T12:24:28Z</time>
      </trkpt>
      <trkpt lat="49.82752" lon="2.14882">
        <ele>103.2</ele>
        <time>2023-03-29T12:24:29Z</time>
      </trkpt>
      <trkpt lat="49.82752" lon="2.14882">
        <ele>103.2</ele>
        <time>2023-03-29T12:24:30Z</time>
      </trkpt>
      <trkpt lat="49.82752" lon="2.14882">
        <ele>103.2</ele>
        <time>2023-03-29T12:24:31Z</time>
      </trkpt>
      <trkpt lat="49.82752" lon="2.14882">
        <ele>103.2</ele>
        <time>2023-03-29T12:24:32Z</time>
      </trkpt>
      <trkpt lat="49.82752" lon="2.14882">
        <ele>103.2</ele>
        <time>2023-03-29T12:24:33Z</time>
      </trkpt>
      <trkpt lat="49.82752" lon="2.14882">
        <ele>103.2</ele>
        <time>2023-03-29T12:24:34Z</time>
      </trkpt>
      <trkpt lat="49.82752" lon="2.14882">
        <ele>103.2</ele>
        <time>2023-03-29T12:24:35Z</time>
      </trkpt>
      <trkpt lat="49.82752" lon="2.14882">
        <ele>103.2</ele>
        <time>2023-03-29T12:24:36Z</time>
      </trkpt>
      <trkpt lat="49.82752" lon="2.14882">
        <ele>103.2</ele>
        <time>2023-03-29T12:24:37Z</time>
      </trkpt>
      <trkpt lat="49.82752" lon="2.14882">
        <ele>103.2</ele>
        <time>2023-03-29T12:24:38Z</time>
      </trkpt>
      <trkpt lat="49.82752" lon="2.14882">
        <ele>103.2</ele>
        <time>2023-03-29T12:24:39Z</time>
      </trkpt>
      <trkpt lat="49.82752" lon="2.14882">
        <ele>103.2</ele>
        <time>2023-03-29T12:24:40Z</time>
      </trkpt>
      <trkpt lat="49.82752" lon="2.14882">
        <ele>103.2</ele>
        <time>2023-03-29T12:24:41Z</time>
      </trkpt>
      <trkpt lat="49.82752" lon="2.14882">
        <ele>103.2</ele>
        <time>2023-03-29T12:24:42Z</time>
      </trkpt>
      <trkpt lat="49.82752" lon="2.14882">
        <ele>103.2</ele>
        <time>2023-03-29T12:24:43Z</time>
      </trkpt>
      <trkpt lat="49.82752" lon="2.14882">
        <ele>103.2</ele>
        <time>2023-03-29T12:24:44Z</time>
      </trkpt>
      <trkpt lat="49.82752" lon="2.14882">
        <ele>103.2</ele>
        <time>2023-03-29T12:24:45Z</time>
      </trkpt>
      <trkpt lat="49.82752" lon="2.14882">
        <ele>103.2</ele>
        <time>2023-03-29T12:24:46Z</time>
      </trkpt>
      <trkpt lat="49.82752" lon="2.14882">
        <ele>103.2</ele>
        <time>2023-03-29T12:24:47Z</time>
      </trkpt>
      <trkpt lat="49.82752" lon="2.14882">
        <ele>103.2</ele>
        <time>2023-03-29T12:24:48Z</time>
      </trkpt>
      <trkpt lat="49.82752" lon="2.14882">
        <ele>103.2</ele>
        <time>2023-03-29T12:24:49Z</time>
      </trkpt>
      <trkpt lat="49.82752" lon="2.14882">
        <ele>103.2</ele>
        <time>2023-03-29T12:24:50Z</time>
      </trkpt>
      <trkpt lat="49.82752" lon="2.14882">
        <ele>103.2</ele>
        <time>2023-03-29T12:24:51Z</time>
      </trkpt>
      <trkpt lat="49.82752" lon="2.14882">
        <ele>103.2</ele>
        <time>2023-03-29T12:24:52Z</time>
      </trkpt>
      <trkpt lat="49.82752" lon="2.14883">
        <ele>103.2</ele>
        <time>2023-03-29T12:24:53Z</time>
      </trkpt>
      <trkpt lat="49.82752" lon="2.14883">
        <ele>103.2</ele>
        <time>2023-03-29T12:24:54Z</time>
      </trkpt>
      <trkpt lat="49.82753" lon="2.14883">
        <ele>103.2</ele>
        <time>2023-03-29T12:24:55Z</time>
      </trkpt>
      <trkpt lat="49.82753" lon="2.14883">
        <ele>103.2</ele>
        <time>2023-03-29T12:24:56Z</time>
      </trkpt>
      <trkpt lat="49.82754" lon="2.14884">
        <ele>103.1</ele>
        <time>2023-03-29T12:24:57Z</time>
      </trkpt>
      <trkpt lat="49.82754" lon="2.14884">
        <ele>103.1</ele>
        <time>2023-03-29T12:24:58Z</time>
      </trkpt>
      <trkpt lat="49.82754" lon="2.14886">
        <ele>103.1</ele>
        <time>2023-03-29T12:24:59Z</time>
      </trkpt>
      <trkpt lat="49.82755" lon="2.14887">
        <ele>103.1</ele>
        <time>2023-03-29T12:25:00Z</time>
      </trkpt>
      <trkpt lat="49.82755" lon="2.14887">
        <ele>103.1</ele>
        <time>2023-03-29T12:25:01Z</time>
      </trkpt>
      <trkpt lat="49.82757" lon="2.14888">
        <ele>103.1</ele>
        <time>2023-03-29T12:25:02Z</time>
      </trkpt>
      <trkpt lat="49.82758" lon="2.14889">
        <ele>103.1</ele>
        <time>2023-03-29T12:25:03Z</time>
      </trkpt>
      <trkpt lat="49.82759" lon="2.14891">
        <ele>103</ele>
        <time>2023-03-29T12:25:05Z</time>
      </trkpt>
      <trkpt lat="49.82759" lon="2.14893">
        <ele>103</ele>
        <time>2023-03-29T12:25:06Z</time>
      </trkpt>
      <trkpt lat="49.8276" lon="2.14895">
        <ele>103</ele>
        <time>2023-03-29T12:25:07Z</time>
      </trkpt>
      <trkpt lat="49.82761" lon="2.14897">
        <ele>103</ele>
        <time>2023-03-29T12:25:08Z</time>
      </trkpt>
      <trkpt lat="49.82761" lon="2.14899">
        <ele>102.9</ele>
        <time>2023-03-29T12:25:09Z</time>
      </trkpt>
      <trkpt lat="49.82762" lon="2.14901">
        <ele>102.9</ele>
        <time>2023-03-29T12:25:10Z</time>
      </trkpt>
      <trkpt lat="49.82762" lon="2.14902">
        <ele>102.9</ele>
        <time>2023-03-29T12:25:12Z</time>
      </trkpt>
      <trkpt lat="49.82762" lon="2.14903">
        <ele>102.9</ele>
        <time>2023-03-29T12:25:13Z</time>
      </trkpt>
      <trkpt lat="49.82763" lon="2.14904">
        <ele>102.9</ele>
        <time>2023-03-29T12:25:14Z</time>
      </trkpt>
      <trkpt lat="49.82763" lon="2.14906">
        <ele>102.8</ele>
        <time>2023-03-29T12:25:15Z</time>
      </trkpt>
      <trkpt lat="49.82764" lon="2.14907">
        <ele>102.8</ele>
        <time>2023-03-29T12:25:16Z</time>
      </trkpt>
      <trkpt lat="49.82764" lon="2.14908">
        <ele>102.8</ele>
        <time>2023-03-29T12:25:17Z</time>
      </trkpt>
      <trkpt lat="49.82764" lon="2.14909">
        <ele>102.8</ele>
        <time>2023-03-29T12:25:18Z</time>
      </trkpt>
      <trkpt lat="49.82765" lon="2.14911">
        <ele>102.8</ele>
        <time>2023-03-29T12:25:19Z</time>
      </trkpt>
      <trkpt lat="49.82766" lon="2.14912">
        <ele>102.8</ele>
        <time>2023-03-29T12:25:21Z</time>
      </trkpt>
      <trkpt lat="49.82766" lon="2.14914">
        <ele>102.7</ele>
        <time>2023-03-29T12:25:22Z</time>
      </trkpt>
      <trkpt lat="49.82767" lon="2.14916">
        <ele>102.7</ele>
        <time>2023-03-29T12:25:23Z</time>
      </trkpt>
      <trkpt lat="49.82767" lon="2.14918">
        <ele>102.7</ele>
        <time>2023-03-29T12:25:24Z</time>
      </trkpt>
      <trkpt lat="49.82767" lon="2.14918">
        <ele>102.7</ele>
        <time>2023-03-29T12:25:25Z</time>
      </trkpt>
      <trkpt lat="49.82768" lon="2.1492">
        <ele>102.7</ele>
        <time>2023-03-29T12:25:26Z</time>
      </trkpt>
      <trkpt lat="49.82768" lon="2.14921">
        <ele>102.7</ele>
        <time>2023-03-29T12:25:27Z</time>
      </trkpt>
      <trkpt lat="49.82769" lon="2.14922">
        <ele>102.6</ele>
        <time>2023-03-29T12:25:28Z</time>
      </trkpt>
      <trkpt lat="49.82771" lon="2.14924">
        <ele>102.6</ele>
        <time>2023-03-29T12:25:30Z</time>
      </trkpt>
      <trkpt lat="49.82771" lon="2.14925">
        <ele>102.6</ele>
        <time>2023-03-29T12:25:31Z</time>
      </trkpt>
      <trkpt lat="49.8277" lon="2.14927">
        <ele>102.6</ele>
        <time>2023-03-29T12:25:32Z</time>
      </trkpt>
      <trkpt lat="49.82771" lon="2.14928">
        <ele>102.6</ele>
        <time>2023-03-29T12:25:33Z</time>
      </trkpt>
      <trkpt lat="49.82771" lon="2.14929">
        <ele>102.5</ele>
        <time>2023-03-29T12:25:34Z</time>
      </trkpt>
      <trkpt lat="49.82771" lon="2.1493">
        <ele>102.5</ele>
        <time>2023-03-29T12:25:35Z</time>
      </trkpt>
      <trkpt lat="49.82771" lon="2.14931">
        <ele>102.5</ele>
        <time>2023-03-29T12:25:36Z</time>
      </trkpt>
      <trkpt lat="49.82771" lon="2.14932">
        <ele>102.5</ele>
        <time>2023-03-29T12:25:37Z</time>
      </trkpt>
      <trkpt lat="49.82772" lon="2.14933">
        <ele>102.5</ele>
        <time>2023-03-29T12:25:38Z</time>
      </trkpt>
      <trkpt lat="49.82773" lon="2.14934">
        <ele>102.5</ele>
        <time>2023-03-29T12:25:40Z</time>
      </trkpt>
      <trkpt lat="49.82774" lon="2.14935">
        <ele>102.4</ele>
        <time>2023-03-29T12:25:41Z</time>
      </trkpt>
      <trkpt lat="49.82775" lon="2.14936">
        <ele>102.4</ele>
        <time>2023-03-29T12:25:42Z</time>
      </trkpt>
      <trkpt lat="49.82776" lon="2.14939">
        <ele>102.4</ele>
        <time>2023-03-29T12:25:43Z</time>
      </trkpt>
      <trkpt lat="49.82776" lon="2.1494">
        <ele>102.4</ele>
        <time>2023-03-29T12:25:44Z</time>
      </trkpt>
      <trkpt lat="49.82776" lon="2.14941">
        <ele>102.4</ele>
        <time>2023-03-29T12:25:45Z</time>
      </trkpt>
      <trkpt lat="49.82778" lon="2.14944">
        <ele>102.3</ele>
        <time>2023-03-29T12:25:46Z</time>
      </trkpt>
      <trkpt lat="49.82778" lon="2.14945">
        <ele>102.3</ele>
        <time>2023-03-29T12:25:47Z</time>
      </trkpt>
      <trkpt lat="49.82779" lon="2.14946">
        <ele>102.3</ele>
        <time>2023-03-29T12:25:48Z</time>
      </trkpt>
      <trkpt lat="49.82779" lon="2.14948">
        <ele>102.3</ele>
        <time>2023-03-29T12:25:49Z</time>
      </trkpt>
      <trkpt lat="49.8278" lon="2.14949">
        <ele>102.3</ele>
        <time>2023-03-29T12:25:50Z</time>
      </trkpt>
      <trkpt lat="49.8278" lon="2.14951">
        <ele>102.3</ele>
        <time>2023-03-29T12:25:51Z</time>
      </trkpt>
      <trkpt lat="49.82781" lon="2.14953">
        <ele>102.2</ele>
        <time>2023-03-29T12:25:53Z</time>
      </trkpt>
      <trkpt lat="49.82782" lon="2.14955">
        <ele>102.2</ele>
        <time>2023-03-29T12:25:54Z</time>
      </trkpt>
      <trkpt lat="49.82783" lon="2.14956">
        <ele>102.2</ele>
        <time>2023-03-29T12:25:55Z</time>
      </trkpt>
      <trkpt lat="49.82784" lon="2.14958">
        <ele>102.2</ele>
        <time>2023-03-29T12:25:56Z</time>
      </trkpt>
      <trkpt lat="49.82787" lon="2.14962">
        <ele>102.1</ele>
        <time>2023-03-29T12:25:57Z</time>
      </trkpt>
      <trkpt lat="49.82788" lon="2.14963">
        <ele>102.1</ele>
        <time>2023-03-29T12:25:58Z</time>
      </trkpt>
      <trkpt lat="49.8279" lon="2.14965">
        <ele>102</ele>
        <time>2023-03-29T12:25:59Z</time>
      </trkpt>
      <trkpt lat="49.82793" lon="2.14968">
        <ele>102</ele>
        <time>2023-03-29T12:26:01Z</time>
      </trkpt>
      <trkpt lat="49.82796" lon="2.14972">
        <ele>101.9</ele>
        <time>2023-03-29T12:26:02Z</time>
      </trkpt>
      <trkpt lat="49.82797" lon="2.14973">
        <ele>101.9</ele>
        <time>2023-03-29T12:26:03Z</time>
      </trkpt>
      <trkpt lat="49.82799" lon="2.14977">
        <ele>101.9</ele>
        <time>2023-03-29T12:26:04Z</time>
      </trkpt>
      <trkpt lat="49.828" lon="2.14978">
        <ele>101.9</ele>
        <time>2023-03-29T12:26:05Z</time>
      </trkpt>
      <trkpt lat="49.82802" lon="2.14982">
        <ele>101.8</ele>
        <time>2023-03-29T12:26:06Z</time>
      </trkpt>
      <trkpt lat="49.82803" lon="2.14983">
        <ele>101.8</ele>
        <time>2023-03-29T12:26:07Z</time>
      </trkpt>
      <trkpt lat="49.82805" lon="2.14986">
        <ele>101.8</ele>
        <time>2023-03-29T12:26:08Z</time>
      </trkpt>
      <trkpt lat="49.82805" lon="2.14987">
        <ele>101.7</ele>
        <time>2023-03-29T12:26:09Z</time>
      </trkpt>
      <trkpt lat="49.82806" lon="2.14989">
        <ele>101.7</ele>
        <time>2023-03-29T12:26:11Z</time>
      </trkpt>
      <trkpt lat="49.82807" lon="2.14991">
        <ele>101.7</ele>
        <time>2023-03-29T12:26:12Z</time>
      </trkpt>
      <trkpt lat="49.82808" lon="2.14992">
        <ele>101.7</ele>
        <time>2023-03-29T12:26:13Z</time>
      </trkpt>
      <trkpt lat="49.82808" lon="2.14994">
        <ele>101.7</ele>
        <time>2023-03-29T12:26:14Z</time>
      </trkpt>
      <trkpt lat="49.82809" lon="2.14995">
        <ele>101.6</ele>
        <time>2023-03-29T12:26:15Z</time>
      </trkpt>
      <trkpt lat="49.8281" lon="2.14997">
        <ele>101.6</ele>
        <time>2023-03-29T12:26:16Z</time>
      </trkpt>
      <trkpt lat="49.8281" lon="2.15">
        <ele>101.6</ele>
        <time>2023-03-29T12:26:17Z</time>
      </trkpt>
      <trkpt lat="49.82811" lon="2.15002">
        <ele>101.6</ele>
        <time>2023-03-29T12:26:18Z</time>
      </trkpt>
      <trkpt lat="49.82812" lon="2.15004">
        <ele>101.5</ele>
        <time>2023-03-29T12:26:19Z</time>
      </trkpt>
      <trkpt lat="49.82813" lon="2.15007">
        <ele>101.5</ele>
        <time>2023-03-29T12:26:20Z</time>
      </trkpt>
      <trkpt lat="49.82813" lon="2.15009">
        <ele>101.5</ele>
        <time>2023-03-29T12:26:21Z</time>
      </trkpt>
      <trkpt lat="49.82816" lon="2.15013">
        <ele>101.4</ele>
        <time>2023-03-29T12:26:23Z</time>
      </trkpt>
      <trkpt lat="49.82817" lon="2.15014">
        <ele>101.4</ele>
        <time>2023-03-29T12:26:25Z</time>
      </trkpt>
      <trkpt lat="49.82818" lon="2.15014">
        <ele>101.4</ele>
        <time>2023-03-29T12:26:26Z</time>
      </trkpt>
      <trkpt lat="49.82819" lon="2.15015">
        <ele>101.4</ele>
        <time>2023-03-29T12:26:27Z</time>
      </trkpt>
      <trkpt lat="49.8282" lon="2.15018">
        <ele>101.3</ele>
        <time>2023-03-29T12:26:29Z</time>
      </trkpt>
      <trkpt lat="49.82821" lon="2.1502">
        <ele>101.3</ele>
        <time>2023-03-29T12:26:31Z</time>
      </trkpt>
      <trkpt lat="49.82822" lon="2.15022">
        <ele>101.3</ele>
        <time>2023-03-29T12:26:32Z</time>
      </trkpt>
      <trkpt lat="49.82822" lon="2.15023">
        <ele>101.3</ele>
        <time>2023-03-29T12:26:34Z</time>
      </trkpt>
      <trkpt lat="49.82823" lon="2.15024">
        <ele>101.2</ele>
        <time>2023-03-29T12:26:35Z</time>
      </trkpt>
      <trkpt lat="49.82823" lon="2.15025">
        <ele>101.2</ele>
        <time>2023-03-29T12:26:36Z</time>
      </trkpt>
      <trkpt lat="49.82824" lon="2.15025">
        <ele>101.2</ele>
        <time>2023-03-29T12:26:37Z</time>
      </trkpt>
      <trkpt lat="49.82824" lon="2.15026">
        <ele>101.2</ele>
        <time>2023-03-29T12:26:38Z</time>
      </trkpt>
      <trkpt lat="49.82824" lon="2.15027">
        <ele>101.2</ele>
        <time>2023-03-29T12:26:39Z</time>
      </trkpt>
      <trkpt lat="49.82825" lon="2.15029">
        <ele>101.2</ele>
        <time>2023-03-29T12:26:40Z</time>
      </trkpt>
      <trkpt lat="49.82826" lon="2.1503">
        <ele>101.2</ele>
        <time>2023-03-29T12:26:42Z</time>
      </trkpt>
      <trkpt lat="49.82826" lon="2.15031">
        <ele>101.2</ele>
        <time>2023-03-29T12:26:43Z</time>
      </trkpt>
      <trkpt lat="49.82826" lon="2.15033">
        <ele>101.2</ele>
        <time>2023-03-29T12:26:44Z</time>
      </trkpt>
      <trkpt lat="49.82825" lon="2.15035">
        <ele>101.2</ele>
        <time>2023-03-29T12:26:45Z</time>
      </trkpt>
      <trkpt lat="49.82826" lon="2.15036">
        <ele>101.2</ele>
        <time>2023-03-29T12:26:46Z</time>
      </trkpt>
      <trkpt lat="49.82826" lon="2.15038">
        <ele>101.1</ele>
        <time>2023-03-29T12:26:47Z</time>
      </trkpt>
      <trkpt lat="49.82826" lon="2.15039">
        <ele>101.1</ele>
        <time>2023-03-29T12:26:48Z</time>
      </trkpt>
      <trkpt lat="49.82827" lon="2.15041">
        <ele>101.1</ele>
        <time>2023-03-29T12:26:49Z</time>
      </trkpt>
      <trkpt lat="49.82828" lon="2.15043">
        <ele>101.1</ele>
        <time>2023-03-29T12:26:51Z</time>
      </trkpt>
      <trkpt lat="49.82829" lon="2.15044">
        <ele>101.1</ele>
        <time>2023-03-29T12:26:52Z</time>
      </trkpt>
      <trkpt lat="49.8283" lon="2.15046">
        <ele>101.1</ele>
        <time>2023-03-29T12:26:53Z</time>
      </trkpt>
      <trkpt lat="49.82832" lon="2.15047">
        <ele>101.1</ele>
        <time>2023-03-29T12:26:54Z</time>
      </trkpt>
      <trkpt lat="49.82835" lon="2.1505">
        <ele>101</ele>
        <time>2023-03-29T12:26:55Z</time>
      </trkpt>
      <trkpt lat="49.82836" lon="2.15051">
        <ele>101</ele>
        <time>2023-03-29T12:26:56Z</time>
      </trkpt>
      <trkpt lat="49.82838" lon="2.15052">
        <ele>101</ele>
        <time>2023-03-29T12:26:58Z</time>
      </trkpt>
      <trkpt lat="49.82839" lon="2.15054">
        <ele>101</ele>
        <time>2023-03-29T12:26:59Z</time>
      </trkpt>
      <trkpt lat="49.82841" lon="2.15057">
        <ele>101</ele>
        <time>2023-03-29T12:27:00Z</time>
      </trkpt>
      <trkpt lat="49.82842" lon="2.15058">
        <ele>101</ele>
        <time>2023-03-29T12:27:01Z</time>
      </trkpt>
      <trkpt lat="49.82843" lon="2.1506">
        <ele>100.9</ele>
        <time>2023-03-29T12:27:02Z</time>
      </trkpt>
      <trkpt lat="49.82844" lon="2.15062">
        <ele>100.9</ele>
        <time>2023-03-29T12:27:04Z</time>
      </trkpt>
      <trkpt lat="49.82845" lon="2.15064">
        <ele>100.9</ele>
        <time>2023-03-29T12:27:05Z</time>
      </trkpt>
      <trkpt lat="49.82846" lon="2.15066">
        <ele>100.9</ele>
        <time>2023-03-29T12:27:06Z</time>
      </trkpt>
      <trkpt lat="49.82846" lon="2.15068">
        <ele>100.9</ele>
        <time>2023-03-29T12:27:07Z</time>
      </trkpt>
      <trkpt lat="49.82847" lon="2.1507">
        <ele>100.8</ele>
        <time>2023-03-29T12:27:08Z</time>
      </trkpt>
      <trkpt lat="49.82849" lon="2.15074">
        <ele>100.8</ele>
        <time>2023-03-29T12:27:10Z</time>
      </trkpt>
      <trkpt lat="49.82849" lon="2.15076">
        <ele>100.8</ele>
        <time>2023-03-29T12:27:11Z</time>
      </trkpt>
      <trkpt lat="49.8285" lon="2.15078">
        <ele>100.8</ele>
        <time>2023-03-29T12:27:12Z</time>
      </trkpt>
      <trkpt lat="49.82851" lon="2.1508">
        <ele>100.7</ele>
        <time>2023-03-29T12:27:13Z</time>
      </trkpt>
      <trkpt lat="49.82851" lon="2.15081">
        <ele>100.7</ele>
        <time>2023-03-29T12:27:14Z</time>
      </trkpt>
      <trkpt lat="49.82851" lon="2.15083">
        <ele>100.7</ele>
        <time>2023-03-29T12:27:15Z</time>
      </trkpt>
      <trkpt lat="49.82851" lon="2.15084">
        <ele>100.7</ele>
        <time>2023-03-29T12:27:17Z</time>
      </trkpt>
      <trkpt lat="49.8285" lon="2.15086">
        <ele>100.7</ele>
        <time>2023-03-29T12:27:19Z</time>
      </trkpt>
      <trkpt lat="49.82851" lon="2.15088">
        <ele>100.6</ele>
        <time>2023-03-29T12:27:20Z</time>
      </trkpt>
      <trkpt lat="49.82851" lon="2.15089">
        <ele>100.6</ele>
        <time>2023-03-29T12:27:22Z</time>
      </trkpt>
      <trkpt lat="49.82851" lon="2.15089">
        <ele>100.6</ele>
        <time>2023-03-29T12:27:23Z</time>
      </trkpt>
      <trkpt lat="49.82851" lon="2.1509">
        <ele>100.6</ele>
        <time>2023-03-29T12:27:25Z</time>
      </trkpt>
      <trkpt lat="49.82851" lon="2.1509">
        <ele>100.6</ele>
        <time>2023-03-29T12:27:26Z</time>
      </trkpt>
      <trkpt lat="49.82852" lon="2.15091">
        <ele>100.6</ele>
        <time>2023-03-29T12:27:28Z</time>
      </trkpt>
      <trkpt lat="49.82852" lon="2.15091">
        <ele>100.6</ele>
        <time>2023-03-29T12:27:29Z</time>
      </trkpt>
      <trkpt lat="49.82852" lon="2.1509">
        <ele>100.6</ele>
        <time>2023-03-29T12:27:30Z</time>
      </trkpt>
      <trkpt lat="49.82852" lon="2.1509">
        <ele>100.6</ele>
        <time>2023-03-29T12:27:32Z</time>
      </trkpt>
      <trkpt lat="49.82852" lon="2.1509">
        <ele>100.6</ele>
        <time>2023-03-29T12:27:33Z</time>
      </trkpt>
      <trkpt lat="49.82852" lon="2.1509">
        <ele>100.6</ele>
        <time>2023-03-29T12:27:34Z</time>
      </trkpt>
      <trkpt lat="49.82853" lon="2.1509">
        <ele>100.6</ele>
        <time>2023-03-29T12:27:36Z</time>
      </trkpt>
      <trkpt lat="49.82853" lon="2.1509">
        <ele>100.6</ele>
        <time>2023-03-29T12:27:37Z</time>
      </trkpt>
      <trkpt lat="49.82854" lon="2.15089">
        <ele>100.5</ele>
        <time>2023-03-29T12:27:38Z</time>
      </trkpt>
      <trkpt lat="49.82855" lon="2.15088">
        <ele>100.5</ele>
        <time>2023-03-29T12:27:39Z</time>
      </trkpt>
      <trkpt lat="49.82855" lon="2.15087">
        <ele>100.5</ele>
        <time>2023-03-29T12:27:40Z</time>
      </trkpt>
      <trkpt lat="49.82856" lon="2.15088">
        <ele>100.5</ele>
        <time>2023-03-29T12:27:41Z</time>
      </trkpt>
      <trkpt lat="49.82857" lon="2.15088">
        <ele>100.5</ele>
        <time>2023-03-29T12:27:42Z</time>
      </trkpt>
      <trkpt lat="49.82857" lon="2.15089">
        <ele>100.5</ele>
        <time>2023-03-29T12:27:44Z</time>
      </trkpt>
      <trkpt lat="49.82857" lon="2.15091">
        <ele>100.4</ele>
        <time>2023-03-29T12:27:45Z</time>
      </trkpt>
      <trkpt lat="49.82857" lon="2.15092">
        <ele>100.4</ele>
        <time>2023-03-29T12:27:46Z</time>
      </trkpt>
      <trkpt lat="49.82858" lon="2.15094">
        <ele>100.4</ele>
        <time>2023-03-29T12:27:47Z</time>
      </trkpt>
      <trkpt lat="49.82859" lon="2.15096">
        <ele>100.4</ele>
        <time>2023-03-29T12:27:48Z</time>
      </trkpt>
      <trkpt lat="49.82861" lon="2.15098">
        <ele>100.3</ele>
        <time>2023-03-29T12:27:49Z</time>
      </trkpt>
      <trkpt lat="49.82862" lon="2.151">
        <ele>100.3</ele>
        <time>2023-03-29T12:27:51Z</time>
      </trkpt>
      <trkpt lat="49.82865" lon="2.15103">
        <ele>100.3</ele>
        <time>2023-03-29T12:27:52Z</time>
      </trkpt>
      <trkpt lat="49.82865" lon="2.15104">
        <ele>100.3</ele>
        <time>2023-03-29T12:27:53Z</time>
      </trkpt>
      <trkpt lat="49.82868" lon="2.15108">
        <ele>100.2</ele>
        <time>2023-03-29T12:27:54Z</time>
      </trkpt>
      <trkpt lat="49.82869" lon="2.1511">
        <ele>100.2</ele>
        <time>2023-03-29T12:27:55Z</time>
      </trkpt>
      <trkpt lat="49.82871" lon="2.15113">
        <ele>100.1</ele>
        <time>2023-03-29T12:27:56Z</time>
      </trkpt>
      <trkpt lat="49.82871" lon="2.15114">
        <ele>100.1</ele>
        <time>2023-03-29T12:27:57Z</time>
      </trkpt>
      <trkpt lat="49.82872" lon="2.15116">
        <ele>100.1</ele>
        <time>2023-03-29T12:27:58Z</time>
      </trkpt>
      <trkpt lat="49.82873" lon="2.15118">
        <ele>100.1</ele>
        <time>2023-03-29T12:28:00Z</time>
      </trkpt>
      <trkpt lat="49.82874" lon="2.15121">
        <ele>100</ele>
        <time>2023-03-29T12:28:01Z</time>
      </trkpt>
      <trkpt lat="49.82875" lon="2.15123">
        <ele>100</ele>
        <time>2023-03-29T12:28:03Z</time>
      </trkpt>
      <trkpt lat="49.82875" lon="2.15125">
        <ele>100</ele>
        <time>2023-03-29T12:28:04Z</time>
      </trkpt>
      <trkpt lat="49.82876" lon="2.15127">
        <ele>100</ele>
        <time>2023-03-29T12:28:05Z</time>
      </trkpt>
      <trkpt lat="49.82877" lon="2.1513">
        <ele>99.9</ele>
        <time>2023-03-29T12:28:06Z</time>
      </trkpt>
      <trkpt lat="49.82878" lon="2.15133">
        <ele>99.9</ele>
        <time>2023-03-29T12:28:08Z</time>
      </trkpt>
      <trkpt lat="49.8288" lon="2.15137">
        <ele>99.8</ele>
        <time>2023-03-29T12:28:09Z</time>
      </trkpt>
      <trkpt lat="49.8288" lon="2.15138">
        <ele>99.8</ele>
        <time>2023-03-29T12:28:10Z</time>
      </trkpt>
      <trkpt lat="49.82881" lon="2.15142">
        <ele>99.8</ele>
        <time>2023-03-29T12:28:11Z</time>
      </trkpt>
      <trkpt lat="49.82882" lon="2.15144">
        <ele>99.7</ele>
        <time>2023-03-29T12:28:12Z</time>
      </trkpt>
      <trkpt lat="49.82883" lon="2.15146">
        <ele>99.7</ele>
        <time>2023-03-29T12:28:13Z</time>
      </trkpt>
      <trkpt lat="49.82884" lon="2.15148">
        <ele>99.7</ele>
        <time>2023-03-29T12:28:15Z</time>
      </trkpt>
      <trkpt lat="49.82885" lon="2.1515">
        <ele>99.6</ele>
        <time>2023-03-29T12:28:16Z</time>
      </trkpt>
      <trkpt lat="49.82885" lon="2.15152">
        <ele>99.6</ele>
        <time>2023-03-29T12:28:17Z</time>
      </trkpt>
      <trkpt lat="49.82886" lon="2.15154">
        <ele>99.6</ele>
        <time>2023-03-29T12:28:18Z</time>
      </trkpt>
      <trkpt lat="49.82887" lon="2.15156">
        <ele>99.6</ele>
        <time>2023-03-29T12:28:19Z</time>
      </trkpt>
      <trkpt lat="49.82887" lon="2.15157">
        <ele>99.6</ele>
        <time>2023-03-29T12:28:20Z</time>
      </trkpt>
      <trkpt lat="49.82886" lon="2.15157">
        <ele>99.5</ele>
        <time>2023-03-29T12:28:21Z</time>
      </trkpt>
      <trkpt lat="49.82886" lon="2.15158">
        <ele>99.5</ele>
        <time>2023-03-29T12:28:22Z</time>
      </trkpt>
      <trkpt lat="49.82886" lon="2.15159">
        <ele>99.5</ele>
        <time>2023-03-29T12:28:23Z</time>
      </trkpt>
      <trkpt lat="49.82886" lon="2.15161">
        <ele>99.5</ele>
        <time>2023-03-29T12:28:24Z</time>
      </trkpt>
      <trkpt lat="49.82886" lon="2.15163">
        <ele>99.5</ele>
        <time>2023-03-29T12:28:25Z</time>
      </trkpt>
      <trkpt lat="49.82887" lon="2.15165">
        <ele>99.5</ele>
        <time>2023-03-29T12:28:26Z</time>
      </trkpt>
      <trkpt lat="49.82888" lon="2.15167">
        <ele>99.4</ele>
        <time>2023-03-29T12:28:28Z</time>
      </trkpt>
      <trkpt lat="49.82888" lon="2.15169">
        <ele>99.4</ele>
        <time>2023-03-29T12:28:29Z</time>
      </trkpt>
      <trkpt lat="49.82889" lon="2.15171">
        <ele>99.4</ele>
        <time>2023-03-29T12:28:30Z</time>
      </trkpt>
      <trkpt lat="49.8289" lon="2.15172">
        <ele>99.4</ele>
        <time>2023-03-29T12:28:31Z</time>
      </trkpt>
      <trkpt lat="49.8289" lon="2.15174">
        <ele>99.3</ele>
        <time>2023-03-29T12:28:32Z</time>
      </trkpt>
      <trkpt lat="49.82891" lon="2.15176">
        <ele>99.3</ele>
        <time>2023-03-29T12:28:34Z</time>
      </trkpt>
      <trkpt lat="49.82891" lon="2.15177">
        <ele>99.3</ele>
        <time>2023-03-29T12:28:35Z</time>
      </trkpt>
      <trkpt lat="49.82891" lon="2.15178">
        <ele>99.3</ele>
        <time>2023-03-29T12:28:36Z</time>
      </trkpt>
      <trkpt lat="49.82892" lon="2.15179">
        <ele>99.3</ele>
        <time>2023-03-29T12:28:37Z</time>
      </trkpt>
      <trkpt lat="49.82892" lon="2.1518">
        <ele>99.2</ele>
        <time>2023-03-29T12:28:38Z</time>
      </trkpt>
      <trkpt lat="49.82892" lon="2.1518">
        <ele>99.2</ele>
        <time>2023-03-29T12:28:39Z</time>
      </trkpt>
      <trkpt lat="49.82893" lon="2.1518">
        <ele>99.2</ele>
        <time>2023-03-29T12:28:40Z</time>
      </trkpt>
      <trkpt lat="49.82893" lon="2.1518">
        <ele>99.2</ele>
        <time>2023-03-29T12:28:41Z</time>
      </trkpt>
      <trkpt lat="49.82893" lon="2.1518">
        <ele>99.2</ele>
        <time>2023-03-29T12:28:42Z</time>
      </trkpt>
      <trkpt lat="49.82893" lon="2.15181">
        <ele>99.2</ele>
        <time>2023-03-29T12:28:44Z</time>
      </trkpt>
      <trkpt lat="49.82893" lon="2.15181">
        <ele>99.2</ele>
        <time>2023-03-29T12:28:45Z</time>
      </trkpt>
      <trkpt lat="49.82893" lon="2.15182">
        <ele>99.2</ele>
        <time>2023-03-29T12:28:46Z</time>
      </trkpt>
      <trkpt lat="49.82893" lon="2.15183">
        <ele>99.2</ele>
        <time>2023-03-29T12:28:47Z</time>
      </trkpt>
      <trkpt lat="49.82894" lon="2.15184">
        <ele>99.2</ele>
        <time>2023-03-29T12:28:48Z</time>
      </trkpt>
      <trkpt lat="49.82894" lon="2.15185">
        <ele>99.2</ele>
        <time>2023-03-29T12:28:49Z</time>
      </trkpt>
      <trkpt lat="49.82895" lon="2.15186">
        <ele>99.1</ele>
        <time>2023-03-29T12:28:50Z</time>
      </trkpt>
      <trkpt lat="49.82895" lon="2.15187">
        <ele>99.1</ele>
        <time>2023-03-29T12:28:51Z</time>
      </trkpt>
      <trkpt lat="49.82895" lon="2.1519">
        <ele>99.1</ele>
        <time>2023-03-29T12:28:53Z</time>
      </trkpt>
      <trkpt lat="49.82896" lon="2.15191">
        <ele>99.1</ele>
        <time>2023-03-29T12:28:54Z</time>
      </trkpt>
      <trkpt lat="49.82897" lon="2.15192">
        <ele>99.1</ele>
        <time>2023-03-29T12:28:56Z</time>
      </trkpt>
      <trkpt lat="49.82897" lon="2.15194">
        <ele>99.1</ele>
        <time>2023-03-29T12:28:57Z</time>
      </trkpt>
      <trkpt lat="49.82898" lon="2.15195">
        <ele>99</ele>
        <time>2023-03-29T12:28:58Z</time>
      </trkpt>
      <trkpt lat="49.82899" lon="2.15196">
        <ele>99</ele>
        <time>2023-03-29T12:28:59Z</time>
      </trkpt>
      <trkpt lat="49.82899" lon="2.15197">
        <ele>99</ele>
        <time>2023-03-29T12:29:00Z</time>
      </trkpt>
      <trkpt lat="49.82899" lon="2.15198">
        <ele>99</ele>
        <time>2023-03-29T12:29:01Z</time>
      </trkpt>
      <trkpt lat="49.829" lon="2.15199">
        <ele>99</ele>
        <time>2023-03-29T12:29:02Z</time>
      </trkpt>
      <trkpt lat="49.82901" lon="2.15201">
        <ele>99</ele>
        <time>2023-03-29T12:29:04Z</time>
      </trkpt>
      <trkpt lat="49.82901" lon="2.15202">
        <ele>99</ele>
        <time>2023-03-29T12:29:05Z</time>
      </trkpt>
      <trkpt lat="49.82902" lon="2.15202">
        <ele>99</ele>
        <time>2023-03-29T12:29:06Z</time>
      </trkpt>
      <trkpt lat="49.82903" lon="2.15204">
        <ele>98.9</ele>
        <time>2023-03-29T12:29:07Z</time>
      </trkpt>
      <trkpt lat="49.82904" lon="2.15205">
        <ele>98.9</ele>
        <time>2023-03-29T12:29:08Z</time>
      </trkpt>
      <trkpt lat="49.82905" lon="2.15207">
        <ele>98.9</ele>
        <time>2023-03-29T12:29:09Z</time>
      </trkpt>
      <trkpt lat="49.82906" lon="2.15209">
        <ele>98.9</ele>
        <time>2023-03-29T12:29:10Z</time>
      </trkpt>
      <trkpt lat="49.82907" lon="2.15211">
        <ele>98.8</ele>
        <time>2023-03-29T12:29:12Z</time>
      </trkpt>
      <trkpt lat="49.82908" lon="2.15212">
        <ele>98.8</ele>
        <time>2023-03-29T12:29:13Z</time>
      </trkpt>
      <trkpt lat="49.82909" lon="2.15214">
        <ele>98.8</ele>
        <time>2023-03-29T12:29:14Z</time>
      </trkpt>
      <trkpt lat="49.8291" lon="2.15216">
        <ele>98.8</ele>
        <time>2023-03-29T12:29:15Z</time>
      </trkpt>
      <trkpt lat="49.82912" lon="2.1522">
        <ele>98.7</ele>
        <time>2023-03-29T12:29:16Z</time>
      </trkpt>
      <trkpt lat="49.82913" lon="2.15222">
        <ele>98.7</ele>
        <time>2023-03-29T12:29:17Z</time>
      </trkpt>
      <trkpt lat="49.82915" lon="2.15226">
        <ele>98.6</ele>
        <time>2023-03-29T12:29:19Z</time>
      </trkpt>
      <trkpt lat="49.82916" lon="2.15227">
        <ele>98.6</ele>
        <time>2023-03-29T12:29:20Z</time>
      </trkpt>
      <trkpt lat="49.82917" lon="2.15232">
        <ele>98.6</ele>
        <time>2023-03-29T12:29:21Z</time>
      </trkpt>
      <trkpt lat="49.82918" lon="2.15233">
        <ele>98.6</ele>
        <time>2023-03-29T12:29:22Z</time>
      </trkpt>
      <trkpt lat="49.8292" lon="2.15237">
        <ele>98.5</ele>
        <time>2023-03-29T12:29:23Z</time>
      </trkpt>
      <trkpt lat="49.8292" lon="2.15239">
        <ele>98.5</ele>
        <time>2023-03-29T12:29:24Z</time>
      </trkpt>
      <trkpt lat="49.82922" lon="2.15241">
        <ele>98.4</ele>
        <time>2023-03-29T12:29:26Z</time>
      </trkpt>
      <trkpt lat="49.82922" lon="2.15242">
        <ele>98.4</ele>
        <time>2023-03-29T12:29:27Z</time>
      </trkpt>
      <trkpt lat="49.82923" lon="2.15243">
        <ele>98.4</ele>
        <time>2023-03-29T12:29:28Z</time>
      </trkpt>
      <trkpt lat="49.82924" lon="2.15245">
        <ele>98.4</ele>
        <time>2023-03-29T12:29:29Z</time>
      </trkpt>
      <trkpt lat="49.82925" lon="2.15247">
        <ele>98.4</ele>
        <time>2023-03-29T12:29:30Z</time>
      </trkpt>
      <trkpt lat="49.82927" lon="2.15249">
        <ele>98.3</ele>
        <time>2023-03-29T12:29:31Z</time>
      </trkpt>
      <trkpt lat="49.82928" lon="2.1525">
        <ele>98.3</ele>
        <time>2023-03-29T12:29:32Z</time>
      </trkpt>
      <trkpt lat="49.82928" lon="2.15252">
        <ele>98.3</ele>
        <time>2023-03-29T12:29:33Z</time>
      </trkpt>
      <trkpt lat="49.82929" lon="2.15253">
        <ele>98.2</ele>
        <time>2023-03-29T12:29:35Z</time>
      </trkpt>
      <trkpt lat="49.8293" lon="2.15254">
        <ele>98.2</ele>
        <time>2023-03-29T12:29:36Z</time>
      </trkpt>
      <trkpt lat="49.82931" lon="2.15255">
        <ele>98.2</ele>
        <time>2023-03-29T12:29:37Z</time>
      </trkpt>
      <trkpt lat="49.82932" lon="2.15256">
        <ele>98.2</ele>
        <time>2023-03-29T12:29:38Z</time>
      </trkpt>
      <trkpt lat="49.82933" lon="2.15257">
        <ele>98.2</ele>
        <time>2023-03-29T12:29:39Z</time>
      </trkpt>
      <trkpt lat="49.82934" lon="2.15259">
        <ele>98.2</ele>
        <time>2023-03-29T12:29:40Z</time>
      </trkpt>
      <trkpt lat="49.82935" lon="2.1526">
        <ele>98.2</ele>
        <time>2023-03-29T12:29:42Z</time>
      </trkpt>
      <trkpt lat="49.82937" lon="2.15263">
        <ele>97.7</ele>
        <time>2023-03-29T12:29:43Z</time>
      </trkpt>
      <trkpt lat="49.82938" lon="2.15263">
        <ele>97.6</ele>
        <time>2023-03-29T12:29:44Z</time>
      </trkpt>
      <trkpt lat="49.82939" lon="2.15264">
        <ele>97.6</ele>
        <time>2023-03-29T12:29:45Z</time>
      </trkpt>
      <trkpt lat="49.8294" lon="2.15266">
        <ele>97.6</ele>
        <time>2023-03-29T12:29:46Z</time>
      </trkpt>
      <trkpt lat="49.82941" lon="2.15267">
        <ele>97.6</ele>
        <time>2023-03-29T12:29:47Z</time>
      </trkpt>
      <trkpt lat="49.82942" lon="2.15268">
        <ele>97.6</ele>
        <time>2023-03-29T12:29:48Z</time>
      </trkpt>
      <trkpt lat="49.82943" lon="2.15269">
        <ele>97.5</ele>
        <time>2023-03-29T12:29:50Z</time>
      </trkpt>
      <trkpt lat="49.82944" lon="2.1527">
        <ele>97.5</ele>
        <time>2023-03-29T12:29:51Z</time>
      </trkpt>
      <trkpt lat="49.82944" lon="2.1527">
        <ele>97.5</ele>
        <time>2023-03-29T12:29:52Z</time>
      </trkpt>
      <trkpt lat="49.82945" lon="2.15271">
        <ele>97.5</ele>
        <time>2023-03-29T12:29:54Z</time>
      </trkpt>
      <trkpt lat="49.82947" lon="2.15272">
        <ele>97.5</ele>
        <time>2023-03-29T12:29:55Z</time>
      </trkpt>
      <trkpt lat="49.82947" lon="2.15273">
        <ele>97.5</ele>
        <time>2023-03-29T12:29:56Z</time>
      </trkpt>
      <trkpt lat="49.82948" lon="2.15274">
        <ele>97.4</ele>
        <time>2023-03-29T12:29:57Z</time>
      </trkpt>
      <trkpt lat="49.82949" lon="2.15276">
        <ele>97.4</ele>
        <time>2023-03-29T12:29:58Z</time>
      </trkpt>
      <trkpt lat="49.82951" lon="2.15278">
        <ele>97.4</ele>
        <time>2023-03-29T12:29:59Z</time>
      </trkpt>
      <trkpt lat="49.82951" lon="2.15279">
        <ele>97.4</ele>
        <time>2023-03-29T12:30:01Z</time>
      </trkpt>
      <trkpt lat="49.82952" lon="2.1528">
        <ele>97.3</ele>
        <time>2023-03-29T12:30:02Z</time>
      </trkpt>
      <trkpt lat="49.82953" lon="2.15281">
        <ele>97.3</ele>
        <time>2023-03-29T12:30:03Z</time>
      </trkpt>
      <trkpt lat="49.82954" lon="2.15283">
        <ele>97.3</ele>
        <time>2023-03-29T12:30:04Z</time>
      </trkpt>
      <trkpt lat="49.82955" lon="2.15284">
        <ele>97.3</ele>
        <time>2023-03-29T12:30:06Z</time>
      </trkpt>
      <trkpt lat="49.82956" lon="2.15285">
        <ele>97.3</ele>
        <time>2023-03-29T12:30:07Z</time>
      </trkpt>
      <trkpt lat="49.82957" lon="2.15286">
        <ele>97.2</ele>
        <time>2023-03-29T12:30:08Z</time>
      </trkpt>
      <trkpt lat="49.82958" lon="2.15287">
        <ele>97.2</ele>
        <time>2023-03-29T12:30:09Z</time>
      </trkpt>
      <trkpt lat="49.82958" lon="2.15289">
        <ele>97.2</ele>
        <time>2023-03-29T12:30:10Z</time>
      </trkpt>
      <trkpt lat="49.82959" lon="2.1529">
        <ele>97.2</ele>
        <time>2023-03-29T12:30:11Z</time>
      </trkpt>
      <trkpt lat="49.82959" lon="2.1529">
        <ele>97.2</ele>
        <time>2023-03-29T12:30:12Z</time>
      </trkpt>
      <trkpt lat="49.82959" lon="2.15291">
        <ele>97.2</ele>
        <time>2023-03-29T12:30:13Z</time>
      </trkpt>
      <trkpt lat="49.82959" lon="2.15291">
        <ele>97.2</ele>
        <time>2023-03-29T12:30:14Z</time>
      </trkpt>
      <trkpt lat="49.82959" lon="2.15292">
        <ele>97.2</ele>
        <time>2023-03-29T12:30:16Z</time>
      </trkpt>
      <trkpt lat="49.8296" lon="2.15293">
        <ele>97.2</ele>
        <time>2023-03-29T12:30:17Z</time>
      </trkpt>
      <trkpt lat="49.8296" lon="2.15293">
        <ele>97.1</ele>
        <time>2023-03-29T12:30:18Z</time>
      </trkpt>
      <trkpt lat="49.8296" lon="2.15293">
        <ele>97.1</ele>
        <time>2023-03-29T12:30:19Z</time>
      </trkpt>
      <trkpt lat="49.8296" lon="2.15292">
        <ele>97.1</ele>
        <time>2023-03-29T12:30:20Z</time>
      </trkpt>
      <trkpt lat="49.8296" lon="2.15292">
        <ele>97.1</ele>
        <time>2023-03-29T12:30:21Z</time>
      </trkpt>
      <trkpt lat="49.8296" lon="2.15292">
        <ele>97.1</ele>
        <time>2023-03-29T12:30:22Z</time>
      </trkpt>
      <trkpt lat="49.82961" lon="2.15293">
        <ele>97.1</ele>
        <time>2023-03-29T12:30:23Z</time>
      </trkpt>
      <trkpt lat="49.82962" lon="2.15293">
        <ele>97.1</ele>
        <time>2023-03-29T12:30:25Z</time>
      </trkpt>
      <trkpt lat="49.82962" lon="2.15292">
        <ele>97.1</ele>
        <time>2023-03-29T12:30:26Z</time>
      </trkpt>
      <trkpt lat="49.82962" lon="2.15292">
        <ele>97.1</ele>
        <time>2023-03-29T12:30:27Z</time>
      </trkpt>
      <trkpt lat="49.82963" lon="2.15292">
        <ele>97.1</ele>
        <time>2023-03-29T12:30:28Z</time>
      </trkpt>
      <trkpt lat="49.82963" lon="2.15292">
        <ele>97.1</ele>
        <time>2023-03-29T12:30:29Z</time>
      </trkpt>
      <trkpt lat="49.82964" lon="2.15292">
        <ele>97.1</ele>
        <time>2023-03-29T12:30:30Z</time>
      </trkpt>
      <trkpt lat="49.82964" lon="2.15292">
        <ele>97.1</ele>
        <time>2023-03-29T12:30:31Z</time>
      </trkpt>
      <trkpt lat="49.82965" lon="2.15292">
        <ele>97.1</ele>
        <time>2023-03-29T12:30:33Z</time>
      </trkpt>
      <trkpt lat="49.82964" lon="2.15292">
        <ele>97.1</ele>
        <time>2023-03-29T12:30:34Z</time>
      </trkpt>
      <trkpt lat="49.82965" lon="2.15292">
        <ele>97</ele>
        <time>2023-03-29T12:30:35Z</time>
      </trkpt>
      <trkpt lat="49.82965" lon="2.15292">
        <ele>97</ele>
        <time>2023-03-29T12:30:36Z</time>
      </trkpt>
      <trkpt lat="49.82965" lon="2.15292">
        <ele>97</ele>
        <time>2023-03-29T12:30:37Z</time>
      </trkpt>
      <trkpt lat="49.82965" lon="2.15291">
        <ele>97</ele>
        <time>2023-03-29T12:30:38Z</time>
      </trkpt>
      <trkpt lat="49.82965" lon="2.15291">
        <ele>97</ele>
        <time>2023-03-29T12:30:39Z</time>
      </trkpt>
      <trkpt lat="49.82966" lon="2.15291">
        <ele>97</ele>
        <time>2023-03-29T12:30:40Z</time>
      </trkpt>
      <trkpt lat="49.82966" lon="2.15291">
        <ele>97</ele>
        <time>2023-03-29T12:30:41Z</time>
      </trkpt>
      <trkpt lat="49.82966" lon="2.15291">
        <ele>97</ele>
        <time>2023-03-29T12:30:42Z</time>
      </trkpt>
      <trkpt lat="49.82966" lon="2.1529">
        <ele>97</ele>
        <time>2023-03-29T12:30:44Z</time>
      </trkpt>
      <trkpt lat="49.82965" lon="2.15289">
        <ele>97</ele>
        <time>2023-03-29T12:30:45Z</time>
      </trkpt>
      <trkpt lat="49.82964" lon="2.15288">
        <ele>97</ele>
        <time>2023-03-29T12:30:46Z</time>
      </trkpt>
      <trkpt lat="49.82965" lon="2.15288">
        <ele>97</ele>
        <time>2023-03-29T12:30:47Z</time>
      </trkpt>
      <trkpt lat="49.82965" lon="2.15288">
        <ele>97</ele>
        <time>2023-03-29T12:30:48Z</time>
      </trkpt>
      <trkpt lat="49.82965" lon="2.15287">
        <ele>97</ele>
        <time>2023-03-29T12:30:49Z</time>
      </trkpt>
      <trkpt lat="49.82965" lon="2.15287">
        <ele>97</ele>
        <time>2023-03-29T12:30:51Z</time>
      </trkpt>
      <trkpt lat="49.82966" lon="2.15287">
        <ele>96.9</ele>
        <time>2023-03-29T12:30:52Z</time>
      </trkpt>
      <trkpt lat="49.82966" lon="2.15286">
        <ele>96.9</ele>
        <time>2023-03-29T12:30:53Z</time>
      </trkpt>
      <trkpt lat="49.82967" lon="2.15286">
        <ele>96.9</ele>
        <time>2023-03-29T12:30:54Z</time>
      </trkpt>
      <trkpt lat="49.82967" lon="2.15286">
        <ele>96.9</ele>
        <time>2023-03-29T12:30:55Z</time>
      </trkpt>
      <trkpt lat="49.82967" lon="2.15285">
        <ele>96.9</ele>
        <time>2023-03-29T12:30:56Z</time>
      </trkpt>
      <trkpt lat="49.82967" lon="2.15285">
        <ele>96.9</ele>
        <time>2023-03-29T12:30:58Z</time>
      </trkpt>
      <trkpt lat="49.82967" lon="2.15285">
        <ele>96.9</ele>
        <time>2023-03-29T12:30:59Z</time>
      </trkpt>
      <trkpt lat="49.82967" lon="2.15285">
        <ele>96.9</ele>
        <time>2023-03-29T12:31:00Z</time>
      </trkpt>
      <trkpt lat="49.82966" lon="2.15285">
        <ele>96.9</ele>
        <time>2023-03-29T12:31:01Z</time>
      </trkpt>
      <trkpt lat="49.82966" lon="2.15285">
        <ele>96.9</ele>
        <time>2023-03-29T12:31:02Z</time>
      </trkpt>
      <trkpt lat="49.82967" lon="2.15285">
        <ele>96.9</ele>
        <time>2023-03-29T12:31:03Z</time>
      </trkpt>
      <trkpt lat="49.82967" lon="2.15285">
        <ele>96.9</ele>
        <time>2023-03-29T12:31:04Z</time>
      </trkpt>
      <trkpt lat="49.82968" lon="2.15285">
        <ele>96.9</ele>
        <time>2023-03-29T12:31:06Z</time>
      </trkpt>
      <trkpt lat="49.82968" lon="2.15285">
        <ele>96.9</ele>
        <time>2023-03-29T12:31:07Z</time>
      </trkpt>
      <trkpt lat="49.82967" lon="2.15284">
        <ele>96.9</ele>
        <time>2023-03-29T12:31:08Z</time>
      </trkpt>
      <trkpt lat="49.82966" lon="2.15284">
        <ele>96.8</ele>
        <time>2023-03-29T12:31:09Z</time>
      </trkpt>
      <trkpt lat="49.82965" lon="2.15284">
        <ele>96.8</ele>
        <time>2023-03-29T12:31:10Z</time>
      </trkpt>
      <trkpt lat="49.82965" lon="2.15284">
        <ele>96.8</ele>
        <time>2023-03-29T12:31:11Z</time>
      </trkpt>
      <trkpt lat="49.82965" lon="2.15284">
        <ele>96.8</ele>
        <time>2023-03-29T12:31:13Z</time>
      </trkpt>
      <trkpt lat="49.82965" lon="2.15285">
        <ele>96.8</ele>
        <time>2023-03-29T12:31:14Z</time>
      </trkpt>
      <trkpt lat="49.82965" lon="2.15284">
        <ele>96.8</ele>
        <time>2023-03-29T12:31:15Z</time>
      </trkpt>
      <trkpt lat="49.82965" lon="2.15284">
        <ele>96.8</ele>
        <time>2023-03-29T12:31:16Z</time>
      </trkpt>
      <trkpt lat="49.82965" lon="2.15284">
        <ele>96.8</ele>
        <time>2023-03-29T12:31:17Z</time>
      </trkpt>
      <trkpt lat="49.82965" lon="2.15285">
        <ele>96.8</ele>
        <time>2023-03-29T12:31:18Z</time>
      </trkpt>
      <trkpt lat="49.82965" lon="2.15285">
        <ele>96.8</ele>
        <time>2023-03-29T12:31:19Z</time>
      </trkpt>
      <trkpt lat="49.82965" lon="2.15285">
        <ele>96.8</ele>
        <time>2023-03-29T12:31:20Z</time>
      </trkpt>
      <trkpt lat="49.82965" lon="2.15285">
        <ele>96.8</ele>
        <time>2023-03-29T12:31:21Z</time>
      </trkpt>
      <trkpt lat="49.82965" lon="2.15285">
        <ele>96.8</ele>
        <time>2023-03-29T12:31:22Z</time>
      </trkpt>
      <trkpt lat="49.82966" lon="2.15285">
        <ele>96.8</ele>
        <time>2023-03-29T12:31:24Z</time>
      </trkpt>
      <trkpt lat="49.82966" lon="2.15285">
        <ele>96.8</ele>
        <time>2023-03-29T12:31:25Z</time>
      </trkpt>
      <trkpt lat="49.82966" lon="2.15285">
        <ele>96.8</ele>
        <time>2023-03-29T12:31:26Z</time>
      </trkpt>
      <trkpt lat="49.82966" lon="2.15285">
        <ele>96.8</ele>
        <time>2023-03-29T12:31:27Z</time>
      </trkpt>
      <trkpt lat="49.82966" lon="2.15285">
        <ele>96.8</ele>
        <time>2023-03-29T12:31:28Z</time>
      </trkpt>
      <trkpt lat="49.82966" lon="2.15285">
        <ele>96.8</ele>
        <time>2023-03-29T12:31:29Z</time>
      </trkpt>
      <trkpt lat="49.82966" lon="2.15285">
        <ele>96.8</ele>
        <time>2023-03-29T12:31:30Z</time>
      </trkpt>
      <trkpt lat="49.82966" lon="2.15285">
        <ele>96.8</ele>
        <time>2023-03-29T12:31:31Z</time>
      </trkpt>
      <trkpt lat="49.82966" lon="2.15285">
        <ele>96.8</ele>
        <time>2023-03-29T12:31:33Z</time>
      </trkpt>
      <trkpt lat="49.82966" lon="2.15285">
        <ele>96.8</ele>
        <time>2023-03-29T12:31:34Z</time>
      </trkpt>
      <trkpt lat="49.82966" lon="2.15286">
        <ele>96.8</ele>
        <time>2023-03-29T12:31:35Z</time>
      </trkpt>
      <trkpt lat="49.82966" lon="2.15287">
        <ele>96.7</ele>
        <time>2023-03-29T12:31:36Z</time>
      </trkpt>
      <trkpt lat="49.82966" lon="2.15289">
        <ele>96.7</ele>
        <time>2023-03-29T12:31:38Z</time>
      </trkpt>
      <trkpt lat="49.82966" lon="2.1529">
        <ele>96.7</ele>
        <time>2023-03-29T12:31:39Z</time>
      </trkpt>
      <trkpt lat="49.82966" lon="2.15292">
        <ele>96.7</ele>
        <time>2023-03-29T12:31:40Z</time>
      </trkpt>
      <trkpt lat="49.82967" lon="2.15293">
        <ele>96.7</ele>
        <time>2023-03-29T12:31:41Z</time>
      </trkpt>
      <trkpt lat="49.82967" lon="2.15293">
        <ele>96.7</ele>
        <time>2023-03-29T12:31:42Z</time>
      </trkpt>
      <trkpt lat="49.82968" lon="2.15294">
        <ele>96.7</ele>
        <time>2023-03-29T12:31:43Z</time>
      </trkpt>
      <trkpt lat="49.82968" lon="2.15295">
        <ele>96.7</ele>
        <time>2023-03-29T12:31:45Z</time>
      </trkpt>
      <trkpt lat="49.82969" lon="2.15295">
        <ele>96.7</ele>
        <time>2023-03-29T12:31:46Z</time>
      </trkpt>
      <trkpt lat="49.8297" lon="2.15296">
        <ele>96.6</ele>
        <time>2023-03-29T12:31:47Z</time>
      </trkpt>
      <trkpt lat="49.8297" lon="2.15295">
        <ele>96.6</ele>
        <time>2023-03-29T12:31:48Z</time>
      </trkpt>
      <trkpt lat="49.8297" lon="2.15295">
        <ele>96.6</ele>
        <time>2023-03-29T12:31:49Z</time>
      </trkpt>
      <trkpt lat="49.82969" lon="2.15295">
        <ele>96.6</ele>
        <time>2023-03-29T12:31:51Z</time>
      </trkpt>
      <trkpt lat="49.82968" lon="2.15294">
        <ele>96.6</ele>
        <time>2023-03-29T12:31:52Z</time>
      </trkpt>
      <trkpt lat="49.82967" lon="2.15294">
        <ele>96.6</ele>
        <time>2023-03-29T12:31:53Z</time>
      </trkpt>
      <trkpt lat="49.82967" lon="2.15293">
        <ele>96.6</ele>
        <time>2023-03-29T12:31:54Z</time>
      </trkpt>
      <trkpt lat="49.82966" lon="2.15292">
        <ele>96.6</ele>
        <time>2023-03-29T12:31:55Z</time>
      </trkpt>
      <trkpt lat="49.82966" lon="2.15291">
        <ele>96.6</ele>
        <time>2023-03-29T12:31:56Z</time>
      </trkpt>
      <trkpt lat="49.82966" lon="2.15289">
        <ele>96.6</ele>
        <time>2023-03-29T12:31:57Z</time>
      </trkpt>
      <trkpt lat="49.82966" lon="2.15288">
        <ele>96.6</ele>
        <time>2023-03-29T12:31:58Z</time>
      </trkpt>
      <trkpt lat="49.82966" lon="2.15287">
        <ele>96.5</ele>
        <time>2023-03-29T12:31:59Z</time>
      </trkpt>
      <trkpt lat="49.82965" lon="2.15284">
        <ele>96.5</ele>
        <time>2023-03-29T12:32:01Z</time>
      </trkpt>
      <trkpt lat="49.82965" lon="2.15283">
        <ele>96.5</ele>
        <time>2023-03-29T12:32:02Z</time>
      </trkpt>
      <trkpt lat="49.82964" lon="2.15282">
        <ele>96.5</ele>
        <time>2023-03-29T12:32:03Z</time>
      </trkpt>
      <trkpt lat="49.82961" lon="2.15283">
        <ele>96.5</ele>
        <time>2023-03-29T12:32:04Z</time>
      </trkpt>
      <trkpt lat="49.82958" lon="2.15283">
        <ele>96.4</ele>
        <time>2023-03-29T12:32:06Z</time>
      </trkpt>
      <trkpt lat="49.82958" lon="2.15284">
        <ele>96.4</ele>
        <time>2023-03-29T12:32:07Z</time>
      </trkpt>
      <trkpt lat="49.82957" lon="2.15284">
        <ele>96.4</ele>
        <time>2023-03-29T12:32:08Z</time>
      </trkpt>
      <trkpt lat="49.82956" lon="2.15284">
        <ele>96.4</ele>
        <time>2023-03-29T12:32:09Z</time>
      </trkpt>
      <trkpt lat="49.82956" lon="2.15285">
        <ele>96.4</ele>
        <time>2023-03-29T12:32:10Z</time>
      </trkpt>
      <trkpt lat="49.82956" lon="2.15285">
        <ele>96.4</ele>
        <time>2023-03-29T12:32:11Z</time>
      </trkpt>
      <trkpt lat="49.82956" lon="2.15286">
        <ele>96.4</ele>
        <time>2023-03-29T12:32:12Z</time>
      </trkpt>
      <trkpt lat="49.82956" lon="2.15286">
        <ele>96.4</ele>
        <time>2023-03-29T12:32:13Z</time>
      </trkpt>
      <trkpt lat="49.82956" lon="2.15286">
        <ele>96.4</ele>
        <time>2023-03-29T12:32:14Z</time>
      </trkpt>
      <trkpt lat="49.82956" lon="2.15286">
        <ele>96.4</ele>
        <time>2023-03-29T12:32:15Z</time>
      </trkpt>
      <trkpt lat="49.82956" lon="2.15286">
        <ele>96.4</ele>
        <time>2023-03-29T12:32:17Z</time>
      </trkpt>
      <trkpt lat="49.82956" lon="2.15286">
        <ele>96.4</ele>
        <time>2023-03-29T12:32:18Z</time>
      </trkpt>
      <trkpt lat="49.82956" lon="2.15286">
        <ele>96.4</ele>
        <time>2023-03-29T12:32:19Z</time>
      </trkpt>
      <trkpt lat="49.82956" lon="2.15287">
        <ele>96.4</ele>
        <time>2023-03-29T12:32:20Z</time>
      </trkpt>
      <trkpt lat="49.82956" lon="2.15288">
        <ele>96.4</ele>
        <time>2023-03-29T12:32:21Z</time>
      </trkpt>
      <trkpt lat="49.82956" lon="2.15288">
        <ele>96.4</ele>
        <time>2023-03-29T12:32:22Z</time>
      </trkpt>
      <trkpt lat="49.82956" lon="2.15288">
        <ele>96.4</ele>
        <time>2023-03-29T12:32:24Z</time>
      </trkpt>
      <trkpt lat="49.82956" lon="2.15288">
        <ele>96.4</ele>
        <time>2023-03-29T12:32:26Z</time>
      </trkpt>
      <trkpt lat="49.82956" lon="2.15287">
        <ele>96.4</ele>
        <time>2023-03-29T12:32:28Z</time>
      </trkpt>
      <trkpt lat="49.82956" lon="2.15288">
        <ele>96.4</ele>
        <time>2023-03-29T12:32:29Z</time>
      </trkpt>
      <trkpt lat="49.82956" lon="2.15289">
        <ele>96.4</ele>
        <time>2023-03-29T12:32:30Z</time>
      </trkpt>
      <trkpt lat="49.82956" lon="2.15289">
        <ele>96.4</ele>
        <time>2023-03-29T12:32:31Z</time>
      </trkpt>
      <trkpt lat="49.82956" lon="2.15288">
        <ele>96.3</ele>
        <time>2023-03-29T12:32:33Z</time>
      </trkpt>
      <trkpt lat="49.82956" lon="2.15288">
        <ele>96.3</ele>
        <time>2023-03-29T12:32:34Z</time>
      </trkpt>
      <trkpt lat="49.82956" lon="2.15287">
        <ele>96.3</ele>
        <time>2023-03-29T12:32:35Z</time>
      </trkpt>
      <trkpt lat="49.82956" lon="2.15287">
        <ele>96.3</ele>
        <time>2023-03-29T12:32:36Z</time>
      </trkpt>
      <trkpt lat="49.82956" lon="2.15288">
        <ele>96.3</ele>
        <time>2023-03-29T12:32:37Z</time>
      </trkpt>
      <trkpt lat="49.82956" lon="2.15288">
        <ele>96.3</ele>
        <time>2023-03-29T12:32:39Z</time>
      </trkpt>
      <trkpt lat="49.82956" lon="2.15288">
        <ele>96.3</ele>
        <time>2023-03-29T12:32:41Z</time>
      </trkpt>
      <trkpt lat="49.82956" lon="2.15288">
        <ele>96.3</ele>
        <time>2023-03-29T12:32:42Z</time>
      </trkpt>
      <trkpt lat="49.82956" lon="2.15287">
        <ele>96.3</ele>
        <time>2023-03-29T12:32:43Z</time>
      </trkpt>
      <trkpt lat="49.82956" lon="2.15288">
        <ele>96.3</ele>
        <time>2023-03-29T12:32:44Z</time>
      </trkpt>
      <trkpt lat="49.82956" lon="2.15288">
        <ele>96.3</ele>
        <time>2023-03-29T12:32:45Z</time>
      </trkpt>
      <trkpt lat="49.82956" lon="2.15288">
        <ele>96.3</ele>
        <time>2023-03-29T12:32:46Z</time>
      </trkpt>
      <trkpt lat="49.82956" lon="2.15287">
        <ele>96.3</ele>
        <time>2023-03-29T12:32:47Z</time>
      </trkpt>
      <trkpt lat="49.82956" lon="2.15287">
        <ele>96.3</ele>
        <time>2023-03-29T12:32:49Z</time>
      </trkpt>
      <trkpt lat="49.82956" lon="2.15287">
        <ele>96.3</ele>
        <time>2023-03-29T12:32:50Z</time>
      </trkpt>
      <trkpt lat="49.82956" lon="2.15287">
        <ele>96.3</ele>
        <time>2023-03-29T12:32:51Z</time>
      </trkpt>
      <trkpt lat="49.82956" lon="2.15288">
        <ele>96.3</ele>
        <time>2023-03-29T12:32:52Z</time>
      </trkpt>
      <trkpt lat="49.82956" lon="2.15288">
        <ele>96.3</ele>
        <time>2023-03-29T12:32:53Z</time>
      </trkpt>
      <trkpt lat="49.82956" lon="2.15288">
        <ele>96.3</ele>
        <time>2023-03-29T12:32:54Z</time>
      </trkpt>
      <trkpt lat="49.82956" lon="2.15288">
        <ele>96.3</ele>
        <time>2023-03-29T12:32:55Z</time>
      </trkpt>
      <trkpt lat="49.82956" lon="2.15287">
        <ele>96.3</ele>
        <time>2023-03-29T12:32:57Z</time>
      </trkpt>
      <trkpt lat="49.82956" lon="2.15286">
        <ele>96.3</ele>
        <time>2023-03-29T12:32:58Z</time>
      </trkpt>
      <trkpt lat="49.82956" lon="2.15287">
        <ele>96.3</ele>
        <time>2023-03-29T12:32:59Z</time>
      </trkpt>
      <trkpt lat="49.82956" lon="2.15287">
        <ele>96.3</ele>
        <time>2023-03-29T12:33:01Z</time>
      </trkpt>
      <trkpt lat="49.82956" lon="2.15287">
        <ele>96.3</ele>
        <time>2023-03-29T12:33:02Z</time>
      </trkpt>
      <trkpt lat="49.82956" lon="2.15287">
        <ele>96.3</ele>
        <time>2023-03-29T12:33:03Z</time>
      </trkpt>
      <trkpt lat="49.82956" lon="2.15287">
        <ele>96.3</ele>
        <time>2023-03-29T12:33:04Z</time>
      </trkpt>
      <trkpt lat="49.82956" lon="2.15287">
        <ele>96.3</ele>
        <time>2023-03-29T12:33:05Z</time>
      </trkpt>
      <trkpt lat="49.82956" lon="2.15287">
        <ele>96.3</ele>
        <time>2023-03-29T12:33:07Z</time>
      </trkpt>
      <trkpt lat="49.82956" lon="2.15287">
        <ele>96.3</ele>
        <time>2023-03-29T12:33:08Z</time>
      </trkpt>
      <trkpt lat="49.82956" lon="2.15287">
        <ele>96.3</ele>
        <time>2023-03-29T12:33:09Z</time>
      </trkpt>
      <trkpt lat="49.82956" lon="2.15288">
        <ele>96.3</ele>
        <time>2023-03-29T12:33:10Z</time>
      </trkpt>
      <trkpt lat="49.82956" lon="2.15289">
        <ele>96.2</ele>
        <time>2023-03-29T12:33:11Z</time>
      </trkpt>
      <trkpt lat="49.82956" lon="2.1529">
        <ele>96.2</ele>
        <time>2023-03-29T12:33:12Z</time>
      </trkpt>
      <trkpt lat="49.82956" lon="2.15291">
        <ele>96.2</ele>
        <time>2023-03-29T12:33:14Z</time>
      </trkpt>
      <trkpt lat="49.82956" lon="2.15292">
        <ele>96.2</ele>
        <time>2023-03-29T12:33:15Z</time>
      </trkpt>
      <trkpt lat="49.82956" lon="2.15292">
        <ele>96.2</ele>
        <time>2023-03-29T12:33:16Z</time>
      </trkpt>
      <trkpt lat="49.82956" lon="2.15289">
        <ele>96.2</ele>
        <time>2023-03-29T12:33:17Z</time>
      </trkpt>
      <trkpt lat="49.82956" lon="2.15288">
        <ele>96.2</ele>
        <time>2023-03-29T12:33:18Z</time>
      </trkpt>
      <trkpt lat="49.82956" lon="2.15287">
        <ele>96.2</ele>
        <time>2023-03-29T12:33:19Z</time>
      </trkpt>
      <trkpt lat="49.82956" lon="2.15287">
        <ele>96.2</ele>
        <time>2023-03-29T12:33:20Z</time>
      </trkpt>
      <trkpt lat="49.82956" lon="2.15287">
        <ele>96.2</ele>
        <time>2023-03-29T12:33:22Z</time>
      </trkpt>
      <trkpt lat="49.82956" lon="2.15286">
        <ele>96.2</ele>
        <time>2023-03-29T12:33:23Z</time>
      </trkpt>
      <trkpt lat="49.82956" lon="2.15287">
        <ele>96.2</ele>
        <time>2023-03-29T12:33:24Z</time>
      </trkpt>
      <trkpt lat="49.82956" lon="2.15289">
        <ele>96.2</ele>
        <time>2023-03-29T12:33:25Z</time>
      </trkpt>
      <trkpt lat="49.82955" lon="2.15289">
        <ele>96.2</ele>
        <time>2023-03-29T12:33:27Z</time>
      </trkpt>
      <trkpt lat="49.82955" lon="2.1529">
        <ele>96.1</ele>
        <time>2023-03-29T12:33:28Z</time>
      </trkpt>
      <trkpt lat="49.82955" lon="2.1529">
        <ele>96.1</ele>
        <time>2023-03-29T12:33:29Z</time>
      </trkpt>
      <trkpt lat="49.82955" lon="2.15289">
        <ele>96.1</ele>
        <time>2023-03-29T12:33:30Z</time>
      </trkpt>
      <trkpt lat="49.82956" lon="2.15288">
        <ele>96.1</ele>
        <time>2023-03-29T12:33:31Z</time>
      </trkpt>
      <trkpt lat="49.82956" lon="2.15286">
        <ele>96.1</ele>
        <time>2023-03-29T12:33:33Z</time>
      </trkpt>
      <trkpt lat="49.82957" lon="2.15287">
        <ele>96.1</ele>
        <time>2023-03-29T12:33:35Z</time>
      </trkpt>
      <trkpt lat="49.82957" lon="2.15287">
        <ele>96.1</ele>
        <time>2023-03-29T12:33:36Z</time>
      </trkpt>
      <trkpt lat="49.82957" lon="2.15286">
        <ele>96.1</ele>
        <time>2023-03-29T12:33:37Z</time>
      </trkpt>
      <trkpt lat="49.82957" lon="2.15285">
        <ele>96.1</ele>
        <time>2023-03-29T12:33:39Z</time>
      </trkpt>
      <trkpt lat="49.82957" lon="2.15285">
        <ele>96.1</ele>
        <time>2023-03-29T12:33:40Z</time>
      </trkpt>
      <trkpt lat="49.82957" lon="2.15284">
        <ele>96.1</ele>
        <time>2023-03-29T12:33:42Z</time>
      </trkpt>
      <trkpt lat="49.82957" lon="2.15284">
        <ele>96.1</ele>
        <time>2023-03-29T12:33:43Z</time>
      </trkpt>
      <trkpt lat="49.82957" lon="2.15284">
        <ele>96.1</ele>
        <time>2023-03-29T12:33:45Z</time>
      </trkpt>
      <trkpt lat="49.82957" lon="2.15284">
        <ele>96.1</ele>
        <time>2023-03-29T12:33:46Z</time>
      </trkpt>
      <trkpt lat="49.82957" lon="2.15284">
        <ele>96.1</ele>
        <time>2023-03-29T12:33:48Z</time>
      </trkpt>
      <trkpt lat="49.82957" lon="2.15284">
        <ele>96.1</ele>
        <time>2023-03-29T12:33:49Z</time>
      </trkpt>
      <trkpt lat="49.82957" lon="2.15283">
        <ele>96.1</ele>
        <time>2023-03-29T12:33:50Z</time>
      </trkpt>
      <trkpt lat="49.82956" lon="2.15283">
        <ele>96.1</ele>
        <time>2023-03-29T12:33:52Z</time>
      </trkpt>
      <trkpt lat="49.82956" lon="2.15283">
        <ele>96.1</ele>
        <time>2023-03-29T12:33:53Z</time>
      </trkpt>
      <trkpt lat="49.82956" lon="2.15283">
        <ele>96.1</ele>
        <time>2023-03-29T12:33:54Z</time>
      </trkpt>
      <trkpt lat="49.82956" lon="2.15283">
        <ele>96.1</ele>
        <time>2023-03-29T12:33:55Z</time>
      </trkpt>
      <trkpt lat="49.82956" lon="2.15283">
        <ele>96.1</ele>
        <time>2023-03-29T12:33:56Z</time>
      </trkpt>
      <trkpt lat="49.82956" lon="2.15282">
        <ele>96.1</ele>
        <time>2023-03-29T12:33:57Z</time>
      </trkpt>
      <trkpt lat="49.82956" lon="2.15282">
        <ele>96.1</ele>
        <time>2023-03-29T12:33:58Z</time>
      </trkpt>
      <trkpt lat="49.82956" lon="2.15282">
        <ele>96.1</ele>
        <time>2023-03-29T12:33:59Z</time>
      </trkpt>
      <trkpt lat="49.82956" lon="2.15282">
        <ele>96.1</ele>
        <time>2023-03-29T12:34:00Z</time>
      </trkpt>
      <trkpt lat="49.82956" lon="2.15282">
        <ele>96.1</ele>
        <time>2023-03-29T12:34:01Z</time>
      </trkpt>
      <trkpt lat="49.82956" lon="2.15282">
        <ele>96.1</ele>
        <time>2023-03-29T12:34:02Z</time>
      </trkpt>
      <trkpt lat="49.82956" lon="2.15282">
        <ele>96.1</ele>
        <time>2023-03-29T12:34:03Z</time>
      </trkpt>
      <trkpt lat="49.82956" lon="2.15282">
        <ele>96.1</ele>
        <time>2023-03-29T12:34:04Z</time>
      </trkpt>
      <trkpt lat="49.82956" lon="2.15282">
        <ele>96.1</ele>
        <time>2023-03-29T12:34:05Z</time>
      </trkpt>
      <trkpt lat="49.82956" lon="2.15282">
        <ele>96.1</ele>
        <time>2023-03-29T12:34:06Z</time>
      </trkpt>
      <trkpt lat="49.82956" lon="2.15282">
        <ele>96.1</ele>
        <time>2023-03-29T12:34:07Z</time>
      </trkpt>
      <trkpt lat="49.82956" lon="2.15282">
        <ele>96.1</ele>
        <time>2023-03-29T12:34:08Z</time>
      </trkpt>
      <trkpt lat="49.82956" lon="2.15282">
        <ele>96.1</ele>
        <time>2023-03-29T12:34:09Z</time>
      </trkpt>
      <trkpt lat="49.82956" lon="2.15282">
        <ele>96.1</ele>
        <time>2023-03-29T12:34:10Z</time>
      </trkpt>
      <trkpt lat="49.82956" lon="2.15282">
        <ele>96.1</ele>
        <time>2023-03-29T12:34:11Z</time>
      </trkpt>
      <trkpt lat="49.82956" lon="2.15282">
        <ele>96.1</ele>
        <time>2023-03-29T12:34:12Z</time>
      </trkpt>
      <trkpt lat="49.82956" lon="2.15282">
        <ele>96.1</ele>
        <time>2023-03-29T12:34:13Z</time>
      </trkpt>
      <trkpt lat="49.82956" lon="2.15282">
        <ele>96.1</ele>
        <time>2023-03-29T12:34:14Z</time>
      </trkpt>
      <trkpt lat="49.82956" lon="2.15282">
        <ele>96.1</ele>
        <time>2023-03-29T12:34:15Z</time>
      </trkpt>
      <trkpt lat="49.82956" lon="2.15282">
        <ele>96.1</ele>
        <time>2023-03-29T12:34:16Z</time>
      </trkpt>
      <trkpt lat="49.82956" lon="2.15282">
        <ele>96.1</ele>
        <time>2023-03-29T12:34:17Z</time>
      </trkpt>
      <trkpt lat="49.82956" lon="2.15282">
        <ele>96.1</ele>
        <time>2023-03-29T12:34:18Z</time>
      </trkpt>
      <trkpt lat="49.82956" lon="2.15282">
        <ele>96.1</ele>
        <time>2023-03-29T12:34:19Z</time>
      </trkpt>
      <trkpt lat="49.82956" lon="2.15282">
        <ele>96.1</ele>
        <time>2023-03-29T12:34:20Z</time>
      </trkpt>
      <trkpt lat="49.82956" lon="2.15282">
        <ele>96.1</ele>
        <time>2023-03-29T12:34:21Z</time>
      </trkpt>
      <trkpt lat="49.82956" lon="2.15282">
        <ele>96.1</ele>
        <time>2023-03-29T12:34:22Z</time>
      </trkpt>
      <trkpt lat="49.82956" lon="2.15282">
        <ele>96.1</ele>
        <time>2023-03-29T12:34:23Z</time>
      </trkpt>
      <trkpt lat="49.82956" lon="2.15282">
        <ele>96.1</ele>
        <time>2023-03-29T12:34:24Z</time>
      </trkpt>
      <trkpt lat="49.82956" lon="2.15282">
        <ele>96.1</ele>
        <time>2023-03-29T12:34:25Z</time>
      </trkpt>
      <trkpt lat="49.82956" lon="2.15282">
        <ele>96.1</ele>
        <time>2023-03-29T12:34:26Z</time>
      </trkpt>
      <trkpt lat="49.82956" lon="2.15282">
        <ele>96.1</ele>
        <time>2023-03-29T12:34:27Z</time>
      </trkpt>
      <trkpt lat="49.82956" lon="2.15282">
        <ele>96.1</ele>
        <time>2023-03-29T12:34:28Z</time>
      </trkpt>
      <trkpt lat="49.82956" lon="2.15282">
        <ele>96.1</ele>
        <time>2023-03-29T12:34:29Z</time>
      </trkpt>
      <trkpt lat="49.82956" lon="2.15282">
        <ele>96.1</ele>
        <time>2023-03-29T12:34:30Z</time>
      </trkpt>
      <trkpt lat="49.82956" lon="2.15282">
        <ele>96.1</ele>
        <time>2023-03-29T12:34:31Z</time>
      </trkpt>
      <trkpt lat="49.82956" lon="2.15282">
        <ele>96.1</ele>
        <time>2023-03-29T12:34:32Z</time>
      </trkpt>
      <trkpt lat="49.82956" lon="2.15283">
        <ele>96.1</ele>
        <time>2023-03-29T12:34:33Z</time>
      </trkpt>
      <trkpt lat="49.82957" lon="2.15283">
        <ele>96.1</ele>
        <time>2023-03-29T12:34:34Z</time>
      </trkpt>
      <trkpt lat="49.82957" lon="2.15282">
        <ele>96</ele>
        <time>2023-03-29T12:34:35Z</time>
      </trkpt>
      <trkpt lat="49.82957" lon="2.15282">
        <ele>96</ele>
        <time>2023-03-29T12:34:36Z</time>
      </trkpt>
      <trkpt lat="49.82957" lon="2.15282">
        <ele>96</ele>
        <time>2023-03-29T12:34:37Z</time>
      </trkpt>
      <trkpt lat="49.82957" lon="2.15282">
        <ele>96</ele>
        <time>2023-03-29T12:34:38Z</time>
      </trkpt>
      <trkpt lat="49.82958" lon="2.15282">
        <ele>96</ele>
        <time>2023-03-29T12:34:39Z</time>
      </trkpt>
      <trkpt lat="49.82958" lon="2.15282">
        <ele>96</ele>
        <time>2023-03-29T12:34:40Z</time>
      </trkpt>
      <trkpt lat="49.82958" lon="2.15282">
        <ele>96</ele>
        <time>2023-03-29T12:34:41Z</time>
      </trkpt>
      <trkpt lat="49.82959" lon="2.15282">
        <ele>96</ele>
        <time>2023-03-29T12:34:42Z</time>
      </trkpt>
      <trkpt lat="49.82959" lon="2.15282">
        <ele>96</ele>
        <time>2023-03-29T12:34:43Z</time>
      </trkpt>
      <trkpt lat="49.82959" lon="2.15283">
        <ele>96</ele>
        <time>2023-03-29T12:34:44Z</time>
      </trkpt>
      <trkpt lat="49.82959" lon="2.15282">
        <ele>96</ele>
        <time>2023-03-29T12:34:45Z</time>
      </trkpt>
      <trkpt lat="49.82958" lon="2.15282">
        <ele>96</ele>
        <time>2023-03-29T12:34:47Z</time>
      </trkpt>
      <trkpt lat="49.82958" lon="2.15282">
        <ele>96</ele>
        <time>2023-03-29T12:34:48Z</time>
      </trkpt>
      <trkpt lat="49.82958" lon="2.15282">
        <ele>96</ele>
        <time>2023-03-29T12:34:49Z</time>
      </trkpt>
      <trkpt lat="49.82958" lon="2.15281">
        <ele>96</ele>
        <time>2023-03-29T12:34:51Z</time>
      </trkpt>
      <trkpt lat="49.82959" lon="2.1528">
        <ele>96</ele>
        <time>2023-03-29T12:34:52Z</time>
      </trkpt>
      <trkpt lat="49.82959" lon="2.1528">
        <ele>96</ele>
        <time>2023-03-29T12:34:53Z</time>
      </trkpt>
      <trkpt lat="49.8296" lon="2.15281">
        <ele>96</ele>
        <time>2023-03-29T12:34:54Z</time>
      </trkpt>
      <trkpt lat="49.8296" lon="2.15282">
        <ele>96</ele>
        <time>2023-03-29T12:34:56Z</time>
      </trkpt>
      <trkpt lat="49.8296" lon="2.15283">
        <ele>96</ele>
        <time>2023-03-29T12:34:57Z</time>
      </trkpt>
      <trkpt lat="49.8296" lon="2.15283">
        <ele>96</ele>
        <time>2023-03-29T12:34:58Z</time>
      </trkpt>
      <trkpt lat="49.8296" lon="2.15284">
        <ele>95.9</ele>
        <time>2023-03-29T12:35:00Z</time>
      </trkpt>
      <trkpt lat="49.8296" lon="2.15284">
        <ele>95.9</ele>
        <time>2023-03-29T12:35:01Z</time>
      </trkpt>
      <trkpt lat="49.8296" lon="2.15284">
        <ele>95.9</ele>
        <time>2023-03-29T12:35:02Z</time>
      </trkpt>
      <trkpt lat="49.8296" lon="2.15284">
        <ele>95.9</ele>
        <time>2023-03-29T12:35:03Z</time>
      </trkpt>
      <trkpt lat="49.82959" lon="2.15284">
        <ele>95.9</ele>
        <time>2023-03-29T12:35:05Z</time>
      </trkpt>
      <trkpt lat="49.8296" lon="2.15284">
        <ele>95.9</ele>
        <time>2023-03-29T12:35:06Z</time>
      </trkpt>
      <trkpt lat="49.8296" lon="2.15285">
        <ele>95.9</ele>
        <time>2023-03-29T12:35:07Z</time>
      </trkpt>
      <trkpt lat="49.82961" lon="2.15284">
        <ele>95.9</ele>
        <time>2023-03-29T12:35:08Z</time>
      </trkpt>
      <trkpt lat="49.82962" lon="2.15283">
        <ele>95.9</ele>
        <time>2023-03-29T12:35:09Z</time>
      </trkpt>
      <trkpt lat="49.82961" lon="2.15282">
        <ele>95.9</ele>
        <time>2023-03-29T12:35:10Z</time>
      </trkpt>
      <trkpt lat="49.82961" lon="2.15281">
        <ele>95.9</ele>
        <time>2023-03-29T12:35:11Z</time>
      </trkpt>
      <trkpt lat="49.82961" lon="2.1528">
        <ele>95.9</ele>
        <time>2023-03-29T12:35:13Z</time>
      </trkpt>
      <trkpt lat="49.8296" lon="2.15281">
        <ele>95.9</ele>
        <time>2023-03-29T12:35:14Z</time>
      </trkpt>
      <trkpt lat="49.8296" lon="2.15281">
        <ele>95.9</ele>
        <time>2023-03-29T12:35:15Z</time>
      </trkpt>
      <trkpt lat="49.82959" lon="2.15282">
        <ele>95.8</ele>
        <time>2023-03-29T12:35:17Z</time>
      </trkpt>
      <trkpt lat="49.82959" lon="2.15282">
        <ele>95.8</ele>
        <time>2023-03-29T12:35:18Z</time>
      </trkpt>
      <trkpt lat="49.82959" lon="2.15282">
        <ele>95.8</ele>
        <time>2023-03-29T12:35:19Z</time>
      </trkpt>
      <trkpt lat="49.82959" lon="2.15282">
        <ele>95.8</ele>
        <time>2023-03-29T12:35:21Z</time>
      </trkpt>
      <trkpt lat="49.82959" lon="2.15282">
        <ele>95.8</ele>
        <time>2023-03-29T12:35:22Z</time>
      </trkpt>
      <trkpt lat="49.8296" lon="2.15282">
        <ele>95.8</ele>
        <time>2023-03-29T12:35:23Z</time>
      </trkpt>
      <trkpt lat="49.8296" lon="2.15282">
        <ele>95.8</ele>
        <time>2023-03-29T12:35:25Z</time>
      </trkpt>
      <trkpt lat="49.8296" lon="2.15282">
        <ele>95.8</ele>
        <time>2023-03-29T12:35:27Z</time>
      </trkpt>
      <trkpt lat="49.8296" lon="2.15282">
        <ele>95.8</ele>
        <time>2023-03-29T12:35:28Z</time>
      </trkpt>
      <trkpt lat="49.8296" lon="2.15282">
        <ele>95.8</ele>
        <time>2023-03-29T12:35:30Z</time>
      </trkpt>
      <trkpt lat="49.8296" lon="2.15282">
        <ele>95.8</ele>
        <time>2023-03-29T12:35:31Z</time>
      </trkpt>
      <trkpt lat="49.8296" lon="2.15282">
        <ele>95.8</ele>
        <time>2023-03-29T12:35:32Z</time>
      </trkpt>
      <trkpt lat="49.8296" lon="2.15282">
        <ele>95.8</ele>
        <time>2023-03-29T12:35:33Z</time>
      </trkpt>
      <trkpt lat="49.8296" lon="2.15282">
        <ele>95.8</ele>
        <time>2023-03-29T12:35:34Z</time>
      </trkpt>
      <trkpt lat="49.82959" lon="2.15283">
        <ele>95.8</ele>
        <time>2023-03-29T12:35:35Z</time>
      </trkpt>
      <trkpt lat="49.8296" lon="2.15283">
        <ele>95.8</ele>
        <time>2023-03-29T12:35:36Z</time>
      </trkpt>
      <trkpt lat="49.82961" lon="2.15283">
        <ele>95.8</ele>
        <time>2023-03-29T12:35:37Z</time>
      </trkpt>
      <trkpt lat="49.82961" lon="2.15283">
        <ele>95.8</ele>
        <time>2023-03-29T12:35:38Z</time>
      </trkpt>
      <trkpt lat="49.82961" lon="2.15285">
        <ele>95.8</ele>
        <time>2023-03-29T12:35:40Z</time>
      </trkpt>
      <trkpt lat="49.82962" lon="2.15286">
        <ele>95.8</ele>
        <time>2023-03-29T12:35:41Z</time>
      </trkpt>
      <trkpt lat="49.82963" lon="2.15287">
        <ele>95.8</ele>
        <time>2023-03-29T12:35:42Z</time>
      </trkpt>
      <trkpt lat="49.82964" lon="2.15288">
        <ele>95.7</ele>
        <time>2023-03-29T12:35:43Z</time>
      </trkpt>
      <trkpt lat="49.82965" lon="2.1529">
        <ele>95.7</ele>
        <time>2023-03-29T12:35:44Z</time>
      </trkpt>
      <trkpt lat="49.82965" lon="2.15291">
        <ele>95.7</ele>
        <time>2023-03-29T12:35:46Z</time>
      </trkpt>
      <trkpt lat="49.82965" lon="2.15292">
        <ele>95.7</ele>
        <time>2023-03-29T12:35:47Z</time>
      </trkpt>
      <trkpt lat="49.82966" lon="2.15293">
        <ele>95.7</ele>
        <time>2023-03-29T12:35:48Z</time>
      </trkpt>
      <trkpt lat="49.82967" lon="2.15294">
        <ele>95.7</ele>
        <time>2023-03-29T12:35:49Z</time>
      </trkpt>
      <trkpt lat="49.82967" lon="2.15293">
        <ele>95.7</ele>
        <time>2023-03-29T12:35:50Z</time>
      </trkpt>
      <trkpt lat="49.82966" lon="2.15293">
        <ele>95.7</ele>
        <time>2023-03-29T12:35:51Z</time>
      </trkpt>
      <trkpt lat="49.82966" lon="2.15293">
        <ele>95.7</ele>
        <time>2023-03-29T12:35:52Z</time>
      </trkpt>
      <trkpt lat="49.82965" lon="2.15293">
        <ele>95.7</ele>
        <time>2023-03-29T12:35:53Z</time>
      </trkpt>
      <trkpt lat="49.82965" lon="2.15294">
        <ele>95.6</ele>
        <time>2023-03-29T12:35:55Z</time>
      </trkpt>
      <trkpt lat="49.82965" lon="2.15295">
        <ele>95.6</ele>
        <time>2023-03-29T12:35:56Z</time>
      </trkpt>
      <trkpt lat="49.82964" lon="2.15296">
        <ele>95.6</ele>
        <time>2023-03-29T12:35:57Z</time>
      </trkpt>
      <trkpt lat="49.82965" lon="2.15299">
        <ele>95.6</ele>
        <time>2023-03-29T12:35:58Z</time>
      </trkpt>
      <trkpt lat="49.82965" lon="2.153">
        <ele>95.6</ele>
        <time>2023-03-29T12:35:59Z</time>
      </trkpt>
      <trkpt lat="49.82966" lon="2.15301">
        <ele>95.6</ele>
        <time>2023-03-29T12:36:00Z</time>
      </trkpt>
      <trkpt lat="49.82966" lon="2.15302">
        <ele>95.6</ele>
        <time>2023-03-29T12:36:02Z</time>
      </trkpt>
      <trkpt lat="49.82966" lon="2.15303">
        <ele>95.6</ele>
        <time>2023-03-29T12:36:03Z</time>
      </trkpt>
      <trkpt lat="49.82967" lon="2.15305">
        <ele>95.6</ele>
        <time>2023-03-29T12:36:04Z</time>
      </trkpt>
      <trkpt lat="49.82967" lon="2.15306">
        <ele>95.5</ele>
        <time>2023-03-29T12:36:05Z</time>
      </trkpt>
      <trkpt lat="49.82968" lon="2.15306">
        <ele>95.5</ele>
        <time>2023-03-29T12:36:06Z</time>
      </trkpt>
      <trkpt lat="49.82969" lon="2.15308">
        <ele>95.5</ele>
        <time>2023-03-29T12:36:07Z</time>
      </trkpt>
      <trkpt lat="49.82969" lon="2.15309">
        <ele>95.5</ele>
        <time>2023-03-29T12:36:08Z</time>
      </trkpt>
      <trkpt lat="49.8297" lon="2.15311">
        <ele>95.5</ele>
        <time>2023-03-29T12:36:09Z</time>
      </trkpt>
      <trkpt lat="49.8297" lon="2.15314">
        <ele>95.5</ele>
        <time>2023-03-29T12:36:10Z</time>
      </trkpt>
      <trkpt lat="49.82972" lon="2.15314">
        <ele>95.4</ele>
        <time>2023-03-29T12:36:12Z</time>
      </trkpt>
      <trkpt lat="49.82973" lon="2.15316">
        <ele>95.4</ele>
        <time>2023-03-29T12:36:13Z</time>
      </trkpt>
      <trkpt lat="49.82974" lon="2.15317">
        <ele>95.4</ele>
        <time>2023-03-29T12:36:14Z</time>
      </trkpt>
      <trkpt lat="49.82976" lon="2.15319">
        <ele>95.4</ele>
        <time>2023-03-29T12:36:15Z</time>
      </trkpt>
      <trkpt lat="49.82977" lon="2.15321">
        <ele>95.4</ele>
        <time>2023-03-29T12:36:16Z</time>
      </trkpt>
      <trkpt lat="49.82977" lon="2.15321">
        <ele>95.4</ele>
        <time>2023-03-29T12:36:17Z</time>
      </trkpt>
      <trkpt lat="49.82978" lon="2.15322">
        <ele>95.3</ele>
        <time>2023-03-29T12:36:18Z</time>
      </trkpt>
      <trkpt lat="49.82978" lon="2.15323">
        <ele>95.3</ele>
        <time>2023-03-29T12:36:19Z</time>
      </trkpt>
      <trkpt lat="49.82979" lon="2.15326">
        <ele>95.3</ele>
        <time>2023-03-29T12:36:20Z</time>
      </trkpt>
      <trkpt lat="49.8298" lon="2.15327">
        <ele>95.3</ele>
        <time>2023-03-29T12:36:21Z</time>
      </trkpt>
      <trkpt lat="49.8298" lon="2.15328">
        <ele>95.3</ele>
        <time>2023-03-29T12:36:23Z</time>
      </trkpt>
      <trkpt lat="49.82982" lon="2.15328">
        <ele>95.3</ele>
        <time>2023-03-29T12:36:24Z</time>
      </trkpt>
      <trkpt lat="49.82984" lon="2.15329">
        <ele>95.3</ele>
        <time>2023-03-29T12:36:25Z</time>
      </trkpt>
      <trkpt lat="49.82986" lon="2.15327">
        <ele>95.2</ele>
        <time>2023-03-29T12:36:26Z</time>
      </trkpt>
      <trkpt lat="49.82987" lon="2.15326">
        <ele>95.2</ele>
        <time>2023-03-29T12:36:27Z</time>
      </trkpt>
      <trkpt lat="49.82987" lon="2.15326">
        <ele>95.2</ele>
        <time>2023-03-29T12:36:28Z</time>
      </trkpt>
      <trkpt lat="49.82988" lon="2.15322">
        <ele>95.2</ele>
        <time>2023-03-29T12:36:29Z</time>
      </trkpt>
      <trkpt lat="49.82988" lon="2.1532">
        <ele>95.2</ele>
        <time>2023-03-29T12:36:30Z</time>
      </trkpt>
      <trkpt lat="49.82989" lon="2.15319">
        <ele>95.2</ele>
        <time>2023-03-29T12:36:31Z</time>
      </trkpt>
      <trkpt lat="49.8299" lon="2.15318">
        <ele>95.2</ele>
        <time>2023-03-29T12:36:32Z</time>
      </trkpt>
      <trkpt lat="49.82991" lon="2.15317">
        <ele>95.2</ele>
        <time>2023-03-29T12:36:33Z</time>
      </trkpt>
      <trkpt lat="49.82993" lon="2.15318">
        <ele>95.1</ele>
        <time>2023-03-29T12:36:34Z</time>
      </trkpt>
      <trkpt lat="49.82993" lon="2.15319">
        <ele>95.1</ele>
        <time>2023-03-29T12:36:36Z</time>
      </trkpt>
      <trkpt lat="49.82994" lon="2.1532">
        <ele>95.1</ele>
        <time>2023-03-29T12:36:37Z</time>
      </trkpt>
      <trkpt lat="49.82994" lon="2.15326">
        <ele>95.1</ele>
        <time>2023-03-29T12:36:38Z</time>
      </trkpt>
      <trkpt lat="49.82994" lon="2.1533">
        <ele>95.1</ele>
        <time>2023-03-29T12:36:39Z</time>
      </trkpt>
      <trkpt lat="49.82994" lon="2.15333">
        <ele>95.1</ele>
        <time>2023-03-29T12:36:40Z</time>
      </trkpt>
      <trkpt lat="49.82995" lon="2.15335">
        <ele>95</ele>
        <time>2023-03-29T12:36:41Z</time>
      </trkpt>
      <trkpt lat="49.82996" lon="2.15337">
        <ele>95</ele>
        <time>2023-03-29T12:36:43Z</time>
      </trkpt>
      <trkpt lat="49.82996" lon="2.15338">
        <ele>95</ele>
        <time>2023-03-29T12:36:44Z</time>
      </trkpt>
      <trkpt lat="49.82997" lon="2.1534">
        <ele>95</ele>
        <time>2023-03-29T12:36:45Z</time>
      </trkpt>
      <trkpt lat="49.82999" lon="2.15342">
        <ele>95</ele>
        <time>2023-03-29T12:36:46Z</time>
      </trkpt>
      <trkpt lat="49.83001" lon="2.15345">
        <ele>95</ele>
        <time>2023-03-29T12:36:47Z</time>
      </trkpt>
      <trkpt lat="49.83002" lon="2.15347">
        <ele>95</ele>
        <time>2023-03-29T12:36:48Z</time>
      </trkpt>
      <trkpt lat="49.83003" lon="2.15347">
        <ele>94.9</ele>
        <time>2023-03-29T12:36:50Z</time>
      </trkpt>
      <trkpt lat="49.83004" lon="2.15348">
        <ele>94.9</ele>
        <time>2023-03-29T12:36:51Z</time>
      </trkpt>
      <trkpt lat="49.83005" lon="2.15349">
        <ele>94.9</ele>
        <time>2023-03-29T12:36:52Z</time>
      </trkpt>
      <trkpt lat="49.83007" lon="2.1535">
        <ele>94.9</ele>
        <time>2023-03-29T12:36:53Z</time>
      </trkpt>
      <trkpt lat="49.83009" lon="2.15351">
        <ele>94.9</ele>
        <time>2023-03-29T12:36:54Z</time>
      </trkpt>
      <trkpt lat="49.8301" lon="2.15352">
        <ele>94.9</ele>
        <time>2023-03-29T12:36:55Z</time>
      </trkpt>
      <trkpt lat="49.83012" lon="2.15353">
        <ele>94.9</ele>
        <time>2023-03-29T12:36:56Z</time>
      </trkpt>
      <trkpt lat="49.83013" lon="2.15354">
        <ele>94.9</ele>
        <time>2023-03-29T12:36:57Z</time>
      </trkpt>
      <trkpt lat="49.83014" lon="2.15355">
        <ele>94.9</ele>
        <time>2023-03-29T12:36:58Z</time>
      </trkpt>
      <trkpt lat="49.83014" lon="2.15356">
        <ele>94.9</ele>
        <time>2023-03-29T12:37:00Z</time>
      </trkpt>
      <trkpt lat="49.83015" lon="2.15357">
        <ele>94.8</ele>
        <time>2023-03-29T12:37:01Z</time>
      </trkpt>
      <trkpt lat="49.83016" lon="2.15359">
        <ele>94.8</ele>
        <time>2023-03-29T12:37:02Z</time>
      </trkpt>
      <trkpt lat="49.83017" lon="2.1536">
        <ele>94.8</ele>
        <time>2023-03-29T12:37:03Z</time>
      </trkpt>
      <trkpt lat="49.83018" lon="2.15361">
        <ele>94.8</ele>
        <time>2023-03-29T12:37:04Z</time>
      </trkpt>
      <trkpt lat="49.83018" lon="2.15362">
        <ele>94.8</ele>
        <time>2023-03-29T12:37:05Z</time>
      </trkpt>
      <trkpt lat="49.83019" lon="2.15364">
        <ele>94.8</ele>
        <time>2023-03-29T12:37:06Z</time>
      </trkpt>
      <trkpt lat="49.8302" lon="2.15367">
        <ele>94.8</ele>
        <time>2023-03-29T12:37:08Z</time>
      </trkpt>
      <trkpt lat="49.83021" lon="2.15369">
        <ele>94.8</ele>
        <time>2023-03-29T12:37:09Z</time>
      </trkpt>
      <trkpt lat="49.83022" lon="2.15372">
        <ele>94.8</ele>
        <time>2023-03-29T12:37:11Z</time>
      </trkpt>
      <trkpt lat="49.83023" lon="2.15372">
        <ele>94.8</ele>
        <time>2023-03-29T12:37:12Z</time>
      </trkpt>
      <trkpt lat="49.83025" lon="2.15374">
        <ele>94.7</ele>
        <time>2023-03-29T12:37:13Z</time>
      </trkpt>
      <trkpt lat="49.83028" lon="2.15376">
        <ele>94.7</ele>
        <time>2023-03-29T12:37:14Z</time>
      </trkpt>
      <trkpt lat="49.83029" lon="2.15376">
        <ele>94.7</ele>
        <time>2023-03-29T12:37:15Z</time>
      </trkpt>
      <trkpt lat="49.83031" lon="2.15377">
        <ele>94.7</ele>
        <time>2023-03-29T12:37:16Z</time>
      </trkpt>
      <trkpt lat="49.83032" lon="2.15378">
        <ele>94.7</ele>
        <time>2023-03-29T12:37:17Z</time>
      </trkpt>
      <trkpt lat="49.83034" lon="2.15379">
        <ele>94.7</ele>
        <time>2023-03-29T12:37:18Z</time>
      </trkpt>
      <trkpt lat="49.83035" lon="2.1538">
        <ele>94.7</ele>
        <time>2023-03-29T12:37:19Z</time>
      </trkpt>
      <trkpt lat="49.83035" lon="2.1538">
        <ele>94.7</ele>
        <time>2023-03-29T12:37:20Z</time>
      </trkpt>
      <trkpt lat="49.83038" lon="2.15382">
        <ele>94.6</ele>
        <time>2023-03-29T12:37:21Z</time>
      </trkpt>
      <trkpt lat="49.83039" lon="2.15383">
        <ele>94.6</ele>
        <time>2023-03-29T12:37:23Z</time>
      </trkpt>
      <trkpt lat="49.8304" lon="2.15384">
        <ele>94.6</ele>
        <time>2023-03-29T12:37:24Z</time>
      </trkpt>
      <trkpt lat="49.83042" lon="2.15384">
        <ele>94.6</ele>
        <time>2023-03-29T12:37:25Z</time>
      </trkpt>
      <trkpt lat="49.83042" lon="2.15384">
        <ele>94.6</ele>
        <time>2023-03-29T12:37:26Z</time>
      </trkpt>
      <trkpt lat="49.83043" lon="2.15385">
        <ele>94.6</ele>
        <time>2023-03-29T12:37:28Z</time>
      </trkpt>
      <trkpt lat="49.83044" lon="2.15386">
        <ele>94.6</ele>
        <time>2023-03-29T12:37:29Z</time>
      </trkpt>
      <trkpt lat="49.83046" lon="2.15387">
        <ele>94.6</ele>
        <time>2023-03-29T12:37:30Z</time>
      </trkpt>
      <trkpt lat="49.83046" lon="2.15388">
        <ele>94.6</ele>
        <time>2023-03-29T12:37:31Z</time>
      </trkpt>
      <trkpt lat="49.83047" lon="2.15389">
        <ele>94.6</ele>
        <time>2023-03-29T12:37:32Z</time>
      </trkpt>
      <trkpt lat="49.83048" lon="2.15389">
        <ele>94.6</ele>
        <time>2023-03-29T12:37:33Z</time>
      </trkpt>
      <trkpt lat="49.8305" lon="2.15391">
        <ele>94.5</ele>
        <time>2023-03-29T12:37:35Z</time>
      </trkpt>
      <trkpt lat="49.8305" lon="2.15392">
        <ele>94.5</ele>
        <time>2023-03-29T12:37:36Z</time>
      </trkpt>
      <trkpt lat="49.83051" lon="2.15392">
        <ele>94.5</ele>
        <time>2023-03-29T12:37:37Z</time>
      </trkpt>
      <trkpt lat="49.83052" lon="2.15393">
        <ele>94.5</ele>
        <time>2023-03-29T12:37:38Z</time>
      </trkpt>
      <trkpt lat="49.83053" lon="2.15394">
        <ele>94.5</ele>
        <time>2023-03-29T12:37:39Z</time>
      </trkpt>
      <trkpt lat="49.83055" lon="2.15395">
        <ele>94.5</ele>
        <time>2023-03-29T12:37:40Z</time>
      </trkpt>
      <trkpt lat="49.83056" lon="2.15396">
        <ele>94.5</ele>
        <time>2023-03-29T12:37:41Z</time>
      </trkpt>
      <trkpt lat="49.83056" lon="2.15397">
        <ele>94.5</ele>
        <time>2023-03-29T12:37:42Z</time>
      </trkpt>
      <trkpt lat="49.83058" lon="2.15398">
        <ele>94.5</ele>
        <time>2023-03-29T12:37:43Z</time>
      </trkpt>
      <trkpt lat="49.83059" lon="2.15398">
        <ele>94.3</ele>
        <time>2023-03-29T12:37:44Z</time>
      </trkpt>
      <trkpt lat="49.83061" lon="2.15399">
        <ele>94.4</ele>
        <time>2023-03-29T12:37:45Z</time>
      </trkpt>
      <trkpt lat="49.83062" lon="2.154">
        <ele>94.3</ele>
        <time>2023-03-29T12:37:46Z</time>
      </trkpt>
      <trkpt lat="49.83064" lon="2.15401">
        <ele>94.4</ele>
        <time>2023-03-29T12:37:48Z</time>
      </trkpt>
      <trkpt lat="49.83067" lon="2.15403">
        <ele>94.3</ele>
        <time>2023-03-29T12:37:49Z</time>
      </trkpt>
      <trkpt lat="49.83068" lon="2.15403">
        <ele>94.3</ele>
        <time>2023-03-29T12:37:50Z</time>
      </trkpt>
      <trkpt lat="49.83069" lon="2.15404">
        <ele>94.3</ele>
        <time>2023-03-29T12:37:51Z</time>
      </trkpt>
      <trkpt lat="49.8307" lon="2.15405">
        <ele>94.3</ele>
        <time>2023-03-29T12:37:52Z</time>
      </trkpt>
      <trkpt lat="49.83071" lon="2.15406">
        <ele>94.4</ele>
        <time>2023-03-29T12:37:53Z</time>
      </trkpt>
      <trkpt lat="49.83073" lon="2.15407">
        <ele>94.4</ele>
        <time>2023-03-29T12:37:54Z</time>
      </trkpt>
      <trkpt lat="49.83074" lon="2.15408">
        <ele>94.4</ele>
        <time>2023-03-29T12:37:55Z</time>
      </trkpt>
      <trkpt lat="49.83075" lon="2.15408">
        <ele>94.4</ele>
        <time>2023-03-29T12:37:56Z</time>
      </trkpt>
      <trkpt lat="49.83075" lon="2.15409">
        <ele>94.5</ele>
        <time>2023-03-29T12:37:57Z</time>
      </trkpt>
      <trkpt lat="49.83075" lon="2.15409">
        <ele>94.5</ele>
        <time>2023-03-29T12:37:58Z</time>
      </trkpt>
      <trkpt lat="49.83076" lon="2.1541">
        <ele>94.6</ele>
        <time>2023-03-29T12:38:00Z</time>
      </trkpt>
      <trkpt lat="49.83077" lon="2.15411">
        <ele>94.6</ele>
        <time>2023-03-29T12:38:01Z</time>
      </trkpt>
      <trkpt lat="49.83078" lon="2.15411">
        <ele>94.7</ele>
        <time>2023-03-29T12:38:02Z</time>
      </trkpt>
      <trkpt lat="49.8308" lon="2.15413">
        <ele>94.6</ele>
        <time>2023-03-29T12:38:03Z</time>
      </trkpt>
      <trkpt lat="49.83081" lon="2.15414">
        <ele>94.8</ele>
        <time>2023-03-29T12:38:04Z</time>
      </trkpt>
      <trkpt lat="49.83081" lon="2.15414">
        <ele>94.8</ele>
        <time>2023-03-29T12:38:05Z</time>
      </trkpt>
      <trkpt lat="49.83085" lon="2.15417">
        <ele>94.6</ele>
        <time>2023-03-29T12:38:06Z</time>
      </trkpt>
      <trkpt lat="49.83086" lon="2.15418">
        <ele>94.8</ele>
        <time>2023-03-29T12:38:07Z</time>
      </trkpt>
      <trkpt lat="49.83089" lon="2.15421">
        <ele>94.8</ele>
        <time>2023-03-29T12:38:08Z</time>
      </trkpt>
      <trkpt lat="49.8309" lon="2.15422">
        <ele>94.8</ele>
        <time>2023-03-29T12:38:09Z</time>
      </trkpt>
      <trkpt lat="49.83093" lon="2.15425">
        <ele>94.8</ele>
        <time>2023-03-29T12:38:11Z</time>
      </trkpt>
      <trkpt lat="49.83094" lon="2.15426">
        <ele>94.8</ele>
        <time>2023-03-29T12:38:12Z</time>
      </trkpt>
      <trkpt lat="49.83097" lon="2.15429">
        <ele>95</ele>
        <time>2023-03-29T12:38:13Z</time>
      </trkpt>
      <trkpt lat="49.83098" lon="2.15429">
        <ele>95.1</ele>
        <time>2023-03-29T12:38:14Z</time>
      </trkpt>
      <trkpt lat="49.83099" lon="2.1543">
        <ele>95.1</ele>
        <time>2023-03-29T12:38:15Z</time>
      </trkpt>
      <trkpt lat="49.83101" lon="2.15431">
        <ele>95.3</ele>
        <time>2023-03-29T12:38:16Z</time>
      </trkpt>
      <trkpt lat="49.83103" lon="2.15432">
        <ele>95.3</ele>
        <time>2023-03-29T12:38:17Z</time>
      </trkpt>
      <trkpt lat="49.83104" lon="2.15433">
        <ele>95.3</ele>
        <time>2023-03-29T12:38:18Z</time>
      </trkpt>
      <trkpt lat="49.83106" lon="2.15434">
        <ele>95.4</ele>
        <time>2023-03-29T12:38:19Z</time>
      </trkpt>
      <trkpt lat="49.83108" lon="2.15436">
        <ele>95.6</ele>
        <time>2023-03-29T12:38:21Z</time>
      </trkpt>
      <trkpt lat="49.83111" lon="2.1544">
        <ele>95.8</ele>
        <time>2023-03-29T12:38:22Z</time>
      </trkpt>
      <trkpt lat="49.83113" lon="2.15441">
        <ele>95.8</ele>
        <time>2023-03-29T12:38:23Z</time>
      </trkpt>
      <trkpt lat="49.83115" lon="2.15444">
        <ele>96</ele>
        <time>2023-03-29T12:38:24Z</time>
      </trkpt>
      <trkpt lat="49.83115" lon="2.15445">
        <ele>96.1</ele>
        <time>2023-03-29T12:38:25Z</time>
      </trkpt>
      <trkpt lat="49.83118" lon="2.15448">
        <ele>96.4</ele>
        <time>2023-03-29T12:38:27Z</time>
      </trkpt>
      <trkpt lat="49.83119" lon="2.15449">
        <ele>96.4</ele>
        <time>2023-03-29T12:38:28Z</time>
      </trkpt>
      <trkpt lat="49.8312" lon="2.15451">
        <ele>96.5</ele>
        <time>2023-03-29T12:38:29Z</time>
      </trkpt>
      <trkpt lat="49.83121" lon="2.15452">
        <ele>96.8</ele>
        <time>2023-03-29T12:38:30Z</time>
      </trkpt>
      <trkpt lat="49.83122" lon="2.15454">
        <ele>96.9</ele>
        <time>2023-03-29T12:38:31Z</time>
      </trkpt>
      <trkpt lat="49.83124" lon="2.15454">
        <ele>96.9</ele>
        <time>2023-03-29T12:38:32Z</time>
      </trkpt>
      <trkpt lat="49.83125" lon="2.15455">
        <ele>96.9</ele>
        <time>2023-03-29T12:38:34Z</time>
      </trkpt>
      <trkpt lat="49.83127" lon="2.15457">
        <ele>97.3</ele>
        <time>2023-03-29T12:38:35Z</time>
      </trkpt>
      <trkpt lat="49.83129" lon="2.1546">
        <ele>97.3</ele>
        <time>2023-03-29T12:38:36Z</time>
      </trkpt>
      <trkpt lat="49.8313" lon="2.15461">
        <ele>97.3</ele>
        <time>2023-03-29T12:38:37Z</time>
      </trkpt>
      <trkpt lat="49.83132" lon="2.15463">
        <ele>97.7</ele>
        <time>2023-03-29T12:38:38Z</time>
      </trkpt>
      <trkpt lat="49.83133" lon="2.15464">
        <ele>97.7</ele>
        <time>2023-03-29T12:38:39Z</time>
      </trkpt>
      <trkpt lat="49.83136" lon="2.15466">
        <ele>98.1</ele>
        <time>2023-03-29T12:38:41Z</time>
      </trkpt>
      <trkpt lat="49.83137" lon="2.15467">
        <ele>98.1</ele>
        <time>2023-03-29T12:38:42Z</time>
      </trkpt>
      <trkpt lat="49.83138" lon="2.15468">
        <ele>98.1</ele>
        <time>2023-03-29T12:38:43Z</time>
      </trkpt>
      <trkpt lat="49.8314" lon="2.15469">
        <ele>98.1</ele>
        <time>2023-03-29T12:38:44Z</time>
      </trkpt>
      <trkpt lat="49.83142" lon="2.15472">
        <ele>98.4</ele>
        <time>2023-03-29T12:38:45Z</time>
      </trkpt>
      <trkpt lat="49.83143" lon="2.15472">
        <ele>98.5</ele>
        <time>2023-03-29T12:38:46Z</time>
      </trkpt>
      <trkpt lat="49.83145" lon="2.15473">
        <ele>98.5</ele>
        <time>2023-03-29T12:38:48Z</time>
      </trkpt>
      <trkpt lat="49.83146" lon="2.15474">
        <ele>98.9</ele>
        <time>2023-03-29T12:38:49Z</time>
      </trkpt>
      <trkpt lat="49.83148" lon="2.15475">
        <ele>98.9</ele>
        <time>2023-03-29T12:38:50Z</time>
      </trkpt>
      <trkpt lat="49.83149" lon="2.15476">
        <ele>98.9</ele>
        <time>2023-03-29T12:38:51Z</time>
      </trkpt>
      <trkpt lat="49.83152" lon="2.15478">
        <ele>99.2</ele>
        <time>2023-03-29T12:38:52Z</time>
      </trkpt>
      <trkpt lat="49.83153" lon="2.15479">
        <ele>99.3</ele>
        <time>2023-03-29T12:38:53Z</time>
      </trkpt>
      <trkpt lat="49.83154" lon="2.1548">
        <ele>99.2</ele>
        <time>2023-03-29T12:38:55Z</time>
      </trkpt>
      <trkpt lat="49.83156" lon="2.15481">
        <ele>99.3</ele>
        <time>2023-03-29T12:38:56Z</time>
      </trkpt>
      <trkpt lat="49.83159" lon="2.15483">
        <ele>99.6</ele>
        <time>2023-03-29T12:38:57Z</time>
      </trkpt>
      <trkpt lat="49.8316" lon="2.15484">
        <ele>99.6</ele>
        <time>2023-03-29T12:38:58Z</time>
      </trkpt>
      <trkpt lat="49.83163" lon="2.15486">
        <ele>99.5</ele>
        <time>2023-03-29T12:38:59Z</time>
      </trkpt>
      <trkpt lat="49.83164" lon="2.15486">
        <ele>99.5</ele>
        <time>2023-03-29T12:39:00Z</time>
      </trkpt>
      <trkpt lat="49.83167" lon="2.15487">
        <ele>99.8</ele>
        <time>2023-03-29T12:39:02Z</time>
      </trkpt>
      <trkpt lat="49.83168" lon="2.15487">
        <ele>99.7</ele>
        <time>2023-03-29T12:39:03Z</time>
      </trkpt>
      <trkpt lat="49.83171" lon="2.15489">
        <ele>99.6</ele>
        <time>2023-03-29T12:39:04Z</time>
      </trkpt>
      <trkpt lat="49.83171" lon="2.15489">
        <ele>99.7</ele>
        <time>2023-03-29T12:39:05Z</time>
      </trkpt>
      <trkpt lat="49.83173" lon="2.1549">
        <ele>99.6</ele>
        <time>2023-03-29T12:39:06Z</time>
      </trkpt>
      <trkpt lat="49.83175" lon="2.15491">
        <ele>100</ele>
        <time>2023-03-29T12:39:07Z</time>
      </trkpt>
      <trkpt lat="49.83177" lon="2.15493">
        <ele>100</ele>
        <time>2023-03-29T12:39:08Z</time>
      </trkpt>
      <trkpt lat="49.83178" lon="2.15494">
        <ele>100.1</ele>
        <time>2023-03-29T12:39:09Z</time>
      </trkpt>
      <trkpt lat="49.83181" lon="2.15495">
        <ele>100.4</ele>
        <time>2023-03-29T12:39:10Z</time>
      </trkpt>
      <trkpt lat="49.83182" lon="2.15496">
        <ele>100.3</ele>
        <time>2023-03-29T12:39:12Z</time>
      </trkpt>
      <trkpt lat="49.83183" lon="2.15497">
        <ele>100.4</ele>
        <time>2023-03-29T12:39:14Z</time>
      </trkpt>
      <trkpt lat="49.83185" lon="2.15498">
        <ele>100.3</ele>
        <time>2023-03-29T12:39:15Z</time>
      </trkpt>
      <trkpt lat="49.83187" lon="2.15499">
        <ele>100.2</ele>
        <time>2023-03-29T12:39:16Z</time>
      </trkpt>
      <trkpt lat="49.83188" lon="2.15498">
        <ele>100.3</ele>
        <time>2023-03-29T12:39:18Z</time>
      </trkpt>
      <trkpt lat="49.83189" lon="2.15497">
        <ele>100.4</ele>
        <time>2023-03-29T12:39:19Z</time>
      </trkpt>
      <trkpt lat="49.83189" lon="2.15496">
        <ele>100.3</ele>
        <time>2023-03-29T12:39:20Z</time>
      </trkpt>
      <trkpt lat="49.83189" lon="2.15497">
        <ele>100.3</ele>
        <time>2023-03-29T12:39:21Z</time>
      </trkpt>
      <trkpt lat="49.83189" lon="2.15497">
        <ele>100.5</ele>
        <time>2023-03-29T12:39:22Z</time>
      </trkpt>
      <trkpt lat="49.83189" lon="2.15498">
        <ele>100.6</ele>
        <time>2023-03-29T12:39:24Z</time>
      </trkpt>
      <trkpt lat="49.83187" lon="2.15496">
        <ele>100.7</ele>
        <time>2023-03-29T12:39:26Z</time>
      </trkpt>
      <trkpt lat="49.83187" lon="2.15495">
        <ele>100.4</ele>
        <time>2023-03-29T12:39:27Z</time>
      </trkpt>
      <trkpt lat="49.83187" lon="2.15493">
        <ele>100.4</ele>
        <time>2023-03-29T12:39:28Z</time>
      </trkpt>
      <trkpt lat="49.83188" lon="2.15492">
        <ele>100.5</ele>
        <time>2023-03-29T12:39:29Z</time>
      </trkpt>
      <trkpt lat="49.83188" lon="2.15492">
        <ele>100.5</ele>
        <time>2023-03-29T12:39:30Z</time>
      </trkpt>
      <trkpt lat="49.83189" lon="2.15492">
        <ele>100.6</ele>
        <time>2023-03-29T12:39:32Z</time>
      </trkpt>
      <trkpt lat="49.8319" lon="2.15492">
        <ele>100.5</ele>
        <time>2023-03-29T12:39:33Z</time>
      </trkpt>
      <trkpt lat="49.83191" lon="2.15492">
        <ele>100.6</ele>
        <time>2023-03-29T12:39:34Z</time>
      </trkpt>
      <trkpt lat="49.83194" lon="2.15493">
        <ele>100.5</ele>
        <time>2023-03-29T12:39:35Z</time>
      </trkpt>
      <trkpt lat="49.83195" lon="2.15493">
        <ele>100.4</ele>
        <time>2023-03-29T12:39:36Z</time>
      </trkpt>
      <trkpt lat="49.83198" lon="2.15496">
        <ele>100.7</ele>
        <time>2023-03-29T12:39:37Z</time>
      </trkpt>
      <trkpt lat="49.832" lon="2.15497">
        <ele>100.7</ele>
        <time>2023-03-29T12:39:39Z</time>
      </trkpt>
      <trkpt lat="49.83201" lon="2.15498">
        <ele>100.6</ele>
        <time>2023-03-29T12:39:40Z</time>
      </trkpt>
      <trkpt lat="49.83203" lon="2.15499">
        <ele>100.7</ele>
        <time>2023-03-29T12:39:41Z</time>
      </trkpt>
      <trkpt lat="49.83206" lon="2.15501">
        <ele>101</ele>
        <time>2023-03-29T12:39:42Z</time>
      </trkpt>
      <trkpt lat="49.83206" lon="2.15502">
        <ele>100.9</ele>
        <time>2023-03-29T12:39:43Z</time>
      </trkpt>
      <trkpt lat="49.83209" lon="2.15504">
        <ele>101.2</ele>
        <time>2023-03-29T12:39:44Z</time>
      </trkpt>
      <trkpt lat="49.83212" lon="2.15507">
        <ele>101.1</ele>
        <time>2023-03-29T12:39:46Z</time>
      </trkpt>
      <trkpt lat="49.83214" lon="2.15508">
        <ele>101.5</ele>
        <time>2023-03-29T12:39:47Z</time>
      </trkpt>
      <trkpt lat="49.83216" lon="2.15512">
        <ele>101.4</ele>
        <time>2023-03-29T12:39:48Z</time>
      </trkpt>
      <trkpt lat="49.83216" lon="2.15513">
        <ele>101.8</ele>
        <time>2023-03-29T12:39:49Z</time>
      </trkpt>
      <trkpt lat="49.83219" lon="2.15516">
        <ele>101.7</ele>
        <time>2023-03-29T12:39:50Z</time>
      </trkpt>
      <trkpt lat="49.8322" lon="2.15517">
        <ele>101.8</ele>
        <time>2023-03-29T12:39:51Z</time>
      </trkpt>
      <trkpt lat="49.83223" lon="2.15519">
        <ele>101.6</ele>
        <time>2023-03-29T12:39:52Z</time>
      </trkpt>
      <trkpt lat="49.83225" lon="2.1552">
        <ele>101.7</ele>
        <time>2023-03-29T12:39:53Z</time>
      </trkpt>
      <trkpt lat="49.83227" lon="2.15521">
        <ele>101.8</ele>
        <time>2023-03-29T12:39:54Z</time>
      </trkpt>
      <trkpt lat="49.8323" lon="2.15523">
        <ele>101.6</ele>
        <time>2023-03-29T12:39:56Z</time>
      </trkpt>
      <trkpt lat="49.83232" lon="2.15525">
        <ele>101.4</ele>
        <time>2023-03-29T12:39:57Z</time>
      </trkpt>
      <trkpt lat="49.83235" lon="2.15527">
        <ele>101.6</ele>
        <time>2023-03-29T12:39:58Z</time>
      </trkpt>
      <trkpt lat="49.83236" lon="2.15527">
        <ele>101.6</ele>
        <time>2023-03-29T12:39:59Z</time>
      </trkpt>
      <trkpt lat="49.83239" lon="2.15529">
        <ele>101.4</ele>
        <time>2023-03-29T12:40:00Z</time>
      </trkpt>
      <trkpt lat="49.8324" lon="2.1553">
        <ele>101.5</ele>
        <time>2023-03-29T12:40:01Z</time>
      </trkpt>
      <trkpt lat="49.83243" lon="2.15532">
        <ele>101.3</ele>
        <time>2023-03-29T12:40:02Z</time>
      </trkpt>
      <trkpt lat="49.83245" lon="2.15533">
        <ele>101</ele>
        <time>2023-03-29T12:40:03Z</time>
      </trkpt>
      <trkpt lat="49.83248" lon="2.15533">
        <ele>100.7</ele>
        <time>2023-03-29T12:40:05Z</time>
      </trkpt>
      <trkpt lat="49.83252" lon="2.15534">
        <ele>100.7</ele>
        <time>2023-03-29T12:40:06Z</time>
      </trkpt>
      <trkpt lat="49.83256" lon="2.15535">
        <ele>100.4</ele>
        <time>2023-03-29T12:40:07Z</time>
      </trkpt>
      <trkpt lat="49.83257" lon="2.15535">
        <ele>100</ele>
        <time>2023-03-29T12:40:08Z</time>
      </trkpt>
      <trkpt lat="49.8326" lon="2.15534">
        <ele>99.7</ele>
        <time>2023-03-29T12:40:09Z</time>
      </trkpt>
      <trkpt lat="49.83263" lon="2.15532">
        <ele>99.1</ele>
        <time>2023-03-29T12:40:11Z</time>
      </trkpt>
      <trkpt lat="49.83264" lon="2.15531">
        <ele>99.1</ele>
        <time>2023-03-29T12:40:12Z</time>
      </trkpt>
      <trkpt lat="49.83265" lon="2.1553">
        <ele>98.8</ele>
        <time>2023-03-29T12:40:13Z</time>
      </trkpt>
      <trkpt lat="49.83267" lon="2.1553">
        <ele>98.9</ele>
        <time>2023-03-29T12:40:14Z</time>
      </trkpt>
      <trkpt lat="49.83268" lon="2.15529">
        <ele>98.2</ele>
        <time>2023-03-29T12:40:15Z</time>
      </trkpt>
      <trkpt lat="49.8327" lon="2.15529">
        <ele>98.3</ele>
        <time>2023-03-29T12:40:16Z</time>
      </trkpt>
      <trkpt lat="49.83273" lon="2.15532">
        <ele>97.8</ele>
        <time>2023-03-29T12:40:17Z</time>
      </trkpt>
      <trkpt lat="49.83274" lon="2.15532">
        <ele>97.9</ele>
        <time>2023-03-29T12:40:18Z</time>
      </trkpt>
      <trkpt lat="49.83278" lon="2.15534">
        <ele>97.4</ele>
        <time>2023-03-29T12:40:20Z</time>
      </trkpt>
      <trkpt lat="49.83281" lon="2.15535">
        <ele>97</ele>
        <time>2023-03-29T12:40:21Z</time>
      </trkpt>
      <trkpt lat="49.83284" lon="2.15535">
        <ele>96.6</ele>
        <time>2023-03-29T12:40:22Z</time>
      </trkpt>
      <trkpt lat="49.83287" lon="2.15536">
        <ele>96.3</ele>
        <time>2023-03-29T12:40:24Z</time>
      </trkpt>
      <trkpt lat="49.8329" lon="2.15536">
        <ele>96</ele>
        <time>2023-03-29T12:40:25Z</time>
      </trkpt>
      <trkpt lat="49.83292" lon="2.15536">
        <ele>96</ele>
        <time>2023-03-29T12:40:26Z</time>
      </trkpt>
      <trkpt lat="49.83295" lon="2.15537">
        <ele>95.3</ele>
        <time>2023-03-29T12:40:27Z</time>
      </trkpt>
      <trkpt lat="49.83297" lon="2.15538">
        <ele>95.4</ele>
        <time>2023-03-29T12:40:28Z</time>
      </trkpt>
      <trkpt lat="49.833" lon="2.15539">
        <ele>95.5</ele>
        <time>2023-03-29T12:40:29Z</time>
      </trkpt>
      <trkpt lat="49.83303" lon="2.1554">
        <ele>95.1</ele>
        <time>2023-03-29T12:40:30Z</time>
      </trkpt>
      <trkpt lat="49.83306" lon="2.15541">
        <ele>94.4</ele>
        <time>2023-03-29T12:40:31Z</time>
      </trkpt>
      <trkpt lat="49.83309" lon="2.15542">
        <ele>94</ele>
        <time>2023-03-29T12:40:32Z</time>
      </trkpt>
      <trkpt lat="49.83312" lon="2.15543">
        <ele>94.2</ele>
        <time>2023-03-29T12:40:33Z</time>
      </trkpt>
      <trkpt lat="49.83315" lon="2.15544">
        <ele>93.9</ele>
        <time>2023-03-29T12:40:34Z</time>
      </trkpt>
      <trkpt lat="49.83318" lon="2.15546">
        <ele>93.6</ele>
        <time>2023-03-29T12:40:36Z</time>
      </trkpt>
      <trkpt lat="49.83322" lon="2.15547">
        <ele>93.4</ele>
        <time>2023-03-29T12:40:37Z</time>
      </trkpt>
      <trkpt lat="49.83326" lon="2.15548">
        <ele>93.3</ele>
        <time>2023-03-29T12:40:38Z</time>
      </trkpt>
      <trkpt lat="49.83329" lon="2.15549">
        <ele>93</ele>
        <time>2023-03-29T12:40:39Z</time>
      </trkpt>
      <trkpt lat="49.83332" lon="2.1555">
        <ele>92.7</ele>
        <time>2023-03-29T12:40:40Z</time>
      </trkpt>
      <trkpt lat="49.83335" lon="2.15552">
        <ele>92.9</ele>
        <time>2023-03-29T12:40:41Z</time>
      </trkpt>
      <trkpt lat="49.83338" lon="2.15553">
        <ele>92.6</ele>
        <time>2023-03-29T12:40:42Z</time>
      </trkpt>
      <trkpt lat="49.83341" lon="2.15554">
        <ele>92.3</ele>
        <time>2023-03-29T12:40:43Z</time>
      </trkpt>
      <trkpt lat="49.83344" lon="2.15555">
        <ele>92.1</ele>
        <time>2023-03-29T12:40:44Z</time>
      </trkpt>
      <trkpt lat="49.83347" lon="2.15556">
        <ele>92.3</ele>
        <time>2023-03-29T12:40:46Z</time>
      </trkpt>
      <trkpt lat="49.8335" lon="2.15557">
        <ele>91.7</ele>
        <time>2023-03-29T12:40:47Z</time>
      </trkpt>
      <trkpt lat="49.83353" lon="2.15558">
        <ele>91.4</ele>
        <time>2023-03-29T12:40:48Z</time>
      </trkpt>
      <trkpt lat="49.83357" lon="2.15559">
        <ele>91.1</ele>
        <time>2023-03-29T12:40:49Z</time>
      </trkpt>
      <trkpt lat="49.8336" lon="2.1556">
        <ele>91.2</ele>
        <time>2023-03-29T12:40:50Z</time>
      </trkpt>
      <trkpt lat="49.83363" lon="2.15561">
        <ele>90.9</ele>
        <time>2023-03-29T12:40:51Z</time>
      </trkpt>
      <trkpt lat="49.83366" lon="2.15562">
        <ele>90.6</ele>
        <time>2023-03-29T12:40:52Z</time>
      </trkpt>
      <trkpt lat="49.8337" lon="2.15563">
        <ele>90</ele>
        <time>2023-03-29T12:40:54Z</time>
      </trkpt>
      <trkpt lat="49.83374" lon="2.15564">
        <ele>90.1</ele>
        <time>2023-03-29T12:40:55Z</time>
      </trkpt>
      <trkpt lat="49.83377" lon="2.15566">
        <ele>89.8</ele>
        <time>2023-03-29T12:40:56Z</time>
      </trkpt>
      <trkpt lat="49.83381" lon="2.15567">
        <ele>89.3</ele>
        <time>2023-03-29T12:40:57Z</time>
      </trkpt>
      <trkpt lat="49.83387" lon="2.15569">
        <ele>89</ele>
        <time>2023-03-29T12:40:58Z</time>
      </trkpt>
      <trkpt lat="49.8339" lon="2.15571">
        <ele>88.7</ele>
        <time>2023-03-29T12:40:59Z</time>
      </trkpt>
      <trkpt lat="49.83394" lon="2.15572">
        <ele>88.5</ele>
        <time>2023-03-29T12:41:00Z</time>
      </trkpt>
      <trkpt lat="49.83397" lon="2.15573">
        <ele>88.2</ele>
        <time>2023-03-29T12:41:02Z</time>
      </trkpt>
      <trkpt lat="49.83401" lon="2.15574">
        <ele>88.1</ele>
        <time>2023-03-29T12:41:03Z</time>
      </trkpt>
      <trkpt lat="49.83404" lon="2.15576">
        <ele>88</ele>
        <time>2023-03-29T12:41:04Z</time>
      </trkpt>
      <trkpt lat="49.83407" lon="2.15577">
        <ele>87.9</ele>
        <time>2023-03-29T12:41:05Z</time>
      </trkpt>
      <trkpt lat="49.8341" lon="2.15578">
        <ele>87.8</ele>
        <time>2023-03-29T12:41:06Z</time>
      </trkpt>
      <trkpt lat="49.83413" lon="2.15579">
        <ele>87.7</ele>
        <time>2023-03-29T12:41:07Z</time>
      </trkpt>
      <trkpt lat="49.83418" lon="2.15581">
        <ele>87.6</ele>
        <time>2023-03-29T12:41:09Z</time>
      </trkpt>
      <trkpt lat="49.83419" lon="2.15582">
        <ele>87.6</ele>
        <time>2023-03-29T12:41:10Z</time>
      </trkpt>
      <trkpt lat="49.8342" lon="2.15583">
        <ele>87.6</ele>
        <time>2023-03-29T12:41:11Z</time>
      </trkpt>
      <trkpt lat="49.83424" lon="2.15585">
        <ele>87.5</ele>
        <time>2023-03-29T12:41:12Z</time>
      </trkpt>
      <trkpt lat="49.83428" lon="2.15587">
        <ele>87.4</ele>
        <time>2023-03-29T12:41:13Z</time>
      </trkpt>
      <trkpt lat="49.83432" lon="2.15589">
        <ele>87.4</ele>
        <time>2023-03-29T12:41:14Z</time>
      </trkpt>
      <trkpt lat="49.83435" lon="2.1559">
        <ele>87.3</ele>
        <time>2023-03-29T12:41:15Z</time>
      </trkpt>
      <trkpt lat="49.83439" lon="2.15592">
        <ele>87.2</ele>
        <time>2023-03-29T12:41:16Z</time>
      </trkpt>
      <trkpt lat="49.83441" lon="2.15593">
        <ele>87.2</ele>
        <time>2023-03-29T12:41:17Z</time>
      </trkpt>
      <trkpt lat="49.83444" lon="2.15594">
        <ele>87.2</ele>
        <time>2023-03-29T12:41:18Z</time>
      </trkpt>
      <trkpt lat="49.83447" lon="2.15595">
        <ele>87.1</ele>
        <time>2023-03-29T12:41:19Z</time>
      </trkpt>
      <trkpt lat="49.8345" lon="2.15596">
        <ele>87.1</ele>
        <time>2023-03-29T12:41:21Z</time>
      </trkpt>
      <trkpt lat="49.83453" lon="2.15597">
        <ele>87</ele>
        <time>2023-03-29T12:41:22Z</time>
      </trkpt>
      <trkpt lat="49.83456" lon="2.15598">
        <ele>87</ele>
        <time>2023-03-29T12:41:23Z</time>
      </trkpt>
      <trkpt lat="49.8346" lon="2.156">
        <ele>86.9</ele>
        <time>2023-03-29T12:41:24Z</time>
      </trkpt>
      <trkpt lat="49.83464" lon="2.15602">
        <ele>86.9</ele>
        <time>2023-03-29T12:41:25Z</time>
      </trkpt>
      <trkpt lat="49.83469" lon="2.15604">
        <ele>86.8</ele>
        <time>2023-03-29T12:41:26Z</time>
      </trkpt>
      <trkpt lat="49.83473" lon="2.15606">
        <ele>86.7</ele>
        <time>2023-03-29T12:41:27Z</time>
      </trkpt>
      <trkpt lat="49.83477" lon="2.15609">
        <ele>86.7</ele>
        <time>2023-03-29T12:41:28Z</time>
      </trkpt>
      <trkpt lat="49.83481" lon="2.1561">
        <ele>86.7</ele>
        <time>2023-03-29T12:41:29Z</time>
      </trkpt>
      <trkpt lat="49.83484" lon="2.15612">
        <ele>86.6</ele>
        <time>2023-03-29T12:41:30Z</time>
      </trkpt>
      <trkpt lat="49.83488" lon="2.15613">
        <ele>86.6</ele>
        <time>2023-03-29T12:41:32Z</time>
      </trkpt>
      <trkpt lat="49.83491" lon="2.15615">
        <ele>86.6</ele>
        <time>2023-03-29T12:41:33Z</time>
      </trkpt>
      <trkpt lat="49.83495" lon="2.15617">
        <ele>86.5</ele>
        <time>2023-03-29T12:41:34Z</time>
      </trkpt>
      <trkpt lat="49.83498" lon="2.15619">
        <ele>86.5</ele>
        <time>2023-03-29T12:41:35Z</time>
      </trkpt>
      <trkpt lat="49.83501" lon="2.15622">
        <ele>86.4</ele>
        <time>2023-03-29T12:41:36Z</time>
      </trkpt>
      <trkpt lat="49.83503" lon="2.15622">
        <ele>86.4</ele>
        <time>2023-03-29T12:41:37Z</time>
      </trkpt>
      <trkpt lat="49.83506" lon="2.15625">
        <ele>86.4</ele>
        <time>2023-03-29T12:41:38Z</time>
      </trkpt>
      <trkpt lat="49.83507" lon="2.15625">
        <ele>86.4</ele>
        <time>2023-03-29T12:41:39Z</time>
      </trkpt>
      <trkpt lat="49.83509" lon="2.15627">
        <ele>86.4</ele>
        <time>2023-03-29T12:41:40Z</time>
      </trkpt>
      <trkpt lat="49.8351" lon="2.15628">
        <ele>86.4</ele>
        <time>2023-03-29T12:41:41Z</time>
      </trkpt>
      <trkpt lat="49.83512" lon="2.15629">
        <ele>86.4</ele>
        <time>2023-03-29T12:41:42Z</time>
      </trkpt>
      <trkpt lat="49.83513" lon="2.1563">
        <ele>86.4</ele>
        <time>2023-03-29T12:41:43Z</time>
      </trkpt>
      <trkpt lat="49.83515" lon="2.15631">
        <ele>86.3</ele>
        <time>2023-03-29T12:41:44Z</time>
      </trkpt>
      <trkpt lat="49.83516" lon="2.15632">
        <ele>86.3</ele>
        <time>2023-03-29T12:41:46Z</time>
      </trkpt>
      <trkpt lat="49.83518" lon="2.15634">
        <ele>86.3</ele>
        <time>2023-03-29T12:41:47Z</time>
      </trkpt>
      <trkpt lat="49.83519" lon="2.15635">
        <ele>86.3</ele>
        <time>2023-03-29T12:41:48Z</time>
      </trkpt>
      <trkpt lat="49.83521" lon="2.15638">
        <ele>86.3</ele>
        <time>2023-03-29T12:41:49Z</time>
      </trkpt>
      <trkpt lat="49.83521" lon="2.15639">
        <ele>86.3</ele>
        <time>2023-03-29T12:41:50Z</time>
      </trkpt>
      <trkpt lat="49.83523" lon="2.15641">
        <ele>86.2</ele>
        <time>2023-03-29T12:41:51Z</time>
      </trkpt>
      <trkpt lat="49.83524" lon="2.15642">
        <ele>86.2</ele>
        <time>2023-03-29T12:41:53Z</time>
      </trkpt>
      <trkpt lat="49.83525" lon="2.15644">
        <ele>86.2</ele>
        <time>2023-03-29T12:41:54Z</time>
      </trkpt>
      <trkpt lat="49.83526" lon="2.15646">
        <ele>86.2</ele>
        <time>2023-03-29T12:41:55Z</time>
      </trkpt>
      <trkpt lat="49.83528" lon="2.1565">
        <ele>86.1</ele>
        <time>2023-03-29T12:41:56Z</time>
      </trkpt>
      <trkpt lat="49.83529" lon="2.1565">
        <ele>86.1</ele>
        <time>2023-03-29T12:41:57Z</time>
      </trkpt>
      <trkpt lat="49.8353" lon="2.15652">
        <ele>86.1</ele>
        <time>2023-03-29T12:41:58Z</time>
      </trkpt>
      <trkpt lat="49.83531" lon="2.15654">
        <ele>86.1</ele>
        <time>2023-03-29T12:41:59Z</time>
      </trkpt>
      <trkpt lat="49.83532" lon="2.15656">
        <ele>86.1</ele>
        <time>2023-03-29T12:42:01Z</time>
      </trkpt>
      <trkpt lat="49.83533" lon="2.15658">
        <ele>86.1</ele>
        <time>2023-03-29T12:42:02Z</time>
      </trkpt>
      <trkpt lat="49.83534" lon="2.1566">
        <ele>86</ele>
        <time>2023-03-29T12:42:03Z</time>
      </trkpt>
      <trkpt lat="49.83534" lon="2.15662">
        <ele>86</ele>
        <time>2023-03-29T12:42:04Z</time>
      </trkpt>
      <trkpt lat="49.83535" lon="2.15664">
        <ele>86</ele>
        <time>2023-03-29T12:42:05Z</time>
      </trkpt>
      <trkpt lat="49.83536" lon="2.15667">
        <ele>86</ele>
        <time>2023-03-29T12:42:06Z</time>
      </trkpt>
      <trkpt lat="49.83536" lon="2.15668">
        <ele>86</ele>
        <time>2023-03-29T12:42:07Z</time>
      </trkpt>
      <trkpt lat="49.83537" lon="2.1567">
        <ele>85.9</ele>
        <time>2023-03-29T12:42:08Z</time>
      </trkpt>
      <trkpt lat="49.83537" lon="2.15672">
        <ele>85.9</ele>
        <time>2023-03-29T12:42:10Z</time>
      </trkpt>
      <trkpt lat="49.83538" lon="2.15674">
        <ele>85.9</ele>
        <time>2023-03-29T12:42:11Z</time>
      </trkpt>
      <trkpt lat="49.83538" lon="2.15677">
        <ele>85.9</ele>
        <time>2023-03-29T12:42:12Z</time>
      </trkpt>
      <trkpt lat="49.83539" lon="2.15679">
        <ele>85.9</ele>
        <time>2023-03-29T12:42:13Z</time>
      </trkpt>
      <trkpt lat="49.83539" lon="2.15682">
        <ele>85.8</ele>
        <time>2023-03-29T12:42:14Z</time>
      </trkpt>
      <trkpt lat="49.8354" lon="2.15684">
        <ele>85.8</ele>
        <time>2023-03-29T12:42:15Z</time>
      </trkpt>
      <trkpt lat="49.83541" lon="2.15687">
        <ele>85.8</ele>
        <time>2023-03-29T12:42:17Z</time>
      </trkpt>
      <trkpt lat="49.83541" lon="2.15689">
        <ele>85.7</ele>
        <time>2023-03-29T12:42:18Z</time>
      </trkpt>
      <trkpt lat="49.83542" lon="2.15691">
        <ele>85.7</ele>
        <time>2023-03-29T12:42:19Z</time>
      </trkpt>
      <trkpt lat="49.83543" lon="2.15695">
        <ele>85.7</ele>
        <time>2023-03-29T12:42:20Z</time>
      </trkpt>
      <trkpt lat="49.83544" lon="2.15696">
        <ele>85.6</ele>
        <time>2023-03-29T12:42:21Z</time>
      </trkpt>
      <trkpt lat="49.83544" lon="2.15699">
        <ele>85.6</ele>
        <time>2023-03-29T12:42:22Z</time>
      </trkpt>
      <trkpt lat="49.83544" lon="2.15701">
        <ele>85.6</ele>
        <time>2023-03-29T12:42:24Z</time>
      </trkpt>
      <trkpt lat="49.83544" lon="2.15702">
        <ele>85.6</ele>
        <time>2023-03-29T12:42:25Z</time>
      </trkpt>
      <trkpt lat="49.83545" lon="2.15704">
        <ele>85.5</ele>
        <time>2023-03-29T12:42:26Z</time>
      </trkpt>
      <trkpt lat="49.83545" lon="2.15707">
        <ele>85.5</ele>
        <time>2023-03-29T12:42:27Z</time>
      </trkpt>
      <trkpt lat="49.83545" lon="2.15709">
        <ele>85.5</ele>
        <time>2023-03-29T12:42:28Z</time>
      </trkpt>
      <trkpt lat="49.83546" lon="2.15712">
        <ele>85.5</ele>
        <time>2023-03-29T12:42:29Z</time>
      </trkpt>
      <trkpt lat="49.83547" lon="2.15716">
        <ele>85.4</ele>
        <time>2023-03-29T12:42:30Z</time>
      </trkpt>
      <trkpt lat="49.83547" lon="2.15717">
        <ele>85.4</ele>
        <time>2023-03-29T12:42:31Z</time>
      </trkpt>
      <trkpt lat="49.83548" lon="2.1572">
        <ele>85.3</ele>
        <time>2023-03-29T12:42:32Z</time>
      </trkpt>
      <trkpt lat="49.83548" lon="2.15722">
        <ele>85.3</ele>
        <time>2023-03-29T12:42:33Z</time>
      </trkpt>
      <trkpt lat="49.83548" lon="2.15723">
        <ele>85.3</ele>
        <time>2023-03-29T12:42:34Z</time>
      </trkpt>
      <trkpt lat="49.83549" lon="2.15725">
        <ele>85.3</ele>
        <time>2023-03-29T12:42:35Z</time>
      </trkpt>
      <trkpt lat="49.83549" lon="2.15728">
        <ele>85.3</ele>
        <time>2023-03-29T12:42:36Z</time>
      </trkpt>
      <trkpt lat="49.83549" lon="2.15729">
        <ele>85.2</ele>
        <time>2023-03-29T12:42:38Z</time>
      </trkpt>
      <trkpt lat="49.8355" lon="2.15731">
        <ele>85.2</ele>
        <time>2023-03-29T12:42:39Z</time>
      </trkpt>
      <trkpt lat="49.8355" lon="2.15733">
        <ele>85.2</ele>
        <time>2023-03-29T12:42:40Z</time>
      </trkpt>
      <trkpt lat="49.8355" lon="2.15734">
        <ele>85.2</ele>
        <time>2023-03-29T12:42:41Z</time>
      </trkpt>
      <trkpt lat="49.8355" lon="2.15737">
        <ele>85.1</ele>
        <time>2023-03-29T12:42:42Z</time>
      </trkpt>
      <trkpt lat="49.83551" lon="2.15739">
        <ele>85.1</ele>
        <time>2023-03-29T12:42:43Z</time>
      </trkpt>
      <trkpt lat="49.83551" lon="2.15742">
        <ele>85.1</ele>
        <time>2023-03-29T12:42:44Z</time>
      </trkpt>
      <trkpt lat="49.83551" lon="2.15744">
        <ele>85.1</ele>
        <time>2023-03-29T12:42:45Z</time>
      </trkpt>
      <trkpt lat="49.83552" lon="2.15746">
        <ele>85</ele>
        <time>2023-03-29T12:42:46Z</time>
      </trkpt>
      <trkpt lat="49.83552" lon="2.15749">
        <ele>85</ele>
        <time>2023-03-29T12:42:48Z</time>
      </trkpt>
      <trkpt lat="49.83552" lon="2.15751">
        <ele>85</ele>
        <time>2023-03-29T12:42:49Z</time>
      </trkpt>
      <trkpt lat="49.83553" lon="2.15752">
        <ele>85</ele>
        <time>2023-03-29T12:42:50Z</time>
      </trkpt>
      <trkpt lat="49.83553" lon="2.15755">
        <ele>84.9</ele>
        <time>2023-03-29T12:42:51Z</time>
      </trkpt>
      <trkpt lat="49.83554" lon="2.15757">
        <ele>84.9</ele>
        <time>2023-03-29T12:42:52Z</time>
      </trkpt>
      <trkpt lat="49.83554" lon="2.1576">
        <ele>84.9</ele>
        <time>2023-03-29T12:42:53Z</time>
      </trkpt>
      <trkpt lat="49.83555" lon="2.15761">
        <ele>84.9</ele>
        <time>2023-03-29T12:42:54Z</time>
      </trkpt>
      <trkpt lat="49.83555" lon="2.15763">
        <ele>84.9</ele>
        <time>2023-03-29T12:42:55Z</time>
      </trkpt>
      <trkpt lat="49.83555" lon="2.15765">
        <ele>84.8</ele>
        <time>2023-03-29T12:42:57Z</time>
      </trkpt>
      <trkpt lat="49.83555" lon="2.15767">
        <ele>84.8</ele>
        <time>2023-03-29T12:42:58Z</time>
      </trkpt>
      <trkpt lat="49.83556" lon="2.15769">
        <ele>84.8</ele>
        <time>2023-03-29T12:42:59Z</time>
      </trkpt>
      <trkpt lat="49.83556" lon="2.15771">
        <ele>84.8</ele>
        <time>2023-03-29T12:43:00Z</time>
      </trkpt>
      <trkpt lat="49.83556" lon="2.15774">
        <ele>84.8</ele>
        <time>2023-03-29T12:43:01Z</time>
      </trkpt>
      <trkpt lat="49.83556" lon="2.15775">
        <ele>84.8</ele>
        <time>2023-03-29T12:43:02Z</time>
      </trkpt>
      <trkpt lat="49.83557" lon="2.15777">
        <ele>84.8</ele>
        <time>2023-03-29T12:43:04Z</time>
      </trkpt>
      <trkpt lat="49.83557" lon="2.15779">
        <ele>84.7</ele>
        <time>2023-03-29T12:43:05Z</time>
      </trkpt>
      <trkpt lat="49.83557" lon="2.15782">
        <ele>84.7</ele>
        <time>2023-03-29T12:43:06Z</time>
      </trkpt>
      <trkpt lat="49.83557" lon="2.15784">
        <ele>84.7</ele>
        <time>2023-03-29T12:43:07Z</time>
      </trkpt>
      <trkpt lat="49.83558" lon="2.15786">
        <ele>84.7</ele>
        <time>2023-03-29T12:43:08Z</time>
      </trkpt>
      <trkpt lat="49.83558" lon="2.15788">
        <ele>84.7</ele>
        <time>2023-03-29T12:43:09Z</time>
      </trkpt>
      <trkpt lat="49.83558" lon="2.1579">
        <ele>84.7</ele>
        <time>2023-03-29T12:43:10Z</time>
      </trkpt>
      <trkpt lat="49.83558" lon="2.15793">
        <ele>84.7</ele>
        <time>2023-03-29T12:43:12Z</time>
      </trkpt>
      <trkpt lat="49.83559" lon="2.15795">
        <ele>84.7</ele>
        <time>2023-03-29T12:43:13Z</time>
      </trkpt>
      <trkpt lat="49.83559" lon="2.15797">
        <ele>84.6</ele>
        <time>2023-03-29T12:43:14Z</time>
      </trkpt>
      <trkpt lat="49.83559" lon="2.158">
        <ele>84.6</ele>
        <time>2023-03-29T12:43:15Z</time>
      </trkpt>
      <trkpt lat="49.8356" lon="2.15803">
        <ele>84.6</ele>
        <time>2023-03-29T12:43:16Z</time>
      </trkpt>
      <trkpt lat="49.8356" lon="2.15804">
        <ele>84.6</ele>
        <time>2023-03-29T12:43:17Z</time>
      </trkpt>
      <trkpt lat="49.8356" lon="2.15806">
        <ele>84.6</ele>
        <time>2023-03-29T12:43:19Z</time>
      </trkpt>
      <trkpt lat="49.8356" lon="2.15808">
        <ele>84.6</ele>
        <time>2023-03-29T12:43:20Z</time>
      </trkpt>
      <trkpt lat="49.83561" lon="2.1581">
        <ele>84.6</ele>
        <time>2023-03-29T12:43:21Z</time>
      </trkpt>
      <trkpt lat="49.83561" lon="2.15811">
        <ele>84.6</ele>
        <time>2023-03-29T12:43:22Z</time>
      </trkpt>
      <trkpt lat="49.83561" lon="2.15812">
        <ele>84.6</ele>
        <time>2023-03-29T12:43:23Z</time>
      </trkpt>
      <trkpt lat="49.83562" lon="2.15813">
        <ele>84.5</ele>
        <time>2023-03-29T12:43:24Z</time>
      </trkpt>
      <trkpt lat="49.83562" lon="2.15815">
        <ele>84.5</ele>
        <time>2023-03-29T12:43:25Z</time>
      </trkpt>
      <trkpt lat="49.83563" lon="2.15817">
        <ele>84.5</ele>
        <time>2023-03-29T12:43:26Z</time>
      </trkpt>
      <trkpt lat="49.83564" lon="2.15819">
        <ele>84.5</ele>
        <time>2023-03-29T12:43:28Z</time>
      </trkpt>
      <trkpt lat="49.83564" lon="2.1582">
        <ele>84.5</ele>
        <time>2023-03-29T12:43:29Z</time>
      </trkpt>
      <trkpt lat="49.83565" lon="2.15822">
        <ele>84.5</ele>
        <time>2023-03-29T12:43:30Z</time>
      </trkpt>
      <trkpt lat="49.83566" lon="2.15825">
        <ele>84.5</ele>
        <time>2023-03-29T12:43:31Z</time>
      </trkpt>
      <trkpt lat="49.83566" lon="2.15827">
        <ele>84.4</ele>
        <time>2023-03-29T12:43:32Z</time>
      </trkpt>
      <trkpt lat="49.83567" lon="2.15828">
        <ele>84.4</ele>
        <time>2023-03-29T12:43:33Z</time>
      </trkpt>
      <trkpt lat="49.83567" lon="2.15831">
        <ele>84.4</ele>
        <time>2023-03-29T12:43:34Z</time>
      </trkpt>
      <trkpt lat="49.83568" lon="2.15832">
        <ele>84.4</ele>
        <time>2023-03-29T12:43:36Z</time>
      </trkpt>
      <trkpt lat="49.83568" lon="2.15833">
        <ele>84.4</ele>
        <time>2023-03-29T12:43:37Z</time>
      </trkpt>
      <trkpt lat="49.83569" lon="2.15836">
        <ele>84.4</ele>
        <time>2023-03-29T12:43:38Z</time>
      </trkpt>
      <trkpt lat="49.83569" lon="2.15838">
        <ele>84.4</ele>
        <time>2023-03-29T12:43:39Z</time>
      </trkpt>
      <trkpt lat="49.8357" lon="2.15841">
        <ele>84.3</ele>
        <time>2023-03-29T12:43:40Z</time>
      </trkpt>
      <trkpt lat="49.8357" lon="2.15842">
        <ele>84.3</ele>
        <time>2023-03-29T12:43:41Z</time>
      </trkpt>
      <trkpt lat="49.83571" lon="2.15843">
        <ele>84.3</ele>
        <time>2023-03-29T12:43:42Z</time>
      </trkpt>
      <trkpt lat="49.83572" lon="2.15845">
        <ele>84.3</ele>
        <time>2023-03-29T12:43:43Z</time>
      </trkpt>
      <trkpt lat="49.83573" lon="2.15846">
        <ele>84.3</ele>
        <time>2023-03-29T12:43:44Z</time>
      </trkpt>
      <trkpt lat="49.83574" lon="2.15848">
        <ele>84.3</ele>
        <time>2023-03-29T12:43:46Z</time>
      </trkpt>
      <trkpt lat="49.83574" lon="2.1585">
        <ele>84.2</ele>
        <time>2023-03-29T12:43:47Z</time>
      </trkpt>
      <trkpt lat="49.83575" lon="2.15852">
        <ele>84.2</ele>
        <time>2023-03-29T12:43:48Z</time>
      </trkpt>
      <trkpt lat="49.83575" lon="2.15854">
        <ele>84.2</ele>
        <time>2023-03-29T12:43:49Z</time>
      </trkpt>
      <trkpt lat="49.83576" lon="2.15857">
        <ele>84.2</ele>
        <time>2023-03-29T12:43:50Z</time>
      </trkpt>
      <trkpt lat="49.83576" lon="2.1586">
        <ele>84.1</ele>
        <time>2023-03-29T12:43:51Z</time>
      </trkpt>
      <trkpt lat="49.83576" lon="2.15862">
        <ele>84.1</ele>
        <time>2023-03-29T12:43:52Z</time>
      </trkpt>
      <trkpt lat="49.83576" lon="2.15865">
        <ele>84.1</ele>
        <time>2023-03-29T12:43:54Z</time>
      </trkpt>
      <trkpt lat="49.83576" lon="2.15867">
        <ele>84.1</ele>
        <time>2023-03-29T12:43:55Z</time>
      </trkpt>
      <trkpt lat="49.83576" lon="2.1587">
        <ele>84</ele>
        <time>2023-03-29T12:43:56Z</time>
      </trkpt>
      <trkpt lat="49.83577" lon="2.15875">
        <ele>84</ele>
        <time>2023-03-29T12:43:57Z</time>
      </trkpt>
      <trkpt lat="49.83577" lon="2.15876">
        <ele>84</ele>
        <time>2023-03-29T12:43:58Z</time>
      </trkpt>
      <trkpt lat="49.83577" lon="2.15879">
        <ele>84</ele>
        <time>2023-03-29T12:43:59Z</time>
      </trkpt>
      <trkpt lat="49.83577" lon="2.15881">
        <ele>83.9</ele>
        <time>2023-03-29T12:44:00Z</time>
      </trkpt>
      <trkpt lat="49.83577" lon="2.15883">
        <ele>83.9</ele>
        <time>2023-03-29T12:44:01Z</time>
      </trkpt>
      <trkpt lat="49.83577" lon="2.15885">
        <ele>83.9</ele>
        <time>2023-03-29T12:44:02Z</time>
      </trkpt>
      <trkpt lat="49.83577" lon="2.15887">
        <ele>83.9</ele>
        <time>2023-03-29T12:44:04Z</time>
      </trkpt>
      <trkpt lat="49.83578" lon="2.15888">
        <ele>83.9</ele>
        <time>2023-03-29T12:44:05Z</time>
      </trkpt>
      <trkpt lat="49.83579" lon="2.15889">
        <ele>83.8</ele>
        <time>2023-03-29T12:44:06Z</time>
      </trkpt>
      <trkpt lat="49.83581" lon="2.15891">
        <ele>83.8</ele>
        <time>2023-03-29T12:44:07Z</time>
      </trkpt>
      <trkpt lat="49.83582" lon="2.15892">
        <ele>83.8</ele>
        <time>2023-03-29T12:44:08Z</time>
      </trkpt>
      <trkpt lat="49.83582" lon="2.15892">
        <ele>83.8</ele>
        <time>2023-03-29T12:44:09Z</time>
      </trkpt>
      <trkpt lat="49.83583" lon="2.15895">
        <ele>83.8</ele>
        <time>2023-03-29T12:44:10Z</time>
      </trkpt>
      <trkpt lat="49.83584" lon="2.15897">
        <ele>83.7</ele>
        <time>2023-03-29T12:44:11Z</time>
      </trkpt>
      <trkpt lat="49.83585" lon="2.159">
        <ele>83.7</ele>
        <time>2023-03-29T12:44:12Z</time>
      </trkpt>
      <trkpt lat="49.83586" lon="2.15901">
        <ele>83.7</ele>
        <time>2023-03-29T12:44:13Z</time>
      </trkpt>
      <trkpt lat="49.83586" lon="2.15902">
        <ele>83.7</ele>
        <time>2023-03-29T12:44:14Z</time>
      </trkpt>
      <trkpt lat="49.83587" lon="2.15903">
        <ele>83.6</ele>
        <time>2023-03-29T12:44:16Z</time>
      </trkpt>
      <trkpt lat="49.83588" lon="2.15904">
        <ele>83.6</ele>
        <time>2023-03-29T12:44:17Z</time>
      </trkpt>
      <trkpt lat="49.83589" lon="2.15905">
        <ele>83.6</ele>
        <time>2023-03-29T12:44:18Z</time>
      </trkpt>
      <trkpt lat="49.8359" lon="2.15906">
        <ele>83.6</ele>
        <time>2023-03-29T12:44:19Z</time>
      </trkpt>
      <trkpt lat="49.83591" lon="2.15907">
        <ele>83.6</ele>
        <time>2023-03-29T12:44:20Z</time>
      </trkpt>
      <trkpt lat="49.83592" lon="2.15908">
        <ele>83.5</ele>
        <time>2023-03-29T12:44:21Z</time>
      </trkpt>
      <trkpt lat="49.83594" lon="2.15911">
        <ele>83.5</ele>
        <time>2023-03-29T12:44:22Z</time>
      </trkpt>
      <trkpt lat="49.83594" lon="2.15912">
        <ele>83.5</ele>
        <time>2023-03-29T12:44:23Z</time>
      </trkpt>
      <trkpt lat="49.83595" lon="2.15913">
        <ele>83.5</ele>
        <time>2023-03-29T12:44:24Z</time>
      </trkpt>
      <trkpt lat="49.83596" lon="2.15915">
        <ele>83.4</ele>
        <time>2023-03-29T12:44:25Z</time>
      </trkpt>
      <trkpt lat="49.83597" lon="2.15916">
        <ele>83.4</ele>
        <time>2023-03-29T12:44:26Z</time>
      </trkpt>
      <trkpt lat="49.83598" lon="2.15919">
        <ele>83.4</ele>
        <time>2023-03-29T12:44:28Z</time>
      </trkpt>
      <trkpt lat="49.83599" lon="2.1592">
        <ele>83.3</ele>
        <time>2023-03-29T12:44:29Z</time>
      </trkpt>
      <trkpt lat="49.83599" lon="2.15922">
        <ele>83.3</ele>
        <time>2023-03-29T12:44:30Z</time>
      </trkpt>
      <trkpt lat="49.83601" lon="2.15925">
        <ele>83.3</ele>
        <time>2023-03-29T12:44:31Z</time>
      </trkpt>
      <trkpt lat="49.83602" lon="2.15927">
        <ele>83.2</ele>
        <time>2023-03-29T12:44:33Z</time>
      </trkpt>
      <trkpt lat="49.83603" lon="2.15929">
        <ele>83.2</ele>
        <time>2023-03-29T12:44:34Z</time>
      </trkpt>
      <trkpt lat="49.83604" lon="2.15931">
        <ele>83.2</ele>
        <time>2023-03-29T12:44:36Z</time>
      </trkpt>
      <trkpt lat="49.83605" lon="2.15932">
        <ele>83.1</ele>
        <time>2023-03-29T12:44:37Z</time>
      </trkpt>
      <trkpt lat="49.83606" lon="2.15934">
        <ele>83.1</ele>
        <time>2023-03-29T12:44:38Z</time>
      </trkpt>
      <trkpt lat="49.83607" lon="2.15936">
        <ele>83.1</ele>
        <time>2023-03-29T12:44:39Z</time>
      </trkpt>
      <trkpt lat="49.83607" lon="2.15939">
        <ele>83</ele>
        <time>2023-03-29T12:44:40Z</time>
      </trkpt>
      <trkpt lat="49.83607" lon="2.15941">
        <ele>83</ele>
        <time>2023-03-29T12:44:41Z</time>
      </trkpt>
      <trkpt lat="49.83608" lon="2.15944">
        <ele>82.9</ele>
        <time>2023-03-29T12:44:43Z</time>
      </trkpt>
      <trkpt lat="49.83608" lon="2.15946">
        <ele>82.9</ele>
        <time>2023-03-29T12:44:44Z</time>
      </trkpt>
      <trkpt lat="49.83608" lon="2.15949">
        <ele>82.8</ele>
        <time>2023-03-29T12:44:45Z</time>
      </trkpt>
      <trkpt lat="49.8361" lon="2.15951">
        <ele>82.8</ele>
        <time>2023-03-29T12:44:46Z</time>
      </trkpt>
      <trkpt lat="49.8361" lon="2.15953">
        <ele>82.7</ele>
        <time>2023-03-29T12:44:47Z</time>
      </trkpt>
      <trkpt lat="49.83611" lon="2.15955">
        <ele>82.7</ele>
        <time>2023-03-29T12:44:48Z</time>
      </trkpt>
      <trkpt lat="49.83612" lon="2.15957">
        <ele>82.7</ele>
        <time>2023-03-29T12:44:49Z</time>
      </trkpt>
      <trkpt lat="49.83612" lon="2.1596">
        <ele>82.6</ele>
        <time>2023-03-29T12:44:51Z</time>
      </trkpt>
      <trkpt lat="49.83613" lon="2.15962">
        <ele>82.6</ele>
        <time>2023-03-29T12:44:52Z</time>
      </trkpt>
      <trkpt lat="49.83613" lon="2.15964">
        <ele>82.5</ele>
        <time>2023-03-29T12:44:53Z</time>
      </trkpt>
      <trkpt lat="49.83614" lon="2.15966">
        <ele>82.5</ele>
        <time>2023-03-29T12:44:54Z</time>
      </trkpt>
      <trkpt lat="49.83615" lon="2.15968">
        <ele>82.5</ele>
        <time>2023-03-29T12:44:55Z</time>
      </trkpt>
      <trkpt lat="49.83616" lon="2.1597">
        <ele>82.4</ele>
        <time>2023-03-29T12:44:56Z</time>
      </trkpt>
      <trkpt lat="49.83617" lon="2.15973">
        <ele>82.4</ele>
        <time>2023-03-29T12:44:57Z</time>
      </trkpt>
      <trkpt lat="49.83618" lon="2.15975">
        <ele>82.4</ele>
        <time>2023-03-29T12:44:58Z</time>
      </trkpt>
      <trkpt lat="49.83619" lon="2.15977">
        <ele>82.3</ele>
        <time>2023-03-29T12:44:59Z</time>
      </trkpt>
      <trkpt lat="49.8362" lon="2.15978">
        <ele>82.3</ele>
        <time>2023-03-29T12:45:00Z</time>
      </trkpt>
      <trkpt lat="49.83621" lon="2.1598">
        <ele>82.2</ele>
        <time>2023-03-29T12:45:01Z</time>
      </trkpt>
      <trkpt lat="49.83621" lon="2.15982">
        <ele>82.2</ele>
        <time>2023-03-29T12:45:02Z</time>
      </trkpt>
      <trkpt lat="49.83622" lon="2.15984">
        <ele>82.2</ele>
        <time>2023-03-29T12:45:03Z</time>
      </trkpt>
      <trkpt lat="49.83622" lon="2.15986">
        <ele>82.1</ele>
        <time>2023-03-29T12:45:05Z</time>
      </trkpt>
      <trkpt lat="49.83623" lon="2.15988">
        <ele>82.1</ele>
        <time>2023-03-29T12:45:06Z</time>
      </trkpt>
      <trkpt lat="49.83623" lon="2.1599">
        <ele>82.1</ele>
        <time>2023-03-29T12:45:07Z</time>
      </trkpt>
      <trkpt lat="49.83624" lon="2.15991">
        <ele>82.1</ele>
        <time>2023-03-29T12:45:08Z</time>
      </trkpt>
      <trkpt lat="49.83624" lon="2.15993">
        <ele>82.1</ele>
        <time>2023-03-29T12:45:09Z</time>
      </trkpt>
      <trkpt lat="49.83624" lon="2.15993">
        <ele>82.1</ele>
        <time>2023-03-29T12:45:10Z</time>
      </trkpt>
      <trkpt lat="49.83624" lon="2.15994">
        <ele>82</ele>
        <time>2023-03-29T12:45:11Z</time>
      </trkpt>
      <trkpt lat="49.83624" lon="2.15996">
        <ele>82</ele>
        <time>2023-03-29T12:45:12Z</time>
      </trkpt>
      <trkpt lat="49.83624" lon="2.15998">
        <ele>82</ele>
        <time>2023-03-29T12:45:13Z</time>
      </trkpt>
      <trkpt lat="49.83624" lon="2.15998">
        <ele>82</ele>
        <time>2023-03-29T12:45:15Z</time>
      </trkpt>
      <trkpt lat="49.83624" lon="2.15999">
        <ele>82</ele>
        <time>2023-03-29T12:45:16Z</time>
      </trkpt>
      <trkpt lat="49.83625" lon="2.16002">
        <ele>82</ele>
        <time>2023-03-29T12:45:17Z</time>
      </trkpt>
      <trkpt lat="49.83625" lon="2.16002">
        <ele>81.9</ele>
        <time>2023-03-29T12:45:18Z</time>
      </trkpt>
      <trkpt lat="49.83626" lon="2.16003">
        <ele>81.9</ele>
        <time>2023-03-29T12:45:19Z</time>
      </trkpt>
      <trkpt lat="49.83626" lon="2.16005">
        <ele>81.9</ele>
        <time>2023-03-29T12:45:20Z</time>
      </trkpt>
      <trkpt lat="49.83627" lon="2.16006">
        <ele>81.9</ele>
        <time>2023-03-29T12:45:21Z</time>
      </trkpt>
      <trkpt lat="49.83628" lon="2.16008">
        <ele>81.9</ele>
        <time>2023-03-29T12:45:22Z</time>
      </trkpt>
      <trkpt lat="49.83628" lon="2.16009">
        <ele>81.8</ele>
        <time>2023-03-29T12:45:23Z</time>
      </trkpt>
      <trkpt lat="49.83629" lon="2.1601">
        <ele>81.8</ele>
        <time>2023-03-29T12:45:24Z</time>
      </trkpt>
      <trkpt lat="49.83631" lon="2.16012">
        <ele>81.8</ele>
        <time>2023-03-29T12:45:25Z</time>
      </trkpt>
      <trkpt lat="49.83632" lon="2.16013">
        <ele>81.8</ele>
        <time>2023-03-29T12:45:26Z</time>
      </trkpt>
      <trkpt lat="49.83632" lon="2.16014">
        <ele>81.8</ele>
        <time>2023-03-29T12:45:27Z</time>
      </trkpt>
      <trkpt lat="49.83633" lon="2.16015">
        <ele>81.8</ele>
        <time>2023-03-29T12:45:28Z</time>
      </trkpt>
      <trkpt lat="49.83634" lon="2.16016">
        <ele>81.7</ele>
        <time>2023-03-29T12:45:30Z</time>
      </trkpt>
      <trkpt lat="49.83635" lon="2.16017">
        <ele>81.7</ele>
        <time>2023-03-29T12:45:31Z</time>
      </trkpt>
      <trkpt lat="49.83636" lon="2.1602">
        <ele>81.7</ele>
        <time>2023-03-29T12:45:32Z</time>
      </trkpt>
      <trkpt lat="49.83637" lon="2.16021">
        <ele>81.7</ele>
        <time>2023-03-29T12:45:33Z</time>
      </trkpt>
      <trkpt lat="49.83637" lon="2.16022">
        <ele>81.7</ele>
        <time>2023-03-29T12:45:34Z</time>
      </trkpt>
      <trkpt lat="49.83638" lon="2.16023">
        <ele>81.7</ele>
        <time>2023-03-29T12:45:35Z</time>
      </trkpt>
      <trkpt lat="49.83639" lon="2.16027">
        <ele>81.7</ele>
        <time>2023-03-29T12:45:37Z</time>
      </trkpt>
      <trkpt lat="49.8364" lon="2.16028">
        <ele>81.6</ele>
        <time>2023-03-29T12:45:38Z</time>
      </trkpt>
      <trkpt lat="49.83641" lon="2.1603">
        <ele>81.6</ele>
        <time>2023-03-29T12:45:40Z</time>
      </trkpt>
      <trkpt lat="49.83642" lon="2.16033">
        <ele>81.6</ele>
        <time>2023-03-29T12:45:41Z</time>
      </trkpt>
      <trkpt lat="49.83643" lon="2.16034">
        <ele>81.6</ele>
        <time>2023-03-29T12:45:42Z</time>
      </trkpt>
      <trkpt lat="49.83644" lon="2.16035">
        <ele>81.6</ele>
        <time>2023-03-29T12:45:43Z</time>
      </trkpt>
      <trkpt lat="49.83645" lon="2.16036">
        <ele>81.6</ele>
        <time>2023-03-29T12:45:44Z</time>
      </trkpt>
      <trkpt lat="49.83646" lon="2.16037">
        <ele>81.6</ele>
        <time>2023-03-29T12:45:45Z</time>
      </trkpt>
      <trkpt lat="49.83647" lon="2.16038">
        <ele>81.6</ele>
        <time>2023-03-29T12:45:46Z</time>
      </trkpt>
      <trkpt lat="49.83648" lon="2.1604">
        <ele>81.6</ele>
        <time>2023-03-29T12:45:47Z</time>
      </trkpt>
      <trkpt lat="49.83649" lon="2.16041">
        <ele>81.5</ele>
        <time>2023-03-29T12:45:48Z</time>
      </trkpt>
      <trkpt lat="49.8365" lon="2.16042">
        <ele>81.5</ele>
        <time>2023-03-29T12:45:49Z</time>
      </trkpt>
      <trkpt lat="49.83651" lon="2.16044">
        <ele>81.5</ele>
        <time>2023-03-29T12:45:51Z</time>
      </trkpt>
      <trkpt lat="49.83652" lon="2.16045">
        <ele>81.5</ele>
        <time>2023-03-29T12:45:52Z</time>
      </trkpt>
      <trkpt lat="49.83654" lon="2.16047">
        <ele>81.5</ele>
        <time>2023-03-29T12:45:53Z</time>
      </trkpt>
      <trkpt lat="49.83655" lon="2.16049">
        <ele>81.5</ele>
        <time>2023-03-29T12:45:54Z</time>
      </trkpt>
      <trkpt lat="49.83656" lon="2.16049">
        <ele>81.5</ele>
        <time>2023-03-29T12:45:55Z</time>
      </trkpt>
      <trkpt lat="49.83657" lon="2.1605">
        <ele>81.5</ele>
        <time>2023-03-29T12:45:56Z</time>
      </trkpt>
      <trkpt lat="49.83658" lon="2.16051">
        <ele>81.5</ele>
        <time>2023-03-29T12:45:57Z</time>
      </trkpt>
      <trkpt lat="49.83658" lon="2.16052">
        <ele>81.5</ele>
        <time>2023-03-29T12:45:59Z</time>
      </trkpt>
      <trkpt lat="49.83659" lon="2.16053">
        <ele>81.5</ele>
        <time>2023-03-29T12:46:00Z</time>
      </trkpt>
      <trkpt lat="49.8366" lon="2.16054">
        <ele>81.5</ele>
        <time>2023-03-29T12:46:01Z</time>
      </trkpt>
      <trkpt lat="49.83662" lon="2.16056">
        <ele>81.5</ele>
        <time>2023-03-29T12:46:02Z</time>
      </trkpt>
      <trkpt lat="49.83662" lon="2.16056">
        <ele>81.5</ele>
        <time>2023-03-29T12:46:03Z</time>
      </trkpt>
      <trkpt lat="49.83663" lon="2.16057">
        <ele>81.5</ele>
        <time>2023-03-29T12:46:04Z</time>
      </trkpt>
      <trkpt lat="49.83664" lon="2.16058">
        <ele>81.5</ele>
        <time>2023-03-29T12:46:05Z</time>
      </trkpt>
      <trkpt lat="49.83665" lon="2.16059">
        <ele>81.5</ele>
        <time>2023-03-29T12:46:07Z</time>
      </trkpt>
      <trkpt lat="49.83666" lon="2.16061">
        <ele>81.5</ele>
        <time>2023-03-29T12:46:08Z</time>
      </trkpt>
      <trkpt lat="49.83667" lon="2.16062">
        <ele>81.5</ele>
        <time>2023-03-29T12:46:09Z</time>
      </trkpt>
      <trkpt lat="49.83669" lon="2.16064">
        <ele>81.5</ele>
        <time>2023-03-29T12:46:10Z</time>
      </trkpt>
      <trkpt lat="49.83669" lon="2.16065">
        <ele>81.5</ele>
        <time>2023-03-29T12:46:11Z</time>
      </trkpt>
      <trkpt lat="49.8367" lon="2.16066">
        <ele>81.5</ele>
        <time>2023-03-29T12:46:12Z</time>
      </trkpt>
      <trkpt lat="49.83671" lon="2.16067">
        <ele>81.5</ele>
        <time>2023-03-29T12:46:14Z</time>
      </trkpt>
      <trkpt lat="49.83672" lon="2.16067">
        <ele>81.5</ele>
        <time>2023-03-29T12:46:15Z</time>
      </trkpt>
      <trkpt lat="49.83673" lon="2.16068">
        <ele>81.5</ele>
        <time>2023-03-29T12:46:16Z</time>
      </trkpt>
      <trkpt lat="49.83674" lon="2.16069">
        <ele>81.5</ele>
        <time>2023-03-29T12:46:17Z</time>
      </trkpt>
      <trkpt lat="49.83675" lon="2.1607">
        <ele>81.5</ele>
        <time>2023-03-29T12:46:18Z</time>
      </trkpt>
      <trkpt lat="49.83676" lon="2.16071">
        <ele>81.5</ele>
        <time>2023-03-29T12:46:19Z</time>
      </trkpt>
      <trkpt lat="49.83678" lon="2.16072">
        <ele>81.5</ele>
        <time>2023-03-29T12:46:21Z</time>
      </trkpt>
      <trkpt lat="49.83678" lon="2.16073">
        <ele>81.5</ele>
        <time>2023-03-29T12:46:22Z</time>
      </trkpt>
      <trkpt lat="49.83679" lon="2.16073">
        <ele>81.5</ele>
        <time>2023-03-29T12:46:23Z</time>
      </trkpt>
      <trkpt lat="49.83681" lon="2.16075">
        <ele>81.5</ele>
        <time>2023-03-29T12:46:24Z</time>
      </trkpt>
      <trkpt lat="49.83682" lon="2.16075">
        <ele>81.5</ele>
        <time>2023-03-29T12:46:25Z</time>
      </trkpt>
      <trkpt lat="49.83683" lon="2.16076">
        <ele>81.5</ele>
        <time>2023-03-29T12:46:26Z</time>
      </trkpt>
      <trkpt lat="49.83685" lon="2.16078">
        <ele>81.5</ele>
        <time>2023-03-29T12:46:27Z</time>
      </trkpt>
      <trkpt lat="49.83686" lon="2.16078">
        <ele>81.5</ele>
        <time>2023-03-29T12:46:28Z</time>
      </trkpt>
      <trkpt lat="49.83686" lon="2.16079">
        <ele>81.5</ele>
        <time>2023-03-29T12:46:29Z</time>
      </trkpt>
      <trkpt lat="49.8369" lon="2.16081">
        <ele>81.5</ele>
        <time>2023-03-29T12:46:31Z</time>
      </trkpt>
      <trkpt lat="49.83691" lon="2.16082">
        <ele>81.5</ele>
        <time>2023-03-29T12:46:32Z</time>
      </trkpt>
      <trkpt lat="49.83691" lon="2.16084">
        <ele>81.5</ele>
        <time>2023-03-29T12:46:34Z</time>
      </trkpt>
      <trkpt lat="49.83692" lon="2.16085">
        <ele>81.5</ele>
        <time>2023-03-29T12:46:35Z</time>
      </trkpt>
      <trkpt lat="49.83693" lon="2.16086">
        <ele>81.5</ele>
        <time>2023-03-29T12:46:36Z</time>
      </trkpt>
      <trkpt lat="49.83694" lon="2.16087">
        <ele>81.5</ele>
        <time>2023-03-29T12:46:37Z</time>
      </trkpt>
      <trkpt lat="49.83695" lon="2.16088">
        <ele>81.5</ele>
        <time>2023-03-29T12:46:38Z</time>
      </trkpt>
      <trkpt lat="49.83696" lon="2.16089">
        <ele>81.5</ele>
        <time>2023-03-29T12:46:39Z</time>
      </trkpt>
      <trkpt lat="49.83698" lon="2.16092">
        <ele>81.5</ele>
        <time>2023-03-29T12:46:40Z</time>
      </trkpt>
      <trkpt lat="49.83699" lon="2.16093">
        <ele>81.5</ele>
        <time>2023-03-29T12:46:41Z</time>
      </trkpt>
      <trkpt lat="49.837" lon="2.16094">
        <ele>81.5</ele>
        <time>2023-03-29T12:46:42Z</time>
      </trkpt>
      <trkpt lat="49.83701" lon="2.16094">
        <ele>81.5</ele>
        <time>2023-03-29T12:46:43Z</time>
      </trkpt>
      <trkpt lat="49.83702" lon="2.16096">
        <ele>81.5</ele>
        <time>2023-03-29T12:46:45Z</time>
      </trkpt>
      <trkpt lat="49.83703" lon="2.16097">
        <ele>81.5</ele>
        <time>2023-03-29T12:46:46Z</time>
      </trkpt>
      <trkpt lat="49.83704" lon="2.16098">
        <ele>81.5</ele>
        <time>2023-03-29T12:46:47Z</time>
      </trkpt>
      <trkpt lat="49.83705" lon="2.161">
        <ele>81.5</ele>
        <time>2023-03-29T12:46:48Z</time>
      </trkpt>
      <trkpt lat="49.83706" lon="2.16102">
        <ele>81.5</ele>
        <time>2023-03-29T12:46:49Z</time>
      </trkpt>
      <trkpt lat="49.83707" lon="2.16103">
        <ele>81.5</ele>
        <time>2023-03-29T12:46:50Z</time>
      </trkpt>
      <trkpt lat="49.83708" lon="2.16104">
        <ele>81.5</ele>
        <time>2023-03-29T12:46:51Z</time>
      </trkpt>
      <trkpt lat="49.83709" lon="2.16107">
        <ele>81.5</ele>
        <time>2023-03-29T12:46:52Z</time>
      </trkpt>
      <trkpt lat="49.8371" lon="2.16107">
        <ele>81.5</ele>
        <time>2023-03-29T12:46:53Z</time>
      </trkpt>
      <trkpt lat="49.8371" lon="2.16108">
        <ele>81.5</ele>
        <time>2023-03-29T12:46:54Z</time>
      </trkpt>
      <trkpt lat="49.83712" lon="2.1611">
        <ele>81.5</ele>
        <time>2023-03-29T12:46:55Z</time>
      </trkpt>
      <trkpt lat="49.83713" lon="2.16111">
        <ele>81.5</ele>
        <time>2023-03-29T12:46:57Z</time>
      </trkpt>
      <trkpt lat="49.83713" lon="2.16113">
        <ele>81.5</ele>
        <time>2023-03-29T12:46:58Z</time>
      </trkpt>
      <trkpt lat="49.83714" lon="2.16114">
        <ele>81.5</ele>
        <time>2023-03-29T12:46:59Z</time>
      </trkpt>
      <trkpt lat="49.83716" lon="2.16117">
        <ele>81.5</ele>
        <time>2023-03-29T12:47:00Z</time>
      </trkpt>
      <trkpt lat="49.83717" lon="2.16118">
        <ele>81.5</ele>
        <time>2023-03-29T12:47:01Z</time>
      </trkpt>
      <trkpt lat="49.83718" lon="2.16119">
        <ele>81.5</ele>
        <time>2023-03-29T12:47:02Z</time>
      </trkpt>
      <trkpt lat="49.83718" lon="2.1612">
        <ele>81.5</ele>
        <time>2023-03-29T12:47:03Z</time>
      </trkpt>
      <trkpt lat="49.83719" lon="2.16121">
        <ele>81.5</ele>
        <time>2023-03-29T12:47:04Z</time>
      </trkpt>
      <trkpt lat="49.8372" lon="2.16122">
        <ele>81.5</ele>
        <time>2023-03-29T12:47:05Z</time>
      </trkpt>
      <trkpt lat="49.8372" lon="2.16124">
        <ele>81.5</ele>
        <time>2023-03-29T12:47:06Z</time>
      </trkpt>
      <trkpt lat="49.83721" lon="2.16126">
        <ele>81.5</ele>
        <time>2023-03-29T12:47:07Z</time>
      </trkpt>
      <trkpt lat="49.83722" lon="2.16127">
        <ele>81.5</ele>
        <time>2023-03-29T12:47:09Z</time>
      </trkpt>
      <trkpt lat="49.83722" lon="2.16128">
        <ele>81.5</ele>
        <time>2023-03-29T12:47:10Z</time>
      </trkpt>
      <trkpt lat="49.83723" lon="2.16129">
        <ele>81.5</ele>
        <time>2023-03-29T12:47:11Z</time>
      </trkpt>
      <trkpt lat="49.83724" lon="2.16132">
        <ele>81.5</ele>
        <time>2023-03-29T12:47:12Z</time>
      </trkpt>
      <trkpt lat="49.83725" lon="2.16132">
        <ele>81.5</ele>
        <time>2023-03-29T12:47:13Z</time>
      </trkpt>
      <trkpt lat="49.83726" lon="2.16133">
        <ele>81.5</ele>
        <time>2023-03-29T12:47:14Z</time>
      </trkpt>
      <trkpt lat="49.83726" lon="2.16135">
        <ele>81.5</ele>
        <time>2023-03-29T12:47:15Z</time>
      </trkpt>
      <trkpt lat="49.83727" lon="2.16136">
        <ele>81.5</ele>
        <time>2023-03-29T12:47:16Z</time>
      </trkpt>
      <trkpt lat="49.83728" lon="2.16138">
        <ele>81.5</ele>
        <time>2023-03-29T12:47:18Z</time>
      </trkpt>
      <trkpt lat="49.83729" lon="2.16139">
        <ele>81.5</ele>
        <time>2023-03-29T12:47:19Z</time>
      </trkpt>
      <trkpt lat="49.83729" lon="2.1614">
        <ele>81.5</ele>
        <time>2023-03-29T12:47:20Z</time>
      </trkpt>
      <trkpt lat="49.8373" lon="2.16142">
        <ele>81.5</ele>
        <time>2023-03-29T12:47:21Z</time>
      </trkpt>
      <trkpt lat="49.83731" lon="2.16143">
        <ele>81.5</ele>
        <time>2023-03-29T12:47:22Z</time>
      </trkpt>
      <trkpt lat="49.83732" lon="2.16146">
        <ele>81.5</ele>
        <time>2023-03-29T12:47:23Z</time>
      </trkpt>
      <trkpt lat="49.83733" lon="2.16147">
        <ele>81.5</ele>
        <time>2023-03-29T12:47:24Z</time>
      </trkpt>
      <trkpt lat="49.83734" lon="2.16148">
        <ele>81.5</ele>
        <time>2023-03-29T12:47:25Z</time>
      </trkpt>
      <trkpt lat="49.83736" lon="2.16152">
        <ele>81.5</ele>
        <time>2023-03-29T12:47:28Z</time>
      </trkpt>
      <trkpt lat="49.83737" lon="2.16152">
        <ele>81.5</ele>
        <time>2023-03-29T12:47:29Z</time>
      </trkpt>
      <trkpt lat="49.83738" lon="2.16153">
        <ele>81.6</ele>
        <time>2023-03-29T12:47:30Z</time>
      </trkpt>
      <trkpt lat="49.83739" lon="2.16155">
        <ele>81.6</ele>
        <time>2023-03-29T12:47:31Z</time>
      </trkpt>
      <trkpt lat="49.8374" lon="2.16157">
        <ele>81.6</ele>
        <time>2023-03-29T12:47:32Z</time>
      </trkpt>
      <trkpt lat="49.8374" lon="2.16158">
        <ele>81.6</ele>
        <time>2023-03-29T12:47:33Z</time>
      </trkpt>
      <trkpt lat="49.83741" lon="2.1616">
        <ele>81.6</ele>
        <time>2023-03-29T12:47:35Z</time>
      </trkpt>
      <trkpt lat="49.83742" lon="2.16161">
        <ele>81.6</ele>
        <time>2023-03-29T12:47:36Z</time>
      </trkpt>
      <trkpt lat="49.83742" lon="2.16163">
        <ele>81.6</ele>
        <time>2023-03-29T12:47:37Z</time>
      </trkpt>
      <trkpt lat="49.83743" lon="2.16165">
        <ele>81.6</ele>
        <time>2023-03-29T12:47:38Z</time>
      </trkpt>
      <trkpt lat="49.83745" lon="2.16167">
        <ele>81.6</ele>
        <time>2023-03-29T12:47:39Z</time>
      </trkpt>
      <trkpt lat="49.83745" lon="2.16168">
        <ele>81.6</ele>
        <time>2023-03-29T12:47:40Z</time>
      </trkpt>
      <trkpt lat="49.83747" lon="2.1617">
        <ele>81.6</ele>
        <time>2023-03-29T12:47:41Z</time>
      </trkpt>
      <trkpt lat="49.83747" lon="2.16171">
        <ele>81.6</ele>
        <time>2023-03-29T12:47:42Z</time>
      </trkpt>
      <trkpt lat="49.83748" lon="2.16172">
        <ele>81.6</ele>
        <time>2023-03-29T12:47:44Z</time>
      </trkpt>
      <trkpt lat="49.83749" lon="2.16173">
        <ele>81.6</ele>
        <time>2023-03-29T12:47:45Z</time>
      </trkpt>
      <trkpt lat="49.8375" lon="2.16174">
        <ele>81.6</ele>
        <time>2023-03-29T12:47:46Z</time>
      </trkpt>
      <trkpt lat="49.83751" lon="2.16175">
        <ele>81.6</ele>
        <time>2023-03-29T12:47:47Z</time>
      </trkpt>
      <trkpt lat="49.83752" lon="2.16177">
        <ele>81.6</ele>
        <time>2023-03-29T12:47:48Z</time>
      </trkpt>
      <trkpt lat="49.83753" lon="2.16178">
        <ele>81.6</ele>
        <time>2023-03-29T12:47:49Z</time>
      </trkpt>
      <trkpt lat="49.83754" lon="2.16179">
        <ele>81.6</ele>
        <time>2023-03-29T12:47:50Z</time>
      </trkpt>
      <trkpt lat="49.83755" lon="2.1618">
        <ele>81.6</ele>
        <time>2023-03-29T12:47:51Z</time>
      </trkpt>
      <trkpt lat="49.83756" lon="2.16182">
        <ele>81.6</ele>
        <time>2023-03-29T12:47:53Z</time>
      </trkpt>
      <trkpt lat="49.83757" lon="2.16183">
        <ele>81.6</ele>
        <time>2023-03-29T12:47:54Z</time>
      </trkpt>
      <trkpt lat="49.83757" lon="2.16184">
        <ele>81.6</ele>
        <time>2023-03-29T12:47:55Z</time>
      </trkpt>
      <trkpt lat="49.83758" lon="2.16185">
        <ele>81.5</ele>
        <time>2023-03-29T12:47:56Z</time>
      </trkpt>
      <trkpt lat="49.8376" lon="2.16188">
        <ele>81.5</ele>
        <time>2023-03-29T12:47:57Z</time>
      </trkpt>
      <trkpt lat="49.8376" lon="2.16188">
        <ele>81.5</ele>
        <time>2023-03-29T12:47:58Z</time>
      </trkpt>
      <trkpt lat="49.83761" lon="2.16189">
        <ele>81.5</ele>
        <time>2023-03-29T12:47:59Z</time>
      </trkpt>
      <trkpt lat="49.83763" lon="2.16191">
        <ele>81.4</ele>
        <time>2023-03-29T12:48:00Z</time>
      </trkpt>
      <trkpt lat="49.83763" lon="2.16192">
        <ele>81.4</ele>
        <time>2023-03-29T12:48:01Z</time>
      </trkpt>
      <trkpt lat="49.83764" lon="2.16193">
        <ele>81.4</ele>
        <time>2023-03-29T12:48:02Z</time>
      </trkpt>
      <trkpt lat="49.83766" lon="2.16195">
        <ele>81.4</ele>
        <time>2023-03-29T12:48:03Z</time>
      </trkpt>
      <trkpt lat="49.83766" lon="2.16196">
        <ele>81.3</ele>
        <time>2023-03-29T12:48:05Z</time>
      </trkpt>
      <trkpt lat="49.83767" lon="2.16197">
        <ele>81.3</ele>
        <time>2023-03-29T12:48:06Z</time>
      </trkpt>
      <trkpt lat="49.83768" lon="2.16197">
        <ele>81.3</ele>
        <time>2023-03-29T12:48:07Z</time>
      </trkpt>
      <trkpt lat="49.8377" lon="2.16199">
        <ele>81.3</ele>
        <time>2023-03-29T12:48:08Z</time>
      </trkpt>
      <trkpt lat="49.83772" lon="2.16201">
        <ele>81.2</ele>
        <time>2023-03-29T12:48:09Z</time>
      </trkpt>
      <trkpt lat="49.83773" lon="2.16203">
        <ele>81.2</ele>
        <time>2023-03-29T12:48:11Z</time>
      </trkpt>
      <trkpt lat="49.83774" lon="2.16204">
        <ele>81.2</ele>
        <time>2023-03-29T12:48:12Z</time>
      </trkpt>
      <trkpt lat="49.83775" lon="2.16205">
        <ele>81.1</ele>
        <time>2023-03-29T12:48:13Z</time>
      </trkpt>
      <trkpt lat="49.83777" lon="2.16206">
        <ele>81.1</ele>
        <time>2023-03-29T12:48:14Z</time>
      </trkpt>
      <trkpt lat="49.83778" lon="2.16207">
        <ele>81.1</ele>
        <time>2023-03-29T12:48:15Z</time>
      </trkpt>
      <trkpt lat="49.83779" lon="2.16209">
        <ele>81</ele>
        <time>2023-03-29T12:48:16Z</time>
      </trkpt>
      <trkpt lat="49.83781" lon="2.16211">
        <ele>81</ele>
        <time>2023-03-29T12:48:18Z</time>
      </trkpt>
      <trkpt lat="49.83781" lon="2.16211">
        <ele>81</ele>
        <time>2023-03-29T12:48:19Z</time>
      </trkpt>
      <trkpt lat="49.83782" lon="2.16212">
        <ele>81</ele>
        <time>2023-03-29T12:48:20Z</time>
      </trkpt>
      <trkpt lat="49.83784" lon="2.16213">
        <ele>80.9</ele>
        <time>2023-03-29T12:48:21Z</time>
      </trkpt>
      <trkpt lat="49.83786" lon="2.16214">
        <ele>80.9</ele>
        <time>2023-03-29T12:48:22Z</time>
      </trkpt>
      <trkpt lat="49.83786" lon="2.16215">
        <ele>80.8</ele>
        <time>2023-03-29T12:48:24Z</time>
      </trkpt>
      <trkpt lat="49.83786" lon="2.16216">
        <ele>80.8</ele>
        <time>2023-03-29T12:48:25Z</time>
      </trkpt>
      <trkpt lat="49.83788" lon="2.16218">
        <ele>80.8</ele>
        <time>2023-03-29T12:48:26Z</time>
      </trkpt>
      <trkpt lat="49.83789" lon="2.16219">
        <ele>80.7</ele>
        <time>2023-03-29T12:48:27Z</time>
      </trkpt>
      <trkpt lat="49.83789" lon="2.1622">
        <ele>80.7</ele>
        <time>2023-03-29T12:48:28Z</time>
      </trkpt>
      <trkpt lat="49.83791" lon="2.16222">
        <ele>80.7</ele>
        <time>2023-03-29T12:48:29Z</time>
      </trkpt>
      <trkpt lat="49.83792" lon="2.16223">
        <ele>80.6</ele>
        <time>2023-03-29T12:48:30Z</time>
      </trkpt>
      <trkpt lat="49.83793" lon="2.16224">
        <ele>80.6</ele>
        <time>2023-03-29T12:48:31Z</time>
      </trkpt>
      <trkpt lat="49.83794" lon="2.16226">
        <ele>80.5</ele>
        <time>2023-03-29T12:48:32Z</time>
      </trkpt>
      <trkpt lat="49.83795" lon="2.16227">
        <ele>80.5</ele>
        <time>2023-03-29T12:48:33Z</time>
      </trkpt>
      <trkpt lat="49.83796" lon="2.16228">
        <ele>80.4</ele>
        <time>2023-03-29T12:48:34Z</time>
      </trkpt>
      <trkpt lat="49.83797" lon="2.16229">
        <ele>80.4</ele>
        <time>2023-03-29T12:48:35Z</time>
      </trkpt>
      <trkpt lat="49.83799" lon="2.1623">
        <ele>80.3</ele>
        <time>2023-03-29T12:48:37Z</time>
      </trkpt>
      <trkpt lat="49.83801" lon="2.16232">
        <ele>80.2</ele>
        <time>2023-03-29T12:48:38Z</time>
      </trkpt>
      <trkpt lat="49.83802" lon="2.16232">
        <ele>80.2</ele>
        <time>2023-03-29T12:48:39Z</time>
      </trkpt>
      <trkpt lat="49.83803" lon="2.16234">
        <ele>80</ele>
        <time>2023-03-29T12:48:40Z</time>
      </trkpt>
      <trkpt lat="49.83804" lon="2.16235">
        <ele>80</ele>
        <time>2023-03-29T12:48:41Z</time>
      </trkpt>
      <trkpt lat="49.83805" lon="2.16236">
        <ele>79.9</ele>
        <time>2023-03-29T12:48:42Z</time>
      </trkpt>
      <trkpt lat="49.83807" lon="2.16237">
        <ele>79.8</ele>
        <time>2023-03-29T12:48:43Z</time>
      </trkpt>
      <trkpt lat="49.83808" lon="2.16238">
        <ele>79.8</ele>
        <time>2023-03-29T12:48:44Z</time>
      </trkpt>
      <trkpt lat="49.83809" lon="2.16239">
        <ele>79.7</ele>
        <time>2023-03-29T12:48:45Z</time>
      </trkpt>
      <trkpt lat="49.8381" lon="2.1624">
        <ele>79.6</ele>
        <time>2023-03-29T12:48:46Z</time>
      </trkpt>
      <trkpt lat="49.83811" lon="2.16242">
        <ele>79.5</ele>
        <time>2023-03-29T12:48:48Z</time>
      </trkpt>
      <trkpt lat="49.83813" lon="2.16243">
        <ele>79.4</ele>
        <time>2023-03-29T12:48:49Z</time>
      </trkpt>
      <trkpt lat="49.83815" lon="2.16244">
        <ele>79.3</ele>
        <time>2023-03-29T12:48:50Z</time>
      </trkpt>
      <trkpt lat="49.83816" lon="2.16244">
        <ele>79.3</ele>
        <time>2023-03-29T12:48:51Z</time>
      </trkpt>
      <trkpt lat="49.83817" lon="2.16245">
        <ele>79.2</ele>
        <time>2023-03-29T12:48:52Z</time>
      </trkpt>
      <trkpt lat="49.83819" lon="2.16246">
        <ele>79.1</ele>
        <time>2023-03-29T12:48:53Z</time>
      </trkpt>
      <trkpt lat="49.8382" lon="2.16247">
        <ele>79</ele>
        <time>2023-03-29T12:48:54Z</time>
      </trkpt>
      <trkpt lat="49.83822" lon="2.16248">
        <ele>78.9</ele>
        <time>2023-03-29T12:48:55Z</time>
      </trkpt>
      <trkpt lat="49.83823" lon="2.16249">
        <ele>78.8</ele>
        <time>2023-03-29T12:48:56Z</time>
      </trkpt>
      <trkpt lat="49.83824" lon="2.1625">
        <ele>78.8</ele>
        <time>2023-03-29T12:48:57Z</time>
      </trkpt>
      <trkpt lat="49.83825" lon="2.16254">
        <ele>78.6</ele>
        <time>2023-03-29T12:48:58Z</time>
      </trkpt>
      <trkpt lat="49.83825" lon="2.16255">
        <ele>78.6</ele>
        <time>2023-03-29T12:49:00Z</time>
      </trkpt>
      <trkpt lat="49.83825" lon="2.16257">
        <ele>78.5</ele>
        <time>2023-03-29T12:49:01Z</time>
      </trkpt>
      <trkpt lat="49.83825" lon="2.16258">
        <ele>78.5</ele>
        <time>2023-03-29T12:49:02Z</time>
      </trkpt>
      <trkpt lat="49.83825" lon="2.1626">
        <ele>78.4</ele>
        <time>2023-03-29T12:49:03Z</time>
      </trkpt>
      <trkpt lat="49.83826" lon="2.16262">
        <ele>78.4</ele>
        <time>2023-03-29T12:49:04Z</time>
      </trkpt>
      <trkpt lat="49.83826" lon="2.16263">
        <ele>78.3</ele>
        <time>2023-03-29T12:49:05Z</time>
      </trkpt>
      <trkpt lat="49.83827" lon="2.16265">
        <ele>78.2</ele>
        <time>2023-03-29T12:49:07Z</time>
      </trkpt>
      <trkpt lat="49.83828" lon="2.16264">
        <ele>78.2</ele>
        <time>2023-03-29T12:49:08Z</time>
      </trkpt>
      <trkpt lat="49.83829" lon="2.16264">
        <ele>78.1</ele>
        <time>2023-03-29T12:49:09Z</time>
      </trkpt>
      <trkpt lat="49.8383" lon="2.16264">
        <ele>78.1</ele>
        <time>2023-03-29T12:49:10Z</time>
      </trkpt>
      <trkpt lat="49.83831" lon="2.16265">
        <ele>78</ele>
        <time>2023-03-29T12:49:11Z</time>
      </trkpt>
      <trkpt lat="49.83832" lon="2.16266">
        <ele>78</ele>
        <time>2023-03-29T12:49:12Z</time>
      </trkpt>
      <trkpt lat="49.83832" lon="2.16266">
        <ele>78</ele>
        <time>2023-03-29T12:49:13Z</time>
      </trkpt>
      <trkpt lat="49.83833" lon="2.16267">
        <ele>77.9</ele>
        <time>2023-03-29T12:49:14Z</time>
      </trkpt>
      <trkpt lat="49.83834" lon="2.16267">
        <ele>77.9</ele>
        <time>2023-03-29T12:49:15Z</time>
      </trkpt>
      <trkpt lat="49.83834" lon="2.16267">
        <ele>77.9</ele>
        <time>2023-03-29T12:49:16Z</time>
      </trkpt>
      <trkpt lat="49.83835" lon="2.16267">
        <ele>77.9</ele>
        <time>2023-03-29T12:49:18Z</time>
      </trkpt>
      <trkpt lat="49.83835" lon="2.16268">
        <ele>77.9</ele>
        <time>2023-03-29T12:49:19Z</time>
      </trkpt>
      <trkpt lat="49.83836" lon="2.16268">
        <ele>77.8</ele>
        <time>2023-03-29T12:49:20Z</time>
      </trkpt>
      <trkpt lat="49.83838" lon="2.16268">
        <ele>77.8</ele>
        <time>2023-03-29T12:49:21Z</time>
      </trkpt>
      <trkpt lat="49.83838" lon="2.16269">
        <ele>77.7</ele>
        <time>2023-03-29T12:49:22Z</time>
      </trkpt>
      <trkpt lat="49.83838" lon="2.1627">
        <ele>77.7</ele>
        <time>2023-03-29T12:49:23Z</time>
      </trkpt>
      <trkpt lat="49.83838" lon="2.16271">
        <ele>77.7</ele>
        <time>2023-03-29T12:49:24Z</time>
      </trkpt>
      <trkpt lat="49.83838" lon="2.16271">
        <ele>77.7</ele>
        <time>2023-03-29T12:49:25Z</time>
      </trkpt>
      <trkpt lat="49.8384" lon="2.16273">
        <ele>77.6</ele>
        <time>2023-03-29T12:49:26Z</time>
      </trkpt>
      <trkpt lat="49.83841" lon="2.16274">
        <ele>77.6</ele>
        <time>2023-03-29T12:49:27Z</time>
      </trkpt>
      <trkpt lat="49.83842" lon="2.16274">
        <ele>77.5</ele>
        <time>2023-03-29T12:49:29Z</time>
      </trkpt>
      <trkpt lat="49.83843" lon="2.16275">
        <ele>77.5</ele>
        <time>2023-03-29T12:49:30Z</time>
      </trkpt>
      <trkpt lat="49.83843" lon="2.16276">
        <ele>77.5</ele>
        <time>2023-03-29T12:49:31Z</time>
      </trkpt>
      <trkpt lat="49.83844" lon="2.16277">
        <ele>77.4</ele>
        <time>2023-03-29T12:49:32Z</time>
      </trkpt>
      <trkpt lat="49.83846" lon="2.16278">
        <ele>77.4</ele>
        <time>2023-03-29T12:49:33Z</time>
      </trkpt>
      <trkpt lat="49.83847" lon="2.1628">
        <ele>77.3</ele>
        <time>2023-03-29T12:49:34Z</time>
      </trkpt>
      <trkpt lat="49.83848" lon="2.16282">
        <ele>77.2</ele>
        <time>2023-03-29T12:49:35Z</time>
      </trkpt>
      <trkpt lat="49.8385" lon="2.16284">
        <ele>77.2</ele>
        <time>2023-03-29T12:49:36Z</time>
      </trkpt>
      <trkpt lat="49.83851" lon="2.16285">
        <ele>77.1</ele>
        <time>2023-03-29T12:49:37Z</time>
      </trkpt>
      <trkpt lat="49.83853" lon="2.16286">
        <ele>77</ele>
        <time>2023-03-29T12:49:39Z</time>
      </trkpt>
      <trkpt lat="49.83855" lon="2.16287">
        <ele>77</ele>
        <time>2023-03-29T12:49:40Z</time>
      </trkpt>
      <trkpt lat="49.83857" lon="2.16288">
        <ele>76.9</ele>
        <time>2023-03-29T12:49:41Z</time>
      </trkpt>
      <trkpt lat="49.8386" lon="2.16289">
        <ele>76.8</ele>
        <time>2023-03-29T12:49:42Z</time>
      </trkpt>
      <trkpt lat="49.8386" lon="2.16289">
        <ele>76.8</ele>
        <time>2023-03-29T12:49:43Z</time>
      </trkpt>
      <trkpt lat="49.83863" lon="2.1629">
        <ele>76.7</ele>
        <time>2023-03-29T12:49:44Z</time>
      </trkpt>
      <trkpt lat="49.83863" lon="2.1629">
        <ele>76.7</ele>
        <time>2023-03-29T12:49:46Z</time>
      </trkpt>
      <trkpt lat="49.83864" lon="2.16291">
        <ele>76.6</ele>
        <time>2023-03-29T12:49:47Z</time>
      </trkpt>
      <trkpt lat="49.83865" lon="2.16292">
        <ele>76.6</ele>
        <time>2023-03-29T12:49:48Z</time>
      </trkpt>
      <trkpt lat="49.83866" lon="2.16292">
        <ele>76.6</ele>
        <time>2023-03-29T12:49:49Z</time>
      </trkpt>
      <trkpt lat="49.83867" lon="2.16292">
        <ele>76.5</ele>
        <time>2023-03-29T12:49:51Z</time>
      </trkpt>
      <trkpt lat="49.83868" lon="2.16293">
        <ele>76.5</ele>
        <time>2023-03-29T12:49:52Z</time>
      </trkpt>
      <trkpt lat="49.83868" lon="2.16293">
        <ele>76.5</ele>
        <time>2023-03-29T12:49:53Z</time>
      </trkpt>
      <trkpt lat="49.8387" lon="2.16294">
        <ele>76.4</ele>
        <time>2023-03-29T12:49:55Z</time>
      </trkpt>
      <trkpt lat="49.8387" lon="2.16294">
        <ele>76.4</ele>
        <time>2023-03-29T12:49:56Z</time>
      </trkpt>
      <trkpt lat="49.8387" lon="2.16293">
        <ele>76.4</ele>
        <time>2023-03-29T12:49:58Z</time>
      </trkpt>
      <trkpt lat="49.8387" lon="2.16293">
        <ele>76.4</ele>
        <time>2023-03-29T12:49:59Z</time>
      </trkpt>
      <trkpt lat="49.8387" lon="2.16293">
        <ele>76.4</ele>
        <time>2023-03-29T12:50:01Z</time>
      </trkpt>
      <trkpt lat="49.8387" lon="2.16293">
        <ele>76.4</ele>
        <time>2023-03-29T12:50:02Z</time>
      </trkpt>
      <trkpt lat="49.83869" lon="2.16293">
        <ele>76.4</ele>
        <time>2023-03-29T12:50:03Z</time>
      </trkpt>
      <trkpt lat="49.83868" lon="2.16293">
        <ele>76.4</ele>
        <time>2023-03-29T12:50:04Z</time>
      </trkpt>
      <trkpt lat="49.83868" lon="2.16293">
        <ele>76.3</ele>
        <time>2023-03-29T12:50:05Z</time>
      </trkpt>
      <trkpt lat="49.83868" lon="2.16293">
        <ele>76.3</ele>
        <time>2023-03-29T12:50:07Z</time>
      </trkpt>
      <trkpt lat="49.83867" lon="2.16293">
        <ele>76.3</ele>
        <time>2023-03-29T12:50:08Z</time>
      </trkpt>
      <trkpt lat="49.83867" lon="2.16294">
        <ele>76.3</ele>
        <time>2023-03-29T12:50:09Z</time>
      </trkpt>
      <trkpt lat="49.83867" lon="2.16295">
        <ele>76.3</ele>
        <time>2023-03-29T12:50:11Z</time>
      </trkpt>
      <trkpt lat="49.83866" lon="2.16296">
        <ele>76.2</ele>
        <time>2023-03-29T12:50:12Z</time>
      </trkpt>
      <trkpt lat="49.83867" lon="2.16299">
        <ele>76.2</ele>
        <time>2023-03-29T12:50:14Z</time>
      </trkpt>
      <trkpt lat="49.83867" lon="2.163">
        <ele>76.2</ele>
        <time>2023-03-29T12:50:15Z</time>
      </trkpt>
      <trkpt lat="49.83867" lon="2.16303">
        <ele>75.9</ele>
        <time>2023-03-29T12:50:17Z</time>
      </trkpt>
      <trkpt lat="49.83868" lon="2.16304">
        <ele>75.9</ele>
        <time>2023-03-29T12:50:18Z</time>
      </trkpt>
      <trkpt lat="49.83868" lon="2.16306">
        <ele>75.9</ele>
        <time>2023-03-29T12:50:19Z</time>
      </trkpt>
      <trkpt lat="49.83869" lon="2.16306">
        <ele>75.9</ele>
        <time>2023-03-29T12:50:20Z</time>
      </trkpt>
      <trkpt lat="49.83869" lon="2.16306">
        <ele>75.9</ele>
        <time>2023-03-29T12:50:21Z</time>
      </trkpt>
      <trkpt lat="49.83869" lon="2.16307">
        <ele>75.9</ele>
        <time>2023-03-29T12:50:22Z</time>
      </trkpt>
      <trkpt lat="49.83869" lon="2.16307">
        <ele>75.9</ele>
        <time>2023-03-29T12:50:23Z</time>
      </trkpt>
      <trkpt lat="49.8387" lon="2.16307">
        <ele>75.9</ele>
        <time>2023-03-29T12:50:24Z</time>
      </trkpt>
      <trkpt lat="49.8387" lon="2.16308">
        <ele>75.8</ele>
        <time>2023-03-29T12:50:25Z</time>
      </trkpt>
      <trkpt lat="49.8387" lon="2.16307">
        <ele>75.8</ele>
        <time>2023-03-29T12:50:26Z</time>
      </trkpt>
      <trkpt lat="49.8387" lon="2.16307">
        <ele>75.8</ele>
        <time>2023-03-29T12:50:28Z</time>
      </trkpt>
      <trkpt lat="49.83869" lon="2.16307">
        <ele>75.8</ele>
        <time>2023-03-29T12:50:29Z</time>
      </trkpt>
      <trkpt lat="49.83869" lon="2.16307">
        <ele>75.8</ele>
        <time>2023-03-29T12:50:30Z</time>
      </trkpt>
      <trkpt lat="49.8387" lon="2.16307">
        <ele>75.8</ele>
        <time>2023-03-29T12:50:31Z</time>
      </trkpt>
      <trkpt lat="49.8387" lon="2.16308">
        <ele>75.8</ele>
        <time>2023-03-29T12:50:32Z</time>
      </trkpt>
      <trkpt lat="49.83871" lon="2.16308">
        <ele>75.8</ele>
        <time>2023-03-29T12:50:34Z</time>
      </trkpt>
      <trkpt lat="49.83872" lon="2.16308">
        <ele>75.8</ele>
        <time>2023-03-29T12:50:35Z</time>
      </trkpt>
      <trkpt lat="49.83873" lon="2.16308">
        <ele>75.8</ele>
        <time>2023-03-29T12:50:36Z</time>
      </trkpt>
      <trkpt lat="49.83876" lon="2.16311">
        <ele>75.8</ele>
        <time>2023-03-29T12:50:38Z</time>
      </trkpt>
      <trkpt lat="49.83876" lon="2.16312">
        <ele>75.7</ele>
        <time>2023-03-29T12:50:40Z</time>
      </trkpt>
      <trkpt lat="49.83877" lon="2.16312">
        <ele>75.7</ele>
        <time>2023-03-29T12:50:42Z</time>
      </trkpt>
      <trkpt lat="49.83877" lon="2.16313">
        <ele>75.7</ele>
        <time>2023-03-29T12:50:43Z</time>
      </trkpt>
      <trkpt lat="49.83877" lon="2.16313">
        <ele>75.7</ele>
        <time>2023-03-29T12:50:44Z</time>
      </trkpt>
      <trkpt lat="49.83877" lon="2.16313">
        <ele>75.7</ele>
        <time>2023-03-29T12:50:45Z</time>
      </trkpt>
      <trkpt lat="49.83877" lon="2.16313">
        <ele>75.7</ele>
        <time>2023-03-29T12:50:47Z</time>
      </trkpt>
      <trkpt lat="49.83877" lon="2.16313">
        <ele>75.7</ele>
        <time>2023-03-29T12:50:48Z</time>
      </trkpt>
      <trkpt lat="49.83878" lon="2.16312">
        <ele>75.7</ele>
        <time>2023-03-29T12:50:49Z</time>
      </trkpt>
      <trkpt lat="49.83878" lon="2.16312">
        <ele>75.7</ele>
        <time>2023-03-29T12:50:51Z</time>
      </trkpt>
      <trkpt lat="49.83878" lon="2.16312">
        <ele>75.7</ele>
        <time>2023-03-29T12:50:52Z</time>
      </trkpt>
      <trkpt lat="49.83878" lon="2.16313">
        <ele>75.7</ele>
        <time>2023-03-29T12:50:53Z</time>
      </trkpt>
      <trkpt lat="49.83879" lon="2.16313">
        <ele>75.7</ele>
        <time>2023-03-29T12:50:55Z</time>
      </trkpt>
      <trkpt lat="49.83879" lon="2.16313">
        <ele>75.7</ele>
        <time>2023-03-29T12:50:56Z</time>
      </trkpt>
      <trkpt lat="49.8388" lon="2.16314">
        <ele>75.7</ele>
        <time>2023-03-29T12:50:57Z</time>
      </trkpt>
      <trkpt lat="49.8388" lon="2.16314">
        <ele>75.7</ele>
        <time>2023-03-29T12:50:58Z</time>
      </trkpt>
      <trkpt lat="49.83879" lon="2.16313">
        <ele>75.7</ele>
        <time>2023-03-29T12:51:00Z</time>
      </trkpt>
      <trkpt lat="49.83879" lon="2.16313">
        <ele>75.7</ele>
        <time>2023-03-29T12:51:01Z</time>
      </trkpt>
      <trkpt lat="49.83879" lon="2.16313">
        <ele>75.7</ele>
        <time>2023-03-29T12:51:02Z</time>
      </trkpt>
      <trkpt lat="49.83879" lon="2.16313">
        <ele>75.7</ele>
        <time>2023-03-29T12:51:03Z</time>
      </trkpt>
      <trkpt lat="49.83879" lon="2.16313">
        <ele>75.7</ele>
        <time>2023-03-29T12:51:04Z</time>
      </trkpt>
      <trkpt lat="49.83879" lon="2.16313">
        <ele>75.7</ele>
        <time>2023-03-29T12:51:06Z</time>
      </trkpt>
      <trkpt lat="49.83879" lon="2.16313">
        <ele>75.7</ele>
        <time>2023-03-29T12:51:07Z</time>
      </trkpt>
      <trkpt lat="49.83879" lon="2.16313">
        <ele>75.7</ele>
        <time>2023-03-29T12:51:08Z</time>
      </trkpt>
      <trkpt lat="49.83878" lon="2.16314">
        <ele>75.7</ele>
        <time>2023-03-29T12:51:10Z</time>
      </trkpt>
      <trkpt lat="49.83878" lon="2.16313">
        <ele>75.7</ele>
        <time>2023-03-29T12:51:11Z</time>
      </trkpt>
      <trkpt lat="49.83879" lon="2.16313">
        <ele>75.7</ele>
        <time>2023-03-29T12:51:12Z</time>
      </trkpt>
      <trkpt lat="49.83879" lon="2.16313">
        <ele>75.7</ele>
        <time>2023-03-29T12:51:13Z</time>
      </trkpt>
      <trkpt lat="49.83879" lon="2.16312">
        <ele>75.6</ele>
        <time>2023-03-29T12:51:15Z</time>
      </trkpt>
      <trkpt lat="49.83879" lon="2.16312">
        <ele>75.6</ele>
        <time>2023-03-29T12:51:16Z</time>
      </trkpt>
      <trkpt lat="49.83879" lon="2.16312">
        <ele>75.6</ele>
        <time>2023-03-29T12:51:17Z</time>
      </trkpt>
      <trkpt lat="49.83879" lon="2.16312">
        <ele>75.6</ele>
        <time>2023-03-29T12:51:19Z</time>
      </trkpt>
      <trkpt lat="49.83879" lon="2.16312">
        <ele>75.6</ele>
        <time>2023-03-29T12:51:20Z</time>
      </trkpt>
      <trkpt lat="49.83879" lon="2.16312">
        <ele>75.6</ele>
        <time>2023-03-29T12:51:22Z</time>
      </trkpt>
      <trkpt lat="49.83879" lon="2.16312">
        <ele>75.6</ele>
        <time>2023-03-29T12:51:23Z</time>
      </trkpt>
      <trkpt lat="49.83879" lon="2.16312">
        <ele>75.6</ele>
        <time>2023-03-29T12:51:25Z</time>
      </trkpt>
      <trkpt lat="49.83879" lon="2.16312">
        <ele>75.6</ele>
        <time>2023-03-29T12:51:26Z</time>
      </trkpt>
      <trkpt lat="49.83879" lon="2.16312">
        <ele>75.6</ele>
        <time>2023-03-29T12:51:27Z</time>
      </trkpt>
      <trkpt lat="49.83879" lon="2.16312">
        <ele>75.6</ele>
        <time>2023-03-29T12:51:28Z</time>
      </trkpt>
      <trkpt lat="49.83879" lon="2.16312">
        <ele>75.6</ele>
        <time>2023-03-29T12:51:30Z</time>
      </trkpt>
      <trkpt lat="49.83879" lon="2.16312">
        <ele>75.6</ele>
        <time>2023-03-29T12:51:32Z</time>
      </trkpt>
      <trkpt lat="49.83879" lon="2.16313">
        <ele>75.6</ele>
        <time>2023-03-29T12:51:33Z</time>
      </trkpt>
      <trkpt lat="49.83879" lon="2.16313">
        <ele>75.6</ele>
        <time>2023-03-29T12:51:34Z</time>
      </trkpt>
      <trkpt lat="49.83879" lon="2.16313">
        <ele>75.6</ele>
        <time>2023-03-29T12:51:35Z</time>
      </trkpt>
      <trkpt lat="49.83879" lon="2.16313">
        <ele>75.6</ele>
        <time>2023-03-29T12:51:36Z</time>
      </trkpt>
      <trkpt lat="49.83879" lon="2.16313">
        <ele>75.6</ele>
        <time>2023-03-29T12:51:37Z</time>
      </trkpt>
      <trkpt lat="49.83879" lon="2.16313">
        <ele>75.6</ele>
        <time>2023-03-29T12:51:38Z</time>
      </trkpt>
      <trkpt lat="49.83879" lon="2.16313">
        <ele>75.6</ele>
        <time>2023-03-29T12:51:39Z</time>
      </trkpt>
      <trkpt lat="49.83879" lon="2.16313">
        <ele>75.6</ele>
        <time>2023-03-29T12:51:40Z</time>
      </trkpt>
      <trkpt lat="49.83879" lon="2.16313">
        <ele>75.6</ele>
        <time>2023-03-29T12:51:41Z</time>
      </trkpt>
      <trkpt lat="49.83879" lon="2.16313">
        <ele>75.6</ele>
        <time>2023-03-29T12:51:42Z</time>
      </trkpt>
      <trkpt lat="49.83879" lon="2.16313">
        <ele>75.6</ele>
        <time>2023-03-29T12:51:43Z</time>
      </trkpt>
      <trkpt lat="49.83879" lon="2.16313">
        <ele>75.6</ele>
        <time>2023-03-29T12:51:44Z</time>
      </trkpt>
      <trkpt lat="49.83879" lon="2.16313">
        <ele>75.6</ele>
        <time>2023-03-29T12:51:45Z</time>
      </trkpt>
      <trkpt lat="49.83879" lon="2.16313">
        <ele>75.6</ele>
        <time>2023-03-29T12:51:46Z</time>
      </trkpt>
      <trkpt lat="49.83879" lon="2.16313">
        <ele>75.6</ele>
        <time>2023-03-29T12:51:47Z</time>
      </trkpt>
      <trkpt lat="49.83878" lon="2.16312">
        <ele>75.6</ele>
        <time>2023-03-29T12:51:48Z</time>
      </trkpt>
      <trkpt lat="49.83879" lon="2.16312">
        <ele>75.6</ele>
        <time>2023-03-29T12:51:50Z</time>
      </trkpt>
      <trkpt lat="49.83879" lon="2.16313">
        <ele>75.6</ele>
        <time>2023-03-29T12:51:51Z</time>
      </trkpt>
      <trkpt lat="49.8388" lon="2.16313">
        <ele>75.6</ele>
        <time>2023-03-29T12:51:52Z</time>
      </trkpt>
      <trkpt lat="49.83881" lon="2.16312">
        <ele>75.6</ele>
        <time>2023-03-29T12:51:54Z</time>
      </trkpt>
      <trkpt lat="49.83881" lon="2.16312">
        <ele>75.6</ele>
        <time>2023-03-29T12:51:55Z</time>
      </trkpt>
      <trkpt lat="49.83881" lon="2.16312">
        <ele>75.6</ele>
        <time>2023-03-29T12:51:56Z</time>
      </trkpt>
      <trkpt lat="49.83881" lon="2.16312">
        <ele>75.6</ele>
        <time>2023-03-29T12:51:57Z</time>
      </trkpt>
      <trkpt lat="49.83881" lon="2.16312">
        <ele>75.6</ele>
        <time>2023-03-29T12:51:59Z</time>
      </trkpt>
      <trkpt lat="49.83881" lon="2.16312">
        <ele>75.6</ele>
        <time>2023-03-29T12:52:00Z</time>
      </trkpt>
      <trkpt lat="49.83881" lon="2.16312">
        <ele>75.6</ele>
        <time>2023-03-29T12:52:02Z</time>
      </trkpt>
      <trkpt lat="49.83881" lon="2.16312">
        <ele>75.6</ele>
        <time>2023-03-29T12:52:03Z</time>
      </trkpt>
      <trkpt lat="49.83882" lon="2.16312">
        <ele>75.6</ele>
        <time>2023-03-29T12:52:04Z</time>
      </trkpt>
      <trkpt lat="49.83882" lon="2.16312">
        <ele>75.6</ele>
        <time>2023-03-29T12:52:06Z</time>
      </trkpt>
      <trkpt lat="49.83882" lon="2.16312">
        <ele>75.6</ele>
        <time>2023-03-29T12:52:07Z</time>
      </trkpt>
      <trkpt lat="49.83882" lon="2.16312">
        <ele>75.6</ele>
        <time>2023-03-29T12:52:09Z</time>
      </trkpt>
      <trkpt lat="49.83882" lon="2.16312">
        <ele>75.6</ele>
        <time>2023-03-29T12:52:10Z</time>
      </trkpt>
      <trkpt lat="49.83882" lon="2.16312">
        <ele>75.6</ele>
        <time>2023-03-29T12:52:12Z</time>
      </trkpt>
      <trkpt lat="49.83882" lon="2.16312">
        <ele>75.6</ele>
        <time>2023-03-29T12:52:13Z</time>
      </trkpt>
      <trkpt lat="49.83882" lon="2.16312">
        <ele>75.6</ele>
        <time>2023-03-29T12:52:15Z</time>
      </trkpt>
      <trkpt lat="49.83883" lon="2.16312">
        <ele>75.6</ele>
        <time>2023-03-29T12:52:16Z</time>
      </trkpt>
      <trkpt lat="49.83883" lon="2.16312">
        <ele>75.6</ele>
        <time>2023-03-29T12:52:17Z</time>
      </trkpt>
      <trkpt lat="49.83883" lon="2.16313">
        <ele>75.6</ele>
        <time>2023-03-29T12:52:19Z</time>
      </trkpt>
      <trkpt lat="49.83883" lon="2.16313">
        <ele>75.6</ele>
        <time>2023-03-29T12:52:20Z</time>
      </trkpt>
      <trkpt lat="49.83883" lon="2.16313">
        <ele>75.6</ele>
        <time>2023-03-29T12:52:22Z</time>
      </trkpt>
      <trkpt lat="49.83883" lon="2.16313">
        <ele>75.6</ele>
        <time>2023-03-29T12:52:23Z</time>
      </trkpt>
      <trkpt lat="49.83883" lon="2.16313">
        <ele>75.6</ele>
        <time>2023-03-29T12:52:24Z</time>
      </trkpt>
      <trkpt lat="49.83884" lon="2.16313">
        <ele>75.6</ele>
        <time>2023-03-29T12:52:26Z</time>
      </trkpt>
      <trkpt lat="49.83884" lon="2.16313">
        <ele>75.6</ele>
        <time>2023-03-29T12:52:27Z</time>
      </trkpt>
      <trkpt lat="49.83884" lon="2.16313">
        <ele>75.5</ele>
        <time>2023-03-29T12:52:28Z</time>
      </trkpt>
      <trkpt lat="49.83884" lon="2.16313">
        <ele>75.5</ele>
        <time>2023-03-29T12:52:29Z</time>
      </trkpt>
      <trkpt lat="49.83884" lon="2.16313">
        <ele>75.5</ele>
        <time>2023-03-29T12:52:30Z</time>
      </trkpt>
      <trkpt lat="49.83884" lon="2.16313">
        <ele>75.5</ele>
        <time>2023-03-29T12:52:31Z</time>
      </trkpt>
      <trkpt lat="49.83884" lon="2.16313">
        <ele>75.5</ele>
        <time>2023-03-29T12:52:32Z</time>
      </trkpt>
      <trkpt lat="49.83884" lon="2.16313">
        <ele>75.5</ele>
        <time>2023-03-29T12:52:33Z</time>
      </trkpt>
      <trkpt lat="49.83885" lon="2.16313">
        <ele>75.5</ele>
        <time>2023-03-29T12:52:34Z</time>
      </trkpt>
      <trkpt lat="49.83885" lon="2.16313">
        <ele>75.5</ele>
        <time>2023-03-29T12:52:35Z</time>
      </trkpt>
      <trkpt lat="49.83885" lon="2.16313">
        <ele>75.5</ele>
        <time>2023-03-29T12:52:36Z</time>
      </trkpt>
      <trkpt lat="49.83885" lon="2.16313">
        <ele>75.5</ele>
        <time>2023-03-29T12:52:37Z</time>
      </trkpt>
      <trkpt lat="49.83885" lon="2.16313">
        <ele>75.5</ele>
        <time>2023-03-29T12:52:38Z</time>
      </trkpt>
      <trkpt lat="49.83885" lon="2.16313">
        <ele>75.5</ele>
        <time>2023-03-29T12:52:39Z</time>
      </trkpt>
      <trkpt lat="49.83885" lon="2.16313">
        <ele>75.5</ele>
        <time>2023-03-29T12:52:40Z</time>
      </trkpt>
      <trkpt lat="49.83885" lon="2.16313">
        <ele>75.5</ele>
        <time>2023-03-29T12:52:41Z</time>
      </trkpt>
      <trkpt lat="49.83886" lon="2.16313">
        <ele>75.5</ele>
        <time>2023-03-29T12:52:42Z</time>
      </trkpt>
      <trkpt lat="49.83886" lon="2.16313">
        <ele>75.5</ele>
        <time>2023-03-29T12:52:43Z</time>
      </trkpt>
      <trkpt lat="49.83886" lon="2.16313">
        <ele>75.5</ele>
        <time>2023-03-29T12:52:44Z</time>
      </trkpt>
      <trkpt lat="49.83886" lon="2.16313">
        <ele>75.4</ele>
        <time>2023-03-29T12:52:45Z</time>
      </trkpt>
      <trkpt lat="49.83886" lon="2.16313">
        <ele>75.4</ele>
        <time>2023-03-29T12:52:46Z</time>
      </trkpt>
      <trkpt lat="49.83886" lon="2.16313">
        <ele>75.4</ele>
        <time>2023-03-29T12:52:47Z</time>
      </trkpt>
      <trkpt lat="49.83886" lon="2.16313">
        <ele>75.4</ele>
        <time>2023-03-29T12:52:48Z</time>
      </trkpt>
      <trkpt lat="49.83886" lon="2.16313">
        <ele>75.4</ele>
        <time>2023-03-29T12:52:49Z</time>
      </trkpt>
      <trkpt lat="49.83887" lon="2.16313">
        <ele>75.4</ele>
        <time>2023-03-29T12:52:50Z</time>
      </trkpt>
      <trkpt lat="49.83887" lon="2.16313">
        <ele>75.4</ele>
        <time>2023-03-29T12:52:51Z</time>
      </trkpt>
      <trkpt lat="49.83887" lon="2.16313">
        <ele>75.4</ele>
        <time>2023-03-29T12:52:52Z</time>
      </trkpt>
      <trkpt lat="49.83887" lon="2.16313">
        <ele>75.4</ele>
        <time>2023-03-29T12:52:53Z</time>
      </trkpt>
      <trkpt lat="49.83887" lon="2.16313">
        <ele>75.4</ele>
        <time>2023-03-29T12:52:54Z</time>
      </trkpt>
      <trkpt lat="49.83887" lon="2.16313">
        <ele>75.4</ele>
        <time>2023-03-29T12:52:55Z</time>
      </trkpt>
      <trkpt lat="49.83887" lon="2.16313">
        <ele>75.4</ele>
        <time>2023-03-29T12:52:56Z</time>
      </trkpt>
      <trkpt lat="49.83888" lon="2.16313">
        <ele>75.4</ele>
        <time>2023-03-29T12:52:57Z</time>
      </trkpt>
      <trkpt lat="49.83888" lon="2.16313">
        <ele>75.4</ele>
        <time>2023-03-29T12:52:58Z</time>
      </trkpt>
      <trkpt lat="49.83888" lon="2.16313">
        <ele>75.4</ele>
        <time>2023-03-29T12:52:59Z</time>
      </trkpt>
      <trkpt lat="49.83888" lon="2.16313">
        <ele>75.4</ele>
        <time>2023-03-29T12:53:00Z</time>
      </trkpt>
      <trkpt lat="49.83888" lon="2.16313">
        <ele>75.4</ele>
        <time>2023-03-29T12:53:02Z</time>
      </trkpt>
      <trkpt lat="49.83888" lon="2.16313">
        <ele>75.4</ele>
        <time>2023-03-29T12:53:03Z</time>
      </trkpt>
      <trkpt lat="49.83888" lon="2.16313">
        <ele>75.4</ele>
        <time>2023-03-29T12:53:04Z</time>
      </trkpt>
      <trkpt lat="49.83889" lon="2.16313">
        <ele>75.4</ele>
        <time>2023-03-29T12:53:05Z</time>
      </trkpt>
      <trkpt lat="49.8389" lon="2.16313">
        <ele>75.4</ele>
        <time>2023-03-29T12:53:06Z</time>
      </trkpt>
      <trkpt lat="49.83891" lon="2.16313">
        <ele>75.4</ele>
        <time>2023-03-29T12:53:07Z</time>
      </trkpt>
      <trkpt lat="49.83892" lon="2.16314">
        <ele>75.4</ele>
        <time>2023-03-29T12:53:09Z</time>
      </trkpt>
      <trkpt lat="49.83892" lon="2.16317">
        <ele>75.4</ele>
        <time>2023-03-29T12:53:10Z</time>
      </trkpt>
      <trkpt lat="49.83892" lon="2.16318">
        <ele>75.4</ele>
        <time>2023-03-29T12:53:11Z</time>
      </trkpt>
      <trkpt lat="49.83894" lon="2.16321">
        <ele>75.3</ele>
        <time>2023-03-29T12:53:12Z</time>
      </trkpt>
      <trkpt lat="49.83894" lon="2.16322">
        <ele>75.2</ele>
        <time>2023-03-29T12:53:13Z</time>
      </trkpt>
      <trkpt lat="49.83895" lon="2.16323">
        <ele>75.2</ele>
        <time>2023-03-29T12:53:14Z</time>
      </trkpt>
      <trkpt lat="49.83895" lon="2.16324">
        <ele>75.2</ele>
        <time>2023-03-29T12:53:16Z</time>
      </trkpt>
      <trkpt lat="49.83896" lon="2.16326">
        <ele>75.2</ele>
        <time>2023-03-29T12:53:17Z</time>
      </trkpt>
      <trkpt lat="49.83896" lon="2.16326">
        <ele>75.2</ele>
        <time>2023-03-29T12:53:18Z</time>
      </trkpt>
      <trkpt lat="49.83897" lon="2.16327">
        <ele>75.1</ele>
        <time>2023-03-29T12:53:19Z</time>
      </trkpt>
      <trkpt lat="49.83897" lon="2.16327">
        <ele>75.1</ele>
        <time>2023-03-29T12:53:20Z</time>
      </trkpt>
      <trkpt lat="49.83898" lon="2.16328">
        <ele>75.1</ele>
        <time>2023-03-29T12:53:21Z</time>
      </trkpt>
      <trkpt lat="49.83899" lon="2.16329">
        <ele>75.1</ele>
        <time>2023-03-29T12:53:23Z</time>
      </trkpt>
      <trkpt lat="49.839" lon="2.16331">
        <ele>75.1</ele>
        <time>2023-03-29T12:53:24Z</time>
      </trkpt>
      <trkpt lat="49.839" lon="2.16333">
        <ele>75</ele>
        <time>2023-03-29T12:53:25Z</time>
      </trkpt>
      <trkpt lat="49.83901" lon="2.16334">
        <ele>75</ele>
        <time>2023-03-29T12:53:27Z</time>
      </trkpt>
      <trkpt lat="49.83901" lon="2.16336">
        <ele>75</ele>
        <time>2023-03-29T12:53:28Z</time>
      </trkpt>
      <trkpt lat="49.83902" lon="2.16337">
        <ele>75</ele>
        <time>2023-03-29T12:53:29Z</time>
      </trkpt>
      <trkpt lat="49.83903" lon="2.16338">
        <ele>74.9</ele>
        <time>2023-03-29T12:53:30Z</time>
      </trkpt>
      <trkpt lat="49.83904" lon="2.1634">
        <ele>74.9</ele>
        <time>2023-03-29T12:53:31Z</time>
      </trkpt>
      <trkpt lat="49.83904" lon="2.16342">
        <ele>74.9</ele>
        <time>2023-03-29T12:53:33Z</time>
      </trkpt>
      <trkpt lat="49.83904" lon="2.16342">
        <ele>74.9</ele>
        <time>2023-03-29T12:53:34Z</time>
      </trkpt>
      <trkpt lat="49.83905" lon="2.16344">
        <ele>74.9</ele>
        <time>2023-03-29T12:53:35Z</time>
      </trkpt>
      <trkpt lat="49.83905" lon="2.16346">
        <ele>74.8</ele>
        <time>2023-03-29T12:53:36Z</time>
      </trkpt>
      <trkpt lat="49.83906" lon="2.16348">
        <ele>74.8</ele>
        <time>2023-03-29T12:53:37Z</time>
      </trkpt>
      <trkpt lat="49.83907" lon="2.1635">
        <ele>74.8</ele>
        <time>2023-03-29T12:53:39Z</time>
      </trkpt>
      <trkpt lat="49.83907" lon="2.16351">
        <ele>74.8</ele>
        <time>2023-03-29T12:53:40Z</time>
      </trkpt>
      <trkpt lat="49.83908" lon="2.16353">
        <ele>74.9</ele>
        <time>2023-03-29T12:53:41Z</time>
      </trkpt>
      <trkpt lat="49.83909" lon="2.16355">
        <ele>74.9</ele>
        <time>2023-03-29T12:53:43Z</time>
      </trkpt>
      <trkpt lat="49.83909" lon="2.16356">
        <ele>74.9</ele>
        <time>2023-03-29T12:53:44Z</time>
      </trkpt>
      <trkpt lat="49.83909" lon="2.16356">
        <ele>74.9</ele>
        <time>2023-03-29T12:53:46Z</time>
      </trkpt>
      <trkpt lat="49.83909" lon="2.16357">
        <ele>75</ele>
        <time>2023-03-29T12:53:47Z</time>
      </trkpt>
      <trkpt lat="49.83909" lon="2.16358">
        <ele>75</ele>
        <time>2023-03-29T12:53:49Z</time>
      </trkpt>
      <trkpt lat="49.83909" lon="2.16359">
        <ele>75</ele>
        <time>2023-03-29T12:53:50Z</time>
      </trkpt>
      <trkpt lat="49.83909" lon="2.16359">
        <ele>75</ele>
        <time>2023-03-29T12:53:51Z</time>
      </trkpt>
      <trkpt lat="49.83909" lon="2.1636">
        <ele>75</ele>
        <time>2023-03-29T12:53:52Z</time>
      </trkpt>
      <trkpt lat="49.83908" lon="2.16361">
        <ele>75</ele>
        <time>2023-03-29T12:53:53Z</time>
      </trkpt>
      <trkpt lat="49.83908" lon="2.16362">
        <ele>75.1</ele>
        <time>2023-03-29T12:53:54Z</time>
      </trkpt>
      <trkpt lat="49.83908" lon="2.16363">
        <ele>75.1</ele>
        <time>2023-03-29T12:53:55Z</time>
      </trkpt>
      <trkpt lat="49.83908" lon="2.16363">
        <ele>75.1</ele>
        <time>2023-03-29T12:53:56Z</time>
      </trkpt>
      <trkpt lat="49.83908" lon="2.16364">
        <ele>75.1</ele>
        <time>2023-03-29T12:53:58Z</time>
      </trkpt>
      <trkpt lat="49.83908" lon="2.16365">
        <ele>75.1</ele>
        <time>2023-03-29T12:53:59Z</time>
      </trkpt>
      <trkpt lat="49.83908" lon="2.16366">
        <ele>75.1</ele>
        <time>2023-03-29T12:54:00Z</time>
      </trkpt>
      <trkpt lat="49.83907" lon="2.16368">
        <ele>75.2</ele>
        <time>2023-03-29T12:54:01Z</time>
      </trkpt>
      <trkpt lat="49.83906" lon="2.1637">
        <ele>75.2</ele>
        <time>2023-03-29T12:54:02Z</time>
      </trkpt>
      <trkpt lat="49.83906" lon="2.16371">
        <ele>75.3</ele>
        <time>2023-03-29T12:54:03Z</time>
      </trkpt>
      <trkpt lat="49.83904" lon="2.16374">
        <ele>75.3</ele>
        <time>2023-03-29T12:54:05Z</time>
      </trkpt>
      <trkpt lat="49.83903" lon="2.16374">
        <ele>75.4</ele>
        <time>2023-03-29T12:54:06Z</time>
      </trkpt>
      <trkpt lat="49.83903" lon="2.16376">
        <ele>75.4</ele>
        <time>2023-03-29T12:54:07Z</time>
      </trkpt>
      <trkpt lat="49.83902" lon="2.16378">
        <ele>75.5</ele>
        <time>2023-03-29T12:54:08Z</time>
      </trkpt>
      <trkpt lat="49.83902" lon="2.16381">
        <ele>75.5</ele>
        <time>2023-03-29T12:54:09Z</time>
      </trkpt>
      <trkpt lat="49.83902" lon="2.16382">
        <ele>75.5</ele>
        <time>2023-03-29T12:54:11Z</time>
      </trkpt>
      <trkpt lat="49.83902" lon="2.16383">
        <ele>75.6</ele>
        <time>2023-03-29T12:54:12Z</time>
      </trkpt>
      <trkpt lat="49.83902" lon="2.16385">
        <ele>75.6</ele>
        <time>2023-03-29T12:54:13Z</time>
      </trkpt>
      <trkpt lat="49.83902" lon="2.16387">
        <ele>75.6</ele>
        <time>2023-03-29T12:54:14Z</time>
      </trkpt>
      <trkpt lat="49.83902" lon="2.16388">
        <ele>75.7</ele>
        <time>2023-03-29T12:54:15Z</time>
      </trkpt>
      <trkpt lat="49.83902" lon="2.1639">
        <ele>75.7</ele>
        <time>2023-03-29T12:54:16Z</time>
      </trkpt>
      <trkpt lat="49.83902" lon="2.16391">
        <ele>75.7</ele>
        <time>2023-03-29T12:54:18Z</time>
      </trkpt>
      <trkpt lat="49.83903" lon="2.16393">
        <ele>75.7</ele>
        <time>2023-03-29T12:54:19Z</time>
      </trkpt>
      <trkpt lat="49.83904" lon="2.16394">
        <ele>75.8</ele>
        <time>2023-03-29T12:54:20Z</time>
      </trkpt>
      <trkpt lat="49.83904" lon="2.16395">
        <ele>75.8</ele>
        <time>2023-03-29T12:54:21Z</time>
      </trkpt>
      <trkpt lat="49.83905" lon="2.16396">
        <ele>75.8</ele>
        <time>2023-03-29T12:54:22Z</time>
      </trkpt>
      <trkpt lat="49.83906" lon="2.16397">
        <ele>75.9</ele>
        <time>2023-03-29T12:54:23Z</time>
      </trkpt>
      <trkpt lat="49.83907" lon="2.164">
        <ele>75.9</ele>
        <time>2023-03-29T12:54:24Z</time>
      </trkpt>
      <trkpt lat="49.83907" lon="2.16401">
        <ele>76</ele>
        <time>2023-03-29T12:54:25Z</time>
      </trkpt>
      <trkpt lat="49.83908" lon="2.16402">
        <ele>76</ele>
        <time>2023-03-29T12:54:27Z</time>
      </trkpt>
      <trkpt lat="49.83908" lon="2.16403">
        <ele>76</ele>
        <time>2023-03-29T12:54:28Z</time>
      </trkpt>
      <trkpt lat="49.83909" lon="2.16405">
        <ele>76</ele>
        <time>2023-03-29T12:54:29Z</time>
      </trkpt>
      <trkpt lat="49.83909" lon="2.16408">
        <ele>76.1</ele>
        <time>2023-03-29T12:54:30Z</time>
      </trkpt>
      <trkpt lat="49.83909" lon="2.16409">
        <ele>76.1</ele>
        <time>2023-03-29T12:54:31Z</time>
      </trkpt>
      <trkpt lat="49.83908" lon="2.16411">
        <ele>76.2</ele>
        <time>2023-03-29T12:54:32Z</time>
      </trkpt>
      <trkpt lat="49.83909" lon="2.16414">
        <ele>76.2</ele>
        <time>2023-03-29T12:54:33Z</time>
      </trkpt>
      <trkpt lat="49.83909" lon="2.16415">
        <ele>76.2</ele>
        <time>2023-03-29T12:54:35Z</time>
      </trkpt>
      <trkpt lat="49.83909" lon="2.16417">
        <ele>76.3</ele>
        <time>2023-03-29T12:54:36Z</time>
      </trkpt>
      <trkpt lat="49.83909" lon="2.1642">
        <ele>76.3</ele>
        <time>2023-03-29T12:54:37Z</time>
      </trkpt>
      <trkpt lat="49.83909" lon="2.16421">
        <ele>76.4</ele>
        <time>2023-03-29T12:54:38Z</time>
      </trkpt>
      <trkpt lat="49.83909" lon="2.16423">
        <ele>76.4</ele>
        <time>2023-03-29T12:54:39Z</time>
      </trkpt>
      <trkpt lat="49.83909" lon="2.16425">
        <ele>76.4</ele>
        <time>2023-03-29T12:54:40Z</time>
      </trkpt>
      <trkpt lat="49.8391" lon="2.16427">
        <ele>76.5</ele>
        <time>2023-03-29T12:54:41Z</time>
      </trkpt>
      <trkpt lat="49.8391" lon="2.1643">
        <ele>76.6</ele>
        <time>2023-03-29T12:54:43Z</time>
      </trkpt>
      <trkpt lat="49.83911" lon="2.16431">
        <ele>76.6</ele>
        <time>2023-03-29T12:54:44Z</time>
      </trkpt>
      <trkpt lat="49.83912" lon="2.16432">
        <ele>76.6</ele>
        <time>2023-03-29T12:54:45Z</time>
      </trkpt>
      <trkpt lat="49.83913" lon="2.16433">
        <ele>76.7</ele>
        <time>2023-03-29T12:54:46Z</time>
      </trkpt>
      <trkpt lat="49.83913" lon="2.16435">
        <ele>76.7</ele>
        <time>2023-03-29T12:54:47Z</time>
      </trkpt>
      <trkpt lat="49.83914" lon="2.16439">
        <ele>76.8</ele>
        <time>2023-03-29T12:54:48Z</time>
      </trkpt>
      <trkpt lat="49.83914" lon="2.16442">
        <ele>76.8</ele>
        <time>2023-03-29T12:54:49Z</time>
      </trkpt>
      <trkpt lat="49.83914" lon="2.16443">
        <ele>76.9</ele>
        <time>2023-03-29T12:54:51Z</time>
      </trkpt>
      <trkpt lat="49.83914" lon="2.16445">
        <ele>76.9</ele>
        <time>2023-03-29T12:54:52Z</time>
      </trkpt>
      <trkpt lat="49.83914" lon="2.16446">
        <ele>76.9</ele>
        <time>2023-03-29T12:54:53Z</time>
      </trkpt>
      <trkpt lat="49.83914" lon="2.16447">
        <ele>77</ele>
        <time>2023-03-29T12:54:54Z</time>
      </trkpt>
      <trkpt lat="49.83915" lon="2.1645">
        <ele>77</ele>
        <time>2023-03-29T12:54:55Z</time>
      </trkpt>
      <trkpt lat="49.83915" lon="2.16452">
        <ele>77.1</ele>
        <time>2023-03-29T12:54:56Z</time>
      </trkpt>
      <trkpt lat="49.83915" lon="2.16453">
        <ele>77.1</ele>
        <time>2023-03-29T12:54:58Z</time>
      </trkpt>
      <trkpt lat="49.83915" lon="2.16454">
        <ele>77.1</ele>
        <time>2023-03-29T12:54:59Z</time>
      </trkpt>
      <trkpt lat="49.83916" lon="2.16456">
        <ele>77.1</ele>
        <time>2023-03-29T12:55:00Z</time>
      </trkpt>
      <trkpt lat="49.83916" lon="2.16457">
        <ele>77.2</ele>
        <time>2023-03-29T12:55:01Z</time>
      </trkpt>
      <trkpt lat="49.83916" lon="2.16461">
        <ele>77.2</ele>
        <time>2023-03-29T12:55:02Z</time>
      </trkpt>
      <trkpt lat="49.83916" lon="2.16463">
        <ele>77.3</ele>
        <time>2023-03-29T12:55:03Z</time>
      </trkpt>
      <trkpt lat="49.83916" lon="2.16465">
        <ele>77.3</ele>
        <time>2023-03-29T12:55:04Z</time>
      </trkpt>
      <trkpt lat="49.83915" lon="2.16465">
        <ele>77.3</ele>
        <time>2023-03-29T12:55:06Z</time>
      </trkpt>
      <trkpt lat="49.83915" lon="2.16467">
        <ele>77.3</ele>
        <time>2023-03-29T12:55:07Z</time>
      </trkpt>
      <trkpt lat="49.83914" lon="2.16468">
        <ele>77.4</ele>
        <time>2023-03-29T12:55:08Z</time>
      </trkpt>
      <trkpt lat="49.83914" lon="2.16469">
        <ele>77.4</ele>
        <time>2023-03-29T12:55:09Z</time>
      </trkpt>
      <trkpt lat="49.83914" lon="2.1647">
        <ele>77.4</ele>
        <time>2023-03-29T12:55:10Z</time>
      </trkpt>
      <trkpt lat="49.83914" lon="2.16473">
        <ele>77.5</ele>
        <time>2023-03-29T12:55:12Z</time>
      </trkpt>
      <trkpt lat="49.83914" lon="2.16474">
        <ele>77.5</ele>
        <time>2023-03-29T12:55:13Z</time>
      </trkpt>
      <trkpt lat="49.83914" lon="2.16476">
        <ele>77.5</ele>
        <time>2023-03-29T12:55:14Z</time>
      </trkpt>
      <trkpt lat="49.83914" lon="2.16478">
        <ele>77.5</ele>
        <time>2023-03-29T12:55:15Z</time>
      </trkpt>
      <trkpt lat="49.83914" lon="2.16479">
        <ele>77.6</ele>
        <time>2023-03-29T12:55:16Z</time>
      </trkpt>
      <trkpt lat="49.83915" lon="2.1648">
        <ele>77.6</ele>
        <time>2023-03-29T12:55:17Z</time>
      </trkpt>
      <trkpt lat="49.83915" lon="2.16482">
        <ele>77.6</ele>
        <time>2023-03-29T12:55:18Z</time>
      </trkpt>
      <trkpt lat="49.83915" lon="2.16484">
        <ele>77.6</ele>
        <time>2023-03-29T12:55:20Z</time>
      </trkpt>
      <trkpt lat="49.83916" lon="2.16485">
        <ele>77.6</ele>
        <time>2023-03-29T12:55:22Z</time>
      </trkpt>
      <trkpt lat="49.83917" lon="2.16486">
        <ele>77.7</ele>
        <time>2023-03-29T12:55:23Z</time>
      </trkpt>
      <trkpt lat="49.83918" lon="2.16486">
        <ele>77.7</ele>
        <time>2023-03-29T12:55:24Z</time>
      </trkpt>
      <trkpt lat="49.83921" lon="2.16486">
        <ele>77.7</ele>
        <time>2023-03-29T12:55:26Z</time>
      </trkpt>
      <trkpt lat="49.83922" lon="2.16486">
        <ele>77.8</ele>
        <time>2023-03-29T12:55:27Z</time>
      </trkpt>
      <trkpt lat="49.83922" lon="2.16488">
        <ele>77.8</ele>
        <time>2023-03-29T12:55:29Z</time>
      </trkpt>
      <trkpt lat="49.83922" lon="2.16489">
        <ele>77.8</ele>
        <time>2023-03-29T12:55:30Z</time>
      </trkpt>
      <trkpt lat="49.83921" lon="2.16491">
        <ele>77.8</ele>
        <time>2023-03-29T12:55:32Z</time>
      </trkpt>
      <trkpt lat="49.83921" lon="2.16492">
        <ele>77.8</ele>
        <time>2023-03-29T12:55:33Z</time>
      </trkpt>
      <trkpt lat="49.8392" lon="2.16493">
        <ele>77.9</ele>
        <time>2023-03-29T12:55:34Z</time>
      </trkpt>
      <trkpt lat="49.8392" lon="2.16493">
        <ele>77.9</ele>
        <time>2023-03-29T12:55:36Z</time>
      </trkpt>
      <trkpt lat="49.8392" lon="2.16493">
        <ele>77.9</ele>
        <time>2023-03-29T12:55:37Z</time>
      </trkpt>
      <trkpt lat="49.8392" lon="2.16494">
        <ele>77.9</ele>
        <time>2023-03-29T12:55:38Z</time>
      </trkpt>
      <trkpt lat="49.83919" lon="2.16495">
        <ele>77.9</ele>
        <time>2023-03-29T12:55:39Z</time>
      </trkpt>
      <trkpt lat="49.83919" lon="2.16496">
        <ele>77.9</ele>
        <time>2023-03-29T12:55:40Z</time>
      </trkpt>
      <trkpt lat="49.83919" lon="2.16497">
        <ele>77.9</ele>
        <time>2023-03-29T12:55:42Z</time>
      </trkpt>
      <trkpt lat="49.83919" lon="2.16497">
        <ele>77.9</ele>
        <time>2023-03-29T12:55:43Z</time>
      </trkpt>
      <trkpt lat="49.83919" lon="2.16498">
        <ele>77.9</ele>
        <time>2023-03-29T12:55:44Z</time>
      </trkpt>
      <trkpt lat="49.83919" lon="2.165">
        <ele>77.9</ele>
        <time>2023-03-29T12:55:45Z</time>
      </trkpt>
      <trkpt lat="49.83919" lon="2.16501">
        <ele>77.9</ele>
        <time>2023-03-29T12:55:46Z</time>
      </trkpt>
      <trkpt lat="49.83919" lon="2.16503">
        <ele>78</ele>
        <time>2023-03-29T12:55:47Z</time>
      </trkpt>
      <trkpt lat="49.83919" lon="2.16504">
        <ele>78</ele>
        <time>2023-03-29T12:55:48Z</time>
      </trkpt>
      <trkpt lat="49.83919" lon="2.16506">
        <ele>78</ele>
        <time>2023-03-29T12:55:50Z</time>
      </trkpt>
      <trkpt lat="49.8392" lon="2.16505">
        <ele>78</ele>
        <time>2023-03-29T12:55:51Z</time>
      </trkpt>
      <trkpt lat="49.83921" lon="2.16506">
        <ele>78</ele>
        <time>2023-03-29T12:55:52Z</time>
      </trkpt>
      <trkpt lat="49.83921" lon="2.16506">
        <ele>78</ele>
        <time>2023-03-29T12:55:53Z</time>
      </trkpt>
      <trkpt lat="49.83922" lon="2.16509">
        <ele>78</ele>
        <time>2023-03-29T12:55:54Z</time>
      </trkpt>
      <trkpt lat="49.83923" lon="2.1651">
        <ele>78.1</ele>
        <time>2023-03-29T12:55:55Z</time>
      </trkpt>
      <trkpt lat="49.83923" lon="2.16512">
        <ele>78.1</ele>
        <time>2023-03-29T12:55:57Z</time>
      </trkpt>
      <trkpt lat="49.83923" lon="2.16513">
        <ele>78.1</ele>
        <time>2023-03-29T12:55:58Z</time>
      </trkpt>
      <trkpt lat="49.83924" lon="2.16515">
        <ele>78.1</ele>
        <time>2023-03-29T12:55:59Z</time>
      </trkpt>
      <trkpt lat="49.83924" lon="2.16516">
        <ele>78.1</ele>
        <time>2023-03-29T12:56:00Z</time>
      </trkpt>
      <trkpt lat="49.83925" lon="2.16517">
        <ele>78.1</ele>
        <time>2023-03-29T12:56:01Z</time>
      </trkpt>
      <trkpt lat="49.83926" lon="2.16518">
        <ele>78.1</ele>
        <time>2023-03-29T12:56:02Z</time>
      </trkpt>
      <trkpt lat="49.83927" lon="2.16519">
        <ele>78.1</ele>
        <time>2023-03-29T12:56:04Z</time>
      </trkpt>
      <trkpt lat="49.83928" lon="2.16521">
        <ele>78.1</ele>
        <time>2023-03-29T12:56:05Z</time>
      </trkpt>
      <trkpt lat="49.83928" lon="2.16522">
        <ele>78.2</ele>
        <time>2023-03-29T12:56:06Z</time>
      </trkpt>
      <trkpt lat="49.83928" lon="2.16524">
        <ele>78.2</ele>
        <time>2023-03-29T12:56:07Z</time>
      </trkpt>
      <trkpt lat="49.83929" lon="2.16525">
        <ele>78.2</ele>
        <time>2023-03-29T12:56:08Z</time>
      </trkpt>
      <trkpt lat="49.83929" lon="2.16527">
        <ele>78.2</ele>
        <time>2023-03-29T12:56:09Z</time>
      </trkpt>
      <trkpt lat="49.83929" lon="2.16529">
        <ele>78.2</ele>
        <time>2023-03-29T12:56:11Z</time>
      </trkpt>
      <trkpt lat="49.8393" lon="2.1653">
        <ele>78.2</ele>
        <time>2023-03-29T12:56:12Z</time>
      </trkpt>
      <trkpt lat="49.83931" lon="2.16532">
        <ele>78.2</ele>
        <time>2023-03-29T12:56:13Z</time>
      </trkpt>
      <trkpt lat="49.83931" lon="2.16534">
        <ele>78.2</ele>
        <time>2023-03-29T12:56:14Z</time>
      </trkpt>
      <trkpt lat="49.83932" lon="2.16537">
        <ele>78.3</ele>
        <time>2023-03-29T12:56:15Z</time>
      </trkpt>
      <trkpt lat="49.83932" lon="2.16538">
        <ele>78.3</ele>
        <time>2023-03-29T12:56:17Z</time>
      </trkpt>
      <trkpt lat="49.83932" lon="2.1654">
        <ele>78.3</ele>
        <time>2023-03-29T12:56:18Z</time>
      </trkpt>
      <trkpt lat="49.83932" lon="2.16542">
        <ele>78.3</ele>
        <time>2023-03-29T12:56:19Z</time>
      </trkpt>
      <trkpt lat="49.83933" lon="2.16545">
        <ele>78.3</ele>
        <time>2023-03-29T12:56:20Z</time>
      </trkpt>
      <trkpt lat="49.83933" lon="2.16547">
        <ele>78.3</ele>
        <time>2023-03-29T12:56:21Z</time>
      </trkpt>
      <trkpt lat="49.83933" lon="2.16548">
        <ele>78.3</ele>
        <time>2023-03-29T12:56:22Z</time>
      </trkpt>
      <trkpt lat="49.83933" lon="2.1655">
        <ele>78.3</ele>
        <time>2023-03-29T12:56:23Z</time>
      </trkpt>
      <trkpt lat="49.83933" lon="2.16551">
        <ele>78.3</ele>
        <time>2023-03-29T12:56:24Z</time>
      </trkpt>
      <trkpt lat="49.83934" lon="2.16554">
        <ele>78.4</ele>
        <time>2023-03-29T12:56:26Z</time>
      </trkpt>
      <trkpt lat="49.83935" lon="2.16557">
        <ele>78.4</ele>
        <time>2023-03-29T12:56:27Z</time>
      </trkpt>
      <trkpt lat="49.83935" lon="2.16558">
        <ele>78.4</ele>
        <time>2023-03-29T12:56:28Z</time>
      </trkpt>
      <trkpt lat="49.83936" lon="2.16559">
        <ele>78.4</ele>
        <time>2023-03-29T12:56:29Z</time>
      </trkpt>
      <trkpt lat="49.83937" lon="2.16563">
        <ele>78.4</ele>
        <time>2023-03-29T12:56:30Z</time>
      </trkpt>
      <trkpt lat="49.83938" lon="2.16566">
        <ele>78.4</ele>
        <time>2023-03-29T12:56:31Z</time>
      </trkpt>
      <trkpt lat="49.83938" lon="2.16567">
        <ele>78.4</ele>
        <time>2023-03-29T12:56:32Z</time>
      </trkpt>
      <trkpt lat="49.83939" lon="2.16568">
        <ele>78.4</ele>
        <time>2023-03-29T12:56:33Z</time>
      </trkpt>
      <trkpt lat="49.8394" lon="2.16571">
        <ele>78.5</ele>
        <time>2023-03-29T12:56:34Z</time>
      </trkpt>
      <trkpt lat="49.8394" lon="2.16572">
        <ele>78.5</ele>
        <time>2023-03-29T12:56:35Z</time>
      </trkpt>
      <trkpt lat="49.83941" lon="2.16573">
        <ele>78.5</ele>
        <time>2023-03-29T12:56:37Z</time>
      </trkpt>
      <trkpt lat="49.83941" lon="2.16574">
        <ele>78.5</ele>
        <time>2023-03-29T12:56:38Z</time>
      </trkpt>
      <trkpt lat="49.83942" lon="2.16575">
        <ele>78.5</ele>
        <time>2023-03-29T12:56:39Z</time>
      </trkpt>
      <trkpt lat="49.83942" lon="2.16577">
        <ele>78.5</ele>
        <time>2023-03-29T12:56:40Z</time>
      </trkpt>
      <trkpt lat="49.83943" lon="2.16578">
        <ele>78.5</ele>
        <time>2023-03-29T12:56:41Z</time>
      </trkpt>
      <trkpt lat="49.83943" lon="2.1658">
        <ele>78.5</ele>
        <time>2023-03-29T12:56:42Z</time>
      </trkpt>
      <trkpt lat="49.83944" lon="2.16581">
        <ele>78.5</ele>
        <time>2023-03-29T12:56:43Z</time>
      </trkpt>
      <trkpt lat="49.83945" lon="2.16583">
        <ele>78.5</ele>
        <time>2023-03-29T12:56:44Z</time>
      </trkpt>
      <trkpt lat="49.83946" lon="2.16585">
        <ele>78.5</ele>
        <time>2023-03-29T12:56:46Z</time>
      </trkpt>
      <trkpt lat="49.83946" lon="2.16586">
        <ele>78.5</ele>
        <time>2023-03-29T12:56:47Z</time>
      </trkpt>
      <trkpt lat="49.83947" lon="2.16588">
        <ele>78.5</ele>
        <time>2023-03-29T12:56:48Z</time>
      </trkpt>
      <trkpt lat="49.83947" lon="2.16589">
        <ele>78.5</ele>
        <time>2023-03-29T12:56:49Z</time>
      </trkpt>
      <trkpt lat="49.83947" lon="2.16591">
        <ele>78.6</ele>
        <time>2023-03-29T12:56:50Z</time>
      </trkpt>
      <trkpt lat="49.83947" lon="2.16592">
        <ele>78.6</ele>
        <time>2023-03-29T12:56:51Z</time>
      </trkpt>
      <trkpt lat="49.83948" lon="2.16593">
        <ele>78.6</ele>
        <time>2023-03-29T12:56:52Z</time>
      </trkpt>
      <trkpt lat="49.83948" lon="2.16595">
        <ele>78.6</ele>
        <time>2023-03-29T12:56:53Z</time>
      </trkpt>
      <trkpt lat="49.83949" lon="2.16597">
        <ele>78.6</ele>
        <time>2023-03-29T12:56:54Z</time>
      </trkpt>
      <trkpt lat="49.83949" lon="2.16598">
        <ele>78.6</ele>
        <time>2023-03-29T12:56:55Z</time>
      </trkpt>
      <trkpt lat="49.83949" lon="2.16599">
        <ele>78.6</ele>
        <time>2023-03-29T12:56:57Z</time>
      </trkpt>
      <trkpt lat="49.8395" lon="2.16601">
        <ele>78.6</ele>
        <time>2023-03-29T12:56:58Z</time>
      </trkpt>
      <trkpt lat="49.83951" lon="2.16603">
        <ele>78.6</ele>
        <time>2023-03-29T12:56:59Z</time>
      </trkpt>
      <trkpt lat="49.83951" lon="2.16607">
        <ele>78.6</ele>
        <time>2023-03-29T12:57:00Z</time>
      </trkpt>
      <trkpt lat="49.83951" lon="2.16607">
        <ele>78.6</ele>
        <time>2023-03-29T12:57:01Z</time>
      </trkpt>
      <trkpt lat="49.83952" lon="2.1661">
        <ele>78.6</ele>
        <time>2023-03-29T12:57:02Z</time>
      </trkpt>
      <trkpt lat="49.83953" lon="2.16612">
        <ele>78.7</ele>
        <time>2023-03-29T12:57:03Z</time>
      </trkpt>
      <trkpt lat="49.83953" lon="2.16613">
        <ele>78.7</ele>
        <time>2023-03-29T12:57:04Z</time>
      </trkpt>
      <trkpt lat="49.83953" lon="2.16616">
        <ele>78.7</ele>
        <time>2023-03-29T12:57:05Z</time>
      </trkpt>
      <trkpt lat="49.83954" lon="2.16617">
        <ele>78.7</ele>
        <time>2023-03-29T12:57:06Z</time>
      </trkpt>
      <trkpt lat="49.83954" lon="2.16618">
        <ele>78.7</ele>
        <time>2023-03-29T12:57:07Z</time>
      </trkpt>
      <trkpt lat="49.83954" lon="2.1662">
        <ele>78.7</ele>
        <time>2023-03-29T12:57:08Z</time>
      </trkpt>
      <trkpt lat="49.83955" lon="2.16622">
        <ele>78.7</ele>
        <time>2023-03-29T12:57:10Z</time>
      </trkpt>
      <trkpt lat="49.83955" lon="2.16624">
        <ele>78.7</ele>
        <time>2023-03-29T12:57:11Z</time>
      </trkpt>
      <trkpt lat="49.83956" lon="2.16627">
        <ele>78.7</ele>
        <time>2023-03-29T12:57:12Z</time>
      </trkpt>
      <trkpt lat="49.83956" lon="2.16628">
        <ele>78.7</ele>
        <time>2023-03-29T12:57:13Z</time>
      </trkpt>
      <trkpt lat="49.83956" lon="2.16629">
        <ele>78.7</ele>
        <time>2023-03-29T12:57:14Z</time>
      </trkpt>
      <trkpt lat="49.83957" lon="2.16633">
        <ele>78.8</ele>
        <time>2023-03-29T12:57:15Z</time>
      </trkpt>
      <trkpt lat="49.83957" lon="2.16634">
        <ele>78.8</ele>
        <time>2023-03-29T12:57:16Z</time>
      </trkpt>
      <trkpt lat="49.83958" lon="2.16636">
        <ele>78.8</ele>
        <time>2023-03-29T12:57:17Z</time>
      </trkpt>
      <trkpt lat="49.83958" lon="2.16638">
        <ele>78.8</ele>
        <time>2023-03-29T12:57:19Z</time>
      </trkpt>
      <trkpt lat="49.83959" lon="2.16639">
        <ele>78.8</ele>
        <time>2023-03-29T12:57:20Z</time>
      </trkpt>
      <trkpt lat="49.83959" lon="2.16642">
        <ele>78.8</ele>
        <time>2023-03-29T12:57:21Z</time>
      </trkpt>
      <trkpt lat="49.83959" lon="2.16645">
        <ele>78.9</ele>
        <time>2023-03-29T12:57:22Z</time>
      </trkpt>
      <trkpt lat="49.83959" lon="2.16646">
        <ele>78.9</ele>
        <time>2023-03-29T12:57:24Z</time>
      </trkpt>
      <trkpt lat="49.83959" lon="2.16648">
        <ele>78.9</ele>
        <time>2023-03-29T12:57:25Z</time>
      </trkpt>
      <trkpt lat="49.8396" lon="2.1665">
        <ele>78.9</ele>
        <time>2023-03-29T12:57:26Z</time>
      </trkpt>
      <trkpt lat="49.8396" lon="2.16651">
        <ele>78.9</ele>
        <time>2023-03-29T12:57:27Z</time>
      </trkpt>
      <trkpt lat="49.8396" lon="2.16653">
        <ele>78.9</ele>
        <time>2023-03-29T12:57:28Z</time>
      </trkpt>
      <trkpt lat="49.83961" lon="2.16657">
        <ele>78.9</ele>
        <time>2023-03-29T12:57:29Z</time>
      </trkpt>
      <trkpt lat="49.83962" lon="2.16658">
        <ele>78.9</ele>
        <time>2023-03-29T12:57:31Z</time>
      </trkpt>
      <trkpt lat="49.83962" lon="2.1666">
        <ele>78.9</ele>
        <time>2023-03-29T12:57:32Z</time>
      </trkpt>
      <trkpt lat="49.83963" lon="2.16662">
        <ele>79</ele>
        <time>2023-03-29T12:57:33Z</time>
      </trkpt>
      <trkpt lat="49.83963" lon="2.16663">
        <ele>79</ele>
        <time>2023-03-29T12:57:34Z</time>
      </trkpt>
      <trkpt lat="49.83964" lon="2.16668">
        <ele>79</ele>
        <time>2023-03-29T12:57:35Z</time>
      </trkpt>
      <trkpt lat="49.83965" lon="2.16669">
        <ele>79</ele>
        <time>2023-03-29T12:57:37Z</time>
      </trkpt>
      <trkpt lat="49.83965" lon="2.1667">
        <ele>79</ele>
        <time>2023-03-29T12:57:38Z</time>
      </trkpt>
      <trkpt lat="49.83965" lon="2.16671">
        <ele>79</ele>
        <time>2023-03-29T12:57:39Z</time>
      </trkpt>
      <trkpt lat="49.83965" lon="2.16672">
        <ele>79</ele>
        <time>2023-03-29T12:57:40Z</time>
      </trkpt>
      <trkpt lat="49.83965" lon="2.16673">
        <ele>79</ele>
        <time>2023-03-29T12:57:41Z</time>
      </trkpt>
      <trkpt lat="49.83966" lon="2.16675">
        <ele>79</ele>
        <time>2023-03-29T12:57:42Z</time>
      </trkpt>
      <trkpt lat="49.83966" lon="2.16677">
        <ele>79.1</ele>
        <time>2023-03-29T12:57:43Z</time>
      </trkpt>
      <trkpt lat="49.83967" lon="2.16679">
        <ele>79.1</ele>
        <time>2023-03-29T12:57:44Z</time>
      </trkpt>
      <trkpt lat="49.83967" lon="2.16681">
        <ele>79.1</ele>
        <time>2023-03-29T12:57:45Z</time>
      </trkpt>
      <trkpt lat="49.83967" lon="2.16683">
        <ele>79.1</ele>
        <time>2023-03-29T12:57:46Z</time>
      </trkpt>
      <trkpt lat="49.83968" lon="2.16685">
        <ele>79.1</ele>
        <time>2023-03-29T12:57:47Z</time>
      </trkpt>
      <trkpt lat="49.83969" lon="2.16689">
        <ele>79.1</ele>
        <time>2023-03-29T12:57:49Z</time>
      </trkpt>
      <trkpt lat="49.83969" lon="2.1669">
        <ele>79.1</ele>
        <time>2023-03-29T12:57:50Z</time>
      </trkpt>
      <trkpt lat="49.8397" lon="2.16691">
        <ele>79.1</ele>
        <time>2023-03-29T12:57:51Z</time>
      </trkpt>
      <trkpt lat="49.8397" lon="2.16693">
        <ele>79.1</ele>
        <time>2023-03-29T12:57:52Z</time>
      </trkpt>
      <trkpt lat="49.83971" lon="2.16694">
        <ele>79.2</ele>
        <time>2023-03-29T12:57:53Z</time>
      </trkpt>
      <trkpt lat="49.83971" lon="2.16696">
        <ele>79.2</ele>
        <time>2023-03-29T12:57:54Z</time>
      </trkpt>
      <trkpt lat="49.83972" lon="2.16698">
        <ele>79.2</ele>
        <time>2023-03-29T12:57:55Z</time>
      </trkpt>
      <trkpt lat="49.83973" lon="2.167">
        <ele>79.2</ele>
        <time>2023-03-29T12:57:56Z</time>
      </trkpt>
      <trkpt lat="49.83974" lon="2.16701">
        <ele>79.2</ele>
        <time>2023-03-29T12:57:57Z</time>
      </trkpt>
      <trkpt lat="49.83974" lon="2.16703">
        <ele>79.2</ele>
        <time>2023-03-29T12:57:58Z</time>
      </trkpt>
      <trkpt lat="49.83975" lon="2.16705">
        <ele>79.2</ele>
        <time>2023-03-29T12:57:59Z</time>
      </trkpt>
      <trkpt lat="49.83976" lon="2.16706">
        <ele>79.2</ele>
        <time>2023-03-29T12:58:00Z</time>
      </trkpt>
      <trkpt lat="49.83976" lon="2.16708">
        <ele>79.2</ele>
        <time>2023-03-29T12:58:02Z</time>
      </trkpt>
      <trkpt lat="49.83977" lon="2.16709">
        <ele>79.3</ele>
        <time>2023-03-29T12:58:03Z</time>
      </trkpt>
      <trkpt lat="49.83977" lon="2.16711">
        <ele>79.3</ele>
        <time>2023-03-29T12:58:04Z</time>
      </trkpt>
      <trkpt lat="49.83978" lon="2.16713">
        <ele>79.3</ele>
        <time>2023-03-29T12:58:05Z</time>
      </trkpt>
      <trkpt lat="49.83979" lon="2.16715">
        <ele>79.3</ele>
        <time>2023-03-29T12:58:06Z</time>
      </trkpt>
      <trkpt lat="49.8398" lon="2.16716">
        <ele>79.3</ele>
        <time>2023-03-29T12:58:07Z</time>
      </trkpt>
      <trkpt lat="49.83981" lon="2.16719">
        <ele>79.3</ele>
        <time>2023-03-29T12:58:09Z</time>
      </trkpt>
      <trkpt lat="49.83981" lon="2.16721">
        <ele>79.3</ele>
        <time>2023-03-29T12:58:10Z</time>
      </trkpt>
      <trkpt lat="49.83981" lon="2.16722">
        <ele>79.3</ele>
        <time>2023-03-29T12:58:11Z</time>
      </trkpt>
      <trkpt lat="49.83982" lon="2.16725">
        <ele>79.4</ele>
        <time>2023-03-29T12:58:12Z</time>
      </trkpt>
      <trkpt lat="49.83982" lon="2.16726">
        <ele>79.4</ele>
        <time>2023-03-29T12:58:13Z</time>
      </trkpt>
      <trkpt lat="49.83982" lon="2.16727">
        <ele>79.4</ele>
        <time>2023-03-29T12:58:14Z</time>
      </trkpt>
      <trkpt lat="49.83983" lon="2.16728">
        <ele>79.4</ele>
        <time>2023-03-29T12:58:15Z</time>
      </trkpt>
      <trkpt lat="49.83984" lon="2.16727">
        <ele>79.4</ele>
        <time>2023-03-29T12:58:16Z</time>
      </trkpt>
      <trkpt lat="49.83984" lon="2.16728">
        <ele>79.4</ele>
        <time>2023-03-29T12:58:17Z</time>
      </trkpt>
      <trkpt lat="49.83985" lon="2.16729">
        <ele>79.4</ele>
        <time>2023-03-29T12:58:18Z</time>
      </trkpt>
      <trkpt lat="49.83985" lon="2.1673">
        <ele>79.4</ele>
        <time>2023-03-29T12:58:19Z</time>
      </trkpt>
      <trkpt lat="49.83986" lon="2.16732">
        <ele>79.4</ele>
        <time>2023-03-29T12:58:21Z</time>
      </trkpt>
      <trkpt lat="49.83986" lon="2.16733">
        <ele>79.4</ele>
        <time>2023-03-29T12:58:22Z</time>
      </trkpt>
      <trkpt lat="49.83986" lon="2.16735">
        <ele>79.4</ele>
        <time>2023-03-29T12:58:23Z</time>
      </trkpt>
      <trkpt lat="49.83987" lon="2.16738">
        <ele>79.4</ele>
        <time>2023-03-29T12:58:24Z</time>
      </trkpt>
      <trkpt lat="49.83987" lon="2.1674">
        <ele>79.4</ele>
        <time>2023-03-29T12:58:25Z</time>
      </trkpt>
      <trkpt lat="49.83987" lon="2.16741">
        <ele>79.4</ele>
        <time>2023-03-29T12:58:26Z</time>
      </trkpt>
      <trkpt lat="49.83988" lon="2.16744">
        <ele>79.4</ele>
        <time>2023-03-29T12:58:27Z</time>
      </trkpt>
      <trkpt lat="49.83988" lon="2.16745">
        <ele>79.4</ele>
        <time>2023-03-29T12:58:28Z</time>
      </trkpt>
      <trkpt lat="49.83988" lon="2.16746">
        <ele>79.5</ele>
        <time>2023-03-29T12:58:29Z</time>
      </trkpt>
      <trkpt lat="49.83988" lon="2.16749">
        <ele>79.5</ele>
        <time>2023-03-29T12:58:31Z</time>
      </trkpt>
      <trkpt lat="49.83988" lon="2.1675">
        <ele>79.5</ele>
        <time>2023-03-29T12:58:32Z</time>
      </trkpt>
      <trkpt lat="49.83988" lon="2.16752">
        <ele>79.5</ele>
        <time>2023-03-29T12:58:33Z</time>
      </trkpt>
      <trkpt lat="49.83989" lon="2.16756">
        <ele>79.5</ele>
        <time>2023-03-29T12:58:34Z</time>
      </trkpt>
      <trkpt lat="49.83989" lon="2.16757">
        <ele>79.5</ele>
        <time>2023-03-29T12:58:36Z</time>
      </trkpt>
      <trkpt lat="49.8399" lon="2.16759">
        <ele>79.5</ele>
        <time>2023-03-29T12:58:37Z</time>
      </trkpt>
      <trkpt lat="49.83991" lon="2.1676">
        <ele>79.5</ele>
        <time>2023-03-29T12:58:38Z</time>
      </trkpt>
      <trkpt lat="49.83992" lon="2.16762">
        <ele>79.5</ele>
        <time>2023-03-29T12:58:40Z</time>
      </trkpt>
      <trkpt lat="49.83993" lon="2.16763">
        <ele>79.5</ele>
        <time>2023-03-29T12:58:42Z</time>
      </trkpt>
      <trkpt lat="49.83993" lon="2.16764">
        <ele>79.5</ele>
        <time>2023-03-29T12:58:43Z</time>
      </trkpt>
      <trkpt lat="49.83994" lon="2.16766">
        <ele>79.5</ele>
        <time>2023-03-29T12:58:44Z</time>
      </trkpt>
      <trkpt lat="49.83995" lon="2.16766">
        <ele>79.5</ele>
        <time>2023-03-29T12:58:45Z</time>
      </trkpt>
      <trkpt lat="49.83996" lon="2.16766">
        <ele>79.5</ele>
        <time>2023-03-29T12:58:46Z</time>
      </trkpt>
      <trkpt lat="49.83997" lon="2.16767">
        <ele>79.5</ele>
        <time>2023-03-29T12:58:48Z</time>
      </trkpt>
      <trkpt lat="49.83998" lon="2.16768">
        <ele>79.5</ele>
        <time>2023-03-29T12:58:49Z</time>
      </trkpt>
      <trkpt lat="49.83999" lon="2.16769">
        <ele>79.5</ele>
        <time>2023-03-29T12:58:51Z</time>
      </trkpt>
      <trkpt lat="49.83999" lon="2.16769">
        <ele>79.5</ele>
        <time>2023-03-29T12:58:52Z</time>
      </trkpt>
      <trkpt lat="49.84" lon="2.16769">
        <ele>79.5</ele>
        <time>2023-03-29T12:58:53Z</time>
      </trkpt>
      <trkpt lat="49.84" lon="2.1677">
        <ele>79.5</ele>
        <time>2023-03-29T12:58:54Z</time>
      </trkpt>
      <trkpt lat="49.84001" lon="2.1677">
        <ele>79.5</ele>
        <time>2023-03-29T12:58:55Z</time>
      </trkpt>
      <trkpt lat="49.84001" lon="2.16772">
        <ele>79.5</ele>
        <time>2023-03-29T12:58:56Z</time>
      </trkpt>
      <trkpt lat="49.84001" lon="2.16773">
        <ele>79.5</ele>
        <time>2023-03-29T12:58:57Z</time>
      </trkpt>
      <trkpt lat="49.84002" lon="2.16775">
        <ele>79.5</ele>
        <time>2023-03-29T12:58:59Z</time>
      </trkpt>
      <trkpt lat="49.84003" lon="2.16776">
        <ele>79.5</ele>
        <time>2023-03-29T12:59:01Z</time>
      </trkpt>
      <trkpt lat="49.84004" lon="2.16776">
        <ele>79.5</ele>
        <time>2023-03-29T12:59:02Z</time>
      </trkpt>
      <trkpt lat="49.84004" lon="2.16776">
        <ele>79.5</ele>
        <time>2023-03-29T12:59:03Z</time>
      </trkpt>
      <trkpt lat="49.84005" lon="2.16777">
        <ele>79.5</ele>
        <time>2023-03-29T12:59:05Z</time>
      </trkpt>
      <trkpt lat="49.84006" lon="2.16777">
        <ele>79.5</ele>
        <time>2023-03-29T12:59:07Z</time>
      </trkpt>
      <trkpt lat="49.84005" lon="2.16777">
        <ele>79.5</ele>
        <time>2023-03-29T12:59:08Z</time>
      </trkpt>
      <trkpt lat="49.84005" lon="2.16777">
        <ele>79.5</ele>
        <time>2023-03-29T12:59:09Z</time>
      </trkpt>
      <trkpt lat="49.84006" lon="2.16777">
        <ele>79.5</ele>
        <time>2023-03-29T12:59:10Z</time>
      </trkpt>
      <trkpt lat="49.84006" lon="2.16778">
        <ele>79.5</ele>
        <time>2023-03-29T12:59:12Z</time>
      </trkpt>
      <trkpt lat="49.84006" lon="2.16778">
        <ele>79.5</ele>
        <time>2023-03-29T12:59:13Z</time>
      </trkpt>
      <trkpt lat="49.84005" lon="2.16779">
        <ele>79.5</ele>
        <time>2023-03-29T12:59:14Z</time>
      </trkpt>
      <trkpt lat="49.84003" lon="2.16779">
        <ele>79.5</ele>
        <time>2023-03-29T12:59:15Z</time>
      </trkpt>
      <trkpt lat="49.84002" lon="2.1678">
        <ele>79.5</ele>
        <time>2023-03-29T12:59:17Z</time>
      </trkpt>
      <trkpt lat="49.84001" lon="2.16782">
        <ele>79.5</ele>
        <time>2023-03-29T12:59:19Z</time>
      </trkpt>
      <trkpt lat="49.84002" lon="2.16782">
        <ele>79.5</ele>
        <time>2023-03-29T12:59:20Z</time>
      </trkpt>
      <trkpt lat="49.84002" lon="2.16783">
        <ele>79.5</ele>
        <time>2023-03-29T12:59:22Z</time>
      </trkpt>
      <trkpt lat="49.84002" lon="2.16784">
        <ele>79.5</ele>
        <time>2023-03-29T12:59:23Z</time>
      </trkpt>
      <trkpt lat="49.84002" lon="2.16786">
        <ele>79.5</ele>
        <time>2023-03-29T12:59:24Z</time>
      </trkpt>
      <trkpt lat="49.84002" lon="2.16787">
        <ele>79.5</ele>
        <time>2023-03-29T12:59:26Z</time>
      </trkpt>
      <trkpt lat="49.84002" lon="2.16788">
        <ele>79.5</ele>
        <time>2023-03-29T12:59:27Z</time>
      </trkpt>
      <trkpt lat="49.84001" lon="2.1679">
        <ele>79.5</ele>
        <time>2023-03-29T12:59:28Z</time>
      </trkpt>
      <trkpt lat="49.84" lon="2.16791">
        <ele>79.5</ele>
        <time>2023-03-29T12:59:29Z</time>
      </trkpt>
      <trkpt lat="49.84" lon="2.16793">
        <ele>79.5</ele>
        <time>2023-03-29T12:59:31Z</time>
      </trkpt>
      <trkpt lat="49.84002" lon="2.16796">
        <ele>79.5</ele>
        <time>2023-03-29T12:59:33Z</time>
      </trkpt>
      <trkpt lat="49.84002" lon="2.16794">
        <ele>79.5</ele>
        <time>2023-03-29T12:59:34Z</time>
      </trkpt>
      <trkpt lat="49.84003" lon="2.16793">
        <ele>79.5</ele>
        <time>2023-03-29T12:59:35Z</time>
      </trkpt>
      <trkpt lat="49.84004" lon="2.16791">
        <ele>79.5</ele>
        <time>2023-03-29T12:59:37Z</time>
      </trkpt>
      <trkpt lat="49.84003" lon="2.1679">
        <ele>79.5</ele>
        <time>2023-03-29T12:59:38Z</time>
      </trkpt>
      <trkpt lat="49.84003" lon="2.16789">
        <ele>79.5</ele>
        <time>2023-03-29T12:59:40Z</time>
      </trkpt>
      <trkpt lat="49.84003" lon="2.16789">
        <ele>79.5</ele>
        <time>2023-03-29T12:59:41Z</time>
      </trkpt>
      <trkpt lat="49.84003" lon="2.16789">
        <ele>79.5</ele>
        <time>2023-03-29T12:59:42Z</time>
      </trkpt>
      <trkpt lat="49.84003" lon="2.16788">
        <ele>79.5</ele>
        <time>2023-03-29T12:59:43Z</time>
      </trkpt>
      <trkpt lat="49.84003" lon="2.16787">
        <ele>79.5</ele>
        <time>2023-03-29T12:59:45Z</time>
      </trkpt>
      <trkpt lat="49.84003" lon="2.16786">
        <ele>79.5</ele>
        <time>2023-03-29T12:59:47Z</time>
      </trkpt>
      <trkpt lat="49.84003" lon="2.16786">
        <ele>79.5</ele>
        <time>2023-03-29T12:59:48Z</time>
      </trkpt>
      <trkpt lat="49.84004" lon="2.16785">
        <ele>79.5</ele>
        <time>2023-03-29T12:59:50Z</time>
      </trkpt>
      <trkpt lat="49.84004" lon="2.16785">
        <ele>79.5</ele>
        <time>2023-03-29T12:59:51Z</time>
      </trkpt>
      <trkpt lat="49.84004" lon="2.16785">
        <ele>79.5</ele>
        <time>2023-03-29T12:59:52Z</time>
      </trkpt>
      <trkpt lat="49.84003" lon="2.16786">
        <ele>79.5</ele>
        <time>2023-03-29T12:59:53Z</time>
      </trkpt>
      <trkpt lat="49.84004" lon="2.16786">
        <ele>79.5</ele>
        <time>2023-03-29T12:59:55Z</time>
      </trkpt>
      <trkpt lat="49.84004" lon="2.16788">
        <ele>79.5</ele>
        <time>2023-03-29T12:59:56Z</time>
      </trkpt>
      <trkpt lat="49.84004" lon="2.16789">
        <ele>79.5</ele>
        <time>2023-03-29T12:59:57Z</time>
      </trkpt>
      <trkpt lat="49.84004" lon="2.16791">
        <ele>79.5</ele>
        <time>2023-03-29T12:59:58Z</time>
      </trkpt>
      <trkpt lat="49.84004" lon="2.16792">
        <ele>79.5</ele>
        <time>2023-03-29T13:00:00Z</time>
      </trkpt>
      <trkpt lat="49.84004" lon="2.16794">
        <ele>79.5</ele>
        <time>2023-03-29T13:00:01Z</time>
      </trkpt>
      <trkpt lat="49.84004" lon="2.16795">
        <ele>79.5</ele>
        <time>2023-03-29T13:00:02Z</time>
      </trkpt>
      <trkpt lat="49.84005" lon="2.16798">
        <ele>79.5</ele>
        <time>2023-03-29T13:00:03Z</time>
      </trkpt>
      <trkpt lat="49.84005" lon="2.16799">
        <ele>79.5</ele>
        <time>2023-03-29T13:00:04Z</time>
      </trkpt>
      <trkpt lat="49.84005" lon="2.16801">
        <ele>79.6</ele>
        <time>2023-03-29T13:00:05Z</time>
      </trkpt>
      <trkpt lat="49.84006" lon="2.16802">
        <ele>79.6</ele>
        <time>2023-03-29T13:00:07Z</time>
      </trkpt>
      <trkpt lat="49.84006" lon="2.16803">
        <ele>79.6</ele>
        <time>2023-03-29T13:00:08Z</time>
      </trkpt>
      <trkpt lat="49.84006" lon="2.16805">
        <ele>79.6</ele>
        <time>2023-03-29T13:00:09Z</time>
      </trkpt>
      <trkpt lat="49.84007" lon="2.16806">
        <ele>79.6</ele>
        <time>2023-03-29T13:00:10Z</time>
      </trkpt>
      <trkpt lat="49.84008" lon="2.16808">
        <ele>79.6</ele>
        <time>2023-03-29T13:00:11Z</time>
      </trkpt>
      <trkpt lat="49.84009" lon="2.1681">
        <ele>79.6</ele>
        <time>2023-03-29T13:00:12Z</time>
      </trkpt>
      <trkpt lat="49.84009" lon="2.16812">
        <ele>79.6</ele>
        <time>2023-03-29T13:00:13Z</time>
      </trkpt>
      <trkpt lat="49.8401" lon="2.16814">
        <ele>79.6</ele>
        <time>2023-03-29T13:00:14Z</time>
      </trkpt>
      <trkpt lat="49.84011" lon="2.16815">
        <ele>79.6</ele>
        <time>2023-03-29T13:00:15Z</time>
      </trkpt>
      <trkpt lat="49.84012" lon="2.16816">
        <ele>79.6</ele>
        <time>2023-03-29T13:00:16Z</time>
      </trkpt>
      <trkpt lat="49.84012" lon="2.16817">
        <ele>79.6</ele>
        <time>2023-03-29T13:00:18Z</time>
      </trkpt>
      <trkpt lat="49.84012" lon="2.16818">
        <ele>79.6</ele>
        <time>2023-03-29T13:00:19Z</time>
      </trkpt>
      <trkpt lat="49.84013" lon="2.16819">
        <ele>79.6</ele>
        <time>2023-03-29T13:00:20Z</time>
      </trkpt>
      <trkpt lat="49.84013" lon="2.16821">
        <ele>79.6</ele>
        <time>2023-03-29T13:00:21Z</time>
      </trkpt>
      <trkpt lat="49.84014" lon="2.16823">
        <ele>79.6</ele>
        <time>2023-03-29T13:00:22Z</time>
      </trkpt>
      <trkpt lat="49.84014" lon="2.16824">
        <ele>79.6</ele>
        <time>2023-03-29T13:00:23Z</time>
      </trkpt>
      <trkpt lat="49.84014" lon="2.16826">
        <ele>79.6</ele>
        <time>2023-03-29T13:00:24Z</time>
      </trkpt>
      <trkpt lat="49.84015" lon="2.16827">
        <ele>79.6</ele>
        <time>2023-03-29T13:00:25Z</time>
      </trkpt>
      <trkpt lat="49.84015" lon="2.1683">
        <ele>79.6</ele>
        <time>2023-03-29T13:00:26Z</time>
      </trkpt>
      <trkpt lat="49.84016" lon="2.16835">
        <ele>79.6</ele>
        <time>2023-03-29T13:00:27Z</time>
      </trkpt>
      <trkpt lat="49.84016" lon="2.16837">
        <ele>79.6</ele>
        <time>2023-03-29T13:00:28Z</time>
      </trkpt>
      <trkpt lat="49.84017" lon="2.1684">
        <ele>79.6</ele>
        <time>2023-03-29T13:00:29Z</time>
      </trkpt>
      <trkpt lat="49.84018" lon="2.16843">
        <ele>79.6</ele>
        <time>2023-03-29T13:00:31Z</time>
      </trkpt>
      <trkpt lat="49.84018" lon="2.16846">
        <ele>79.6</ele>
        <time>2023-03-29T13:00:32Z</time>
      </trkpt>
      <trkpt lat="49.84019" lon="2.16848">
        <ele>79.6</ele>
        <time>2023-03-29T13:00:33Z</time>
      </trkpt>
      <trkpt lat="49.84019" lon="2.1685">
        <ele>79.6</ele>
        <time>2023-03-29T13:00:34Z</time>
      </trkpt>
      <trkpt lat="49.8402" lon="2.16853">
        <ele>79.7</ele>
        <time>2023-03-29T13:00:35Z</time>
      </trkpt>
      <trkpt lat="49.8402" lon="2.16856">
        <ele>79.7</ele>
        <time>2023-03-29T13:00:36Z</time>
      </trkpt>
      <trkpt lat="49.8402" lon="2.16858">
        <ele>79.7</ele>
        <time>2023-03-29T13:00:38Z</time>
      </trkpt>
      <trkpt lat="49.84021" lon="2.1686">
        <ele>79.7</ele>
        <time>2023-03-29T13:00:39Z</time>
      </trkpt>
      <trkpt lat="49.84022" lon="2.16862">
        <ele>79.7</ele>
        <time>2023-03-29T13:00:40Z</time>
      </trkpt>
      <trkpt lat="49.84023" lon="2.16865">
        <ele>79.7</ele>
        <time>2023-03-29T13:00:41Z</time>
      </trkpt>
      <trkpt lat="49.84023" lon="2.16867">
        <ele>79.7</ele>
        <time>2023-03-29T13:00:42Z</time>
      </trkpt>
      <trkpt lat="49.84024" lon="2.16868">
        <ele>79.7</ele>
        <time>2023-03-29T13:00:43Z</time>
      </trkpt>
      <trkpt lat="49.84025" lon="2.1687">
        <ele>79.7</ele>
        <time>2023-03-29T13:00:44Z</time>
      </trkpt>
      <trkpt lat="49.84026" lon="2.16872">
        <ele>79.7</ele>
        <time>2023-03-29T13:00:46Z</time>
      </trkpt>
      <trkpt lat="49.84027" lon="2.16874">
        <ele>79.7</ele>
        <time>2023-03-29T13:00:47Z</time>
      </trkpt>
      <trkpt lat="49.84027" lon="2.16876">
        <ele>79.7</ele>
        <time>2023-03-29T13:00:48Z</time>
      </trkpt>
      <trkpt lat="49.84028" lon="2.16877">
        <ele>79.7</ele>
        <time>2023-03-29T13:00:49Z</time>
      </trkpt>
      <trkpt lat="49.84029" lon="2.16878">
        <ele>79.7</ele>
        <time>2023-03-29T13:00:50Z</time>
      </trkpt>
      <trkpt lat="49.8403" lon="2.16881">
        <ele>79.7</ele>
        <time>2023-03-29T13:00:52Z</time>
      </trkpt>
      <trkpt lat="49.8403" lon="2.16883">
        <ele>79.7</ele>
        <time>2023-03-29T13:00:53Z</time>
      </trkpt>
      <trkpt lat="49.84031" lon="2.16885">
        <ele>79.7</ele>
        <time>2023-03-29T13:00:54Z</time>
      </trkpt>
      <trkpt lat="49.84032" lon="2.16887">
        <ele>79.7</ele>
        <time>2023-03-29T13:00:55Z</time>
      </trkpt>
      <trkpt lat="49.84033" lon="2.16889">
        <ele>79.7</ele>
        <time>2023-03-29T13:00:56Z</time>
      </trkpt>
      <trkpt lat="49.84033" lon="2.16891">
        <ele>79.7</ele>
        <time>2023-03-29T13:00:57Z</time>
      </trkpt>
      <trkpt lat="49.84034" lon="2.16894">
        <ele>79.8</ele>
        <time>2023-03-29T13:00:58Z</time>
      </trkpt>
      <trkpt lat="49.84035" lon="2.16896">
        <ele>79.8</ele>
        <time>2023-03-29T13:01:00Z</time>
      </trkpt>
      <trkpt lat="49.84035" lon="2.16898">
        <ele>79.8</ele>
        <time>2023-03-29T13:01:01Z</time>
      </trkpt>
      <trkpt lat="49.84036" lon="2.169">
        <ele>79.8</ele>
        <time>2023-03-29T13:01:02Z</time>
      </trkpt>
      <trkpt lat="49.84037" lon="2.16902">
        <ele>79.8</ele>
        <time>2023-03-29T13:01:03Z</time>
      </trkpt>
      <trkpt lat="49.84038" lon="2.16903">
        <ele>79.8</ele>
        <time>2023-03-29T13:01:04Z</time>
      </trkpt>
      <trkpt lat="49.84039" lon="2.16905">
        <ele>79.8</ele>
        <time>2023-03-29T13:01:05Z</time>
      </trkpt>
      <trkpt lat="49.8404" lon="2.16906">
        <ele>79.8</ele>
        <time>2023-03-29T13:01:06Z</time>
      </trkpt>
      <trkpt lat="49.84041" lon="2.16908">
        <ele>79.8</ele>
        <time>2023-03-29T13:01:07Z</time>
      </trkpt>
      <trkpt lat="49.84041" lon="2.16909">
        <ele>79.8</ele>
        <time>2023-03-29T13:01:08Z</time>
      </trkpt>
      <trkpt lat="49.84042" lon="2.16911">
        <ele>79.8</ele>
        <time>2023-03-29T13:01:09Z</time>
      </trkpt>
      <trkpt lat="49.84042" lon="2.16914">
        <ele>79.8</ele>
        <time>2023-03-29T13:01:11Z</time>
      </trkpt>
      <trkpt lat="49.84042" lon="2.16915">
        <ele>79.8</ele>
        <time>2023-03-29T13:01:12Z</time>
      </trkpt>
      <trkpt lat="49.84042" lon="2.16917">
        <ele>79.8</ele>
        <time>2023-03-29T13:01:13Z</time>
      </trkpt>
      <trkpt lat="49.84043" lon="2.16918">
        <ele>79.8</ele>
        <time>2023-03-29T13:01:14Z</time>
      </trkpt>
      <trkpt lat="49.84044" lon="2.16919">
        <ele>79.8</ele>
        <time>2023-03-29T13:01:15Z</time>
      </trkpt>
      <trkpt lat="49.84044" lon="2.16921">
        <ele>79.8</ele>
        <time>2023-03-29T13:01:16Z</time>
      </trkpt>
      <trkpt lat="49.84044" lon="2.16923">
        <ele>79.8</ele>
        <time>2023-03-29T13:01:18Z</time>
      </trkpt>
      <trkpt lat="49.84045" lon="2.16924">
        <ele>79.8</ele>
        <time>2023-03-29T13:01:19Z</time>
      </trkpt>
      <trkpt lat="49.84046" lon="2.16925">
        <ele>79.8</ele>
        <time>2023-03-29T13:01:20Z</time>
      </trkpt>
      <trkpt lat="49.84046" lon="2.16927">
        <ele>79.8</ele>
        <time>2023-03-29T13:01:21Z</time>
      </trkpt>
      <trkpt lat="49.84047" lon="2.16929">
        <ele>79.8</ele>
        <time>2023-03-29T13:01:22Z</time>
      </trkpt>
      <trkpt lat="49.84047" lon="2.16931">
        <ele>79.8</ele>
        <time>2023-03-29T13:01:23Z</time>
      </trkpt>
      <trkpt lat="49.84048" lon="2.16934">
        <ele>79.8</ele>
        <time>2023-03-29T13:01:24Z</time>
      </trkpt>
      <trkpt lat="49.84049" lon="2.16935">
        <ele>79.8</ele>
        <time>2023-03-29T13:01:25Z</time>
      </trkpt>
      <trkpt lat="49.84049" lon="2.16936">
        <ele>79.8</ele>
        <time>2023-03-29T13:01:26Z</time>
      </trkpt>
      <trkpt lat="49.84049" lon="2.16938">
        <ele>79.8</ele>
        <time>2023-03-29T13:01:27Z</time>
      </trkpt>
      <trkpt lat="49.84049" lon="2.16939">
        <ele>79.8</ele>
        <time>2023-03-29T13:01:29Z</time>
      </trkpt>
      <trkpt lat="49.84049" lon="2.16941">
        <ele>79.8</ele>
        <time>2023-03-29T13:01:30Z</time>
      </trkpt>
      <trkpt lat="49.84049" lon="2.16943">
        <ele>79.8</ele>
        <time>2023-03-29T13:01:31Z</time>
      </trkpt>
      <trkpt lat="49.8405" lon="2.16946">
        <ele>79.7</ele>
        <time>2023-03-29T13:01:32Z</time>
      </trkpt>
      <trkpt lat="49.8405" lon="2.16948">
        <ele>79.7</ele>
        <time>2023-03-29T13:01:34Z</time>
      </trkpt>
      <trkpt lat="49.8405" lon="2.1695">
        <ele>79.7</ele>
        <time>2023-03-29T13:01:35Z</time>
      </trkpt>
      <trkpt lat="49.84051" lon="2.16952">
        <ele>79.7</ele>
        <time>2023-03-29T13:01:36Z</time>
      </trkpt>
      <trkpt lat="49.84051" lon="2.16954">
        <ele>79.7</ele>
        <time>2023-03-29T13:01:37Z</time>
      </trkpt>
      <trkpt lat="49.84051" lon="2.16956">
        <ele>79.7</ele>
        <time>2023-03-29T13:01:38Z</time>
      </trkpt>
      <trkpt lat="49.84052" lon="2.16958">
        <ele>79.7</ele>
        <time>2023-03-29T13:01:39Z</time>
      </trkpt>
      <trkpt lat="49.84052" lon="2.1696">
        <ele>79.7</ele>
        <time>2023-03-29T13:01:40Z</time>
      </trkpt>
      <trkpt lat="49.84053" lon="2.16963">
        <ele>79.7</ele>
        <time>2023-03-29T13:01:41Z</time>
      </trkpt>
      <trkpt lat="49.84054" lon="2.16966">
        <ele>79.6</ele>
        <time>2023-03-29T13:01:42Z</time>
      </trkpt>
      <trkpt lat="49.84054" lon="2.16967">
        <ele>79.6</ele>
        <time>2023-03-29T13:01:44Z</time>
      </trkpt>
      <trkpt lat="49.84054" lon="2.16968">
        <ele>79.6</ele>
        <time>2023-03-29T13:01:45Z</time>
      </trkpt>
      <trkpt lat="49.84055" lon="2.1697">
        <ele>79.6</ele>
        <time>2023-03-29T13:01:46Z</time>
      </trkpt>
      <trkpt lat="49.84055" lon="2.16973">
        <ele>79.6</ele>
        <time>2023-03-29T13:01:47Z</time>
      </trkpt>
      <trkpt lat="49.84055" lon="2.16977">
        <ele>79.6</ele>
        <time>2023-03-29T13:01:48Z</time>
      </trkpt>
      <trkpt lat="49.84055" lon="2.16978">
        <ele>79.6</ele>
        <time>2023-03-29T13:01:49Z</time>
      </trkpt>
      <trkpt lat="49.84055" lon="2.16979">
        <ele>79.6</ele>
        <time>2023-03-29T13:01:50Z</time>
      </trkpt>
      <trkpt lat="49.84056" lon="2.16983">
        <ele>79.6</ele>
        <time>2023-03-29T13:01:51Z</time>
      </trkpt>
      <trkpt lat="49.84056" lon="2.16984">
        <ele>79.6</ele>
        <time>2023-03-29T13:01:53Z</time>
      </trkpt>
      <trkpt lat="49.84056" lon="2.16985">
        <ele>79.6</ele>
        <time>2023-03-29T13:01:54Z</time>
      </trkpt>
      <trkpt lat="49.84058" lon="2.16986">
        <ele>79.6</ele>
        <time>2023-03-29T13:01:55Z</time>
      </trkpt>
      <trkpt lat="49.84059" lon="2.16988">
        <ele>79.5</ele>
        <time>2023-03-29T13:01:56Z</time>
      </trkpt>
      <trkpt lat="49.8406" lon="2.16989">
        <ele>79.5</ele>
        <time>2023-03-29T13:01:57Z</time>
      </trkpt>
      <trkpt lat="49.84061" lon="2.16991">
        <ele>79.5</ele>
        <time>2023-03-29T13:01:58Z</time>
      </trkpt>
      <trkpt lat="49.84062" lon="2.16993">
        <ele>79.5</ele>
        <time>2023-03-29T13:01:59Z</time>
      </trkpt>
      <trkpt lat="49.84063" lon="2.16995">
        <ele>79.5</ele>
        <time>2023-03-29T13:02:00Z</time>
      </trkpt>
      <trkpt lat="49.84064" lon="2.16998">
        <ele>79.5</ele>
        <time>2023-03-29T13:02:02Z</time>
      </trkpt>
      <trkpt lat="49.84065" lon="2.16999">
        <ele>79.5</ele>
        <time>2023-03-29T13:02:03Z</time>
      </trkpt>
      <trkpt lat="49.84065" lon="2.17">
        <ele>79.5</ele>
        <time>2023-03-29T13:02:04Z</time>
      </trkpt>
      <trkpt lat="49.84066" lon="2.17003">
        <ele>79.5</ele>
        <time>2023-03-29T13:02:05Z</time>
      </trkpt>
      <trkpt lat="49.84067" lon="2.17004">
        <ele>79.5</ele>
        <time>2023-03-29T13:02:06Z</time>
      </trkpt>
      <trkpt lat="49.84068" lon="2.17007">
        <ele>79.5</ele>
        <time>2023-03-29T13:02:07Z</time>
      </trkpt>
      <trkpt lat="49.84069" lon="2.17008">
        <ele>79.5</ele>
        <time>2023-03-29T13:02:09Z</time>
      </trkpt>
      <trkpt lat="49.84069" lon="2.17009">
        <ele>79.5</ele>
        <time>2023-03-29T13:02:10Z</time>
      </trkpt>
      <trkpt lat="49.8407" lon="2.17013">
        <ele>79.5</ele>
        <time>2023-03-29T13:02:11Z</time>
      </trkpt>
      <trkpt lat="49.8407" lon="2.17014">
        <ele>79.5</ele>
        <time>2023-03-29T13:02:12Z</time>
      </trkpt>
      <trkpt lat="49.84071" lon="2.17015">
        <ele>79.5</ele>
        <time>2023-03-29T13:02:13Z</time>
      </trkpt>
      <trkpt lat="49.84071" lon="2.17017">
        <ele>79.5</ele>
        <time>2023-03-29T13:02:14Z</time>
      </trkpt>
      <trkpt lat="49.84072" lon="2.17019">
        <ele>79.5</ele>
        <time>2023-03-29T13:02:15Z</time>
      </trkpt>
      <trkpt lat="49.84072" lon="2.17021">
        <ele>79.5</ele>
        <time>2023-03-29T13:02:16Z</time>
      </trkpt>
      <trkpt lat="49.84073" lon="2.17023">
        <ele>79.5</ele>
        <time>2023-03-29T13:02:17Z</time>
      </trkpt>
      <trkpt lat="49.84074" lon="2.17025">
        <ele>79.4</ele>
        <time>2023-03-29T13:02:19Z</time>
      </trkpt>
      <trkpt lat="49.84075" lon="2.17028">
        <ele>79.4</ele>
        <time>2023-03-29T13:02:20Z</time>
      </trkpt>
      <trkpt lat="49.84076" lon="2.17029">
        <ele>79.4</ele>
        <time>2023-03-29T13:02:21Z</time>
      </trkpt>
      <trkpt lat="49.84076" lon="2.17029">
        <ele>79.4</ele>
        <time>2023-03-29T13:02:22Z</time>
      </trkpt>
      <trkpt lat="49.84077" lon="2.17032">
        <ele>79.4</ele>
        <time>2023-03-29T13:02:23Z</time>
      </trkpt>
      <trkpt lat="49.84078" lon="2.17033">
        <ele>79.4</ele>
        <time>2023-03-29T13:02:24Z</time>
      </trkpt>
      <trkpt lat="49.84078" lon="2.17034">
        <ele>79.4</ele>
        <time>2023-03-29T13:02:25Z</time>
      </trkpt>
      <trkpt lat="49.84078" lon="2.17036">
        <ele>79.4</ele>
        <time>2023-03-29T13:02:26Z</time>
      </trkpt>
      <trkpt lat="49.84079" lon="2.17037">
        <ele>79.4</ele>
        <time>2023-03-29T13:02:27Z</time>
      </trkpt>
      <trkpt lat="49.84079" lon="2.17039">
        <ele>79.4</ele>
        <time>2023-03-29T13:02:28Z</time>
      </trkpt>
      <trkpt lat="49.8408" lon="2.17041">
        <ele>79.4</ele>
        <time>2023-03-29T13:02:29Z</time>
      </trkpt>
      <trkpt lat="49.8408" lon="2.17043">
        <ele>79.4</ele>
        <time>2023-03-29T13:02:30Z</time>
      </trkpt>
      <trkpt lat="49.84081" lon="2.17046">
        <ele>79.4</ele>
        <time>2023-03-29T13:02:31Z</time>
      </trkpt>
      <trkpt lat="49.84081" lon="2.17048">
        <ele>79.4</ele>
        <time>2023-03-29T13:02:33Z</time>
      </trkpt>
      <trkpt lat="49.84081" lon="2.17049">
        <ele>79.4</ele>
        <time>2023-03-29T13:02:34Z</time>
      </trkpt>
      <trkpt lat="49.84082" lon="2.17052">
        <ele>79.3</ele>
        <time>2023-03-29T13:02:35Z</time>
      </trkpt>
      <trkpt lat="49.84082" lon="2.17053">
        <ele>79.3</ele>
        <time>2023-03-29T13:02:36Z</time>
      </trkpt>
      <trkpt lat="49.84083" lon="2.17055">
        <ele>79.3</ele>
        <time>2023-03-29T13:02:37Z</time>
      </trkpt>
      <trkpt lat="49.84083" lon="2.17057">
        <ele>79.3</ele>
        <time>2023-03-29T13:02:38Z</time>
      </trkpt>
      <trkpt lat="49.84083" lon="2.17058">
        <ele>79.3</ele>
        <time>2023-03-29T13:02:39Z</time>
      </trkpt>
      <trkpt lat="49.84084" lon="2.17061">
        <ele>79.3</ele>
        <time>2023-03-29T13:02:40Z</time>
      </trkpt>
      <trkpt lat="49.84084" lon="2.17062">
        <ele>79.3</ele>
        <time>2023-03-29T13:02:41Z</time>
      </trkpt>
      <trkpt lat="49.84085" lon="2.17063">
        <ele>79.3</ele>
        <time>2023-03-29T13:02:42Z</time>
      </trkpt>
      <trkpt lat="49.84086" lon="2.17066">
        <ele>79.3</ele>
        <time>2023-03-29T13:02:43Z</time>
      </trkpt>
      <trkpt lat="49.84086" lon="2.17067">
        <ele>79.3</ele>
        <time>2023-03-29T13:02:45Z</time>
      </trkpt>
      <trkpt lat="49.84087" lon="2.17068">
        <ele>79.3</ele>
        <time>2023-03-29T13:02:46Z</time>
      </trkpt>
      <trkpt lat="49.84088" lon="2.17071">
        <ele>79.3</ele>
        <time>2023-03-29T13:02:47Z</time>
      </trkpt>
      <trkpt lat="49.84088" lon="2.17072">
        <ele>79.3</ele>
        <time>2023-03-29T13:02:48Z</time>
      </trkpt>
      <trkpt lat="49.84089" lon="2.17073">
        <ele>79.3</ele>
        <time>2023-03-29T13:02:49Z</time>
      </trkpt>
      <trkpt lat="49.8409" lon="2.17077">
        <ele>79.2</ele>
        <time>2023-03-29T13:02:50Z</time>
      </trkpt>
      <trkpt lat="49.8409" lon="2.17078">
        <ele>79.2</ele>
        <time>2023-03-29T13:02:52Z</time>
      </trkpt>
      <trkpt lat="49.8409" lon="2.17079">
        <ele>79.2</ele>
        <time>2023-03-29T13:02:53Z</time>
      </trkpt>
      <trkpt lat="49.84091" lon="2.17082">
        <ele>79.2</ele>
        <time>2023-03-29T13:02:54Z</time>
      </trkpt>
      <trkpt lat="49.84092" lon="2.17083">
        <ele>79.2</ele>
        <time>2023-03-29T13:02:55Z</time>
      </trkpt>
      <trkpt lat="49.84092" lon="2.17085">
        <ele>79.2</ele>
        <time>2023-03-29T13:02:56Z</time>
      </trkpt>
      <trkpt lat="49.84093" lon="2.17088">
        <ele>79.2</ele>
        <time>2023-03-29T13:02:57Z</time>
      </trkpt>
      <trkpt lat="49.84093" lon="2.17089">
        <ele>79.2</ele>
        <time>2023-03-29T13:02:58Z</time>
      </trkpt>
      <trkpt lat="49.84094" lon="2.1709">
        <ele>79.1</ele>
        <time>2023-03-29T13:02:59Z</time>
      </trkpt>
      <trkpt lat="49.84095" lon="2.17093">
        <ele>79.1</ele>
        <time>2023-03-29T13:03:00Z</time>
      </trkpt>
      <trkpt lat="49.84095" lon="2.17094">
        <ele>79.1</ele>
        <time>2023-03-29T13:03:01Z</time>
      </trkpt>
      <trkpt lat="49.84096" lon="2.17097">
        <ele>79.1</ele>
        <time>2023-03-29T13:03:02Z</time>
      </trkpt>
      <trkpt lat="49.84097" lon="2.17098">
        <ele>79.1</ele>
        <time>2023-03-29T13:03:03Z</time>
      </trkpt>
      <trkpt lat="49.84097" lon="2.17099">
        <ele>79</ele>
        <time>2023-03-29T13:03:04Z</time>
      </trkpt>
      <trkpt lat="49.84098" lon="2.17101">
        <ele>79</ele>
        <time>2023-03-29T13:03:06Z</time>
      </trkpt>
      <trkpt lat="49.84098" lon="2.17102">
        <ele>79</ele>
        <time>2023-03-29T13:03:07Z</time>
      </trkpt>
      <trkpt lat="49.84099" lon="2.17103">
        <ele>79</ele>
        <time>2023-03-29T13:03:08Z</time>
      </trkpt>
      <trkpt lat="49.841" lon="2.17107">
        <ele>79</ele>
        <time>2023-03-29T13:03:09Z</time>
      </trkpt>
      <trkpt lat="49.841" lon="2.17108">
        <ele>78.9</ele>
        <time>2023-03-29T13:03:10Z</time>
      </trkpt>
      <trkpt lat="49.84101" lon="2.1711">
        <ele>78.9</ele>
        <time>2023-03-29T13:03:11Z</time>
      </trkpt>
      <trkpt lat="49.84101" lon="2.17112">
        <ele>78.9</ele>
        <time>2023-03-29T13:03:12Z</time>
      </trkpt>
      <trkpt lat="49.84102" lon="2.17114">
        <ele>78.9</ele>
        <time>2023-03-29T13:03:14Z</time>
      </trkpt>
      <trkpt lat="49.84103" lon="2.17115">
        <ele>78.9</ele>
        <time>2023-03-29T13:03:15Z</time>
      </trkpt>
      <trkpt lat="49.84104" lon="2.17118">
        <ele>78.8</ele>
        <time>2023-03-29T13:03:16Z</time>
      </trkpt>
      <trkpt lat="49.84104" lon="2.1712">
        <ele>78.8</ele>
        <time>2023-03-29T13:03:17Z</time>
      </trkpt>
      <trkpt lat="49.84104" lon="2.17122">
        <ele>78.8</ele>
        <time>2023-03-29T13:03:18Z</time>
      </trkpt>
      <trkpt lat="49.84105" lon="2.17124">
        <ele>78.8</ele>
        <time>2023-03-29T13:03:19Z</time>
      </trkpt>
      <trkpt lat="49.84105" lon="2.17127">
        <ele>78.7</ele>
        <time>2023-03-29T13:03:20Z</time>
      </trkpt>
      <trkpt lat="49.84106" lon="2.17129">
        <ele>78.7</ele>
        <time>2023-03-29T13:03:21Z</time>
      </trkpt>
      <trkpt lat="49.84106" lon="2.1713">
        <ele>78.7</ele>
        <time>2023-03-29T13:03:23Z</time>
      </trkpt>
      <trkpt lat="49.84106" lon="2.17132">
        <ele>78.6</ele>
        <time>2023-03-29T13:03:24Z</time>
      </trkpt>
      <trkpt lat="49.84106" lon="2.17133">
        <ele>78.6</ele>
        <time>2023-03-29T13:03:25Z</time>
      </trkpt>
      <trkpt lat="49.84107" lon="2.17136">
        <ele>78.6</ele>
        <time>2023-03-29T13:03:26Z</time>
      </trkpt>
      <trkpt lat="49.84107" lon="2.17137">
        <ele>78.6</ele>
        <time>2023-03-29T13:03:27Z</time>
      </trkpt>
      <trkpt lat="49.84108" lon="2.17138">
        <ele>78.6</ele>
        <time>2023-03-29T13:03:28Z</time>
      </trkpt>
      <trkpt lat="49.84108" lon="2.1714">
        <ele>78.5</ele>
        <time>2023-03-29T13:03:29Z</time>
      </trkpt>
      <trkpt lat="49.84109" lon="2.17143">
        <ele>78.5</ele>
        <time>2023-03-29T13:03:30Z</time>
      </trkpt>
      <trkpt lat="49.84109" lon="2.17146">
        <ele>78.4</ele>
        <time>2023-03-29T13:03:31Z</time>
      </trkpt>
      <trkpt lat="49.8411" lon="2.17147">
        <ele>78.4</ele>
        <time>2023-03-29T13:03:33Z</time>
      </trkpt>
      <trkpt lat="49.8411" lon="2.17149">
        <ele>78.4</ele>
        <time>2023-03-29T13:03:34Z</time>
      </trkpt>
      <trkpt lat="49.84111" lon="2.17151">
        <ele>78.3</ele>
        <time>2023-03-29T13:03:35Z</time>
      </trkpt>
      <trkpt lat="49.84111" lon="2.17154">
        <ele>78.3</ele>
        <time>2023-03-29T13:03:36Z</time>
      </trkpt>
      <trkpt lat="49.84112" lon="2.17156">
        <ele>78.3</ele>
        <time>2023-03-29T13:03:37Z</time>
      </trkpt>
      <trkpt lat="49.84112" lon="2.17158">
        <ele>78.2</ele>
        <time>2023-03-29T13:03:39Z</time>
      </trkpt>
      <trkpt lat="49.84112" lon="2.17159">
        <ele>78.2</ele>
        <time>2023-03-29T13:03:40Z</time>
      </trkpt>
      <trkpt lat="49.84113" lon="2.17161">
        <ele>78.2</ele>
        <time>2023-03-29T13:03:41Z</time>
      </trkpt>
      <trkpt lat="49.84113" lon="2.17163">
        <ele>78.1</ele>
        <time>2023-03-29T13:03:42Z</time>
      </trkpt>
      <trkpt lat="49.84114" lon="2.17165">
        <ele>78.1</ele>
        <time>2023-03-29T13:03:43Z</time>
      </trkpt>
      <trkpt lat="49.84114" lon="2.17167">
        <ele>78.1</ele>
        <time>2023-03-29T13:03:44Z</time>
      </trkpt>
      <trkpt lat="49.84115" lon="2.17171">
        <ele>78</ele>
        <time>2023-03-29T13:03:45Z</time>
      </trkpt>
      <trkpt lat="49.84115" lon="2.17172">
        <ele>78</ele>
        <time>2023-03-29T13:03:46Z</time>
      </trkpt>
      <trkpt lat="49.84115" lon="2.17176">
        <ele>77.9</ele>
        <time>2023-03-29T13:03:48Z</time>
      </trkpt>
      <trkpt lat="49.84116" lon="2.17177">
        <ele>77.9</ele>
        <time>2023-03-29T13:03:49Z</time>
      </trkpt>
      <trkpt lat="49.84116" lon="2.17178">
        <ele>77.8</ele>
        <time>2023-03-29T13:03:50Z</time>
      </trkpt>
      <trkpt lat="49.84116" lon="2.1718">
        <ele>77.8</ele>
        <time>2023-03-29T13:03:51Z</time>
      </trkpt>
      <trkpt lat="49.84117" lon="2.17182">
        <ele>77.8</ele>
        <time>2023-03-29T13:03:52Z</time>
      </trkpt>
      <trkpt lat="49.84119" lon="2.17184">
        <ele>77.7</ele>
        <time>2023-03-29T13:03:53Z</time>
      </trkpt>
      <trkpt lat="49.84119" lon="2.17185">
        <ele>77.7</ele>
        <time>2023-03-29T13:03:54Z</time>
      </trkpt>
      <trkpt lat="49.8412" lon="2.17186">
        <ele>77.6</ele>
        <time>2023-03-29T13:03:55Z</time>
      </trkpt>
      <trkpt lat="49.8412" lon="2.17187">
        <ele>77.6</ele>
        <time>2023-03-29T13:03:56Z</time>
      </trkpt>
      <trkpt lat="49.84121" lon="2.17188">
        <ele>77.6</ele>
        <time>2023-03-29T13:03:57Z</time>
      </trkpt>
      <trkpt lat="49.84122" lon="2.1719">
        <ele>77.5</ele>
        <time>2023-03-29T13:03:58Z</time>
      </trkpt>
      <trkpt lat="49.84122" lon="2.17192">
        <ele>77.5</ele>
        <time>2023-03-29T13:04:00Z</time>
      </trkpt>
      <trkpt lat="49.84123" lon="2.17194">
        <ele>77.4</ele>
        <time>2023-03-29T13:04:01Z</time>
      </trkpt>
      <trkpt lat="49.84124" lon="2.17195">
        <ele>77.4</ele>
        <time>2023-03-29T13:04:02Z</time>
      </trkpt>
      <trkpt lat="49.84125" lon="2.17197">
        <ele>77.3</ele>
        <time>2023-03-29T13:04:03Z</time>
      </trkpt>
      <trkpt lat="49.84125" lon="2.17198">
        <ele>77.3</ele>
        <time>2023-03-29T13:04:04Z</time>
      </trkpt>
      <trkpt lat="49.84126" lon="2.17201">
        <ele>77.2</ele>
        <time>2023-03-29T13:04:05Z</time>
      </trkpt>
      <trkpt lat="49.84127" lon="2.17202">
        <ele>77.2</ele>
        <time>2023-03-29T13:04:06Z</time>
      </trkpt>
      <trkpt lat="49.84127" lon="2.17203">
        <ele>77.2</ele>
        <time>2023-03-29T13:04:07Z</time>
      </trkpt>
      <trkpt lat="49.84128" lon="2.17206">
        <ele>77.1</ele>
        <time>2023-03-29T13:04:08Z</time>
      </trkpt>
      <trkpt lat="49.84128" lon="2.17208">
        <ele>77</ele>
        <time>2023-03-29T13:04:09Z</time>
      </trkpt>
      <trkpt lat="49.84128" lon="2.17209">
        <ele>77</ele>
        <time>2023-03-29T13:04:10Z</time>
      </trkpt>
      <trkpt lat="49.84129" lon="2.17211">
        <ele>77</ele>
        <time>2023-03-29T13:04:11Z</time>
      </trkpt>
      <trkpt lat="49.84129" lon="2.17212">
        <ele>76.9</ele>
        <time>2023-03-29T13:04:12Z</time>
      </trkpt>
      <trkpt lat="49.8413" lon="2.17214">
        <ele>76.9</ele>
        <time>2023-03-29T13:04:13Z</time>
      </trkpt>
      <trkpt lat="49.8413" lon="2.17216">
        <ele>76.8</ele>
        <time>2023-03-29T13:04:15Z</time>
      </trkpt>
      <trkpt lat="49.84131" lon="2.17219">
        <ele>76.7</ele>
        <time>2023-03-29T13:04:16Z</time>
      </trkpt>
      <trkpt lat="49.84131" lon="2.17222">
        <ele>76.7</ele>
        <time>2023-03-29T13:04:17Z</time>
      </trkpt>
      <trkpt lat="49.84132" lon="2.17223">
        <ele>76.6</ele>
        <time>2023-03-29T13:04:18Z</time>
      </trkpt>
      <trkpt lat="49.84132" lon="2.17225">
        <ele>76.6</ele>
        <time>2023-03-29T13:04:19Z</time>
      </trkpt>
      <trkpt lat="49.84133" lon="2.17227">
        <ele>76.5</ele>
        <time>2023-03-29T13:04:20Z</time>
      </trkpt>
      <trkpt lat="49.84133" lon="2.17228">
        <ele>76.5</ele>
        <time>2023-03-29T13:04:22Z</time>
      </trkpt>
      <trkpt lat="49.84133" lon="2.17229">
        <ele>76.4</ele>
        <time>2023-03-29T13:04:23Z</time>
      </trkpt>
      <trkpt lat="49.84134" lon="2.17232">
        <ele>76.4</ele>
        <time>2023-03-29T13:04:24Z</time>
      </trkpt>
      <trkpt lat="49.84134" lon="2.17234">
        <ele>76.3</ele>
        <time>2023-03-29T13:04:25Z</time>
      </trkpt>
      <trkpt lat="49.84135" lon="2.17235">
        <ele>76.3</ele>
        <time>2023-03-29T13:04:26Z</time>
      </trkpt>
      <trkpt lat="49.84135" lon="2.17237">
        <ele>76.2</ele>
        <time>2023-03-29T13:04:27Z</time>
      </trkpt>
      <trkpt lat="49.84135" lon="2.17239">
        <ele>76.2</ele>
        <time>2023-03-29T13:04:28Z</time>
      </trkpt>
      <trkpt lat="49.84136" lon="2.17242">
        <ele>76.1</ele>
        <time>2023-03-29T13:04:29Z</time>
      </trkpt>
      <trkpt lat="49.84137" lon="2.17244">
        <ele>76</ele>
        <time>2023-03-29T13:04:30Z</time>
      </trkpt>
      <trkpt lat="49.84137" lon="2.17245">
        <ele>76</ele>
        <time>2023-03-29T13:04:31Z</time>
      </trkpt>
      <trkpt lat="49.84138" lon="2.17248">
        <ele>75.9</ele>
        <time>2023-03-29T13:04:32Z</time>
      </trkpt>
      <trkpt lat="49.84138" lon="2.1725">
        <ele>75.9</ele>
        <time>2023-03-29T13:04:33Z</time>
      </trkpt>
      <trkpt lat="49.84138" lon="2.17251">
        <ele>75.8</ele>
        <time>2023-03-29T13:04:34Z</time>
      </trkpt>
      <trkpt lat="49.84139" lon="2.17254">
        <ele>75.7</ele>
        <time>2023-03-29T13:04:36Z</time>
      </trkpt>
      <trkpt lat="49.84139" lon="2.17256">
        <ele>75.7</ele>
        <time>2023-03-29T13:04:38Z</time>
      </trkpt>
      <trkpt lat="49.8414" lon="2.17259">
        <ele>75.6</ele>
        <time>2023-03-29T13:04:39Z</time>
      </trkpt>
      <trkpt lat="49.8414" lon="2.17261">
        <ele>75.5</ele>
        <time>2023-03-29T13:04:40Z</time>
      </trkpt>
      <trkpt lat="49.84141" lon="2.17262">
        <ele>75.5</ele>
        <time>2023-03-29T13:04:41Z</time>
      </trkpt>
      <trkpt lat="49.84141" lon="2.17265">
        <ele>75.4</ele>
        <time>2023-03-29T13:04:42Z</time>
      </trkpt>
      <trkpt lat="49.84142" lon="2.17266">
        <ele>75.4</ele>
        <time>2023-03-29T13:04:43Z</time>
      </trkpt>
      <trkpt lat="49.84142" lon="2.17267">
        <ele>75.3</ele>
        <time>2023-03-29T13:04:44Z</time>
      </trkpt>
      <trkpt lat="49.84142" lon="2.1727">
        <ele>75.3</ele>
        <time>2023-03-29T13:04:46Z</time>
      </trkpt>
      <trkpt lat="49.84143" lon="2.17272">
        <ele>75.2</ele>
        <time>2023-03-29T13:04:47Z</time>
      </trkpt>
      <trkpt lat="49.84144" lon="2.17274">
        <ele>75.1</ele>
        <time>2023-03-29T13:04:48Z</time>
      </trkpt>
      <trkpt lat="49.84145" lon="2.17275">
        <ele>75.1</ele>
        <time>2023-03-29T13:04:49Z</time>
      </trkpt>
      <trkpt lat="49.84145" lon="2.17276">
        <ele>75.1</ele>
        <time>2023-03-29T13:04:50Z</time>
      </trkpt>
      <trkpt lat="49.84146" lon="2.17278">
        <ele>75</ele>
        <time>2023-03-29T13:04:51Z</time>
      </trkpt>
      <trkpt lat="49.84147" lon="2.17279">
        <ele>75</ele>
        <time>2023-03-29T13:04:52Z</time>
      </trkpt>
      <trkpt lat="49.84147" lon="2.1728">
        <ele>74.9</ele>
        <time>2023-03-29T13:04:53Z</time>
      </trkpt>
      <trkpt lat="49.84147" lon="2.17284">
        <ele>74.9</ele>
        <time>2023-03-29T13:04:54Z</time>
      </trkpt>
      <trkpt lat="49.84147" lon="2.17285">
        <ele>74.8</ele>
        <time>2023-03-29T13:04:55Z</time>
      </trkpt>
      <trkpt lat="49.84148" lon="2.17287">
        <ele>74.8</ele>
        <time>2023-03-29T13:04:56Z</time>
      </trkpt>
      <trkpt lat="49.84148" lon="2.17289">
        <ele>74.7</ele>
        <time>2023-03-29T13:04:57Z</time>
      </trkpt>
      <trkpt lat="49.84148" lon="2.17291">
        <ele>74.7</ele>
        <time>2023-03-29T13:04:58Z</time>
      </trkpt>
      <trkpt lat="49.84149" lon="2.17292">
        <ele>74.6</ele>
        <time>2023-03-29T13:04:59Z</time>
      </trkpt>
      <trkpt lat="49.84149" lon="2.17295">
        <ele>74.5</ele>
        <time>2023-03-29T13:05:01Z</time>
      </trkpt>
      <trkpt lat="49.84148" lon="2.17297">
        <ele>74.5</ele>
        <time>2023-03-29T13:05:02Z</time>
      </trkpt>
      <trkpt lat="49.84148" lon="2.17299">
        <ele>74.4</ele>
        <time>2023-03-29T13:05:03Z</time>
      </trkpt>
      <trkpt lat="49.84148" lon="2.17301">
        <ele>74.4</ele>
        <time>2023-03-29T13:05:04Z</time>
      </trkpt>
      <trkpt lat="49.84147" lon="2.17303">
        <ele>74.3</ele>
        <time>2023-03-29T13:05:05Z</time>
      </trkpt>
      <trkpt lat="49.84147" lon="2.17305">
        <ele>74.2</ele>
        <time>2023-03-29T13:05:06Z</time>
      </trkpt>
      <trkpt lat="49.84147" lon="2.17307">
        <ele>74.2</ele>
        <time>2023-03-29T13:05:07Z</time>
      </trkpt>
      <trkpt lat="49.84147" lon="2.17309">
        <ele>74.1</ele>
        <time>2023-03-29T13:05:08Z</time>
      </trkpt>
      <trkpt lat="49.84147" lon="2.17312">
        <ele>74.1</ele>
        <time>2023-03-29T13:05:10Z</time>
      </trkpt>
      <trkpt lat="49.84147" lon="2.17313">
        <ele>74</ele>
        <time>2023-03-29T13:05:11Z</time>
      </trkpt>
      <trkpt lat="49.84147" lon="2.17316">
        <ele>73.9</ele>
        <time>2023-03-29T13:05:12Z</time>
      </trkpt>
      <trkpt lat="49.84147" lon="2.17319">
        <ele>73.8</ele>
        <time>2023-03-29T13:05:13Z</time>
      </trkpt>
      <trkpt lat="49.84147" lon="2.17321">
        <ele>73.8</ele>
        <time>2023-03-29T13:05:14Z</time>
      </trkpt>
      <trkpt lat="49.84148" lon="2.17323">
        <ele>73.7</ele>
        <time>2023-03-29T13:05:15Z</time>
      </trkpt>
      <trkpt lat="49.84148" lon="2.17325">
        <ele>73.6</ele>
        <time>2023-03-29T13:05:16Z</time>
      </trkpt>
      <trkpt lat="49.84148" lon="2.17328">
        <ele>73.6</ele>
        <time>2023-03-29T13:05:17Z</time>
      </trkpt>
      <trkpt lat="49.84149" lon="2.17331">
        <ele>73.5</ele>
        <time>2023-03-29T13:05:18Z</time>
      </trkpt>
      <trkpt lat="49.8415" lon="2.17332">
        <ele>73.4</ele>
        <time>2023-03-29T13:05:19Z</time>
      </trkpt>
      <trkpt lat="49.8415" lon="2.17333">
        <ele>73.4</ele>
        <time>2023-03-29T13:05:20Z</time>
      </trkpt>
      <trkpt lat="49.84151" lon="2.17335">
        <ele>73.3</ele>
        <time>2023-03-29T13:05:21Z</time>
      </trkpt>
      <trkpt lat="49.84151" lon="2.17337">
        <ele>73.3</ele>
        <time>2023-03-29T13:05:22Z</time>
      </trkpt>
      <trkpt lat="49.84151" lon="2.17338">
        <ele>73.2</ele>
        <time>2023-03-29T13:05:24Z</time>
      </trkpt>
      <trkpt lat="49.84152" lon="2.1734">
        <ele>73.2</ele>
        <time>2023-03-29T13:05:25Z</time>
      </trkpt>
      <trkpt lat="49.84152" lon="2.17342">
        <ele>73.1</ele>
        <time>2023-03-29T13:05:26Z</time>
      </trkpt>
      <trkpt lat="49.84152" lon="2.17343">
        <ele>73.1</ele>
        <time>2023-03-29T13:05:27Z</time>
      </trkpt>
      <trkpt lat="49.84153" lon="2.17347">
        <ele>73</ele>
        <time>2023-03-29T13:05:28Z</time>
      </trkpt>
      <trkpt lat="49.84153" lon="2.17348">
        <ele>72.9</ele>
        <time>2023-03-29T13:05:29Z</time>
      </trkpt>
      <trkpt lat="49.84153" lon="2.17349">
        <ele>72.9</ele>
        <time>2023-03-29T13:05:30Z</time>
      </trkpt>
      <trkpt lat="49.84153" lon="2.17352">
        <ele>72.8</ele>
        <time>2023-03-29T13:05:31Z</time>
      </trkpt>
      <trkpt lat="49.84153" lon="2.17354">
        <ele>72.8</ele>
        <time>2023-03-29T13:05:32Z</time>
      </trkpt>
      <trkpt lat="49.84154" lon="2.17358">
        <ele>72.6</ele>
        <time>2023-03-29T13:05:34Z</time>
      </trkpt>
      <trkpt lat="49.84154" lon="2.1736">
        <ele>72.6</ele>
        <time>2023-03-29T13:05:35Z</time>
      </trkpt>
      <trkpt lat="49.84154" lon="2.17362">
        <ele>72.5</ele>
        <time>2023-03-29T13:05:37Z</time>
      </trkpt>
      <trkpt lat="49.84154" lon="2.17364">
        <ele>72.5</ele>
        <time>2023-03-29T13:05:38Z</time>
      </trkpt>
      <trkpt lat="49.84154" lon="2.17366">
        <ele>72.4</ele>
        <time>2023-03-29T13:05:39Z</time>
      </trkpt>
      <trkpt lat="49.84154" lon="2.17368">
        <ele>72.3</ele>
        <time>2023-03-29T13:05:40Z</time>
      </trkpt>
      <trkpt lat="49.84155" lon="2.17372">
        <ele>72.2</ele>
        <time>2023-03-29T13:05:42Z</time>
      </trkpt>
      <trkpt lat="49.84155" lon="2.17373">
        <ele>72.2</ele>
        <time>2023-03-29T13:05:43Z</time>
      </trkpt>
      <trkpt lat="49.84156" lon="2.17375">
        <ele>72.1</ele>
        <time>2023-03-29T13:05:45Z</time>
      </trkpt>
      <trkpt lat="49.84156" lon="2.17378">
        <ele>72.1</ele>
        <time>2023-03-29T13:05:46Z</time>
      </trkpt>
      <trkpt lat="49.84157" lon="2.17379">
        <ele>72</ele>
        <time>2023-03-29T13:05:47Z</time>
      </trkpt>
      <trkpt lat="49.84157" lon="2.17383">
        <ele>71.9</ele>
        <time>2023-03-29T13:05:48Z</time>
      </trkpt>
      <trkpt lat="49.84158" lon="2.17384">
        <ele>71.9</ele>
        <time>2023-03-29T13:05:49Z</time>
      </trkpt>
      <trkpt lat="49.84158" lon="2.17385">
        <ele>71.8</ele>
        <time>2023-03-29T13:05:50Z</time>
      </trkpt>
      <trkpt lat="49.84158" lon="2.17388">
        <ele>71.8</ele>
        <time>2023-03-29T13:05:51Z</time>
      </trkpt>
      <trkpt lat="49.84159" lon="2.1739">
        <ele>71.7</ele>
        <time>2023-03-29T13:05:52Z</time>
      </trkpt>
      <trkpt lat="49.84159" lon="2.17393">
        <ele>71.6</ele>
        <time>2023-03-29T13:05:54Z</time>
      </trkpt>
      <trkpt lat="49.8416" lon="2.17394">
        <ele>71.6</ele>
        <time>2023-03-29T13:05:55Z</time>
      </trkpt>
      <trkpt lat="49.8416" lon="2.17395">
        <ele>71.6</ele>
        <time>2023-03-29T13:05:56Z</time>
      </trkpt>
      <trkpt lat="49.84161" lon="2.17398">
        <ele>71.5</ele>
        <time>2023-03-29T13:05:57Z</time>
      </trkpt>
      <trkpt lat="49.84161" lon="2.174">
        <ele>71.4</ele>
        <time>2023-03-29T13:05:58Z</time>
      </trkpt>
      <trkpt lat="49.84162" lon="2.17401">
        <ele>71.4</ele>
        <time>2023-03-29T13:05:59Z</time>
      </trkpt>
      <trkpt lat="49.84162" lon="2.17403">
        <ele>71.3</ele>
        <time>2023-03-29T13:06:00Z</time>
      </trkpt>
      <trkpt lat="49.84163" lon="2.17406">
        <ele>71.2</ele>
        <time>2023-03-29T13:06:01Z</time>
      </trkpt>
      <trkpt lat="49.84164" lon="2.17409">
        <ele>71.1</ele>
        <time>2023-03-29T13:06:03Z</time>
      </trkpt>
      <trkpt lat="49.84164" lon="2.1741">
        <ele>71.1</ele>
        <time>2023-03-29T13:06:04Z</time>
      </trkpt>
      <trkpt lat="49.84165" lon="2.17411">
        <ele>71</ele>
        <time>2023-03-29T13:06:05Z</time>
      </trkpt>
      <trkpt lat="49.84166" lon="2.17415">
        <ele>70.9</ele>
        <time>2023-03-29T13:06:06Z</time>
      </trkpt>
      <trkpt lat="49.84166" lon="2.17416">
        <ele>70.9</ele>
        <time>2023-03-29T13:06:07Z</time>
      </trkpt>
      <trkpt lat="49.84166" lon="2.1742">
        <ele>70.8</ele>
        <time>2023-03-29T13:06:09Z</time>
      </trkpt>
      <trkpt lat="49.84166" lon="2.17421">
        <ele>70.7</ele>
        <time>2023-03-29T13:06:10Z</time>
      </trkpt>
      <trkpt lat="49.84167" lon="2.17422">
        <ele>70.7</ele>
        <time>2023-03-29T13:06:11Z</time>
      </trkpt>
      <trkpt lat="49.84167" lon="2.17424">
        <ele>70.7</ele>
        <time>2023-03-29T13:06:12Z</time>
      </trkpt>
      <trkpt lat="49.84167" lon="2.17425">
        <ele>70.6</ele>
        <time>2023-03-29T13:06:13Z</time>
      </trkpt>
      <trkpt lat="49.84167" lon="2.17427">
        <ele>70.6</ele>
        <time>2023-03-29T13:06:14Z</time>
      </trkpt>
      <trkpt lat="49.84167" lon="2.17429">
        <ele>70.5</ele>
        <time>2023-03-29T13:06:15Z</time>
      </trkpt>
      <trkpt lat="49.84168" lon="2.17432">
        <ele>70.4</ele>
        <time>2023-03-29T13:06:16Z</time>
      </trkpt>
      <trkpt lat="49.84168" lon="2.17434">
        <ele>70.4</ele>
        <time>2023-03-29T13:06:17Z</time>
      </trkpt>
      <trkpt lat="49.84168" lon="2.17435">
        <ele>70.3</ele>
        <time>2023-03-29T13:06:18Z</time>
      </trkpt>
      <trkpt lat="49.84168" lon="2.17438">
        <ele>70.3</ele>
        <time>2023-03-29T13:06:19Z</time>
      </trkpt>
      <trkpt lat="49.84169" lon="2.1744">
        <ele>70.2</ele>
        <time>2023-03-29T13:06:20Z</time>
      </trkpt>
      <trkpt lat="49.84169" lon="2.17442">
        <ele>70.1</ele>
        <time>2023-03-29T13:06:21Z</time>
      </trkpt>
      <trkpt lat="49.84169" lon="2.17444">
        <ele>70.1</ele>
        <time>2023-03-29T13:06:22Z</time>
      </trkpt>
      <trkpt lat="49.8417" lon="2.17446">
        <ele>70</ele>
        <time>2023-03-29T13:06:23Z</time>
      </trkpt>
      <trkpt lat="49.8417" lon="2.17448">
        <ele>70</ele>
        <time>2023-03-29T13:06:24Z</time>
      </trkpt>
      <trkpt lat="49.8417" lon="2.1745">
        <ele>69.9</ele>
        <time>2023-03-29T13:06:26Z</time>
      </trkpt>
      <trkpt lat="49.84171" lon="2.17451">
        <ele>69.8</ele>
        <time>2023-03-29T13:06:27Z</time>
      </trkpt>
      <trkpt lat="49.84171" lon="2.17453">
        <ele>69.8</ele>
        <time>2023-03-29T13:06:28Z</time>
      </trkpt>
      <trkpt lat="49.84172" lon="2.17456">
        <ele>69.7</ele>
        <time>2023-03-29T13:06:29Z</time>
      </trkpt>
      <trkpt lat="49.84172" lon="2.17458">
        <ele>69.6</ele>
        <time>2023-03-29T13:06:30Z</time>
      </trkpt>
      <trkpt lat="49.84172" lon="2.17459">
        <ele>69.6</ele>
        <time>2023-03-29T13:06:31Z</time>
      </trkpt>
      <trkpt lat="49.84173" lon="2.1746">
        <ele>69.6</ele>
        <time>2023-03-29T13:06:32Z</time>
      </trkpt>
      <trkpt lat="49.84173" lon="2.17462">
        <ele>69.5</ele>
        <time>2023-03-29T13:06:33Z</time>
      </trkpt>
      <trkpt lat="49.84174" lon="2.17464">
        <ele>69.5</ele>
        <time>2023-03-29T13:06:34Z</time>
      </trkpt>
      <trkpt lat="49.84174" lon="2.17466">
        <ele>69.4</ele>
        <time>2023-03-29T13:06:35Z</time>
      </trkpt>
      <trkpt lat="49.84175" lon="2.17469">
        <ele>69.3</ele>
        <time>2023-03-29T13:06:36Z</time>
      </trkpt>
      <trkpt lat="49.84175" lon="2.1747">
        <ele>69.3</ele>
        <time>2023-03-29T13:06:37Z</time>
      </trkpt>
      <trkpt lat="49.84175" lon="2.17472">
        <ele>69.2</ele>
        <time>2023-03-29T13:06:38Z</time>
      </trkpt>
      <trkpt lat="49.84176" lon="2.17473">
        <ele>69.2</ele>
        <time>2023-03-29T13:06:39Z</time>
      </trkpt>
      <trkpt lat="49.84176" lon="2.17476">
        <ele>69.1</ele>
        <time>2023-03-29T13:06:41Z</time>
      </trkpt>
      <trkpt lat="49.84176" lon="2.17478">
        <ele>69.1</ele>
        <time>2023-03-29T13:06:42Z</time>
      </trkpt>
      <trkpt lat="49.84176" lon="2.17479">
        <ele>69</ele>
        <time>2023-03-29T13:06:43Z</time>
      </trkpt>
      <trkpt lat="49.84177" lon="2.17482">
        <ele>69</ele>
        <time>2023-03-29T13:06:44Z</time>
      </trkpt>
      <trkpt lat="49.84177" lon="2.17484">
        <ele>68.9</ele>
        <time>2023-03-29T13:06:45Z</time>
      </trkpt>
      <trkpt lat="49.84177" lon="2.17485">
        <ele>68.9</ele>
        <time>2023-03-29T13:06:46Z</time>
      </trkpt>
      <trkpt lat="49.84177" lon="2.17487">
        <ele>68.8</ele>
        <time>2023-03-29T13:06:48Z</time>
      </trkpt>
      <trkpt lat="49.84177" lon="2.17489">
        <ele>68.8</ele>
        <time>2023-03-29T13:06:49Z</time>
      </trkpt>
      <trkpt lat="49.84177" lon="2.17491">
        <ele>68.7</ele>
        <time>2023-03-29T13:06:50Z</time>
      </trkpt>
      <trkpt lat="49.84177" lon="2.17493">
        <ele>68.7</ele>
        <time>2023-03-29T13:06:51Z</time>
      </trkpt>
      <trkpt lat="49.84178" lon="2.17495">
        <ele>68.6</ele>
        <time>2023-03-29T13:06:52Z</time>
      </trkpt>
      <trkpt lat="49.84178" lon="2.17497">
        <ele>68.6</ele>
        <time>2023-03-29T13:06:53Z</time>
      </trkpt>
      <trkpt lat="49.84178" lon="2.17499">
        <ele>68.6</ele>
        <time>2023-03-29T13:06:54Z</time>
      </trkpt>
      <trkpt lat="49.84178" lon="2.17501">
        <ele>68.5</ele>
        <time>2023-03-29T13:06:56Z</time>
      </trkpt>
      <trkpt lat="49.84179" lon="2.17503">
        <ele>68.5</ele>
        <time>2023-03-29T13:06:57Z</time>
      </trkpt>
      <trkpt lat="49.84179" lon="2.17504">
        <ele>68.4</ele>
        <time>2023-03-29T13:06:58Z</time>
      </trkpt>
      <trkpt lat="49.84179" lon="2.17506">
        <ele>68.4</ele>
        <time>2023-03-29T13:06:59Z</time>
      </trkpt>
      <trkpt lat="49.84179" lon="2.17508">
        <ele>68.3</ele>
        <time>2023-03-29T13:07:00Z</time>
      </trkpt>
      <trkpt lat="49.84179" lon="2.17511">
        <ele>68.2</ele>
        <time>2023-03-29T13:07:01Z</time>
      </trkpt>
      <trkpt lat="49.84179" lon="2.17514">
        <ele>68.2</ele>
        <time>2023-03-29T13:07:02Z</time>
      </trkpt>
      <trkpt lat="49.84179" lon="2.17516">
        <ele>68.1</ele>
        <time>2023-03-29T13:07:03Z</time>
      </trkpt>
      <trkpt lat="49.84179" lon="2.17517">
        <ele>68.1</ele>
        <time>2023-03-29T13:07:05Z</time>
      </trkpt>
      <trkpt lat="49.84179" lon="2.17519">
        <ele>68.1</ele>
        <time>2023-03-29T13:07:06Z</time>
      </trkpt>
      <trkpt lat="49.84179" lon="2.1752">
        <ele>68</ele>
        <time>2023-03-29T13:07:07Z</time>
      </trkpt>
      <trkpt lat="49.84179" lon="2.17522">
        <ele>68</ele>
        <time>2023-03-29T13:07:08Z</time>
      </trkpt>
      <trkpt lat="49.84179" lon="2.17525">
        <ele>67.9</ele>
        <time>2023-03-29T13:07:09Z</time>
      </trkpt>
      <trkpt lat="49.84179" lon="2.17527">
        <ele>67.9</ele>
        <time>2023-03-29T13:07:10Z</time>
      </trkpt>
      <trkpt lat="49.8418" lon="2.17528">
        <ele>67.8</ele>
        <time>2023-03-29T13:07:11Z</time>
      </trkpt>
      <trkpt lat="49.8418" lon="2.1753">
        <ele>67.8</ele>
        <time>2023-03-29T13:07:12Z</time>
      </trkpt>
      <trkpt lat="49.8418" lon="2.17532">
        <ele>67.8</ele>
        <time>2023-03-29T13:07:14Z</time>
      </trkpt>
      <trkpt lat="49.8418" lon="2.17534">
        <ele>67.7</ele>
        <time>2023-03-29T13:07:15Z</time>
      </trkpt>
      <trkpt lat="49.84181" lon="2.17536">
        <ele>67.7</ele>
        <time>2023-03-29T13:07:16Z</time>
      </trkpt>
      <trkpt lat="49.84181" lon="2.17538">
        <ele>67.6</ele>
        <time>2023-03-29T13:07:17Z</time>
      </trkpt>
      <trkpt lat="49.84181" lon="2.1754">
        <ele>67.6</ele>
        <time>2023-03-29T13:07:18Z</time>
      </trkpt>
      <trkpt lat="49.84182" lon="2.17542">
        <ele>67.5</ele>
        <time>2023-03-29T13:07:19Z</time>
      </trkpt>
      <trkpt lat="49.84182" lon="2.17544">
        <ele>67.5</ele>
        <time>2023-03-29T13:07:21Z</time>
      </trkpt>
      <trkpt lat="49.84183" lon="2.17547">
        <ele>67.4</ele>
        <time>2023-03-29T13:07:22Z</time>
      </trkpt>
      <trkpt lat="49.84183" lon="2.17548">
        <ele>67.4</ele>
        <time>2023-03-29T13:07:23Z</time>
      </trkpt>
      <trkpt lat="49.84184" lon="2.17549">
        <ele>67.4</ele>
        <time>2023-03-29T13:07:24Z</time>
      </trkpt>
      <trkpt lat="49.84184" lon="2.17551">
        <ele>67.3</ele>
        <time>2023-03-29T13:07:25Z</time>
      </trkpt>
      <trkpt lat="49.84185" lon="2.17554">
        <ele>67.3</ele>
        <time>2023-03-29T13:07:26Z</time>
      </trkpt>
      <trkpt lat="49.84185" lon="2.17556">
        <ele>67.2</ele>
        <time>2023-03-29T13:07:28Z</time>
      </trkpt>
      <trkpt lat="49.84185" lon="2.17558">
        <ele>67.2</ele>
        <time>2023-03-29T13:07:29Z</time>
      </trkpt>
      <trkpt lat="49.84186" lon="2.17559">
        <ele>67.2</ele>
        <time>2023-03-29T13:07:30Z</time>
      </trkpt>
      <trkpt lat="49.84186" lon="2.17561">
        <ele>67.1</ele>
        <time>2023-03-29T13:07:31Z</time>
      </trkpt>
      <trkpt lat="49.84187" lon="2.17564">
        <ele>67.1</ele>
        <time>2023-03-29T13:07:32Z</time>
      </trkpt>
      <trkpt lat="49.84188" lon="2.17567">
        <ele>67</ele>
        <time>2023-03-29T13:07:33Z</time>
      </trkpt>
      <trkpt lat="49.84188" lon="2.17568">
        <ele>67</ele>
        <time>2023-03-29T13:07:34Z</time>
      </trkpt>
      <trkpt lat="49.84189" lon="2.17569">
        <ele>66.9</ele>
        <time>2023-03-29T13:07:35Z</time>
      </trkpt>
      <trkpt lat="49.8419" lon="2.17572">
        <ele>66.9</ele>
        <time>2023-03-29T13:07:36Z</time>
      </trkpt>
      <trkpt lat="49.8419" lon="2.17573">
        <ele>66.9</ele>
        <time>2023-03-29T13:07:37Z</time>
      </trkpt>
      <trkpt lat="49.8419" lon="2.17574">
        <ele>66.8</ele>
        <time>2023-03-29T13:07:38Z</time>
      </trkpt>
      <trkpt lat="49.84191" lon="2.17577">
        <ele>66.8</ele>
        <time>2023-03-29T13:07:39Z</time>
      </trkpt>
      <trkpt lat="49.84191" lon="2.17579">
        <ele>66.7</ele>
        <time>2023-03-29T13:07:41Z</time>
      </trkpt>
      <trkpt lat="49.84192" lon="2.1758">
        <ele>66.7</ele>
        <time>2023-03-29T13:07:42Z</time>
      </trkpt>
      <trkpt lat="49.84192" lon="2.17583">
        <ele>66.6</ele>
        <time>2023-03-29T13:07:43Z</time>
      </trkpt>
      <trkpt lat="49.84192" lon="2.17584">
        <ele>66.6</ele>
        <time>2023-03-29T13:07:44Z</time>
      </trkpt>
      <trkpt lat="49.84193" lon="2.17586">
        <ele>66.7</ele>
        <time>2023-03-29T13:07:45Z</time>
      </trkpt>
      <trkpt lat="49.84193" lon="2.17588">
        <ele>66.6</ele>
        <time>2023-03-29T13:07:46Z</time>
      </trkpt>
      <trkpt lat="49.84194" lon="2.1759">
        <ele>66.6</ele>
        <time>2023-03-29T13:07:47Z</time>
      </trkpt>
      <trkpt lat="49.84194" lon="2.17591">
        <ele>66.6</ele>
        <time>2023-03-29T13:07:49Z</time>
      </trkpt>
      <trkpt lat="49.84194" lon="2.17593">
        <ele>66.5</ele>
        <time>2023-03-29T13:07:50Z</time>
      </trkpt>
      <trkpt lat="49.84194" lon="2.17595">
        <ele>66.5</ele>
        <time>2023-03-29T13:07:51Z</time>
      </trkpt>
      <trkpt lat="49.84195" lon="2.17597">
        <ele>66.4</ele>
        <time>2023-03-29T13:07:52Z</time>
      </trkpt>
      <trkpt lat="49.84195" lon="2.17599">
        <ele>66.4</ele>
        <time>2023-03-29T13:07:53Z</time>
      </trkpt>
      <trkpt lat="49.84195" lon="2.17601">
        <ele>66.4</ele>
        <time>2023-03-29T13:07:54Z</time>
      </trkpt>
      <trkpt lat="49.84195" lon="2.17603">
        <ele>66.3</ele>
        <time>2023-03-29T13:07:55Z</time>
      </trkpt>
      <trkpt lat="49.84196" lon="2.17607">
        <ele>66.3</ele>
        <time>2023-03-29T13:07:57Z</time>
      </trkpt>
      <trkpt lat="49.84196" lon="2.17608">
        <ele>66.2</ele>
        <time>2023-03-29T13:07:58Z</time>
      </trkpt>
      <trkpt lat="49.84197" lon="2.17611">
        <ele>66.2</ele>
        <time>2023-03-29T13:07:59Z</time>
      </trkpt>
      <trkpt lat="49.84197" lon="2.17612">
        <ele>66.1</ele>
        <time>2023-03-29T13:08:00Z</time>
      </trkpt>
      <trkpt lat="49.84197" lon="2.17613">
        <ele>66.1</ele>
        <time>2023-03-29T13:08:01Z</time>
      </trkpt>
      <trkpt lat="49.84197" lon="2.17617">
        <ele>66</ele>
        <time>2023-03-29T13:08:02Z</time>
      </trkpt>
      <trkpt lat="49.84197" lon="2.17618">
        <ele>66</ele>
        <time>2023-03-29T13:08:04Z</time>
      </trkpt>
      <trkpt lat="49.84197" lon="2.1762">
        <ele>65.9</ele>
        <time>2023-03-29T13:08:05Z</time>
      </trkpt>
      <trkpt lat="49.84197" lon="2.17622">
        <ele>65.9</ele>
        <time>2023-03-29T13:08:06Z</time>
      </trkpt>
      <trkpt lat="49.84197" lon="2.17624">
        <ele>65.8</ele>
        <time>2023-03-29T13:08:07Z</time>
      </trkpt>
      <trkpt lat="49.84197" lon="2.17627">
        <ele>65.7</ele>
        <time>2023-03-29T13:08:08Z</time>
      </trkpt>
      <trkpt lat="49.84197" lon="2.1763">
        <ele>65.8</ele>
        <time>2023-03-29T13:08:09Z</time>
      </trkpt>
      <trkpt lat="49.84197" lon="2.17632">
        <ele>65.7</ele>
        <time>2023-03-29T13:08:10Z</time>
      </trkpt>
      <trkpt lat="49.84197" lon="2.17634">
        <ele>65.6</ele>
        <time>2023-03-29T13:08:11Z</time>
      </trkpt>
      <trkpt lat="49.84197" lon="2.17636">
        <ele>65.6</ele>
        <time>2023-03-29T13:08:12Z</time>
      </trkpt>
      <trkpt lat="49.84197" lon="2.17638">
        <ele>65.5</ele>
        <time>2023-03-29T13:08:13Z</time>
      </trkpt>
      <trkpt lat="49.84196" lon="2.1764">
        <ele>65.5</ele>
        <time>2023-03-29T13:08:14Z</time>
      </trkpt>
      <trkpt lat="49.84197" lon="2.17641">
        <ele>65.4</ele>
        <time>2023-03-29T13:08:16Z</time>
      </trkpt>
      <trkpt lat="49.84196" lon="2.17643">
        <ele>65.4</ele>
        <time>2023-03-29T13:08:17Z</time>
      </trkpt>
      <trkpt lat="49.84196" lon="2.17646">
        <ele>65.3</ele>
        <time>2023-03-29T13:08:18Z</time>
      </trkpt>
      <trkpt lat="49.84196" lon="2.17648">
        <ele>65.2</ele>
        <time>2023-03-29T13:08:19Z</time>
      </trkpt>
      <trkpt lat="49.84196" lon="2.1765">
        <ele>65.2</ele>
        <time>2023-03-29T13:08:20Z</time>
      </trkpt>
      <trkpt lat="49.84196" lon="2.17653">
        <ele>65.1</ele>
        <time>2023-03-29T13:08:21Z</time>
      </trkpt>
      <trkpt lat="49.84197" lon="2.17655">
        <ele>65.1</ele>
        <time>2023-03-29T13:08:23Z</time>
      </trkpt>
      <trkpt lat="49.84196" lon="2.17658">
        <ele>65</ele>
        <time>2023-03-29T13:08:24Z</time>
      </trkpt>
      <trkpt lat="49.84197" lon="2.1766">
        <ele>64.9</ele>
        <time>2023-03-29T13:08:25Z</time>
      </trkpt>
      <trkpt lat="49.84197" lon="2.17662">
        <ele>64.8</ele>
        <time>2023-03-29T13:08:26Z</time>
      </trkpt>
      <trkpt lat="49.84197" lon="2.17663">
        <ele>64.8</ele>
        <time>2023-03-29T13:08:27Z</time>
      </trkpt>
      <trkpt lat="49.84197" lon="2.17665">
        <ele>64.7</ele>
        <time>2023-03-29T13:08:28Z</time>
      </trkpt>
      <trkpt lat="49.84197" lon="2.17667">
        <ele>64.6</ele>
        <time>2023-03-29T13:08:29Z</time>
      </trkpt>
      <trkpt lat="49.84198" lon="2.1767">
        <ele>64.6</ele>
        <time>2023-03-29T13:08:31Z</time>
      </trkpt>
      <trkpt lat="49.84198" lon="2.17673">
        <ele>64.5</ele>
        <time>2023-03-29T13:08:32Z</time>
      </trkpt>
      <trkpt lat="49.84198" lon="2.17674">
        <ele>64.4</ele>
        <time>2023-03-29T13:08:33Z</time>
      </trkpt>
      <trkpt lat="49.84199" lon="2.17675">
        <ele>64.4</ele>
        <time>2023-03-29T13:08:34Z</time>
      </trkpt>
      <trkpt lat="49.84199" lon="2.17678">
        <ele>64.3</ele>
        <time>2023-03-29T13:08:35Z</time>
      </trkpt>
      <trkpt lat="49.84199" lon="2.17679">
        <ele>64.2</ele>
        <time>2023-03-29T13:08:36Z</time>
      </trkpt>
      <trkpt lat="49.842" lon="2.17681">
        <ele>64.2</ele>
        <time>2023-03-29T13:08:37Z</time>
      </trkpt>
      <trkpt lat="49.842" lon="2.17682">
        <ele>64.1</ele>
        <time>2023-03-29T13:08:39Z</time>
      </trkpt>
      <trkpt lat="49.842" lon="2.17684">
        <ele>64.1</ele>
        <time>2023-03-29T13:08:40Z</time>
      </trkpt>
      <trkpt lat="49.842" lon="2.17685">
        <ele>64.1</ele>
        <time>2023-03-29T13:08:41Z</time>
      </trkpt>
      <trkpt lat="49.842" lon="2.17687">
        <ele>64</ele>
        <time>2023-03-29T13:08:42Z</time>
      </trkpt>
      <trkpt lat="49.84201" lon="2.17688">
        <ele>63.9</ele>
        <time>2023-03-29T13:08:43Z</time>
      </trkpt>
      <trkpt lat="49.84201" lon="2.17691">
        <ele>63.9</ele>
        <time>2023-03-29T13:08:44Z</time>
      </trkpt>
      <trkpt lat="49.84201" lon="2.17692">
        <ele>63.8</ele>
        <time>2023-03-29T13:08:45Z</time>
      </trkpt>
      <trkpt lat="49.84201" lon="2.17694">
        <ele>63.8</ele>
        <time>2023-03-29T13:08:46Z</time>
      </trkpt>
      <trkpt lat="49.84201" lon="2.17696">
        <ele>63.7</ele>
        <time>2023-03-29T13:08:47Z</time>
      </trkpt>
      <trkpt lat="49.84201" lon="2.17698">
        <ele>63.6</ele>
        <time>2023-03-29T13:08:48Z</time>
      </trkpt>
      <trkpt lat="49.84201" lon="2.177">
        <ele>63.5</ele>
        <time>2023-03-29T13:08:49Z</time>
      </trkpt>
      <trkpt lat="49.842" lon="2.17704">
        <ele>63.4</ele>
        <time>2023-03-29T13:08:50Z</time>
      </trkpt>
      <trkpt lat="49.842" lon="2.17705">
        <ele>63.3</ele>
        <time>2023-03-29T13:08:51Z</time>
      </trkpt>
      <trkpt lat="49.84199" lon="2.17707">
        <ele>63.2</ele>
        <time>2023-03-29T13:08:53Z</time>
      </trkpt>
      <trkpt lat="49.84199" lon="2.17708">
        <ele>63.2</ele>
        <time>2023-03-29T13:08:54Z</time>
      </trkpt>
      <trkpt lat="49.84199" lon="2.1771">
        <ele>63.1</ele>
        <time>2023-03-29T13:08:55Z</time>
      </trkpt>
      <trkpt lat="49.84198" lon="2.17711">
        <ele>63</ele>
        <time>2023-03-29T13:08:56Z</time>
      </trkpt>
      <trkpt lat="49.84198" lon="2.17713">
        <ele>63</ele>
        <time>2023-03-29T13:08:57Z</time>
      </trkpt>
      <trkpt lat="49.84197" lon="2.17716">
        <ele>62.9</ele>
        <time>2023-03-29T13:08:58Z</time>
      </trkpt>
      <trkpt lat="49.84196" lon="2.1772">
        <ele>62.8</ele>
        <time>2023-03-29T13:09:00Z</time>
      </trkpt>
      <trkpt lat="49.84196" lon="2.17721">
        <ele>62.7</ele>
        <time>2023-03-29T13:09:01Z</time>
      </trkpt>
      <trkpt lat="49.84195" lon="2.17724">
        <ele>62.6</ele>
        <time>2023-03-29T13:09:03Z</time>
      </trkpt>
      <trkpt lat="49.84195" lon="2.17726">
        <ele>62.5</ele>
        <time>2023-03-29T13:09:04Z</time>
      </trkpt>
      <trkpt lat="49.84194" lon="2.17728">
        <ele>62.4</ele>
        <time>2023-03-29T13:09:05Z</time>
      </trkpt>
      <trkpt lat="49.84194" lon="2.1773">
        <ele>62.3</ele>
        <time>2023-03-29T13:09:06Z</time>
      </trkpt>
      <trkpt lat="49.84193" lon="2.17735">
        <ele>62.1</ele>
        <time>2023-03-29T13:09:08Z</time>
      </trkpt>
      <trkpt lat="49.84193" lon="2.17736">
        <ele>62.1</ele>
        <time>2023-03-29T13:09:09Z</time>
      </trkpt>
      <trkpt lat="49.84192" lon="2.17738">
        <ele>62</ele>
        <time>2023-03-29T13:09:10Z</time>
      </trkpt>
      <trkpt lat="49.84192" lon="2.17741">
        <ele>61.9</ele>
        <time>2023-03-29T13:09:11Z</time>
      </trkpt>
      <trkpt lat="49.84191" lon="2.17744">
        <ele>61.9</ele>
        <time>2023-03-29T13:09:12Z</time>
      </trkpt>
      <trkpt lat="49.84191" lon="2.17746">
        <ele>61.8</ele>
        <time>2023-03-29T13:09:13Z</time>
      </trkpt>
      <trkpt lat="49.84191" lon="2.17748">
        <ele>61.7</ele>
        <time>2023-03-29T13:09:14Z</time>
      </trkpt>
      <trkpt lat="49.84191" lon="2.1775">
        <ele>61.7</ele>
        <time>2023-03-29T13:09:16Z</time>
      </trkpt>
      <trkpt lat="49.84191" lon="2.17752">
        <ele>61.6</ele>
        <time>2023-03-29T13:09:17Z</time>
      </trkpt>
      <trkpt lat="49.84191" lon="2.17755">
        <ele>61.5</ele>
        <time>2023-03-29T13:09:18Z</time>
      </trkpt>
      <trkpt lat="49.84191" lon="2.17757">
        <ele>61.4</ele>
        <time>2023-03-29T13:09:19Z</time>
      </trkpt>
      <trkpt lat="49.84191" lon="2.17758">
        <ele>61.4</ele>
        <time>2023-03-29T13:09:20Z</time>
      </trkpt>
      <trkpt lat="49.84191" lon="2.1776">
        <ele>61.3</ele>
        <time>2023-03-29T13:09:21Z</time>
      </trkpt>
      <trkpt lat="49.84191" lon="2.17761">
        <ele>61.3</ele>
        <time>2023-03-29T13:09:22Z</time>
      </trkpt>
      <trkpt lat="49.84191" lon="2.17763">
        <ele>61.2</ele>
        <time>2023-03-29T13:09:23Z</time>
      </trkpt>
      <trkpt lat="49.84191" lon="2.17765">
        <ele>61.2</ele>
        <time>2023-03-29T13:09:24Z</time>
      </trkpt>
      <trkpt lat="49.84191" lon="2.17767">
        <ele>61.1</ele>
        <time>2023-03-29T13:09:25Z</time>
      </trkpt>
      <trkpt lat="49.84191" lon="2.17768">
        <ele>61.1</ele>
        <time>2023-03-29T13:09:26Z</time>
      </trkpt>
      <trkpt lat="49.8419" lon="2.17771">
        <ele>61</ele>
        <time>2023-03-29T13:09:27Z</time>
      </trkpt>
      <trkpt lat="49.8419" lon="2.17773">
        <ele>60.9</ele>
        <time>2023-03-29T13:09:29Z</time>
      </trkpt>
      <trkpt lat="49.8419" lon="2.17775">
        <ele>60.9</ele>
        <time>2023-03-29T13:09:30Z</time>
      </trkpt>
      <trkpt lat="49.8419" lon="2.17777">
        <ele>60.8</ele>
        <time>2023-03-29T13:09:31Z</time>
      </trkpt>
      <trkpt lat="49.8419" lon="2.17779">
        <ele>60.7</ele>
        <time>2023-03-29T13:09:32Z</time>
      </trkpt>
      <trkpt lat="49.8419" lon="2.1778">
        <ele>60.7</ele>
        <time>2023-03-29T13:09:33Z</time>
      </trkpt>
      <trkpt lat="49.8419" lon="2.17782">
        <ele>60.7</ele>
        <time>2023-03-29T13:09:34Z</time>
      </trkpt>
      <trkpt lat="49.84189" lon="2.17785">
        <ele>60.6</ele>
        <time>2023-03-29T13:09:36Z</time>
      </trkpt>
      <trkpt lat="49.8419" lon="2.17786">
        <ele>60.5</ele>
        <time>2023-03-29T13:09:37Z</time>
      </trkpt>
      <trkpt lat="49.8419" lon="2.17788">
        <ele>60.5</ele>
        <time>2023-03-29T13:09:38Z</time>
      </trkpt>
      <trkpt lat="49.8419" lon="2.1779">
        <ele>60.5</ele>
        <time>2023-03-29T13:09:39Z</time>
      </trkpt>
      <trkpt lat="49.8419" lon="2.17793">
        <ele>60.4</ele>
        <time>2023-03-29T13:09:40Z</time>
      </trkpt>
      <trkpt lat="49.8419" lon="2.17795">
        <ele>60.3</ele>
        <time>2023-03-29T13:09:41Z</time>
      </trkpt>
      <trkpt lat="49.84191" lon="2.17798">
        <ele>60.3</ele>
        <time>2023-03-29T13:09:42Z</time>
      </trkpt>
      <trkpt lat="49.84191" lon="2.17799">
        <ele>60.2</ele>
        <time>2023-03-29T13:09:44Z</time>
      </trkpt>
      <trkpt lat="49.84191" lon="2.17801">
        <ele>60.2</ele>
        <time>2023-03-29T13:09:45Z</time>
      </trkpt>
      <trkpt lat="49.84191" lon="2.17803">
        <ele>60.2</ele>
        <time>2023-03-29T13:09:46Z</time>
      </trkpt>
      <trkpt lat="49.84191" lon="2.17805">
        <ele>60.1</ele>
        <time>2023-03-29T13:09:47Z</time>
      </trkpt>
      <trkpt lat="49.84191" lon="2.17809">
        <ele>60.1</ele>
        <time>2023-03-29T13:09:48Z</time>
      </trkpt>
      <trkpt lat="49.84191" lon="2.1781">
        <ele>60</ele>
        <time>2023-03-29T13:09:49Z</time>
      </trkpt>
      <trkpt lat="49.84191" lon="2.17812">
        <ele>60</ele>
        <time>2023-03-29T13:09:50Z</time>
      </trkpt>
      <trkpt lat="49.84191" lon="2.17815">
        <ele>59.9</ele>
        <time>2023-03-29T13:09:51Z</time>
      </trkpt>
      <trkpt lat="49.84191" lon="2.17816">
        <ele>59.9</ele>
        <time>2023-03-29T13:09:53Z</time>
      </trkpt>
      <trkpt lat="49.84191" lon="2.17818">
        <ele>59.9</ele>
        <time>2023-03-29T13:09:54Z</time>
      </trkpt>
      <trkpt lat="49.84191" lon="2.1782">
        <ele>59.8</ele>
        <time>2023-03-29T13:09:55Z</time>
      </trkpt>
      <trkpt lat="49.84191" lon="2.17823">
        <ele>59.8</ele>
        <time>2023-03-29T13:09:56Z</time>
      </trkpt>
      <trkpt lat="49.8419" lon="2.17827">
        <ele>59.7</ele>
        <time>2023-03-29T13:09:57Z</time>
      </trkpt>
      <trkpt lat="49.8419" lon="2.17829">
        <ele>59.7</ele>
        <time>2023-03-29T13:09:58Z</time>
      </trkpt>
      <trkpt lat="49.8419" lon="2.17831">
        <ele>59.6</ele>
        <time>2023-03-29T13:09:59Z</time>
      </trkpt>
      <trkpt lat="49.8419" lon="2.17834">
        <ele>59.6</ele>
        <time>2023-03-29T13:10:00Z</time>
      </trkpt>
      <trkpt lat="49.8419" lon="2.17836">
        <ele>59.5</ele>
        <time>2023-03-29T13:10:01Z</time>
      </trkpt>
      <trkpt lat="49.8419" lon="2.17838">
        <ele>59.5</ele>
        <time>2023-03-29T13:10:02Z</time>
      </trkpt>
      <trkpt lat="49.8419" lon="2.1784">
        <ele>59.5</ele>
        <time>2023-03-29T13:10:04Z</time>
      </trkpt>
      <trkpt lat="49.8419" lon="2.17842">
        <ele>59.4</ele>
        <time>2023-03-29T13:10:05Z</time>
      </trkpt>
      <trkpt lat="49.8419" lon="2.17844">
        <ele>59.4</ele>
        <time>2023-03-29T13:10:06Z</time>
      </trkpt>
      <trkpt lat="49.8419" lon="2.17847">
        <ele>59.3</ele>
        <time>2023-03-29T13:10:07Z</time>
      </trkpt>
      <trkpt lat="49.8419" lon="2.17848">
        <ele>59.3</ele>
        <time>2023-03-29T13:10:08Z</time>
      </trkpt>
      <trkpt lat="49.8419" lon="2.1785">
        <ele>59.3</ele>
        <time>2023-03-29T13:10:09Z</time>
      </trkpt>
      <trkpt lat="49.8419" lon="2.17852">
        <ele>59.3</ele>
        <time>2023-03-29T13:10:10Z</time>
      </trkpt>
      <trkpt lat="49.8419" lon="2.17854">
        <ele>59.2</ele>
        <time>2023-03-29T13:10:11Z</time>
      </trkpt>
      <trkpt lat="49.8419" lon="2.17857">
        <ele>59.2</ele>
        <time>2023-03-29T13:10:12Z</time>
      </trkpt>
      <trkpt lat="49.8419" lon="2.17859">
        <ele>59.2</ele>
        <time>2023-03-29T13:10:14Z</time>
      </trkpt>
      <trkpt lat="49.8419" lon="2.17861">
        <ele>59.1</ele>
        <time>2023-03-29T13:10:15Z</time>
      </trkpt>
      <trkpt lat="49.8419" lon="2.17863">
        <ele>59.1</ele>
        <time>2023-03-29T13:10:16Z</time>
      </trkpt>
      <trkpt lat="49.8419" lon="2.17865">
        <ele>59.1</ele>
        <time>2023-03-29T13:10:17Z</time>
      </trkpt>
      <trkpt lat="49.8419" lon="2.17867">
        <ele>59</ele>
        <time>2023-03-29T13:10:18Z</time>
      </trkpt>
      <trkpt lat="49.8419" lon="2.1787">
        <ele>59</ele>
        <time>2023-03-29T13:10:19Z</time>
      </trkpt>
      <trkpt lat="49.84189" lon="2.17872">
        <ele>59</ele>
        <time>2023-03-29T13:10:20Z</time>
      </trkpt>
      <trkpt lat="49.84189" lon="2.17873">
        <ele>59</ele>
        <time>2023-03-29T13:10:22Z</time>
      </trkpt>
      <trkpt lat="49.84189" lon="2.17875">
        <ele>58.9</ele>
        <time>2023-03-29T13:10:23Z</time>
      </trkpt>
      <trkpt lat="49.84189" lon="2.17876">
        <ele>58.9</ele>
        <time>2023-03-29T13:10:24Z</time>
      </trkpt>
      <trkpt lat="49.84189" lon="2.17878">
        <ele>58.9</ele>
        <time>2023-03-29T13:10:25Z</time>
      </trkpt>
      <trkpt lat="49.84189" lon="2.17881">
        <ele>58.9</ele>
        <time>2023-03-29T13:10:26Z</time>
      </trkpt>
      <trkpt lat="49.84189" lon="2.17885">
        <ele>58.8</ele>
        <time>2023-03-29T13:10:28Z</time>
      </trkpt>
      <trkpt lat="49.84189" lon="2.17886">
        <ele>58.8</ele>
        <time>2023-03-29T13:10:29Z</time>
      </trkpt>
      <trkpt lat="49.84189" lon="2.17887">
        <ele>58.8</ele>
        <time>2023-03-29T13:10:30Z</time>
      </trkpt>
      <trkpt lat="49.84188" lon="2.1789">
        <ele>58.8</ele>
        <time>2023-03-29T13:10:31Z</time>
      </trkpt>
      <trkpt lat="49.84188" lon="2.17892">
        <ele>58.7</ele>
        <time>2023-03-29T13:10:32Z</time>
      </trkpt>
      <trkpt lat="49.84188" lon="2.17893">
        <ele>58.7</ele>
        <time>2023-03-29T13:10:33Z</time>
      </trkpt>
      <trkpt lat="49.84188" lon="2.17896">
        <ele>58.7</ele>
        <time>2023-03-29T13:10:34Z</time>
      </trkpt>
      <trkpt lat="49.84188" lon="2.17898">
        <ele>58.7</ele>
        <time>2023-03-29T13:10:36Z</time>
      </trkpt>
      <trkpt lat="49.84188" lon="2.179">
        <ele>58.7</ele>
        <time>2023-03-29T13:10:37Z</time>
      </trkpt>
      <trkpt lat="49.84188" lon="2.17903">
        <ele>58.6</ele>
        <time>2023-03-29T13:10:38Z</time>
      </trkpt>
      <trkpt lat="49.84188" lon="2.17905">
        <ele>58.6</ele>
        <time>2023-03-29T13:10:39Z</time>
      </trkpt>
      <trkpt lat="49.84188" lon="2.17907">
        <ele>58.6</ele>
        <time>2023-03-29T13:10:40Z</time>
      </trkpt>
      <trkpt lat="49.84188" lon="2.17909">
        <ele>58.6</ele>
        <time>2023-03-29T13:10:41Z</time>
      </trkpt>
      <trkpt lat="49.84188" lon="2.17912">
        <ele>58.5</ele>
        <time>2023-03-29T13:10:43Z</time>
      </trkpt>
      <trkpt lat="49.84188" lon="2.17913">
        <ele>58.5</ele>
        <time>2023-03-29T13:10:44Z</time>
      </trkpt>
      <trkpt lat="49.84188" lon="2.17914">
        <ele>58.5</ele>
        <time>2023-03-29T13:10:45Z</time>
      </trkpt>
      <trkpt lat="49.84188" lon="2.17917">
        <ele>58.5</ele>
        <time>2023-03-29T13:10:46Z</time>
      </trkpt>
      <trkpt lat="49.84188" lon="2.17919">
        <ele>58.5</ele>
        <time>2023-03-29T13:10:47Z</time>
      </trkpt>
      <trkpt lat="49.84188" lon="2.1792">
        <ele>58.5</ele>
        <time>2023-03-29T13:10:48Z</time>
      </trkpt>
      <trkpt lat="49.84188" lon="2.17923">
        <ele>58.4</ele>
        <time>2023-03-29T13:10:49Z</time>
      </trkpt>
      <trkpt lat="49.84188" lon="2.17924">
        <ele>58.4</ele>
        <time>2023-03-29T13:10:51Z</time>
      </trkpt>
      <trkpt lat="49.84188" lon="2.17926">
        <ele>58.4</ele>
        <time>2023-03-29T13:10:52Z</time>
      </trkpt>
      <trkpt lat="49.84188" lon="2.17928">
        <ele>58.4</ele>
        <time>2023-03-29T13:10:53Z</time>
      </trkpt>
      <trkpt lat="49.84188" lon="2.1793">
        <ele>58.4</ele>
        <time>2023-03-29T13:10:54Z</time>
      </trkpt>
      <trkpt lat="49.84188" lon="2.17932">
        <ele>58.3</ele>
        <time>2023-03-29T13:10:55Z</time>
      </trkpt>
      <trkpt lat="49.84188" lon="2.17934">
        <ele>58.3</ele>
        <time>2023-03-29T13:10:56Z</time>
      </trkpt>
      <trkpt lat="49.84189" lon="2.17938">
        <ele>58.3</ele>
        <time>2023-03-29T13:10:57Z</time>
      </trkpt>
      <trkpt lat="49.84189" lon="2.17939">
        <ele>58.3</ele>
        <time>2023-03-29T13:10:58Z</time>
      </trkpt>
      <trkpt lat="49.84189" lon="2.1794">
        <ele>58.3</ele>
        <time>2023-03-29T13:10:59Z</time>
      </trkpt>
      <trkpt lat="49.84188" lon="2.17943">
        <ele>58.3</ele>
        <time>2023-03-29T13:11:00Z</time>
      </trkpt>
      <trkpt lat="49.84188" lon="2.17944">
        <ele>58.3</ele>
        <time>2023-03-29T13:11:01Z</time>
      </trkpt>
      <trkpt lat="49.84188" lon="2.17946">
        <ele>58.3</ele>
        <time>2023-03-29T13:11:03Z</time>
      </trkpt>
      <trkpt lat="49.84188" lon="2.17947">
        <ele>58.3</ele>
        <time>2023-03-29T13:11:04Z</time>
      </trkpt>
      <trkpt lat="49.84187" lon="2.17949">
        <ele>58.2</ele>
        <time>2023-03-29T13:11:05Z</time>
      </trkpt>
      <trkpt lat="49.84187" lon="2.1795">
        <ele>58.2</ele>
        <time>2023-03-29T13:11:06Z</time>
      </trkpt>
      <trkpt lat="49.84187" lon="2.17952">
        <ele>58.2</ele>
        <time>2023-03-29T13:11:08Z</time>
      </trkpt>
      <trkpt lat="49.84186" lon="2.17953">
        <ele>58.2</ele>
        <time>2023-03-29T13:11:09Z</time>
      </trkpt>
      <trkpt lat="49.84186" lon="2.17955">
        <ele>58.2</ele>
        <time>2023-03-29T13:11:10Z</time>
      </trkpt>
      <trkpt lat="49.84185" lon="2.17957">
        <ele>58.2</ele>
        <time>2023-03-29T13:11:11Z</time>
      </trkpt>
      <trkpt lat="49.84185" lon="2.17959">
        <ele>58.2</ele>
        <time>2023-03-29T13:11:12Z</time>
      </trkpt>
      <trkpt lat="49.84185" lon="2.17961">
        <ele>58.2</ele>
        <time>2023-03-29T13:11:13Z</time>
      </trkpt>
      <trkpt lat="49.84185" lon="2.17964">
        <ele>58.2</ele>
        <time>2023-03-29T13:11:14Z</time>
      </trkpt>
      <trkpt lat="49.84185" lon="2.17965">
        <ele>58.2</ele>
        <time>2023-03-29T13:11:16Z</time>
      </trkpt>
      <trkpt lat="49.84184" lon="2.17967">
        <ele>58.2</ele>
        <time>2023-03-29T13:11:17Z</time>
      </trkpt>
      <trkpt lat="49.84184" lon="2.17969">
        <ele>58.1</ele>
        <time>2023-03-29T13:11:18Z</time>
      </trkpt>
      <trkpt lat="49.84183" lon="2.17971">
        <ele>58.1</ele>
        <time>2023-03-29T13:11:19Z</time>
      </trkpt>
      <trkpt lat="49.84183" lon="2.17972">
        <ele>58.1</ele>
        <time>2023-03-29T13:11:20Z</time>
      </trkpt>
      <trkpt lat="49.84183" lon="2.17973">
        <ele>58.1</ele>
        <time>2023-03-29T13:11:21Z</time>
      </trkpt>
      <trkpt lat="49.84182" lon="2.17976">
        <ele>58.1</ele>
        <time>2023-03-29T13:11:22Z</time>
      </trkpt>
      <trkpt lat="49.84181" lon="2.17977">
        <ele>58.1</ele>
        <time>2023-03-29T13:11:24Z</time>
      </trkpt>
      <trkpt lat="49.84181" lon="2.17978">
        <ele>58.1</ele>
        <time>2023-03-29T13:11:25Z</time>
      </trkpt>
      <trkpt lat="49.8418" lon="2.1798">
        <ele>58.1</ele>
        <time>2023-03-29T13:11:26Z</time>
      </trkpt>
      <trkpt lat="49.8418" lon="2.17981">
        <ele>58.1</ele>
        <time>2023-03-29T13:11:27Z</time>
      </trkpt>
      <trkpt lat="49.8418" lon="2.17982">
        <ele>58.1</ele>
        <time>2023-03-29T13:11:28Z</time>
      </trkpt>
      <trkpt lat="49.84178" lon="2.17985">
        <ele>58.1</ele>
        <time>2023-03-29T13:11:29Z</time>
      </trkpt>
      <trkpt lat="49.84178" lon="2.17986">
        <ele>58.1</ele>
        <time>2023-03-29T13:11:30Z</time>
      </trkpt>
      <trkpt lat="49.84177" lon="2.17987">
        <ele>58.1</ele>
        <time>2023-03-29T13:11:32Z</time>
      </trkpt>
      <trkpt lat="49.84176" lon="2.17988">
        <ele>58.1</ele>
        <time>2023-03-29T13:11:33Z</time>
      </trkpt>
      <trkpt lat="49.84176" lon="2.17989">
        <ele>58.1</ele>
        <time>2023-03-29T13:11:34Z</time>
      </trkpt>
      <trkpt lat="49.84175" lon="2.1799">
        <ele>58.1</ele>
        <time>2023-03-29T13:11:35Z</time>
      </trkpt>
      <trkpt lat="49.84174" lon="2.17991">
        <ele>58.1</ele>
        <time>2023-03-29T13:11:36Z</time>
      </trkpt>
      <trkpt lat="49.84173" lon="2.17992">
        <ele>58.1</ele>
        <time>2023-03-29T13:11:37Z</time>
      </trkpt>
      <trkpt lat="49.84173" lon="2.17994">
        <ele>58.1</ele>
        <time>2023-03-29T13:11:38Z</time>
      </trkpt>
      <trkpt lat="49.84173" lon="2.17995">
        <ele>58.1</ele>
        <time>2023-03-29T13:11:40Z</time>
      </trkpt>
      <trkpt lat="49.84172" lon="2.17997">
        <ele>58.1</ele>
        <time>2023-03-29T13:11:41Z</time>
      </trkpt>
      <trkpt lat="49.84172" lon="2.17998">
        <ele>58.1</ele>
        <time>2023-03-29T13:11:42Z</time>
      </trkpt>
      <trkpt lat="49.84172" lon="2.18">
        <ele>58.1</ele>
        <time>2023-03-29T13:11:43Z</time>
      </trkpt>
      <trkpt lat="49.8417" lon="2.18002">
        <ele>58.1</ele>
        <time>2023-03-29T13:11:44Z</time>
      </trkpt>
      <trkpt lat="49.8417" lon="2.18005">
        <ele>58.1</ele>
        <time>2023-03-29T13:11:45Z</time>
      </trkpt>
      <trkpt lat="49.8417" lon="2.18006">
        <ele>58.1</ele>
        <time>2023-03-29T13:11:46Z</time>
      </trkpt>
      <trkpt lat="49.8417" lon="2.18008">
        <ele>58.1</ele>
        <time>2023-03-29T13:11:47Z</time>
      </trkpt>
      <trkpt lat="49.8417" lon="2.1801">
        <ele>58.1</ele>
        <time>2023-03-29T13:11:49Z</time>
      </trkpt>
      <trkpt lat="49.8417" lon="2.18012">
        <ele>58.1</ele>
        <time>2023-03-29T13:11:50Z</time>
      </trkpt>
      <trkpt lat="49.8417" lon="2.18014">
        <ele>58.1</ele>
        <time>2023-03-29T13:11:51Z</time>
      </trkpt>
      <trkpt lat="49.84169" lon="2.18015">
        <ele>58.1</ele>
        <time>2023-03-29T13:11:52Z</time>
      </trkpt>
      <trkpt lat="49.84169" lon="2.18017">
        <ele>58.1</ele>
        <time>2023-03-29T13:11:53Z</time>
      </trkpt>
      <trkpt lat="49.84169" lon="2.18019">
        <ele>58.1</ele>
        <time>2023-03-29T13:11:54Z</time>
      </trkpt>
      <trkpt lat="49.84168" lon="2.1802">
        <ele>58.1</ele>
        <time>2023-03-29T13:11:55Z</time>
      </trkpt>
      <trkpt lat="49.84169" lon="2.1802">
        <ele>58.1</ele>
        <time>2023-03-29T13:11:56Z</time>
      </trkpt>
      <trkpt lat="49.84169" lon="2.18019">
        <ele>58.1</ele>
        <time>2023-03-29T13:11:58Z</time>
      </trkpt>
      <trkpt lat="49.84169" lon="2.1802">
        <ele>58.1</ele>
        <time>2023-03-29T13:11:59Z</time>
      </trkpt>
      <trkpt lat="49.84169" lon="2.18021">
        <ele>58.1</ele>
        <time>2023-03-29T13:12:00Z</time>
      </trkpt>
      <trkpt lat="49.84169" lon="2.18023">
        <ele>58.1</ele>
        <time>2023-03-29T13:12:01Z</time>
      </trkpt>
      <trkpt lat="49.84169" lon="2.18025">
        <ele>58.1</ele>
        <time>2023-03-29T13:12:02Z</time>
      </trkpt>
      <trkpt lat="49.84168" lon="2.18027">
        <ele>58.1</ele>
        <time>2023-03-29T13:12:04Z</time>
      </trkpt>
      <trkpt lat="49.84168" lon="2.1803">
        <ele>58.1</ele>
        <time>2023-03-29T13:12:05Z</time>
      </trkpt>
      <trkpt lat="49.84167" lon="2.18031">
        <ele>58.1</ele>
        <time>2023-03-29T13:12:06Z</time>
      </trkpt>
      <trkpt lat="49.84167" lon="2.18032">
        <ele>58.1</ele>
        <time>2023-03-29T13:12:07Z</time>
      </trkpt>
      <trkpt lat="49.84167" lon="2.18034">
        <ele>58.1</ele>
        <time>2023-03-29T13:12:08Z</time>
      </trkpt>
      <trkpt lat="49.84166" lon="2.18036">
        <ele>58.1</ele>
        <time>2023-03-29T13:12:09Z</time>
      </trkpt>
      <trkpt lat="49.84165" lon="2.18038">
        <ele>58.1</ele>
        <time>2023-03-29T13:12:11Z</time>
      </trkpt>
      <trkpt lat="49.84165" lon="2.18041">
        <ele>58.2</ele>
        <time>2023-03-29T13:12:12Z</time>
      </trkpt>
      <trkpt lat="49.84164" lon="2.18046">
        <ele>58.2</ele>
        <time>2023-03-29T13:12:13Z</time>
      </trkpt>
      <trkpt lat="49.84164" lon="2.18047">
        <ele>58.2</ele>
        <time>2023-03-29T13:12:14Z</time>
      </trkpt>
      <trkpt lat="49.84163" lon="2.18051">
        <ele>58.2</ele>
        <time>2023-03-29T13:12:15Z</time>
      </trkpt>
      <trkpt lat="49.84163" lon="2.18053">
        <ele>58.2</ele>
        <time>2023-03-29T13:12:16Z</time>
      </trkpt>
      <trkpt lat="49.84163" lon="2.18056">
        <ele>58.2</ele>
        <time>2023-03-29T13:12:18Z</time>
      </trkpt>
      <trkpt lat="49.84163" lon="2.18058">
        <ele>58.2</ele>
        <time>2023-03-29T13:12:19Z</time>
      </trkpt>
      <trkpt lat="49.84163" lon="2.18062">
        <ele>58.3</ele>
        <time>2023-03-29T13:12:20Z</time>
      </trkpt>
      <trkpt lat="49.84162" lon="2.18064">
        <ele>58.3</ele>
        <time>2023-03-29T13:12:21Z</time>
      </trkpt>
      <trkpt lat="49.84162" lon="2.18067">
        <ele>58.3</ele>
        <time>2023-03-29T13:12:22Z</time>
      </trkpt>
      <trkpt lat="49.84162" lon="2.18069">
        <ele>58.3</ele>
        <time>2023-03-29T13:12:23Z</time>
      </trkpt>
      <trkpt lat="49.84162" lon="2.1807">
        <ele>58.3</ele>
        <time>2023-03-29T13:12:24Z</time>
      </trkpt>
      <trkpt lat="49.84162" lon="2.18072">
        <ele>58.4</ele>
        <time>2023-03-29T13:12:25Z</time>
      </trkpt>
      <trkpt lat="49.84162" lon="2.18075">
        <ele>58.4</ele>
        <time>2023-03-29T13:12:27Z</time>
      </trkpt>
      <trkpt lat="49.84162" lon="2.18076">
        <ele>58.4</ele>
        <time>2023-03-29T13:12:28Z</time>
      </trkpt>
      <trkpt lat="49.84162" lon="2.18078">
        <ele>58.4</ele>
        <time>2023-03-29T13:12:29Z</time>
      </trkpt>
      <trkpt lat="49.84162" lon="2.1808">
        <ele>58.4</ele>
        <time>2023-03-29T13:12:30Z</time>
      </trkpt>
      <trkpt lat="49.84162" lon="2.18083">
        <ele>58.5</ele>
        <time>2023-03-29T13:12:31Z</time>
      </trkpt>
      <trkpt lat="49.84162" lon="2.18084">
        <ele>58.5</ele>
        <time>2023-03-29T13:12:32Z</time>
      </trkpt>
      <trkpt lat="49.84162" lon="2.18086">
        <ele>58.5</ele>
        <time>2023-03-29T13:12:33Z</time>
      </trkpt>
      <trkpt lat="49.84161" lon="2.18088">
        <ele>58.5</ele>
        <time>2023-03-29T13:12:34Z</time>
      </trkpt>
      <trkpt lat="49.84161" lon="2.18089">
        <ele>58.5</ele>
        <time>2023-03-29T13:12:35Z</time>
      </trkpt>
      <trkpt lat="49.84162" lon="2.18091">
        <ele>58.6</ele>
        <time>2023-03-29T13:12:37Z</time>
      </trkpt>
      <trkpt lat="49.84161" lon="2.18093">
        <ele>58.6</ele>
        <time>2023-03-29T13:12:38Z</time>
      </trkpt>
      <trkpt lat="49.84161" lon="2.18094">
        <ele>58.6</ele>
        <time>2023-03-29T13:12:39Z</time>
      </trkpt>
      <trkpt lat="49.84162" lon="2.18098">
        <ele>58.6</ele>
        <time>2023-03-29T13:12:40Z</time>
      </trkpt>
      <trkpt lat="49.84162" lon="2.18099">
        <ele>58.6</ele>
        <time>2023-03-29T13:12:41Z</time>
      </trkpt>
      <trkpt lat="49.84162" lon="2.181">
        <ele>58.6</ele>
        <time>2023-03-29T13:12:42Z</time>
      </trkpt>
      <trkpt lat="49.84162" lon="2.18104">
        <ele>58.7</ele>
        <time>2023-03-29T13:12:43Z</time>
      </trkpt>
      <trkpt lat="49.84162" lon="2.18105">
        <ele>58.7</ele>
        <time>2023-03-29T13:12:44Z</time>
      </trkpt>
      <trkpt lat="49.84162" lon="2.18106">
        <ele>58.7</ele>
        <time>2023-03-29T13:12:45Z</time>
      </trkpt>
      <trkpt lat="49.84161" lon="2.18108">
        <ele>58.7</ele>
        <time>2023-03-29T13:12:47Z</time>
      </trkpt>
      <trkpt lat="49.84161" lon="2.1811">
        <ele>58.8</ele>
        <time>2023-03-29T13:12:48Z</time>
      </trkpt>
      <trkpt lat="49.8416" lon="2.18112">
        <ele>58.8</ele>
        <time>2023-03-29T13:12:49Z</time>
      </trkpt>
      <trkpt lat="49.8416" lon="2.18113">
        <ele>58.8</ele>
        <time>2023-03-29T13:12:50Z</time>
      </trkpt>
      <trkpt lat="49.84159" lon="2.18115">
        <ele>58.8</ele>
        <time>2023-03-29T13:12:51Z</time>
      </trkpt>
      <trkpt lat="49.84159" lon="2.18117">
        <ele>58.8</ele>
        <time>2023-03-29T13:12:52Z</time>
      </trkpt>
      <trkpt lat="49.84159" lon="2.18119">
        <ele>58.9</ele>
        <time>2023-03-29T13:12:54Z</time>
      </trkpt>
      <trkpt lat="49.84159" lon="2.1812">
        <ele>58.9</ele>
        <time>2023-03-29T13:12:55Z</time>
      </trkpt>
      <trkpt lat="49.84158" lon="2.18122">
        <ele>58.9</ele>
        <time>2023-03-29T13:12:56Z</time>
      </trkpt>
      <trkpt lat="49.84158" lon="2.18124">
        <ele>58.9</ele>
        <time>2023-03-29T13:12:57Z</time>
      </trkpt>
      <trkpt lat="49.84158" lon="2.18126">
        <ele>58.9</ele>
        <time>2023-03-29T13:12:59Z</time>
      </trkpt>
      <trkpt lat="49.84158" lon="2.18127">
        <ele>58.9</ele>
        <time>2023-03-29T13:13:00Z</time>
      </trkpt>
      <trkpt lat="49.84158" lon="2.18129">
        <ele>59</ele>
        <time>2023-03-29T13:13:01Z</time>
      </trkpt>
      <trkpt lat="49.84158" lon="2.1813">
        <ele>59</ele>
        <time>2023-03-29T13:13:02Z</time>
      </trkpt>
      <trkpt lat="49.84158" lon="2.18132">
        <ele>59</ele>
        <time>2023-03-29T13:13:04Z</time>
      </trkpt>
      <trkpt lat="49.84158" lon="2.18133">
        <ele>59</ele>
        <time>2023-03-29T13:13:05Z</time>
      </trkpt>
      <trkpt lat="49.84158" lon="2.18133">
        <ele>59</ele>
        <time>2023-03-29T13:13:06Z</time>
      </trkpt>
      <trkpt lat="49.84159" lon="2.18134">
        <ele>59</ele>
        <time>2023-03-29T13:13:08Z</time>
      </trkpt>
      <trkpt lat="49.84159" lon="2.18134">
        <ele>59</ele>
        <time>2023-03-29T13:13:09Z</time>
      </trkpt>
      <trkpt lat="49.84159" lon="2.18134">
        <ele>59</ele>
        <time>2023-03-29T13:13:10Z</time>
      </trkpt>
      <trkpt lat="49.8416" lon="2.18134">
        <ele>59</ele>
        <time>2023-03-29T13:13:12Z</time>
      </trkpt>
      <trkpt lat="49.8416" lon="2.18134">
        <ele>59</ele>
        <time>2023-03-29T13:13:13Z</time>
      </trkpt>
      <trkpt lat="49.8416" lon="2.18133">
        <ele>59</ele>
        <time>2023-03-29T13:13:15Z</time>
      </trkpt>
      <trkpt lat="49.8416" lon="2.18133">
        <ele>59</ele>
        <time>2023-03-29T13:13:16Z</time>
      </trkpt>
      <trkpt lat="49.8416" lon="2.18134">
        <ele>59</ele>
        <time>2023-03-29T13:13:17Z</time>
      </trkpt>
      <trkpt lat="49.8416" lon="2.18134">
        <ele>59</ele>
        <time>2023-03-29T13:13:18Z</time>
      </trkpt>
      <trkpt lat="49.8416" lon="2.18135">
        <ele>59.1</ele>
        <time>2023-03-29T13:13:19Z</time>
      </trkpt>
      <trkpt lat="49.84159" lon="2.18135">
        <ele>59.1</ele>
        <time>2023-03-29T13:13:21Z</time>
      </trkpt>
      <trkpt lat="49.84159" lon="2.18135">
        <ele>59.1</ele>
        <time>2023-03-29T13:13:22Z</time>
      </trkpt>
      <trkpt lat="49.84158" lon="2.18136">
        <ele>59.1</ele>
        <time>2023-03-29T13:13:23Z</time>
      </trkpt>
      <trkpt lat="49.84158" lon="2.18134">
        <ele>59.1</ele>
        <time>2023-03-29T13:13:25Z</time>
      </trkpt>
      <trkpt lat="49.84158" lon="2.18133">
        <ele>59.1</ele>
        <time>2023-03-29T13:13:26Z</time>
      </trkpt>
      <trkpt lat="49.84158" lon="2.18132">
        <ele>59.1</ele>
        <time>2023-03-29T13:13:28Z</time>
      </trkpt>
      <trkpt lat="49.84158" lon="2.18132">
        <ele>59.1</ele>
        <time>2023-03-29T13:13:29Z</time>
      </trkpt>
      <trkpt lat="49.84158" lon="2.18131">
        <ele>59.1</ele>
        <time>2023-03-29T13:13:30Z</time>
      </trkpt>
      <trkpt lat="49.84158" lon="2.18131">
        <ele>59.1</ele>
        <time>2023-03-29T13:13:32Z</time>
      </trkpt>
      <trkpt lat="49.84158" lon="2.18131">
        <ele>59.1</ele>
        <time>2023-03-29T13:13:33Z</time>
      </trkpt>
      <trkpt lat="49.84158" lon="2.1813">
        <ele>59.1</ele>
        <time>2023-03-29T13:13:35Z</time>
      </trkpt>
      <trkpt lat="49.84158" lon="2.1813">
        <ele>59.1</ele>
        <time>2023-03-29T13:13:36Z</time>
      </trkpt>
      <trkpt lat="49.84158" lon="2.1813">
        <ele>59.1</ele>
        <time>2023-03-29T13:13:38Z</time>
      </trkpt>
      <trkpt lat="49.84158" lon="2.1813">
        <ele>59.1</ele>
        <time>2023-03-29T13:13:39Z</time>
      </trkpt>
      <trkpt lat="49.84159" lon="2.1813">
        <ele>59.1</ele>
        <time>2023-03-29T13:13:40Z</time>
      </trkpt>
      <trkpt lat="49.84159" lon="2.1813">
        <ele>59.1</ele>
        <time>2023-03-29T13:13:41Z</time>
      </trkpt>
      <trkpt lat="49.84159" lon="2.1813">
        <ele>59.1</ele>
        <time>2023-03-29T13:13:42Z</time>
      </trkpt>
      <trkpt lat="49.84159" lon="2.1813">
        <ele>59.1</ele>
        <time>2023-03-29T13:13:43Z</time>
      </trkpt>
      <trkpt lat="49.84159" lon="2.1813">
        <ele>59.1</ele>
        <time>2023-03-29T13:13:44Z</time>
      </trkpt>
      <trkpt lat="49.84159" lon="2.1813">
        <ele>59.1</ele>
        <time>2023-03-29T13:13:45Z</time>
      </trkpt>
      <trkpt lat="49.84159" lon="2.1813">
        <ele>59.1</ele>
        <time>2023-03-29T13:13:46Z</time>
      </trkpt>
      <trkpt lat="49.84159" lon="2.1813">
        <ele>59.1</ele>
        <time>2023-03-29T13:13:47Z</time>
      </trkpt>
      <trkpt lat="49.84159" lon="2.1813">
        <ele>59.1</ele>
        <time>2023-03-29T13:13:48Z</time>
      </trkpt>
      <trkpt lat="49.84159" lon="2.1813">
        <ele>59.1</ele>
        <time>2023-03-29T13:13:49Z</time>
      </trkpt>
      <trkpt lat="49.84159" lon="2.18128">
        <ele>59.2</ele>
        <time>2023-03-29T13:13:50Z</time>
      </trkpt>
      <trkpt lat="49.84158" lon="2.18128">
        <ele>59.2</ele>
        <time>2023-03-29T13:13:51Z</time>
      </trkpt>
      <trkpt lat="49.84158" lon="2.18127">
        <ele>59.2</ele>
        <time>2023-03-29T13:13:52Z</time>
      </trkpt>
      <trkpt lat="49.84158" lon="2.18127">
        <ele>59.2</ele>
        <time>2023-03-29T13:13:53Z</time>
      </trkpt>
      <trkpt lat="49.84158" lon="2.18127">
        <ele>59.2</ele>
        <time>2023-03-29T13:13:54Z</time>
      </trkpt>
      <trkpt lat="49.84158" lon="2.18127">
        <ele>59.2</ele>
        <time>2023-03-29T13:13:55Z</time>
      </trkpt>
      <trkpt lat="49.84158" lon="2.18127">
        <ele>59.2</ele>
        <time>2023-03-29T13:13:56Z</time>
      </trkpt>
      <trkpt lat="49.84157" lon="2.18127">
        <ele>59.2</ele>
        <time>2023-03-29T13:13:57Z</time>
      </trkpt>
      <trkpt lat="49.84157" lon="2.18127">
        <ele>59.2</ele>
        <time>2023-03-29T13:13:58Z</time>
      </trkpt>
      <trkpt lat="49.84157" lon="2.18127">
        <ele>59.2</ele>
        <time>2023-03-29T13:13:59Z</time>
      </trkpt>
      <trkpt lat="49.84157" lon="2.18127">
        <ele>59.2</ele>
        <time>2023-03-29T13:14:00Z</time>
      </trkpt>
      <trkpt lat="49.84157" lon="2.18128">
        <ele>59.2</ele>
        <time>2023-03-29T13:14:01Z</time>
      </trkpt>
      <trkpt lat="49.84157" lon="2.18128">
        <ele>59.2</ele>
        <time>2023-03-29T13:14:02Z</time>
      </trkpt>
      <trkpt lat="49.84157" lon="2.18128">
        <ele>59.2</ele>
        <time>2023-03-29T13:14:03Z</time>
      </trkpt>
      <trkpt lat="49.84157" lon="2.18129">
        <ele>59.2</ele>
        <time>2023-03-29T13:14:04Z</time>
      </trkpt>
      <trkpt lat="49.84157" lon="2.18129">
        <ele>59.2</ele>
        <time>2023-03-29T13:14:05Z</time>
      </trkpt>
      <trkpt lat="49.84157" lon="2.18129">
        <ele>59.2</ele>
        <time>2023-03-29T13:14:06Z</time>
      </trkpt>
      <trkpt lat="49.84157" lon="2.18129">
        <ele>59.2</ele>
        <time>2023-03-29T13:14:07Z</time>
      </trkpt>
      <trkpt lat="49.84157" lon="2.18129">
        <ele>59.2</ele>
        <time>2023-03-29T13:14:08Z</time>
      </trkpt>
      <trkpt lat="49.84157" lon="2.18129">
        <ele>59.2</ele>
        <time>2023-03-29T13:14:09Z</time>
      </trkpt>
      <trkpt lat="49.84157" lon="2.18129">
        <ele>59.2</ele>
        <time>2023-03-29T13:14:10Z</time>
      </trkpt>
      <trkpt lat="49.84157" lon="2.18129">
        <ele>59.2</ele>
        <time>2023-03-29T13:14:11Z</time>
      </trkpt>
      <trkpt lat="49.84157" lon="2.18129">
        <ele>59.2</ele>
        <time>2023-03-29T13:14:12Z</time>
      </trkpt>
      <trkpt lat="49.84157" lon="2.18129">
        <ele>59.2</ele>
        <time>2023-03-29T13:14:13Z</time>
      </trkpt>
      <trkpt lat="49.84157" lon="2.18129">
        <ele>59.2</ele>
        <time>2023-03-29T13:14:14Z</time>
      </trkpt>
      <trkpt lat="49.84157" lon="2.18129">
        <ele>59.2</ele>
        <time>2023-03-29T13:14:15Z</time>
      </trkpt>
      <trkpt lat="49.84157" lon="2.18129">
        <ele>59.2</ele>
        <time>2023-03-29T13:14:16Z</time>
      </trkpt>
      <trkpt lat="49.84157" lon="2.18129">
        <ele>59.2</ele>
        <time>2023-03-29T13:14:17Z</time>
      </trkpt>
      <trkpt lat="49.84157" lon="2.18129">
        <ele>59.2</ele>
        <time>2023-03-29T13:14:18Z</time>
      </trkpt>
      <trkpt lat="49.84157" lon="2.18129">
        <ele>59.2</ele>
        <time>2023-03-29T13:14:19Z</time>
      </trkpt>
      <trkpt lat="49.84157" lon="2.18129">
        <ele>59.2</ele>
        <time>2023-03-29T13:14:20Z</time>
      </trkpt>
      <trkpt lat="49.84157" lon="2.18129">
        <ele>59.2</ele>
        <time>2023-03-29T13:14:21Z</time>
      </trkpt>
      <trkpt lat="49.84157" lon="2.18129">
        <ele>59.2</ele>
        <time>2023-03-29T13:14:22Z</time>
      </trkpt>
      <trkpt lat="49.84157" lon="2.18129">
        <ele>59.2</ele>
        <time>2023-03-29T13:14:23Z</time>
      </trkpt>
      <trkpt lat="49.84157" lon="2.18129">
        <ele>59.2</ele>
        <time>2023-03-29T13:14:24Z</time>
      </trkpt>
      <trkpt lat="49.84157" lon="2.18129">
        <ele>59.2</ele>
        <time>2023-03-29T13:14:25Z</time>
      </trkpt>
      <trkpt lat="49.84157" lon="2.18129">
        <ele>59.2</ele>
        <time>2023-03-29T13:14:26Z</time>
      </trkpt>
      <trkpt lat="49.84157" lon="2.18129">
        <ele>59.2</ele>
        <time>2023-03-29T13:14:27Z</time>
      </trkpt>
      <trkpt lat="49.84157" lon="2.18129">
        <ele>59.2</ele>
        <time>2023-03-29T13:14:28Z</time>
      </trkpt>
      <trkpt lat="49.84157" lon="2.18129">
        <ele>59.2</ele>
        <time>2023-03-29T13:14:29Z</time>
      </trkpt>
      <trkpt lat="49.84157" lon="2.18129">
        <ele>59.2</ele>
        <time>2023-03-29T13:14:30Z</time>
      </trkpt>
      <trkpt lat="49.84157" lon="2.18129">
        <ele>59.2</ele>
        <time>2023-03-29T13:14:31Z</time>
      </trkpt>
      <trkpt lat="49.84157" lon="2.18129">
        <ele>59.2</ele>
        <time>2023-03-29T13:14:32Z</time>
      </trkpt>
      <trkpt lat="49.84157" lon="2.18129">
        <ele>59.2</ele>
        <time>2023-03-29T13:14:33Z</time>
      </trkpt>
      <trkpt lat="49.84157" lon="2.18129">
        <ele>59.2</ele>
        <time>2023-03-29T13:14:34Z</time>
      </trkpt>
      <trkpt lat="49.84156" lon="2.1813">
        <ele>59.2</ele>
        <time>2023-03-29T13:14:35Z</time>
      </trkpt>
      <trkpt lat="49.84156" lon="2.1813">
        <ele>59.2</ele>
        <time>2023-03-29T13:14:36Z</time>
      </trkpt>
      <trkpt lat="49.84156" lon="2.18131">
        <ele>59.2</ele>
        <time>2023-03-29T13:14:37Z</time>
      </trkpt>
      <trkpt lat="49.84156" lon="2.18131">
        <ele>59.2</ele>
        <time>2023-03-29T13:14:38Z</time>
      </trkpt>
      <trkpt lat="49.84156" lon="2.18132">
        <ele>59.2</ele>
        <time>2023-03-29T13:14:39Z</time>
      </trkpt>
      <trkpt lat="49.84156" lon="2.18132">
        <ele>59.2</ele>
        <time>2023-03-29T13:14:41Z</time>
      </trkpt>
      <trkpt lat="49.84155" lon="2.18133">
        <ele>59.3</ele>
        <time>2023-03-29T13:14:42Z</time>
      </trkpt>
      <trkpt lat="49.84155" lon="2.18135">
        <ele>59.3</ele>
        <time>2023-03-29T13:14:43Z</time>
      </trkpt>
      <trkpt lat="49.84155" lon="2.18136">
        <ele>59.3</ele>
        <time>2023-03-29T13:14:45Z</time>
      </trkpt>
      <trkpt lat="49.84156" lon="2.18137">
        <ele>59.3</ele>
        <time>2023-03-29T13:14:46Z</time>
      </trkpt>
      <trkpt lat="49.84156" lon="2.1814">
        <ele>59.3</ele>
        <time>2023-03-29T13:14:48Z</time>
      </trkpt>
      <trkpt lat="49.84156" lon="2.18141">
        <ele>59.3</ele>
        <time>2023-03-29T13:14:49Z</time>
      </trkpt>
      <trkpt lat="49.84155" lon="2.1814">
        <ele>59.3</ele>
        <time>2023-03-29T13:14:51Z</time>
      </trkpt>
      <trkpt lat="49.84155" lon="2.1814">
        <ele>59.3</ele>
        <time>2023-03-29T13:14:52Z</time>
      </trkpt>
      <trkpt lat="49.84155" lon="2.1814">
        <ele>59.3</ele>
        <time>2023-03-29T13:14:53Z</time>
      </trkpt>
      <trkpt lat="49.84155" lon="2.18139">
        <ele>59.3</ele>
        <time>2023-03-29T13:14:55Z</time>
      </trkpt>
      <trkpt lat="49.84155" lon="2.1814">
        <ele>59.3</ele>
        <time>2023-03-29T13:14:56Z</time>
      </trkpt>
      <trkpt lat="49.84155" lon="2.1814">
        <ele>59.3</ele>
        <time>2023-03-29T13:14:58Z</time>
      </trkpt>
      <trkpt lat="49.84155" lon="2.1814">
        <ele>59.3</ele>
        <time>2023-03-29T13:14:59Z</time>
      </trkpt>
      <trkpt lat="49.84155" lon="2.1814">
        <ele>59.3</ele>
        <time>2023-03-29T13:15:00Z</time>
      </trkpt>
      <trkpt lat="49.84155" lon="2.1814">
        <ele>59.3</ele>
        <time>2023-03-29T13:15:02Z</time>
      </trkpt>
      <trkpt lat="49.84155" lon="2.1814">
        <ele>59.3</ele>
        <time>2023-03-29T13:15:03Z</time>
      </trkpt>
      <trkpt lat="49.84155" lon="2.1814">
        <ele>59.3</ele>
        <time>2023-03-29T13:15:05Z</time>
      </trkpt>
      <trkpt lat="49.84155" lon="2.1814">
        <ele>59.3</ele>
        <time>2023-03-29T13:15:06Z</time>
      </trkpt>
      <trkpt lat="49.84155" lon="2.1814">
        <ele>59.3</ele>
        <time>2023-03-29T13:15:07Z</time>
      </trkpt>
      <trkpt lat="49.84155" lon="2.1814">
        <ele>59.3</ele>
        <time>2023-03-29T13:15:08Z</time>
      </trkpt>
      <trkpt lat="49.84154" lon="2.18139">
        <ele>59.3</ele>
        <time>2023-03-29T13:15:09Z</time>
      </trkpt>
      <trkpt lat="49.84154" lon="2.18139">
        <ele>59.4</ele>
        <time>2023-03-29T13:15:10Z</time>
      </trkpt>
      <trkpt lat="49.84154" lon="2.18139">
        <ele>59.4</ele>
        <time>2023-03-29T13:15:11Z</time>
      </trkpt>
      <trkpt lat="49.84154" lon="2.18139">
        <ele>59.4</ele>
        <time>2023-03-29T13:15:12Z</time>
      </trkpt>
      <trkpt lat="49.84154" lon="2.18139">
        <ele>59.4</ele>
        <time>2023-03-29T13:15:13Z</time>
      </trkpt>
      <trkpt lat="49.84154" lon="2.18139">
        <ele>59.4</ele>
        <time>2023-03-29T13:15:14Z</time>
      </trkpt>
      <trkpt lat="49.84154" lon="2.18139">
        <ele>59.4</ele>
        <time>2023-03-29T13:15:15Z</time>
      </trkpt>
      <trkpt lat="49.84154" lon="2.18139">
        <ele>59.4</ele>
        <time>2023-03-29T13:15:16Z</time>
      </trkpt>
      <trkpt lat="49.84154" lon="2.18139">
        <ele>59.4</ele>
        <time>2023-03-29T13:15:17Z</time>
      </trkpt>
      <trkpt lat="49.84154" lon="2.18139">
        <ele>59.4</ele>
        <time>2023-03-29T13:15:18Z</time>
      </trkpt>
      <trkpt lat="49.84154" lon="2.18139">
        <ele>59.4</ele>
        <time>2023-03-29T13:15:19Z</time>
      </trkpt>
      <trkpt lat="49.84154" lon="2.18139">
        <ele>59.4</ele>
        <time>2023-03-29T13:15:20Z</time>
      </trkpt>
      <trkpt lat="49.84154" lon="2.18139">
        <ele>59.4</ele>
        <time>2023-03-29T13:15:21Z</time>
      </trkpt>
      <trkpt lat="49.84154" lon="2.18139">
        <ele>59.4</ele>
        <time>2023-03-29T13:15:22Z</time>
      </trkpt>
      <trkpt lat="49.84154" lon="2.18139">
        <ele>59.4</ele>
        <time>2023-03-29T13:15:23Z</time>
      </trkpt>
      <trkpt lat="49.84154" lon="2.18139">
        <ele>59.4</ele>
        <time>2023-03-29T13:15:24Z</time>
      </trkpt>
      <trkpt lat="49.84154" lon="2.18139">
        <ele>59.4</ele>
        <time>2023-03-29T13:15:25Z</time>
      </trkpt>
      <trkpt lat="49.84154" lon="2.18139">
        <ele>59.4</ele>
        <time>2023-03-29T13:15:26Z</time>
      </trkpt>
      <trkpt lat="49.84154" lon="2.18139">
        <ele>59.4</ele>
        <time>2023-03-29T13:15:27Z</time>
      </trkpt>
      <trkpt lat="49.84154" lon="2.18139">
        <ele>59.4</ele>
        <time>2023-03-29T13:15:28Z</time>
      </trkpt>
      <trkpt lat="49.84154" lon="2.18139">
        <ele>59.4</ele>
        <time>2023-03-29T13:15:29Z</time>
      </trkpt>
      <trkpt lat="49.84154" lon="2.18139">
        <ele>59.4</ele>
        <time>2023-03-29T13:15:30Z</time>
      </trkpt>
      <trkpt lat="49.84154" lon="2.18139">
        <ele>59.4</ele>
        <time>2023-03-29T13:15:31Z</time>
      </trkpt>
      <trkpt lat="49.84154" lon="2.18139">
        <ele>59.4</ele>
        <time>2023-03-29T13:15:32Z</time>
      </trkpt>
      <trkpt lat="49.84154" lon="2.18139">
        <ele>59.4</ele>
        <time>2023-03-29T13:15:33Z</time>
      </trkpt>
      <trkpt lat="49.84154" lon="2.18139">
        <ele>59.4</ele>
        <time>2023-03-29T13:15:34Z</time>
      </trkpt>
      <trkpt lat="49.84154" lon="2.18139">
        <ele>59.4</ele>
        <time>2023-03-29T13:15:35Z</time>
      </trkpt>
      <trkpt lat="49.84154" lon="2.1814">
        <ele>59.4</ele>
        <time>2023-03-29T13:15:36Z</time>
      </trkpt>
      <trkpt lat="49.84154" lon="2.18141">
        <ele>59.4</ele>
        <time>2023-03-29T13:15:37Z</time>
      </trkpt>
      <trkpt lat="49.84154" lon="2.18142">
        <ele>59.4</ele>
        <time>2023-03-29T13:15:38Z</time>
      </trkpt>
      <trkpt lat="49.84154" lon="2.18143">
        <ele>59.4</ele>
        <time>2023-03-29T13:15:39Z</time>
      </trkpt>
      <trkpt lat="49.84154" lon="2.18145">
        <ele>59.4</ele>
        <time>2023-03-29T13:15:40Z</time>
      </trkpt>
      <trkpt lat="49.84154" lon="2.18147">
        <ele>59.4</ele>
        <time>2023-03-29T13:15:41Z</time>
      </trkpt>
      <trkpt lat="49.84154" lon="2.18148">
        <ele>59.4</ele>
        <time>2023-03-29T13:15:43Z</time>
      </trkpt>
      <trkpt lat="49.84154" lon="2.1815">
        <ele>59.4</ele>
        <time>2023-03-29T13:15:44Z</time>
      </trkpt>
      <trkpt lat="49.84153" lon="2.18152">
        <ele>59.5</ele>
        <time>2023-03-29T13:15:45Z</time>
      </trkpt>
      <trkpt lat="49.84152" lon="2.18155">
        <ele>59.5</ele>
        <time>2023-03-29T13:15:46Z</time>
      </trkpt>
      <trkpt lat="49.84151" lon="2.18159">
        <ele>59.5</ele>
        <time>2023-03-29T13:15:48Z</time>
      </trkpt>
      <trkpt lat="49.84151" lon="2.1816">
        <ele>59.5</ele>
        <time>2023-03-29T13:15:49Z</time>
      </trkpt>
      <trkpt lat="49.84151" lon="2.18163">
        <ele>59.5</ele>
        <time>2023-03-29T13:15:51Z</time>
      </trkpt>
      <trkpt lat="49.84151" lon="2.18165">
        <ele>59.5</ele>
        <time>2023-03-29T13:15:52Z</time>
      </trkpt>
      <trkpt lat="49.84151" lon="2.18166">
        <ele>59.5</ele>
        <time>2023-03-29T13:15:53Z</time>
      </trkpt>
      <trkpt lat="49.84151" lon="2.18167">
        <ele>59.6</ele>
        <time>2023-03-29T13:15:55Z</time>
      </trkpt>
      <trkpt lat="49.84152" lon="2.18169">
        <ele>59.6</ele>
        <time>2023-03-29T13:15:56Z</time>
      </trkpt>
      <trkpt lat="49.84152" lon="2.1817">
        <ele>59.6</ele>
        <time>2023-03-29T13:15:57Z</time>
      </trkpt>
      <trkpt lat="49.84152" lon="2.1817">
        <ele>59.6</ele>
        <time>2023-03-29T13:15:58Z</time>
      </trkpt>
      <trkpt lat="49.84153" lon="2.18171">
        <ele>59.6</ele>
        <time>2023-03-29T13:16:00Z</time>
      </trkpt>
      <trkpt lat="49.84154" lon="2.18171">
        <ele>59.6</ele>
        <time>2023-03-29T13:16:01Z</time>
      </trkpt>
      <trkpt lat="49.84154" lon="2.18171">
        <ele>59.6</ele>
        <time>2023-03-29T13:16:02Z</time>
      </trkpt>
      <trkpt lat="49.84154" lon="2.18171">
        <ele>59.6</ele>
        <time>2023-03-29T13:16:03Z</time>
      </trkpt>
      <trkpt lat="49.84154" lon="2.18171">
        <ele>59.6</ele>
        <time>2023-03-29T13:16:04Z</time>
      </trkpt>
      <trkpt lat="49.84154" lon="2.18173">
        <ele>59.6</ele>
        <time>2023-03-29T13:16:05Z</time>
      </trkpt>
      <trkpt lat="49.84154" lon="2.18174">
        <ele>59.6</ele>
        <time>2023-03-29T13:16:07Z</time>
      </trkpt>
      <trkpt lat="49.84154" lon="2.18176">
        <ele>59.6</ele>
        <time>2023-03-29T13:16:08Z</time>
      </trkpt>
      <trkpt lat="49.84154" lon="2.18178">
        <ele>59.6</ele>
        <time>2023-03-29T13:16:09Z</time>
      </trkpt>
      <trkpt lat="49.84153" lon="2.18179">
        <ele>59.6</ele>
        <time>2023-03-29T13:16:10Z</time>
      </trkpt>
      <trkpt lat="49.84153" lon="2.18182">
        <ele>59.6</ele>
        <time>2023-03-29T13:16:12Z</time>
      </trkpt>
      <trkpt lat="49.84153" lon="2.18184">
        <ele>59.7</ele>
        <time>2023-03-29T13:16:14Z</time>
      </trkpt>
      <trkpt lat="49.84153" lon="2.18185">
        <ele>59.7</ele>
        <time>2023-03-29T13:16:15Z</time>
      </trkpt>
      <trkpt lat="49.84152" lon="2.18187">
        <ele>59.7</ele>
        <time>2023-03-29T13:16:16Z</time>
      </trkpt>
      <trkpt lat="49.84152" lon="2.18189">
        <ele>59.7</ele>
        <time>2023-03-29T13:16:17Z</time>
      </trkpt>
      <trkpt lat="49.84152" lon="2.1819">
        <ele>59.7</ele>
        <time>2023-03-29T13:16:18Z</time>
      </trkpt>
      <trkpt lat="49.84152" lon="2.18193">
        <ele>59.7</ele>
        <time>2023-03-29T13:16:20Z</time>
      </trkpt>
      <trkpt lat="49.84152" lon="2.18195">
        <ele>59.7</ele>
        <time>2023-03-29T13:16:21Z</time>
      </trkpt>
      <trkpt lat="49.84152" lon="2.18198">
        <ele>59.7</ele>
        <time>2023-03-29T13:16:22Z</time>
      </trkpt>
      <trkpt lat="49.84152" lon="2.18201">
        <ele>59.7</ele>
        <time>2023-03-29T13:16:23Z</time>
      </trkpt>
      <trkpt lat="49.84152" lon="2.18204">
        <ele>59.8</ele>
        <time>2023-03-29T13:16:24Z</time>
      </trkpt>
      <trkpt lat="49.84153" lon="2.18206">
        <ele>59.8</ele>
        <time>2023-03-29T13:16:26Z</time>
      </trkpt>
      <trkpt lat="49.84153" lon="2.18208">
        <ele>59.8</ele>
        <time>2023-03-29T13:16:27Z</time>
      </trkpt>
      <trkpt lat="49.84154" lon="2.1821">
        <ele>59.8</ele>
        <time>2023-03-29T13:16:28Z</time>
      </trkpt>
      <trkpt lat="49.84154" lon="2.18211">
        <ele>59.8</ele>
        <time>2023-03-29T13:16:29Z</time>
      </trkpt>
      <trkpt lat="49.84154" lon="2.18213">
        <ele>59.8</ele>
        <time>2023-03-29T13:16:30Z</time>
      </trkpt>
      <trkpt lat="49.84154" lon="2.18215">
        <ele>59.8</ele>
        <time>2023-03-29T13:16:31Z</time>
      </trkpt>
      <trkpt lat="49.84154" lon="2.18217">
        <ele>59.8</ele>
        <time>2023-03-29T13:16:32Z</time>
      </trkpt>
      <trkpt lat="49.84154" lon="2.18219">
        <ele>59.8</ele>
        <time>2023-03-29T13:16:34Z</time>
      </trkpt>
      <trkpt lat="49.84153" lon="2.18222">
        <ele>59.9</ele>
        <time>2023-03-29T13:16:35Z</time>
      </trkpt>
      <trkpt lat="49.84153" lon="2.18223">
        <ele>59.9</ele>
        <time>2023-03-29T13:16:36Z</time>
      </trkpt>
      <trkpt lat="49.84153" lon="2.18225">
        <ele>59.9</ele>
        <time>2023-03-29T13:16:37Z</time>
      </trkpt>
      <trkpt lat="49.84153" lon="2.18227">
        <ele>59.9</ele>
        <time>2023-03-29T13:16:38Z</time>
      </trkpt>
      <trkpt lat="49.84152" lon="2.18229">
        <ele>59.9</ele>
        <time>2023-03-29T13:16:39Z</time>
      </trkpt>
      <trkpt lat="49.84152" lon="2.18231">
        <ele>59.9</ele>
        <time>2023-03-29T13:16:41Z</time>
      </trkpt>
      <trkpt lat="49.84152" lon="2.18232">
        <ele>59.9</ele>
        <time>2023-03-29T13:16:42Z</time>
      </trkpt>
      <trkpt lat="49.84152" lon="2.18234">
        <ele>59.9</ele>
        <time>2023-03-29T13:16:43Z</time>
      </trkpt>
      <trkpt lat="49.84152" lon="2.18236">
        <ele>59.9</ele>
        <time>2023-03-29T13:16:44Z</time>
      </trkpt>
      <trkpt lat="49.84152" lon="2.18238">
        <ele>59.9</ele>
        <time>2023-03-29T13:16:45Z</time>
      </trkpt>
      <trkpt lat="49.84152" lon="2.18239">
        <ele>59.9</ele>
        <time>2023-03-29T13:16:46Z</time>
      </trkpt>
      <trkpt lat="49.84152" lon="2.18242">
        <ele>60</ele>
        <time>2023-03-29T13:16:48Z</time>
      </trkpt>
      <trkpt lat="49.84152" lon="2.18244">
        <ele>60</ele>
        <time>2023-03-29T13:16:49Z</time>
      </trkpt>
      <trkpt lat="49.84152" lon="2.18245">
        <ele>60</ele>
        <time>2023-03-29T13:16:50Z</time>
      </trkpt>
      <trkpt lat="49.84152" lon="2.18247">
        <ele>60</ele>
        <time>2023-03-29T13:16:51Z</time>
      </trkpt>
      <trkpt lat="49.84152" lon="2.18249">
        <ele>60</ele>
        <time>2023-03-29T13:16:52Z</time>
      </trkpt>
      <trkpt lat="49.84152" lon="2.18251">
        <ele>60</ele>
        <time>2023-03-29T13:16:54Z</time>
      </trkpt>
      <trkpt lat="49.84152" lon="2.18254">
        <ele>60</ele>
        <time>2023-03-29T13:16:55Z</time>
      </trkpt>
      <trkpt lat="49.84152" lon="2.18255">
        <ele>59.9</ele>
        <time>2023-03-29T13:16:56Z</time>
      </trkpt>
      <trkpt lat="49.84152" lon="2.18257">
        <ele>59.9</ele>
        <time>2023-03-29T13:16:57Z</time>
      </trkpt>
      <trkpt lat="49.84152" lon="2.18259">
        <ele>59.9</ele>
        <time>2023-03-29T13:16:58Z</time>
      </trkpt>
      <trkpt lat="49.84151" lon="2.18262">
        <ele>59.9</ele>
        <time>2023-03-29T13:16:59Z</time>
      </trkpt>
      <trkpt lat="49.84151" lon="2.18264">
        <ele>59.9</ele>
        <time>2023-03-29T13:17:00Z</time>
      </trkpt>
      <trkpt lat="49.84151" lon="2.18265">
        <ele>59.9</ele>
        <time>2023-03-29T13:17:02Z</time>
      </trkpt>
      <trkpt lat="49.84152" lon="2.18268">
        <ele>59.9</ele>
        <time>2023-03-29T13:17:03Z</time>
      </trkpt>
      <trkpt lat="49.84152" lon="2.1827">
        <ele>59.9</ele>
        <time>2023-03-29T13:17:04Z</time>
      </trkpt>
      <trkpt lat="49.84153" lon="2.18271">
        <ele>59.9</ele>
        <time>2023-03-29T13:17:05Z</time>
      </trkpt>
      <trkpt lat="49.84155" lon="2.18277">
        <ele>59.9</ele>
        <time>2023-03-29T13:17:07Z</time>
      </trkpt>
      <trkpt lat="49.84155" lon="2.18278">
        <ele>59.9</ele>
        <time>2023-03-29T13:17:08Z</time>
      </trkpt>
      <trkpt lat="49.84155" lon="2.1828">
        <ele>59.9</ele>
        <time>2023-03-29T13:17:10Z</time>
      </trkpt>
      <trkpt lat="49.84155" lon="2.18281">
        <ele>59.8</ele>
        <time>2023-03-29T13:17:11Z</time>
      </trkpt>
      <trkpt lat="49.84155" lon="2.18284">
        <ele>59.8</ele>
        <time>2023-03-29T13:17:12Z</time>
      </trkpt>
      <trkpt lat="49.84155" lon="2.18286">
        <ele>59.8</ele>
        <time>2023-03-29T13:17:13Z</time>
      </trkpt>
      <trkpt lat="49.84155" lon="2.18287">
        <ele>59.8</ele>
        <time>2023-03-29T13:17:14Z</time>
      </trkpt>
      <trkpt lat="49.84155" lon="2.18289">
        <ele>59.8</ele>
        <time>2023-03-29T13:17:15Z</time>
      </trkpt>
      <trkpt lat="49.84155" lon="2.18291">
        <ele>59.7</ele>
        <time>2023-03-29T13:17:16Z</time>
      </trkpt>
      <trkpt lat="49.84155" lon="2.18292">
        <ele>59.7</ele>
        <time>2023-03-29T13:17:18Z</time>
      </trkpt>
      <trkpt lat="49.84154" lon="2.18295">
        <ele>59.7</ele>
        <time>2023-03-29T13:17:19Z</time>
      </trkpt>
      <trkpt lat="49.84153" lon="2.18296">
        <ele>59.7</ele>
        <time>2023-03-29T13:17:20Z</time>
      </trkpt>
      <trkpt lat="49.84153" lon="2.18299">
        <ele>59.6</ele>
        <time>2023-03-29T13:17:21Z</time>
      </trkpt>
      <trkpt lat="49.84152" lon="2.18301">
        <ele>59.6</ele>
        <time>2023-03-29T13:17:22Z</time>
      </trkpt>
      <trkpt lat="49.84152" lon="2.18302">
        <ele>59.5</ele>
        <time>2023-03-29T13:17:23Z</time>
      </trkpt>
      <trkpt lat="49.84151" lon="2.18305">
        <ele>59.5</ele>
        <time>2023-03-29T13:17:24Z</time>
      </trkpt>
      <trkpt lat="49.84151" lon="2.18306">
        <ele>59.5</ele>
        <time>2023-03-29T13:17:25Z</time>
      </trkpt>
      <trkpt lat="49.84151" lon="2.18308">
        <ele>59.4</ele>
        <time>2023-03-29T13:17:27Z</time>
      </trkpt>
      <trkpt lat="49.84151" lon="2.18309">
        <ele>59.4</ele>
        <time>2023-03-29T13:17:28Z</time>
      </trkpt>
      <trkpt lat="49.8415" lon="2.18311">
        <ele>59.4</ele>
        <time>2023-03-29T13:17:29Z</time>
      </trkpt>
      <trkpt lat="49.8415" lon="2.18313">
        <ele>59.3</ele>
        <time>2023-03-29T13:17:30Z</time>
      </trkpt>
      <trkpt lat="49.8415" lon="2.18314">
        <ele>59.3</ele>
        <time>2023-03-29T13:17:31Z</time>
      </trkpt>
      <trkpt lat="49.8415" lon="2.18316">
        <ele>59.2</ele>
        <time>2023-03-29T13:17:32Z</time>
      </trkpt>
      <trkpt lat="49.84149" lon="2.18318">
        <ele>59.2</ele>
        <time>2023-03-29T13:17:33Z</time>
      </trkpt>
      <trkpt lat="49.84149" lon="2.18319">
        <ele>59.2</ele>
        <time>2023-03-29T13:17:34Z</time>
      </trkpt>
      <trkpt lat="49.84149" lon="2.18321">
        <ele>59.1</ele>
        <time>2023-03-29T13:17:35Z</time>
      </trkpt>
      <trkpt lat="49.84149" lon="2.18323">
        <ele>59.1</ele>
        <time>2023-03-29T13:17:36Z</time>
      </trkpt>
      <trkpt lat="49.84149" lon="2.18325">
        <ele>59</ele>
        <time>2023-03-29T13:17:38Z</time>
      </trkpt>
      <trkpt lat="49.84149" lon="2.18327">
        <ele>59</ele>
        <time>2023-03-29T13:17:39Z</time>
      </trkpt>
      <trkpt lat="49.84149" lon="2.18331">
        <ele>58.9</ele>
        <time>2023-03-29T13:17:40Z</time>
      </trkpt>
      <trkpt lat="49.84149" lon="2.18332">
        <ele>58.8</ele>
        <time>2023-03-29T13:17:41Z</time>
      </trkpt>
      <trkpt lat="49.84149" lon="2.18334">
        <ele>58.8</ele>
        <time>2023-03-29T13:17:42Z</time>
      </trkpt>
      <trkpt lat="49.84149" lon="2.18337">
        <ele>58.7</ele>
        <time>2023-03-29T13:17:43Z</time>
      </trkpt>
      <trkpt lat="49.84149" lon="2.18339">
        <ele>58.6</ele>
        <time>2023-03-29T13:17:44Z</time>
      </trkpt>
      <trkpt lat="49.84148" lon="2.18342">
        <ele>58.5</ele>
        <time>2023-03-29T13:17:45Z</time>
      </trkpt>
      <trkpt lat="49.84148" lon="2.18344">
        <ele>58.5</ele>
        <time>2023-03-29T13:17:46Z</time>
      </trkpt>
      <trkpt lat="49.84148" lon="2.18347">
        <ele>58.4</ele>
        <time>2023-03-29T13:17:47Z</time>
      </trkpt>
      <trkpt lat="49.84148" lon="2.18349">
        <ele>58.3</ele>
        <time>2023-03-29T13:17:49Z</time>
      </trkpt>
      <trkpt lat="49.84148" lon="2.18352">
        <ele>58.2</ele>
        <time>2023-03-29T13:17:50Z</time>
      </trkpt>
      <trkpt lat="49.84148" lon="2.18355">
        <ele>58.1</ele>
        <time>2023-03-29T13:17:51Z</time>
      </trkpt>
      <trkpt lat="49.84148" lon="2.18358">
        <ele>58</ele>
        <time>2023-03-29T13:17:52Z</time>
      </trkpt>
      <trkpt lat="49.84148" lon="2.18359">
        <ele>58</ele>
        <time>2023-03-29T13:17:53Z</time>
      </trkpt>
      <trkpt lat="49.84148" lon="2.18361">
        <ele>57.9</ele>
        <time>2023-03-29T13:17:54Z</time>
      </trkpt>
      <trkpt lat="49.84148" lon="2.18362">
        <ele>57.9</ele>
        <time>2023-03-29T13:17:55Z</time>
      </trkpt>
      <trkpt lat="49.84148" lon="2.18364">
        <ele>57.8</ele>
        <time>2023-03-29T13:17:56Z</time>
      </trkpt>
      <trkpt lat="49.84148" lon="2.18366">
        <ele>57.8</ele>
        <time>2023-03-29T13:17:57Z</time>
      </trkpt>
      <trkpt lat="49.84148" lon="2.18369">
        <ele>57.7</ele>
        <time>2023-03-29T13:17:58Z</time>
      </trkpt>
      <trkpt lat="49.84148" lon="2.1837">
        <ele>57.6</ele>
        <time>2023-03-29T13:17:59Z</time>
      </trkpt>
      <trkpt lat="49.84148" lon="2.18371">
        <ele>57.6</ele>
        <time>2023-03-29T13:18:00Z</time>
      </trkpt>
      <trkpt lat="49.84148" lon="2.18373">
        <ele>57.5</ele>
        <time>2023-03-29T13:18:02Z</time>
      </trkpt>
      <trkpt lat="49.84148" lon="2.18374">
        <ele>57.5</ele>
        <time>2023-03-29T13:18:03Z</time>
      </trkpt>
      <trkpt lat="49.84148" lon="2.18374">
        <ele>57.5</ele>
        <time>2023-03-29T13:18:04Z</time>
      </trkpt>
      <trkpt lat="49.84148" lon="2.18376">
        <ele>57.4</ele>
        <time>2023-03-29T13:18:05Z</time>
      </trkpt>
      <trkpt lat="49.84147" lon="2.18378">
        <ele>57.4</ele>
        <time>2023-03-29T13:18:06Z</time>
      </trkpt>
      <trkpt lat="49.84147" lon="2.1838">
        <ele>57.3</ele>
        <time>2023-03-29T13:18:07Z</time>
      </trkpt>
      <trkpt lat="49.84147" lon="2.18382">
        <ele>57.3</ele>
        <time>2023-03-29T13:18:08Z</time>
      </trkpt>
      <trkpt lat="49.84147" lon="2.18383">
        <ele>57.2</ele>
        <time>2023-03-29T13:18:09Z</time>
      </trkpt>
      <trkpt lat="49.84147" lon="2.18385">
        <ele>57.1</ele>
        <time>2023-03-29T13:18:10Z</time>
      </trkpt>
      <trkpt lat="49.84148" lon="2.18387">
        <ele>57.1</ele>
        <time>2023-03-29T13:18:11Z</time>
      </trkpt>
      <trkpt lat="49.84148" lon="2.18389">
        <ele>57</ele>
        <time>2023-03-29T13:18:13Z</time>
      </trkpt>
      <trkpt lat="49.84148" lon="2.18392">
        <ele>56.9</ele>
        <time>2023-03-29T13:18:14Z</time>
      </trkpt>
      <trkpt lat="49.84148" lon="2.18394">
        <ele>56.8</ele>
        <time>2023-03-29T13:18:15Z</time>
      </trkpt>
      <trkpt lat="49.84148" lon="2.18397">
        <ele>56.7</ele>
        <time>2023-03-29T13:18:16Z</time>
      </trkpt>
      <trkpt lat="49.84148" lon="2.18399">
        <ele>56.7</ele>
        <time>2023-03-29T13:18:17Z</time>
      </trkpt>
      <trkpt lat="49.84148" lon="2.184">
        <ele>56.6</ele>
        <time>2023-03-29T13:18:18Z</time>
      </trkpt>
      <trkpt lat="49.84148" lon="2.18402">
        <ele>56.6</ele>
        <time>2023-03-29T13:18:19Z</time>
      </trkpt>
      <trkpt lat="49.84148" lon="2.18405">
        <ele>56.5</ele>
        <time>2023-03-29T13:18:20Z</time>
      </trkpt>
      <trkpt lat="49.84149" lon="2.18407">
        <ele>56.4</ele>
        <time>2023-03-29T13:18:21Z</time>
      </trkpt>
      <trkpt lat="49.84149" lon="2.18409">
        <ele>56.3</ele>
        <time>2023-03-29T13:18:23Z</time>
      </trkpt>
      <trkpt lat="49.84149" lon="2.18411">
        <ele>56.3</ele>
        <time>2023-03-29T13:18:24Z</time>
      </trkpt>
      <trkpt lat="49.84149" lon="2.18414">
        <ele>56.2</ele>
        <time>2023-03-29T13:18:25Z</time>
      </trkpt>
      <trkpt lat="49.84149" lon="2.18417">
        <ele>56.1</ele>
        <time>2023-03-29T13:18:26Z</time>
      </trkpt>
      <trkpt lat="49.84148" lon="2.18419">
        <ele>56</ele>
        <time>2023-03-29T13:18:28Z</time>
      </trkpt>
      <trkpt lat="49.84148" lon="2.18421">
        <ele>56</ele>
        <time>2023-03-29T13:18:29Z</time>
      </trkpt>
      <trkpt lat="49.84147" lon="2.18424">
        <ele>55.9</ele>
        <time>2023-03-29T13:18:30Z</time>
      </trkpt>
      <trkpt lat="49.84147" lon="2.18425">
        <ele>55.8</ele>
        <time>2023-03-29T13:18:31Z</time>
      </trkpt>
      <trkpt lat="49.84147" lon="2.18427">
        <ele>55.8</ele>
        <time>2023-03-29T13:18:32Z</time>
      </trkpt>
      <trkpt lat="49.84147" lon="2.1843">
        <ele>55.7</ele>
        <time>2023-03-29T13:18:33Z</time>
      </trkpt>
      <trkpt lat="49.84147" lon="2.18431">
        <ele>55.7</ele>
        <time>2023-03-29T13:18:35Z</time>
      </trkpt>
      <trkpt lat="49.84147" lon="2.18432">
        <ele>55.7</ele>
        <time>2023-03-29T13:18:36Z</time>
      </trkpt>
      <trkpt lat="49.84147" lon="2.18433">
        <ele>55.6</ele>
        <time>2023-03-29T13:18:37Z</time>
      </trkpt>
      <trkpt lat="49.84147" lon="2.18435">
        <ele>55.6</ele>
        <time>2023-03-29T13:18:38Z</time>
      </trkpt>
      <trkpt lat="49.84147" lon="2.18437">
        <ele>55.5</ele>
        <time>2023-03-29T13:18:39Z</time>
      </trkpt>
      <trkpt lat="49.84147" lon="2.1844">
        <ele>55.4</ele>
        <time>2023-03-29T13:18:40Z</time>
      </trkpt>
      <trkpt lat="49.84147" lon="2.18441">
        <ele>55.4</ele>
        <time>2023-03-29T13:18:41Z</time>
      </trkpt>
      <trkpt lat="49.84147" lon="2.18442">
        <ele>55.4</ele>
        <time>2023-03-29T13:18:42Z</time>
      </trkpt>
      <trkpt lat="49.84147" lon="2.18444">
        <ele>55.4</ele>
        <time>2023-03-29T13:18:43Z</time>
      </trkpt>
      <trkpt lat="49.84147" lon="2.18445">
        <ele>55.3</ele>
        <time>2023-03-29T13:18:44Z</time>
      </trkpt>
      <trkpt lat="49.84148" lon="2.18447">
        <ele>55.3</ele>
        <time>2023-03-29T13:18:46Z</time>
      </trkpt>
      <trkpt lat="49.84148" lon="2.1845">
        <ele>55.2</ele>
        <time>2023-03-29T13:18:47Z</time>
      </trkpt>
      <trkpt lat="49.84148" lon="2.18452">
        <ele>55.2</ele>
        <time>2023-03-29T13:18:48Z</time>
      </trkpt>
      <trkpt lat="49.84149" lon="2.18453">
        <ele>55.2</ele>
        <time>2023-03-29T13:18:49Z</time>
      </trkpt>
      <trkpt lat="49.84149" lon="2.18455">
        <ele>55.1</ele>
        <time>2023-03-29T13:18:50Z</time>
      </trkpt>
      <trkpt lat="49.84149" lon="2.18457">
        <ele>55.1</ele>
        <time>2023-03-29T13:18:51Z</time>
      </trkpt>
      <trkpt lat="49.84149" lon="2.18458">
        <ele>55</ele>
        <time>2023-03-29T13:18:52Z</time>
      </trkpt>
      <trkpt lat="49.8415" lon="2.1846">
        <ele>55</ele>
        <time>2023-03-29T13:18:53Z</time>
      </trkpt>
      <trkpt lat="49.8415" lon="2.18462">
        <ele>55</ele>
        <time>2023-03-29T13:18:54Z</time>
      </trkpt>
      <trkpt lat="49.8415" lon="2.18464">
        <ele>54.9</ele>
        <time>2023-03-29T13:18:56Z</time>
      </trkpt>
      <trkpt lat="49.8415" lon="2.18466">
        <ele>54.9</ele>
        <time>2023-03-29T13:18:57Z</time>
      </trkpt>
      <trkpt lat="49.8415" lon="2.18469">
        <ele>54.8</ele>
        <time>2023-03-29T13:18:58Z</time>
      </trkpt>
      <trkpt lat="49.84151" lon="2.1847">
        <ele>54.8</ele>
        <time>2023-03-29T13:18:59Z</time>
      </trkpt>
      <trkpt lat="49.84152" lon="2.18473">
        <ele>54.7</ele>
        <time>2023-03-29T13:19:00Z</time>
      </trkpt>
      <trkpt lat="49.84152" lon="2.18475">
        <ele>54.7</ele>
        <time>2023-03-29T13:19:01Z</time>
      </trkpt>
      <trkpt lat="49.84152" lon="2.18477">
        <ele>54.6</ele>
        <time>2023-03-29T13:19:02Z</time>
      </trkpt>
      <trkpt lat="49.84153" lon="2.18479">
        <ele>54.6</ele>
        <time>2023-03-29T13:19:03Z</time>
      </trkpt>
      <trkpt lat="49.84153" lon="2.18481">
        <ele>54.6</ele>
        <time>2023-03-29T13:19:04Z</time>
      </trkpt>
      <trkpt lat="49.84153" lon="2.18484">
        <ele>54.5</ele>
        <time>2023-03-29T13:19:05Z</time>
      </trkpt>
      <trkpt lat="49.84154" lon="2.18486">
        <ele>54.5</ele>
        <time>2023-03-29T13:19:06Z</time>
      </trkpt>
      <trkpt lat="49.84155" lon="2.18488">
        <ele>54.4</ele>
        <time>2023-03-29T13:19:08Z</time>
      </trkpt>
      <trkpt lat="49.84155" lon="2.18489">
        <ele>54.4</ele>
        <time>2023-03-29T13:19:09Z</time>
      </trkpt>
      <trkpt lat="49.84155" lon="2.18491">
        <ele>54.4</ele>
        <time>2023-03-29T13:19:10Z</time>
      </trkpt>
      <trkpt lat="49.84156" lon="2.18492">
        <ele>54.4</ele>
        <time>2023-03-29T13:19:11Z</time>
      </trkpt>
      <trkpt lat="49.84157" lon="2.18493">
        <ele>54.3</ele>
        <time>2023-03-29T13:19:12Z</time>
      </trkpt>
      <trkpt lat="49.84157" lon="2.18495">
        <ele>54.3</ele>
        <time>2023-03-29T13:19:13Z</time>
      </trkpt>
      <trkpt lat="49.84157" lon="2.18496">
        <ele>54.3</ele>
        <time>2023-03-29T13:19:14Z</time>
      </trkpt>
      <trkpt lat="49.84158" lon="2.18498">
        <ele>54.2</ele>
        <time>2023-03-29T13:19:15Z</time>
      </trkpt>
      <trkpt lat="49.84158" lon="2.185">
        <ele>54.2</ele>
        <time>2023-03-29T13:19:17Z</time>
      </trkpt>
      <trkpt lat="49.84158" lon="2.18501">
        <ele>54.2</ele>
        <time>2023-03-29T13:19:18Z</time>
      </trkpt>
      <trkpt lat="49.84158" lon="2.18502">
        <ele>54.2</ele>
        <time>2023-03-29T13:19:19Z</time>
      </trkpt>
      <trkpt lat="49.84158" lon="2.18504">
        <ele>54.2</ele>
        <time>2023-03-29T13:19:20Z</time>
      </trkpt>
      <trkpt lat="49.84158" lon="2.18507">
        <ele>54.1</ele>
        <time>2023-03-29T13:19:21Z</time>
      </trkpt>
      <trkpt lat="49.84158" lon="2.18508">
        <ele>54.1</ele>
        <time>2023-03-29T13:19:22Z</time>
      </trkpt>
      <trkpt lat="49.84158" lon="2.1851">
        <ele>54.1</ele>
        <time>2023-03-29T13:19:23Z</time>
      </trkpt>
      <trkpt lat="49.84158" lon="2.18511">
        <ele>54.1</ele>
        <time>2023-03-29T13:19:24Z</time>
      </trkpt>
      <trkpt lat="49.84158" lon="2.18513">
        <ele>54</ele>
        <time>2023-03-29T13:19:25Z</time>
      </trkpt>
      <trkpt lat="49.84158" lon="2.18515">
        <ele>54</ele>
        <time>2023-03-29T13:19:27Z</time>
      </trkpt>
      <trkpt lat="49.84158" lon="2.18516">
        <ele>54</ele>
        <time>2023-03-29T13:19:28Z</time>
      </trkpt>
      <trkpt lat="49.84159" lon="2.18518">
        <ele>54</ele>
        <time>2023-03-29T13:19:29Z</time>
      </trkpt>
      <trkpt lat="49.84159" lon="2.1852">
        <ele>54</ele>
        <time>2023-03-29T13:19:31Z</time>
      </trkpt>
      <trkpt lat="49.8416" lon="2.18523">
        <ele>53.9</ele>
        <time>2023-03-29T13:19:32Z</time>
      </trkpt>
      <trkpt lat="49.84161" lon="2.18525">
        <ele>53.9</ele>
        <time>2023-03-29T13:19:33Z</time>
      </trkpt>
      <trkpt lat="49.84161" lon="2.18526">
        <ele>53.9</ele>
        <time>2023-03-29T13:19:34Z</time>
      </trkpt>
      <trkpt lat="49.84162" lon="2.18528">
        <ele>53.9</ele>
        <time>2023-03-29T13:19:35Z</time>
      </trkpt>
      <trkpt lat="49.84162" lon="2.1853">
        <ele>53.8</ele>
        <time>2023-03-29T13:19:36Z</time>
      </trkpt>
      <trkpt lat="49.84162" lon="2.18532">
        <ele>53.8</ele>
        <time>2023-03-29T13:19:38Z</time>
      </trkpt>
      <trkpt lat="49.84163" lon="2.18535">
        <ele>53.8</ele>
        <time>2023-03-29T13:19:39Z</time>
      </trkpt>
      <trkpt lat="49.84163" lon="2.18538">
        <ele>53.8</ele>
        <time>2023-03-29T13:19:40Z</time>
      </trkpt>
      <trkpt lat="49.84163" lon="2.1854">
        <ele>53.7</ele>
        <time>2023-03-29T13:19:41Z</time>
      </trkpt>
      <trkpt lat="49.84164" lon="2.18544">
        <ele>53.7</ele>
        <time>2023-03-29T13:19:42Z</time>
      </trkpt>
      <trkpt lat="49.84164" lon="2.18545">
        <ele>53.7</ele>
        <time>2023-03-29T13:19:43Z</time>
      </trkpt>
      <trkpt lat="49.84165" lon="2.18549">
        <ele>53.7</ele>
        <time>2023-03-29T13:19:44Z</time>
      </trkpt>
      <trkpt lat="49.84165" lon="2.18552">
        <ele>53.7</ele>
        <time>2023-03-29T13:19:46Z</time>
      </trkpt>
      <trkpt lat="49.84166" lon="2.18554">
        <ele>53.6</ele>
        <time>2023-03-29T13:19:47Z</time>
      </trkpt>
      <trkpt lat="49.84166" lon="2.18556">
        <ele>53.6</ele>
        <time>2023-03-29T13:19:48Z</time>
      </trkpt>
      <trkpt lat="49.84166" lon="2.18557">
        <ele>53.6</ele>
        <time>2023-03-29T13:19:49Z</time>
      </trkpt>
      <trkpt lat="49.84165" lon="2.18557">
        <ele>53.6</ele>
        <time>2023-03-29T13:19:51Z</time>
      </trkpt>
      <trkpt lat="49.84165" lon="2.18558">
        <ele>53.6</ele>
        <time>2023-03-29T13:19:52Z</time>
      </trkpt>
      <trkpt lat="49.84166" lon="2.18559">
        <ele>53.6</ele>
        <time>2023-03-29T13:19:53Z</time>
      </trkpt>
      <trkpt lat="49.84166" lon="2.1856">
        <ele>53.6</ele>
        <time>2023-03-29T13:19:54Z</time>
      </trkpt>
      <trkpt lat="49.84166" lon="2.18561">
        <ele>53.6</ele>
        <time>2023-03-29T13:19:55Z</time>
      </trkpt>
      <trkpt lat="49.84167" lon="2.18564">
        <ele>53.6</ele>
        <time>2023-03-29T13:19:56Z</time>
      </trkpt>
      <trkpt lat="49.84167" lon="2.18565">
        <ele>53.6</ele>
        <time>2023-03-29T13:19:57Z</time>
      </trkpt>
      <trkpt lat="49.84167" lon="2.18566">
        <ele>53.6</ele>
        <time>2023-03-29T13:19:59Z</time>
      </trkpt>
      <trkpt lat="49.84168" lon="2.18567">
        <ele>53.6</ele>
        <time>2023-03-29T13:20:00Z</time>
      </trkpt>
      <trkpt lat="49.84168" lon="2.18568">
        <ele>53.6</ele>
        <time>2023-03-29T13:20:01Z</time>
      </trkpt>
      <trkpt lat="49.84168" lon="2.1857">
        <ele>53.6</ele>
        <time>2023-03-29T13:20:02Z</time>
      </trkpt>
      <trkpt lat="49.84168" lon="2.18571">
        <ele>53.6</ele>
        <time>2023-03-29T13:20:03Z</time>
      </trkpt>
      <trkpt lat="49.84169" lon="2.18573">
        <ele>53.6</ele>
        <time>2023-03-29T13:20:04Z</time>
      </trkpt>
      <trkpt lat="49.84169" lon="2.18574">
        <ele>53.6</ele>
        <time>2023-03-29T13:20:05Z</time>
      </trkpt>
      <trkpt lat="49.84169" lon="2.18575">
        <ele>53.6</ele>
        <time>2023-03-29T13:20:07Z</time>
      </trkpt>
      <trkpt lat="49.84169" lon="2.18576">
        <ele>53.6</ele>
        <time>2023-03-29T13:20:08Z</time>
      </trkpt>
      <trkpt lat="49.8417" lon="2.18578">
        <ele>53.6</ele>
        <time>2023-03-29T13:20:09Z</time>
      </trkpt>
      <trkpt lat="49.84171" lon="2.18581">
        <ele>53.6</ele>
        <time>2023-03-29T13:20:10Z</time>
      </trkpt>
      <trkpt lat="49.84171" lon="2.18583">
        <ele>53.6</ele>
        <time>2023-03-29T13:20:11Z</time>
      </trkpt>
      <trkpt lat="49.84172" lon="2.18585">
        <ele>53.6</ele>
        <time>2023-03-29T13:20:12Z</time>
      </trkpt>
      <trkpt lat="49.84173" lon="2.18587">
        <ele>53.6</ele>
        <time>2023-03-29T13:20:13Z</time>
      </trkpt>
      <trkpt lat="49.84174" lon="2.18588">
        <ele>53.6</ele>
        <time>2023-03-29T13:20:14Z</time>
      </trkpt>
      <trkpt lat="49.84174" lon="2.18589">
        <ele>53.6</ele>
        <time>2023-03-29T13:20:15Z</time>
      </trkpt>
      <trkpt lat="49.84174" lon="2.18589">
        <ele>53.6</ele>
        <time>2023-03-29T13:20:17Z</time>
      </trkpt>
      <trkpt lat="49.84173" lon="2.18589">
        <ele>53.6</ele>
        <time>2023-03-29T13:20:18Z</time>
      </trkpt>
      <trkpt lat="49.84174" lon="2.1859">
        <ele>53.6</ele>
        <time>2023-03-29T13:20:19Z</time>
      </trkpt>
      <trkpt lat="49.84174" lon="2.18592">
        <ele>53.6</ele>
        <time>2023-03-29T13:20:20Z</time>
      </trkpt>
      <trkpt lat="49.84174" lon="2.18593">
        <ele>53.6</ele>
        <time>2023-03-29T13:20:21Z</time>
      </trkpt>
      <trkpt lat="49.84175" lon="2.18595">
        <ele>53.6</ele>
        <time>2023-03-29T13:20:23Z</time>
      </trkpt>
      <trkpt lat="49.84175" lon="2.18598">
        <ele>53.6</ele>
        <time>2023-03-29T13:20:24Z</time>
      </trkpt>
      <trkpt lat="49.84175" lon="2.18599">
        <ele>53.6</ele>
        <time>2023-03-29T13:20:25Z</time>
      </trkpt>
      <trkpt lat="49.84175" lon="2.18601">
        <ele>53.6</ele>
        <time>2023-03-29T13:20:26Z</time>
      </trkpt>
      <trkpt lat="49.84175" lon="2.18603">
        <ele>53.6</ele>
        <time>2023-03-29T13:20:27Z</time>
      </trkpt>
      <trkpt lat="49.84175" lon="2.18605">
        <ele>53.6</ele>
        <time>2023-03-29T13:20:28Z</time>
      </trkpt>
      <trkpt lat="49.84175" lon="2.18607">
        <ele>53.6</ele>
        <time>2023-03-29T13:20:29Z</time>
      </trkpt>
      <trkpt lat="49.84175" lon="2.18609">
        <ele>53.6</ele>
        <time>2023-03-29T13:20:31Z</time>
      </trkpt>
      <trkpt lat="49.84175" lon="2.18611">
        <ele>53.6</ele>
        <time>2023-03-29T13:20:32Z</time>
      </trkpt>
      <trkpt lat="49.84175" lon="2.18613">
        <ele>53.6</ele>
        <time>2023-03-29T13:20:33Z</time>
      </trkpt>
      <trkpt lat="49.84175" lon="2.18615">
        <ele>53.6</ele>
        <time>2023-03-29T13:20:35Z</time>
      </trkpt>
      <trkpt lat="49.84175" lon="2.18618">
        <ele>53.6</ele>
        <time>2023-03-29T13:20:36Z</time>
      </trkpt>
      <trkpt lat="49.84176" lon="2.18619">
        <ele>53.6</ele>
        <time>2023-03-29T13:20:37Z</time>
      </trkpt>
      <trkpt lat="49.84176" lon="2.18621">
        <ele>53.6</ele>
        <time>2023-03-29T13:20:38Z</time>
      </trkpt>
      <trkpt lat="49.84176" lon="2.18622">
        <ele>53.6</ele>
        <time>2023-03-29T13:20:39Z</time>
      </trkpt>
      <trkpt lat="49.84176" lon="2.18625">
        <ele>53.6</ele>
        <time>2023-03-29T13:20:40Z</time>
      </trkpt>
      <trkpt lat="49.84176" lon="2.18627">
        <ele>53.6</ele>
        <time>2023-03-29T13:20:42Z</time>
      </trkpt>
      <trkpt lat="49.84177" lon="2.18628">
        <ele>53.6</ele>
        <time>2023-03-29T13:20:43Z</time>
      </trkpt>
      <trkpt lat="49.84177" lon="2.18631">
        <ele>53.6</ele>
        <time>2023-03-29T13:20:44Z</time>
      </trkpt>
      <trkpt lat="49.84177" lon="2.18633">
        <ele>53.6</ele>
        <time>2023-03-29T13:20:45Z</time>
      </trkpt>
      <trkpt lat="49.84176" lon="2.18636">
        <ele>53.6</ele>
        <time>2023-03-29T13:20:46Z</time>
      </trkpt>
      <trkpt lat="49.84176" lon="2.18639">
        <ele>53.6</ele>
        <time>2023-03-29T13:20:48Z</time>
      </trkpt>
      <trkpt lat="49.84177" lon="2.18642">
        <ele>53.5</ele>
        <time>2023-03-29T13:20:50Z</time>
      </trkpt>
      <trkpt lat="49.84177" lon="2.18644">
        <ele>53.5</ele>
        <time>2023-03-29T13:20:51Z</time>
      </trkpt>
      <trkpt lat="49.84179" lon="2.18648">
        <ele>53.4</ele>
        <time>2023-03-29T13:20:53Z</time>
      </trkpt>
      <trkpt lat="49.8418" lon="2.18649">
        <ele>53.4</ele>
        <time>2023-03-29T13:20:55Z</time>
      </trkpt>
      <trkpt lat="49.84181" lon="2.18651">
        <ele>53.4</ele>
        <time>2023-03-29T13:20:57Z</time>
      </trkpt>
      <trkpt lat="49.84182" lon="2.18651">
        <ele>53.3</ele>
        <time>2023-03-29T13:20:58Z</time>
      </trkpt>
      <trkpt lat="49.84182" lon="2.18652">
        <ele>53.3</ele>
        <time>2023-03-29T13:21:00Z</time>
      </trkpt>
      <trkpt lat="49.84182" lon="2.18652">
        <ele>53.3</ele>
        <time>2023-03-29T13:21:01Z</time>
      </trkpt>
      <trkpt lat="49.84181" lon="2.18652">
        <ele>53.3</ele>
        <time>2023-03-29T13:21:03Z</time>
      </trkpt>
      <trkpt lat="49.84181" lon="2.18651">
        <ele>53.3</ele>
        <time>2023-03-29T13:21:04Z</time>
      </trkpt>
      <trkpt lat="49.8418" lon="2.18651">
        <ele>53.3</ele>
        <time>2023-03-29T13:21:05Z</time>
      </trkpt>
      <trkpt lat="49.84179" lon="2.1865">
        <ele>53.2</ele>
        <time>2023-03-29T13:21:07Z</time>
      </trkpt>
      <trkpt lat="49.84179" lon="2.1865">
        <ele>53.2</ele>
        <time>2023-03-29T13:21:08Z</time>
      </trkpt>
      <trkpt lat="49.84178" lon="2.18648">
        <ele>53.2</ele>
        <time>2023-03-29T13:21:10Z</time>
      </trkpt>
      <trkpt lat="49.84177" lon="2.18647">
        <ele>53.2</ele>
        <time>2023-03-29T13:21:11Z</time>
      </trkpt>
      <trkpt lat="49.84177" lon="2.18647">
        <ele>53.2</ele>
        <time>2023-03-29T13:21:12Z</time>
      </trkpt>
      <trkpt lat="49.84176" lon="2.18646">
        <ele>53.1</ele>
        <time>2023-03-29T13:21:14Z</time>
      </trkpt>
      <trkpt lat="49.84176" lon="2.18645">
        <ele>53.1</ele>
        <time>2023-03-29T13:21:15Z</time>
      </trkpt>
      <trkpt lat="49.84176" lon="2.18644">
        <ele>53.1</ele>
        <time>2023-03-29T13:21:16Z</time>
      </trkpt>
      <trkpt lat="49.84175" lon="2.18643">
        <ele>53.1</ele>
        <time>2023-03-29T13:21:17Z</time>
      </trkpt>
      <trkpt lat="49.84175" lon="2.18643">
        <ele>53.1</ele>
        <time>2023-03-29T13:21:19Z</time>
      </trkpt>
      <trkpt lat="49.84174" lon="2.18642">
        <ele>53.1</ele>
        <time>2023-03-29T13:21:20Z</time>
      </trkpt>
      <trkpt lat="49.84174" lon="2.18639">
        <ele>53</ele>
        <time>2023-03-29T13:21:22Z</time>
      </trkpt>
      <trkpt lat="49.84173" lon="2.18638">
        <ele>53</ele>
        <time>2023-03-29T13:21:23Z</time>
      </trkpt>
      <trkpt lat="49.84173" lon="2.18637">
        <ele>53</ele>
        <time>2023-03-29T13:21:25Z</time>
      </trkpt>
      <trkpt lat="49.84173" lon="2.18637">
        <ele>53</ele>
        <time>2023-03-29T13:21:26Z</time>
      </trkpt>
      <trkpt lat="49.84173" lon="2.18636">
        <ele>53</ele>
        <time>2023-03-29T13:21:27Z</time>
      </trkpt>
      <trkpt lat="49.84173" lon="2.18636">
        <ele>53</ele>
        <time>2023-03-29T13:21:29Z</time>
      </trkpt>
      <trkpt lat="49.84173" lon="2.18636">
        <ele>53</ele>
        <time>2023-03-29T13:21:30Z</time>
      </trkpt>
      <trkpt lat="49.84173" lon="2.18635">
        <ele>53</ele>
        <time>2023-03-29T13:21:32Z</time>
      </trkpt>
      <trkpt lat="49.84173" lon="2.18635">
        <ele>53</ele>
        <time>2023-03-29T13:21:33Z</time>
      </trkpt>
      <trkpt lat="49.84173" lon="2.18635">
        <ele>52.9</ele>
        <time>2023-03-29T13:21:34Z</time>
      </trkpt>
      <trkpt lat="49.84173" lon="2.18634">
        <ele>52.9</ele>
        <time>2023-03-29T13:21:36Z</time>
      </trkpt>
      <trkpt lat="49.84173" lon="2.18634">
        <ele>52.9</ele>
        <time>2023-03-29T13:21:37Z</time>
      </trkpt>
      <trkpt lat="49.84173" lon="2.18634">
        <ele>52.9</ele>
        <time>2023-03-29T13:21:38Z</time>
      </trkpt>
      <trkpt lat="49.84173" lon="2.18634">
        <ele>52.9</ele>
        <time>2023-03-29T13:21:40Z</time>
      </trkpt>
      <trkpt lat="49.84173" lon="2.18634">
        <ele>52.9</ele>
        <time>2023-03-29T13:21:41Z</time>
      </trkpt>
      <trkpt lat="49.84173" lon="2.18634">
        <ele>52.9</ele>
        <time>2023-03-29T13:21:43Z</time>
      </trkpt>
      <trkpt lat="49.84173" lon="2.18634">
        <ele>52.9</ele>
        <time>2023-03-29T13:21:44Z</time>
      </trkpt>
      <trkpt lat="49.84173" lon="2.18634">
        <ele>52.9</ele>
        <time>2023-03-29T13:21:46Z</time>
      </trkpt>
      <trkpt lat="49.84173" lon="2.18634">
        <ele>52.9</ele>
        <time>2023-03-29T13:21:47Z</time>
      </trkpt>
      <trkpt lat="49.84173" lon="2.18634">
        <ele>52.9</ele>
        <time>2023-03-29T13:21:48Z</time>
      </trkpt>
      <trkpt lat="49.84173" lon="2.18635">
        <ele>52.9</ele>
        <time>2023-03-29T13:21:50Z</time>
      </trkpt>
      <trkpt lat="49.84173" lon="2.18635">
        <ele>52.9</ele>
        <time>2023-03-29T13:21:51Z</time>
      </trkpt>
      <trkpt lat="49.84173" lon="2.18635">
        <ele>52.9</ele>
        <time>2023-03-29T13:21:52Z</time>
      </trkpt>
      <trkpt lat="49.84173" lon="2.18635">
        <ele>52.9</ele>
        <time>2023-03-29T13:21:53Z</time>
      </trkpt>
      <trkpt lat="49.84173" lon="2.18635">
        <ele>52.9</ele>
        <time>2023-03-29T13:21:54Z</time>
      </trkpt>
      <trkpt lat="49.84173" lon="2.18635">
        <ele>52.9</ele>
        <time>2023-03-29T13:21:55Z</time>
      </trkpt>
      <trkpt lat="49.84173" lon="2.18635">
        <ele>52.9</ele>
        <time>2023-03-29T13:21:56Z</time>
      </trkpt>
      <trkpt lat="49.84173" lon="2.18635">
        <ele>52.9</ele>
        <time>2023-03-29T13:21:57Z</time>
      </trkpt>
      <trkpt lat="49.84173" lon="2.18635">
        <ele>52.9</ele>
        <time>2023-03-29T13:21:58Z</time>
      </trkpt>
      <trkpt lat="49.84173" lon="2.18635">
        <ele>52.9</ele>
        <time>2023-03-29T13:21:59Z</time>
      </trkpt>
      <trkpt lat="49.84173" lon="2.18635">
        <ele>52.9</ele>
        <time>2023-03-29T13:22:00Z</time>
      </trkpt>
      <trkpt lat="49.84173" lon="2.18635">
        <ele>52.9</ele>
        <time>2023-03-29T13:22:01Z</time>
      </trkpt>
      <trkpt lat="49.84173" lon="2.18635">
        <ele>52.9</ele>
        <time>2023-03-29T13:22:02Z</time>
      </trkpt>
      <trkpt lat="49.84173" lon="2.18635">
        <ele>52.9</ele>
        <time>2023-03-29T13:22:03Z</time>
      </trkpt>
      <trkpt lat="49.84173" lon="2.18635">
        <ele>52.9</ele>
        <time>2023-03-29T13:22:04Z</time>
      </trkpt>
      <trkpt lat="49.84173" lon="2.18635">
        <ele>52.9</ele>
        <time>2023-03-29T13:22:05Z</time>
      </trkpt>
      <trkpt lat="49.84173" lon="2.18635">
        <ele>52.9</ele>
        <time>2023-03-29T13:22:06Z</time>
      </trkpt>
      <trkpt lat="49.84173" lon="2.18635">
        <ele>52.9</ele>
        <time>2023-03-29T13:22:07Z</time>
      </trkpt>
      <trkpt lat="49.84173" lon="2.18635">
        <ele>52.9</ele>
        <time>2023-03-29T13:22:08Z</time>
      </trkpt>
      <trkpt lat="49.84173" lon="2.18635">
        <ele>52.9</ele>
        <time>2023-03-29T13:22:09Z</time>
      </trkpt>
      <trkpt lat="49.84173" lon="2.18635">
        <ele>52.9</ele>
        <time>2023-03-29T13:22:10Z</time>
      </trkpt>
      <trkpt lat="49.84173" lon="2.18635">
        <ele>52.9</ele>
        <time>2023-03-29T13:22:11Z</time>
      </trkpt>
      <trkpt lat="49.84173" lon="2.18635">
        <ele>52.9</ele>
        <time>2023-03-29T13:22:12Z</time>
      </trkpt>
      <trkpt lat="49.84173" lon="2.18635">
        <ele>52.9</ele>
        <time>2023-03-29T13:22:13Z</time>
      </trkpt>
      <trkpt lat="49.84173" lon="2.18635">
        <ele>52.9</ele>
        <time>2023-03-29T13:22:14Z</time>
      </trkpt>
      <trkpt lat="49.84173" lon="2.18635">
        <ele>52.9</ele>
        <time>2023-03-29T13:22:15Z</time>
      </trkpt>
      <trkpt lat="49.84173" lon="2.18635">
        <ele>52.9</ele>
        <time>2023-03-29T13:22:16Z</time>
      </trkpt>
      <trkpt lat="49.84173" lon="2.18635">
        <ele>52.9</ele>
        <time>2023-03-29T13:22:17Z</time>
      </trkpt>
      <trkpt lat="49.84173" lon="2.18635">
        <ele>52.9</ele>
        <time>2023-03-29T13:22:18Z</time>
      </trkpt>
      <trkpt lat="49.84173" lon="2.18635">
        <ele>52.9</ele>
        <time>2023-03-29T13:22:19Z</time>
      </trkpt>
      <trkpt lat="49.84173" lon="2.18635">
        <ele>52.9</ele>
        <time>2023-03-29T13:22:20Z</time>
      </trkpt>
      <trkpt lat="49.84173" lon="2.18635">
        <ele>52.9</ele>
        <time>2023-03-29T13:22:21Z</time>
      </trkpt>
      <trkpt lat="49.84173" lon="2.18635">
        <ele>52.9</ele>
        <time>2023-03-29T13:22:22Z</time>
      </trkpt>
      <trkpt lat="49.84173" lon="2.18635">
        <ele>52.9</ele>
        <time>2023-03-29T13:22:23Z</time>
      </trkpt>
      <trkpt lat="49.84173" lon="2.18635">
        <ele>52.9</ele>
        <time>2023-03-29T13:22:24Z</time>
      </trkpt>
      <trkpt lat="49.84173" lon="2.18635">
        <ele>52.9</ele>
        <time>2023-03-29T13:22:25Z</time>
      </trkpt>
      <trkpt lat="49.84173" lon="2.18635">
        <ele>52.9</ele>
        <time>2023-03-29T13:22:26Z</time>
      </trkpt>
      <trkpt lat="49.84173" lon="2.18635">
        <ele>52.9</ele>
        <time>2023-03-29T13:22:27Z</time>
      </trkpt>
      <trkpt lat="49.84173" lon="2.18635">
        <ele>52.9</ele>
        <time>2023-03-29T13:22:28Z</time>
      </trkpt>
      <trkpt lat="49.84173" lon="2.18635">
        <ele>52.9</ele>
        <time>2023-03-29T13:22:29Z</time>
      </trkpt>
      <trkpt lat="49.84173" lon="2.18635">
        <ele>52.9</ele>
        <time>2023-03-29T13:22:30Z</time>
      </trkpt>
      <trkpt lat="49.84173" lon="2.18635">
        <ele>52.9</ele>
        <time>2023-03-29T13:22:31Z</time>
      </trkpt>
      <trkpt lat="49.84173" lon="2.18635">
        <ele>52.9</ele>
        <time>2023-03-29T13:22:32Z</time>
      </trkpt>
      <trkpt lat="49.84173" lon="2.18635">
        <ele>52.9</ele>
        <time>2023-03-29T13:22:33Z</time>
      </trkpt>
      <trkpt lat="49.84173" lon="2.18635">
        <ele>52.9</ele>
        <time>2023-03-29T13:22:34Z</time>
      </trkpt>
      <trkpt lat="49.84173" lon="2.18635">
        <ele>52.9</ele>
        <time>2023-03-29T13:22:35Z</time>
      </trkpt>
      <trkpt lat="49.84173" lon="2.18635">
        <ele>52.9</ele>
        <time>2023-03-29T13:22:36Z</time>
      </trkpt>
      <trkpt lat="49.84173" lon="2.18635">
        <ele>52.9</ele>
        <time>2023-03-29T13:22:37Z</time>
      </trkpt>
      <trkpt lat="49.84173" lon="2.18635">
        <ele>52.9</ele>
        <time>2023-03-29T13:22:38Z</time>
      </trkpt>
      <trkpt lat="49.84173" lon="2.18635">
        <ele>52.9</ele>
        <time>2023-03-29T13:22:39Z</time>
      </trkpt>
      <trkpt lat="49.84173" lon="2.18635">
        <ele>52.9</ele>
        <time>2023-03-29T13:22:40Z</time>
      </trkpt>
      <trkpt lat="49.84173" lon="2.18635">
        <ele>52.9</ele>
        <time>2023-03-29T13:22:41Z</time>
      </trkpt>
      <trkpt lat="49.84173" lon="2.18635">
        <ele>52.9</ele>
        <time>2023-03-29T13:22:42Z</time>
      </trkpt>
      <trkpt lat="49.84173" lon="2.18635">
        <ele>52.9</ele>
        <time>2023-03-29T13:22:43Z</time>
      </trkpt>
      <trkpt lat="49.84173" lon="2.18635">
        <ele>52.9</ele>
        <time>2023-03-29T13:22:44Z</time>
      </trkpt>
      <trkpt lat="49.84173" lon="2.18635">
        <ele>52.9</ele>
        <time>2023-03-29T13:22:45Z</time>
      </trkpt>
      <trkpt lat="49.84173" lon="2.18635">
        <ele>52.9</ele>
        <time>2023-03-29T13:22:46Z</time>
      </trkpt>
      <trkpt lat="49.84173" lon="2.18635">
        <ele>52.9</ele>
        <time>2023-03-29T13:22:47Z</time>
      </trkpt>
      <trkpt lat="49.84173" lon="2.18635">
        <ele>52.9</ele>
        <time>2023-03-29T13:22:48Z</time>
      </trkpt>
      <trkpt lat="49.84173" lon="2.18635">
        <ele>52.9</ele>
        <time>2023-03-29T13:22:49Z</time>
      </trkpt>
      <trkpt lat="49.84173" lon="2.18635">
        <ele>52.9</ele>
        <time>2023-03-29T13:22:50Z</time>
      </trkpt>
      <trkpt lat="49.84173" lon="2.18635">
        <ele>52.9</ele>
        <time>2023-03-29T13:22:51Z</time>
      </trkpt>
      <trkpt lat="49.84173" lon="2.18635">
        <ele>52.9</ele>
        <time>2023-03-29T13:22:52Z</time>
      </trkpt>
      <trkpt lat="49.84173" lon="2.18635">
        <ele>52.9</ele>
        <time>2023-03-29T13:22:53Z</time>
      </trkpt>
      <trkpt lat="49.84173" lon="2.18635">
        <ele>52.9</ele>
        <time>2023-03-29T13:22:54Z</time>
      </trkpt>
      <trkpt lat="49.84173" lon="2.18636">
        <ele>52.9</ele>
        <time>2023-03-29T13:22:55Z</time>
      </trkpt>
      <trkpt lat="49.84172" lon="2.18636">
        <ele>52.9</ele>
        <time>2023-03-29T13:22:56Z</time>
      </trkpt>
      <trkpt lat="49.84173" lon="2.18637">
        <ele>52.9</ele>
        <time>2023-03-29T13:22:57Z</time>
      </trkpt>
      <trkpt lat="49.84173" lon="2.18639">
        <ele>52.9</ele>
        <time>2023-03-29T13:22:58Z</time>
      </trkpt>
      <trkpt lat="49.84173" lon="2.1864">
        <ele>52.8</ele>
        <time>2023-03-29T13:22:59Z</time>
      </trkpt>
      <trkpt lat="49.84174" lon="2.18642">
        <ele>52.8</ele>
        <time>2023-03-29T13:23:00Z</time>
      </trkpt>
      <trkpt lat="49.84174" lon="2.18643">
        <ele>52.8</ele>
        <time>2023-03-29T13:23:01Z</time>
      </trkpt>
      <trkpt lat="49.84175" lon="2.18644">
        <ele>52.8</ele>
        <time>2023-03-29T13:23:02Z</time>
      </trkpt>
      <trkpt lat="49.84175" lon="2.18646">
        <ele>52.8</ele>
        <time>2023-03-29T13:23:03Z</time>
      </trkpt>
      <trkpt lat="49.84175" lon="2.18647">
        <ele>52.7</ele>
        <time>2023-03-29T13:23:04Z</time>
      </trkpt>
      <trkpt lat="49.84175" lon="2.18649">
        <ele>52.7</ele>
        <time>2023-03-29T13:23:05Z</time>
      </trkpt>
      <trkpt lat="49.84176" lon="2.18652">
        <ele>52.7</ele>
        <time>2023-03-29T13:23:06Z</time>
      </trkpt>
      <trkpt lat="49.84176" lon="2.18654">
        <ele>52.7</ele>
        <time>2023-03-29T13:23:08Z</time>
      </trkpt>
      <trkpt lat="49.84176" lon="2.18655">
        <ele>52.7</ele>
        <time>2023-03-29T13:23:09Z</time>
      </trkpt>
      <trkpt lat="49.84176" lon="2.18657">
        <ele>52.6</ele>
        <time>2023-03-29T13:23:10Z</time>
      </trkpt>
      <trkpt lat="49.84176" lon="2.18659">
        <ele>52.6</ele>
        <time>2023-03-29T13:23:11Z</time>
      </trkpt>
      <trkpt lat="49.84176" lon="2.1866">
        <ele>52.6</ele>
        <time>2023-03-29T13:23:12Z</time>
      </trkpt>
      <trkpt lat="49.84176" lon="2.18662">
        <ele>52.6</ele>
        <time>2023-03-29T13:23:13Z</time>
      </trkpt>
      <trkpt lat="49.84175" lon="2.18666">
        <ele>52.5</ele>
        <time>2023-03-29T13:23:14Z</time>
      </trkpt>
      <trkpt lat="49.84175" lon="2.18668">
        <ele>52.5</ele>
        <time>2023-03-29T13:23:15Z</time>
      </trkpt>
      <trkpt lat="49.84175" lon="2.18669">
        <ele>52.5</ele>
        <time>2023-03-29T13:23:17Z</time>
      </trkpt>
      <trkpt lat="49.84175" lon="2.18671">
        <ele>52.5</ele>
        <time>2023-03-29T13:23:18Z</time>
      </trkpt>
      <trkpt lat="49.84175" lon="2.18673">
        <ele>52.5</ele>
        <time>2023-03-29T13:23:19Z</time>
      </trkpt>
      <trkpt lat="49.84175" lon="2.18676">
        <ele>52.5</ele>
        <time>2023-03-29T13:23:20Z</time>
      </trkpt>
      <trkpt lat="49.84175" lon="2.18679">
        <ele>52.4</ele>
        <time>2023-03-29T13:23:21Z</time>
      </trkpt>
      <trkpt lat="49.84175" lon="2.18681">
        <ele>52.4</ele>
        <time>2023-03-29T13:23:22Z</time>
      </trkpt>
      <trkpt lat="49.84175" lon="2.18683">
        <ele>52.4</ele>
        <time>2023-03-29T13:23:23Z</time>
      </trkpt>
      <trkpt lat="49.84176" lon="2.18686">
        <ele>52.4</ele>
        <time>2023-03-29T13:23:24Z</time>
      </trkpt>
      <trkpt lat="49.84176" lon="2.18688">
        <ele>52.4</ele>
        <time>2023-03-29T13:23:25Z</time>
      </trkpt>
      <trkpt lat="49.84176" lon="2.1869">
        <ele>52.4</ele>
        <time>2023-03-29T13:23:27Z</time>
      </trkpt>
      <trkpt lat="49.84176" lon="2.18692">
        <ele>52.4</ele>
        <time>2023-03-29T13:23:28Z</time>
      </trkpt>
      <trkpt lat="49.84177" lon="2.18696">
        <ele>52.4</ele>
        <time>2023-03-29T13:23:29Z</time>
      </trkpt>
      <trkpt lat="49.84177" lon="2.18698">
        <ele>52.4</ele>
        <time>2023-03-29T13:23:30Z</time>
      </trkpt>
      <trkpt lat="49.84177" lon="2.18701">
        <ele>52.3</ele>
        <time>2023-03-29T13:23:31Z</time>
      </trkpt>
      <trkpt lat="49.84177" lon="2.18703">
        <ele>52.3</ele>
        <time>2023-03-29T13:23:32Z</time>
      </trkpt>
      <trkpt lat="49.84177" lon="2.18705">
        <ele>52.3</ele>
        <time>2023-03-29T13:23:33Z</time>
      </trkpt>
      <trkpt lat="49.84177" lon="2.18707">
        <ele>52.3</ele>
        <time>2023-03-29T13:23:34Z</time>
      </trkpt>
      <trkpt lat="49.84177" lon="2.18709">
        <ele>52.3</ele>
        <time>2023-03-29T13:23:35Z</time>
      </trkpt>
      <trkpt lat="49.84177" lon="2.18711">
        <ele>52.3</ele>
        <time>2023-03-29T13:23:37Z</time>
      </trkpt>
      <trkpt lat="49.84177" lon="2.18713">
        <ele>52.3</ele>
        <time>2023-03-29T13:23:38Z</time>
      </trkpt>
      <trkpt lat="49.84177" lon="2.18714">
        <ele>52.3</ele>
        <time>2023-03-29T13:23:39Z</time>
      </trkpt>
      <trkpt lat="49.84177" lon="2.18716">
        <ele>52.3</ele>
        <time>2023-03-29T13:23:41Z</time>
      </trkpt>
      <trkpt lat="49.84177" lon="2.18718">
        <ele>52.3</ele>
        <time>2023-03-29T13:23:42Z</time>
      </trkpt>
      <trkpt lat="49.84178" lon="2.18719">
        <ele>52.3</ele>
        <time>2023-03-29T13:23:43Z</time>
      </trkpt>
      <trkpt lat="49.84178" lon="2.18723">
        <ele>52.3</ele>
        <time>2023-03-29T13:23:44Z</time>
      </trkpt>
      <trkpt lat="49.84178" lon="2.18724">
        <ele>52.3</ele>
        <time>2023-03-29T13:23:45Z</time>
      </trkpt>
      <trkpt lat="49.84178" lon="2.18725">
        <ele>52.3</ele>
        <time>2023-03-29T13:23:46Z</time>
      </trkpt>
      <trkpt lat="49.84177" lon="2.18728">
        <ele>52.3</ele>
        <time>2023-03-29T13:23:47Z</time>
      </trkpt>
      <trkpt lat="49.84177" lon="2.1873">
        <ele>52.3</ele>
        <time>2023-03-29T13:23:48Z</time>
      </trkpt>
      <trkpt lat="49.84177" lon="2.18733">
        <ele>52.3</ele>
        <time>2023-03-29T13:23:50Z</time>
      </trkpt>
      <trkpt lat="49.84177" lon="2.18735">
        <ele>52.3</ele>
        <time>2023-03-29T13:23:51Z</time>
      </trkpt>
      <trkpt lat="49.84177" lon="2.18736">
        <ele>52.3</ele>
        <time>2023-03-29T13:23:52Z</time>
      </trkpt>
      <trkpt lat="49.84177" lon="2.18739">
        <ele>52.3</ele>
        <time>2023-03-29T13:23:53Z</time>
      </trkpt>
      <trkpt lat="49.84177" lon="2.1874">
        <ele>52.3</ele>
        <time>2023-03-29T13:23:54Z</time>
      </trkpt>
      <trkpt lat="49.84178" lon="2.18742">
        <ele>52.3</ele>
        <time>2023-03-29T13:23:55Z</time>
      </trkpt>
      <trkpt lat="49.84178" lon="2.18743">
        <ele>52.3</ele>
        <time>2023-03-29T13:23:56Z</time>
      </trkpt>
      <trkpt lat="49.84178" lon="2.18745">
        <ele>52.3</ele>
        <time>2023-03-29T13:23:57Z</time>
      </trkpt>
      <trkpt lat="49.84178" lon="2.18747">
        <ele>52.3</ele>
        <time>2023-03-29T13:23:59Z</time>
      </trkpt>
      <trkpt lat="49.84178" lon="2.18749">
        <ele>52.3</ele>
        <time>2023-03-29T13:24:00Z</time>
      </trkpt>
      <trkpt lat="49.84178" lon="2.18751">
        <ele>52.3</ele>
        <time>2023-03-29T13:24:01Z</time>
      </trkpt>
      <trkpt lat="49.84178" lon="2.18753">
        <ele>52.3</ele>
        <time>2023-03-29T13:24:02Z</time>
      </trkpt>
      <trkpt lat="49.84178" lon="2.18755">
        <ele>52.3</ele>
        <time>2023-03-29T13:24:03Z</time>
      </trkpt>
      <trkpt lat="49.84179" lon="2.18756">
        <ele>52.3</ele>
        <time>2023-03-29T13:24:04Z</time>
      </trkpt>
      <trkpt lat="49.84179" lon="2.18758">
        <ele>52.3</ele>
        <time>2023-03-29T13:24:05Z</time>
      </trkpt>
      <trkpt lat="49.84179" lon="2.18761">
        <ele>52.3</ele>
        <time>2023-03-29T13:24:07Z</time>
      </trkpt>
      <trkpt lat="49.84179" lon="2.18762">
        <ele>52.3</ele>
        <time>2023-03-29T13:24:08Z</time>
      </trkpt>
      <trkpt lat="49.84179" lon="2.18764">
        <ele>52.3</ele>
        <time>2023-03-29T13:24:09Z</time>
      </trkpt>
      <trkpt lat="49.84179" lon="2.18765">
        <ele>52.3</ele>
        <time>2023-03-29T13:24:10Z</time>
      </trkpt>
      <trkpt lat="49.8418" lon="2.18767">
        <ele>52.3</ele>
        <time>2023-03-29T13:24:11Z</time>
      </trkpt>
      <trkpt lat="49.8418" lon="2.18769">
        <ele>52.3</ele>
        <time>2023-03-29T13:24:12Z</time>
      </trkpt>
      <trkpt lat="49.84179" lon="2.18771">
        <ele>52.3</ele>
        <time>2023-03-29T13:24:13Z</time>
      </trkpt>
      <trkpt lat="49.84179" lon="2.18772">
        <ele>52.3</ele>
        <time>2023-03-29T13:24:14Z</time>
      </trkpt>
      <trkpt lat="49.84179" lon="2.18775">
        <ele>52.3</ele>
        <time>2023-03-29T13:24:16Z</time>
      </trkpt>
      <trkpt lat="49.84179" lon="2.18778">
        <ele>52.3</ele>
        <time>2023-03-29T13:24:17Z</time>
      </trkpt>
      <trkpt lat="49.8418" lon="2.1878">
        <ele>52.3</ele>
        <time>2023-03-29T13:24:18Z</time>
      </trkpt>
      <trkpt lat="49.8418" lon="2.18781">
        <ele>52.3</ele>
        <time>2023-03-29T13:24:19Z</time>
      </trkpt>
      <trkpt lat="49.84181" lon="2.18783">
        <ele>52.3</ele>
        <time>2023-03-29T13:24:20Z</time>
      </trkpt>
      <trkpt lat="49.84182" lon="2.18785">
        <ele>52.3</ele>
        <time>2023-03-29T13:24:21Z</time>
      </trkpt>
      <trkpt lat="49.84182" lon="2.18787">
        <ele>52.3</ele>
        <time>2023-03-29T13:24:23Z</time>
      </trkpt>
      <trkpt lat="49.84183" lon="2.18788">
        <ele>52.3</ele>
        <time>2023-03-29T13:24:24Z</time>
      </trkpt>
      <trkpt lat="49.84184" lon="2.18789">
        <ele>52.3</ele>
        <time>2023-03-29T13:24:25Z</time>
      </trkpt>
      <trkpt lat="49.84185" lon="2.18792">
        <ele>52.3</ele>
        <time>2023-03-29T13:24:27Z</time>
      </trkpt>
      <trkpt lat="49.84185" lon="2.18793">
        <ele>52.3</ele>
        <time>2023-03-29T13:24:28Z</time>
      </trkpt>
      <trkpt lat="49.84186" lon="2.18794">
        <ele>52.3</ele>
        <time>2023-03-29T13:24:29Z</time>
      </trkpt>
      <trkpt lat="49.84186" lon="2.18797">
        <ele>52.3</ele>
        <time>2023-03-29T13:24:30Z</time>
      </trkpt>
      <trkpt lat="49.84186" lon="2.18798">
        <ele>52.3</ele>
        <time>2023-03-29T13:24:32Z</time>
      </trkpt>
      <trkpt lat="49.84186" lon="2.18799">
        <ele>52.3</ele>
        <time>2023-03-29T13:24:33Z</time>
      </trkpt>
      <trkpt lat="49.84186" lon="2.188">
        <ele>52.3</ele>
        <time>2023-03-29T13:24:34Z</time>
      </trkpt>
      <trkpt lat="49.84185" lon="2.18802">
        <ele>52.3</ele>
        <time>2023-03-29T13:24:35Z</time>
      </trkpt>
      <trkpt lat="49.84185" lon="2.18803">
        <ele>52.3</ele>
        <time>2023-03-29T13:24:36Z</time>
      </trkpt>
      <trkpt lat="49.84185" lon="2.18804">
        <ele>52.3</ele>
        <time>2023-03-29T13:24:37Z</time>
      </trkpt>
      <trkpt lat="49.84184" lon="2.18806">
        <ele>52.3</ele>
        <time>2023-03-29T13:24:38Z</time>
      </trkpt>
      <trkpt lat="49.84183" lon="2.18807">
        <ele>52.3</ele>
        <time>2023-03-29T13:24:40Z</time>
      </trkpt>
      <trkpt lat="49.84183" lon="2.18809">
        <ele>52.3</ele>
        <time>2023-03-29T13:24:41Z</time>
      </trkpt>
      <trkpt lat="49.84182" lon="2.1881">
        <ele>52.3</ele>
        <time>2023-03-29T13:24:42Z</time>
      </trkpt>
      <trkpt lat="49.84182" lon="2.18812">
        <ele>52.3</ele>
        <time>2023-03-29T13:24:43Z</time>
      </trkpt>
      <trkpt lat="49.84182" lon="2.18813">
        <ele>52.3</ele>
        <time>2023-03-29T13:24:44Z</time>
      </trkpt>
      <trkpt lat="49.84182" lon="2.18817">
        <ele>52.3</ele>
        <time>2023-03-29T13:24:46Z</time>
      </trkpt>
      <trkpt lat="49.84182" lon="2.18818">
        <ele>52.3</ele>
        <time>2023-03-29T13:24:47Z</time>
      </trkpt>
      <trkpt lat="49.84181" lon="2.1882">
        <ele>52.3</ele>
        <time>2023-03-29T13:24:48Z</time>
      </trkpt>
      <trkpt lat="49.84181" lon="2.18821">
        <ele>52.3</ele>
        <time>2023-03-29T13:24:49Z</time>
      </trkpt>
      <trkpt lat="49.84181" lon="2.18823">
        <ele>52.3</ele>
        <time>2023-03-29T13:24:51Z</time>
      </trkpt>
      <trkpt lat="49.84182" lon="2.18825">
        <ele>52.3</ele>
        <time>2023-03-29T13:24:52Z</time>
      </trkpt>
      <trkpt lat="49.84182" lon="2.18826">
        <ele>52.3</ele>
        <time>2023-03-29T13:24:53Z</time>
      </trkpt>
      <trkpt lat="49.84182" lon="2.18828">
        <ele>52.3</ele>
        <time>2023-03-29T13:24:54Z</time>
      </trkpt>
      <trkpt lat="49.84182" lon="2.18831">
        <ele>52.3</ele>
        <time>2023-03-29T13:24:55Z</time>
      </trkpt>
      <trkpt lat="49.84182" lon="2.18833">
        <ele>52.3</ele>
        <time>2023-03-29T13:24:56Z</time>
      </trkpt>
      <trkpt lat="49.84182" lon="2.18835">
        <ele>52.3</ele>
        <time>2023-03-29T13:24:58Z</time>
      </trkpt>
      <trkpt lat="49.84182" lon="2.18836">
        <ele>52.3</ele>
        <time>2023-03-29T13:24:59Z</time>
      </trkpt>
      <trkpt lat="49.84182" lon="2.1884">
        <ele>52.3</ele>
        <time>2023-03-29T13:25:00Z</time>
      </trkpt>
      <trkpt lat="49.84182" lon="2.18841">
        <ele>52.3</ele>
        <time>2023-03-29T13:25:01Z</time>
      </trkpt>
      <trkpt lat="49.84182" lon="2.18842">
        <ele>52.3</ele>
        <time>2023-03-29T13:25:02Z</time>
      </trkpt>
      <trkpt lat="49.84181" lon="2.18844">
        <ele>52.3</ele>
        <time>2023-03-29T13:25:03Z</time>
      </trkpt>
      <trkpt lat="49.84181" lon="2.18846">
        <ele>52.3</ele>
        <time>2023-03-29T13:25:04Z</time>
      </trkpt>
      <trkpt lat="49.84181" lon="2.18851">
        <ele>52.3</ele>
        <time>2023-03-29T13:25:06Z</time>
      </trkpt>
      <trkpt lat="49.84181" lon="2.18852">
        <ele>52.3</ele>
        <time>2023-03-29T13:25:07Z</time>
      </trkpt>
      <trkpt lat="49.84181" lon="2.18855">
        <ele>52.3</ele>
        <time>2023-03-29T13:25:08Z</time>
      </trkpt>
      <trkpt lat="49.84182" lon="2.18857">
        <ele>52.3</ele>
        <time>2023-03-29T13:25:10Z</time>
      </trkpt>
      <trkpt lat="49.84182" lon="2.18858">
        <ele>52.3</ele>
        <time>2023-03-29T13:25:11Z</time>
      </trkpt>
      <trkpt lat="49.84182" lon="2.1886">
        <ele>52.3</ele>
        <time>2023-03-29T13:25:12Z</time>
      </trkpt>
      <trkpt lat="49.84182" lon="2.18863">
        <ele>52.3</ele>
        <time>2023-03-29T13:25:13Z</time>
      </trkpt>
      <trkpt lat="49.84182" lon="2.18865">
        <ele>52.3</ele>
        <time>2023-03-29T13:25:14Z</time>
      </trkpt>
      <trkpt lat="49.84182" lon="2.18867">
        <ele>52.3</ele>
        <time>2023-03-29T13:25:15Z</time>
      </trkpt>
      <trkpt lat="49.84182" lon="2.18869">
        <ele>52.3</ele>
        <time>2023-03-29T13:25:17Z</time>
      </trkpt>
      <trkpt lat="49.84183" lon="2.18872">
        <ele>52.3</ele>
        <time>2023-03-29T13:25:18Z</time>
      </trkpt>
      <trkpt lat="49.84183" lon="2.18874">
        <ele>52.2</ele>
        <time>2023-03-29T13:25:19Z</time>
      </trkpt>
      <trkpt lat="49.84183" lon="2.18878">
        <ele>52.2</ele>
        <time>2023-03-29T13:25:20Z</time>
      </trkpt>
      <trkpt lat="49.84184" lon="2.18881">
        <ele>52.2</ele>
        <time>2023-03-29T13:25:22Z</time>
      </trkpt>
      <trkpt lat="49.84184" lon="2.18884">
        <ele>52.2</ele>
        <time>2023-03-29T13:25:23Z</time>
      </trkpt>
      <trkpt lat="49.84184" lon="2.18886">
        <ele>52.2</ele>
        <time>2023-03-29T13:25:24Z</time>
      </trkpt>
      <trkpt lat="49.84184" lon="2.18888">
        <ele>52.2</ele>
        <time>2023-03-29T13:25:25Z</time>
      </trkpt>
      <trkpt lat="49.84184" lon="2.1889">
        <ele>52.2</ele>
        <time>2023-03-29T13:25:26Z</time>
      </trkpt>
      <trkpt lat="49.84185" lon="2.18892">
        <ele>52.2</ele>
        <time>2023-03-29T13:25:27Z</time>
      </trkpt>
      <trkpt lat="49.84185" lon="2.18892">
        <ele>52.1</ele>
        <time>2023-03-29T13:25:28Z</time>
      </trkpt>
      <trkpt lat="49.84184" lon="2.18893">
        <ele>52.1</ele>
        <time>2023-03-29T13:25:29Z</time>
      </trkpt>
      <trkpt lat="49.84184" lon="2.18894">
        <ele>52.1</ele>
        <time>2023-03-29T13:25:30Z</time>
      </trkpt>
      <trkpt lat="49.84184" lon="2.18896">
        <ele>52.1</ele>
        <time>2023-03-29T13:25:32Z</time>
      </trkpt>
      <trkpt lat="49.84184" lon="2.18898">
        <ele>52.1</ele>
        <time>2023-03-29T13:25:33Z</time>
      </trkpt>
      <trkpt lat="49.84184" lon="2.18899">
        <ele>52.1</ele>
        <time>2023-03-29T13:25:34Z</time>
      </trkpt>
      <trkpt lat="49.84184" lon="2.18901">
        <ele>52.1</ele>
        <time>2023-03-29T13:25:35Z</time>
      </trkpt>
      <trkpt lat="49.84184" lon="2.18905">
        <ele>52</ele>
        <time>2023-03-29T13:25:36Z</time>
      </trkpt>
      <trkpt lat="49.84184" lon="2.18906">
        <ele>52</ele>
        <time>2023-03-29T13:25:37Z</time>
      </trkpt>
      <trkpt lat="49.84184" lon="2.18907">
        <ele>52</ele>
        <time>2023-03-29T13:25:38Z</time>
      </trkpt>
      <trkpt lat="49.84184" lon="2.18908">
        <ele>52</ele>
        <time>2023-03-29T13:25:39Z</time>
      </trkpt>
      <trkpt lat="49.84185" lon="2.1891">
        <ele>52</ele>
        <time>2023-03-29T13:25:40Z</time>
      </trkpt>
      <trkpt lat="49.84185" lon="2.18912">
        <ele>52</ele>
        <time>2023-03-29T13:25:41Z</time>
      </trkpt>
      <trkpt lat="49.84185" lon="2.18914">
        <ele>52</ele>
        <time>2023-03-29T13:25:42Z</time>
      </trkpt>
      <trkpt lat="49.84185" lon="2.18915">
        <ele>51.9</ele>
        <time>2023-03-29T13:25:44Z</time>
      </trkpt>
      <trkpt lat="49.84186" lon="2.18917">
        <ele>51.9</ele>
        <time>2023-03-29T13:25:45Z</time>
      </trkpt>
      <trkpt lat="49.84186" lon="2.1892">
        <ele>51.9</ele>
        <time>2023-03-29T13:25:46Z</time>
      </trkpt>
      <trkpt lat="49.84186" lon="2.18922">
        <ele>51.9</ele>
        <time>2023-03-29T13:25:47Z</time>
      </trkpt>
      <trkpt lat="49.84186" lon="2.18925">
        <ele>51.8</ele>
        <time>2023-03-29T13:25:48Z</time>
      </trkpt>
      <trkpt lat="49.84186" lon="2.18926">
        <ele>51.8</ele>
        <time>2023-03-29T13:25:49Z</time>
      </trkpt>
      <trkpt lat="49.84186" lon="2.18927">
        <ele>51.8</ele>
        <time>2023-03-29T13:25:50Z</time>
      </trkpt>
      <trkpt lat="49.84187" lon="2.18931">
        <ele>51.8</ele>
        <time>2023-03-29T13:25:52Z</time>
      </trkpt>
      <trkpt lat="49.84187" lon="2.18932">
        <ele>51.8</ele>
        <time>2023-03-29T13:25:53Z</time>
      </trkpt>
      <trkpt lat="49.84188" lon="2.18933">
        <ele>51.7</ele>
        <time>2023-03-29T13:25:54Z</time>
      </trkpt>
      <trkpt lat="49.84188" lon="2.18934">
        <ele>51.7</ele>
        <time>2023-03-29T13:25:55Z</time>
      </trkpt>
      <trkpt lat="49.84189" lon="2.18936">
        <ele>51.7</ele>
        <time>2023-03-29T13:25:56Z</time>
      </trkpt>
      <trkpt lat="49.84189" lon="2.18937">
        <ele>51.7</ele>
        <time>2023-03-29T13:25:57Z</time>
      </trkpt>
      <trkpt lat="49.8419" lon="2.18938">
        <ele>51.7</ele>
        <time>2023-03-29T13:25:59Z</time>
      </trkpt>
      <trkpt lat="49.8419" lon="2.1894">
        <ele>51.7</ele>
        <time>2023-03-29T13:26:00Z</time>
      </trkpt>
      <trkpt lat="49.84191" lon="2.18942">
        <ele>51.6</ele>
        <time>2023-03-29T13:26:01Z</time>
      </trkpt>
      <trkpt lat="49.84192" lon="2.18945">
        <ele>51.6</ele>
        <time>2023-03-29T13:26:02Z</time>
      </trkpt>
      <trkpt lat="49.84193" lon="2.18946">
        <ele>51.6</ele>
        <time>2023-03-29T13:26:03Z</time>
      </trkpt>
      <trkpt lat="49.84194" lon="2.18947">
        <ele>51.6</ele>
        <time>2023-03-29T13:26:04Z</time>
      </trkpt>
      <trkpt lat="49.84195" lon="2.18949">
        <ele>51.5</ele>
        <time>2023-03-29T13:26:05Z</time>
      </trkpt>
      <trkpt lat="49.84196" lon="2.18951">
        <ele>51.5</ele>
        <time>2023-03-29T13:26:06Z</time>
      </trkpt>
      <trkpt lat="49.84197" lon="2.18953">
        <ele>51.5</ele>
        <time>2023-03-29T13:26:07Z</time>
      </trkpt>
      <trkpt lat="49.84198" lon="2.18955">
        <ele>51.5</ele>
        <time>2023-03-29T13:26:09Z</time>
      </trkpt>
      <trkpt lat="49.84198" lon="2.18956">
        <ele>51.4</ele>
        <time>2023-03-29T13:26:10Z</time>
      </trkpt>
      <trkpt lat="49.84199" lon="2.18957">
        <ele>51.4</ele>
        <time>2023-03-29T13:26:11Z</time>
      </trkpt>
      <trkpt lat="49.84201" lon="2.18959">
        <ele>51.4</ele>
        <time>2023-03-29T13:26:12Z</time>
      </trkpt>
      <trkpt lat="49.84202" lon="2.1896">
        <ele>51.4</ele>
        <time>2023-03-29T13:26:13Z</time>
      </trkpt>
      <trkpt lat="49.84203" lon="2.1896">
        <ele>51.4</ele>
        <time>2023-03-29T13:26:14Z</time>
      </trkpt>
      <trkpt lat="49.84204" lon="2.18961">
        <ele>51.3</ele>
        <time>2023-03-29T13:26:15Z</time>
      </trkpt>
      <trkpt lat="49.84206" lon="2.18962">
        <ele>51.3</ele>
        <time>2023-03-29T13:26:17Z</time>
      </trkpt>
      <trkpt lat="49.84207" lon="2.18964">
        <ele>51.3</ele>
        <time>2023-03-29T13:26:18Z</time>
      </trkpt>
      <trkpt lat="49.84208" lon="2.18966">
        <ele>51.3</ele>
        <time>2023-03-29T13:26:19Z</time>
      </trkpt>
      <trkpt lat="49.84209" lon="2.18968">
        <ele>51.3</ele>
        <time>2023-03-29T13:26:20Z</time>
      </trkpt>
      <trkpt lat="49.8421" lon="2.1897">
        <ele>51.3</ele>
        <time>2023-03-29T13:26:21Z</time>
      </trkpt>
      <trkpt lat="49.84211" lon="2.18972">
        <ele>51.3</ele>
        <time>2023-03-29T13:26:22Z</time>
      </trkpt>
      <trkpt lat="49.84212" lon="2.18973">
        <ele>51.2</ele>
        <time>2023-03-29T13:26:23Z</time>
      </trkpt>
      <trkpt lat="49.84213" lon="2.18974">
        <ele>51.2</ele>
        <time>2023-03-29T13:26:24Z</time>
      </trkpt>
      <trkpt lat="49.84213" lon="2.18976">
        <ele>51.2</ele>
        <time>2023-03-29T13:26:26Z</time>
      </trkpt>
      <trkpt lat="49.84214" lon="2.18977">
        <ele>51.2</ele>
        <time>2023-03-29T13:26:27Z</time>
      </trkpt>
      <trkpt lat="49.84215" lon="2.18978">
        <ele>51.2</ele>
        <time>2023-03-29T13:26:28Z</time>
      </trkpt>
      <trkpt lat="49.84216" lon="2.1898">
        <ele>51.2</ele>
        <time>2023-03-29T13:26:29Z</time>
      </trkpt>
      <trkpt lat="49.84217" lon="2.18983">
        <ele>51.2</ele>
        <time>2023-03-29T13:26:30Z</time>
      </trkpt>
      <trkpt lat="49.84218" lon="2.18984">
        <ele>51.2</ele>
        <time>2023-03-29T13:26:31Z</time>
      </trkpt>
      <trkpt lat="49.84219" lon="2.18985">
        <ele>51.2</ele>
        <time>2023-03-29T13:26:33Z</time>
      </trkpt>
      <trkpt lat="49.84219" lon="2.18987">
        <ele>51.2</ele>
        <time>2023-03-29T13:26:34Z</time>
      </trkpt>
      <trkpt lat="49.8422" lon="2.18988">
        <ele>51.2</ele>
        <time>2023-03-29T13:26:35Z</time>
      </trkpt>
      <trkpt lat="49.84221" lon="2.18989">
        <ele>51.2</ele>
        <time>2023-03-29T13:26:36Z</time>
      </trkpt>
      <trkpt lat="49.84222" lon="2.18992">
        <ele>51.3</ele>
        <time>2023-03-29T13:26:37Z</time>
      </trkpt>
      <trkpt lat="49.84223" lon="2.18992">
        <ele>51.3</ele>
        <time>2023-03-29T13:26:38Z</time>
      </trkpt>
      <trkpt lat="49.84223" lon="2.18993">
        <ele>51.3</ele>
        <time>2023-03-29T13:26:39Z</time>
      </trkpt>
      <trkpt lat="49.84224" lon="2.18995">
        <ele>51.3</ele>
        <time>2023-03-29T13:26:40Z</time>
      </trkpt>
      <trkpt lat="49.84225" lon="2.18997">
        <ele>51.3</ele>
        <time>2023-03-29T13:26:41Z</time>
      </trkpt>
      <trkpt lat="49.84226" lon="2.18999">
        <ele>51.3</ele>
        <time>2023-03-29T13:26:43Z</time>
      </trkpt>
      <trkpt lat="49.84227" lon="2.19">
        <ele>51.3</ele>
        <time>2023-03-29T13:26:44Z</time>
      </trkpt>
      <trkpt lat="49.84228" lon="2.19001">
        <ele>51.3</ele>
        <time>2023-03-29T13:26:45Z</time>
      </trkpt>
      <trkpt lat="49.84229" lon="2.19003">
        <ele>51.3</ele>
        <time>2023-03-29T13:26:46Z</time>
      </trkpt>
      <trkpt lat="49.8423" lon="2.19004">
        <ele>51.3</ele>
        <time>2023-03-29T13:26:47Z</time>
      </trkpt>
      <trkpt lat="49.84231" lon="2.19007">
        <ele>51.3</ele>
        <time>2023-03-29T13:26:48Z</time>
      </trkpt>
      <trkpt lat="49.84232" lon="2.19008">
        <ele>51.3</ele>
        <time>2023-03-29T13:26:50Z</time>
      </trkpt>
      <trkpt lat="49.84233" lon="2.19009">
        <ele>51.3</ele>
        <time>2023-03-29T13:26:51Z</time>
      </trkpt>
      <trkpt lat="49.84234" lon="2.19011">
        <ele>51.4</ele>
        <time>2023-03-29T13:26:52Z</time>
      </trkpt>
      <trkpt lat="49.84235" lon="2.19012">
        <ele>51.4</ele>
        <time>2023-03-29T13:26:53Z</time>
      </trkpt>
      <trkpt lat="49.84237" lon="2.19014">
        <ele>51.4</ele>
        <time>2023-03-29T13:26:54Z</time>
      </trkpt>
      <trkpt lat="49.84237" lon="2.19015">
        <ele>51.4</ele>
        <time>2023-03-29T13:26:56Z</time>
      </trkpt>
      <trkpt lat="49.84238" lon="2.19016">
        <ele>51.4</ele>
        <time>2023-03-29T13:26:57Z</time>
      </trkpt>
      <trkpt lat="49.84239" lon="2.19018">
        <ele>51.4</ele>
        <time>2023-03-29T13:26:58Z</time>
      </trkpt>
      <trkpt lat="49.8424" lon="2.19019">
        <ele>51.4</ele>
        <time>2023-03-29T13:26:59Z</time>
      </trkpt>
      <trkpt lat="49.84241" lon="2.19021">
        <ele>51.4</ele>
        <time>2023-03-29T13:27:00Z</time>
      </trkpt>
      <trkpt lat="49.84241" lon="2.19022">
        <ele>51.4</ele>
        <time>2023-03-29T13:27:01Z</time>
      </trkpt>
      <trkpt lat="49.84242" lon="2.19023">
        <ele>51.4</ele>
        <time>2023-03-29T13:27:02Z</time>
      </trkpt>
      <trkpt lat="49.84243" lon="2.19025">
        <ele>51.5</ele>
        <time>2023-03-29T13:27:03Z</time>
      </trkpt>
      <trkpt lat="49.84244" lon="2.19027">
        <ele>51.5</ele>
        <time>2023-03-29T13:27:04Z</time>
      </trkpt>
      <trkpt lat="49.84245" lon="2.19028">
        <ele>51.5</ele>
        <time>2023-03-29T13:27:06Z</time>
      </trkpt>
      <trkpt lat="49.84246" lon="2.19029">
        <ele>51.5</ele>
        <time>2023-03-29T13:27:07Z</time>
      </trkpt>
      <trkpt lat="49.84246" lon="2.1903">
        <ele>51.5</ele>
        <time>2023-03-29T13:27:08Z</time>
      </trkpt>
      <trkpt lat="49.84247" lon="2.19031">
        <ele>51.5</ele>
        <time>2023-03-29T13:27:09Z</time>
      </trkpt>
      <trkpt lat="49.84248" lon="2.19032">
        <ele>51.5</ele>
        <time>2023-03-29T13:27:10Z</time>
      </trkpt>
      <trkpt lat="49.84249" lon="2.19034">
        <ele>51.5</ele>
        <time>2023-03-29T13:27:11Z</time>
      </trkpt>
      <trkpt lat="49.8425" lon="2.19035">
        <ele>51.6</ele>
        <time>2023-03-29T13:27:12Z</time>
      </trkpt>
      <trkpt lat="49.84252" lon="2.19037">
        <ele>51.6</ele>
        <time>2023-03-29T13:27:14Z</time>
      </trkpt>
      <trkpt lat="49.84252" lon="2.19038">
        <ele>51.6</ele>
        <time>2023-03-29T13:27:15Z</time>
      </trkpt>
      <trkpt lat="49.84254" lon="2.1904">
        <ele>51.6</ele>
        <time>2023-03-29T13:27:17Z</time>
      </trkpt>
      <trkpt lat="49.84254" lon="2.19041">
        <ele>51.6</ele>
        <time>2023-03-29T13:27:18Z</time>
      </trkpt>
      <trkpt lat="49.84256" lon="2.19043">
        <ele>51.7</ele>
        <time>2023-03-29T13:27:19Z</time>
      </trkpt>
      <trkpt lat="49.84257" lon="2.19045">
        <ele>51.7</ele>
        <time>2023-03-29T13:27:20Z</time>
      </trkpt>
      <trkpt lat="49.84258" lon="2.19046">
        <ele>51.7</ele>
        <time>2023-03-29T13:27:21Z</time>
      </trkpt>
      <trkpt lat="49.84259" lon="2.19048">
        <ele>51.7</ele>
        <time>2023-03-29T13:27:23Z</time>
      </trkpt>
      <trkpt lat="49.8426" lon="2.19049">
        <ele>51.7</ele>
        <time>2023-03-29T13:27:24Z</time>
      </trkpt>
      <trkpt lat="49.8426" lon="2.1905">
        <ele>51.7</ele>
        <time>2023-03-29T13:27:25Z</time>
      </trkpt>
      <trkpt lat="49.84261" lon="2.19051">
        <ele>51.8</ele>
        <time>2023-03-29T13:27:26Z</time>
      </trkpt>
      <trkpt lat="49.84263" lon="2.19053">
        <ele>51.8</ele>
        <time>2023-03-29T13:27:27Z</time>
      </trkpt>
      <trkpt lat="49.84264" lon="2.19054">
        <ele>51.8</ele>
        <time>2023-03-29T13:27:28Z</time>
      </trkpt>
      <trkpt lat="49.84265" lon="2.19056">
        <ele>51.8</ele>
        <time>2023-03-29T13:27:30Z</time>
      </trkpt>
      <trkpt lat="49.84266" lon="2.19058">
        <ele>51.9</ele>
        <time>2023-03-29T13:27:31Z</time>
      </trkpt>
      <trkpt lat="49.84266" lon="2.1906">
        <ele>51.9</ele>
        <time>2023-03-29T13:27:32Z</time>
      </trkpt>
      <trkpt lat="49.84267" lon="2.19061">
        <ele>51.9</ele>
        <time>2023-03-29T13:27:33Z</time>
      </trkpt>
      <trkpt lat="49.84268" lon="2.19063">
        <ele>51.9</ele>
        <time>2023-03-29T13:27:34Z</time>
      </trkpt>
      <trkpt lat="49.8427" lon="2.19065">
        <ele>52</ele>
        <time>2023-03-29T13:27:35Z</time>
      </trkpt>
      <trkpt lat="49.8427" lon="2.19066">
        <ele>52</ele>
        <time>2023-03-29T13:27:36Z</time>
      </trkpt>
      <trkpt lat="49.84272" lon="2.19068">
        <ele>52</ele>
        <time>2023-03-29T13:27:37Z</time>
      </trkpt>
      <trkpt lat="49.84273" lon="2.19069">
        <ele>52.1</ele>
        <time>2023-03-29T13:27:38Z</time>
      </trkpt>
      <trkpt lat="49.84274" lon="2.1907">
        <ele>52.1</ele>
        <time>2023-03-29T13:27:40Z</time>
      </trkpt>
      <trkpt lat="49.84275" lon="2.19071">
        <ele>52.1</ele>
        <time>2023-03-29T13:27:41Z</time>
      </trkpt>
      <trkpt lat="49.84275" lon="2.19073">
        <ele>52.1</ele>
        <time>2023-03-29T13:27:42Z</time>
      </trkpt>
      <trkpt lat="49.84276" lon="2.19074">
        <ele>52.2</ele>
        <time>2023-03-29T13:27:44Z</time>
      </trkpt>
      <trkpt lat="49.84277" lon="2.19075">
        <ele>52.2</ele>
        <time>2023-03-29T13:27:45Z</time>
      </trkpt>
      <trkpt lat="49.84278" lon="2.19076">
        <ele>52.2</ele>
        <time>2023-03-29T13:27:46Z</time>
      </trkpt>
      <trkpt lat="49.8428" lon="2.19079">
        <ele>52.3</ele>
        <time>2023-03-29T13:27:47Z</time>
      </trkpt>
      <trkpt lat="49.84281" lon="2.1908">
        <ele>52.3</ele>
        <time>2023-03-29T13:27:49Z</time>
      </trkpt>
      <trkpt lat="49.84282" lon="2.19081">
        <ele>52.3</ele>
        <time>2023-03-29T13:27:50Z</time>
      </trkpt>
      <trkpt lat="49.84283" lon="2.19082">
        <ele>52.4</ele>
        <time>2023-03-29T13:27:51Z</time>
      </trkpt>
      <trkpt lat="49.84284" lon="2.19082">
        <ele>52.4</ele>
        <time>2023-03-29T13:27:52Z</time>
      </trkpt>
      <trkpt lat="49.84285" lon="2.19084">
        <ele>52.4</ele>
        <time>2023-03-29T13:27:53Z</time>
      </trkpt>
      <trkpt lat="49.84286" lon="2.19085">
        <ele>52.5</ele>
        <time>2023-03-29T13:27:54Z</time>
      </trkpt>
      <trkpt lat="49.84287" lon="2.19086">
        <ele>52.5</ele>
        <time>2023-03-29T13:27:55Z</time>
      </trkpt>
      <trkpt lat="49.84287" lon="2.19088">
        <ele>52.5</ele>
        <time>2023-03-29T13:27:56Z</time>
      </trkpt>
      <trkpt lat="49.84287" lon="2.19089">
        <ele>52.6</ele>
        <time>2023-03-29T13:27:58Z</time>
      </trkpt>
      <trkpt lat="49.84288" lon="2.1909">
        <ele>52.6</ele>
        <time>2023-03-29T13:27:59Z</time>
      </trkpt>
      <trkpt lat="49.84289" lon="2.19092">
        <ele>52.6</ele>
        <time>2023-03-29T13:28:00Z</time>
      </trkpt>
      <trkpt lat="49.8429" lon="2.19093">
        <ele>52.7</ele>
        <time>2023-03-29T13:28:01Z</time>
      </trkpt>
      <trkpt lat="49.84291" lon="2.19095">
        <ele>52.7</ele>
        <time>2023-03-29T13:28:02Z</time>
      </trkpt>
      <trkpt lat="49.84292" lon="2.19096">
        <ele>52.7</ele>
        <time>2023-03-29T13:28:03Z</time>
      </trkpt>
      <trkpt lat="49.84293" lon="2.19097">
        <ele>52.8</ele>
        <time>2023-03-29T13:28:04Z</time>
      </trkpt>
      <trkpt lat="49.84294" lon="2.19098">
        <ele>52.8</ele>
        <time>2023-03-29T13:28:06Z</time>
      </trkpt>
      <trkpt lat="49.84295" lon="2.191">
        <ele>52.8</ele>
        <time>2023-03-29T13:28:07Z</time>
      </trkpt>
      <trkpt lat="49.84296" lon="2.19102">
        <ele>52.9</ele>
        <time>2023-03-29T13:28:08Z</time>
      </trkpt>
      <trkpt lat="49.84297" lon="2.19103">
        <ele>52.9</ele>
        <time>2023-03-29T13:28:09Z</time>
      </trkpt>
      <trkpt lat="49.84297" lon="2.19104">
        <ele>52.9</ele>
        <time>2023-03-29T13:28:10Z</time>
      </trkpt>
      <trkpt lat="49.84298" lon="2.19106">
        <ele>53</ele>
        <time>2023-03-29T13:28:12Z</time>
      </trkpt>
      <trkpt lat="49.84299" lon="2.19108">
        <ele>53</ele>
        <time>2023-03-29T13:28:13Z</time>
      </trkpt>
      <trkpt lat="49.843" lon="2.19111">
        <ele>53</ele>
        <time>2023-03-29T13:28:14Z</time>
      </trkpt>
      <trkpt lat="49.843" lon="2.19112">
        <ele>53.1</ele>
        <time>2023-03-29T13:28:15Z</time>
      </trkpt>
      <trkpt lat="49.84301" lon="2.19113">
        <ele>53.1</ele>
        <time>2023-03-29T13:28:16Z</time>
      </trkpt>
      <trkpt lat="49.84302" lon="2.19115">
        <ele>53.1</ele>
        <time>2023-03-29T13:28:17Z</time>
      </trkpt>
      <trkpt lat="49.84303" lon="2.19117">
        <ele>53.1</ele>
        <time>2023-03-29T13:28:18Z</time>
      </trkpt>
      <trkpt lat="49.84304" lon="2.19118">
        <ele>53.2</ele>
        <time>2023-03-29T13:28:19Z</time>
      </trkpt>
      <trkpt lat="49.84305" lon="2.1912">
        <ele>53.2</ele>
        <time>2023-03-29T13:28:20Z</time>
      </trkpt>
      <trkpt lat="49.84306" lon="2.19121">
        <ele>53.2</ele>
        <time>2023-03-29T13:28:22Z</time>
      </trkpt>
      <trkpt lat="49.84307" lon="2.19122">
        <ele>53.2</ele>
        <time>2023-03-29T13:28:23Z</time>
      </trkpt>
      <trkpt lat="49.84308" lon="2.19123">
        <ele>53.3</ele>
        <time>2023-03-29T13:28:24Z</time>
      </trkpt>
      <trkpt lat="49.84309" lon="2.19125">
        <ele>53.3</ele>
        <time>2023-03-29T13:28:25Z</time>
      </trkpt>
      <trkpt lat="49.8431" lon="2.19126">
        <ele>53.3</ele>
        <time>2023-03-29T13:28:27Z</time>
      </trkpt>
      <trkpt lat="49.84311" lon="2.19127">
        <ele>53.3</ele>
        <time>2023-03-29T13:28:28Z</time>
      </trkpt>
      <trkpt lat="49.84312" lon="2.19129">
        <ele>53.3</ele>
        <time>2023-03-29T13:28:29Z</time>
      </trkpt>
      <trkpt lat="49.84314" lon="2.1913">
        <ele>53.4</ele>
        <time>2023-03-29T13:28:31Z</time>
      </trkpt>
      <trkpt lat="49.84314" lon="2.19131">
        <ele>53.4</ele>
        <time>2023-03-29T13:28:32Z</time>
      </trkpt>
      <trkpt lat="49.84315" lon="2.19131">
        <ele>53.4</ele>
        <time>2023-03-29T13:28:33Z</time>
      </trkpt>
      <trkpt lat="49.84315" lon="2.19132">
        <ele>53.4</ele>
        <time>2023-03-29T13:28:34Z</time>
      </trkpt>
      <trkpt lat="49.84315" lon="2.19133">
        <ele>53.4</ele>
        <time>2023-03-29T13:28:35Z</time>
      </trkpt>
      <trkpt lat="49.84315" lon="2.19134">
        <ele>53.4</ele>
        <time>2023-03-29T13:28:36Z</time>
      </trkpt>
      <trkpt lat="49.84316" lon="2.19135">
        <ele>53.4</ele>
        <time>2023-03-29T13:28:37Z</time>
      </trkpt>
      <trkpt lat="49.84318" lon="2.19136">
        <ele>53.4</ele>
        <time>2023-03-29T13:28:38Z</time>
      </trkpt>
      <trkpt lat="49.84318" lon="2.19137">
        <ele>53.4</ele>
        <time>2023-03-29T13:28:39Z</time>
      </trkpt>
      <trkpt lat="49.84319" lon="2.19138">
        <ele>53.4</ele>
        <time>2023-03-29T13:28:40Z</time>
      </trkpt>
      <trkpt lat="49.8432" lon="2.1914">
        <ele>53.4</ele>
        <time>2023-03-29T13:28:42Z</time>
      </trkpt>
      <trkpt lat="49.8432" lon="2.19141">
        <ele>53.4</ele>
        <time>2023-03-29T13:28:43Z</time>
      </trkpt>
      <trkpt lat="49.84321" lon="2.19143">
        <ele>53.4</ele>
        <time>2023-03-29T13:28:44Z</time>
      </trkpt>
      <trkpt lat="49.84322" lon="2.19144">
        <ele>53.4</ele>
        <time>2023-03-29T13:28:45Z</time>
      </trkpt>
      <trkpt lat="49.84322" lon="2.19146">
        <ele>53.4</ele>
        <time>2023-03-29T13:28:46Z</time>
      </trkpt>
      <trkpt lat="49.84323" lon="2.19146">
        <ele>53.4</ele>
        <time>2023-03-29T13:28:47Z</time>
      </trkpt>
      <trkpt lat="49.84323" lon="2.19147">
        <ele>53.4</ele>
        <time>2023-03-29T13:28:48Z</time>
      </trkpt>
      <trkpt lat="49.84324" lon="2.19148">
        <ele>53.4</ele>
        <time>2023-03-29T13:28:49Z</time>
      </trkpt>
      <trkpt lat="49.84325" lon="2.19149">
        <ele>53.4</ele>
        <time>2023-03-29T13:28:50Z</time>
      </trkpt>
      <trkpt lat="49.84327" lon="2.19151">
        <ele>53.4</ele>
        <time>2023-03-29T13:28:51Z</time>
      </trkpt>
      <trkpt lat="49.84327" lon="2.19152">
        <ele>53.4</ele>
        <time>2023-03-29T13:28:53Z</time>
      </trkpt>
      <trkpt lat="49.84328" lon="2.19153">
        <ele>53.4</ele>
        <time>2023-03-29T13:28:54Z</time>
      </trkpt>
      <trkpt lat="49.84329" lon="2.19155">
        <ele>53.4</ele>
        <time>2023-03-29T13:28:55Z</time>
      </trkpt>
      <trkpt lat="49.8433" lon="2.19156">
        <ele>53.4</ele>
        <time>2023-03-29T13:28:56Z</time>
      </trkpt>
      <trkpt lat="49.84331" lon="2.19157">
        <ele>53.3</ele>
        <time>2023-03-29T13:28:57Z</time>
      </trkpt>
      <trkpt lat="49.84332" lon="2.19159">
        <ele>53.3</ele>
        <time>2023-03-29T13:28:58Z</time>
      </trkpt>
      <trkpt lat="49.84333" lon="2.19161">
        <ele>53.3</ele>
        <time>2023-03-29T13:28:59Z</time>
      </trkpt>
      <trkpt lat="49.84333" lon="2.19162">
        <ele>53.3</ele>
        <time>2023-03-29T13:29:00Z</time>
      </trkpt>
      <trkpt lat="49.84336" lon="2.19165">
        <ele>53.3</ele>
        <time>2023-03-29T13:29:01Z</time>
      </trkpt>
      <trkpt lat="49.84336" lon="2.19166">
        <ele>53.2</ele>
        <time>2023-03-29T13:29:02Z</time>
      </trkpt>
      <trkpt lat="49.84338" lon="2.19167">
        <ele>53.2</ele>
        <time>2023-03-29T13:29:03Z</time>
      </trkpt>
      <trkpt lat="49.84339" lon="2.19169">
        <ele>53.2</ele>
        <time>2023-03-29T13:29:05Z</time>
      </trkpt>
      <trkpt lat="49.8434" lon="2.1917">
        <ele>53.2</ele>
        <time>2023-03-29T13:29:06Z</time>
      </trkpt>
      <trkpt lat="49.84341" lon="2.19172">
        <ele>53.2</ele>
        <time>2023-03-29T13:29:07Z</time>
      </trkpt>
      <trkpt lat="49.84343" lon="2.19175">
        <ele>53.1</ele>
        <time>2023-03-29T13:29:08Z</time>
      </trkpt>
      <trkpt lat="49.84344" lon="2.19176">
        <ele>53.1</ele>
        <time>2023-03-29T13:29:09Z</time>
      </trkpt>
      <trkpt lat="49.84345" lon="2.19178">
        <ele>53.1</ele>
        <time>2023-03-29T13:29:10Z</time>
      </trkpt>
      <trkpt lat="49.84346" lon="2.19179">
        <ele>53.1</ele>
        <time>2023-03-29T13:29:12Z</time>
      </trkpt>
      <trkpt lat="49.84347" lon="2.19181">
        <ele>53</ele>
        <time>2023-03-29T13:29:13Z</time>
      </trkpt>
      <trkpt lat="49.84348" lon="2.19183">
        <ele>53</ele>
        <time>2023-03-29T13:29:14Z</time>
      </trkpt>
      <trkpt lat="49.84349" lon="2.19185">
        <ele>53</ele>
        <time>2023-03-29T13:29:15Z</time>
      </trkpt>
      <trkpt lat="49.8435" lon="2.19187">
        <ele>53</ele>
        <time>2023-03-29T13:29:16Z</time>
      </trkpt>
      <trkpt lat="49.84351" lon="2.19189">
        <ele>52.9</ele>
        <time>2023-03-29T13:29:17Z</time>
      </trkpt>
      <trkpt lat="49.84352" lon="2.1919">
        <ele>52.9</ele>
        <time>2023-03-29T13:29:18Z</time>
      </trkpt>
      <trkpt lat="49.84352" lon="2.19191">
        <ele>52.9</ele>
        <time>2023-03-29T13:29:19Z</time>
      </trkpt>
      <trkpt lat="49.84353" lon="2.19193">
        <ele>52.9</ele>
        <time>2023-03-29T13:29:20Z</time>
      </trkpt>
      <trkpt lat="49.84354" lon="2.19194">
        <ele>52.9</ele>
        <time>2023-03-29T13:29:21Z</time>
      </trkpt>
      <trkpt lat="49.84354" lon="2.19195">
        <ele>52.9</ele>
        <time>2023-03-29T13:29:22Z</time>
      </trkpt>
      <trkpt lat="49.84356" lon="2.19198">
        <ele>52.8</ele>
        <time>2023-03-29T13:29:23Z</time>
      </trkpt>
      <trkpt lat="49.84356" lon="2.19199">
        <ele>52.8</ele>
        <time>2023-03-29T13:29:25Z</time>
      </trkpt>
      <trkpt lat="49.84357" lon="2.192">
        <ele>52.8</ele>
        <time>2023-03-29T13:29:26Z</time>
      </trkpt>
      <trkpt lat="49.84358" lon="2.19203">
        <ele>52.8</ele>
        <time>2023-03-29T13:29:27Z</time>
      </trkpt>
      <trkpt lat="49.84359" lon="2.19204">
        <ele>52.8</ele>
        <time>2023-03-29T13:29:28Z</time>
      </trkpt>
      <trkpt lat="49.84359" lon="2.19205">
        <ele>52.8</ele>
        <time>2023-03-29T13:29:29Z</time>
      </trkpt>
      <trkpt lat="49.8436" lon="2.19207">
        <ele>52.8</ele>
        <time>2023-03-29T13:29:31Z</time>
      </trkpt>
      <trkpt lat="49.84361" lon="2.19208">
        <ele>52.7</ele>
        <time>2023-03-29T13:29:32Z</time>
      </trkpt>
      <trkpt lat="49.84363" lon="2.1921">
        <ele>52.7</ele>
        <time>2023-03-29T13:29:33Z</time>
      </trkpt>
      <trkpt lat="49.84364" lon="2.19211">
        <ele>52.7</ele>
        <time>2023-03-29T13:29:34Z</time>
      </trkpt>
      <trkpt lat="49.84364" lon="2.19211">
        <ele>52.7</ele>
        <time>2023-03-29T13:29:35Z</time>
      </trkpt>
      <trkpt lat="49.84365" lon="2.19213">
        <ele>52.7</ele>
        <time>2023-03-29T13:29:36Z</time>
      </trkpt>
      <trkpt lat="49.84366" lon="2.19214">
        <ele>52.7</ele>
        <time>2023-03-29T13:29:37Z</time>
      </trkpt>
      <trkpt lat="49.84368" lon="2.19216">
        <ele>52.7</ele>
        <time>2023-03-29T13:29:38Z</time>
      </trkpt>
      <trkpt lat="49.84368" lon="2.19218">
        <ele>52.7</ele>
        <time>2023-03-29T13:29:39Z</time>
      </trkpt>
      <trkpt lat="49.8437" lon="2.1922">
        <ele>52.6</ele>
        <time>2023-03-29T13:29:40Z</time>
      </trkpt>
      <trkpt lat="49.8437" lon="2.19221">
        <ele>52.6</ele>
        <time>2023-03-29T13:29:41Z</time>
      </trkpt>
      <trkpt lat="49.84371" lon="2.19222">
        <ele>52.6</ele>
        <time>2023-03-29T13:29:42Z</time>
      </trkpt>
      <trkpt lat="49.84372" lon="2.19225">
        <ele>52.6</ele>
        <time>2023-03-29T13:29:44Z</time>
      </trkpt>
      <trkpt lat="49.84373" lon="2.19225">
        <ele>52.6</ele>
        <time>2023-03-29T13:29:45Z</time>
      </trkpt>
      <trkpt lat="49.84374" lon="2.19226">
        <ele>52.6</ele>
        <time>2023-03-29T13:29:46Z</time>
      </trkpt>
      <trkpt lat="49.84375" lon="2.19229">
        <ele>52.6</ele>
        <time>2023-03-29T13:29:47Z</time>
      </trkpt>
      <trkpt lat="49.84376" lon="2.19229">
        <ele>52.6</ele>
        <time>2023-03-29T13:29:48Z</time>
      </trkpt>
      <trkpt lat="49.84377" lon="2.1923">
        <ele>52.6</ele>
        <time>2023-03-29T13:29:49Z</time>
      </trkpt>
      <trkpt lat="49.84377" lon="2.19231">
        <ele>52.6</ele>
        <time>2023-03-29T13:29:51Z</time>
      </trkpt>
      <trkpt lat="49.84378" lon="2.19232">
        <ele>52.6</ele>
        <time>2023-03-29T13:29:52Z</time>
      </trkpt>
      <trkpt lat="49.84379" lon="2.19234">
        <ele>52.6</ele>
        <time>2023-03-29T13:29:53Z</time>
      </trkpt>
      <trkpt lat="49.84381" lon="2.19236">
        <ele>52.6</ele>
        <time>2023-03-29T13:29:54Z</time>
      </trkpt>
      <trkpt lat="49.84381" lon="2.19237">
        <ele>52.6</ele>
        <time>2023-03-29T13:29:55Z</time>
      </trkpt>
      <trkpt lat="49.84382" lon="2.19238">
        <ele>52.6</ele>
        <time>2023-03-29T13:29:56Z</time>
      </trkpt>
      <trkpt lat="49.84383" lon="2.19239">
        <ele>52.6</ele>
        <time>2023-03-29T13:29:57Z</time>
      </trkpt>
      <trkpt lat="49.84384" lon="2.1924">
        <ele>52.6</ele>
        <time>2023-03-29T13:29:58Z</time>
      </trkpt>
      <trkpt lat="49.84384" lon="2.19242">
        <ele>52.6</ele>
        <time>2023-03-29T13:30:00Z</time>
      </trkpt>
      <trkpt lat="49.84386" lon="2.19244">
        <ele>52.6</ele>
        <time>2023-03-29T13:30:01Z</time>
      </trkpt>
      <trkpt lat="49.84386" lon="2.19245">
        <ele>52.6</ele>
        <time>2023-03-29T13:30:02Z</time>
      </trkpt>
      <trkpt lat="49.84387" lon="2.19246">
        <ele>52.6</ele>
        <time>2023-03-29T13:30:03Z</time>
      </trkpt>
      <trkpt lat="49.84388" lon="2.19248">
        <ele>52.6</ele>
        <time>2023-03-29T13:30:04Z</time>
      </trkpt>
      <trkpt lat="49.84388" lon="2.19249">
        <ele>52.6</ele>
        <time>2023-03-29T13:30:05Z</time>
      </trkpt>
      <trkpt lat="49.84389" lon="2.1925">
        <ele>52.6</ele>
        <time>2023-03-29T13:30:07Z</time>
      </trkpt>
      <trkpt lat="49.8439" lon="2.19251">
        <ele>52.6</ele>
        <time>2023-03-29T13:30:08Z</time>
      </trkpt>
      <trkpt lat="49.8439" lon="2.19253">
        <ele>52.6</ele>
        <time>2023-03-29T13:30:09Z</time>
      </trkpt>
      <trkpt lat="49.84391" lon="2.19254">
        <ele>52.6</ele>
        <time>2023-03-29T13:30:10Z</time>
      </trkpt>
      <trkpt lat="49.84393" lon="2.19256">
        <ele>52.6</ele>
        <time>2023-03-29T13:30:12Z</time>
      </trkpt>
      <trkpt lat="49.84394" lon="2.19257">
        <ele>52.6</ele>
        <time>2023-03-29T13:30:14Z</time>
      </trkpt>
      <trkpt lat="49.84395" lon="2.19257">
        <ele>52.6</ele>
        <time>2023-03-29T13:30:16Z</time>
      </trkpt>
      <trkpt lat="49.84396" lon="2.19258">
        <ele>52.6</ele>
        <time>2023-03-29T13:30:17Z</time>
      </trkpt>
      <trkpt lat="49.84397" lon="2.19257">
        <ele>52.6</ele>
        <time>2023-03-29T13:30:18Z</time>
      </trkpt>
      <trkpt lat="49.84398" lon="2.19257">
        <ele>52.6</ele>
        <time>2023-03-29T13:30:20Z</time>
      </trkpt>
      <trkpt lat="49.84397" lon="2.19257">
        <ele>52.6</ele>
        <time>2023-03-29T13:30:21Z</time>
      </trkpt>
      <trkpt lat="49.84397" lon="2.19257">
        <ele>52.6</ele>
        <time>2023-03-29T13:30:23Z</time>
      </trkpt>
      <trkpt lat="49.84397" lon="2.19257">
        <ele>52.6</ele>
        <time>2023-03-29T13:30:24Z</time>
      </trkpt>
      <trkpt lat="49.84397" lon="2.19257">
        <ele>52.6</ele>
        <time>2023-03-29T13:30:26Z</time>
      </trkpt>
      <trkpt lat="49.84397" lon="2.19257">
        <ele>52.6</ele>
        <time>2023-03-29T13:30:27Z</time>
      </trkpt>
      <trkpt lat="49.84397" lon="2.19257">
        <ele>52.6</ele>
        <time>2023-03-29T13:30:28Z</time>
      </trkpt>
      <trkpt lat="49.84397" lon="2.19257">
        <ele>52.6</ele>
        <time>2023-03-29T13:30:30Z</time>
      </trkpt>
      <trkpt lat="49.84397" lon="2.19257">
        <ele>52.6</ele>
        <time>2023-03-29T13:30:31Z</time>
      </trkpt>
      <trkpt lat="49.84397" lon="2.19257">
        <ele>52.6</ele>
        <time>2023-03-29T13:30:33Z</time>
      </trkpt>
      <trkpt lat="49.84397" lon="2.19257">
        <ele>52.6</ele>
        <time>2023-03-29T13:30:34Z</time>
      </trkpt>
      <trkpt lat="49.84396" lon="2.19257">
        <ele>52.6</ele>
        <time>2023-03-29T13:30:35Z</time>
      </trkpt>
      <trkpt lat="49.84396" lon="2.19257">
        <ele>52.5</ele>
        <time>2023-03-29T13:30:36Z</time>
      </trkpt>
      <trkpt lat="49.84396" lon="2.19257">
        <ele>52.5</ele>
        <time>2023-03-29T13:30:37Z</time>
      </trkpt>
      <trkpt lat="49.84396" lon="2.19256">
        <ele>52.5</ele>
        <time>2023-03-29T13:30:38Z</time>
      </trkpt>
      <trkpt lat="49.84396" lon="2.19256">
        <ele>52.5</ele>
        <time>2023-03-29T13:30:39Z</time>
      </trkpt>
      <trkpt lat="49.84396" lon="2.19256">
        <ele>52.5</ele>
        <time>2023-03-29T13:30:40Z</time>
      </trkpt>
      <trkpt lat="49.84396" lon="2.19256">
        <ele>52.5</ele>
        <time>2023-03-29T13:30:41Z</time>
      </trkpt>
      <trkpt lat="49.84396" lon="2.19256">
        <ele>52.5</ele>
        <time>2023-03-29T13:30:42Z</time>
      </trkpt>
      <trkpt lat="49.84396" lon="2.19256">
        <ele>52.5</ele>
        <time>2023-03-29T13:30:43Z</time>
      </trkpt>
      <trkpt lat="49.84396" lon="2.19256">
        <ele>52.5</ele>
        <time>2023-03-29T13:30:44Z</time>
      </trkpt>
      <trkpt lat="49.84396" lon="2.19256">
        <ele>52.5</ele>
        <time>2023-03-29T13:30:45Z</time>
      </trkpt>
      <trkpt lat="49.84396" lon="2.19256">
        <ele>52.5</ele>
        <time>2023-03-29T13:30:46Z</time>
      </trkpt>
      <trkpt lat="49.84395" lon="2.19255">
        <ele>52.5</ele>
        <time>2023-03-29T13:30:47Z</time>
      </trkpt>
      <trkpt lat="49.84394" lon="2.19255">
        <ele>52.5</ele>
        <time>2023-03-29T13:30:48Z</time>
      </trkpt>
      <trkpt lat="49.84394" lon="2.19256">
        <ele>52.5</ele>
        <time>2023-03-29T13:30:49Z</time>
      </trkpt>
      <trkpt lat="49.84394" lon="2.19256">
        <ele>52.5</ele>
        <time>2023-03-29T13:30:50Z</time>
      </trkpt>
      <trkpt lat="49.84394" lon="2.19256">
        <ele>52.5</ele>
        <time>2023-03-29T13:30:51Z</time>
      </trkpt>
      <trkpt lat="49.84394" lon="2.19256">
        <ele>52.5</ele>
        <time>2023-03-29T13:30:52Z</time>
      </trkpt>
      <trkpt lat="49.84394" lon="2.19257">
        <ele>52.4</ele>
        <time>2023-03-29T13:30:54Z</time>
      </trkpt>
      <trkpt lat="49.84394" lon="2.19257">
        <ele>52.4</ele>
        <time>2023-03-29T13:30:55Z</time>
      </trkpt>
      <trkpt lat="49.84394" lon="2.19258">
        <ele>52.4</ele>
        <time>2023-03-29T13:30:56Z</time>
      </trkpt>
      <trkpt lat="49.84394" lon="2.19259">
        <ele>52.4</ele>
        <time>2023-03-29T13:30:58Z</time>
      </trkpt>
      <trkpt lat="49.84394" lon="2.1926">
        <ele>52.4</ele>
        <time>2023-03-29T13:30:59Z</time>
      </trkpt>
      <trkpt lat="49.84394" lon="2.19261">
        <ele>52.4</ele>
        <time>2023-03-29T13:31:00Z</time>
      </trkpt>
      <trkpt lat="49.84394" lon="2.19263">
        <ele>52.3</ele>
        <time>2023-03-29T13:31:01Z</time>
      </trkpt>
      <trkpt lat="49.84394" lon="2.19265">
        <ele>52.3</ele>
        <time>2023-03-29T13:31:02Z</time>
      </trkpt>
      <trkpt lat="49.84393" lon="2.19267">
        <ele>52.3</ele>
        <time>2023-03-29T13:31:04Z</time>
      </trkpt>
      <trkpt lat="49.84393" lon="2.19267">
        <ele>52.2</ele>
        <time>2023-03-29T13:31:06Z</time>
      </trkpt>
      <trkpt lat="49.84393" lon="2.19267">
        <ele>52.2</ele>
        <time>2023-03-29T13:31:07Z</time>
      </trkpt>
      <trkpt lat="49.84393" lon="2.19266">
        <ele>52.2</ele>
        <time>2023-03-29T13:31:08Z</time>
      </trkpt>
      <trkpt lat="49.84393" lon="2.19266">
        <ele>52.2</ele>
        <time>2023-03-29T13:31:10Z</time>
      </trkpt>
      <trkpt lat="49.84393" lon="2.19266">
        <ele>52.2</ele>
        <time>2023-03-29T13:31:11Z</time>
      </trkpt>
      <trkpt lat="49.84393" lon="2.19266">
        <ele>52.2</ele>
        <time>2023-03-29T13:31:12Z</time>
      </trkpt>
      <trkpt lat="49.84393" lon="2.19266">
        <ele>52.2</ele>
        <time>2023-03-29T13:31:14Z</time>
      </trkpt>
      <trkpt lat="49.84393" lon="2.19265">
        <ele>52.2</ele>
        <time>2023-03-29T13:31:15Z</time>
      </trkpt>
      <trkpt lat="49.84392" lon="2.19265">
        <ele>52.2</ele>
        <time>2023-03-29T13:31:16Z</time>
      </trkpt>
      <trkpt lat="49.84392" lon="2.19265">
        <ele>52.2</ele>
        <time>2023-03-29T13:31:17Z</time>
      </trkpt>
      <trkpt lat="49.84392" lon="2.19265">
        <ele>52.2</ele>
        <time>2023-03-29T13:31:18Z</time>
      </trkpt>
      <trkpt lat="49.84392" lon="2.19264">
        <ele>52.2</ele>
        <time>2023-03-29T13:31:19Z</time>
      </trkpt>
      <trkpt lat="49.84392" lon="2.19264">
        <ele>52.2</ele>
        <time>2023-03-29T13:31:20Z</time>
      </trkpt>
      <trkpt lat="49.84392" lon="2.19264">
        <ele>52.2</ele>
        <time>2023-03-29T13:31:21Z</time>
      </trkpt>
      <trkpt lat="49.84392" lon="2.19264">
        <ele>52.2</ele>
        <time>2023-03-29T13:31:22Z</time>
      </trkpt>
      <trkpt lat="49.84392" lon="2.19263">
        <ele>52.2</ele>
        <time>2023-03-29T13:31:23Z</time>
      </trkpt>
      <trkpt lat="49.84392" lon="2.19263">
        <ele>52.2</ele>
        <time>2023-03-29T13:31:24Z</time>
      </trkpt>
      <trkpt lat="49.84392" lon="2.19263">
        <ele>52.2</ele>
        <time>2023-03-29T13:31:25Z</time>
      </trkpt>
      <trkpt lat="49.84392" lon="2.19263">
        <ele>52.2</ele>
        <time>2023-03-29T13:31:26Z</time>
      </trkpt>
      <trkpt lat="49.84392" lon="2.19262">
        <ele>52.2</ele>
        <time>2023-03-29T13:31:27Z</time>
      </trkpt>
      <trkpt lat="49.84392" lon="2.19262">
        <ele>52.2</ele>
        <time>2023-03-29T13:31:28Z</time>
      </trkpt>
      <trkpt lat="49.84392" lon="2.19262">
        <ele>52.2</ele>
        <time>2023-03-29T13:31:29Z</time>
      </trkpt>
      <trkpt lat="49.84392" lon="2.19262">
        <ele>52.2</ele>
        <time>2023-03-29T13:31:30Z</time>
      </trkpt>
      <trkpt lat="49.84392" lon="2.19262">
        <ele>52.2</ele>
        <time>2023-03-29T13:31:31Z</time>
      </trkpt>
      <trkpt lat="49.84392" lon="2.19261">
        <ele>52.2</ele>
        <time>2023-03-29T13:31:32Z</time>
      </trkpt>
      <trkpt lat="49.84392" lon="2.19261">
        <ele>52.2</ele>
        <time>2023-03-29T13:31:33Z</time>
      </trkpt>
      <trkpt lat="49.84392" lon="2.19261">
        <ele>52.2</ele>
        <time>2023-03-29T13:31:34Z</time>
      </trkpt>
      <trkpt lat="49.84392" lon="2.19261">
        <ele>52.2</ele>
        <time>2023-03-29T13:31:35Z</time>
      </trkpt>
      <trkpt lat="49.84392" lon="2.1926">
        <ele>52.2</ele>
        <time>2023-03-29T13:31:36Z</time>
      </trkpt>
      <trkpt lat="49.84392" lon="2.1926">
        <ele>52.1</ele>
        <time>2023-03-29T13:31:37Z</time>
      </trkpt>
      <trkpt lat="49.84392" lon="2.1926">
        <ele>52.1</ele>
        <time>2023-03-29T13:31:38Z</time>
      </trkpt>
      <trkpt lat="49.84392" lon="2.1926">
        <ele>52.1</ele>
        <time>2023-03-29T13:31:39Z</time>
      </trkpt>
      <trkpt lat="49.84392" lon="2.1926">
        <ele>52.1</ele>
        <time>2023-03-29T13:31:40Z</time>
      </trkpt>
      <trkpt lat="49.84391" lon="2.19261">
        <ele>52.1</ele>
        <time>2023-03-29T13:31:41Z</time>
      </trkpt>
      <trkpt lat="49.84391" lon="2.19262">
        <ele>52.1</ele>
        <time>2023-03-29T13:31:42Z</time>
      </trkpt>
      <trkpt lat="49.8439" lon="2.19264">
        <ele>52.1</ele>
        <time>2023-03-29T13:31:44Z</time>
      </trkpt>
      <trkpt lat="49.84389" lon="2.19266">
        <ele>52</ele>
        <time>2023-03-29T13:31:45Z</time>
      </trkpt>
      <trkpt lat="49.84389" lon="2.19268">
        <ele>52</ele>
        <time>2023-03-29T13:31:46Z</time>
      </trkpt>
      <trkpt lat="49.84388" lon="2.1927">
        <ele>52</ele>
        <time>2023-03-29T13:31:47Z</time>
      </trkpt>
      <trkpt lat="49.84387" lon="2.19271">
        <ele>51.9</ele>
        <time>2023-03-29T13:31:48Z</time>
      </trkpt>
      <trkpt lat="49.84387" lon="2.19273">
        <ele>51.9</ele>
        <time>2023-03-29T13:31:50Z</time>
      </trkpt>
      <trkpt lat="49.84386" lon="2.19275">
        <ele>51.9</ele>
        <time>2023-03-29T13:31:51Z</time>
      </trkpt>
      <trkpt lat="49.84385" lon="2.19276">
        <ele>51.9</ele>
        <time>2023-03-29T13:31:52Z</time>
      </trkpt>
      <trkpt lat="49.84384" lon="2.19275">
        <ele>51.9</ele>
        <time>2023-03-29T13:31:53Z</time>
      </trkpt>
      <trkpt lat="49.84384" lon="2.19274">
        <ele>51.9</ele>
        <time>2023-03-29T13:31:54Z</time>
      </trkpt>
      <trkpt lat="49.84383" lon="2.19274">
        <ele>51.8</ele>
        <time>2023-03-29T13:31:55Z</time>
      </trkpt>
      <trkpt lat="49.84381" lon="2.19275">
        <ele>51.8</ele>
        <time>2023-03-29T13:31:56Z</time>
      </trkpt>
      <trkpt lat="49.84381" lon="2.19276">
        <ele>51.8</ele>
        <time>2023-03-29T13:31:57Z</time>
      </trkpt>
      <trkpt lat="49.84379" lon="2.19277">
        <ele>51.8</ele>
        <time>2023-03-29T13:31:59Z</time>
      </trkpt>
      <trkpt lat="49.84378" lon="2.19278">
        <ele>51.7</ele>
        <time>2023-03-29T13:32:00Z</time>
      </trkpt>
      <trkpt lat="49.84376" lon="2.1928">
        <ele>51.7</ele>
        <time>2023-03-29T13:32:01Z</time>
      </trkpt>
      <trkpt lat="49.84375" lon="2.1928">
        <ele>51.7</ele>
        <time>2023-03-29T13:32:02Z</time>
      </trkpt>
      <trkpt lat="49.84374" lon="2.19281">
        <ele>51.7</ele>
        <time>2023-03-29T13:32:04Z</time>
      </trkpt>
      <trkpt lat="49.84373" lon="2.19282">
        <ele>51.7</ele>
        <time>2023-03-29T13:32:05Z</time>
      </trkpt>
      <trkpt lat="49.84372" lon="2.19282">
        <ele>51.7</ele>
        <time>2023-03-29T13:32:06Z</time>
      </trkpt>
      <trkpt lat="49.84371" lon="2.19283">
        <ele>51.7</ele>
        <time>2023-03-29T13:32:07Z</time>
      </trkpt>
      <trkpt lat="49.8437" lon="2.19284">
        <ele>51.6</ele>
        <time>2023-03-29T13:32:08Z</time>
      </trkpt>
      <trkpt lat="49.84369" lon="2.19285">
        <ele>51.6</ele>
        <time>2023-03-29T13:32:09Z</time>
      </trkpt>
      <trkpt lat="49.84367" lon="2.19286">
        <ele>51.6</ele>
        <time>2023-03-29T13:32:11Z</time>
      </trkpt>
      <trkpt lat="49.84366" lon="2.19286">
        <ele>51.6</ele>
        <time>2023-03-29T13:32:12Z</time>
      </trkpt>
      <trkpt lat="49.84365" lon="2.19287">
        <ele>51.6</ele>
        <time>2023-03-29T13:32:13Z</time>
      </trkpt>
      <trkpt lat="49.84362" lon="2.19289">
        <ele>51.5</ele>
        <time>2023-03-29T13:32:15Z</time>
      </trkpt>
      <trkpt lat="49.84361" lon="2.19289">
        <ele>51.5</ele>
        <time>2023-03-29T13:32:16Z</time>
      </trkpt>
      <trkpt lat="49.84359" lon="2.19291">
        <ele>51.5</ele>
        <time>2023-03-29T13:32:17Z</time>
      </trkpt>
      <trkpt lat="49.84358" lon="2.19292">
        <ele>51.5</ele>
        <time>2023-03-29T13:32:18Z</time>
      </trkpt>
      <trkpt lat="49.84356" lon="2.19293">
        <ele>51.4</ele>
        <time>2023-03-29T13:32:19Z</time>
      </trkpt>
      <trkpt lat="49.84355" lon="2.19294">
        <ele>51.4</ele>
        <time>2023-03-29T13:32:20Z</time>
      </trkpt>
      <trkpt lat="49.84354" lon="2.19294">
        <ele>51.4</ele>
        <time>2023-03-29T13:32:21Z</time>
      </trkpt>
      <trkpt lat="49.84353" lon="2.19295">
        <ele>51.4</ele>
        <time>2023-03-29T13:32:23Z</time>
      </trkpt>
      <trkpt lat="49.84352" lon="2.19296">
        <ele>51.4</ele>
        <time>2023-03-29T13:32:24Z</time>
      </trkpt>
      <trkpt lat="49.84351" lon="2.19297">
        <ele>51.4</ele>
        <time>2023-03-29T13:32:25Z</time>
      </trkpt>
      <trkpt lat="49.8435" lon="2.19298">
        <ele>51.4</ele>
        <time>2023-03-29T13:32:26Z</time>
      </trkpt>
      <trkpt lat="49.84349" lon="2.19299">
        <ele>51.4</ele>
        <time>2023-03-29T13:32:27Z</time>
      </trkpt>
      <trkpt lat="49.84348" lon="2.193">
        <ele>51.3</ele>
        <time>2023-03-29T13:32:29Z</time>
      </trkpt>
      <trkpt lat="49.84347" lon="2.193">
        <ele>51.3</ele>
        <time>2023-03-29T13:32:30Z</time>
      </trkpt>
      <trkpt lat="49.84346" lon="2.19301">
        <ele>51.3</ele>
        <time>2023-03-29T13:32:31Z</time>
      </trkpt>
      <trkpt lat="49.84345" lon="2.19302">
        <ele>51.3</ele>
        <time>2023-03-29T13:32:32Z</time>
      </trkpt>
      <trkpt lat="49.84344" lon="2.19302">
        <ele>51.3</ele>
        <time>2023-03-29T13:32:33Z</time>
      </trkpt>
      <trkpt lat="49.84343" lon="2.19303">
        <ele>51.3</ele>
        <time>2023-03-29T13:32:34Z</time>
      </trkpt>
      <trkpt lat="49.84341" lon="2.19304">
        <ele>51.3</ele>
        <time>2023-03-29T13:32:35Z</time>
      </trkpt>
      <trkpt lat="49.84341" lon="2.19304">
        <ele>51.3</ele>
        <time>2023-03-29T13:32:37Z</time>
      </trkpt>
      <trkpt lat="49.8434" lon="2.19305">
        <ele>51.3</ele>
        <time>2023-03-29T13:32:38Z</time>
      </trkpt>
      <trkpt lat="49.84339" lon="2.19305">
        <ele>51.3</ele>
        <time>2023-03-29T13:32:39Z</time>
      </trkpt>
      <trkpt lat="49.84337" lon="2.19306">
        <ele>51.3</ele>
        <time>2023-03-29T13:32:40Z</time>
      </trkpt>
      <trkpt lat="49.84336" lon="2.19306">
        <ele>51.3</ele>
        <time>2023-03-29T13:32:41Z</time>
      </trkpt>
      <trkpt lat="49.84335" lon="2.19307">
        <ele>51.2</ele>
        <time>2023-03-29T13:32:42Z</time>
      </trkpt>
      <trkpt lat="49.84334" lon="2.19308">
        <ele>51.2</ele>
        <time>2023-03-29T13:32:43Z</time>
      </trkpt>
      <trkpt lat="49.84333" lon="2.19308">
        <ele>51.2</ele>
        <time>2023-03-29T13:32:44Z</time>
      </trkpt>
      <trkpt lat="49.84331" lon="2.19309">
        <ele>51.2</ele>
        <time>2023-03-29T13:32:46Z</time>
      </trkpt>
      <trkpt lat="49.8433" lon="2.19309">
        <ele>51.2</ele>
        <time>2023-03-29T13:32:47Z</time>
      </trkpt>
      <trkpt lat="49.8433" lon="2.1931">
        <ele>51.2</ele>
        <time>2023-03-29T13:32:48Z</time>
      </trkpt>
      <trkpt lat="49.84328" lon="2.19311">
        <ele>51.2</ele>
        <time>2023-03-29T13:32:49Z</time>
      </trkpt>
      <trkpt lat="49.84327" lon="2.19312">
        <ele>51.2</ele>
        <time>2023-03-29T13:32:50Z</time>
      </trkpt>
      <trkpt lat="49.84326" lon="2.19312">
        <ele>51.2</ele>
        <time>2023-03-29T13:32:51Z</time>
      </trkpt>
      <trkpt lat="49.84324" lon="2.19314">
        <ele>51.2</ele>
        <time>2023-03-29T13:32:53Z</time>
      </trkpt>
      <trkpt lat="49.84323" lon="2.19314">
        <ele>51.2</ele>
        <time>2023-03-29T13:32:54Z</time>
      </trkpt>
      <trkpt lat="49.84322" lon="2.19315">
        <ele>51.2</ele>
        <time>2023-03-29T13:32:55Z</time>
      </trkpt>
      <trkpt lat="49.84321" lon="2.19315">
        <ele>51.2</ele>
        <time>2023-03-29T13:32:56Z</time>
      </trkpt>
      <trkpt lat="49.84319" lon="2.19316">
        <ele>51.2</ele>
        <time>2023-03-29T13:32:58Z</time>
      </trkpt>
      <trkpt lat="49.84319" lon="2.19317">
        <ele>51.2</ele>
        <time>2023-03-29T13:32:59Z</time>
      </trkpt>
      <trkpt lat="49.84317" lon="2.19317">
        <ele>51.2</ele>
        <time>2023-03-29T13:33:00Z</time>
      </trkpt>
      <trkpt lat="49.84316" lon="2.19318">
        <ele>51.2</ele>
        <time>2023-03-29T13:33:01Z</time>
      </trkpt>
      <trkpt lat="49.84315" lon="2.19318">
        <ele>51.2</ele>
        <time>2023-03-29T13:33:02Z</time>
      </trkpt>
      <trkpt lat="49.84314" lon="2.19319">
        <ele>51.2</ele>
        <time>2023-03-29T13:33:03Z</time>
      </trkpt>
      <trkpt lat="49.84313" lon="2.1932">
        <ele>51.2</ele>
        <time>2023-03-29T13:33:05Z</time>
      </trkpt>
      <trkpt lat="49.84312" lon="2.1932">
        <ele>51.2</ele>
        <time>2023-03-29T13:33:06Z</time>
      </trkpt>
      <trkpt lat="49.84311" lon="2.1932">
        <ele>51.2</ele>
        <time>2023-03-29T13:33:07Z</time>
      </trkpt>
      <trkpt lat="49.8431" lon="2.19321">
        <ele>51.2</ele>
        <time>2023-03-29T13:33:08Z</time>
      </trkpt>
      <trkpt lat="49.84309" lon="2.19321">
        <ele>51.2</ele>
        <time>2023-03-29T13:33:09Z</time>
      </trkpt>
      <trkpt lat="49.84309" lon="2.19322">
        <ele>51.2</ele>
        <time>2023-03-29T13:33:10Z</time>
      </trkpt>
      <trkpt lat="49.84308" lon="2.19322">
        <ele>51.2</ele>
        <time>2023-03-29T13:33:11Z</time>
      </trkpt>
      <trkpt lat="49.84307" lon="2.19323">
        <ele>51.2</ele>
        <time>2023-03-29T13:33:13Z</time>
      </trkpt>
      <trkpt lat="49.84305" lon="2.19324">
        <ele>51.2</ele>
        <time>2023-03-29T13:33:14Z</time>
      </trkpt>
      <trkpt lat="49.84304" lon="2.19324">
        <ele>51.2</ele>
        <time>2023-03-29T13:33:15Z</time>
      </trkpt>
      <trkpt lat="49.84303" lon="2.19325">
        <ele>51.2</ele>
        <time>2023-03-29T13:33:16Z</time>
      </trkpt>
      <trkpt lat="49.84303" lon="2.19326">
        <ele>51.2</ele>
        <time>2023-03-29T13:33:17Z</time>
      </trkpt>
      <trkpt lat="49.84302" lon="2.19327">
        <ele>51.2</ele>
        <time>2023-03-29T13:33:18Z</time>
      </trkpt>
      <trkpt lat="49.843" lon="2.19327">
        <ele>51.2</ele>
        <time>2023-03-29T13:33:20Z</time>
      </trkpt>
      <trkpt lat="49.84299" lon="2.19328">
        <ele>51.2</ele>
        <time>2023-03-29T13:33:21Z</time>
      </trkpt>
      <trkpt lat="49.84297" lon="2.19329">
        <ele>51.2</ele>
        <time>2023-03-29T13:33:22Z</time>
      </trkpt>
      <trkpt lat="49.84296" lon="2.1933">
        <ele>51.2</ele>
        <time>2023-03-29T13:33:23Z</time>
      </trkpt>
      <trkpt lat="49.84296" lon="2.1933">
        <ele>51.2</ele>
        <time>2023-03-29T13:33:24Z</time>
      </trkpt>
      <trkpt lat="49.84294" lon="2.19331">
        <ele>51.2</ele>
        <time>2023-03-29T13:33:25Z</time>
      </trkpt>
      <trkpt lat="49.84293" lon="2.19332">
        <ele>51.3</ele>
        <time>2023-03-29T13:33:26Z</time>
      </trkpt>
      <trkpt lat="49.84292" lon="2.19332">
        <ele>51.3</ele>
        <time>2023-03-29T13:33:28Z</time>
      </trkpt>
      <trkpt lat="49.84291" lon="2.19334">
        <ele>51.3</ele>
        <time>2023-03-29T13:33:29Z</time>
      </trkpt>
      <trkpt lat="49.8429" lon="2.19335">
        <ele>51.3</ele>
        <time>2023-03-29T13:33:30Z</time>
      </trkpt>
      <trkpt lat="49.84289" lon="2.19335">
        <ele>51.3</ele>
        <time>2023-03-29T13:33:31Z</time>
      </trkpt>
      <trkpt lat="49.84288" lon="2.19336">
        <ele>51.3</ele>
        <time>2023-03-29T13:33:32Z</time>
      </trkpt>
      <trkpt lat="49.84286" lon="2.19337">
        <ele>51.4</ele>
        <time>2023-03-29T13:33:34Z</time>
      </trkpt>
      <trkpt lat="49.84286" lon="2.19337">
        <ele>51.4</ele>
        <time>2023-03-29T13:33:35Z</time>
      </trkpt>
      <trkpt lat="49.84284" lon="2.19338">
        <ele>51.4</ele>
        <time>2023-03-29T13:33:36Z</time>
      </trkpt>
      <trkpt lat="49.84283" lon="2.19339">
        <ele>51.4</ele>
        <time>2023-03-29T13:33:37Z</time>
      </trkpt>
      <trkpt lat="49.84281" lon="2.1934">
        <ele>51.4</ele>
        <time>2023-03-29T13:33:38Z</time>
      </trkpt>
      <trkpt lat="49.8428" lon="2.19341">
        <ele>51.5</ele>
        <time>2023-03-29T13:33:39Z</time>
      </trkpt>
      <trkpt lat="49.84278" lon="2.19342">
        <ele>51.5</ele>
        <time>2023-03-29T13:33:41Z</time>
      </trkpt>
      <trkpt lat="49.84277" lon="2.19342">
        <ele>51.5</ele>
        <time>2023-03-29T13:33:42Z</time>
      </trkpt>
      <trkpt lat="49.84276" lon="2.19343">
        <ele>51.5</ele>
        <time>2023-03-29T13:33:43Z</time>
      </trkpt>
      <trkpt lat="49.84275" lon="2.19344">
        <ele>51.6</ele>
        <time>2023-03-29T13:33:44Z</time>
      </trkpt>
      <trkpt lat="49.84273" lon="2.19344">
        <ele>51.6</ele>
        <time>2023-03-29T13:33:45Z</time>
      </trkpt>
      <trkpt lat="49.84272" lon="2.19345">
        <ele>51.6</ele>
        <time>2023-03-29T13:33:46Z</time>
      </trkpt>
      <trkpt lat="49.84271" lon="2.19345">
        <ele>51.6</ele>
        <time>2023-03-29T13:33:48Z</time>
      </trkpt>
      <trkpt lat="49.8427" lon="2.19345">
        <ele>51.7</ele>
        <time>2023-03-29T13:33:49Z</time>
      </trkpt>
      <trkpt lat="49.84268" lon="2.19346">
        <ele>51.7</ele>
        <time>2023-03-29T13:33:50Z</time>
      </trkpt>
      <trkpt lat="49.84267" lon="2.19346">
        <ele>51.7</ele>
        <time>2023-03-29T13:33:51Z</time>
      </trkpt>
      <trkpt lat="49.84266" lon="2.19346">
        <ele>51.7</ele>
        <time>2023-03-29T13:33:52Z</time>
      </trkpt>
      <trkpt lat="49.84265" lon="2.19346">
        <ele>51.8</ele>
        <time>2023-03-29T13:33:54Z</time>
      </trkpt>
      <trkpt lat="49.84265" lon="2.19347">
        <ele>51.8</ele>
        <time>2023-03-29T13:33:55Z</time>
      </trkpt>
      <trkpt lat="49.84264" lon="2.19347">
        <ele>51.8</ele>
        <time>2023-03-29T13:33:56Z</time>
      </trkpt>
      <trkpt lat="49.84261" lon="2.19348">
        <ele>51.9</ele>
        <time>2023-03-29T13:33:57Z</time>
      </trkpt>
      <trkpt lat="49.8426" lon="2.19349">
        <ele>51.9</ele>
        <time>2023-03-29T13:33:58Z</time>
      </trkpt>
      <trkpt lat="49.84259" lon="2.19349">
        <ele>51.9</ele>
        <time>2023-03-29T13:34:00Z</time>
      </trkpt>
      <trkpt lat="49.84258" lon="2.1935">
        <ele>52</ele>
        <time>2023-03-29T13:34:01Z</time>
      </trkpt>
      <trkpt lat="49.84258" lon="2.1935">
        <ele>52</ele>
        <time>2023-03-29T13:34:02Z</time>
      </trkpt>
      <trkpt lat="49.84257" lon="2.19351">
        <ele>52</ele>
        <time>2023-03-29T13:34:03Z</time>
      </trkpt>
      <trkpt lat="49.84255" lon="2.19351">
        <ele>52.1</ele>
        <time>2023-03-29T13:34:04Z</time>
      </trkpt>
      <trkpt lat="49.84254" lon="2.19352">
        <ele>52.1</ele>
        <time>2023-03-29T13:34:05Z</time>
      </trkpt>
      <trkpt lat="49.84252" lon="2.19352">
        <ele>52.2</ele>
        <time>2023-03-29T13:34:07Z</time>
      </trkpt>
      <trkpt lat="49.84251" lon="2.19352">
        <ele>52.2</ele>
        <time>2023-03-29T13:34:08Z</time>
      </trkpt>
      <trkpt lat="49.8425" lon="2.19353">
        <ele>52.2</ele>
        <time>2023-03-29T13:34:09Z</time>
      </trkpt>
      <trkpt lat="49.84249" lon="2.19353">
        <ele>52.3</ele>
        <time>2023-03-29T13:34:10Z</time>
      </trkpt>
      <trkpt lat="49.84248" lon="2.19353">
        <ele>52.3</ele>
        <time>2023-03-29T13:34:11Z</time>
      </trkpt>
      <trkpt lat="49.84247" lon="2.19353">
        <ele>52.3</ele>
        <time>2023-03-29T13:34:13Z</time>
      </trkpt>
      <trkpt lat="49.84247" lon="2.19354">
        <ele>52.4</ele>
        <time>2023-03-29T13:34:14Z</time>
      </trkpt>
      <trkpt lat="49.84245" lon="2.19354">
        <ele>52.4</ele>
        <time>2023-03-29T13:34:15Z</time>
      </trkpt>
      <trkpt lat="49.84244" lon="2.19354">
        <ele>52.4</ele>
        <time>2023-03-29T13:34:16Z</time>
      </trkpt>
      <trkpt lat="49.84243" lon="2.19354">
        <ele>52.5</ele>
        <time>2023-03-29T13:34:17Z</time>
      </trkpt>
      <trkpt lat="49.84242" lon="2.19354">
        <ele>52.5</ele>
        <time>2023-03-29T13:34:18Z</time>
      </trkpt>
      <trkpt lat="49.84241" lon="2.19354">
        <ele>52.6</ele>
        <time>2023-03-29T13:34:20Z</time>
      </trkpt>
      <trkpt lat="49.8424" lon="2.19355">
        <ele>52.6</ele>
        <time>2023-03-29T13:34:21Z</time>
      </trkpt>
      <trkpt lat="49.84239" lon="2.19355">
        <ele>52.6</ele>
        <time>2023-03-29T13:34:22Z</time>
      </trkpt>
      <trkpt lat="49.84238" lon="2.19356">
        <ele>52.7</ele>
        <time>2023-03-29T13:34:23Z</time>
      </trkpt>
      <trkpt lat="49.84237" lon="2.19357">
        <ele>52.7</ele>
        <time>2023-03-29T13:34:24Z</time>
      </trkpt>
      <trkpt lat="49.84236" lon="2.19358">
        <ele>52.8</ele>
        <time>2023-03-29T13:34:26Z</time>
      </trkpt>
      <trkpt lat="49.84235" lon="2.19358">
        <ele>52.8</ele>
        <time>2023-03-29T13:34:27Z</time>
      </trkpt>
      <trkpt lat="49.84234" lon="2.19359">
        <ele>52.9</ele>
        <time>2023-03-29T13:34:28Z</time>
      </trkpt>
      <trkpt lat="49.84233" lon="2.19359">
        <ele>52.9</ele>
        <time>2023-03-29T13:34:29Z</time>
      </trkpt>
      <trkpt lat="49.84231" lon="2.1936">
        <ele>53</ele>
        <time>2023-03-29T13:34:30Z</time>
      </trkpt>
      <trkpt lat="49.8423" lon="2.1936">
        <ele>53</ele>
        <time>2023-03-29T13:34:32Z</time>
      </trkpt>
      <trkpt lat="49.84229" lon="2.1936">
        <ele>53.1</ele>
        <time>2023-03-29T13:34:33Z</time>
      </trkpt>
      <trkpt lat="49.84228" lon="2.1936">
        <ele>53.2</ele>
        <time>2023-03-29T13:34:34Z</time>
      </trkpt>
      <trkpt lat="49.84227" lon="2.1936">
        <ele>53.2</ele>
        <time>2023-03-29T13:34:35Z</time>
      </trkpt>
      <trkpt lat="49.84226" lon="2.1936">
        <ele>53.2</ele>
        <time>2023-03-29T13:34:36Z</time>
      </trkpt>
      <trkpt lat="49.84225" lon="2.1936">
        <ele>53.3</ele>
        <time>2023-03-29T13:34:37Z</time>
      </trkpt>
      <trkpt lat="49.84224" lon="2.1936">
        <ele>53.3</ele>
        <time>2023-03-29T13:34:38Z</time>
      </trkpt>
      <trkpt lat="49.84223" lon="2.19361">
        <ele>53.4</ele>
        <time>2023-03-29T13:34:40Z</time>
      </trkpt>
      <trkpt lat="49.84222" lon="2.19361">
        <ele>53.4</ele>
        <time>2023-03-29T13:34:41Z</time>
      </trkpt>
      <trkpt lat="49.84221" lon="2.19361">
        <ele>53.5</ele>
        <time>2023-03-29T13:34:42Z</time>
      </trkpt>
      <trkpt lat="49.8422" lon="2.19361">
        <ele>53.5</ele>
        <time>2023-03-29T13:34:43Z</time>
      </trkpt>
      <trkpt lat="49.84219" lon="2.19362">
        <ele>53.6</ele>
        <time>2023-03-29T13:34:45Z</time>
      </trkpt>
      <trkpt lat="49.84218" lon="2.19362">
        <ele>53.7</ele>
        <time>2023-03-29T13:34:46Z</time>
      </trkpt>
      <trkpt lat="49.84217" lon="2.19363">
        <ele>53.8</ele>
        <time>2023-03-29T13:34:47Z</time>
      </trkpt>
      <trkpt lat="49.84216" lon="2.19363">
        <ele>53.8</ele>
        <time>2023-03-29T13:34:48Z</time>
      </trkpt>
      <trkpt lat="49.84215" lon="2.19363">
        <ele>53.9</ele>
        <time>2023-03-29T13:34:49Z</time>
      </trkpt>
      <trkpt lat="49.84213" lon="2.19364">
        <ele>53.9</ele>
        <time>2023-03-29T13:34:51Z</time>
      </trkpt>
      <trkpt lat="49.84212" lon="2.19365">
        <ele>54</ele>
        <time>2023-03-29T13:34:52Z</time>
      </trkpt>
      <trkpt lat="49.84211" lon="2.19365">
        <ele>54.1</ele>
        <time>2023-03-29T13:34:53Z</time>
      </trkpt>
      <trkpt lat="49.8421" lon="2.19365">
        <ele>54.1</ele>
        <time>2023-03-29T13:34:54Z</time>
      </trkpt>
      <trkpt lat="49.84208" lon="2.19366">
        <ele>54.2</ele>
        <time>2023-03-29T13:34:56Z</time>
      </trkpt>
      <trkpt lat="49.84207" lon="2.19366">
        <ele>54.3</ele>
        <time>2023-03-29T13:34:57Z</time>
      </trkpt>
      <trkpt lat="49.84206" lon="2.19366">
        <ele>54.3</ele>
        <time>2023-03-29T13:34:58Z</time>
      </trkpt>
      <trkpt lat="49.84205" lon="2.19367">
        <ele>54.4</ele>
        <time>2023-03-29T13:34:59Z</time>
      </trkpt>
      <trkpt lat="49.84203" lon="2.19367">
        <ele>54.5</ele>
        <time>2023-03-29T13:35:01Z</time>
      </trkpt>
      <trkpt lat="49.84202" lon="2.19367">
        <ele>54.5</ele>
        <time>2023-03-29T13:35:02Z</time>
      </trkpt>
      <trkpt lat="49.84201" lon="2.19368">
        <ele>54.6</ele>
        <time>2023-03-29T13:35:03Z</time>
      </trkpt>
      <trkpt lat="49.842" lon="2.19368">
        <ele>54.7</ele>
        <time>2023-03-29T13:35:04Z</time>
      </trkpt>
      <trkpt lat="49.84198" lon="2.19369">
        <ele>54.7</ele>
        <time>2023-03-29T13:35:05Z</time>
      </trkpt>
      <trkpt lat="49.84197" lon="2.19369">
        <ele>54.8</ele>
        <time>2023-03-29T13:35:07Z</time>
      </trkpt>
      <trkpt lat="49.84196" lon="2.19369">
        <ele>54.8</ele>
        <time>2023-03-29T13:35:08Z</time>
      </trkpt>
      <trkpt lat="49.84195" lon="2.1937">
        <ele>54.9</ele>
        <time>2023-03-29T13:35:09Z</time>
      </trkpt>
      <trkpt lat="49.84194" lon="2.1937">
        <ele>54.9</ele>
        <time>2023-03-29T13:35:10Z</time>
      </trkpt>
      <trkpt lat="49.84193" lon="2.1937">
        <ele>55</ele>
        <time>2023-03-29T13:35:12Z</time>
      </trkpt>
      <trkpt lat="49.84192" lon="2.1937">
        <ele>55</ele>
        <time>2023-03-29T13:35:13Z</time>
      </trkpt>
      <trkpt lat="49.84191" lon="2.1937">
        <ele>55.1</ele>
        <time>2023-03-29T13:35:14Z</time>
      </trkpt>
      <trkpt lat="49.8419" lon="2.19371">
        <ele>55.1</ele>
        <time>2023-03-29T13:35:15Z</time>
      </trkpt>
      <trkpt lat="49.84188" lon="2.19371">
        <ele>55.2</ele>
        <time>2023-03-29T13:35:16Z</time>
      </trkpt>
      <trkpt lat="49.84187" lon="2.19372">
        <ele>55.2</ele>
        <time>2023-03-29T13:35:17Z</time>
      </trkpt>
      <trkpt lat="49.84186" lon="2.19372">
        <ele>55.3</ele>
        <time>2023-03-29T13:35:18Z</time>
      </trkpt>
      <trkpt lat="49.84185" lon="2.19372">
        <ele>55.3</ele>
        <time>2023-03-29T13:35:20Z</time>
      </trkpt>
      <trkpt lat="49.84184" lon="2.19372">
        <ele>55.4</ele>
        <time>2023-03-29T13:35:21Z</time>
      </trkpt>
      <trkpt lat="49.84183" lon="2.19372">
        <ele>55.4</ele>
        <time>2023-03-29T13:35:22Z</time>
      </trkpt>
      <trkpt lat="49.84182" lon="2.19373">
        <ele>55.5</ele>
        <time>2023-03-29T13:35:23Z</time>
      </trkpt>
      <trkpt lat="49.84181" lon="2.19373">
        <ele>55.5</ele>
        <time>2023-03-29T13:35:25Z</time>
      </trkpt>
      <trkpt lat="49.84179" lon="2.19373">
        <ele>55.6</ele>
        <time>2023-03-29T13:35:26Z</time>
      </trkpt>
      <trkpt lat="49.84178" lon="2.19373">
        <ele>55.7</ele>
        <time>2023-03-29T13:35:28Z</time>
      </trkpt>
      <trkpt lat="49.84177" lon="2.19373">
        <ele>55.7</ele>
        <time>2023-03-29T13:35:29Z</time>
      </trkpt>
      <trkpt lat="49.84176" lon="2.19373">
        <ele>55.8</ele>
        <time>2023-03-29T13:35:30Z</time>
      </trkpt>
      <trkpt lat="49.84175" lon="2.19373">
        <ele>55.8</ele>
        <time>2023-03-29T13:35:31Z</time>
      </trkpt>
      <trkpt lat="49.84174" lon="2.19373">
        <ele>55.9</ele>
        <time>2023-03-29T13:35:33Z</time>
      </trkpt>
      <trkpt lat="49.84173" lon="2.19373">
        <ele>55.9</ele>
        <time>2023-03-29T13:35:34Z</time>
      </trkpt>
      <trkpt lat="49.84172" lon="2.19373">
        <ele>55.9</ele>
        <time>2023-03-29T13:35:35Z</time>
      </trkpt>
      <trkpt lat="49.84171" lon="2.19373">
        <ele>56</ele>
        <time>2023-03-29T13:35:36Z</time>
      </trkpt>
      <trkpt lat="49.8417" lon="2.19373">
        <ele>56.1</ele>
        <time>2023-03-29T13:35:38Z</time>
      </trkpt>
      <trkpt lat="49.84169" lon="2.19374">
        <ele>56.1</ele>
        <time>2023-03-29T13:35:39Z</time>
      </trkpt>
      <trkpt lat="49.84168" lon="2.19374">
        <ele>56.2</ele>
        <time>2023-03-29T13:35:40Z</time>
      </trkpt>
      <trkpt lat="49.84166" lon="2.19375">
        <ele>56.2</ele>
        <time>2023-03-29T13:35:41Z</time>
      </trkpt>
      <trkpt lat="49.84165" lon="2.19375">
        <ele>56.3</ele>
        <time>2023-03-29T13:35:42Z</time>
      </trkpt>
      <trkpt lat="49.84164" lon="2.19376">
        <ele>56.4</ele>
        <time>2023-03-29T13:35:43Z</time>
      </trkpt>
      <trkpt lat="49.84163" lon="2.19377">
        <ele>56.4</ele>
        <time>2023-03-29T13:35:44Z</time>
      </trkpt>
      <trkpt lat="49.84162" lon="2.19377">
        <ele>56.5</ele>
        <time>2023-03-29T13:35:45Z</time>
      </trkpt>
      <trkpt lat="49.84161" lon="2.19378">
        <ele>56.6</ele>
        <time>2023-03-29T13:35:47Z</time>
      </trkpt>
      <trkpt lat="49.8416" lon="2.19379">
        <ele>56.6</ele>
        <time>2023-03-29T13:35:48Z</time>
      </trkpt>
      <trkpt lat="49.84159" lon="2.1938">
        <ele>56.6</ele>
        <time>2023-03-29T13:35:49Z</time>
      </trkpt>
      <trkpt lat="49.84158" lon="2.1938">
        <ele>56.7</ele>
        <time>2023-03-29T13:35:50Z</time>
      </trkpt>
      <trkpt lat="49.84158" lon="2.19381">
        <ele>56.7</ele>
        <time>2023-03-29T13:35:52Z</time>
      </trkpt>
      <trkpt lat="49.84157" lon="2.19382">
        <ele>56.8</ele>
        <time>2023-03-29T13:35:53Z</time>
      </trkpt>
      <trkpt lat="49.84156" lon="2.19383">
        <ele>56.8</ele>
        <time>2023-03-29T13:35:54Z</time>
      </trkpt>
      <trkpt lat="49.84156" lon="2.19383">
        <ele>56.9</ele>
        <time>2023-03-29T13:35:55Z</time>
      </trkpt>
      <trkpt lat="49.84154" lon="2.19384">
        <ele>57</ele>
        <time>2023-03-29T13:35:56Z</time>
      </trkpt>
      <trkpt lat="49.84153" lon="2.19384">
        <ele>57</ele>
        <time>2023-03-29T13:35:57Z</time>
      </trkpt>
      <trkpt lat="49.84152" lon="2.19385">
        <ele>57</ele>
        <time>2023-03-29T13:35:58Z</time>
      </trkpt>
      <trkpt lat="49.84151" lon="2.19386">
        <ele>57.1</ele>
        <time>2023-03-29T13:36:00Z</time>
      </trkpt>
      <trkpt lat="49.8415" lon="2.19386">
        <ele>57.2</ele>
        <time>2023-03-29T13:36:01Z</time>
      </trkpt>
      <trkpt lat="49.8415" lon="2.19387">
        <ele>57.2</ele>
        <time>2023-03-29T13:36:02Z</time>
      </trkpt>
      <trkpt lat="49.84149" lon="2.19388">
        <ele>57.3</ele>
        <time>2023-03-29T13:36:03Z</time>
      </trkpt>
      <trkpt lat="49.84148" lon="2.19388">
        <ele>57.3</ele>
        <time>2023-03-29T13:36:05Z</time>
      </trkpt>
      <trkpt lat="49.84147" lon="2.19389">
        <ele>57.4</ele>
        <time>2023-03-29T13:36:06Z</time>
      </trkpt>
      <trkpt lat="49.84145" lon="2.1939">
        <ele>57.5</ele>
        <time>2023-03-29T13:36:07Z</time>
      </trkpt>
      <trkpt lat="49.84145" lon="2.1939">
        <ele>57.5</ele>
        <time>2023-03-29T13:36:08Z</time>
      </trkpt>
      <trkpt lat="49.84144" lon="2.1939">
        <ele>57.6</ele>
        <time>2023-03-29T13:36:09Z</time>
      </trkpt>
      <trkpt lat="49.84143" lon="2.19391">
        <ele>57.6</ele>
        <time>2023-03-29T13:36:10Z</time>
      </trkpt>
      <trkpt lat="49.84142" lon="2.19391">
        <ele>57.7</ele>
        <time>2023-03-29T13:36:11Z</time>
      </trkpt>
      <trkpt lat="49.84141" lon="2.19392">
        <ele>57.7</ele>
        <time>2023-03-29T13:36:13Z</time>
      </trkpt>
      <trkpt lat="49.8414" lon="2.19392">
        <ele>57.8</ele>
        <time>2023-03-29T13:36:14Z</time>
      </trkpt>
      <trkpt lat="49.8414" lon="2.19392">
        <ele>57.8</ele>
        <time>2023-03-29T13:36:15Z</time>
      </trkpt>
      <trkpt lat="49.84138" lon="2.19393">
        <ele>57.9</ele>
        <time>2023-03-29T13:36:16Z</time>
      </trkpt>
      <trkpt lat="49.84138" lon="2.19393">
        <ele>58</ele>
        <time>2023-03-29T13:36:18Z</time>
      </trkpt>
      <trkpt lat="49.84136" lon="2.19395">
        <ele>58.1</ele>
        <time>2023-03-29T13:36:19Z</time>
      </trkpt>
      <trkpt lat="49.84135" lon="2.19395">
        <ele>58.2</ele>
        <time>2023-03-29T13:36:21Z</time>
      </trkpt>
      <trkpt lat="49.84134" lon="2.19396">
        <ele>58.2</ele>
        <time>2023-03-29T13:36:22Z</time>
      </trkpt>
      <trkpt lat="49.84133" lon="2.19397">
        <ele>58.3</ele>
        <time>2023-03-29T13:36:23Z</time>
      </trkpt>
      <trkpt lat="49.84132" lon="2.19397">
        <ele>58.4</ele>
        <time>2023-03-29T13:36:24Z</time>
      </trkpt>
      <trkpt lat="49.8413" lon="2.19398">
        <ele>58.5</ele>
        <time>2023-03-29T13:36:26Z</time>
      </trkpt>
      <trkpt lat="49.84129" lon="2.19399">
        <ele>58.6</ele>
        <time>2023-03-29T13:36:28Z</time>
      </trkpt>
      <trkpt lat="49.84128" lon="2.19399">
        <ele>58.6</ele>
        <time>2023-03-29T13:36:29Z</time>
      </trkpt>
      <trkpt lat="49.84127" lon="2.194">
        <ele>58.6</ele>
        <time>2023-03-29T13:36:30Z</time>
      </trkpt>
      <trkpt lat="49.84126" lon="2.19401">
        <ele>58.7</ele>
        <time>2023-03-29T13:36:31Z</time>
      </trkpt>
      <trkpt lat="49.84125" lon="2.19401">
        <ele>58.8</ele>
        <time>2023-03-29T13:36:32Z</time>
      </trkpt>
      <trkpt lat="49.84125" lon="2.19402">
        <ele>58.8</ele>
        <time>2023-03-29T13:36:34Z</time>
      </trkpt>
      <trkpt lat="49.84124" lon="2.19402">
        <ele>58.9</ele>
        <time>2023-03-29T13:36:35Z</time>
      </trkpt>
      <trkpt lat="49.84123" lon="2.19403">
        <ele>58.9</ele>
        <time>2023-03-29T13:36:36Z</time>
      </trkpt>
      <trkpt lat="49.84122" lon="2.19403">
        <ele>59</ele>
        <time>2023-03-29T13:36:38Z</time>
      </trkpt>
      <trkpt lat="49.84121" lon="2.19404">
        <ele>59.1</ele>
        <time>2023-03-29T13:36:39Z</time>
      </trkpt>
      <trkpt lat="49.8412" lon="2.19404">
        <ele>59.1</ele>
        <time>2023-03-29T13:36:40Z</time>
      </trkpt>
      <trkpt lat="49.84119" lon="2.19404">
        <ele>59.2</ele>
        <time>2023-03-29T13:36:41Z</time>
      </trkpt>
      <trkpt lat="49.84118" lon="2.19404">
        <ele>59.2</ele>
        <time>2023-03-29T13:36:42Z</time>
      </trkpt>
      <trkpt lat="49.84117" lon="2.19404">
        <ele>59.2</ele>
        <time>2023-03-29T13:36:43Z</time>
      </trkpt>
      <trkpt lat="49.84117" lon="2.19404">
        <ele>59.3</ele>
        <time>2023-03-29T13:36:45Z</time>
      </trkpt>
      <trkpt lat="49.84115" lon="2.19404">
        <ele>59.3</ele>
        <time>2023-03-29T13:36:46Z</time>
      </trkpt>
      <trkpt lat="49.84114" lon="2.19404">
        <ele>59.4</ele>
        <time>2023-03-29T13:36:47Z</time>
      </trkpt>
      <trkpt lat="49.84113" lon="2.19404">
        <ele>59.4</ele>
        <time>2023-03-29T13:36:48Z</time>
      </trkpt>
      <trkpt lat="49.84112" lon="2.19405">
        <ele>59.5</ele>
        <time>2023-03-29T13:36:49Z</time>
      </trkpt>
      <trkpt lat="49.84111" lon="2.19405">
        <ele>59.6</ele>
        <time>2023-03-29T13:36:50Z</time>
      </trkpt>
      <trkpt lat="49.8411" lon="2.19405">
        <ele>59.6</ele>
        <time>2023-03-29T13:36:51Z</time>
      </trkpt>
      <trkpt lat="49.84109" lon="2.19406">
        <ele>59.7</ele>
        <time>2023-03-29T13:36:53Z</time>
      </trkpt>
      <trkpt lat="49.84108" lon="2.19406">
        <ele>59.7</ele>
        <time>2023-03-29T13:36:54Z</time>
      </trkpt>
      <trkpt lat="49.84107" lon="2.19406">
        <ele>59.8</ele>
        <time>2023-03-29T13:36:55Z</time>
      </trkpt>
      <trkpt lat="49.84106" lon="2.19406">
        <ele>59.8</ele>
        <time>2023-03-29T13:36:56Z</time>
      </trkpt>
      <trkpt lat="49.84105" lon="2.19406">
        <ele>59.9</ele>
        <time>2023-03-29T13:36:58Z</time>
      </trkpt>
      <trkpt lat="49.84104" lon="2.19406">
        <ele>59.9</ele>
        <time>2023-03-29T13:36:59Z</time>
      </trkpt>
      <trkpt lat="49.84103" lon="2.19406">
        <ele>60</ele>
        <time>2023-03-29T13:37:00Z</time>
      </trkpt>
      <trkpt lat="49.841" lon="2.19406">
        <ele>60.1</ele>
        <time>2023-03-29T13:37:01Z</time>
      </trkpt>
      <trkpt lat="49.841" lon="2.19406">
        <ele>60.1</ele>
        <time>2023-03-29T13:37:02Z</time>
      </trkpt>
      <trkpt lat="49.84099" lon="2.19406">
        <ele>60.2</ele>
        <time>2023-03-29T13:37:03Z</time>
      </trkpt>
      <trkpt lat="49.84097" lon="2.19406">
        <ele>60.3</ele>
        <time>2023-03-29T13:37:04Z</time>
      </trkpt>
      <trkpt lat="49.84096" lon="2.19406">
        <ele>60.3</ele>
        <time>2023-03-29T13:37:06Z</time>
      </trkpt>
      <trkpt lat="49.84095" lon="2.19406">
        <ele>60.4</ele>
        <time>2023-03-29T13:37:07Z</time>
      </trkpt>
      <trkpt lat="49.84093" lon="2.19406">
        <ele>60.5</ele>
        <time>2023-03-29T13:37:08Z</time>
      </trkpt>
      <trkpt lat="49.84092" lon="2.19407">
        <ele>60.5</ele>
        <time>2023-03-29T13:37:10Z</time>
      </trkpt>
      <trkpt lat="49.84092" lon="2.19407">
        <ele>60.6</ele>
        <time>2023-03-29T13:37:11Z</time>
      </trkpt>
      <trkpt lat="49.84091" lon="2.19407">
        <ele>60.6</ele>
        <time>2023-03-29T13:37:12Z</time>
      </trkpt>
      <trkpt lat="49.84089" lon="2.19408">
        <ele>60.8</ele>
        <time>2023-03-29T13:37:14Z</time>
      </trkpt>
      <trkpt lat="49.84087" lon="2.19408">
        <ele>60.9</ele>
        <time>2023-03-29T13:37:15Z</time>
      </trkpt>
      <trkpt lat="49.84086" lon="2.19408">
        <ele>60.9</ele>
        <time>2023-03-29T13:37:17Z</time>
      </trkpt>
      <trkpt lat="49.84086" lon="2.19409">
        <ele>61</ele>
        <time>2023-03-29T13:37:18Z</time>
      </trkpt>
      <trkpt lat="49.84084" lon="2.19409">
        <ele>61.1</ele>
        <time>2023-03-29T13:37:19Z</time>
      </trkpt>
      <trkpt lat="49.84084" lon="2.1941">
        <ele>61.1</ele>
        <time>2023-03-29T13:37:20Z</time>
      </trkpt>
      <trkpt lat="49.84081" lon="2.19411">
        <ele>61.3</ele>
        <time>2023-03-29T13:37:22Z</time>
      </trkpt>
      <trkpt lat="49.8408" lon="2.19411">
        <ele>61.4</ele>
        <time>2023-03-29T13:37:23Z</time>
      </trkpt>
      <trkpt lat="49.84079" lon="2.19412">
        <ele>61.4</ele>
        <time>2023-03-29T13:37:25Z</time>
      </trkpt>
      <trkpt lat="49.84078" lon="2.19413">
        <ele>61.5</ele>
        <time>2023-03-29T13:37:26Z</time>
      </trkpt>
      <trkpt lat="49.84077" lon="2.19413">
        <ele>61.6</ele>
        <time>2023-03-29T13:37:27Z</time>
      </trkpt>
      <trkpt lat="49.84076" lon="2.19414">
        <ele>61.7</ele>
        <time>2023-03-29T13:37:28Z</time>
      </trkpt>
      <trkpt lat="49.84075" lon="2.19414">
        <ele>61.8</ele>
        <time>2023-03-29T13:37:30Z</time>
      </trkpt>
      <trkpt lat="49.84074" lon="2.19415">
        <ele>61.9</ele>
        <time>2023-03-29T13:37:31Z</time>
      </trkpt>
      <trkpt lat="49.84073" lon="2.19415">
        <ele>61.9</ele>
        <time>2023-03-29T13:37:32Z</time>
      </trkpt>
      <trkpt lat="49.84072" lon="2.19416">
        <ele>62</ele>
        <time>2023-03-29T13:37:33Z</time>
      </trkpt>
      <trkpt lat="49.84071" lon="2.19417">
        <ele>62.1</ele>
        <time>2023-03-29T13:37:35Z</time>
      </trkpt>
      <trkpt lat="49.8407" lon="2.19419">
        <ele>62.2</ele>
        <time>2023-03-29T13:37:37Z</time>
      </trkpt>
      <trkpt lat="49.84069" lon="2.19419">
        <ele>62.3</ele>
        <time>2023-03-29T13:37:38Z</time>
      </trkpt>
      <trkpt lat="49.84069" lon="2.1942">
        <ele>62.4</ele>
        <time>2023-03-29T13:37:39Z</time>
      </trkpt>
      <trkpt lat="49.84068" lon="2.19421">
        <ele>62.5</ele>
        <time>2023-03-29T13:37:40Z</time>
      </trkpt>
      <trkpt lat="49.84067" lon="2.19422">
        <ele>62.6</ele>
        <time>2023-03-29T13:37:41Z</time>
      </trkpt>
      <trkpt lat="49.84066" lon="2.19423">
        <ele>62.6</ele>
        <time>2023-03-29T13:37:42Z</time>
      </trkpt>
      <trkpt lat="49.84065" lon="2.19424">
        <ele>62.7</ele>
        <time>2023-03-29T13:37:43Z</time>
      </trkpt>
      <trkpt lat="49.84065" lon="2.19425">
        <ele>62.8</ele>
        <time>2023-03-29T13:37:44Z</time>
      </trkpt>
      <trkpt lat="49.84064" lon="2.19425">
        <ele>62.9</ele>
        <time>2023-03-29T13:37:46Z</time>
      </trkpt>
      <trkpt lat="49.84063" lon="2.19426">
        <ele>63</ele>
        <time>2023-03-29T13:37:47Z</time>
      </trkpt>
      <trkpt lat="49.84062" lon="2.19427">
        <ele>63.1</ele>
        <time>2023-03-29T13:37:48Z</time>
      </trkpt>
      <trkpt lat="49.84061" lon="2.19428">
        <ele>63.2</ele>
        <time>2023-03-29T13:37:50Z</time>
      </trkpt>
      <trkpt lat="49.8406" lon="2.19429">
        <ele>63.3</ele>
        <time>2023-03-29T13:37:51Z</time>
      </trkpt>
      <trkpt lat="49.84059" lon="2.1943">
        <ele>63.3</ele>
        <time>2023-03-29T13:37:53Z</time>
      </trkpt>
      <trkpt lat="49.84058" lon="2.19431">
        <ele>63.4</ele>
        <time>2023-03-29T13:37:54Z</time>
      </trkpt>
      <trkpt lat="49.84057" lon="2.19433">
        <ele>63.6</ele>
        <time>2023-03-29T13:37:55Z</time>
      </trkpt>
      <trkpt lat="49.84057" lon="2.19433">
        <ele>63.6</ele>
        <time>2023-03-29T13:37:56Z</time>
      </trkpt>
      <trkpt lat="49.84056" lon="2.19434">
        <ele>63.7</ele>
        <time>2023-03-29T13:37:57Z</time>
      </trkpt>
      <trkpt lat="49.84055" lon="2.19435">
        <ele>63.8</ele>
        <time>2023-03-29T13:37:59Z</time>
      </trkpt>
      <trkpt lat="49.84054" lon="2.19436">
        <ele>63.9</ele>
        <time>2023-03-29T13:38:00Z</time>
      </trkpt>
      <trkpt lat="49.84054" lon="2.19436">
        <ele>64</ele>
        <time>2023-03-29T13:38:01Z</time>
      </trkpt>
      <trkpt lat="49.84053" lon="2.19437">
        <ele>64.1</ele>
        <time>2023-03-29T13:38:02Z</time>
      </trkpt>
      <trkpt lat="49.84052" lon="2.19438">
        <ele>64.1</ele>
        <time>2023-03-29T13:38:03Z</time>
      </trkpt>
      <trkpt lat="49.84051" lon="2.19438">
        <ele>64.2</ele>
        <time>2023-03-29T13:38:04Z</time>
      </trkpt>
      <trkpt lat="49.8405" lon="2.19439">
        <ele>64.3</ele>
        <time>2023-03-29T13:38:06Z</time>
      </trkpt>
      <trkpt lat="49.84049" lon="2.1944">
        <ele>64.4</ele>
        <time>2023-03-29T13:38:07Z</time>
      </trkpt>
      <trkpt lat="49.84047" lon="2.19441">
        <ele>64.6</ele>
        <time>2023-03-29T13:38:08Z</time>
      </trkpt>
      <trkpt lat="49.84046" lon="2.19441">
        <ele>64.7</ele>
        <time>2023-03-29T13:38:10Z</time>
      </trkpt>
      <trkpt lat="49.84045" lon="2.19442">
        <ele>64.8</ele>
        <time>2023-03-29T13:38:11Z</time>
      </trkpt>
      <trkpt lat="49.84045" lon="2.19442">
        <ele>64.9</ele>
        <time>2023-03-29T13:38:12Z</time>
      </trkpt>
      <trkpt lat="49.84044" lon="2.19442">
        <ele>64.9</ele>
        <time>2023-03-29T13:38:13Z</time>
      </trkpt>
      <trkpt lat="49.84043" lon="2.19442">
        <ele>65</ele>
        <time>2023-03-29T13:38:14Z</time>
      </trkpt>
      <trkpt lat="49.84042" lon="2.19443">
        <ele>65.1</ele>
        <time>2023-03-29T13:38:15Z</time>
      </trkpt>
      <trkpt lat="49.84041" lon="2.19444">
        <ele>65.2</ele>
        <time>2023-03-29T13:38:17Z</time>
      </trkpt>
      <trkpt lat="49.8404" lon="2.19444">
        <ele>65.3</ele>
        <time>2023-03-29T13:38:18Z</time>
      </trkpt>
      <trkpt lat="49.84039" lon="2.19445">
        <ele>65.4</ele>
        <time>2023-03-29T13:38:19Z</time>
      </trkpt>
      <trkpt lat="49.84039" lon="2.19445">
        <ele>65.4</ele>
        <time>2023-03-29T13:38:20Z</time>
      </trkpt>
      <trkpt lat="49.84038" lon="2.19446">
        <ele>65.5</ele>
        <time>2023-03-29T13:38:21Z</time>
      </trkpt>
      <trkpt lat="49.84037" lon="2.19446">
        <ele>65.6</ele>
        <time>2023-03-29T13:38:22Z</time>
      </trkpt>
      <trkpt lat="49.84036" lon="2.19447">
        <ele>65.7</ele>
        <time>2023-03-29T13:38:23Z</time>
      </trkpt>
      <trkpt lat="49.84035" lon="2.19448">
        <ele>65.8</ele>
        <time>2023-03-29T13:38:24Z</time>
      </trkpt>
      <trkpt lat="49.84034" lon="2.19448">
        <ele>65.9</ele>
        <time>2023-03-29T13:38:26Z</time>
      </trkpt>
      <trkpt lat="49.84034" lon="2.19449">
        <ele>66</ele>
        <time>2023-03-29T13:38:27Z</time>
      </trkpt>
      <trkpt lat="49.84032" lon="2.19449">
        <ele>66.1</ele>
        <time>2023-03-29T13:38:28Z</time>
      </trkpt>
      <trkpt lat="49.84031" lon="2.1945">
        <ele>66.2</ele>
        <time>2023-03-29T13:38:29Z</time>
      </trkpt>
      <trkpt lat="49.84031" lon="2.19451">
        <ele>66.3</ele>
        <time>2023-03-29T13:38:30Z</time>
      </trkpt>
      <trkpt lat="49.8403" lon="2.19452">
        <ele>66.4</ele>
        <time>2023-03-29T13:38:32Z</time>
      </trkpt>
      <trkpt lat="49.84029" lon="2.19453">
        <ele>66.5</ele>
        <time>2023-03-29T13:38:34Z</time>
      </trkpt>
      <trkpt lat="49.84029" lon="2.19454">
        <ele>66.5</ele>
        <time>2023-03-29T13:38:35Z</time>
      </trkpt>
      <trkpt lat="49.84028" lon="2.19454">
        <ele>66.6</ele>
        <time>2023-03-29T13:38:36Z</time>
      </trkpt>
      <trkpt lat="49.84028" lon="2.19456">
        <ele>66.6</ele>
        <time>2023-03-29T13:38:37Z</time>
      </trkpt>
      <trkpt lat="49.84027" lon="2.19457">
        <ele>66.8</ele>
        <time>2023-03-29T13:38:38Z</time>
      </trkpt>
      <trkpt lat="49.84027" lon="2.19459">
        <ele>66.8</ele>
        <time>2023-03-29T13:38:40Z</time>
      </trkpt>
      <trkpt lat="49.84026" lon="2.1946">
        <ele>66.9</ele>
        <time>2023-03-29T13:38:41Z</time>
      </trkpt>
      <trkpt lat="49.84026" lon="2.19461">
        <ele>67</ele>
        <time>2023-03-29T13:38:42Z</time>
      </trkpt>
      <trkpt lat="49.84026" lon="2.19461">
        <ele>67</ele>
        <time>2023-03-29T13:38:43Z</time>
      </trkpt>
      <trkpt lat="49.84025" lon="2.19463">
        <ele>67.1</ele>
        <time>2023-03-29T13:38:45Z</time>
      </trkpt>
      <trkpt lat="49.84024" lon="2.19464">
        <ele>67.2</ele>
        <time>2023-03-29T13:38:47Z</time>
      </trkpt>
      <trkpt lat="49.84024" lon="2.19465">
        <ele>67.2</ele>
        <time>2023-03-29T13:38:48Z</time>
      </trkpt>
      <trkpt lat="49.84023" lon="2.19466">
        <ele>67.3</ele>
        <time>2023-03-29T13:38:49Z</time>
      </trkpt>
      <trkpt lat="49.84023" lon="2.19466">
        <ele>67.4</ele>
        <time>2023-03-29T13:38:50Z</time>
      </trkpt>
      <trkpt lat="49.84022" lon="2.19467">
        <ele>67.4</ele>
        <time>2023-03-29T13:38:51Z</time>
      </trkpt>
      <trkpt lat="49.84022" lon="2.19468">
        <ele>67.5</ele>
        <time>2023-03-29T13:38:52Z</time>
      </trkpt>
      <trkpt lat="49.84021" lon="2.19468">
        <ele>67.6</ele>
        <time>2023-03-29T13:38:54Z</time>
      </trkpt>
      <trkpt lat="49.8402" lon="2.19468">
        <ele>67.6</ele>
        <time>2023-03-29T13:38:55Z</time>
      </trkpt>
      <trkpt lat="49.8402" lon="2.19469">
        <ele>67.7</ele>
        <time>2023-03-29T13:38:57Z</time>
      </trkpt>
      <trkpt lat="49.8402" lon="2.19469">
        <ele>67.7</ele>
        <time>2023-03-29T13:38:58Z</time>
      </trkpt>
      <trkpt lat="49.84019" lon="2.19469">
        <ele>67.8</ele>
        <time>2023-03-29T13:38:59Z</time>
      </trkpt>
      <trkpt lat="49.84019" lon="2.1947">
        <ele>67.8</ele>
        <time>2023-03-29T13:39:00Z</time>
      </trkpt>
      <trkpt lat="49.84018" lon="2.1947">
        <ele>67.8</ele>
        <time>2023-03-29T13:39:02Z</time>
      </trkpt>
      <trkpt lat="49.84017" lon="2.1947">
        <ele>67.9</ele>
        <time>2023-03-29T13:39:04Z</time>
      </trkpt>
      <trkpt lat="49.84017" lon="2.1947">
        <ele>67.9</ele>
        <time>2023-03-29T13:39:05Z</time>
      </trkpt>
      <trkpt lat="49.84017" lon="2.1947">
        <ele>67.9</ele>
        <time>2023-03-29T13:39:06Z</time>
      </trkpt>
      <trkpt lat="49.84017" lon="2.1947">
        <ele>68</ele>
        <time>2023-03-29T13:39:07Z</time>
      </trkpt>
      <trkpt lat="49.84016" lon="2.19471">
        <ele>68</ele>
        <time>2023-03-29T13:39:09Z</time>
      </trkpt>
      <trkpt lat="49.84016" lon="2.19471">
        <ele>68.1</ele>
        <time>2023-03-29T13:39:10Z</time>
      </trkpt>
      <trkpt lat="49.84016" lon="2.19471">
        <ele>68.1</ele>
        <time>2023-03-29T13:39:11Z</time>
      </trkpt>
      <trkpt lat="49.84015" lon="2.19471">
        <ele>68.1</ele>
        <time>2023-03-29T13:39:12Z</time>
      </trkpt>
      <trkpt lat="49.84015" lon="2.19471">
        <ele>68.2</ele>
        <time>2023-03-29T13:39:13Z</time>
      </trkpt>
      <trkpt lat="49.84014" lon="2.19472">
        <ele>68.2</ele>
        <time>2023-03-29T13:39:15Z</time>
      </trkpt>
      <trkpt lat="49.84013" lon="2.19473">
        <ele>68.3</ele>
        <time>2023-03-29T13:39:16Z</time>
      </trkpt>
      <trkpt lat="49.84013" lon="2.19472">
        <ele>68.3</ele>
        <time>2023-03-29T13:39:18Z</time>
      </trkpt>
      <trkpt lat="49.84013" lon="2.19472">
        <ele>68.3</ele>
        <time>2023-03-29T13:39:19Z</time>
      </trkpt>
      <trkpt lat="49.84013" lon="2.19472">
        <ele>68.4</ele>
        <time>2023-03-29T13:39:20Z</time>
      </trkpt>
      <trkpt lat="49.84012" lon="2.19473">
        <ele>68.5</ele>
        <time>2023-03-29T13:39:21Z</time>
      </trkpt>
      <trkpt lat="49.84011" lon="2.19473">
        <ele>68.5</ele>
        <time>2023-03-29T13:39:23Z</time>
      </trkpt>
      <trkpt lat="49.8401" lon="2.19474">
        <ele>68.6</ele>
        <time>2023-03-29T13:39:24Z</time>
      </trkpt>
      <trkpt lat="49.84009" lon="2.19475">
        <ele>68.7</ele>
        <time>2023-03-29T13:39:26Z</time>
      </trkpt>
      <trkpt lat="49.84009" lon="2.19475">
        <ele>68.8</ele>
        <time>2023-03-29T13:39:27Z</time>
      </trkpt>
      <trkpt lat="49.84008" lon="2.19476">
        <ele>68.8</ele>
        <time>2023-03-29T13:39:28Z</time>
      </trkpt>
      <trkpt lat="49.84008" lon="2.19477">
        <ele>68.9</ele>
        <time>2023-03-29T13:39:29Z</time>
      </trkpt>
      <trkpt lat="49.84007" lon="2.19477">
        <ele>68.9</ele>
        <time>2023-03-29T13:39:30Z</time>
      </trkpt>
      <trkpt lat="49.84006" lon="2.19478">
        <ele>69</ele>
        <time>2023-03-29T13:39:31Z</time>
      </trkpt>
      <trkpt lat="49.84005" lon="2.19478">
        <ele>69.1</ele>
        <time>2023-03-29T13:39:32Z</time>
      </trkpt>
      <trkpt lat="49.84005" lon="2.19479">
        <ele>69.2</ele>
        <time>2023-03-29T13:39:34Z</time>
      </trkpt>
      <trkpt lat="49.84004" lon="2.19479">
        <ele>69.3</ele>
        <time>2023-03-29T13:39:35Z</time>
      </trkpt>
      <trkpt lat="49.84003" lon="2.19479">
        <ele>69.4</ele>
        <time>2023-03-29T13:39:36Z</time>
      </trkpt>
      <trkpt lat="49.84002" lon="2.19479">
        <ele>69.5</ele>
        <time>2023-03-29T13:39:37Z</time>
      </trkpt>
      <trkpt lat="49.84001" lon="2.1948">
        <ele>69.6</ele>
        <time>2023-03-29T13:39:38Z</time>
      </trkpt>
      <trkpt lat="49.83999" lon="2.19481">
        <ele>69.7</ele>
        <time>2023-03-29T13:39:40Z</time>
      </trkpt>
      <trkpt lat="49.83998" lon="2.19481">
        <ele>69.8</ele>
        <time>2023-03-29T13:39:42Z</time>
      </trkpt>
      <trkpt lat="49.83997" lon="2.19481">
        <ele>69.9</ele>
        <time>2023-03-29T13:39:43Z</time>
      </trkpt>
      <trkpt lat="49.83996" lon="2.19482">
        <ele>70.1</ele>
        <time>2023-03-29T13:39:44Z</time>
      </trkpt>
      <trkpt lat="49.83995" lon="2.19481">
        <ele>70.2</ele>
        <time>2023-03-29T13:39:46Z</time>
      </trkpt>
      <trkpt lat="49.83993" lon="2.19481">
        <ele>70.3</ele>
        <time>2023-03-29T13:39:47Z</time>
      </trkpt>
      <trkpt lat="49.83992" lon="2.19481">
        <ele>70.4</ele>
        <time>2023-03-29T13:39:48Z</time>
      </trkpt>
      <trkpt lat="49.83992" lon="2.19481">
        <ele>70.4</ele>
        <time>2023-03-29T13:39:49Z</time>
      </trkpt>
      <trkpt lat="49.83991" lon="2.1948">
        <ele>70.5</ele>
        <time>2023-03-29T13:39:50Z</time>
      </trkpt>
      <trkpt lat="49.83991" lon="2.1948">
        <ele>70.6</ele>
        <time>2023-03-29T13:39:52Z</time>
      </trkpt>
      <trkpt lat="49.8399" lon="2.1948">
        <ele>70.6</ele>
        <time>2023-03-29T13:39:53Z</time>
      </trkpt>
      <trkpt lat="49.8399" lon="2.19479">
        <ele>70.7</ele>
        <time>2023-03-29T13:39:54Z</time>
      </trkpt>
      <trkpt lat="49.83989" lon="2.19479">
        <ele>70.7</ele>
        <time>2023-03-29T13:39:55Z</time>
      </trkpt>
      <trkpt lat="49.83988" lon="2.19479">
        <ele>70.8</ele>
        <time>2023-03-29T13:39:57Z</time>
      </trkpt>
      <trkpt lat="49.83988" lon="2.19478">
        <ele>70.9</ele>
        <time>2023-03-29T13:39:59Z</time>
      </trkpt>
      <trkpt lat="49.83988" lon="2.19478">
        <ele>70.9</ele>
        <time>2023-03-29T13:40:00Z</time>
      </trkpt>
      <trkpt lat="49.83987" lon="2.19477">
        <ele>71</ele>
        <time>2023-03-29T13:40:01Z</time>
      </trkpt>
      <trkpt lat="49.83986" lon="2.19477">
        <ele>71.1</ele>
        <time>2023-03-29T13:40:02Z</time>
      </trkpt>
      <trkpt lat="49.83985" lon="2.19477">
        <ele>71.2</ele>
        <time>2023-03-29T13:40:03Z</time>
      </trkpt>
      <trkpt lat="49.83985" lon="2.19477">
        <ele>71.2</ele>
        <time>2023-03-29T13:40:05Z</time>
      </trkpt>
      <trkpt lat="49.83983" lon="2.19476">
        <ele>71.4</ele>
        <time>2023-03-29T13:40:06Z</time>
      </trkpt>
      <trkpt lat="49.83982" lon="2.19477">
        <ele>71.5</ele>
        <time>2023-03-29T13:40:08Z</time>
      </trkpt>
      <trkpt lat="49.83982" lon="2.19477">
        <ele>71.5</ele>
        <time>2023-03-29T13:40:09Z</time>
      </trkpt>
      <trkpt lat="49.83981" lon="2.19477">
        <ele>71.7</ele>
        <time>2023-03-29T13:40:10Z</time>
      </trkpt>
      <trkpt lat="49.83978" lon="2.19477">
        <ele>71.9</ele>
        <time>2023-03-29T13:40:11Z</time>
      </trkpt>
      <trkpt lat="49.83977" lon="2.19477">
        <ele>72.1</ele>
        <time>2023-03-29T13:40:13Z</time>
      </trkpt>
      <trkpt lat="49.83975" lon="2.19477">
        <ele>72.2</ele>
        <time>2023-03-29T13:40:14Z</time>
      </trkpt>
      <trkpt lat="49.83973" lon="2.19476">
        <ele>72.4</ele>
        <time>2023-03-29T13:40:16Z</time>
      </trkpt>
      <trkpt lat="49.83972" lon="2.19476">
        <ele>72.5</ele>
        <time>2023-03-29T13:40:17Z</time>
      </trkpt>
      <trkpt lat="49.8397" lon="2.19476">
        <ele>72.8</ele>
        <time>2023-03-29T13:40:18Z</time>
      </trkpt>
      <trkpt lat="49.83969" lon="2.19476">
        <ele>72.9</ele>
        <time>2023-03-29T13:40:19Z</time>
      </trkpt>
      <trkpt lat="49.83968" lon="2.19476">
        <ele>73</ele>
        <time>2023-03-29T13:40:20Z</time>
      </trkpt>
      <trkpt lat="49.83966" lon="2.19476">
        <ele>73.2</ele>
        <time>2023-03-29T13:40:22Z</time>
      </trkpt>
      <trkpt lat="49.83965" lon="2.19476">
        <ele>73.3</ele>
        <time>2023-03-29T13:40:23Z</time>
      </trkpt>
      <trkpt lat="49.83964" lon="2.19477">
        <ele>73.5</ele>
        <time>2023-03-29T13:40:24Z</time>
      </trkpt>
      <trkpt lat="49.83962" lon="2.19477">
        <ele>73.6</ele>
        <time>2023-03-29T13:40:25Z</time>
      </trkpt>
      <trkpt lat="49.83959" lon="2.19477">
        <ele>74</ele>
        <time>2023-03-29T13:40:26Z</time>
      </trkpt>
      <trkpt lat="49.83958" lon="2.19477">
        <ele>74.1</ele>
        <time>2023-03-29T13:40:28Z</time>
      </trkpt>
      <trkpt lat="49.83956" lon="2.19477">
        <ele>74.3</ele>
        <time>2023-03-29T13:40:30Z</time>
      </trkpt>
      <trkpt lat="49.83955" lon="2.19477">
        <ele>74.5</ele>
        <time>2023-03-29T13:40:31Z</time>
      </trkpt>
      <trkpt lat="49.83953" lon="2.19477">
        <ele>74.7</ele>
        <time>2023-03-29T13:40:32Z</time>
      </trkpt>
      <trkpt lat="49.83952" lon="2.19477">
        <ele>74.8</ele>
        <time>2023-03-29T13:40:33Z</time>
      </trkpt>
      <trkpt lat="49.83951" lon="2.19477">
        <ele>74.9</ele>
        <time>2023-03-29T13:40:34Z</time>
      </trkpt>
      <trkpt lat="49.8395" lon="2.19477">
        <ele>75</ele>
        <time>2023-03-29T13:40:35Z</time>
      </trkpt>
      <trkpt lat="49.83949" lon="2.19476">
        <ele>75.1</ele>
        <time>2023-03-29T13:40:36Z</time>
      </trkpt>
      <trkpt lat="49.83948" lon="2.19477">
        <ele>75.2</ele>
        <time>2023-03-29T13:40:38Z</time>
      </trkpt>
      <trkpt lat="49.83947" lon="2.19476">
        <ele>75.4</ele>
        <time>2023-03-29T13:40:39Z</time>
      </trkpt>
      <trkpt lat="49.83946" lon="2.19476">
        <ele>75.5</ele>
        <time>2023-03-29T13:40:40Z</time>
      </trkpt>
      <trkpt lat="49.83946" lon="2.19476">
        <ele>75.6</ele>
        <time>2023-03-29T13:40:41Z</time>
      </trkpt>
      <trkpt lat="49.83945" lon="2.19476">
        <ele>75.7</ele>
        <time>2023-03-29T13:40:43Z</time>
      </trkpt>
      <trkpt lat="49.83944" lon="2.19476">
        <ele>75.8</ele>
        <time>2023-03-29T13:40:44Z</time>
      </trkpt>
      <trkpt lat="49.83943" lon="2.19476">
        <ele>75.9</ele>
        <time>2023-03-29T13:40:45Z</time>
      </trkpt>
      <trkpt lat="49.83943" lon="2.19476">
        <ele>76</ele>
        <time>2023-03-29T13:40:46Z</time>
      </trkpt>
      <trkpt lat="49.83941" lon="2.19476">
        <ele>76.1</ele>
        <time>2023-03-29T13:40:48Z</time>
      </trkpt>
      <trkpt lat="49.83941" lon="2.19476">
        <ele>76.2</ele>
        <time>2023-03-29T13:40:50Z</time>
      </trkpt>
      <trkpt lat="49.8394" lon="2.19476">
        <ele>76.3</ele>
        <time>2023-03-29T13:40:51Z</time>
      </trkpt>
      <trkpt lat="49.83939" lon="2.19476">
        <ele>76.4</ele>
        <time>2023-03-29T13:40:52Z</time>
      </trkpt>
      <trkpt lat="49.83938" lon="2.19476">
        <ele>76.5</ele>
        <time>2023-03-29T13:40:53Z</time>
      </trkpt>
      <trkpt lat="49.83938" lon="2.19476">
        <ele>76.6</ele>
        <time>2023-03-29T13:40:54Z</time>
      </trkpt>
      <trkpt lat="49.83936" lon="2.19476">
        <ele>76.8</ele>
        <time>2023-03-29T13:40:56Z</time>
      </trkpt>
      <trkpt lat="49.83934" lon="2.19475">
        <ele>77</ele>
        <time>2023-03-29T13:40:58Z</time>
      </trkpt>
      <trkpt lat="49.83933" lon="2.19475">
        <ele>77.1</ele>
        <time>2023-03-29T13:41:00Z</time>
      </trkpt>
      <trkpt lat="49.83932" lon="2.19475">
        <ele>77.3</ele>
        <time>2023-03-29T13:41:01Z</time>
      </trkpt>
      <trkpt lat="49.83932" lon="2.19475">
        <ele>77.4</ele>
        <time>2023-03-29T13:41:03Z</time>
      </trkpt>
      <trkpt lat="49.83931" lon="2.19474">
        <ele>77.5</ele>
        <time>2023-03-29T13:41:04Z</time>
      </trkpt>
      <trkpt lat="49.8393" lon="2.19474">
        <ele>77.6</ele>
        <time>2023-03-29T13:41:05Z</time>
      </trkpt>
      <trkpt lat="49.83929" lon="2.19474">
        <ele>77.7</ele>
        <time>2023-03-29T13:41:06Z</time>
      </trkpt>
      <trkpt lat="49.83929" lon="2.19473">
        <ele>77.7</ele>
        <time>2023-03-29T13:41:08Z</time>
      </trkpt>
      <trkpt lat="49.83928" lon="2.19473">
        <ele>77.9</ele>
        <time>2023-03-29T13:41:09Z</time>
      </trkpt>
      <trkpt lat="49.83927" lon="2.19472">
        <ele>78</ele>
        <time>2023-03-29T13:41:10Z</time>
      </trkpt>
      <trkpt lat="49.83927" lon="2.19472">
        <ele>78</ele>
        <time>2023-03-29T13:41:11Z</time>
      </trkpt>
      <trkpt lat="49.83926" lon="2.19471">
        <ele>78.1</ele>
        <time>2023-03-29T13:41:12Z</time>
      </trkpt>
      <trkpt lat="49.83925" lon="2.1947">
        <ele>78.2</ele>
        <time>2023-03-29T13:41:14Z</time>
      </trkpt>
      <trkpt lat="49.83925" lon="2.1947">
        <ele>78.3</ele>
        <time>2023-03-29T13:41:15Z</time>
      </trkpt>
      <trkpt lat="49.83924" lon="2.19469">
        <ele>78.4</ele>
        <time>2023-03-29T13:41:16Z</time>
      </trkpt>
      <trkpt lat="49.83924" lon="2.19469">
        <ele>78.5</ele>
        <time>2023-03-29T13:41:17Z</time>
      </trkpt>
      <trkpt lat="49.83923" lon="2.19469">
        <ele>78.5</ele>
        <time>2023-03-29T13:41:18Z</time>
      </trkpt>
      <trkpt lat="49.83923" lon="2.19468">
        <ele>78.7</ele>
        <time>2023-03-29T13:41:19Z</time>
      </trkpt>
      <trkpt lat="49.83921" lon="2.19467">
        <ele>78.8</ele>
        <time>2023-03-29T13:41:21Z</time>
      </trkpt>
      <trkpt lat="49.83921" lon="2.19466">
        <ele>78.9</ele>
        <time>2023-03-29T13:41:23Z</time>
      </trkpt>
      <trkpt lat="49.8392" lon="2.19465">
        <ele>79</ele>
        <time>2023-03-29T13:41:24Z</time>
      </trkpt>
      <trkpt lat="49.8392" lon="2.19464">
        <ele>79.1</ele>
        <time>2023-03-29T13:41:25Z</time>
      </trkpt>
      <trkpt lat="49.83919" lon="2.19464">
        <ele>79.2</ele>
        <time>2023-03-29T13:41:26Z</time>
      </trkpt>
      <trkpt lat="49.83919" lon="2.19463">
        <ele>79.3</ele>
        <time>2023-03-29T13:41:27Z</time>
      </trkpt>
      <trkpt lat="49.83918" lon="2.19463">
        <ele>79.4</ele>
        <time>2023-03-29T13:41:29Z</time>
      </trkpt>
      <trkpt lat="49.83917" lon="2.19463">
        <ele>79.4</ele>
        <time>2023-03-29T13:41:31Z</time>
      </trkpt>
      <trkpt lat="49.83917" lon="2.19463">
        <ele>79.5</ele>
        <time>2023-03-29T13:41:32Z</time>
      </trkpt>
      <trkpt lat="49.83916" lon="2.19463">
        <ele>79.6</ele>
        <time>2023-03-29T13:41:33Z</time>
      </trkpt>
      <trkpt lat="49.83915" lon="2.19462">
        <ele>79.7</ele>
        <time>2023-03-29T13:41:34Z</time>
      </trkpt>
      <trkpt lat="49.83915" lon="2.19462">
        <ele>79.8</ele>
        <time>2023-03-29T13:41:36Z</time>
      </trkpt>
      <trkpt lat="49.83914" lon="2.19462">
        <ele>79.8</ele>
        <time>2023-03-29T13:41:38Z</time>
      </trkpt>
      <trkpt lat="49.83914" lon="2.19462">
        <ele>79.9</ele>
        <time>2023-03-29T13:41:39Z</time>
      </trkpt>
      <trkpt lat="49.83912" lon="2.19462">
        <ele>80.1</ele>
        <time>2023-03-29T13:41:41Z</time>
      </trkpt>
      <trkpt lat="49.83912" lon="2.19462">
        <ele>80.1</ele>
        <time>2023-03-29T13:41:42Z</time>
      </trkpt>
      <trkpt lat="49.83911" lon="2.19462">
        <ele>80.2</ele>
        <time>2023-03-29T13:41:43Z</time>
      </trkpt>
      <trkpt lat="49.8391" lon="2.19462">
        <ele>80.4</ele>
        <time>2023-03-29T13:41:45Z</time>
      </trkpt>
      <trkpt lat="49.83909" lon="2.19462">
        <ele>80.4</ele>
        <time>2023-03-29T13:41:46Z</time>
      </trkpt>
      <trkpt lat="49.83909" lon="2.19462">
        <ele>80.5</ele>
        <time>2023-03-29T13:41:47Z</time>
      </trkpt>
      <trkpt lat="49.83908" lon="2.19462">
        <ele>80.6</ele>
        <time>2023-03-29T13:41:48Z</time>
      </trkpt>
      <trkpt lat="49.83907" lon="2.19461">
        <ele>80.7</ele>
        <time>2023-03-29T13:41:50Z</time>
      </trkpt>
      <trkpt lat="49.83907" lon="2.19462">
        <ele>80.7</ele>
        <time>2023-03-29T13:41:51Z</time>
      </trkpt>
      <trkpt lat="49.83907" lon="2.19462">
        <ele>80.7</ele>
        <time>2023-03-29T13:41:52Z</time>
      </trkpt>
      <trkpt lat="49.83907" lon="2.19462">
        <ele>80.8</ele>
        <time>2023-03-29T13:41:53Z</time>
      </trkpt>
      <trkpt lat="49.83906" lon="2.19462">
        <ele>80.8</ele>
        <time>2023-03-29T13:41:55Z</time>
      </trkpt>
      <trkpt lat="49.83906" lon="2.19462">
        <ele>80.9</ele>
        <time>2023-03-29T13:41:56Z</time>
      </trkpt>
      <trkpt lat="49.83905" lon="2.19462">
        <ele>80.9</ele>
        <time>2023-03-29T13:41:57Z</time>
      </trkpt>
      <trkpt lat="49.83905" lon="2.19462">
        <ele>81</ele>
        <time>2023-03-29T13:41:58Z</time>
      </trkpt>
      <trkpt lat="49.83904" lon="2.19462">
        <ele>81.1</ele>
        <time>2023-03-29T13:42:00Z</time>
      </trkpt>
      <trkpt lat="49.83903" lon="2.19462">
        <ele>81.1</ele>
        <time>2023-03-29T13:42:01Z</time>
      </trkpt>
      <trkpt lat="49.83903" lon="2.19462">
        <ele>81.2</ele>
        <time>2023-03-29T13:42:03Z</time>
      </trkpt>
      <trkpt lat="49.83903" lon="2.19462">
        <ele>81.2</ele>
        <time>2023-03-29T13:42:04Z</time>
      </trkpt>
      <trkpt lat="49.83903" lon="2.19462">
        <ele>81.3</ele>
        <time>2023-03-29T13:42:05Z</time>
      </trkpt>
      <trkpt lat="49.83902" lon="2.19462">
        <ele>81.4</ele>
        <time>2023-03-29T13:42:06Z</time>
      </trkpt>
      <trkpt lat="49.83902" lon="2.19462">
        <ele>81.4</ele>
        <time>2023-03-29T13:42:07Z</time>
      </trkpt>
      <trkpt lat="49.83901" lon="2.19462">
        <ele>81.5</ele>
        <time>2023-03-29T13:42:08Z</time>
      </trkpt>
      <trkpt lat="49.839" lon="2.19462">
        <ele>81.5</ele>
        <time>2023-03-29T13:42:09Z</time>
      </trkpt>
      <trkpt lat="49.83899" lon="2.19462">
        <ele>81.6</ele>
        <time>2023-03-29T13:42:11Z</time>
      </trkpt>
      <trkpt lat="49.83898" lon="2.19462">
        <ele>81.7</ele>
        <time>2023-03-29T13:42:12Z</time>
      </trkpt>
      <trkpt lat="49.83898" lon="2.19462">
        <ele>81.8</ele>
        <time>2023-03-29T13:42:13Z</time>
      </trkpt>
      <trkpt lat="49.83897" lon="2.19462">
        <ele>82</ele>
        <time>2023-03-29T13:42:14Z</time>
      </trkpt>
      <trkpt lat="49.83896" lon="2.19462">
        <ele>82</ele>
        <time>2023-03-29T13:42:16Z</time>
      </trkpt>
      <trkpt lat="49.83895" lon="2.19462">
        <ele>82.1</ele>
        <time>2023-03-29T13:42:17Z</time>
      </trkpt>
      <trkpt lat="49.83894" lon="2.19462">
        <ele>82.2</ele>
        <time>2023-03-29T13:42:18Z</time>
      </trkpt>
      <trkpt lat="49.83893" lon="2.19462">
        <ele>82.3</ele>
        <time>2023-03-29T13:42:20Z</time>
      </trkpt>
      <trkpt lat="49.83893" lon="2.19462">
        <ele>82.4</ele>
        <time>2023-03-29T13:42:21Z</time>
      </trkpt>
      <trkpt lat="49.83892" lon="2.19462">
        <ele>82.6</ele>
        <time>2023-03-29T13:42:22Z</time>
      </trkpt>
      <trkpt lat="49.8389" lon="2.19462">
        <ele>82.8</ele>
        <time>2023-03-29T13:42:23Z</time>
      </trkpt>
      <trkpt lat="49.83889" lon="2.19462">
        <ele>82.9</ele>
        <time>2023-03-29T13:42:24Z</time>
      </trkpt>
      <trkpt lat="49.83888" lon="2.19462">
        <ele>83</ele>
        <time>2023-03-29T13:42:26Z</time>
      </trkpt>
      <trkpt lat="49.83887" lon="2.19462">
        <ele>83.1</ele>
        <time>2023-03-29T13:42:27Z</time>
      </trkpt>
      <trkpt lat="49.83886" lon="2.19462">
        <ele>83.2</ele>
        <time>2023-03-29T13:42:28Z</time>
      </trkpt>
      <trkpt lat="49.83885" lon="2.19461">
        <ele>83.3</ele>
        <time>2023-03-29T13:42:29Z</time>
      </trkpt>
      <trkpt lat="49.83883" lon="2.19461">
        <ele>83.5</ele>
        <time>2023-03-29T13:42:30Z</time>
      </trkpt>
      <trkpt lat="49.83881" lon="2.19461">
        <ele>83.8</ele>
        <time>2023-03-29T13:42:31Z</time>
      </trkpt>
      <trkpt lat="49.8388" lon="2.19461">
        <ele>84</ele>
        <time>2023-03-29T13:42:32Z</time>
      </trkpt>
      <trkpt lat="49.83879" lon="2.19462">
        <ele>84.2</ele>
        <time>2023-03-29T13:42:34Z</time>
      </trkpt>
      <trkpt lat="49.83878" lon="2.19462">
        <ele>84.3</ele>
        <time>2023-03-29T13:42:35Z</time>
      </trkpt>
      <trkpt lat="49.83876" lon="2.19462">
        <ele>84.5</ele>
        <time>2023-03-29T13:42:36Z</time>
      </trkpt>
      <trkpt lat="49.83875" lon="2.19462">
        <ele>84.6</ele>
        <time>2023-03-29T13:42:38Z</time>
      </trkpt>
      <trkpt lat="49.83874" lon="2.19462">
        <ele>84.7</ele>
        <time>2023-03-29T13:42:39Z</time>
      </trkpt>
      <trkpt lat="49.83873" lon="2.19462">
        <ele>84.8</ele>
        <time>2023-03-29T13:42:40Z</time>
      </trkpt>
      <trkpt lat="49.83872" lon="2.19462">
        <ele>84.9</ele>
        <time>2023-03-29T13:42:41Z</time>
      </trkpt>
      <trkpt lat="49.83872" lon="2.19463">
        <ele>85</ele>
        <time>2023-03-29T13:42:42Z</time>
      </trkpt>
      <trkpt lat="49.83871" lon="2.19463">
        <ele>85.1</ele>
        <time>2023-03-29T13:42:44Z</time>
      </trkpt>
      <trkpt lat="49.83871" lon="2.19463">
        <ele>85.2</ele>
        <time>2023-03-29T13:42:45Z</time>
      </trkpt>
      <trkpt lat="49.8387" lon="2.19463">
        <ele>85.2</ele>
        <time>2023-03-29T13:42:46Z</time>
      </trkpt>
      <trkpt lat="49.83869" lon="2.19464">
        <ele>85.3</ele>
        <time>2023-03-29T13:42:47Z</time>
      </trkpt>
      <trkpt lat="49.83869" lon="2.19464">
        <ele>85.4</ele>
        <time>2023-03-29T13:42:48Z</time>
      </trkpt>
      <trkpt lat="49.83868" lon="2.19465">
        <ele>85.5</ele>
        <time>2023-03-29T13:42:50Z</time>
      </trkpt>
      <trkpt lat="49.83868" lon="2.19465">
        <ele>85.5</ele>
        <time>2023-03-29T13:42:51Z</time>
      </trkpt>
      <trkpt lat="49.83868" lon="2.19466">
        <ele>85.6</ele>
        <time>2023-03-29T13:42:52Z</time>
      </trkpt>
      <trkpt lat="49.83868" lon="2.19466">
        <ele>85.6</ele>
        <time>2023-03-29T13:42:53Z</time>
      </trkpt>
      <trkpt lat="49.83868" lon="2.19466">
        <ele>85.6</ele>
        <time>2023-03-29T13:42:54Z</time>
      </trkpt>
      <trkpt lat="49.83868" lon="2.19467">
        <ele>85.7</ele>
        <time>2023-03-29T13:42:55Z</time>
      </trkpt>
      <trkpt lat="49.83867" lon="2.19468">
        <ele>85.8</ele>
        <time>2023-03-29T13:42:56Z</time>
      </trkpt>
      <trkpt lat="49.83867" lon="2.19468">
        <ele>85.9</ele>
        <time>2023-03-29T13:42:58Z</time>
      </trkpt>
      <trkpt lat="49.83867" lon="2.19469">
        <ele>85.9</ele>
        <time>2023-03-29T13:42:59Z</time>
      </trkpt>
      <trkpt lat="49.83866" lon="2.19469">
        <ele>86</ele>
        <time>2023-03-29T13:43:01Z</time>
      </trkpt>
      <trkpt lat="49.83866" lon="2.1947">
        <ele>86.1</ele>
        <time>2023-03-29T13:43:02Z</time>
      </trkpt>
      <trkpt lat="49.83866" lon="2.1947">
        <ele>86.1</ele>
        <time>2023-03-29T13:43:03Z</time>
      </trkpt>
      <trkpt lat="49.83865" lon="2.1947">
        <ele>86.2</ele>
        <time>2023-03-29T13:43:04Z</time>
      </trkpt>
      <trkpt lat="49.83865" lon="2.19471">
        <ele>86.2</ele>
        <time>2023-03-29T13:43:05Z</time>
      </trkpt>
      <trkpt lat="49.83864" lon="2.19471">
        <ele>86.3</ele>
        <time>2023-03-29T13:43:07Z</time>
      </trkpt>
      <trkpt lat="49.83863" lon="2.19471">
        <ele>86.4</ele>
        <time>2023-03-29T13:43:08Z</time>
      </trkpt>
      <trkpt lat="49.83863" lon="2.19471">
        <ele>86.5</ele>
        <time>2023-03-29T13:43:09Z</time>
      </trkpt>
      <trkpt lat="49.83862" lon="2.19471">
        <ele>86.6</ele>
        <time>2023-03-29T13:43:10Z</time>
      </trkpt>
      <trkpt lat="49.83861" lon="2.19471">
        <ele>86.7</ele>
        <time>2023-03-29T13:43:11Z</time>
      </trkpt>
      <trkpt lat="49.8386" lon="2.19471">
        <ele>86.8</ele>
        <time>2023-03-29T13:43:12Z</time>
      </trkpt>
      <trkpt lat="49.83859" lon="2.19471">
        <ele>86.9</ele>
        <time>2023-03-29T13:43:13Z</time>
      </trkpt>
      <trkpt lat="49.83859" lon="2.19472">
        <ele>87</ele>
        <time>2023-03-29T13:43:15Z</time>
      </trkpt>
      <trkpt lat="49.83858" lon="2.19471">
        <ele>87.1</ele>
        <time>2023-03-29T13:43:16Z</time>
      </trkpt>
      <trkpt lat="49.83857" lon="2.19471">
        <ele>87.2</ele>
        <time>2023-03-29T13:43:17Z</time>
      </trkpt>
      <trkpt lat="49.83856" lon="2.19472">
        <ele>87.3</ele>
        <time>2023-03-29T13:43:18Z</time>
      </trkpt>
      <trkpt lat="49.83854" lon="2.19472">
        <ele>87.5</ele>
        <time>2023-03-29T13:43:20Z</time>
      </trkpt>
      <trkpt lat="49.83853" lon="2.19473">
        <ele>87.7</ele>
        <time>2023-03-29T13:43:22Z</time>
      </trkpt>
      <trkpt lat="49.83852" lon="2.19473">
        <ele>87.8</ele>
        <time>2023-03-29T13:43:23Z</time>
      </trkpt>
      <trkpt lat="49.83851" lon="2.19473">
        <ele>87.9</ele>
        <time>2023-03-29T13:43:24Z</time>
      </trkpt>
      <trkpt lat="49.8385" lon="2.19474">
        <ele>88</ele>
        <time>2023-03-29T13:43:25Z</time>
      </trkpt>
      <trkpt lat="49.83849" lon="2.19474">
        <ele>88.1</ele>
        <time>2023-03-29T13:43:26Z</time>
      </trkpt>
      <trkpt lat="49.83847" lon="2.19474">
        <ele>88.3</ele>
        <time>2023-03-29T13:43:27Z</time>
      </trkpt>
      <trkpt lat="49.83846" lon="2.19474">
        <ele>88.4</ele>
        <time>2023-03-29T13:43:28Z</time>
      </trkpt>
      <trkpt lat="49.83845" lon="2.19474">
        <ele>88.5</ele>
        <time>2023-03-29T13:43:30Z</time>
      </trkpt>
      <trkpt lat="49.83844" lon="2.19474">
        <ele>88.6</ele>
        <time>2023-03-29T13:43:31Z</time>
      </trkpt>
      <trkpt lat="49.83842" lon="2.19474">
        <ele>88.7</ele>
        <time>2023-03-29T13:43:32Z</time>
      </trkpt>
      <trkpt lat="49.83841" lon="2.19474">
        <ele>88.8</ele>
        <time>2023-03-29T13:43:33Z</time>
      </trkpt>
      <trkpt lat="49.8384" lon="2.19474">
        <ele>88.9</ele>
        <time>2023-03-29T13:43:34Z</time>
      </trkpt>
      <trkpt lat="49.83839" lon="2.19474">
        <ele>89</ele>
        <time>2023-03-29T13:43:35Z</time>
      </trkpt>
      <trkpt lat="49.83839" lon="2.19473">
        <ele>89</ele>
        <time>2023-03-29T13:43:36Z</time>
      </trkpt>
      <trkpt lat="49.83837" lon="2.19473">
        <ele>89.1</ele>
        <time>2023-03-29T13:43:37Z</time>
      </trkpt>
      <trkpt lat="49.83837" lon="2.19473">
        <ele>89.2</ele>
        <time>2023-03-29T13:43:39Z</time>
      </trkpt>
      <trkpt lat="49.83836" lon="2.19473">
        <ele>89.2</ele>
        <time>2023-03-29T13:43:40Z</time>
      </trkpt>
      <trkpt lat="49.83835" lon="2.19473">
        <ele>89.3</ele>
        <time>2023-03-29T13:43:41Z</time>
      </trkpt>
      <trkpt lat="49.83835" lon="2.19473">
        <ele>89.4</ele>
        <time>2023-03-29T13:43:42Z</time>
      </trkpt>
      <trkpt lat="49.83834" lon="2.19473">
        <ele>89.4</ele>
        <time>2023-03-29T13:43:44Z</time>
      </trkpt>
      <trkpt lat="49.83833" lon="2.19473">
        <ele>89.5</ele>
        <time>2023-03-29T13:43:45Z</time>
      </trkpt>
      <trkpt lat="49.83833" lon="2.19473">
        <ele>89.5</ele>
        <time>2023-03-29T13:43:46Z</time>
      </trkpt>
      <trkpt lat="49.83831" lon="2.19474">
        <ele>89.6</ele>
        <time>2023-03-29T13:43:47Z</time>
      </trkpt>
      <trkpt lat="49.8383" lon="2.19474">
        <ele>89.7</ele>
        <time>2023-03-29T13:43:49Z</time>
      </trkpt>
      <trkpt lat="49.83829" lon="2.19474">
        <ele>89.8</ele>
        <time>2023-03-29T13:43:50Z</time>
      </trkpt>
      <trkpt lat="49.83828" lon="2.19474">
        <ele>89.9</ele>
        <time>2023-03-29T13:43:51Z</time>
      </trkpt>
      <trkpt lat="49.83827" lon="2.19474">
        <ele>89.9</ele>
        <time>2023-03-29T13:43:52Z</time>
      </trkpt>
      <trkpt lat="49.83826" lon="2.19474">
        <ele>90</ele>
        <time>2023-03-29T13:43:53Z</time>
      </trkpt>
      <trkpt lat="49.83825" lon="2.19473">
        <ele>90.1</ele>
        <time>2023-03-29T13:43:54Z</time>
      </trkpt>
      <trkpt lat="49.83822" lon="2.19473">
        <ele>90.3</ele>
        <time>2023-03-29T13:43:55Z</time>
      </trkpt>
      <trkpt lat="49.83821" lon="2.19473">
        <ele>90.4</ele>
        <time>2023-03-29T13:43:57Z</time>
      </trkpt>
      <trkpt lat="49.8382" lon="2.19473">
        <ele>90.4</ele>
        <time>2023-03-29T13:43:58Z</time>
      </trkpt>
      <trkpt lat="49.83819" lon="2.19472">
        <ele>90.6</ele>
        <time>2023-03-29T13:43:59Z</time>
      </trkpt>
      <trkpt lat="49.83818" lon="2.19472">
        <ele>90.6</ele>
        <time>2023-03-29T13:44:00Z</time>
      </trkpt>
      <trkpt lat="49.83816" lon="2.19472">
        <ele>90.8</ele>
        <time>2023-03-29T13:44:01Z</time>
      </trkpt>
      <trkpt lat="49.83814" lon="2.19471">
        <ele>90.9</ele>
        <time>2023-03-29T13:44:03Z</time>
      </trkpt>
      <trkpt lat="49.83813" lon="2.19471">
        <ele>91</ele>
        <time>2023-03-29T13:44:04Z</time>
      </trkpt>
      <trkpt lat="49.83811" lon="2.19471">
        <ele>91.2</ele>
        <time>2023-03-29T13:44:05Z</time>
      </trkpt>
      <trkpt lat="49.83809" lon="2.1947">
        <ele>91.3</ele>
        <time>2023-03-29T13:44:06Z</time>
      </trkpt>
      <trkpt lat="49.83808" lon="2.1947">
        <ele>91.4</ele>
        <time>2023-03-29T13:44:07Z</time>
      </trkpt>
      <trkpt lat="49.83806" lon="2.19469">
        <ele>91.6</ele>
        <time>2023-03-29T13:44:09Z</time>
      </trkpt>
      <trkpt lat="49.83804" lon="2.19469">
        <ele>91.7</ele>
        <time>2023-03-29T13:44:11Z</time>
      </trkpt>
      <trkpt lat="49.83803" lon="2.19469">
        <ele>91.8</ele>
        <time>2023-03-29T13:44:13Z</time>
      </trkpt>
      <trkpt lat="49.83802" lon="2.19469">
        <ele>91.9</ele>
        <time>2023-03-29T13:44:14Z</time>
      </trkpt>
      <trkpt lat="49.83802" lon="2.19469">
        <ele>91.9</ele>
        <time>2023-03-29T13:44:15Z</time>
      </trkpt>
      <trkpt lat="49.83801" lon="2.19469">
        <ele>92</ele>
        <time>2023-03-29T13:44:16Z</time>
      </trkpt>
      <trkpt lat="49.838" lon="2.19469">
        <ele>92</ele>
        <time>2023-03-29T13:44:18Z</time>
      </trkpt>
      <trkpt lat="49.838" lon="2.19469">
        <ele>92</ele>
        <time>2023-03-29T13:44:19Z</time>
      </trkpt>
      <trkpt lat="49.83799" lon="2.19469">
        <ele>92.1</ele>
        <time>2023-03-29T13:44:20Z</time>
      </trkpt>
      <trkpt lat="49.83798" lon="2.19469">
        <ele>92.1</ele>
        <time>2023-03-29T13:44:21Z</time>
      </trkpt>
      <trkpt lat="49.83797" lon="2.19469">
        <ele>92.2</ele>
        <time>2023-03-29T13:44:22Z</time>
      </trkpt>
      <trkpt lat="49.83797" lon="2.19469">
        <ele>92.3</ele>
        <time>2023-03-29T13:44:23Z</time>
      </trkpt>
      <trkpt lat="49.83796" lon="2.19468">
        <ele>92.3</ele>
        <time>2023-03-29T13:44:25Z</time>
      </trkpt>
      <trkpt lat="49.83795" lon="2.19468">
        <ele>92.4</ele>
        <time>2023-03-29T13:44:27Z</time>
      </trkpt>
      <trkpt lat="49.83795" lon="2.19469">
        <ele>92.4</ele>
        <time>2023-03-29T13:44:28Z</time>
      </trkpt>
      <trkpt lat="49.83794" lon="2.19469">
        <ele>92.5</ele>
        <time>2023-03-29T13:44:29Z</time>
      </trkpt>
      <trkpt lat="49.83792" lon="2.19469">
        <ele>92.6</ele>
        <time>2023-03-29T13:44:30Z</time>
      </trkpt>
      <trkpt lat="49.83792" lon="2.19469">
        <ele>92.6</ele>
        <time>2023-03-29T13:44:31Z</time>
      </trkpt>
      <trkpt lat="49.83791" lon="2.19469">
        <ele>92.7</ele>
        <time>2023-03-29T13:44:33Z</time>
      </trkpt>
      <trkpt lat="49.8379" lon="2.19469">
        <ele>92.8</ele>
        <time>2023-03-29T13:44:34Z</time>
      </trkpt>
      <trkpt lat="49.83789" lon="2.1947">
        <ele>92.8</ele>
        <time>2023-03-29T13:44:35Z</time>
      </trkpt>
      <trkpt lat="49.83787" lon="2.1947">
        <ele>93</ele>
        <time>2023-03-29T13:44:36Z</time>
      </trkpt>
      <trkpt lat="49.83786" lon="2.1947">
        <ele>93</ele>
        <time>2023-03-29T13:44:37Z</time>
      </trkpt>
      <trkpt lat="49.83786" lon="2.1947">
        <ele>93.1</ele>
        <time>2023-03-29T13:44:38Z</time>
      </trkpt>
      <trkpt lat="49.83784" lon="2.1947">
        <ele>93.2</ele>
        <time>2023-03-29T13:44:40Z</time>
      </trkpt>
      <trkpt lat="49.83783" lon="2.1947">
        <ele>93.2</ele>
        <time>2023-03-29T13:44:41Z</time>
      </trkpt>
      <trkpt lat="49.83782" lon="2.1947">
        <ele>93.3</ele>
        <time>2023-03-29T13:44:42Z</time>
      </trkpt>
      <trkpt lat="49.83781" lon="2.1947">
        <ele>93.4</ele>
        <time>2023-03-29T13:44:43Z</time>
      </trkpt>
      <trkpt lat="49.8378" lon="2.19471">
        <ele>93.5</ele>
        <time>2023-03-29T13:44:44Z</time>
      </trkpt>
      <trkpt lat="49.83778" lon="2.19471">
        <ele>93.6</ele>
        <time>2023-03-29T13:44:45Z</time>
      </trkpt>
      <trkpt lat="49.83776" lon="2.19471">
        <ele>93.7</ele>
        <time>2023-03-29T13:44:47Z</time>
      </trkpt>
      <trkpt lat="49.83775" lon="2.19471">
        <ele>93.8</ele>
        <time>2023-03-29T13:44:49Z</time>
      </trkpt>
      <trkpt lat="49.83775" lon="2.19471">
        <ele>93.8</ele>
        <time>2023-03-29T13:44:50Z</time>
      </trkpt>
      <trkpt lat="49.83773" lon="2.1947">
        <ele>93.9</ele>
        <time>2023-03-29T13:44:51Z</time>
      </trkpt>
      <trkpt lat="49.83772" lon="2.1947">
        <ele>94</ele>
        <time>2023-03-29T13:44:53Z</time>
      </trkpt>
      <trkpt lat="49.83772" lon="2.1947">
        <ele>94</ele>
        <time>2023-03-29T13:44:54Z</time>
      </trkpt>
      <trkpt lat="49.83771" lon="2.1947">
        <ele>94.1</ele>
        <time>2023-03-29T13:44:55Z</time>
      </trkpt>
      <trkpt lat="49.8377" lon="2.1947">
        <ele>94.1</ele>
        <time>2023-03-29T13:44:57Z</time>
      </trkpt>
      <trkpt lat="49.83769" lon="2.1947">
        <ele>94.2</ele>
        <time>2023-03-29T13:44:58Z</time>
      </trkpt>
      <trkpt lat="49.83768" lon="2.1947">
        <ele>94.2</ele>
        <time>2023-03-29T13:45:00Z</time>
      </trkpt>
      <trkpt lat="49.83767" lon="2.1947">
        <ele>94.3</ele>
        <time>2023-03-29T13:45:01Z</time>
      </trkpt>
      <trkpt lat="49.83766" lon="2.1947">
        <ele>94.4</ele>
        <time>2023-03-29T13:45:02Z</time>
      </trkpt>
      <trkpt lat="49.83764" lon="2.1947">
        <ele>94.5</ele>
        <time>2023-03-29T13:45:04Z</time>
      </trkpt>
      <trkpt lat="49.83764" lon="2.1947">
        <ele>94.5</ele>
        <time>2023-03-29T13:45:06Z</time>
      </trkpt>
      <trkpt lat="49.83763" lon="2.1947">
        <ele>94.6</ele>
        <time>2023-03-29T13:45:07Z</time>
      </trkpt>
      <trkpt lat="49.83762" lon="2.19471">
        <ele>94.6</ele>
        <time>2023-03-29T13:45:08Z</time>
      </trkpt>
      <trkpt lat="49.83761" lon="2.19471">
        <ele>94.7</ele>
        <time>2023-03-29T13:45:10Z</time>
      </trkpt>
      <trkpt lat="49.8376" lon="2.19471">
        <ele>94.8</ele>
        <time>2023-03-29T13:45:11Z</time>
      </trkpt>
      <trkpt lat="49.8376" lon="2.19471">
        <ele>94.8</ele>
        <time>2023-03-29T13:45:12Z</time>
      </trkpt>
      <trkpt lat="49.83759" lon="2.19472">
        <ele>94.8</ele>
        <time>2023-03-29T13:45:13Z</time>
      </trkpt>
      <trkpt lat="49.83757" lon="2.19472">
        <ele>94.9</ele>
        <time>2023-03-29T13:45:15Z</time>
      </trkpt>
      <trkpt lat="49.83757" lon="2.19472">
        <ele>95</ele>
        <time>2023-03-29T13:45:16Z</time>
      </trkpt>
      <trkpt lat="49.83756" lon="2.19472">
        <ele>95</ele>
        <time>2023-03-29T13:45:18Z</time>
      </trkpt>
      <trkpt lat="49.83755" lon="2.19472">
        <ele>95.1</ele>
        <time>2023-03-29T13:45:19Z</time>
      </trkpt>
      <trkpt lat="49.83755" lon="2.19472">
        <ele>95.1</ele>
        <time>2023-03-29T13:45:20Z</time>
      </trkpt>
      <trkpt lat="49.83754" lon="2.19471">
        <ele>95.2</ele>
        <time>2023-03-29T13:45:21Z</time>
      </trkpt>
      <trkpt lat="49.83753" lon="2.19471">
        <ele>95.2</ele>
        <time>2023-03-29T13:45:23Z</time>
      </trkpt>
      <trkpt lat="49.83752" lon="2.19471">
        <ele>95.3</ele>
        <time>2023-03-29T13:45:24Z</time>
      </trkpt>
      <trkpt lat="49.83752" lon="2.1947">
        <ele>95.3</ele>
        <time>2023-03-29T13:45:25Z</time>
      </trkpt>
      <trkpt lat="49.83751" lon="2.1947">
        <ele>95.4</ele>
        <time>2023-03-29T13:45:26Z</time>
      </trkpt>
      <trkpt lat="49.8375" lon="2.19469">
        <ele>95.4</ele>
        <time>2023-03-29T13:45:27Z</time>
      </trkpt>
      <trkpt lat="49.83749" lon="2.19469">
        <ele>95.5</ele>
        <time>2023-03-29T13:45:28Z</time>
      </trkpt>
      <trkpt lat="49.83748" lon="2.19468">
        <ele>95.6</ele>
        <time>2023-03-29T13:45:30Z</time>
      </trkpt>
      <trkpt lat="49.83747" lon="2.19468">
        <ele>95.6</ele>
        <time>2023-03-29T13:45:31Z</time>
      </trkpt>
      <trkpt lat="49.83746" lon="2.19467">
        <ele>95.7</ele>
        <time>2023-03-29T13:45:32Z</time>
      </trkpt>
      <trkpt lat="49.83744" lon="2.19467">
        <ele>95.8</ele>
        <time>2023-03-29T13:45:33Z</time>
      </trkpt>
      <trkpt lat="49.83742" lon="2.19466">
        <ele>95.9</ele>
        <time>2023-03-29T13:45:35Z</time>
      </trkpt>
      <trkpt lat="49.83741" lon="2.19466">
        <ele>96</ele>
        <time>2023-03-29T13:45:36Z</time>
      </trkpt>
      <trkpt lat="49.8374" lon="2.19466">
        <ele>96.1</ele>
        <time>2023-03-29T13:45:38Z</time>
      </trkpt>
      <trkpt lat="49.83739" lon="2.19466">
        <ele>96.1</ele>
        <time>2023-03-29T13:45:39Z</time>
      </trkpt>
      <trkpt lat="49.83738" lon="2.19465">
        <ele>96.2</ele>
        <time>2023-03-29T13:45:40Z</time>
      </trkpt>
      <trkpt lat="49.83737" lon="2.19465">
        <ele>96.3</ele>
        <time>2023-03-29T13:45:41Z</time>
      </trkpt>
      <trkpt lat="49.83735" lon="2.19465">
        <ele>96.4</ele>
        <time>2023-03-29T13:45:42Z</time>
      </trkpt>
      <trkpt lat="49.83734" lon="2.19465">
        <ele>96.4</ele>
        <time>2023-03-29T13:45:43Z</time>
      </trkpt>
      <trkpt lat="49.83733" lon="2.19464">
        <ele>96.5</ele>
        <time>2023-03-29T13:45:44Z</time>
      </trkpt>
      <trkpt lat="49.83731" lon="2.19464">
        <ele>96.6</ele>
        <time>2023-03-29T13:45:46Z</time>
      </trkpt>
      <trkpt lat="49.8373" lon="2.19464">
        <ele>96.7</ele>
        <time>2023-03-29T13:45:47Z</time>
      </trkpt>
      <trkpt lat="49.8373" lon="2.19464">
        <ele>96.7</ele>
        <time>2023-03-29T13:45:48Z</time>
      </trkpt>
      <trkpt lat="49.83728" lon="2.19463">
        <ele>96.8</ele>
        <time>2023-03-29T13:45:49Z</time>
      </trkpt>
      <trkpt lat="49.83727" lon="2.19463">
        <ele>96.9</ele>
        <time>2023-03-29T13:45:51Z</time>
      </trkpt>
      <trkpt lat="49.83726" lon="2.19463">
        <ele>96.9</ele>
        <time>2023-03-29T13:45:52Z</time>
      </trkpt>
      <trkpt lat="49.83725" lon="2.19463">
        <ele>97</ele>
        <time>2023-03-29T13:45:53Z</time>
      </trkpt>
      <trkpt lat="49.83724" lon="2.19462">
        <ele>97.1</ele>
        <time>2023-03-29T13:45:54Z</time>
      </trkpt>
      <trkpt lat="49.83722" lon="2.19462">
        <ele>97.2</ele>
        <time>2023-03-29T13:45:56Z</time>
      </trkpt>
      <trkpt lat="49.83721" lon="2.19462">
        <ele>97.2</ele>
        <time>2023-03-29T13:45:57Z</time>
      </trkpt>
      <trkpt lat="49.8372" lon="2.19462">
        <ele>97.3</ele>
        <time>2023-03-29T13:45:58Z</time>
      </trkpt>
      <trkpt lat="49.83718" lon="2.19462">
        <ele>97.4</ele>
        <time>2023-03-29T13:45:59Z</time>
      </trkpt>
      <trkpt lat="49.83717" lon="2.19462">
        <ele>97.4</ele>
        <time>2023-03-29T13:46:00Z</time>
      </trkpt>
      <trkpt lat="49.83716" lon="2.19462">
        <ele>97.5</ele>
        <time>2023-03-29T13:46:02Z</time>
      </trkpt>
      <trkpt lat="49.83716" lon="2.19462">
        <ele>97.5</ele>
        <time>2023-03-29T13:46:03Z</time>
      </trkpt>
      <trkpt lat="49.83715" lon="2.19462">
        <ele>97.6</ele>
        <time>2023-03-29T13:46:04Z</time>
      </trkpt>
      <trkpt lat="49.83714" lon="2.19462">
        <ele>97.6</ele>
        <time>2023-03-29T13:46:05Z</time>
      </trkpt>
      <trkpt lat="49.83713" lon="2.19462">
        <ele>97.7</ele>
        <time>2023-03-29T13:46:06Z</time>
      </trkpt>
      <trkpt lat="49.83712" lon="2.19461">
        <ele>97.7</ele>
        <time>2023-03-29T13:46:07Z</time>
      </trkpt>
      <trkpt lat="49.83711" lon="2.19461">
        <ele>97.8</ele>
        <time>2023-03-29T13:46:08Z</time>
      </trkpt>
      <trkpt lat="49.8371" lon="2.19461">
        <ele>97.8</ele>
        <time>2023-03-29T13:46:10Z</time>
      </trkpt>
      <trkpt lat="49.83709" lon="2.19461">
        <ele>97.9</ele>
        <time>2023-03-29T13:46:11Z</time>
      </trkpt>
      <trkpt lat="49.83708" lon="2.19461">
        <ele>97.9</ele>
        <time>2023-03-29T13:46:12Z</time>
      </trkpt>
      <trkpt lat="49.83707" lon="2.19461">
        <ele>98</ele>
        <time>2023-03-29T13:46:13Z</time>
      </trkpt>
      <trkpt lat="49.83706" lon="2.19461">
        <ele>98.1</ele>
        <time>2023-03-29T13:46:14Z</time>
      </trkpt>
      <trkpt lat="49.83705" lon="2.19461">
        <ele>98.1</ele>
        <time>2023-03-29T13:46:15Z</time>
      </trkpt>
      <trkpt lat="49.83704" lon="2.19462">
        <ele>98.2</ele>
        <time>2023-03-29T13:46:16Z</time>
      </trkpt>
      <trkpt lat="49.83702" lon="2.19462">
        <ele>98.2</ele>
        <time>2023-03-29T13:46:17Z</time>
      </trkpt>
      <trkpt lat="49.83701" lon="2.19462">
        <ele>98.3</ele>
        <time>2023-03-29T13:46:19Z</time>
      </trkpt>
      <trkpt lat="49.837" lon="2.19462">
        <ele>98.4</ele>
        <time>2023-03-29T13:46:20Z</time>
      </trkpt>
      <trkpt lat="49.83699" lon="2.19462">
        <ele>98.4</ele>
        <time>2023-03-29T13:46:21Z</time>
      </trkpt>
      <trkpt lat="49.83698" lon="2.19462">
        <ele>98.5</ele>
        <time>2023-03-29T13:46:22Z</time>
      </trkpt>
      <trkpt lat="49.83697" lon="2.19463">
        <ele>98.5</ele>
        <time>2023-03-29T13:46:23Z</time>
      </trkpt>
      <trkpt lat="49.83696" lon="2.19463">
        <ele>98.6</ele>
        <time>2023-03-29T13:46:25Z</time>
      </trkpt>
      <trkpt lat="49.83695" lon="2.19463">
        <ele>98.6</ele>
        <time>2023-03-29T13:46:26Z</time>
      </trkpt>
      <trkpt lat="49.83694" lon="2.19463">
        <ele>98.6</ele>
        <time>2023-03-29T13:46:27Z</time>
      </trkpt>
      <trkpt lat="49.83693" lon="2.19463">
        <ele>98.7</ele>
        <time>2023-03-29T13:46:28Z</time>
      </trkpt>
      <trkpt lat="49.83692" lon="2.19463">
        <ele>98.8</ele>
        <time>2023-03-29T13:46:29Z</time>
      </trkpt>
      <trkpt lat="49.83691" lon="2.19463">
        <ele>98.8</ele>
        <time>2023-03-29T13:46:31Z</time>
      </trkpt>
      <trkpt lat="49.8369" lon="2.19463">
        <ele>98.8</ele>
        <time>2023-03-29T13:46:32Z</time>
      </trkpt>
      <trkpt lat="49.8369" lon="2.19463">
        <ele>98.9</ele>
        <time>2023-03-29T13:46:33Z</time>
      </trkpt>
      <trkpt lat="49.83689" lon="2.19464">
        <ele>98.9</ele>
        <time>2023-03-29T13:46:34Z</time>
      </trkpt>
      <trkpt lat="49.83687" lon="2.19464">
        <ele>99</ele>
        <time>2023-03-29T13:46:35Z</time>
      </trkpt>
      <trkpt lat="49.83686" lon="2.19464">
        <ele>99</ele>
        <time>2023-03-29T13:46:36Z</time>
      </trkpt>
      <trkpt lat="49.83686" lon="2.19464">
        <ele>99</ele>
        <time>2023-03-29T13:46:38Z</time>
      </trkpt>
      <trkpt lat="49.83685" lon="2.19464">
        <ele>99.1</ele>
        <time>2023-03-29T13:46:39Z</time>
      </trkpt>
      <trkpt lat="49.83684" lon="2.19465">
        <ele>99.1</ele>
        <time>2023-03-29T13:46:40Z</time>
      </trkpt>
      <trkpt lat="49.83683" lon="2.19465">
        <ele>99.1</ele>
        <time>2023-03-29T13:46:41Z</time>
      </trkpt>
      <trkpt lat="49.83683" lon="2.19465">
        <ele>99.2</ele>
        <time>2023-03-29T13:46:43Z</time>
      </trkpt>
      <trkpt lat="49.83682" lon="2.19466">
        <ele>99.2</ele>
        <time>2023-03-29T13:46:44Z</time>
      </trkpt>
      <trkpt lat="49.83681" lon="2.19466">
        <ele>99.2</ele>
        <time>2023-03-29T13:46:45Z</time>
      </trkpt>
      <trkpt lat="49.8368" lon="2.19467">
        <ele>99.3</ele>
        <time>2023-03-29T13:46:46Z</time>
      </trkpt>
      <trkpt lat="49.8368" lon="2.19467">
        <ele>99.3</ele>
        <time>2023-03-29T13:46:47Z</time>
      </trkpt>
      <trkpt lat="49.83679" lon="2.19466">
        <ele>99.3</ele>
        <time>2023-03-29T13:46:48Z</time>
      </trkpt>
      <trkpt lat="49.83679" lon="2.19466">
        <ele>99.3</ele>
        <time>2023-03-29T13:46:50Z</time>
      </trkpt>
      <trkpt lat="49.83678" lon="2.19467">
        <ele>99.4</ele>
        <time>2023-03-29T13:46:51Z</time>
      </trkpt>
      <trkpt lat="49.83678" lon="2.19467">
        <ele>99.4</ele>
        <time>2023-03-29T13:46:52Z</time>
      </trkpt>
      <trkpt lat="49.83677" lon="2.19466">
        <ele>99.4</ele>
        <time>2023-03-29T13:46:53Z</time>
      </trkpt>
      <trkpt lat="49.83676" lon="2.19466">
        <ele>99.4</ele>
        <time>2023-03-29T13:46:54Z</time>
      </trkpt>
      <trkpt lat="49.83675" lon="2.19466">
        <ele>99.4</ele>
        <time>2023-03-29T13:46:55Z</time>
      </trkpt>
      <trkpt lat="49.83675" lon="2.19465">
        <ele>99.5</ele>
        <time>2023-03-29T13:46:56Z</time>
      </trkpt>
      <trkpt lat="49.83674" lon="2.19464">
        <ele>99.5</ele>
        <time>2023-03-29T13:46:58Z</time>
      </trkpt>
      <trkpt lat="49.83674" lon="2.19463">
        <ele>99.5</ele>
        <time>2023-03-29T13:46:59Z</time>
      </trkpt>
      <trkpt lat="49.83674" lon="2.19462">
        <ele>99.5</ele>
        <time>2023-03-29T13:47:00Z</time>
      </trkpt>
      <trkpt lat="49.83674" lon="2.19461">
        <ele>99.6</ele>
        <time>2023-03-29T13:47:01Z</time>
      </trkpt>
      <trkpt lat="49.83675" lon="2.1946">
        <ele>99.6</ele>
        <time>2023-03-29T13:47:02Z</time>
      </trkpt>
      <trkpt lat="49.83675" lon="2.19459">
        <ele>99.6</ele>
        <time>2023-03-29T13:47:04Z</time>
      </trkpt>
      <trkpt lat="49.83675" lon="2.19459">
        <ele>99.6</ele>
        <time>2023-03-29T13:47:05Z</time>
      </trkpt>
      <trkpt lat="49.83675" lon="2.19459">
        <ele>99.6</ele>
        <time>2023-03-29T13:47:07Z</time>
      </trkpt>
      <trkpt lat="49.83675" lon="2.1946">
        <ele>99.6</ele>
        <time>2023-03-29T13:47:08Z</time>
      </trkpt>
      <trkpt lat="49.83675" lon="2.1946">
        <ele>99.6</ele>
        <time>2023-03-29T13:47:10Z</time>
      </trkpt>
      <trkpt lat="49.83675" lon="2.1946">
        <ele>99.6</ele>
        <time>2023-03-29T13:47:11Z</time>
      </trkpt>
      <trkpt lat="49.83675" lon="2.1946">
        <ele>99.6</ele>
        <time>2023-03-29T13:47:13Z</time>
      </trkpt>
      <trkpt lat="49.83675" lon="2.1946">
        <ele>99.6</ele>
        <time>2023-03-29T13:47:14Z</time>
      </trkpt>
      <trkpt lat="49.83675" lon="2.1946">
        <ele>99.6</ele>
        <time>2023-03-29T13:47:15Z</time>
      </trkpt>
      <trkpt lat="49.83675" lon="2.1946">
        <ele>99.6</ele>
        <time>2023-03-29T13:47:17Z</time>
      </trkpt>
      <trkpt lat="49.83675" lon="2.1946">
        <ele>99.6</ele>
        <time>2023-03-29T13:47:18Z</time>
      </trkpt>
      <trkpt lat="49.83675" lon="2.1946">
        <ele>99.6</ele>
        <time>2023-03-29T13:47:20Z</time>
      </trkpt>
      <trkpt lat="49.83675" lon="2.19461">
        <ele>99.6</ele>
        <time>2023-03-29T13:47:21Z</time>
      </trkpt>
      <trkpt lat="49.83675" lon="2.19461">
        <ele>99.6</ele>
        <time>2023-03-29T13:47:23Z</time>
      </trkpt>
      <trkpt lat="49.83676" lon="2.19461">
        <ele>99.6</ele>
        <time>2023-03-29T13:47:24Z</time>
      </trkpt>
      <trkpt lat="49.83676" lon="2.19461">
        <ele>99.6</ele>
        <time>2023-03-29T13:47:25Z</time>
      </trkpt>
      <trkpt lat="49.83676" lon="2.19461">
        <ele>99.6</ele>
        <time>2023-03-29T13:47:26Z</time>
      </trkpt>
      <trkpt lat="49.83676" lon="2.19461">
        <ele>99.6</ele>
        <time>2023-03-29T13:47:27Z</time>
      </trkpt>
      <trkpt lat="49.83676" lon="2.19461">
        <ele>99.7</ele>
        <time>2023-03-29T13:47:28Z</time>
      </trkpt>
      <trkpt lat="49.83676" lon="2.19461">
        <ele>99.7</ele>
        <time>2023-03-29T13:47:29Z</time>
      </trkpt>
      <trkpt lat="49.83676" lon="2.19462">
        <ele>99.7</ele>
        <time>2023-03-29T13:47:30Z</time>
      </trkpt>
      <trkpt lat="49.83676" lon="2.19462">
        <ele>99.7</ele>
        <time>2023-03-29T13:47:31Z</time>
      </trkpt>
      <trkpt lat="49.83676" lon="2.19462">
        <ele>99.7</ele>
        <time>2023-03-29T13:47:32Z</time>
      </trkpt>
      <trkpt lat="49.83676" lon="2.19462">
        <ele>99.7</ele>
        <time>2023-03-29T13:47:33Z</time>
      </trkpt>
      <trkpt lat="49.83676" lon="2.19462">
        <ele>99.7</ele>
        <time>2023-03-29T13:47:34Z</time>
      </trkpt>
      <trkpt lat="49.83676" lon="2.19462">
        <ele>99.7</ele>
        <time>2023-03-29T13:47:35Z</time>
      </trkpt>
      <trkpt lat="49.83676" lon="2.19462">
        <ele>99.7</ele>
        <time>2023-03-29T13:47:36Z</time>
      </trkpt>
      <trkpt lat="49.83676" lon="2.19462">
        <ele>99.7</ele>
        <time>2023-03-29T13:47:37Z</time>
      </trkpt>
      <trkpt lat="49.83676" lon="2.19462">
        <ele>99.7</ele>
        <time>2023-03-29T13:47:38Z</time>
      </trkpt>
      <trkpt lat="49.83677" lon="2.19463">
        <ele>99.7</ele>
        <time>2023-03-29T13:47:39Z</time>
      </trkpt>
      <trkpt lat="49.83677" lon="2.19463">
        <ele>99.7</ele>
        <time>2023-03-29T13:47:40Z</time>
      </trkpt>
      <trkpt lat="49.83677" lon="2.19463">
        <ele>99.7</ele>
        <time>2023-03-29T13:47:41Z</time>
      </trkpt>
      <trkpt lat="49.83677" lon="2.19463">
        <ele>99.7</ele>
        <time>2023-03-29T13:47:42Z</time>
      </trkpt>
      <trkpt lat="49.83677" lon="2.19463">
        <ele>99.7</ele>
        <time>2023-03-29T13:47:43Z</time>
      </trkpt>
      <trkpt lat="49.83677" lon="2.19463">
        <ele>99.7</ele>
        <time>2023-03-29T13:47:44Z</time>
      </trkpt>
      <trkpt lat="49.83677" lon="2.19463">
        <ele>99.7</ele>
        <time>2023-03-29T13:47:45Z</time>
      </trkpt>
      <trkpt lat="49.83677" lon="2.19463">
        <ele>99.7</ele>
        <time>2023-03-29T13:47:46Z</time>
      </trkpt>
      <trkpt lat="49.83677" lon="2.19463">
        <ele>99.7</ele>
        <time>2023-03-29T13:47:47Z</time>
      </trkpt>
      <trkpt lat="49.83677" lon="2.19464">
        <ele>99.7</ele>
        <time>2023-03-29T13:47:48Z</time>
      </trkpt>
      <trkpt lat="49.83677" lon="2.19464">
        <ele>99.7</ele>
        <time>2023-03-29T13:47:49Z</time>
      </trkpt>
      <trkpt lat="49.83677" lon="2.19464">
        <ele>99.7</ele>
        <time>2023-03-29T13:47:50Z</time>
      </trkpt>
      <trkpt lat="49.83677" lon="2.19464">
        <ele>99.7</ele>
        <time>2023-03-29T13:47:51Z</time>
      </trkpt>
      <trkpt lat="49.83678" lon="2.19465">
        <ele>99.8</ele>
        <time>2023-03-29T13:47:52Z</time>
      </trkpt>
      <trkpt lat="49.83677" lon="2.19465">
        <ele>99.8</ele>
        <time>2023-03-29T13:47:53Z</time>
      </trkpt>
      <trkpt lat="49.83677" lon="2.19465">
        <ele>99.8</ele>
        <time>2023-03-29T13:47:54Z</time>
      </trkpt>
      <trkpt lat="49.83677" lon="2.19465">
        <ele>99.8</ele>
        <time>2023-03-29T13:47:55Z</time>
      </trkpt>
      <trkpt lat="49.83678" lon="2.19465">
        <ele>99.8</ele>
        <time>2023-03-29T13:47:56Z</time>
      </trkpt>
      <trkpt lat="49.83678" lon="2.19464">
        <ele>99.8</ele>
        <time>2023-03-29T13:47:58Z</time>
      </trkpt>
      <trkpt lat="49.83678" lon="2.19464">
        <ele>99.8</ele>
        <time>2023-03-29T13:47:59Z</time>
      </trkpt>
      <trkpt lat="49.83678" lon="2.19464">
        <ele>99.8</ele>
        <time>2023-03-29T13:48:00Z</time>
      </trkpt>
      <trkpt lat="49.83678" lon="2.19464">
        <ele>99.8</ele>
        <time>2023-03-29T13:48:02Z</time>
      </trkpt>
      <trkpt lat="49.83678" lon="2.19464">
        <ele>99.8</ele>
        <time>2023-03-29T13:48:03Z</time>
      </trkpt>
      <trkpt lat="49.83679" lon="2.19464">
        <ele>99.8</ele>
        <time>2023-03-29T13:48:05Z</time>
      </trkpt>
      <trkpt lat="49.83679" lon="2.19464">
        <ele>99.8</ele>
        <time>2023-03-29T13:48:06Z</time>
      </trkpt>
      <trkpt lat="49.83679" lon="2.19465">
        <ele>99.8</ele>
        <time>2023-03-29T13:48:08Z</time>
      </trkpt>
      <trkpt lat="49.83679" lon="2.19465">
        <ele>99.8</ele>
        <time>2023-03-29T13:48:09Z</time>
      </trkpt>
      <trkpt lat="49.83679" lon="2.19465">
        <ele>99.8</ele>
        <time>2023-03-29T13:48:10Z</time>
      </trkpt>
      <trkpt lat="49.83679" lon="2.19465">
        <ele>99.8</ele>
        <time>2023-03-29T13:48:11Z</time>
      </trkpt>
      <trkpt lat="49.83679" lon="2.19464">
        <ele>99.8</ele>
        <time>2023-03-29T13:48:12Z</time>
      </trkpt>
      <trkpt lat="49.83679" lon="2.19464">
        <ele>99.8</ele>
        <time>2023-03-29T13:48:13Z</time>
      </trkpt>
      <trkpt lat="49.83679" lon="2.19464">
        <ele>99.8</ele>
        <time>2023-03-29T13:48:14Z</time>
      </trkpt>
      <trkpt lat="49.83679" lon="2.19464">
        <ele>99.8</ele>
        <time>2023-03-29T13:48:15Z</time>
      </trkpt>
      <trkpt lat="49.83679" lon="2.19464">
        <ele>99.8</ele>
        <time>2023-03-29T13:48:16Z</time>
      </trkpt>
      <trkpt lat="49.83679" lon="2.19464">
        <ele>99.8</ele>
        <time>2023-03-29T13:48:17Z</time>
      </trkpt>
      <trkpt lat="49.83679" lon="2.19464">
        <ele>99.8</ele>
        <time>2023-03-29T13:48:18Z</time>
      </trkpt>
      <trkpt lat="49.83679" lon="2.19464">
        <ele>99.8</ele>
        <time>2023-03-29T13:48:19Z</time>
      </trkpt>
      <trkpt lat="49.83679" lon="2.19464">
        <ele>99.8</ele>
        <time>2023-03-29T13:48:20Z</time>
      </trkpt>
      <trkpt lat="49.83679" lon="2.19464">
        <ele>99.8</ele>
        <time>2023-03-29T13:48:21Z</time>
      </trkpt>
      <trkpt lat="49.83679" lon="2.19464">
        <ele>99.8</ele>
        <time>2023-03-29T13:48:22Z</time>
      </trkpt>
      <trkpt lat="49.83679" lon="2.19464">
        <ele>99.8</ele>
        <time>2023-03-29T13:48:23Z</time>
      </trkpt>
      <trkpt lat="49.83679" lon="2.19464">
        <ele>99.8</ele>
        <time>2023-03-29T13:48:24Z</time>
      </trkpt>
      <trkpt lat="49.83679" lon="2.19464">
        <ele>99.8</ele>
        <time>2023-03-29T13:48:25Z</time>
      </trkpt>
      <trkpt lat="49.83679" lon="2.19464">
        <ele>99.8</ele>
        <time>2023-03-29T13:48:26Z</time>
      </trkpt>
      <trkpt lat="49.83679" lon="2.19464">
        <ele>99.8</ele>
        <time>2023-03-29T13:48:27Z</time>
      </trkpt>
      <trkpt lat="49.83679" lon="2.19464">
        <ele>99.8</ele>
        <time>2023-03-29T13:48:28Z</time>
      </trkpt>
      <trkpt lat="49.83679" lon="2.19464">
        <ele>99.8</ele>
        <time>2023-03-29T13:48:29Z</time>
      </trkpt>
      <trkpt lat="49.83679" lon="2.19464">
        <ele>99.8</ele>
        <time>2023-03-29T13:48:30Z</time>
      </trkpt>
      <trkpt lat="49.83679" lon="2.19464">
        <ele>99.8</ele>
        <time>2023-03-29T13:48:31Z</time>
      </trkpt>
      <trkpt lat="49.83679" lon="2.19464">
        <ele>99.8</ele>
        <time>2023-03-29T13:48:32Z</time>
      </trkpt>
      <trkpt lat="49.83679" lon="2.19464">
        <ele>99.8</ele>
        <time>2023-03-29T13:48:33Z</time>
      </trkpt>
      <trkpt lat="49.83679" lon="2.19464">
        <ele>99.8</ele>
        <time>2023-03-29T13:48:34Z</time>
      </trkpt>
      <trkpt lat="49.83679" lon="2.19464">
        <ele>99.8</ele>
        <time>2023-03-29T13:48:35Z</time>
      </trkpt>
      <trkpt lat="49.83679" lon="2.19464">
        <ele>99.8</ele>
        <time>2023-03-29T13:48:36Z</time>
      </trkpt>
      <trkpt lat="49.83679" lon="2.19464">
        <ele>99.8</ele>
        <time>2023-03-29T13:48:37Z</time>
      </trkpt>
      <trkpt lat="49.83679" lon="2.19464">
        <ele>99.8</ele>
        <time>2023-03-29T13:48:38Z</time>
      </trkpt>
      <trkpt lat="49.83679" lon="2.19464">
        <ele>99.8</ele>
        <time>2023-03-29T13:48:39Z</time>
      </trkpt>
      <trkpt lat="49.83679" lon="2.19464">
        <ele>99.8</ele>
        <time>2023-03-29T13:48:40Z</time>
      </trkpt>
      <trkpt lat="49.83679" lon="2.19464">
        <ele>99.8</ele>
        <time>2023-03-29T13:48:41Z</time>
      </trkpt>
      <trkpt lat="49.83679" lon="2.19464">
        <ele>99.8</ele>
        <time>2023-03-29T13:48:42Z</time>
      </trkpt>
      <trkpt lat="49.83679" lon="2.19464">
        <ele>99.8</ele>
        <time>2023-03-29T13:48:43Z</time>
      </trkpt>
      <trkpt lat="49.83679" lon="2.19464">
        <ele>99.8</ele>
        <time>2023-03-29T13:48:44Z</time>
      </trkpt>
      <trkpt lat="49.83679" lon="2.19464">
        <ele>99.8</ele>
        <time>2023-03-29T13:48:45Z</time>
      </trkpt>
      <trkpt lat="49.83679" lon="2.19464">
        <ele>99.8</ele>
        <time>2023-03-29T13:48:46Z</time>
      </trkpt>
      <trkpt lat="49.83679" lon="2.19464">
        <ele>99.8</ele>
        <time>2023-03-29T13:48:47Z</time>
      </trkpt>
      <trkpt lat="49.83679" lon="2.19464">
        <ele>99.8</ele>
        <time>2023-03-29T13:48:48Z</time>
      </trkpt>
      <trkpt lat="49.83679" lon="2.19464">
        <ele>99.8</ele>
        <time>2023-03-29T13:48:49Z</time>
      </trkpt>
      <trkpt lat="49.83679" lon="2.19464">
        <ele>99.8</ele>
        <time>2023-03-29T13:48:50Z</time>
      </trkpt>
      <trkpt lat="49.83679" lon="2.19464">
        <ele>99.8</ele>
        <time>2023-03-29T13:48:51Z</time>
      </trkpt>
      <trkpt lat="49.83679" lon="2.19464">
        <ele>99.8</ele>
        <time>2023-03-29T13:48:52Z</time>
      </trkpt>
      <trkpt lat="49.83679" lon="2.19464">
        <ele>99.8</ele>
        <time>2023-03-29T13:48:53Z</time>
      </trkpt>
      <trkpt lat="49.83679" lon="2.19464">
        <ele>99.8</ele>
        <time>2023-03-29T13:48:54Z</time>
      </trkpt>
      <trkpt lat="49.83679" lon="2.19464">
        <ele>99.8</ele>
        <time>2023-03-29T13:48:55Z</time>
      </trkpt>
      <trkpt lat="49.83679" lon="2.19464">
        <ele>99.8</ele>
        <time>2023-03-29T13:48:56Z</time>
      </trkpt>
      <trkpt lat="49.83679" lon="2.19464">
        <ele>99.8</ele>
        <time>2023-03-29T13:48:57Z</time>
      </trkpt>
      <trkpt lat="49.83679" lon="2.19464">
        <ele>99.8</ele>
        <time>2023-03-29T13:48:58Z</time>
      </trkpt>
      <trkpt lat="49.83679" lon="2.19464">
        <ele>99.8</ele>
        <time>2023-03-29T13:48:59Z</time>
      </trkpt>
      <trkpt lat="49.83679" lon="2.19464">
        <ele>99.8</ele>
        <time>2023-03-29T13:49:00Z</time>
      </trkpt>
      <trkpt lat="49.83679" lon="2.19464">
        <ele>99.8</ele>
        <time>2023-03-29T13:49:01Z</time>
      </trkpt>
      <trkpt lat="49.83679" lon="2.19464">
        <ele>99.8</ele>
        <time>2023-03-29T13:49:02Z</time>
      </trkpt>
      <trkpt lat="49.83679" lon="2.19464">
        <ele>99.8</ele>
        <time>2023-03-29T13:49:03Z</time>
      </trkpt>
      <trkpt lat="49.83679" lon="2.19464">
        <ele>99.8</ele>
        <time>2023-03-29T13:49:04Z</time>
      </trkpt>
      <trkpt lat="49.83679" lon="2.19464">
        <ele>99.8</ele>
        <time>2023-03-29T13:49:05Z</time>
      </trkpt>
      <trkpt lat="49.83679" lon="2.19464">
        <ele>99.8</ele>
        <time>2023-03-29T13:49:06Z</time>
      </trkpt>
      <trkpt lat="49.83679" lon="2.19464">
        <ele>99.8</ele>
        <time>2023-03-29T13:49:07Z</time>
      </trkpt>
      <trkpt lat="49.83679" lon="2.19464">
        <ele>99.8</ele>
        <time>2023-03-29T13:49:08Z</time>
      </trkpt>
      <trkpt lat="49.83679" lon="2.19464">
        <ele>99.8</ele>
        <time>2023-03-29T13:49:09Z</time>
      </trkpt>
      <trkpt lat="49.83679" lon="2.19464">
        <ele>99.8</ele>
        <time>2023-03-29T13:49:10Z</time>
      </trkpt>
      <trkpt lat="49.83679" lon="2.19464">
        <ele>99.8</ele>
        <time>2023-03-29T13:49:11Z</time>
      </trkpt>
      <trkpt lat="49.83679" lon="2.19464">
        <ele>99.8</ele>
        <time>2023-03-29T13:49:12Z</time>
      </trkpt>
      <trkpt lat="49.83679" lon="2.19464">
        <ele>99.8</ele>
        <time>2023-03-29T13:49:13Z</time>
      </trkpt>
      <trkpt lat="49.83679" lon="2.19464">
        <ele>99.8</ele>
        <time>2023-03-29T13:49:14Z</time>
      </trkpt>
      <trkpt lat="49.83679" lon="2.19464">
        <ele>99.8</ele>
        <time>2023-03-29T13:49:15Z</time>
      </trkpt>
      <trkpt lat="49.83679" lon="2.19464">
        <ele>99.8</ele>
        <time>2023-03-29T13:49:16Z</time>
      </trkpt>
      <trkpt lat="49.83679" lon="2.19464">
        <ele>99.8</ele>
        <time>2023-03-29T13:49:17Z</time>
      </trkpt>
      <trkpt lat="49.83679" lon="2.19464">
        <ele>99.8</ele>
        <time>2023-03-29T13:49:18Z</time>
      </trkpt>
      <trkpt lat="49.83679" lon="2.19464">
        <ele>99.8</ele>
        <time>2023-03-29T13:49:19Z</time>
      </trkpt>
      <trkpt lat="49.83679" lon="2.19464">
        <ele>99.8</ele>
        <time>2023-03-29T13:49:20Z</time>
      </trkpt>
      <trkpt lat="49.83679" lon="2.19464">
        <ele>99.8</ele>
        <time>2023-03-29T13:49:21Z</time>
      </trkpt>
      <trkpt lat="49.83679" lon="2.19464">
        <ele>99.8</ele>
        <time>2023-03-29T13:49:22Z</time>
      </trkpt>
      <trkpt lat="49.83679" lon="2.19464">
        <ele>99.8</ele>
        <time>2023-03-29T13:49:23Z</time>
      </trkpt>
      <trkpt lat="49.83679" lon="2.19464">
        <ele>99.8</ele>
        <time>2023-03-29T13:49:24Z</time>
      </trkpt>
      <trkpt lat="49.83679" lon="2.19464">
        <ele>99.8</ele>
        <time>2023-03-29T13:49:25Z</time>
      </trkpt>
      <trkpt lat="49.83679" lon="2.19464">
        <ele>99.8</ele>
        <time>2023-03-29T13:49:26Z</time>
      </trkpt>
      <trkpt lat="49.83679" lon="2.19464">
        <ele>99.8</ele>
        <time>2023-03-29T13:49:27Z</time>
      </trkpt>
      <trkpt lat="49.83679" lon="2.19464">
        <ele>99.8</ele>
        <time>2023-03-29T13:49:28Z</time>
      </trkpt>
      <trkpt lat="49.83679" lon="2.19464">
        <ele>99.8</ele>
        <time>2023-03-29T13:49:29Z</time>
      </trkpt>
      <trkpt lat="49.83679" lon="2.19464">
        <ele>99.8</ele>
        <time>2023-03-29T13:49:30Z</time>
      </trkpt>
      <trkpt lat="49.83679" lon="2.19464">
        <ele>99.8</ele>
        <time>2023-03-29T13:49:31Z</time>
      </trkpt>
      <trkpt lat="49.83679" lon="2.19464">
        <ele>99.8</ele>
        <time>2023-03-29T13:49:32Z</time>
      </trkpt>
      <trkpt lat="49.83679" lon="2.19464">
        <ele>99.8</ele>
        <time>2023-03-29T13:49:33Z</time>
      </trkpt>
      <trkpt lat="49.83679" lon="2.19464">
        <ele>99.8</ele>
        <time>2023-03-29T13:49:34Z</time>
      </trkpt>
      <trkpt lat="49.83679" lon="2.19464">
        <ele>99.8</ele>
        <time>2023-03-29T13:49:35Z</time>
      </trkpt>
      <trkpt lat="49.83679" lon="2.19464">
        <ele>99.8</ele>
        <time>2023-03-29T13:49:36Z</time>
      </trkpt>
      <trkpt lat="49.83679" lon="2.19464">
        <ele>99.8</ele>
        <time>2023-03-29T13:49:37Z</time>
      </trkpt>
      <trkpt lat="49.83679" lon="2.19464">
        <ele>99.8</ele>
        <time>2023-03-29T13:49:38Z</time>
      </trkpt>
      <trkpt lat="49.83679" lon="2.19464">
        <ele>99.8</ele>
        <time>2023-03-29T13:49:39Z</time>
      </trkpt>
      <trkpt lat="49.83679" lon="2.19464">
        <ele>99.8</ele>
        <time>2023-03-29T13:49:40Z</time>
      </trkpt>
      <trkpt lat="49.83679" lon="2.19464">
        <ele>99.8</ele>
        <time>2023-03-29T13:49:41Z</time>
      </trkpt>
      <trkpt lat="49.83679" lon="2.19464">
        <ele>99.8</ele>
        <time>2023-03-29T13:49:42Z</time>
      </trkpt>
      <trkpt lat="49.83679" lon="2.19464">
        <ele>99.8</ele>
        <time>2023-03-29T13:49:43Z</time>
      </trkpt>
      <trkpt lat="49.83679" lon="2.19464">
        <ele>99.8</ele>
        <time>2023-03-29T13:49:44Z</time>
      </trkpt>
      <trkpt lat="49.83679" lon="2.19464">
        <ele>99.8</ele>
        <time>2023-03-29T13:49:45Z</time>
      </trkpt>
      <trkpt lat="49.83679" lon="2.19464">
        <ele>99.8</ele>
        <time>2023-03-29T13:49:46Z</time>
      </trkpt>
      <trkpt lat="49.83679" lon="2.19464">
        <ele>99.8</ele>
        <time>2023-03-29T13:49:47Z</time>
      </trkpt>
      <trkpt lat="49.83679" lon="2.19464">
        <ele>99.8</ele>
        <time>2023-03-29T13:49:48Z</time>
      </trkpt>
      <trkpt lat="49.83679" lon="2.19464">
        <ele>99.8</ele>
        <time>2023-03-29T13:49:49Z</time>
      </trkpt>
      <trkpt lat="49.83679" lon="2.19464">
        <ele>99.8</ele>
        <time>2023-03-29T13:49:50Z</time>
      </trkpt>
      <trkpt lat="49.83679" lon="2.19464">
        <ele>99.8</ele>
        <time>2023-03-29T13:49:51Z</time>
      </trkpt>
      <trkpt lat="49.83679" lon="2.19464">
        <ele>99.8</ele>
        <time>2023-03-29T13:49:52Z</time>
      </trkpt>
      <trkpt lat="49.83679" lon="2.19464">
        <ele>99.8</ele>
        <time>2023-03-29T13:49:53Z</time>
      </trkpt>
      <trkpt lat="49.83679" lon="2.19464">
        <ele>99.8</ele>
        <time>2023-03-29T13:49:54Z</time>
      </trkpt>
      <trkpt lat="49.83679" lon="2.19464">
        <ele>99.8</ele>
        <time>2023-03-29T13:49:55Z</time>
      </trkpt>
      <trkpt lat="49.83679" lon="2.19464">
        <ele>99.8</ele>
        <time>2023-03-29T13:49:56Z</time>
      </trkpt>
      <trkpt lat="49.83679" lon="2.19464">
        <ele>99.8</ele>
        <time>2023-03-29T13:49:57Z</time>
      </trkpt>
      <trkpt lat="49.83679" lon="2.19464">
        <ele>99.8</ele>
        <time>2023-03-29T13:49:58Z</time>
      </trkpt>
      <trkpt lat="49.83679" lon="2.19464">
        <ele>99.8</ele>
        <time>2023-03-29T13:49:59Z</time>
      </trkpt>
      <trkpt lat="49.83679" lon="2.19464">
        <ele>99.8</ele>
        <time>2023-03-29T13:50:00Z</time>
      </trkpt>
      <trkpt lat="49.83679" lon="2.19464">
        <ele>99.8</ele>
        <time>2023-03-29T13:50:01Z</time>
      </trkpt>
      <trkpt lat="49.83679" lon="2.19464">
        <ele>99.8</ele>
        <time>2023-03-29T13:50:02Z</time>
      </trkpt>
      <trkpt lat="49.83679" lon="2.19464">
        <ele>99.8</ele>
        <time>2023-03-29T13:50:03Z</time>
      </trkpt>
      <trkpt lat="49.83679" lon="2.19464">
        <ele>99.8</ele>
        <time>2023-03-29T13:50:04Z</time>
      </trkpt>
      <trkpt lat="49.83679" lon="2.19464">
        <ele>99.8</ele>
        <time>2023-03-29T13:50:05Z</time>
      </trkpt>
      <trkpt lat="49.83679" lon="2.19464">
        <ele>99.8</ele>
        <time>2023-03-29T13:50:06Z</time>
      </trkpt>
      <trkpt lat="49.83679" lon="2.19464">
        <ele>99.8</ele>
        <time>2023-03-29T13:50:07Z</time>
      </trkpt>
      <trkpt lat="49.83679" lon="2.19464">
        <ele>99.8</ele>
        <time>2023-03-29T13:50:08Z</time>
      </trkpt>
      <trkpt lat="49.83679" lon="2.19464">
        <ele>99.8</ele>
        <time>2023-03-29T13:50:09Z</time>
      </trkpt>
      <trkpt lat="49.83679" lon="2.19464">
        <ele>99.8</ele>
        <time>2023-03-29T13:50:10Z</time>
      </trkpt>
      <trkpt lat="49.83679" lon="2.19464">
        <ele>99.8</ele>
        <time>2023-03-29T13:50:11Z</time>
      </trkpt>
      <trkpt lat="49.83679" lon="2.19464">
        <ele>99.8</ele>
        <time>2023-03-29T13:50:12Z</time>
      </trkpt>
      <trkpt lat="49.83679" lon="2.19464">
        <ele>99.8</ele>
        <time>2023-03-29T13:50:13Z</time>
      </trkpt>
      <trkpt lat="49.83679" lon="2.19464">
        <ele>99.8</ele>
        <time>2023-03-29T13:50:14Z</time>
      </trkpt>
      <trkpt lat="49.83679" lon="2.19464">
        <ele>99.8</ele>
        <time>2023-03-29T13:50:15Z</time>
      </trkpt>
      <trkpt lat="49.83679" lon="2.19464">
        <ele>99.8</ele>
        <time>2023-03-29T13:50:16Z</time>
      </trkpt>
      <trkpt lat="49.83679" lon="2.19464">
        <ele>99.8</ele>
        <time>2023-03-29T13:50:17Z</time>
      </trkpt>
      <trkpt lat="49.83679" lon="2.19464">
        <ele>99.8</ele>
        <time>2023-03-29T13:50:18Z</time>
      </trkpt>
      <trkpt lat="49.83679" lon="2.19464">
        <ele>99.8</ele>
        <time>2023-03-29T13:50:19Z</time>
      </trkpt>
      <trkpt lat="49.83679" lon="2.19464">
        <ele>99.8</ele>
        <time>2023-03-29T13:50:20Z</time>
      </trkpt>
      <trkpt lat="49.83679" lon="2.19464">
        <ele>99.8</ele>
        <time>2023-03-29T13:50:21Z</time>
      </trkpt>
      <trkpt lat="49.83679" lon="2.19464">
        <ele>99.8</ele>
        <time>2023-03-29T13:50:22Z</time>
      </trkpt>
      <trkpt lat="49.83679" lon="2.19464">
        <ele>99.8</ele>
        <time>2023-03-29T13:50:23Z</time>
      </trkpt>
      <trkpt lat="49.83679" lon="2.19464">
        <ele>99.8</ele>
        <time>2023-03-29T13:50:24Z</time>
      </trkpt>
      <trkpt lat="49.83678" lon="2.19464">
        <ele>99.9</ele>
        <time>2023-03-29T13:50:25Z</time>
      </trkpt>
      <trkpt lat="49.83677" lon="2.19464">
        <ele>99.9</ele>
        <time>2023-03-29T13:50:26Z</time>
      </trkpt>
      <trkpt lat="49.83674" lon="2.19463">
        <ele>100</ele>
        <time>2023-03-29T13:50:27Z</time>
      </trkpt>
      <trkpt lat="49.83668" lon="2.19461">
        <ele>100.2</ele>
        <time>2023-03-29T13:50:28Z</time>
      </trkpt>
      <trkpt lat="49.83665" lon="2.19461">
        <ele>100.2</ele>
        <time>2023-03-29T13:50:29Z</time>
      </trkpt>
      <trkpt lat="49.83665" lon="2.1946">
        <ele>100.2</ele>
        <time>2023-03-29T13:50:30Z</time>
      </trkpt>
      <trkpt lat="49.83665" lon="2.1946">
        <ele>100.3</ele>
        <time>2023-03-29T13:50:31Z</time>
      </trkpt>
      <trkpt lat="49.83665" lon="2.1946">
        <ele>100.3</ele>
        <time>2023-03-29T13:50:32Z</time>
      </trkpt>
      <trkpt lat="49.83665" lon="2.1946">
        <ele>100.3</ele>
        <time>2023-03-29T13:50:33Z</time>
      </trkpt>
      <trkpt lat="49.83664" lon="2.1946">
        <ele>100.3</ele>
        <time>2023-03-29T13:50:34Z</time>
      </trkpt>
      <trkpt lat="49.83664" lon="2.1946">
        <ele>100.3</ele>
        <time>2023-03-29T13:50:35Z</time>
      </trkpt>
      <trkpt lat="49.83664" lon="2.1946">
        <ele>100.3</ele>
        <time>2023-03-29T13:50:36Z</time>
      </trkpt>
      <trkpt lat="49.83664" lon="2.1946">
        <ele>100.3</ele>
        <time>2023-03-29T13:50:37Z</time>
      </trkpt>
      <trkpt lat="49.83664" lon="2.1946">
        <ele>100.3</ele>
        <time>2023-03-29T13:50:38Z</time>
      </trkpt>
      <trkpt lat="49.83664" lon="2.1946">
        <ele>100.3</ele>
        <time>2023-03-29T13:50:39Z</time>
      </trkpt>
      <trkpt lat="49.83664" lon="2.1946">
        <ele>100.3</ele>
        <time>2023-03-29T13:50:40Z</time>
      </trkpt>
      <trkpt lat="49.83664" lon="2.1946">
        <ele>100.3</ele>
        <time>2023-03-29T13:50:41Z</time>
      </trkpt>
      <trkpt lat="49.83664" lon="2.1946">
        <ele>100.3</ele>
        <time>2023-03-29T13:50:42Z</time>
      </trkpt>
      <trkpt lat="49.83664" lon="2.1946">
        <ele>100.3</ele>
        <time>2023-03-29T13:50:43Z</time>
      </trkpt>
      <trkpt lat="49.83664" lon="2.1946">
        <ele>100.3</ele>
        <time>2023-03-29T13:50:44Z</time>
      </trkpt>
      <trkpt lat="49.83663" lon="2.1946">
        <ele>100.3</ele>
        <time>2023-03-29T13:50:45Z</time>
      </trkpt>
      <trkpt lat="49.83663" lon="2.1946">
        <ele>100.3</ele>
        <time>2023-03-29T13:50:46Z</time>
      </trkpt>
      <trkpt lat="49.83663" lon="2.1946">
        <ele>100.3</ele>
        <time>2023-03-29T13:50:47Z</time>
      </trkpt>
      <trkpt lat="49.83663" lon="2.1946">
        <ele>100.3</ele>
        <time>2023-03-29T13:50:48Z</time>
      </trkpt>
      <trkpt lat="49.83663" lon="2.1946">
        <ele>100.3</ele>
        <time>2023-03-29T13:50:49Z</time>
      </trkpt>
      <trkpt lat="49.83663" lon="2.1946">
        <ele>100.3</ele>
        <time>2023-03-29T13:50:50Z</time>
      </trkpt>
      <trkpt lat="49.83663" lon="2.1946">
        <ele>100.3</ele>
        <time>2023-03-29T13:50:51Z</time>
      </trkpt>
      <trkpt lat="49.83663" lon="2.1946">
        <ele>100.3</ele>
        <time>2023-03-29T13:50:52Z</time>
      </trkpt>
      <trkpt lat="49.83663" lon="2.1946">
        <ele>100.3</ele>
        <time>2023-03-29T13:50:53Z</time>
      </trkpt>
      <trkpt lat="49.83663" lon="2.1946">
        <ele>100.3</ele>
        <time>2023-03-29T13:50:54Z</time>
      </trkpt>
      <trkpt lat="49.83663" lon="2.1946">
        <ele>100.3</ele>
        <time>2023-03-29T13:50:55Z</time>
      </trkpt>
      <trkpt lat="49.83663" lon="2.1946">
        <ele>100.3</ele>
        <time>2023-03-29T13:50:56Z</time>
      </trkpt>
      <trkpt lat="49.83662" lon="2.1946">
        <ele>100.3</ele>
        <time>2023-03-29T13:50:57Z</time>
      </trkpt>
      <trkpt lat="49.83662" lon="2.1946">
        <ele>100.3</ele>
        <time>2023-03-29T13:50:58Z</time>
      </trkpt>
      <trkpt lat="49.83662" lon="2.1946">
        <ele>100.3</ele>
        <time>2023-03-29T13:50:59Z</time>
      </trkpt>
      <trkpt lat="49.83662" lon="2.1946">
        <ele>100.3</ele>
        <time>2023-03-29T13:51:00Z</time>
      </trkpt>
      <trkpt lat="49.83662" lon="2.1946">
        <ele>100.3</ele>
        <time>2023-03-29T13:51:01Z</time>
      </trkpt>
      <trkpt lat="49.83662" lon="2.1946">
        <ele>100.3</ele>
        <time>2023-03-29T13:51:02Z</time>
      </trkpt>
      <trkpt lat="49.83662" lon="2.1946">
        <ele>100.3</ele>
        <time>2023-03-29T13:51:03Z</time>
      </trkpt>
      <trkpt lat="49.83662" lon="2.1946">
        <ele>100.3</ele>
        <time>2023-03-29T13:51:04Z</time>
      </trkpt>
      <trkpt lat="49.83662" lon="2.1946">
        <ele>100.3</ele>
        <time>2023-03-29T13:51:05Z</time>
      </trkpt>
      <trkpt lat="49.83662" lon="2.1946">
        <ele>100.3</ele>
        <time>2023-03-29T13:51:06Z</time>
      </trkpt>
      <trkpt lat="49.83662" lon="2.1946">
        <ele>100.3</ele>
        <time>2023-03-29T13:51:07Z</time>
      </trkpt>
      <trkpt lat="49.83661" lon="2.1946">
        <ele>100.3</ele>
        <time>2023-03-29T13:51:08Z</time>
      </trkpt>
      <trkpt lat="49.83661" lon="2.1946">
        <ele>100.3</ele>
        <time>2023-03-29T13:51:09Z</time>
      </trkpt>
      <trkpt lat="49.83661" lon="2.1946">
        <ele>100.3</ele>
        <time>2023-03-29T13:51:10Z</time>
      </trkpt>
      <trkpt lat="49.83661" lon="2.1946">
        <ele>100.3</ele>
        <time>2023-03-29T13:51:11Z</time>
      </trkpt>
      <trkpt lat="49.83661" lon="2.1946">
        <ele>100.3</ele>
        <time>2023-03-29T13:51:12Z</time>
      </trkpt>
      <trkpt lat="49.83661" lon="2.1946">
        <ele>100.3</ele>
        <time>2023-03-29T13:51:13Z</time>
      </trkpt>
      <trkpt lat="49.83661" lon="2.1946">
        <ele>100.3</ele>
        <time>2023-03-29T13:51:14Z</time>
      </trkpt>
      <trkpt lat="49.83661" lon="2.1946">
        <ele>100.3</ele>
        <time>2023-03-29T13:51:15Z</time>
      </trkpt>
      <trkpt lat="49.83661" lon="2.1946">
        <ele>100.3</ele>
        <time>2023-03-29T13:51:16Z</time>
      </trkpt>
      <trkpt lat="49.83661" lon="2.1946">
        <ele>100.3</ele>
        <time>2023-03-29T13:51:17Z</time>
      </trkpt>
      <trkpt lat="49.83661" lon="2.1946">
        <ele>100.3</ele>
        <time>2023-03-29T13:51:18Z</time>
      </trkpt>
      <trkpt lat="49.8366" lon="2.1946">
        <ele>100.4</ele>
        <time>2023-03-29T13:51:19Z</time>
      </trkpt>
      <trkpt lat="49.8366" lon="2.1946">
        <ele>100.4</ele>
        <time>2023-03-29T13:51:20Z</time>
      </trkpt>
      <trkpt lat="49.8366" lon="2.1946">
        <ele>100.4</ele>
        <time>2023-03-29T13:51:21Z</time>
      </trkpt>
      <trkpt lat="49.8366" lon="2.1946">
        <ele>100.4</ele>
        <time>2023-03-29T13:51:22Z</time>
      </trkpt>
      <trkpt lat="49.8366" lon="2.1946">
        <ele>100.4</ele>
        <time>2023-03-29T13:51:23Z</time>
      </trkpt>
      <trkpt lat="49.8366" lon="2.1946">
        <ele>100.4</ele>
        <time>2023-03-29T13:51:24Z</time>
      </trkpt>
      <trkpt lat="49.8366" lon="2.1946">
        <ele>100.4</ele>
        <time>2023-03-29T13:51:25Z</time>
      </trkpt>
      <trkpt lat="49.8366" lon="2.1946">
        <ele>100.4</ele>
        <time>2023-03-29T13:51:26Z</time>
      </trkpt>
      <trkpt lat="49.8366" lon="2.1946">
        <ele>100.4</ele>
        <time>2023-03-29T13:51:27Z</time>
      </trkpt>
      <trkpt lat="49.8366" lon="2.1946">
        <ele>100.4</ele>
        <time>2023-03-29T13:51:28Z</time>
      </trkpt>
      <trkpt lat="49.8366" lon="2.1946">
        <ele>100.4</ele>
        <time>2023-03-29T13:51:29Z</time>
      </trkpt>
      <trkpt lat="49.8366" lon="2.1946">
        <ele>100.4</ele>
        <time>2023-03-29T13:51:30Z</time>
      </trkpt>
      <trkpt lat="49.83659" lon="2.1946">
        <ele>100.4</ele>
        <time>2023-03-29T13:51:31Z</time>
      </trkpt>
      <trkpt lat="49.83659" lon="2.1946">
        <ele>100.4</ele>
        <time>2023-03-29T13:51:32Z</time>
      </trkpt>
      <trkpt lat="49.83659" lon="2.1946">
        <ele>100.4</ele>
        <time>2023-03-29T13:51:33Z</time>
      </trkpt>
      <trkpt lat="49.83659" lon="2.1946">
        <ele>100.4</ele>
        <time>2023-03-29T13:51:34Z</time>
      </trkpt>
      <trkpt lat="49.83659" lon="2.1946">
        <ele>100.4</ele>
        <time>2023-03-29T13:51:35Z</time>
      </trkpt>
      <trkpt lat="49.83655" lon="2.19459">
        <ele>100.5</ele>
        <time>2023-03-29T13:51:36Z</time>
      </trkpt>
      <trkpt lat="49.83652" lon="2.19459">
        <ele>100.4</ele>
        <time>2023-03-29T13:51:37Z</time>
      </trkpt>
      <trkpt lat="49.83651" lon="2.19459">
        <ele>100.3</ele>
        <time>2023-03-29T13:51:38Z</time>
      </trkpt>
      <trkpt lat="49.83649" lon="2.19458">
        <ele>100.3</ele>
        <time>2023-03-29T13:51:39Z</time>
      </trkpt>
      <trkpt lat="49.83649" lon="2.19458">
        <ele>100.3</ele>
        <time>2023-03-29T13:51:40Z</time>
      </trkpt>
      <trkpt lat="49.83648" lon="2.19458">
        <ele>100.3</ele>
        <time>2023-03-29T13:51:41Z</time>
      </trkpt>
      <trkpt lat="49.83648" lon="2.19457">
        <ele>100.3</ele>
        <time>2023-03-29T13:51:42Z</time>
      </trkpt>
      <trkpt lat="49.83648" lon="2.19456">
        <ele>100.3</ele>
        <time>2023-03-29T13:51:43Z</time>
      </trkpt>
      <trkpt lat="49.83648" lon="2.19454">
        <ele>100.3</ele>
        <time>2023-03-29T13:51:44Z</time>
      </trkpt>
      <trkpt lat="49.83648" lon="2.19454">
        <ele>100.3</ele>
        <time>2023-03-29T13:51:45Z</time>
      </trkpt>
      <trkpt lat="49.83647" lon="2.19452">
        <ele>100.3</ele>
        <time>2023-03-29T13:51:46Z</time>
      </trkpt>
      <trkpt lat="49.83647" lon="2.19451">
        <ele>100.2</ele>
        <time>2023-03-29T13:51:47Z</time>
      </trkpt>
      <trkpt lat="49.83647" lon="2.1945">
        <ele>100.2</ele>
        <time>2023-03-29T13:51:48Z</time>
      </trkpt>
      <trkpt lat="49.83647" lon="2.19448">
        <ele>100.2</ele>
        <time>2023-03-29T13:51:49Z</time>
      </trkpt>
      <trkpt lat="49.83647" lon="2.19444">
        <ele>100.2</ele>
        <time>2023-03-29T13:51:50Z</time>
      </trkpt>
      <trkpt lat="49.83647" lon="2.19443">
        <ele>100.2</ele>
        <time>2023-03-29T13:51:51Z</time>
      </trkpt>
      <trkpt lat="49.83647" lon="2.19442">
        <ele>100.2</ele>
        <time>2023-03-29T13:51:52Z</time>
      </trkpt>
      <trkpt lat="49.83647" lon="2.19438">
        <ele>100.1</ele>
        <time>2023-03-29T13:51:53Z</time>
      </trkpt>
      <trkpt lat="49.83647" lon="2.19437">
        <ele>100.1</ele>
        <time>2023-03-29T13:51:54Z</time>
      </trkpt>
      <trkpt lat="49.83647" lon="2.19436">
        <ele>100.1</ele>
        <time>2023-03-29T13:51:55Z</time>
      </trkpt>
      <trkpt lat="49.83647" lon="2.19432">
        <ele>100.1</ele>
        <time>2023-03-29T13:51:57Z</time>
      </trkpt>
      <trkpt lat="49.83647" lon="2.19431">
        <ele>100.1</ele>
        <time>2023-03-29T13:51:58Z</time>
      </trkpt>
      <trkpt lat="49.83647" lon="2.1943">
        <ele>100.1</ele>
        <time>2023-03-29T13:51:59Z</time>
      </trkpt>
      <trkpt lat="49.83647" lon="2.19428">
        <ele>100.1</ele>
        <time>2023-03-29T13:52:00Z</time>
      </trkpt>
      <trkpt lat="49.83647" lon="2.19426">
        <ele>100.1</ele>
        <time>2023-03-29T13:52:01Z</time>
      </trkpt>
      <trkpt lat="49.83647" lon="2.19424">
        <ele>100.1</ele>
        <time>2023-03-29T13:52:02Z</time>
      </trkpt>
      <trkpt lat="49.83647" lon="2.19423">
        <ele>100.1</ele>
        <time>2023-03-29T13:52:03Z</time>
      </trkpt>
      <trkpt lat="49.83647" lon="2.19421">
        <ele>100.1</ele>
        <time>2023-03-29T13:52:04Z</time>
      </trkpt>
      <trkpt lat="49.83647" lon="2.19419">
        <ele>100</ele>
        <time>2023-03-29T13:52:06Z</time>
      </trkpt>
      <trkpt lat="49.83646" lon="2.19417">
        <ele>100</ele>
        <time>2023-03-29T13:52:07Z</time>
      </trkpt>
      <trkpt lat="49.83646" lon="2.19416">
        <ele>100</ele>
        <time>2023-03-29T13:52:08Z</time>
      </trkpt>
      <trkpt lat="49.83646" lon="2.19415">
        <ele>100</ele>
        <time>2023-03-29T13:52:09Z</time>
      </trkpt>
      <trkpt lat="49.83646" lon="2.19415">
        <ele>100</ele>
        <time>2023-03-29T13:52:11Z</time>
      </trkpt>
      <trkpt lat="49.83646" lon="2.19414">
        <ele>100</ele>
        <time>2023-03-29T13:52:12Z</time>
      </trkpt>
      <trkpt lat="49.83646" lon="2.19412">
        <ele>100</ele>
        <time>2023-03-29T13:52:13Z</time>
      </trkpt>
      <trkpt lat="49.83645" lon="2.1941">
        <ele>100</ele>
        <time>2023-03-29T13:52:14Z</time>
      </trkpt>
      <trkpt lat="49.83645" lon="2.19409">
        <ele>100</ele>
        <time>2023-03-29T13:52:16Z</time>
      </trkpt>
      <trkpt lat="49.83644" lon="2.19407">
        <ele>100</ele>
        <time>2023-03-29T13:52:17Z</time>
      </trkpt>
      <trkpt lat="49.83644" lon="2.19407">
        <ele>100</ele>
        <time>2023-03-29T13:52:18Z</time>
      </trkpt>
      <trkpt lat="49.83643" lon="2.19404">
        <ele>100</ele>
        <time>2023-03-29T13:52:19Z</time>
      </trkpt>
      <trkpt lat="49.83643" lon="2.19403">
        <ele>100</ele>
        <time>2023-03-29T13:52:20Z</time>
      </trkpt>
      <trkpt lat="49.83642" lon="2.19402">
        <ele>100</ele>
        <time>2023-03-29T13:52:21Z</time>
      </trkpt>
      <trkpt lat="49.83641" lon="2.19401">
        <ele>100</ele>
        <time>2023-03-29T13:52:23Z</time>
      </trkpt>
      <trkpt lat="49.83641" lon="2.19399">
        <ele>100</ele>
        <time>2023-03-29T13:52:25Z</time>
      </trkpt>
      <trkpt lat="49.8364" lon="2.19398">
        <ele>100</ele>
        <time>2023-03-29T13:52:26Z</time>
      </trkpt>
      <trkpt lat="49.8364" lon="2.19397">
        <ele>100</ele>
        <time>2023-03-29T13:52:27Z</time>
      </trkpt>
      <trkpt lat="49.8364" lon="2.19396">
        <ele>100</ele>
        <time>2023-03-29T13:52:29Z</time>
      </trkpt>
      <trkpt lat="49.83639" lon="2.19395">
        <ele>100</ele>
        <time>2023-03-29T13:52:30Z</time>
      </trkpt>
      <trkpt lat="49.83639" lon="2.19394">
        <ele>100</ele>
        <time>2023-03-29T13:52:31Z</time>
      </trkpt>
      <trkpt lat="49.83639" lon="2.19392">
        <ele>100</ele>
        <time>2023-03-29T13:52:32Z</time>
      </trkpt>
      <trkpt lat="49.83639" lon="2.19391">
        <ele>100</ele>
        <time>2023-03-29T13:52:33Z</time>
      </trkpt>
      <trkpt lat="49.83639" lon="2.1939">
        <ele>100</ele>
        <time>2023-03-29T13:52:34Z</time>
      </trkpt>
      <trkpt lat="49.83638" lon="2.19388">
        <ele>100</ele>
        <time>2023-03-29T13:52:35Z</time>
      </trkpt>
      <trkpt lat="49.83638" lon="2.19386">
        <ele>100</ele>
        <time>2023-03-29T13:52:37Z</time>
      </trkpt>
      <trkpt lat="49.83638" lon="2.19385">
        <ele>100</ele>
        <time>2023-03-29T13:52:38Z</time>
      </trkpt>
      <trkpt lat="49.83637" lon="2.19383">
        <ele>100</ele>
        <time>2023-03-29T13:52:39Z</time>
      </trkpt>
      <trkpt lat="49.83637" lon="2.19381">
        <ele>100</ele>
        <time>2023-03-29T13:52:40Z</time>
      </trkpt>
      <trkpt lat="49.83637" lon="2.19378">
        <ele>100</ele>
        <time>2023-03-29T13:52:41Z</time>
      </trkpt>
      <trkpt lat="49.83637" lon="2.19376">
        <ele>100</ele>
        <time>2023-03-29T13:52:42Z</time>
      </trkpt>
      <trkpt lat="49.83637" lon="2.19374">
        <ele>100</ele>
        <time>2023-03-29T13:52:43Z</time>
      </trkpt>
      <trkpt lat="49.83637" lon="2.1937">
        <ele>100</ele>
        <time>2023-03-29T13:52:44Z</time>
      </trkpt>
      <trkpt lat="49.83637" lon="2.19369">
        <ele>100</ele>
        <time>2023-03-29T13:52:45Z</time>
      </trkpt>
      <trkpt lat="49.83637" lon="2.19368">
        <ele>100.1</ele>
        <time>2023-03-29T13:52:46Z</time>
      </trkpt>
      <trkpt lat="49.83637" lon="2.19366">
        <ele>100.1</ele>
        <time>2023-03-29T13:52:48Z</time>
      </trkpt>
      <trkpt lat="49.83636" lon="2.19365">
        <ele>100.1</ele>
        <time>2023-03-29T13:52:49Z</time>
      </trkpt>
      <trkpt lat="49.83636" lon="2.19363">
        <ele>100.1</ele>
        <time>2023-03-29T13:52:50Z</time>
      </trkpt>
      <trkpt lat="49.83636" lon="2.19362">
        <ele>100.1</ele>
        <time>2023-03-29T13:52:51Z</time>
      </trkpt>
      <trkpt lat="49.83636" lon="2.19361">
        <ele>100.1</ele>
        <time>2023-03-29T13:52:52Z</time>
      </trkpt>
      <trkpt lat="49.83636" lon="2.1936">
        <ele>100.1</ele>
        <time>2023-03-29T13:52:53Z</time>
      </trkpt>
      <trkpt lat="49.83635" lon="2.19358">
        <ele>100.1</ele>
        <time>2023-03-29T13:52:54Z</time>
      </trkpt>
      <trkpt lat="49.83635" lon="2.19356">
        <ele>100.1</ele>
        <time>2023-03-29T13:52:55Z</time>
      </trkpt>
      <trkpt lat="49.83635" lon="2.19353">
        <ele>100.1</ele>
        <time>2023-03-29T13:52:57Z</time>
      </trkpt>
      <trkpt lat="49.83634" lon="2.19351">
        <ele>100.1</ele>
        <time>2023-03-29T13:52:58Z</time>
      </trkpt>
      <trkpt lat="49.83634" lon="2.19349">
        <ele>100.1</ele>
        <time>2023-03-29T13:52:59Z</time>
      </trkpt>
      <trkpt lat="49.83633" lon="2.19345">
        <ele>100.1</ele>
        <time>2023-03-29T13:53:00Z</time>
      </trkpt>
      <trkpt lat="49.83632" lon="2.19343">
        <ele>100.1</ele>
        <time>2023-03-29T13:53:01Z</time>
      </trkpt>
      <trkpt lat="49.83631" lon="2.19339">
        <ele>100.1</ele>
        <time>2023-03-29T13:53:02Z</time>
      </trkpt>
      <trkpt lat="49.83631" lon="2.19338">
        <ele>100.1</ele>
        <time>2023-03-29T13:53:03Z</time>
      </trkpt>
      <trkpt lat="49.8363" lon="2.19333">
        <ele>100.1</ele>
        <time>2023-03-29T13:53:04Z</time>
      </trkpt>
      <trkpt lat="49.83629" lon="2.19331">
        <ele>100.1</ele>
        <time>2023-03-29T13:53:06Z</time>
      </trkpt>
      <trkpt lat="49.83629" lon="2.19329">
        <ele>100.1</ele>
        <time>2023-03-29T13:53:07Z</time>
      </trkpt>
      <trkpt lat="49.83628" lon="2.19326">
        <ele>100.1</ele>
        <time>2023-03-29T13:53:08Z</time>
      </trkpt>
      <trkpt lat="49.83628" lon="2.19323">
        <ele>100.1</ele>
        <time>2023-03-29T13:53:09Z</time>
      </trkpt>
      <trkpt lat="49.83628" lon="2.19322">
        <ele>100.1</ele>
        <time>2023-03-29T13:53:10Z</time>
      </trkpt>
      <trkpt lat="49.83627" lon="2.1932">
        <ele>100.1</ele>
        <time>2023-03-29T13:53:11Z</time>
      </trkpt>
      <trkpt lat="49.83626" lon="2.19316">
        <ele>100.1</ele>
        <time>2023-03-29T13:53:12Z</time>
      </trkpt>
      <trkpt lat="49.83626" lon="2.19315">
        <ele>100.1</ele>
        <time>2023-03-29T13:53:14Z</time>
      </trkpt>
      <trkpt lat="49.83625" lon="2.19313">
        <ele>100.1</ele>
        <time>2023-03-29T13:53:15Z</time>
      </trkpt>
      <trkpt lat="49.83625" lon="2.19311">
        <ele>100.1</ele>
        <time>2023-03-29T13:53:16Z</time>
      </trkpt>
      <trkpt lat="49.83625" lon="2.19309">
        <ele>100.1</ele>
        <time>2023-03-29T13:53:17Z</time>
      </trkpt>
      <trkpt lat="49.83624" lon="2.19306">
        <ele>100.1</ele>
        <time>2023-03-29T13:53:18Z</time>
      </trkpt>
      <trkpt lat="49.83624" lon="2.19305">
        <ele>100.1</ele>
        <time>2023-03-29T13:53:19Z</time>
      </trkpt>
      <trkpt lat="49.83623" lon="2.19303">
        <ele>100.1</ele>
        <time>2023-03-29T13:53:20Z</time>
      </trkpt>
      <trkpt lat="49.83623" lon="2.19301">
        <ele>100.1</ele>
        <time>2023-03-29T13:53:21Z</time>
      </trkpt>
      <trkpt lat="49.83622" lon="2.193">
        <ele>100.1</ele>
        <time>2023-03-29T13:53:23Z</time>
      </trkpt>
      <trkpt lat="49.83621" lon="2.19297">
        <ele>100.2</ele>
        <time>2023-03-29T13:53:24Z</time>
      </trkpt>
      <trkpt lat="49.83621" lon="2.19295">
        <ele>100.2</ele>
        <time>2023-03-29T13:53:25Z</time>
      </trkpt>
      <trkpt lat="49.83621" lon="2.19293">
        <ele>100.2</ele>
        <time>2023-03-29T13:53:26Z</time>
      </trkpt>
      <trkpt lat="49.8362" lon="2.19291">
        <ele>100.2</ele>
        <time>2023-03-29T13:53:27Z</time>
      </trkpt>
      <trkpt lat="49.8362" lon="2.19287">
        <ele>100.2</ele>
        <time>2023-03-29T13:53:28Z</time>
      </trkpt>
      <trkpt lat="49.8362" lon="2.19286">
        <ele>100.2</ele>
        <time>2023-03-29T13:53:29Z</time>
      </trkpt>
      <trkpt lat="49.83619" lon="2.19282">
        <ele>100.2</ele>
        <time>2023-03-29T13:53:30Z</time>
      </trkpt>
      <trkpt lat="49.83619" lon="2.19281">
        <ele>100.2</ele>
        <time>2023-03-29T13:53:32Z</time>
      </trkpt>
      <trkpt lat="49.83618" lon="2.19279">
        <ele>100.2</ele>
        <time>2023-03-29T13:53:33Z</time>
      </trkpt>
      <trkpt lat="49.83618" lon="2.19276">
        <ele>100.2</ele>
        <time>2023-03-29T13:53:34Z</time>
      </trkpt>
      <trkpt lat="49.83617" lon="2.19275">
        <ele>100.2</ele>
        <time>2023-03-29T13:53:35Z</time>
      </trkpt>
      <trkpt lat="49.83617" lon="2.19273">
        <ele>100.2</ele>
        <time>2023-03-29T13:53:36Z</time>
      </trkpt>
      <trkpt lat="49.83616" lon="2.1927">
        <ele>100.2</ele>
        <time>2023-03-29T13:53:37Z</time>
      </trkpt>
      <trkpt lat="49.83616" lon="2.19268">
        <ele>100.2</ele>
        <time>2023-03-29T13:53:39Z</time>
      </trkpt>
      <trkpt lat="49.83616" lon="2.19266">
        <ele>100.2</ele>
        <time>2023-03-29T13:53:40Z</time>
      </trkpt>
      <trkpt lat="49.83615" lon="2.19265">
        <ele>100.2</ele>
        <time>2023-03-29T13:53:41Z</time>
      </trkpt>
      <trkpt lat="49.83615" lon="2.19263">
        <ele>100.2</ele>
        <time>2023-03-29T13:53:42Z</time>
      </trkpt>
      <trkpt lat="49.83614" lon="2.1926">
        <ele>100.2</ele>
        <time>2023-03-29T13:53:43Z</time>
      </trkpt>
      <trkpt lat="49.83614" lon="2.19258">
        <ele>100.2</ele>
        <time>2023-03-29T13:53:44Z</time>
      </trkpt>
      <trkpt lat="49.83614" lon="2.19257">
        <ele>100.2</ele>
        <time>2023-03-29T13:53:45Z</time>
      </trkpt>
      <trkpt lat="49.83613" lon="2.19255">
        <ele>100.2</ele>
        <time>2023-03-29T13:53:46Z</time>
      </trkpt>
      <trkpt lat="49.83613" lon="2.19253">
        <ele>100.2</ele>
        <time>2023-03-29T13:53:48Z</time>
      </trkpt>
      <trkpt lat="49.83612" lon="2.1925">
        <ele>100.3</ele>
        <time>2023-03-29T13:53:49Z</time>
      </trkpt>
      <trkpt lat="49.83612" lon="2.19249">
        <ele>100.3</ele>
        <time>2023-03-29T13:53:50Z</time>
      </trkpt>
      <trkpt lat="49.83611" lon="2.19248">
        <ele>100.3</ele>
        <time>2023-03-29T13:53:51Z</time>
      </trkpt>
      <trkpt lat="49.83611" lon="2.19246">
        <ele>100.3</ele>
        <time>2023-03-29T13:53:52Z</time>
      </trkpt>
      <trkpt lat="49.8361" lon="2.19243">
        <ele>100.3</ele>
        <time>2023-03-29T13:53:53Z</time>
      </trkpt>
      <trkpt lat="49.8361" lon="2.19242">
        <ele>100.3</ele>
        <time>2023-03-29T13:53:54Z</time>
      </trkpt>
      <trkpt lat="49.8361" lon="2.1924">
        <ele>100.3</ele>
        <time>2023-03-29T13:53:56Z</time>
      </trkpt>
      <trkpt lat="49.8361" lon="2.19239">
        <ele>100.3</ele>
        <time>2023-03-29T13:53:57Z</time>
      </trkpt>
      <trkpt lat="49.83609" lon="2.19235">
        <ele>100.3</ele>
        <time>2023-03-29T13:53:58Z</time>
      </trkpt>
      <trkpt lat="49.83609" lon="2.19234">
        <ele>100.3</ele>
        <time>2023-03-29T13:53:59Z</time>
      </trkpt>
      <trkpt lat="49.83609" lon="2.19233">
        <ele>100.3</ele>
        <time>2023-03-29T13:54:00Z</time>
      </trkpt>
      <trkpt lat="49.83609" lon="2.19232">
        <ele>100.3</ele>
        <time>2023-03-29T13:54:01Z</time>
      </trkpt>
      <trkpt lat="49.83608" lon="2.1923">
        <ele>100.3</ele>
        <time>2023-03-29T13:54:02Z</time>
      </trkpt>
      <trkpt lat="49.83608" lon="2.19227">
        <ele>100.4</ele>
        <time>2023-03-29T13:54:04Z</time>
      </trkpt>
      <trkpt lat="49.83608" lon="2.19226">
        <ele>100.4</ele>
        <time>2023-03-29T13:54:05Z</time>
      </trkpt>
      <trkpt lat="49.83608" lon="2.19224">
        <ele>100.4</ele>
        <time>2023-03-29T13:54:06Z</time>
      </trkpt>
      <trkpt lat="49.83607" lon="2.19222">
        <ele>100.4</ele>
        <time>2023-03-29T13:54:07Z</time>
      </trkpt>
      <trkpt lat="49.83607" lon="2.1922">
        <ele>100.4</ele>
        <time>2023-03-29T13:54:08Z</time>
      </trkpt>
      <trkpt lat="49.83606" lon="2.19218">
        <ele>100.4</ele>
        <time>2023-03-29T13:54:09Z</time>
      </trkpt>
      <trkpt lat="49.83606" lon="2.19215">
        <ele>100.4</ele>
        <time>2023-03-29T13:54:10Z</time>
      </trkpt>
      <trkpt lat="49.83606" lon="2.19214">
        <ele>100.4</ele>
        <time>2023-03-29T13:54:12Z</time>
      </trkpt>
      <trkpt lat="49.83606" lon="2.19213">
        <ele>100.4</ele>
        <time>2023-03-29T13:54:13Z</time>
      </trkpt>
      <trkpt lat="49.83606" lon="2.1921">
        <ele>100.5</ele>
        <time>2023-03-29T13:54:14Z</time>
      </trkpt>
      <trkpt lat="49.83605" lon="2.19208">
        <ele>100.5</ele>
        <time>2023-03-29T13:54:15Z</time>
      </trkpt>
      <trkpt lat="49.83605" lon="2.19204">
        <ele>100.5</ele>
        <time>2023-03-29T13:54:16Z</time>
      </trkpt>
      <trkpt lat="49.83605" lon="2.19203">
        <ele>100.5</ele>
        <time>2023-03-29T13:54:17Z</time>
      </trkpt>
      <trkpt lat="49.83605" lon="2.19201">
        <ele>100.5</ele>
        <time>2023-03-29T13:54:18Z</time>
      </trkpt>
      <trkpt lat="49.83605" lon="2.192">
        <ele>100.5</ele>
        <time>2023-03-29T13:54:19Z</time>
      </trkpt>
      <trkpt lat="49.83605" lon="2.19198">
        <ele>100.5</ele>
        <time>2023-03-29T13:54:21Z</time>
      </trkpt>
      <trkpt lat="49.83605" lon="2.19197">
        <ele>100.5</ele>
        <time>2023-03-29T13:54:22Z</time>
      </trkpt>
      <trkpt lat="49.83604" lon="2.19194">
        <ele>100.6</ele>
        <time>2023-03-29T13:54:23Z</time>
      </trkpt>
      <trkpt lat="49.83604" lon="2.19192">
        <ele>100.6</ele>
        <time>2023-03-29T13:54:24Z</time>
      </trkpt>
      <trkpt lat="49.83604" lon="2.19191">
        <ele>100.6</ele>
        <time>2023-03-29T13:54:25Z</time>
      </trkpt>
      <trkpt lat="49.83603" lon="2.19189">
        <ele>100.6</ele>
        <time>2023-03-29T13:54:26Z</time>
      </trkpt>
      <trkpt lat="49.83603" lon="2.19188">
        <ele>100.6</ele>
        <time>2023-03-29T13:54:27Z</time>
      </trkpt>
      <trkpt lat="49.83602" lon="2.19185">
        <ele>100.6</ele>
        <time>2023-03-29T13:54:29Z</time>
      </trkpt>
      <trkpt lat="49.83601" lon="2.19184">
        <ele>100.6</ele>
        <time>2023-03-29T13:54:30Z</time>
      </trkpt>
      <trkpt lat="49.83601" lon="2.19183">
        <ele>100.6</ele>
        <time>2023-03-29T13:54:31Z</time>
      </trkpt>
      <trkpt lat="49.83601" lon="2.19181">
        <ele>100.7</ele>
        <time>2023-03-29T13:54:32Z</time>
      </trkpt>
      <trkpt lat="49.836" lon="2.19179">
        <ele>100.7</ele>
        <time>2023-03-29T13:54:33Z</time>
      </trkpt>
      <trkpt lat="49.836" lon="2.19178">
        <ele>100.7</ele>
        <time>2023-03-29T13:54:34Z</time>
      </trkpt>
      <trkpt lat="49.836" lon="2.19176">
        <ele>100.7</ele>
        <time>2023-03-29T13:54:35Z</time>
      </trkpt>
      <trkpt lat="49.83599" lon="2.19175">
        <ele>100.7</ele>
        <time>2023-03-29T13:54:36Z</time>
      </trkpt>
      <trkpt lat="49.83599" lon="2.19173">
        <ele>100.7</ele>
        <time>2023-03-29T13:54:38Z</time>
      </trkpt>
      <trkpt lat="49.83598" lon="2.19172">
        <ele>100.7</ele>
        <time>2023-03-29T13:54:39Z</time>
      </trkpt>
      <trkpt lat="49.83598" lon="2.1917">
        <ele>100.8</ele>
        <time>2023-03-29T13:54:40Z</time>
      </trkpt>
      <trkpt lat="49.83597" lon="2.19169">
        <ele>100.8</ele>
        <time>2023-03-29T13:54:41Z</time>
      </trkpt>
      <trkpt lat="49.83597" lon="2.19167">
        <ele>100.8</ele>
        <time>2023-03-29T13:54:42Z</time>
      </trkpt>
      <trkpt lat="49.83596" lon="2.19165">
        <ele>100.8</ele>
        <time>2023-03-29T13:54:43Z</time>
      </trkpt>
      <trkpt lat="49.83596" lon="2.19164">
        <ele>100.8</ele>
        <time>2023-03-29T13:54:45Z</time>
      </trkpt>
      <trkpt lat="49.83596" lon="2.19163">
        <ele>100.8</ele>
        <time>2023-03-29T13:54:46Z</time>
      </trkpt>
      <trkpt lat="49.83595" lon="2.19161">
        <ele>100.8</ele>
        <time>2023-03-29T13:54:47Z</time>
      </trkpt>
      <trkpt lat="49.83595" lon="2.1916">
        <ele>100.9</ele>
        <time>2023-03-29T13:54:48Z</time>
      </trkpt>
      <trkpt lat="49.83595" lon="2.19159">
        <ele>100.9</ele>
        <time>2023-03-29T13:54:49Z</time>
      </trkpt>
      <trkpt lat="49.83594" lon="2.19157">
        <ele>100.9</ele>
        <time>2023-03-29T13:54:50Z</time>
      </trkpt>
      <trkpt lat="49.83594" lon="2.19155">
        <ele>100.9</ele>
        <time>2023-03-29T13:54:51Z</time>
      </trkpt>
      <trkpt lat="49.83593" lon="2.19153">
        <ele>100.9</ele>
        <time>2023-03-29T13:54:53Z</time>
      </trkpt>
      <trkpt lat="49.83593" lon="2.19152">
        <ele>100.9</ele>
        <time>2023-03-29T13:54:54Z</time>
      </trkpt>
      <trkpt lat="49.83592" lon="2.19149">
        <ele>101</ele>
        <time>2023-03-29T13:54:55Z</time>
      </trkpt>
      <trkpt lat="49.83592" lon="2.19148">
        <ele>101</ele>
        <time>2023-03-29T13:54:56Z</time>
      </trkpt>
      <trkpt lat="49.83591" lon="2.19147">
        <ele>101</ele>
        <time>2023-03-29T13:54:57Z</time>
      </trkpt>
      <trkpt lat="49.8359" lon="2.19143">
        <ele>101</ele>
        <time>2023-03-29T13:54:58Z</time>
      </trkpt>
      <trkpt lat="49.8359" lon="2.19142">
        <ele>101</ele>
        <time>2023-03-29T13:55:00Z</time>
      </trkpt>
      <trkpt lat="49.8359" lon="2.19141">
        <ele>101.1</ele>
        <time>2023-03-29T13:55:01Z</time>
      </trkpt>
      <trkpt lat="49.8359" lon="2.19138">
        <ele>101.1</ele>
        <time>2023-03-29T13:55:02Z</time>
      </trkpt>
      <trkpt lat="49.83589" lon="2.19137">
        <ele>101.1</ele>
        <time>2023-03-29T13:55:03Z</time>
      </trkpt>
      <trkpt lat="49.83589" lon="2.19135">
        <ele>101.2</ele>
        <time>2023-03-29T13:55:04Z</time>
      </trkpt>
      <trkpt lat="49.83589" lon="2.19134">
        <ele>101.2</ele>
        <time>2023-03-29T13:55:05Z</time>
      </trkpt>
      <trkpt lat="49.83589" lon="2.19132">
        <ele>101.2</ele>
        <time>2023-03-29T13:55:06Z</time>
      </trkpt>
      <trkpt lat="49.83589" lon="2.1913">
        <ele>101.2</ele>
        <time>2023-03-29T13:55:08Z</time>
      </trkpt>
      <trkpt lat="49.83588" lon="2.19128">
        <ele>101.3</ele>
        <time>2023-03-29T13:55:09Z</time>
      </trkpt>
      <trkpt lat="49.83588" lon="2.19126">
        <ele>101.3</ele>
        <time>2023-03-29T13:55:10Z</time>
      </trkpt>
      <trkpt lat="49.83588" lon="2.19122">
        <ele>101.3</ele>
        <time>2023-03-29T13:55:11Z</time>
      </trkpt>
      <trkpt lat="49.83588" lon="2.19121">
        <ele>101.4</ele>
        <time>2023-03-29T13:55:12Z</time>
      </trkpt>
      <trkpt lat="49.83588" lon="2.19119">
        <ele>101.4</ele>
        <time>2023-03-29T13:55:13Z</time>
      </trkpt>
      <trkpt lat="49.83587" lon="2.19117">
        <ele>101.4</ele>
        <time>2023-03-29T13:55:14Z</time>
      </trkpt>
      <trkpt lat="49.83587" lon="2.19116">
        <ele>101.5</ele>
        <time>2023-03-29T13:55:16Z</time>
      </trkpt>
      <trkpt lat="49.83587" lon="2.19115">
        <ele>101.5</ele>
        <time>2023-03-29T13:55:17Z</time>
      </trkpt>
      <trkpt lat="49.83586" lon="2.19114">
        <ele>101.5</ele>
        <time>2023-03-29T13:55:18Z</time>
      </trkpt>
      <trkpt lat="49.83586" lon="2.19112">
        <ele>101.5</ele>
        <time>2023-03-29T13:55:19Z</time>
      </trkpt>
      <trkpt lat="49.83586" lon="2.19111">
        <ele>101.6</ele>
        <time>2023-03-29T13:55:20Z</time>
      </trkpt>
      <trkpt lat="49.83586" lon="2.19109">
        <ele>101.6</ele>
        <time>2023-03-29T13:55:22Z</time>
      </trkpt>
      <trkpt lat="49.83586" lon="2.19108">
        <ele>101.6</ele>
        <time>2023-03-29T13:55:23Z</time>
      </trkpt>
      <trkpt lat="49.83586" lon="2.19106">
        <ele>101.6</ele>
        <time>2023-03-29T13:55:24Z</time>
      </trkpt>
      <trkpt lat="49.83586" lon="2.19105">
        <ele>101.7</ele>
        <time>2023-03-29T13:55:25Z</time>
      </trkpt>
      <trkpt lat="49.83586" lon="2.19104">
        <ele>101.7</ele>
        <time>2023-03-29T13:55:26Z</time>
      </trkpt>
      <trkpt lat="49.83586" lon="2.19103">
        <ele>101.7</ele>
        <time>2023-03-29T13:55:27Z</time>
      </trkpt>
      <trkpt lat="49.83585" lon="2.19101">
        <ele>101.7</ele>
        <time>2023-03-29T13:55:29Z</time>
      </trkpt>
      <trkpt lat="49.83585" lon="2.191">
        <ele>101.8</ele>
        <time>2023-03-29T13:55:30Z</time>
      </trkpt>
      <trkpt lat="49.83585" lon="2.19099">
        <ele>101.8</ele>
        <time>2023-03-29T13:55:31Z</time>
      </trkpt>
      <trkpt lat="49.83585" lon="2.19098">
        <ele>101.8</ele>
        <time>2023-03-29T13:55:32Z</time>
      </trkpt>
      <trkpt lat="49.83585" lon="2.19097">
        <ele>101.8</ele>
        <time>2023-03-29T13:55:33Z</time>
      </trkpt>
      <trkpt lat="49.83585" lon="2.19094">
        <ele>101.9</ele>
        <time>2023-03-29T13:55:34Z</time>
      </trkpt>
      <trkpt lat="49.83585" lon="2.19093">
        <ele>101.9</ele>
        <time>2023-03-29T13:55:36Z</time>
      </trkpt>
      <trkpt lat="49.83585" lon="2.19092">
        <ele>101.9</ele>
        <time>2023-03-29T13:55:37Z</time>
      </trkpt>
      <trkpt lat="49.83585" lon="2.1909">
        <ele>101.9</ele>
        <time>2023-03-29T13:55:38Z</time>
      </trkpt>
      <trkpt lat="49.83584" lon="2.19088">
        <ele>102</ele>
        <time>2023-03-29T13:55:39Z</time>
      </trkpt>
      <trkpt lat="49.83584" lon="2.19087">
        <ele>102</ele>
        <time>2023-03-29T13:55:40Z</time>
      </trkpt>
      <trkpt lat="49.83584" lon="2.19085">
        <ele>102</ele>
        <time>2023-03-29T13:55:41Z</time>
      </trkpt>
      <trkpt lat="49.83583" lon="2.19083">
        <ele>102.1</ele>
        <time>2023-03-29T13:55:42Z</time>
      </trkpt>
      <trkpt lat="49.83583" lon="2.19081">
        <ele>102.1</ele>
        <time>2023-03-29T13:55:44Z</time>
      </trkpt>
      <trkpt lat="49.83583" lon="2.1908">
        <ele>102.1</ele>
        <time>2023-03-29T13:55:45Z</time>
      </trkpt>
      <trkpt lat="49.83583" lon="2.19078">
        <ele>102.2</ele>
        <time>2023-03-29T13:55:46Z</time>
      </trkpt>
      <trkpt lat="49.83583" lon="2.19076">
        <ele>102.2</ele>
        <time>2023-03-29T13:55:47Z</time>
      </trkpt>
      <trkpt lat="49.83583" lon="2.19074">
        <ele>102.2</ele>
        <time>2023-03-29T13:55:48Z</time>
      </trkpt>
      <trkpt lat="49.83582" lon="2.19072">
        <ele>102.3</ele>
        <time>2023-03-29T13:55:50Z</time>
      </trkpt>
      <trkpt lat="49.83582" lon="2.1907">
        <ele>102.3</ele>
        <time>2023-03-29T13:55:51Z</time>
      </trkpt>
      <trkpt lat="49.83582" lon="2.19068">
        <ele>102.3</ele>
        <time>2023-03-29T13:55:52Z</time>
      </trkpt>
      <trkpt lat="49.83582" lon="2.19067">
        <ele>102.4</ele>
        <time>2023-03-29T13:55:53Z</time>
      </trkpt>
      <trkpt lat="49.83582" lon="2.19063">
        <ele>102.4</ele>
        <time>2023-03-29T13:55:55Z</time>
      </trkpt>
      <trkpt lat="49.83582" lon="2.19062">
        <ele>102.4</ele>
        <time>2023-03-29T13:55:56Z</time>
      </trkpt>
      <trkpt lat="49.83582" lon="2.19059">
        <ele>102.5</ele>
        <time>2023-03-29T13:55:57Z</time>
      </trkpt>
      <trkpt lat="49.83582" lon="2.19057">
        <ele>102.5</ele>
        <time>2023-03-29T13:55:58Z</time>
      </trkpt>
      <trkpt lat="49.83582" lon="2.19056">
        <ele>102.5</ele>
        <time>2023-03-29T13:55:59Z</time>
      </trkpt>
      <trkpt lat="49.83582" lon="2.19052">
        <ele>102.5</ele>
        <time>2023-03-29T13:56:00Z</time>
      </trkpt>
      <trkpt lat="49.83582" lon="2.19051">
        <ele>102.5</ele>
        <time>2023-03-29T13:56:01Z</time>
      </trkpt>
      <trkpt lat="49.83582" lon="2.1905">
        <ele>102.6</ele>
        <time>2023-03-29T13:56:02Z</time>
      </trkpt>
      <trkpt lat="49.83582" lon="2.19047">
        <ele>102.6</ele>
        <time>2023-03-29T13:56:03Z</time>
      </trkpt>
      <trkpt lat="49.83582" lon="2.19046">
        <ele>102.6</ele>
        <time>2023-03-29T13:56:05Z</time>
      </trkpt>
      <trkpt lat="49.83582" lon="2.19044">
        <ele>102.6</ele>
        <time>2023-03-29T13:56:06Z</time>
      </trkpt>
      <trkpt lat="49.83581" lon="2.19041">
        <ele>102.7</ele>
        <time>2023-03-29T13:56:07Z</time>
      </trkpt>
      <trkpt lat="49.83581" lon="2.19039">
        <ele>102.7</ele>
        <time>2023-03-29T13:56:08Z</time>
      </trkpt>
      <trkpt lat="49.83581" lon="2.19038">
        <ele>102.7</ele>
        <time>2023-03-29T13:56:09Z</time>
      </trkpt>
      <trkpt lat="49.83581" lon="2.19037">
        <ele>102.7</ele>
        <time>2023-03-29T13:56:10Z</time>
      </trkpt>
      <trkpt lat="49.83581" lon="2.19035">
        <ele>102.7</ele>
        <time>2023-03-29T13:56:12Z</time>
      </trkpt>
      <trkpt lat="49.83581" lon="2.19033">
        <ele>102.7</ele>
        <time>2023-03-29T13:56:13Z</time>
      </trkpt>
      <trkpt lat="49.83581" lon="2.19031">
        <ele>102.7</ele>
        <time>2023-03-29T13:56:14Z</time>
      </trkpt>
      <trkpt lat="49.8358" lon="2.19029">
        <ele>102.7</ele>
        <time>2023-03-29T13:56:15Z</time>
      </trkpt>
      <trkpt lat="49.8358" lon="2.19028">
        <ele>102.7</ele>
        <time>2023-03-29T13:56:16Z</time>
      </trkpt>
      <trkpt lat="49.8358" lon="2.19026">
        <ele>102.8</ele>
        <time>2023-03-29T13:56:18Z</time>
      </trkpt>
      <trkpt lat="49.8358" lon="2.19024">
        <ele>102.8</ele>
        <time>2023-03-29T13:56:19Z</time>
      </trkpt>
      <trkpt lat="49.83579" lon="2.19023">
        <ele>102.8</ele>
        <time>2023-03-29T13:56:20Z</time>
      </trkpt>
      <trkpt lat="49.83579" lon="2.1902">
        <ele>102.8</ele>
        <time>2023-03-29T13:56:21Z</time>
      </trkpt>
      <trkpt lat="49.83579" lon="2.19019">
        <ele>102.8</ele>
        <time>2023-03-29T13:56:22Z</time>
      </trkpt>
      <trkpt lat="49.83579" lon="2.19017">
        <ele>102.8</ele>
        <time>2023-03-29T13:56:23Z</time>
      </trkpt>
      <trkpt lat="49.83579" lon="2.19016">
        <ele>102.8</ele>
        <time>2023-03-29T13:56:25Z</time>
      </trkpt>
      <trkpt lat="49.83579" lon="2.19015">
        <ele>102.8</ele>
        <time>2023-03-29T13:56:26Z</time>
      </trkpt>
      <trkpt lat="49.83578" lon="2.19013">
        <ele>102.8</ele>
        <time>2023-03-29T13:56:27Z</time>
      </trkpt>
      <trkpt lat="49.83578" lon="2.19012">
        <ele>102.8</ele>
        <time>2023-03-29T13:56:28Z</time>
      </trkpt>
      <trkpt lat="49.83578" lon="2.1901">
        <ele>102.8</ele>
        <time>2023-03-29T13:56:30Z</time>
      </trkpt>
      <trkpt lat="49.83578" lon="2.19009">
        <ele>102.8</ele>
        <time>2023-03-29T13:56:31Z</time>
      </trkpt>
      <trkpt lat="49.83578" lon="2.19008">
        <ele>102.8</ele>
        <time>2023-03-29T13:56:33Z</time>
      </trkpt>
      <trkpt lat="49.83578" lon="2.19006">
        <ele>102.8</ele>
        <time>2023-03-29T13:56:34Z</time>
      </trkpt>
      <trkpt lat="49.83577" lon="2.19005">
        <ele>102.8</ele>
        <time>2023-03-29T13:56:35Z</time>
      </trkpt>
      <trkpt lat="49.83577" lon="2.19003">
        <ele>102.8</ele>
        <time>2023-03-29T13:56:36Z</time>
      </trkpt>
      <trkpt lat="49.83577" lon="2.19002">
        <ele>102.8</ele>
        <time>2023-03-29T13:56:37Z</time>
      </trkpt>
      <trkpt lat="49.83577" lon="2.19">
        <ele>102.7</ele>
        <time>2023-03-29T13:56:38Z</time>
      </trkpt>
      <trkpt lat="49.83576" lon="2.18998">
        <ele>102.7</ele>
        <time>2023-03-29T13:56:39Z</time>
      </trkpt>
      <trkpt lat="49.83576" lon="2.18997">
        <ele>102.7</ele>
        <time>2023-03-29T13:56:40Z</time>
      </trkpt>
      <trkpt lat="49.83576" lon="2.18995">
        <ele>102.7</ele>
        <time>2023-03-29T13:56:41Z</time>
      </trkpt>
      <trkpt lat="49.83576" lon="2.18993">
        <ele>102.7</ele>
        <time>2023-03-29T13:56:43Z</time>
      </trkpt>
      <trkpt lat="49.83576" lon="2.1899">
        <ele>102.7</ele>
        <time>2023-03-29T13:56:44Z</time>
      </trkpt>
      <trkpt lat="49.83575" lon="2.18988">
        <ele>102.7</ele>
        <time>2023-03-29T13:56:45Z</time>
      </trkpt>
      <trkpt lat="49.83575" lon="2.18985">
        <ele>102.6</ele>
        <time>2023-03-29T13:56:47Z</time>
      </trkpt>
      <trkpt lat="49.83575" lon="2.18984">
        <ele>102.6</ele>
        <time>2023-03-29T13:56:48Z</time>
      </trkpt>
      <trkpt lat="49.83574" lon="2.18982">
        <ele>102.6</ele>
        <time>2023-03-29T13:56:49Z</time>
      </trkpt>
      <trkpt lat="49.83574" lon="2.18981">
        <ele>102.6</ele>
        <time>2023-03-29T13:56:50Z</time>
      </trkpt>
      <trkpt lat="49.83574" lon="2.18979">
        <ele>102.6</ele>
        <time>2023-03-29T13:56:51Z</time>
      </trkpt>
      <trkpt lat="49.83573" lon="2.18977">
        <ele>102.5</ele>
        <time>2023-03-29T13:56:52Z</time>
      </trkpt>
      <trkpt lat="49.83573" lon="2.18974">
        <ele>102.5</ele>
        <time>2023-03-29T13:56:53Z</time>
      </trkpt>
      <trkpt lat="49.83573" lon="2.18973">
        <ele>102.5</ele>
        <time>2023-03-29T13:56:54Z</time>
      </trkpt>
      <trkpt lat="49.83572" lon="2.18972">
        <ele>102.5</ele>
        <time>2023-03-29T13:56:55Z</time>
      </trkpt>
      <trkpt lat="49.83572" lon="2.18968">
        <ele>102.4</ele>
        <time>2023-03-29T13:56:57Z</time>
      </trkpt>
      <trkpt lat="49.83572" lon="2.18967">
        <ele>102.4</ele>
        <time>2023-03-29T13:56:58Z</time>
      </trkpt>
      <trkpt lat="49.83571" lon="2.18966">
        <ele>102.4</ele>
        <time>2023-03-29T13:56:59Z</time>
      </trkpt>
      <trkpt lat="49.83571" lon="2.18964">
        <ele>102.4</ele>
        <time>2023-03-29T13:57:00Z</time>
      </trkpt>
      <trkpt lat="49.83571" lon="2.18962">
        <ele>102.3</ele>
        <time>2023-03-29T13:57:01Z</time>
      </trkpt>
      <trkpt lat="49.83571" lon="2.1896">
        <ele>102.3</ele>
        <time>2023-03-29T13:57:02Z</time>
      </trkpt>
      <trkpt lat="49.83571" lon="2.18958">
        <ele>102.3</ele>
        <time>2023-03-29T13:57:03Z</time>
      </trkpt>
      <trkpt lat="49.8357" lon="2.18955">
        <ele>102.2</ele>
        <time>2023-03-29T13:57:04Z</time>
      </trkpt>
      <trkpt lat="49.8357" lon="2.18952">
        <ele>102.2</ele>
        <time>2023-03-29T13:57:06Z</time>
      </trkpt>
      <trkpt lat="49.8357" lon="2.18951">
        <ele>102.2</ele>
        <time>2023-03-29T13:57:07Z</time>
      </trkpt>
      <trkpt lat="49.8357" lon="2.18949">
        <ele>102.2</ele>
        <time>2023-03-29T13:57:08Z</time>
      </trkpt>
      <trkpt lat="49.83569" lon="2.18946">
        <ele>102.1</ele>
        <time>2023-03-29T13:57:09Z</time>
      </trkpt>
      <trkpt lat="49.83569" lon="2.18945">
        <ele>102.1</ele>
        <time>2023-03-29T13:57:10Z</time>
      </trkpt>
      <trkpt lat="49.83569" lon="2.18944">
        <ele>102.1</ele>
        <time>2023-03-29T13:57:11Z</time>
      </trkpt>
      <trkpt lat="49.83568" lon="2.18942">
        <ele>102</ele>
        <time>2023-03-29T13:57:13Z</time>
      </trkpt>
      <trkpt lat="49.83568" lon="2.18939">
        <ele>102</ele>
        <time>2023-03-29T13:57:14Z</time>
      </trkpt>
      <trkpt lat="49.83568" lon="2.18938">
        <ele>102</ele>
        <time>2023-03-29T13:57:15Z</time>
      </trkpt>
      <trkpt lat="49.83568" lon="2.18936">
        <ele>102</ele>
        <time>2023-03-29T13:57:16Z</time>
      </trkpt>
      <trkpt lat="49.83568" lon="2.18934">
        <ele>101.9</ele>
        <time>2023-03-29T13:57:17Z</time>
      </trkpt>
      <trkpt lat="49.83567" lon="2.18931">
        <ele>101.9</ele>
        <time>2023-03-29T13:57:19Z</time>
      </trkpt>
      <trkpt lat="49.83567" lon="2.18929">
        <ele>101.9</ele>
        <time>2023-03-29T13:57:20Z</time>
      </trkpt>
      <trkpt lat="49.83567" lon="2.18926">
        <ele>101.8</ele>
        <time>2023-03-29T13:57:21Z</time>
      </trkpt>
      <trkpt lat="49.83566" lon="2.18925">
        <ele>101.8</ele>
        <time>2023-03-29T13:57:22Z</time>
      </trkpt>
      <trkpt lat="49.83566" lon="2.18924">
        <ele>101.8</ele>
        <time>2023-03-29T13:57:23Z</time>
      </trkpt>
      <trkpt lat="49.83566" lon="2.18922">
        <ele>101.8</ele>
        <time>2023-03-29T13:57:24Z</time>
      </trkpt>
      <trkpt lat="49.83565" lon="2.1892">
        <ele>101.7</ele>
        <time>2023-03-29T13:57:25Z</time>
      </trkpt>
      <trkpt lat="49.83565" lon="2.18919">
        <ele>101.7</ele>
        <time>2023-03-29T13:57:26Z</time>
      </trkpt>
      <trkpt lat="49.83565" lon="2.18916">
        <ele>101.7</ele>
        <time>2023-03-29T13:57:28Z</time>
      </trkpt>
      <trkpt lat="49.83565" lon="2.18914">
        <ele>101.7</ele>
        <time>2023-03-29T13:57:29Z</time>
      </trkpt>
      <trkpt lat="49.83565" lon="2.18913">
        <ele>101.6</ele>
        <time>2023-03-29T13:57:30Z</time>
      </trkpt>
      <trkpt lat="49.83564" lon="2.18911">
        <ele>101.6</ele>
        <time>2023-03-29T13:57:31Z</time>
      </trkpt>
      <trkpt lat="49.83564" lon="2.18909">
        <ele>101.6</ele>
        <time>2023-03-29T13:57:33Z</time>
      </trkpt>
      <trkpt lat="49.83563" lon="2.18907">
        <ele>101.6</ele>
        <time>2023-03-29T13:57:34Z</time>
      </trkpt>
      <trkpt lat="49.83563" lon="2.18906">
        <ele>101.5</ele>
        <time>2023-03-29T13:57:35Z</time>
      </trkpt>
      <trkpt lat="49.83563" lon="2.18904">
        <ele>101.5</ele>
        <time>2023-03-29T13:57:36Z</time>
      </trkpt>
      <trkpt lat="49.83562" lon="2.18901">
        <ele>101.5</ele>
        <time>2023-03-29T13:57:37Z</time>
      </trkpt>
      <trkpt lat="49.83562" lon="2.18899">
        <ele>101.5</ele>
        <time>2023-03-29T13:57:38Z</time>
      </trkpt>
      <trkpt lat="49.83562" lon="2.18898">
        <ele>101.5</ele>
        <time>2023-03-29T13:57:39Z</time>
      </trkpt>
      <trkpt lat="49.83562" lon="2.18897">
        <ele>101.5</ele>
        <time>2023-03-29T13:57:40Z</time>
      </trkpt>
      <trkpt lat="49.83561" lon="2.18895">
        <ele>101.4</ele>
        <time>2023-03-29T13:57:41Z</time>
      </trkpt>
      <trkpt lat="49.83561" lon="2.18894">
        <ele>101.4</ele>
        <time>2023-03-29T13:57:42Z</time>
      </trkpt>
      <trkpt lat="49.8356" lon="2.18893">
        <ele>101.4</ele>
        <time>2023-03-29T13:57:44Z</time>
      </trkpt>
      <trkpt lat="49.8356" lon="2.18891">
        <ele>101.4</ele>
        <time>2023-03-29T13:57:45Z</time>
      </trkpt>
      <trkpt lat="49.83559" lon="2.1889">
        <ele>101.4</ele>
        <time>2023-03-29T13:57:46Z</time>
      </trkpt>
      <trkpt lat="49.83559" lon="2.18886">
        <ele>101.3</ele>
        <time>2023-03-29T13:57:47Z</time>
      </trkpt>
      <trkpt lat="49.83558" lon="2.18885">
        <ele>101.3</ele>
        <time>2023-03-29T13:57:48Z</time>
      </trkpt>
      <trkpt lat="49.83558" lon="2.18883">
        <ele>101.3</ele>
        <time>2023-03-29T13:57:49Z</time>
      </trkpt>
      <trkpt lat="49.83558" lon="2.18882">
        <ele>101.3</ele>
        <time>2023-03-29T13:57:50Z</time>
      </trkpt>
      <trkpt lat="49.83557" lon="2.1888">
        <ele>101.3</ele>
        <time>2023-03-29T13:57:51Z</time>
      </trkpt>
      <trkpt lat="49.83557" lon="2.18878">
        <ele>101.3</ele>
        <time>2023-03-29T13:57:52Z</time>
      </trkpt>
      <trkpt lat="49.83556" lon="2.18876">
        <ele>101.3</ele>
        <time>2023-03-29T13:57:53Z</time>
      </trkpt>
      <trkpt lat="49.83556" lon="2.18874">
        <ele>101.2</ele>
        <time>2023-03-29T13:57:55Z</time>
      </trkpt>
      <trkpt lat="49.83556" lon="2.18873">
        <ele>101.2</ele>
        <time>2023-03-29T13:57:56Z</time>
      </trkpt>
      <trkpt lat="49.83555" lon="2.18871">
        <ele>101.2</ele>
        <time>2023-03-29T13:57:57Z</time>
      </trkpt>
      <trkpt lat="49.83555" lon="2.18869">
        <ele>101.2</ele>
        <time>2023-03-29T13:57:58Z</time>
      </trkpt>
      <trkpt lat="49.83554" lon="2.18865">
        <ele>101.2</ele>
        <time>2023-03-29T13:57:59Z</time>
      </trkpt>
      <trkpt lat="49.83554" lon="2.18864">
        <ele>101.2</ele>
        <time>2023-03-29T13:58:00Z</time>
      </trkpt>
      <trkpt lat="49.83554" lon="2.18863">
        <ele>101.2</ele>
        <time>2023-03-29T13:58:01Z</time>
      </trkpt>
      <trkpt lat="49.83554" lon="2.18862">
        <ele>101.1</ele>
        <time>2023-03-29T13:58:02Z</time>
      </trkpt>
      <trkpt lat="49.83553" lon="2.1886">
        <ele>101.1</ele>
        <time>2023-03-29T13:58:03Z</time>
      </trkpt>
      <trkpt lat="49.83553" lon="2.18857">
        <ele>101.1</ele>
        <time>2023-03-29T13:58:05Z</time>
      </trkpt>
      <trkpt lat="49.83552" lon="2.18856">
        <ele>101.1</ele>
        <time>2023-03-29T13:58:06Z</time>
      </trkpt>
      <trkpt lat="49.83552" lon="2.18854">
        <ele>101.1</ele>
        <time>2023-03-29T13:58:07Z</time>
      </trkpt>
      <trkpt lat="49.83552" lon="2.18852">
        <ele>101.1</ele>
        <time>2023-03-29T13:58:08Z</time>
      </trkpt>
      <trkpt lat="49.83552" lon="2.18849">
        <ele>101.1</ele>
        <time>2023-03-29T13:58:09Z</time>
      </trkpt>
      <trkpt lat="49.83553" lon="2.18848">
        <ele>101.1</ele>
        <time>2023-03-29T13:58:10Z</time>
      </trkpt>
      <trkpt lat="49.83553" lon="2.18846">
        <ele>101.1</ele>
        <time>2023-03-29T13:58:11Z</time>
      </trkpt>
      <trkpt lat="49.83553" lon="2.18843">
        <ele>101.1</ele>
        <time>2023-03-29T13:58:12Z</time>
      </trkpt>
      <trkpt lat="49.83553" lon="2.18839">
        <ele>101.1</ele>
        <time>2023-03-29T13:58:13Z</time>
      </trkpt>
      <trkpt lat="49.83553" lon="2.18837">
        <ele>101</ele>
        <time>2023-03-29T13:58:15Z</time>
      </trkpt>
      <trkpt lat="49.83553" lon="2.18836">
        <ele>101</ele>
        <time>2023-03-29T13:58:16Z</time>
      </trkpt>
      <trkpt lat="49.83553" lon="2.18834">
        <ele>101</ele>
        <time>2023-03-29T13:58:17Z</time>
      </trkpt>
      <trkpt lat="49.83553" lon="2.18832">
        <ele>101</ele>
        <time>2023-03-29T13:58:18Z</time>
      </trkpt>
      <trkpt lat="49.83552" lon="2.18829">
        <ele>101</ele>
        <time>2023-03-29T13:58:19Z</time>
      </trkpt>
      <trkpt lat="49.83552" lon="2.18828">
        <ele>101</ele>
        <time>2023-03-29T13:58:20Z</time>
      </trkpt>
      <trkpt lat="49.83552" lon="2.18827">
        <ele>101</ele>
        <time>2023-03-29T13:58:21Z</time>
      </trkpt>
      <trkpt lat="49.83551" lon="2.18825">
        <ele>101</ele>
        <time>2023-03-29T13:58:23Z</time>
      </trkpt>
      <trkpt lat="49.83551" lon="2.18824">
        <ele>101</ele>
        <time>2023-03-29T13:58:24Z</time>
      </trkpt>
      <trkpt lat="49.83551" lon="2.18822">
        <ele>101</ele>
        <time>2023-03-29T13:58:25Z</time>
      </trkpt>
      <trkpt lat="49.83551" lon="2.1882">
        <ele>101</ele>
        <time>2023-03-29T13:58:26Z</time>
      </trkpt>
      <trkpt lat="49.83551" lon="2.18819">
        <ele>101</ele>
        <time>2023-03-29T13:58:27Z</time>
      </trkpt>
      <trkpt lat="49.83551" lon="2.18817">
        <ele>101</ele>
        <time>2023-03-29T13:58:28Z</time>
      </trkpt>
      <trkpt lat="49.83551" lon="2.18814">
        <ele>101</ele>
        <time>2023-03-29T13:58:29Z</time>
      </trkpt>
      <trkpt lat="49.8355" lon="2.18812">
        <ele>101</ele>
        <time>2023-03-29T13:58:30Z</time>
      </trkpt>
      <trkpt lat="49.8355" lon="2.1881">
        <ele>101</ele>
        <time>2023-03-29T13:58:31Z</time>
      </trkpt>
      <trkpt lat="49.8355" lon="2.18809">
        <ele>101</ele>
        <time>2023-03-29T13:58:33Z</time>
      </trkpt>
      <trkpt lat="49.83549" lon="2.18807">
        <ele>101</ele>
        <time>2023-03-29T13:58:34Z</time>
      </trkpt>
      <trkpt lat="49.83549" lon="2.18806">
        <ele>101</ele>
        <time>2023-03-29T13:58:35Z</time>
      </trkpt>
      <trkpt lat="49.83549" lon="2.18804">
        <ele>101</ele>
        <time>2023-03-29T13:58:36Z</time>
      </trkpt>
      <trkpt lat="49.83548" lon="2.18802">
        <ele>101</ele>
        <time>2023-03-29T13:58:37Z</time>
      </trkpt>
      <trkpt lat="49.83548" lon="2.188">
        <ele>100.9</ele>
        <time>2023-03-29T13:58:38Z</time>
      </trkpt>
      <trkpt lat="49.83547" lon="2.18797">
        <ele>100.9</ele>
        <time>2023-03-29T13:58:39Z</time>
      </trkpt>
      <trkpt lat="49.83546" lon="2.18796">
        <ele>100.9</ele>
        <time>2023-03-29T13:58:40Z</time>
      </trkpt>
      <trkpt lat="49.83546" lon="2.18794">
        <ele>100.9</ele>
        <time>2023-03-29T13:58:42Z</time>
      </trkpt>
      <trkpt lat="49.83545" lon="2.18792">
        <ele>100.9</ele>
        <time>2023-03-29T13:58:43Z</time>
      </trkpt>
      <trkpt lat="49.83544" lon="2.18789">
        <ele>100.9</ele>
        <time>2023-03-29T13:58:44Z</time>
      </trkpt>
      <trkpt lat="49.83544" lon="2.18788">
        <ele>100.9</ele>
        <time>2023-03-29T13:58:45Z</time>
      </trkpt>
      <trkpt lat="49.83543" lon="2.18785">
        <ele>100.9</ele>
        <time>2023-03-29T13:58:46Z</time>
      </trkpt>
      <trkpt lat="49.83543" lon="2.18784">
        <ele>100.9</ele>
        <time>2023-03-29T13:58:48Z</time>
      </trkpt>
      <trkpt lat="49.83543" lon="2.18783">
        <ele>100.9</ele>
        <time>2023-03-29T13:58:49Z</time>
      </trkpt>
      <trkpt lat="49.83542" lon="2.1878">
        <ele>100.9</ele>
        <time>2023-03-29T13:58:50Z</time>
      </trkpt>
      <trkpt lat="49.83542" lon="2.18778">
        <ele>100.9</ele>
        <time>2023-03-29T13:58:51Z</time>
      </trkpt>
      <trkpt lat="49.83541" lon="2.18775">
        <ele>100.9</ele>
        <time>2023-03-29T13:58:53Z</time>
      </trkpt>
      <trkpt lat="49.83541" lon="2.18774">
        <ele>100.9</ele>
        <time>2023-03-29T13:58:54Z</time>
      </trkpt>
      <trkpt lat="49.83541" lon="2.18772">
        <ele>100.9</ele>
        <time>2023-03-29T13:58:55Z</time>
      </trkpt>
      <trkpt lat="49.8354" lon="2.18771">
        <ele>100.9</ele>
        <time>2023-03-29T13:58:56Z</time>
      </trkpt>
      <trkpt lat="49.8354" lon="2.18769">
        <ele>100.9</ele>
        <time>2023-03-29T13:58:57Z</time>
      </trkpt>
      <trkpt lat="49.8354" lon="2.18767">
        <ele>100.9</ele>
        <time>2023-03-29T13:58:58Z</time>
      </trkpt>
      <trkpt lat="49.83539" lon="2.18765">
        <ele>100.9</ele>
        <time>2023-03-29T13:58:59Z</time>
      </trkpt>
      <trkpt lat="49.83539" lon="2.18764">
        <ele>100.9</ele>
        <time>2023-03-29T13:59:01Z</time>
      </trkpt>
      <trkpt lat="49.83539" lon="2.18763">
        <ele>100.9</ele>
        <time>2023-03-29T13:59:02Z</time>
      </trkpt>
      <trkpt lat="49.83539" lon="2.18762">
        <ele>100.9</ele>
        <time>2023-03-29T13:59:03Z</time>
      </trkpt>
      <trkpt lat="49.83538" lon="2.1876">
        <ele>100.9</ele>
        <time>2023-03-29T13:59:04Z</time>
      </trkpt>
      <trkpt lat="49.83538" lon="2.18758">
        <ele>100.9</ele>
        <time>2023-03-29T13:59:05Z</time>
      </trkpt>
      <trkpt lat="49.83537" lon="2.18757">
        <ele>100.9</ele>
        <time>2023-03-29T13:59:06Z</time>
      </trkpt>
      <trkpt lat="49.83536" lon="2.18755">
        <ele>100.9</ele>
        <time>2023-03-29T13:59:07Z</time>
      </trkpt>
      <trkpt lat="49.83536" lon="2.18754">
        <ele>100.9</ele>
        <time>2023-03-29T13:59:09Z</time>
      </trkpt>
      <trkpt lat="49.83535" lon="2.18752">
        <ele>100.9</ele>
        <time>2023-03-29T13:59:10Z</time>
      </trkpt>
      <trkpt lat="49.83535" lon="2.18751">
        <ele>100.9</ele>
        <time>2023-03-29T13:59:11Z</time>
      </trkpt>
      <trkpt lat="49.83535" lon="2.18749">
        <ele>100.9</ele>
        <time>2023-03-29T13:59:12Z</time>
      </trkpt>
      <trkpt lat="49.83534" lon="2.18748">
        <ele>100.9</ele>
        <time>2023-03-29T13:59:13Z</time>
      </trkpt>
      <trkpt lat="49.83534" lon="2.18746">
        <ele>100.9</ele>
        <time>2023-03-29T13:59:14Z</time>
      </trkpt>
      <trkpt lat="49.83533" lon="2.18745">
        <ele>100.9</ele>
        <time>2023-03-29T13:59:15Z</time>
      </trkpt>
      <trkpt lat="49.83533" lon="2.18744">
        <ele>100.9</ele>
        <time>2023-03-29T13:59:17Z</time>
      </trkpt>
      <trkpt lat="49.83533" lon="2.18744">
        <ele>100.9</ele>
        <time>2023-03-29T13:59:18Z</time>
      </trkpt>
      <trkpt lat="49.83533" lon="2.18742">
        <ele>100.9</ele>
        <time>2023-03-29T13:59:19Z</time>
      </trkpt>
      <trkpt lat="49.83532" lon="2.18741">
        <ele>100.9</ele>
        <time>2023-03-29T13:59:20Z</time>
      </trkpt>
      <trkpt lat="49.83532" lon="2.1874">
        <ele>100.9</ele>
        <time>2023-03-29T13:59:21Z</time>
      </trkpt>
      <trkpt lat="49.83532" lon="2.18739">
        <ele>100.9</ele>
        <time>2023-03-29T13:59:22Z</time>
      </trkpt>
      <trkpt lat="49.83531" lon="2.18737">
        <ele>100.9</ele>
        <time>2023-03-29T13:59:23Z</time>
      </trkpt>
      <trkpt lat="49.83531" lon="2.18736">
        <ele>100.9</ele>
        <time>2023-03-29T13:59:24Z</time>
      </trkpt>
      <trkpt lat="49.83531" lon="2.18735">
        <ele>100.9</ele>
        <time>2023-03-29T13:59:26Z</time>
      </trkpt>
      <trkpt lat="49.83531" lon="2.18734">
        <ele>100.9</ele>
        <time>2023-03-29T13:59:27Z</time>
      </trkpt>
      <trkpt lat="49.8353" lon="2.18733">
        <ele>100.9</ele>
        <time>2023-03-29T13:59:28Z</time>
      </trkpt>
      <trkpt lat="49.8353" lon="2.18732">
        <ele>100.9</ele>
        <time>2023-03-29T13:59:29Z</time>
      </trkpt>
      <trkpt lat="49.8353" lon="2.18731">
        <ele>100.9</ele>
        <time>2023-03-29T13:59:31Z</time>
      </trkpt>
      <trkpt lat="49.8353" lon="2.18731">
        <ele>100.9</ele>
        <time>2023-03-29T13:59:32Z</time>
      </trkpt>
      <trkpt lat="49.8353" lon="2.1873">
        <ele>100.8</ele>
        <time>2023-03-29T13:59:33Z</time>
      </trkpt>
      <trkpt lat="49.8353" lon="2.18729">
        <ele>100.8</ele>
        <time>2023-03-29T13:59:34Z</time>
      </trkpt>
      <trkpt lat="49.83529" lon="2.18727">
        <ele>100.8</ele>
        <time>2023-03-29T13:59:35Z</time>
      </trkpt>
      <trkpt lat="49.83529" lon="2.18725">
        <ele>100.8</ele>
        <time>2023-03-29T13:59:36Z</time>
      </trkpt>
      <trkpt lat="49.83528" lon="2.18724">
        <ele>100.8</ele>
        <time>2023-03-29T13:59:38Z</time>
      </trkpt>
      <trkpt lat="49.83528" lon="2.18723">
        <ele>100.8</ele>
        <time>2023-03-29T13:59:39Z</time>
      </trkpt>
      <trkpt lat="49.83528" lon="2.18722">
        <ele>100.8</ele>
        <time>2023-03-29T13:59:40Z</time>
      </trkpt>
      <trkpt lat="49.83528" lon="2.1872">
        <ele>100.8</ele>
        <time>2023-03-29T13:59:41Z</time>
      </trkpt>
      <trkpt lat="49.83527" lon="2.18718">
        <ele>100.7</ele>
        <time>2023-03-29T13:59:42Z</time>
      </trkpt>
      <trkpt lat="49.83527" lon="2.18716">
        <ele>100.7</ele>
        <time>2023-03-29T13:59:43Z</time>
      </trkpt>
      <trkpt lat="49.83526" lon="2.18713">
        <ele>100.7</ele>
        <time>2023-03-29T13:59:44Z</time>
      </trkpt>
      <trkpt lat="49.83526" lon="2.18712">
        <ele>100.6</ele>
        <time>2023-03-29T13:59:45Z</time>
      </trkpt>
      <trkpt lat="49.83525" lon="2.18711">
        <ele>100.6</ele>
        <time>2023-03-29T13:59:46Z</time>
      </trkpt>
      <trkpt lat="49.83525" lon="2.1871">
        <ele>100.6</ele>
        <time>2023-03-29T13:59:48Z</time>
      </trkpt>
      <trkpt lat="49.83525" lon="2.18708">
        <ele>100.6</ele>
        <time>2023-03-29T13:59:49Z</time>
      </trkpt>
      <trkpt lat="49.83525" lon="2.18706">
        <ele>100.6</ele>
        <time>2023-03-29T13:59:50Z</time>
      </trkpt>
      <trkpt lat="49.83524" lon="2.18703">
        <ele>100.5</ele>
        <time>2023-03-29T13:59:51Z</time>
      </trkpt>
      <trkpt lat="49.83524" lon="2.18702">
        <ele>100.5</ele>
        <time>2023-03-29T13:59:53Z</time>
      </trkpt>
      <trkpt lat="49.83524" lon="2.187">
        <ele>100.4</ele>
        <time>2023-03-29T13:59:54Z</time>
      </trkpt>
      <trkpt lat="49.83523" lon="2.18698">
        <ele>100.4</ele>
        <time>2023-03-29T13:59:55Z</time>
      </trkpt>
      <trkpt lat="49.83523" lon="2.18696">
        <ele>100.4</ele>
        <time>2023-03-29T13:59:56Z</time>
      </trkpt>
      <trkpt lat="49.83522" lon="2.18692">
        <ele>100.3</ele>
        <time>2023-03-29T13:59:57Z</time>
      </trkpt>
      <trkpt lat="49.83522" lon="2.18691">
        <ele>100.3</ele>
        <time>2023-03-29T13:59:58Z</time>
      </trkpt>
      <trkpt lat="49.83522" lon="2.1869">
        <ele>100.3</ele>
        <time>2023-03-29T13:59:59Z</time>
      </trkpt>
      <trkpt lat="49.83522" lon="2.18687">
        <ele>100.2</ele>
        <time>2023-03-29T14:00:00Z</time>
      </trkpt>
      <trkpt lat="49.83521" lon="2.18685">
        <ele>100.2</ele>
        <time>2023-03-29T14:00:01Z</time>
      </trkpt>
      <trkpt lat="49.83521" lon="2.18683">
        <ele>100.1</ele>
        <time>2023-03-29T14:00:03Z</time>
      </trkpt>
      <trkpt lat="49.8352" lon="2.18681">
        <ele>100.1</ele>
        <time>2023-03-29T14:00:04Z</time>
      </trkpt>
      <trkpt lat="49.8352" lon="2.18678">
        <ele>100</ele>
        <time>2023-03-29T14:00:05Z</time>
      </trkpt>
      <trkpt lat="49.8352" lon="2.18677">
        <ele>100</ele>
        <time>2023-03-29T14:00:06Z</time>
      </trkpt>
      <trkpt lat="49.83519" lon="2.18675">
        <ele>99.9</ele>
        <time>2023-03-29T14:00:07Z</time>
      </trkpt>
      <trkpt lat="49.83519" lon="2.18673">
        <ele>99.9</ele>
        <time>2023-03-29T14:00:08Z</time>
      </trkpt>
      <trkpt lat="49.83518" lon="2.1867">
        <ele>99.8</ele>
        <time>2023-03-29T14:00:09Z</time>
      </trkpt>
      <trkpt lat="49.83517" lon="2.18668">
        <ele>99.8</ele>
        <time>2023-03-29T14:00:10Z</time>
      </trkpt>
      <trkpt lat="49.83517" lon="2.18663">
        <ele>99.7</ele>
        <time>2023-03-29T14:00:11Z</time>
      </trkpt>
      <trkpt lat="49.83516" lon="2.18661">
        <ele>99.6</ele>
        <time>2023-03-29T14:00:13Z</time>
      </trkpt>
      <trkpt lat="49.83516" lon="2.18659">
        <ele>99.6</ele>
        <time>2023-03-29T14:00:14Z</time>
      </trkpt>
      <trkpt lat="49.83516" lon="2.18657">
        <ele>99.5</ele>
        <time>2023-03-29T14:00:15Z</time>
      </trkpt>
      <trkpt lat="49.83515" lon="2.18654">
        <ele>99.5</ele>
        <time>2023-03-29T14:00:16Z</time>
      </trkpt>
      <trkpt lat="49.83515" lon="2.18651">
        <ele>99.4</ele>
        <time>2023-03-29T14:00:17Z</time>
      </trkpt>
      <trkpt lat="49.83514" lon="2.18648">
        <ele>99.4</ele>
        <time>2023-03-29T14:00:18Z</time>
      </trkpt>
      <trkpt lat="49.83514" lon="2.18646">
        <ele>99.3</ele>
        <time>2023-03-29T14:00:19Z</time>
      </trkpt>
      <trkpt lat="49.83513" lon="2.18643">
        <ele>99.2</ele>
        <time>2023-03-29T14:00:20Z</time>
      </trkpt>
      <trkpt lat="49.83513" lon="2.18641">
        <ele>99.2</ele>
        <time>2023-03-29T14:00:22Z</time>
      </trkpt>
      <trkpt lat="49.83513" lon="2.18638">
        <ele>99.1</ele>
        <time>2023-03-29T14:00:23Z</time>
      </trkpt>
      <trkpt lat="49.83513" lon="2.18635">
        <ele>99.1</ele>
        <time>2023-03-29T14:00:24Z</time>
      </trkpt>
      <trkpt lat="49.83512" lon="2.18631">
        <ele>99</ele>
        <time>2023-03-29T14:00:25Z</time>
      </trkpt>
      <trkpt lat="49.83512" lon="2.1863">
        <ele>99</ele>
        <time>2023-03-29T14:00:26Z</time>
      </trkpt>
      <trkpt lat="49.83512" lon="2.18627">
        <ele>98.9</ele>
        <time>2023-03-29T14:00:27Z</time>
      </trkpt>
      <trkpt lat="49.83511" lon="2.18625">
        <ele>98.9</ele>
        <time>2023-03-29T14:00:28Z</time>
      </trkpt>
      <trkpt lat="49.83511" lon="2.1862">
        <ele>98.8</ele>
        <time>2023-03-29T14:00:30Z</time>
      </trkpt>
      <trkpt lat="49.8351" lon="2.18619">
        <ele>98.8</ele>
        <time>2023-03-29T14:00:31Z</time>
      </trkpt>
      <trkpt lat="49.8351" lon="2.18617">
        <ele>98.8</ele>
        <time>2023-03-29T14:00:32Z</time>
      </trkpt>
      <trkpt lat="49.8351" lon="2.18615">
        <ele>98.7</ele>
        <time>2023-03-29T14:00:33Z</time>
      </trkpt>
      <trkpt lat="49.8351" lon="2.18613">
        <ele>98.7</ele>
        <time>2023-03-29T14:00:35Z</time>
      </trkpt>
      <trkpt lat="49.83509" lon="2.18608">
        <ele>98.6</ele>
        <time>2023-03-29T14:00:36Z</time>
      </trkpt>
      <trkpt lat="49.83509" lon="2.18605">
        <ele>98.6</ele>
        <time>2023-03-29T14:00:38Z</time>
      </trkpt>
      <trkpt lat="49.83509" lon="2.18604">
        <ele>98.6</ele>
        <time>2023-03-29T14:00:39Z</time>
      </trkpt>
      <trkpt lat="49.83508" lon="2.18602">
        <ele>98.5</ele>
        <time>2023-03-29T14:00:40Z</time>
      </trkpt>
      <trkpt lat="49.83508" lon="2.186">
        <ele>98.5</ele>
        <time>2023-03-29T14:00:41Z</time>
      </trkpt>
      <trkpt lat="49.83508" lon="2.18599">
        <ele>98.5</ele>
        <time>2023-03-29T14:00:43Z</time>
      </trkpt>
      <trkpt lat="49.83508" lon="2.18598">
        <ele>98.5</ele>
        <time>2023-03-29T14:00:44Z</time>
      </trkpt>
      <trkpt lat="49.83508" lon="2.18597">
        <ele>98.5</ele>
        <time>2023-03-29T14:00:45Z</time>
      </trkpt>
      <trkpt lat="49.83507" lon="2.18597">
        <ele>98.5</ele>
        <time>2023-03-29T14:00:46Z</time>
      </trkpt>
      <trkpt lat="49.83506" lon="2.18597">
        <ele>98.4</ele>
        <time>2023-03-29T14:00:48Z</time>
      </trkpt>
      <trkpt lat="49.83506" lon="2.18598">
        <ele>98.4</ele>
        <time>2023-03-29T14:00:49Z</time>
      </trkpt>
      <trkpt lat="49.83506" lon="2.18598">
        <ele>98.4</ele>
        <time>2023-03-29T14:00:51Z</time>
      </trkpt>
      <trkpt lat="49.83506" lon="2.18598">
        <ele>98.4</ele>
        <time>2023-03-29T14:00:52Z</time>
      </trkpt>
      <trkpt lat="49.83506" lon="2.18598">
        <ele>98.4</ele>
        <time>2023-03-29T14:00:54Z</time>
      </trkpt>
      <trkpt lat="49.83505" lon="2.18598">
        <ele>98.4</ele>
        <time>2023-03-29T14:00:55Z</time>
      </trkpt>
      <trkpt lat="49.83505" lon="2.18598">
        <ele>98.4</ele>
        <time>2023-03-29T14:00:57Z</time>
      </trkpt>
      <trkpt lat="49.83505" lon="2.18598">
        <ele>98.4</ele>
        <time>2023-03-29T14:00:58Z</time>
      </trkpt>
      <trkpt lat="49.83505" lon="2.18598">
        <ele>98.4</ele>
        <time>2023-03-29T14:00:59Z</time>
      </trkpt>
      <trkpt lat="49.83505" lon="2.18598">
        <ele>98.4</ele>
        <time>2023-03-29T14:01:01Z</time>
      </trkpt>
      <trkpt lat="49.83505" lon="2.18598">
        <ele>98.4</ele>
        <time>2023-03-29T14:01:02Z</time>
      </trkpt>
      <trkpt lat="49.83505" lon="2.18598">
        <ele>98.4</ele>
        <time>2023-03-29T14:01:03Z</time>
      </trkpt>
      <trkpt lat="49.83505" lon="2.18598">
        <ele>98.4</ele>
        <time>2023-03-29T14:01:05Z</time>
      </trkpt>
      <trkpt lat="49.83506" lon="2.18597">
        <ele>98.4</ele>
        <time>2023-03-29T14:01:07Z</time>
      </trkpt>
      <trkpt lat="49.83506" lon="2.18597">
        <ele>98.4</ele>
        <time>2023-03-29T14:01:08Z</time>
      </trkpt>
      <trkpt lat="49.83506" lon="2.18597">
        <ele>98.4</ele>
        <time>2023-03-29T14:01:09Z</time>
      </trkpt>
      <trkpt lat="49.83506" lon="2.18597">
        <ele>98.4</ele>
        <time>2023-03-29T14:01:10Z</time>
      </trkpt>
      <trkpt lat="49.83506" lon="2.18597">
        <ele>98.4</ele>
        <time>2023-03-29T14:01:11Z</time>
      </trkpt>
      <trkpt lat="49.83506" lon="2.18597">
        <ele>98.4</ele>
        <time>2023-03-29T14:01:12Z</time>
      </trkpt>
      <trkpt lat="49.83506" lon="2.18597">
        <ele>98.4</ele>
        <time>2023-03-29T14:01:13Z</time>
      </trkpt>
      <trkpt lat="49.83506" lon="2.18597">
        <ele>98.4</ele>
        <time>2023-03-29T14:01:14Z</time>
      </trkpt>
      <trkpt lat="49.83506" lon="2.18597">
        <ele>98.4</ele>
        <time>2023-03-29T14:01:15Z</time>
      </trkpt>
      <trkpt lat="49.83506" lon="2.18597">
        <ele>98.4</ele>
        <time>2023-03-29T14:01:16Z</time>
      </trkpt>
      <trkpt lat="49.83506" lon="2.18597">
        <ele>98.4</ele>
        <time>2023-03-29T14:01:17Z</time>
      </trkpt>
      <trkpt lat="49.83506" lon="2.18597">
        <ele>98.4</ele>
        <time>2023-03-29T14:01:18Z</time>
      </trkpt>
      <trkpt lat="49.83506" lon="2.18597">
        <ele>98.4</ele>
        <time>2023-03-29T14:01:19Z</time>
      </trkpt>
      <trkpt lat="49.83506" lon="2.18597">
        <ele>98.4</ele>
        <time>2023-03-29T14:01:20Z</time>
      </trkpt>
      <trkpt lat="49.83506" lon="2.18597">
        <ele>98.4</ele>
        <time>2023-03-29T14:01:21Z</time>
      </trkpt>
      <trkpt lat="49.83506" lon="2.18597">
        <ele>98.4</ele>
        <time>2023-03-29T14:01:22Z</time>
      </trkpt>
      <trkpt lat="49.83506" lon="2.18597">
        <ele>98.4</ele>
        <time>2023-03-29T14:01:23Z</time>
      </trkpt>
      <trkpt lat="49.83506" lon="2.18597">
        <ele>98.4</ele>
        <time>2023-03-29T14:01:24Z</time>
      </trkpt>
      <trkpt lat="49.83506" lon="2.18596">
        <ele>98.4</ele>
        <time>2023-03-29T14:01:25Z</time>
      </trkpt>
      <trkpt lat="49.83508" lon="2.18598">
        <ele>98.3</ele>
        <time>2023-03-29T14:01:27Z</time>
      </trkpt>
      <trkpt lat="49.83509" lon="2.18599">
        <ele>98.3</ele>
        <time>2023-03-29T14:01:28Z</time>
      </trkpt>
      <trkpt lat="49.83509" lon="2.186">
        <ele>98.3</ele>
        <time>2023-03-29T14:01:29Z</time>
      </trkpt>
      <trkpt lat="49.83509" lon="2.18599">
        <ele>98.3</ele>
        <time>2023-03-29T14:01:30Z</time>
      </trkpt>
      <trkpt lat="49.83509" lon="2.18599">
        <ele>98.3</ele>
        <time>2023-03-29T14:01:31Z</time>
      </trkpt>
      <trkpt lat="49.83509" lon="2.18599">
        <ele>98.3</ele>
        <time>2023-03-29T14:01:32Z</time>
      </trkpt>
      <trkpt lat="49.83509" lon="2.18598">
        <ele>98.3</ele>
        <time>2023-03-29T14:01:33Z</time>
      </trkpt>
      <trkpt lat="49.83509" lon="2.18598">
        <ele>98.3</ele>
        <time>2023-03-29T14:01:34Z</time>
      </trkpt>
      <trkpt lat="49.83509" lon="2.18598">
        <ele>98.3</ele>
        <time>2023-03-29T14:01:35Z</time>
      </trkpt>
      <trkpt lat="49.83509" lon="2.18597">
        <ele>98.3</ele>
        <time>2023-03-29T14:01:36Z</time>
      </trkpt>
      <trkpt lat="49.83508" lon="2.18597">
        <ele>98.3</ele>
        <time>2023-03-29T14:01:37Z</time>
      </trkpt>
      <trkpt lat="49.83508" lon="2.18597">
        <ele>98.2</ele>
        <time>2023-03-29T14:01:38Z</time>
      </trkpt>
      <trkpt lat="49.83508" lon="2.18596">
        <ele>98.2</ele>
        <time>2023-03-29T14:01:39Z</time>
      </trkpt>
      <trkpt lat="49.83508" lon="2.18596">
        <ele>98.2</ele>
        <time>2023-03-29T14:01:40Z</time>
      </trkpt>
      <trkpt lat="49.83508" lon="2.18596">
        <ele>98.2</ele>
        <time>2023-03-29T14:01:41Z</time>
      </trkpt>
      <trkpt lat="49.83508" lon="2.18595">
        <ele>98.2</ele>
        <time>2023-03-29T14:01:42Z</time>
      </trkpt>
      <trkpt lat="49.83508" lon="2.18595">
        <ele>98.2</ele>
        <time>2023-03-29T14:01:43Z</time>
      </trkpt>
      <trkpt lat="49.83508" lon="2.18594">
        <ele>98.2</ele>
        <time>2023-03-29T14:01:44Z</time>
      </trkpt>
      <trkpt lat="49.83508" lon="2.18594">
        <ele>98.2</ele>
        <time>2023-03-29T14:01:45Z</time>
      </trkpt>
      <trkpt lat="49.83508" lon="2.18594">
        <ele>98.2</ele>
        <time>2023-03-29T14:01:46Z</time>
      </trkpt>
      <trkpt lat="49.83508" lon="2.18593">
        <ele>98.2</ele>
        <time>2023-03-29T14:01:48Z</time>
      </trkpt>
      <trkpt lat="49.83508" lon="2.18593">
        <ele>98.2</ele>
        <time>2023-03-29T14:01:49Z</time>
      </trkpt>
      <trkpt lat="49.83507" lon="2.18589">
        <ele>98.1</ele>
        <time>2023-03-29T14:01:50Z</time>
      </trkpt>
      <trkpt lat="49.83506" lon="2.18588">
        <ele>98.1</ele>
        <time>2023-03-29T14:01:51Z</time>
      </trkpt>
      <trkpt lat="49.83506" lon="2.18586">
        <ele>98.1</ele>
        <time>2023-03-29T14:01:52Z</time>
      </trkpt>
      <trkpt lat="49.83505" lon="2.18584">
        <ele>98.1</ele>
        <time>2023-03-29T14:01:53Z</time>
      </trkpt>
      <trkpt lat="49.83504" lon="2.18582">
        <ele>98</ele>
        <time>2023-03-29T14:01:54Z</time>
      </trkpt>
      <trkpt lat="49.83503" lon="2.18579">
        <ele>98</ele>
        <time>2023-03-29T14:01:55Z</time>
      </trkpt>
      <trkpt lat="49.83503" lon="2.18578">
        <ele>98</ele>
        <time>2023-03-29T14:01:56Z</time>
      </trkpt>
      <trkpt lat="49.83502" lon="2.18576">
        <ele>98</ele>
        <time>2023-03-29T14:01:58Z</time>
      </trkpt>
      <trkpt lat="49.83502" lon="2.18575">
        <ele>97.9</ele>
        <time>2023-03-29T14:01:59Z</time>
      </trkpt>
      <trkpt lat="49.83502" lon="2.18573">
        <ele>97.9</ele>
        <time>2023-03-29T14:02:00Z</time>
      </trkpt>
      <trkpt lat="49.83501" lon="2.1857">
        <ele>97.9</ele>
        <time>2023-03-29T14:02:01Z</time>
      </trkpt>
      <trkpt lat="49.835" lon="2.18567">
        <ele>97.9</ele>
        <time>2023-03-29T14:02:02Z</time>
      </trkpt>
      <trkpt lat="49.835" lon="2.18566">
        <ele>97.8</ele>
        <time>2023-03-29T14:02:03Z</time>
      </trkpt>
      <trkpt lat="49.83499" lon="2.18564">
        <ele>97.8</ele>
        <time>2023-03-29T14:02:04Z</time>
      </trkpt>
      <trkpt lat="49.83499" lon="2.18561">
        <ele>97.8</ele>
        <time>2023-03-29T14:02:05Z</time>
      </trkpt>
      <trkpt lat="49.83498" lon="2.1856">
        <ele>97.8</ele>
        <time>2023-03-29T14:02:06Z</time>
      </trkpt>
      <trkpt lat="49.83498" lon="2.18558">
        <ele>97.8</ele>
        <time>2023-03-29T14:02:08Z</time>
      </trkpt>
      <trkpt lat="49.83497" lon="2.18557">
        <ele>97.7</ele>
        <time>2023-03-29T14:02:09Z</time>
      </trkpt>
      <trkpt lat="49.83497" lon="2.18555">
        <ele>97.7</ele>
        <time>2023-03-29T14:02:10Z</time>
      </trkpt>
      <trkpt lat="49.83496" lon="2.18552">
        <ele>97.7</ele>
        <time>2023-03-29T14:02:11Z</time>
      </trkpt>
      <trkpt lat="49.83496" lon="2.18551">
        <ele>97.7</ele>
        <time>2023-03-29T14:02:12Z</time>
      </trkpt>
      <trkpt lat="49.83495" lon="2.1855">
        <ele>97.7</ele>
        <time>2023-03-29T14:02:13Z</time>
      </trkpt>
      <trkpt lat="49.83495" lon="2.18548">
        <ele>97.7</ele>
        <time>2023-03-29T14:02:14Z</time>
      </trkpt>
      <trkpt lat="49.83494" lon="2.18545">
        <ele>97.7</ele>
        <time>2023-03-29T14:02:15Z</time>
      </trkpt>
      <trkpt lat="49.83494" lon="2.18544">
        <ele>97.7</ele>
        <time>2023-03-29T14:02:16Z</time>
      </trkpt>
      <trkpt lat="49.83494" lon="2.18543">
        <ele>97.7</ele>
        <time>2023-03-29T14:02:18Z</time>
      </trkpt>
      <trkpt lat="49.83493" lon="2.18541">
        <ele>97.6</ele>
        <time>2023-03-29T14:02:19Z</time>
      </trkpt>
      <trkpt lat="49.83493" lon="2.18539">
        <ele>97.6</ele>
        <time>2023-03-29T14:02:20Z</time>
      </trkpt>
      <trkpt lat="49.83492" lon="2.18537">
        <ele>97.6</ele>
        <time>2023-03-29T14:02:21Z</time>
      </trkpt>
      <trkpt lat="49.83492" lon="2.18535">
        <ele>97.6</ele>
        <time>2023-03-29T14:02:22Z</time>
      </trkpt>
      <trkpt lat="49.83492" lon="2.18533">
        <ele>97.6</ele>
        <time>2023-03-29T14:02:23Z</time>
      </trkpt>
      <trkpt lat="49.83491" lon="2.18531">
        <ele>97.6</ele>
        <time>2023-03-29T14:02:24Z</time>
      </trkpt>
      <trkpt lat="49.83491" lon="2.18528">
        <ele>97.6</ele>
        <time>2023-03-29T14:02:25Z</time>
      </trkpt>
      <trkpt lat="49.83491" lon="2.18527">
        <ele>97.6</ele>
        <time>2023-03-29T14:02:26Z</time>
      </trkpt>
      <trkpt lat="49.8349" lon="2.18525">
        <ele>97.6</ele>
        <time>2023-03-29T14:02:28Z</time>
      </trkpt>
      <trkpt lat="49.8349" lon="2.18523">
        <ele>97.6</ele>
        <time>2023-03-29T14:02:29Z</time>
      </trkpt>
      <trkpt lat="49.83489" lon="2.1852">
        <ele>97.6</ele>
        <time>2023-03-29T14:02:30Z</time>
      </trkpt>
      <trkpt lat="49.83489" lon="2.18519">
        <ele>97.6</ele>
        <time>2023-03-29T14:02:31Z</time>
      </trkpt>
      <trkpt lat="49.83489" lon="2.18517">
        <ele>97.6</ele>
        <time>2023-03-29T14:02:32Z</time>
      </trkpt>
      <trkpt lat="49.83488" lon="2.18515">
        <ele>97.6</ele>
        <time>2023-03-29T14:02:34Z</time>
      </trkpt>
      <trkpt lat="49.83488" lon="2.18513">
        <ele>97.6</ele>
        <time>2023-03-29T14:02:35Z</time>
      </trkpt>
      <trkpt lat="49.83487" lon="2.1851">
        <ele>97.6</ele>
        <time>2023-03-29T14:02:36Z</time>
      </trkpt>
      <trkpt lat="49.83487" lon="2.18508">
        <ele>97.6</ele>
        <time>2023-03-29T14:02:37Z</time>
      </trkpt>
      <trkpt lat="49.83486" lon="2.18505">
        <ele>97.6</ele>
        <time>2023-03-29T14:02:39Z</time>
      </trkpt>
      <trkpt lat="49.83485" lon="2.18504">
        <ele>97.6</ele>
        <time>2023-03-29T14:02:40Z</time>
      </trkpt>
      <trkpt lat="49.83484" lon="2.18503">
        <ele>97.6</ele>
        <time>2023-03-29T14:02:41Z</time>
      </trkpt>
      <trkpt lat="49.83483" lon="2.185">
        <ele>97.6</ele>
        <time>2023-03-29T14:02:42Z</time>
      </trkpt>
      <trkpt lat="49.83483" lon="2.18498">
        <ele>97.6</ele>
        <time>2023-03-29T14:02:43Z</time>
      </trkpt>
      <trkpt lat="49.83483" lon="2.18497">
        <ele>97.6</ele>
        <time>2023-03-29T14:02:44Z</time>
      </trkpt>
      <trkpt lat="49.83482" lon="2.18494">
        <ele>97.6</ele>
        <time>2023-03-29T14:02:46Z</time>
      </trkpt>
      <trkpt lat="49.83481" lon="2.18493">
        <ele>97.7</ele>
        <time>2023-03-29T14:02:47Z</time>
      </trkpt>
      <trkpt lat="49.8348" lon="2.18492">
        <ele>97.7</ele>
        <time>2023-03-29T14:02:48Z</time>
      </trkpt>
      <trkpt lat="49.83479" lon="2.18489">
        <ele>97.7</ele>
        <time>2023-03-29T14:02:49Z</time>
      </trkpt>
      <trkpt lat="49.83478" lon="2.18486">
        <ele>97.7</ele>
        <time>2023-03-29T14:02:51Z</time>
      </trkpt>
      <trkpt lat="49.83477" lon="2.18485">
        <ele>97.7</ele>
        <time>2023-03-29T14:02:52Z</time>
      </trkpt>
      <trkpt lat="49.83477" lon="2.18484">
        <ele>97.7</ele>
        <time>2023-03-29T14:02:53Z</time>
      </trkpt>
      <trkpt lat="49.83477" lon="2.18482">
        <ele>97.7</ele>
        <time>2023-03-29T14:02:54Z</time>
      </trkpt>
      <trkpt lat="49.83476" lon="2.18481">
        <ele>97.7</ele>
        <time>2023-03-29T14:02:55Z</time>
      </trkpt>
      <trkpt lat="49.83475" lon="2.18478">
        <ele>97.8</ele>
        <time>2023-03-29T14:02:57Z</time>
      </trkpt>
      <trkpt lat="49.83475" lon="2.18475">
        <ele>97.8</ele>
        <time>2023-03-29T14:02:58Z</time>
      </trkpt>
      <trkpt lat="49.83474" lon="2.18473">
        <ele>97.8</ele>
        <time>2023-03-29T14:02:59Z</time>
      </trkpt>
      <trkpt lat="49.83474" lon="2.18472">
        <ele>97.8</ele>
        <time>2023-03-29T14:03:00Z</time>
      </trkpt>
      <trkpt lat="49.83473" lon="2.1847">
        <ele>97.8</ele>
        <time>2023-03-29T14:03:01Z</time>
      </trkpt>
      <trkpt lat="49.83473" lon="2.18468">
        <ele>97.9</ele>
        <time>2023-03-29T14:03:02Z</time>
      </trkpt>
      <trkpt lat="49.83472" lon="2.18467">
        <ele>97.9</ele>
        <time>2023-03-29T14:03:03Z</time>
      </trkpt>
      <trkpt lat="49.83472" lon="2.18465">
        <ele>97.9</ele>
        <time>2023-03-29T14:03:04Z</time>
      </trkpt>
      <trkpt lat="49.83471" lon="2.18464">
        <ele>97.9</ele>
        <time>2023-03-29T14:03:05Z</time>
      </trkpt>
      <trkpt lat="49.83471" lon="2.18462">
        <ele>97.9</ele>
        <time>2023-03-29T14:03:07Z</time>
      </trkpt>
      <trkpt lat="49.8347" lon="2.1846">
        <ele>97.9</ele>
        <time>2023-03-29T14:03:08Z</time>
      </trkpt>
      <trkpt lat="49.8347" lon="2.18458">
        <ele>97.9</ele>
        <time>2023-03-29T14:03:09Z</time>
      </trkpt>
      <trkpt lat="49.83469" lon="2.18456">
        <ele>98</ele>
        <time>2023-03-29T14:03:10Z</time>
      </trkpt>
      <trkpt lat="49.83468" lon="2.18454">
        <ele>98</ele>
        <time>2023-03-29T14:03:11Z</time>
      </trkpt>
      <trkpt lat="49.83468" lon="2.18451">
        <ele>98</ele>
        <time>2023-03-29T14:03:12Z</time>
      </trkpt>
      <trkpt lat="49.83467" lon="2.18449">
        <ele>98.1</ele>
        <time>2023-03-29T14:03:13Z</time>
      </trkpt>
      <trkpt lat="49.83467" lon="2.18447">
        <ele>98.1</ele>
        <time>2023-03-29T14:03:15Z</time>
      </trkpt>
      <trkpt lat="49.83467" lon="2.18445">
        <ele>98.1</ele>
        <time>2023-03-29T14:03:16Z</time>
      </trkpt>
      <trkpt lat="49.83467" lon="2.1844">
        <ele>98.2</ele>
        <time>2023-03-29T14:03:17Z</time>
      </trkpt>
      <trkpt lat="49.83467" lon="2.18439">
        <ele>98.2</ele>
        <time>2023-03-29T14:03:18Z</time>
      </trkpt>
      <trkpt lat="49.83466" lon="2.18436">
        <ele>98.2</ele>
        <time>2023-03-29T14:03:20Z</time>
      </trkpt>
      <trkpt lat="49.83466" lon="2.18434">
        <ele>98.2</ele>
        <time>2023-03-29T14:03:21Z</time>
      </trkpt>
      <trkpt lat="49.83465" lon="2.1843">
        <ele>98.3</ele>
        <time>2023-03-29T14:03:22Z</time>
      </trkpt>
      <trkpt lat="49.83465" lon="2.18429">
        <ele>98.3</ele>
        <time>2023-03-29T14:03:23Z</time>
      </trkpt>
      <trkpt lat="49.83464" lon="2.18426">
        <ele>98.3</ele>
        <time>2023-03-29T14:03:24Z</time>
      </trkpt>
      <trkpt lat="49.83464" lon="2.18424">
        <ele>98.3</ele>
        <time>2023-03-29T14:03:26Z</time>
      </trkpt>
      <trkpt lat="49.83463" lon="2.18421">
        <ele>98.4</ele>
        <time>2023-03-29T14:03:27Z</time>
      </trkpt>
      <trkpt lat="49.83463" lon="2.1842">
        <ele>98.4</ele>
        <time>2023-03-29T14:03:29Z</time>
      </trkpt>
      <trkpt lat="49.83463" lon="2.18418">
        <ele>98.4</ele>
        <time>2023-03-29T14:03:30Z</time>
      </trkpt>
      <trkpt lat="49.83462" lon="2.18417">
        <ele>98.4</ele>
        <time>2023-03-29T14:03:31Z</time>
      </trkpt>
      <trkpt lat="49.83462" lon="2.18415">
        <ele>98.5</ele>
        <time>2023-03-29T14:03:32Z</time>
      </trkpt>
      <trkpt lat="49.83461" lon="2.18412">
        <ele>98.5</ele>
        <time>2023-03-29T14:03:33Z</time>
      </trkpt>
      <trkpt lat="49.83461" lon="2.18411">
        <ele>98.5</ele>
        <time>2023-03-29T14:03:34Z</time>
      </trkpt>
      <trkpt lat="49.8346" lon="2.1841">
        <ele>98.5</ele>
        <time>2023-03-29T14:03:35Z</time>
      </trkpt>
      <trkpt lat="49.8346" lon="2.18408">
        <ele>98.6</ele>
        <time>2023-03-29T14:03:36Z</time>
      </trkpt>
      <trkpt lat="49.83459" lon="2.18406">
        <ele>98.6</ele>
        <time>2023-03-29T14:03:37Z</time>
      </trkpt>
      <trkpt lat="49.83459" lon="2.18405">
        <ele>98.6</ele>
        <time>2023-03-29T14:03:39Z</time>
      </trkpt>
      <trkpt lat="49.83458" lon="2.18402">
        <ele>98.6</ele>
        <time>2023-03-29T14:03:40Z</time>
      </trkpt>
      <trkpt lat="49.83458" lon="2.184">
        <ele>98.7</ele>
        <time>2023-03-29T14:03:41Z</time>
      </trkpt>
      <trkpt lat="49.83457" lon="2.18399">
        <ele>98.7</ele>
        <time>2023-03-29T14:03:42Z</time>
      </trkpt>
      <trkpt lat="49.83456" lon="2.18397">
        <ele>98.7</ele>
        <time>2023-03-29T14:03:43Z</time>
      </trkpt>
      <trkpt lat="49.83456" lon="2.18395">
        <ele>98.7</ele>
        <time>2023-03-29T14:03:44Z</time>
      </trkpt>
      <trkpt lat="49.83455" lon="2.18392">
        <ele>98.8</ele>
        <time>2023-03-29T14:03:46Z</time>
      </trkpt>
      <trkpt lat="49.83454" lon="2.18391">
        <ele>98.8</ele>
        <time>2023-03-29T14:03:47Z</time>
      </trkpt>
      <trkpt lat="49.83454" lon="2.1839">
        <ele>98.8</ele>
        <time>2023-03-29T14:03:48Z</time>
      </trkpt>
      <trkpt lat="49.83453" lon="2.18388">
        <ele>98.9</ele>
        <time>2023-03-29T14:03:49Z</time>
      </trkpt>
      <trkpt lat="49.83453" lon="2.18387">
        <ele>98.9</ele>
        <time>2023-03-29T14:03:50Z</time>
      </trkpt>
      <trkpt lat="49.83452" lon="2.18385">
        <ele>98.9</ele>
        <time>2023-03-29T14:03:51Z</time>
      </trkpt>
      <trkpt lat="49.83452" lon="2.18382">
        <ele>99</ele>
        <time>2023-03-29T14:03:52Z</time>
      </trkpt>
      <trkpt lat="49.83451" lon="2.18381">
        <ele>99</ele>
        <time>2023-03-29T14:03:53Z</time>
      </trkpt>
      <trkpt lat="49.83451" lon="2.1838">
        <ele>99</ele>
        <time>2023-03-29T14:03:55Z</time>
      </trkpt>
      <trkpt lat="49.8345" lon="2.18378">
        <ele>99</ele>
        <time>2023-03-29T14:03:56Z</time>
      </trkpt>
      <trkpt lat="49.8345" lon="2.18377">
        <ele>99.1</ele>
        <time>2023-03-29T14:03:57Z</time>
      </trkpt>
      <trkpt lat="49.8345" lon="2.18375">
        <ele>99.1</ele>
        <time>2023-03-29T14:03:58Z</time>
      </trkpt>
      <trkpt lat="49.83449" lon="2.18374">
        <ele>99.1</ele>
        <time>2023-03-29T14:03:59Z</time>
      </trkpt>
      <trkpt lat="49.83449" lon="2.18373">
        <ele>99.1</ele>
        <time>2023-03-29T14:04:00Z</time>
      </trkpt>
      <trkpt lat="49.83448" lon="2.18371">
        <ele>99.2</ele>
        <time>2023-03-29T14:04:01Z</time>
      </trkpt>
      <trkpt lat="49.83447" lon="2.1837">
        <ele>99.2</ele>
        <time>2023-03-29T14:04:02Z</time>
      </trkpt>
      <trkpt lat="49.83447" lon="2.18367">
        <ele>99.2</ele>
        <time>2023-03-29T14:04:03Z</time>
      </trkpt>
      <trkpt lat="49.83446" lon="2.18366">
        <ele>99.3</ele>
        <time>2023-03-29T14:04:05Z</time>
      </trkpt>
      <trkpt lat="49.83446" lon="2.18365">
        <ele>99.3</ele>
        <time>2023-03-29T14:04:06Z</time>
      </trkpt>
      <trkpt lat="49.83446" lon="2.18363">
        <ele>99.3</ele>
        <time>2023-03-29T14:04:07Z</time>
      </trkpt>
      <trkpt lat="49.83445" lon="2.18361">
        <ele>99.4</ele>
        <time>2023-03-29T14:04:08Z</time>
      </trkpt>
      <trkpt lat="49.83444" lon="2.1836">
        <ele>99.4</ele>
        <time>2023-03-29T14:04:09Z</time>
      </trkpt>
      <trkpt lat="49.83444" lon="2.18358">
        <ele>99.4</ele>
        <time>2023-03-29T14:04:11Z</time>
      </trkpt>
      <trkpt lat="49.83443" lon="2.18356">
        <ele>99.5</ele>
        <time>2023-03-29T14:04:12Z</time>
      </trkpt>
      <trkpt lat="49.83442" lon="2.18354">
        <ele>99.5</ele>
        <time>2023-03-29T14:04:13Z</time>
      </trkpt>
      <trkpt lat="49.83442" lon="2.18352">
        <ele>99.6</ele>
        <time>2023-03-29T14:04:14Z</time>
      </trkpt>
      <trkpt lat="49.83442" lon="2.18351">
        <ele>99.6</ele>
        <time>2023-03-29T14:04:15Z</time>
      </trkpt>
      <trkpt lat="49.83441" lon="2.18349">
        <ele>99.7</ele>
        <time>2023-03-29T14:04:16Z</time>
      </trkpt>
      <trkpt lat="49.8344" lon="2.18347">
        <ele>99.7</ele>
        <time>2023-03-29T14:04:17Z</time>
      </trkpt>
      <trkpt lat="49.83439" lon="2.18346">
        <ele>99.7</ele>
        <time>2023-03-29T14:04:18Z</time>
      </trkpt>
      <trkpt lat="49.83439" lon="2.18344">
        <ele>99.8</ele>
        <time>2023-03-29T14:04:20Z</time>
      </trkpt>
      <trkpt lat="49.83438" lon="2.18341">
        <ele>99.8</ele>
        <time>2023-03-29T14:04:21Z</time>
      </trkpt>
      <trkpt lat="49.83437" lon="2.1834">
        <ele>99.9</ele>
        <time>2023-03-29T14:04:22Z</time>
      </trkpt>
      <trkpt lat="49.83437" lon="2.18338">
        <ele>99.9</ele>
        <time>2023-03-29T14:04:23Z</time>
      </trkpt>
      <trkpt lat="49.83436" lon="2.18336">
        <ele>100</ele>
        <time>2023-03-29T14:04:24Z</time>
      </trkpt>
      <trkpt lat="49.83435" lon="2.18334">
        <ele>100</ele>
        <time>2023-03-29T14:04:26Z</time>
      </trkpt>
      <trkpt lat="49.83434" lon="2.18331">
        <ele>100.1</ele>
        <time>2023-03-29T14:04:27Z</time>
      </trkpt>
      <trkpt lat="49.83433" lon="2.18328">
        <ele>100.2</ele>
        <time>2023-03-29T14:04:29Z</time>
      </trkpt>
      <trkpt lat="49.83433" lon="2.18327">
        <ele>100.2</ele>
        <time>2023-03-29T14:04:30Z</time>
      </trkpt>
      <trkpt lat="49.83432" lon="2.18324">
        <ele>100.3</ele>
        <time>2023-03-29T14:04:31Z</time>
      </trkpt>
      <trkpt lat="49.83431" lon="2.18323">
        <ele>100.3</ele>
        <time>2023-03-29T14:04:32Z</time>
      </trkpt>
      <trkpt lat="49.83431" lon="2.18321">
        <ele>100.3</ele>
        <time>2023-03-29T14:04:34Z</time>
      </trkpt>
      <trkpt lat="49.8343" lon="2.1832">
        <ele>100.4</ele>
        <time>2023-03-29T14:04:35Z</time>
      </trkpt>
      <trkpt lat="49.8343" lon="2.18318">
        <ele>100.4</ele>
        <time>2023-03-29T14:04:36Z</time>
      </trkpt>
      <trkpt lat="49.83429" lon="2.18317">
        <ele>100.4</ele>
        <time>2023-03-29T14:04:37Z</time>
      </trkpt>
      <trkpt lat="49.83429" lon="2.18315">
        <ele>100.5</ele>
        <time>2023-03-29T14:04:38Z</time>
      </trkpt>
      <trkpt lat="49.83428" lon="2.18314">
        <ele>100.5</ele>
        <time>2023-03-29T14:04:39Z</time>
      </trkpt>
      <trkpt lat="49.83427" lon="2.1831">
        <ele>100.5</ele>
        <time>2023-03-29T14:04:40Z</time>
      </trkpt>
      <trkpt lat="49.83426" lon="2.18308">
        <ele>100.5</ele>
        <time>2023-03-29T14:04:42Z</time>
      </trkpt>
      <trkpt lat="49.83426" lon="2.18306">
        <ele>100.6</ele>
        <time>2023-03-29T14:04:43Z</time>
      </trkpt>
      <trkpt lat="49.83425" lon="2.18305">
        <ele>100.6</ele>
        <time>2023-03-29T14:04:44Z</time>
      </trkpt>
      <trkpt lat="49.83425" lon="2.18303">
        <ele>100.6</ele>
        <time>2023-03-29T14:04:45Z</time>
      </trkpt>
      <trkpt lat="49.83424" lon="2.18302">
        <ele>100.6</ele>
        <time>2023-03-29T14:04:46Z</time>
      </trkpt>
      <trkpt lat="49.83424" lon="2.183">
        <ele>100.6</ele>
        <time>2023-03-29T14:04:47Z</time>
      </trkpt>
      <trkpt lat="49.83423" lon="2.18299">
        <ele>100.6</ele>
        <time>2023-03-29T14:04:48Z</time>
      </trkpt>
      <trkpt lat="49.83422" lon="2.18296">
        <ele>100.7</ele>
        <time>2023-03-29T14:04:49Z</time>
      </trkpt>
      <trkpt lat="49.83422" lon="2.18295">
        <ele>100.7</ele>
        <time>2023-03-29T14:04:51Z</time>
      </trkpt>
      <trkpt lat="49.83421" lon="2.18293">
        <ele>100.7</ele>
        <time>2023-03-29T14:04:52Z</time>
      </trkpt>
      <trkpt lat="49.8342" lon="2.18288">
        <ele>100.8</ele>
        <time>2023-03-29T14:04:54Z</time>
      </trkpt>
      <trkpt lat="49.83419" lon="2.18287">
        <ele>100.8</ele>
        <time>2023-03-29T14:04:56Z</time>
      </trkpt>
      <trkpt lat="49.83419" lon="2.18285">
        <ele>100.8</ele>
        <time>2023-03-29T14:04:57Z</time>
      </trkpt>
      <trkpt lat="49.83418" lon="2.18284">
        <ele>100.8</ele>
        <time>2023-03-29T14:04:58Z</time>
      </trkpt>
      <trkpt lat="49.83417" lon="2.1828">
        <ele>100.9</ele>
        <time>2023-03-29T14:04:59Z</time>
      </trkpt>
      <trkpt lat="49.83417" lon="2.18279">
        <ele>100.9</ele>
        <time>2023-03-29T14:05:00Z</time>
      </trkpt>
      <trkpt lat="49.83417" lon="2.18278">
        <ele>100.9</ele>
        <time>2023-03-29T14:05:01Z</time>
      </trkpt>
      <trkpt lat="49.83416" lon="2.18277">
        <ele>100.9</ele>
        <time>2023-03-29T14:05:02Z</time>
      </trkpt>
      <trkpt lat="49.83416" lon="2.18275">
        <ele>100.9</ele>
        <time>2023-03-29T14:05:03Z</time>
      </trkpt>
      <trkpt lat="49.83415" lon="2.18273">
        <ele>101</ele>
        <time>2023-03-29T14:05:04Z</time>
      </trkpt>
      <trkpt lat="49.83415" lon="2.18272">
        <ele>101</ele>
        <time>2023-03-29T14:05:06Z</time>
      </trkpt>
      <trkpt lat="49.83414" lon="2.1827">
        <ele>101</ele>
        <time>2023-03-29T14:05:07Z</time>
      </trkpt>
      <trkpt lat="49.83414" lon="2.18269">
        <ele>101</ele>
        <time>2023-03-29T14:05:08Z</time>
      </trkpt>
      <trkpt lat="49.83413" lon="2.18266">
        <ele>101</ele>
        <time>2023-03-29T14:05:09Z</time>
      </trkpt>
      <trkpt lat="49.83413" lon="2.18265">
        <ele>101.1</ele>
        <time>2023-03-29T14:05:10Z</time>
      </trkpt>
      <trkpt lat="49.83413" lon="2.18263">
        <ele>101.1</ele>
        <time>2023-03-29T14:05:11Z</time>
      </trkpt>
      <trkpt lat="49.83412" lon="2.1826">
        <ele>101.1</ele>
        <time>2023-03-29T14:05:13Z</time>
      </trkpt>
      <trkpt lat="49.83411" lon="2.18259">
        <ele>101.1</ele>
        <time>2023-03-29T14:05:14Z</time>
      </trkpt>
      <trkpt lat="49.83411" lon="2.18257">
        <ele>101.1</ele>
        <time>2023-03-29T14:05:15Z</time>
      </trkpt>
      <trkpt lat="49.8341" lon="2.18256">
        <ele>101.2</ele>
        <time>2023-03-29T14:05:17Z</time>
      </trkpt>
      <trkpt lat="49.83409" lon="2.18255">
        <ele>101.2</ele>
        <time>2023-03-29T14:05:18Z</time>
      </trkpt>
      <trkpt lat="49.83409" lon="2.18253">
        <ele>101.2</ele>
        <time>2023-03-29T14:05:19Z</time>
      </trkpt>
      <trkpt lat="49.83408" lon="2.18251">
        <ele>101.2</ele>
        <time>2023-03-29T14:05:20Z</time>
      </trkpt>
      <trkpt lat="49.83407" lon="2.1825">
        <ele>101.3</ele>
        <time>2023-03-29T14:05:21Z</time>
      </trkpt>
      <trkpt lat="49.83407" lon="2.18247">
        <ele>101.3</ele>
        <time>2023-03-29T14:05:22Z</time>
      </trkpt>
      <trkpt lat="49.83406" lon="2.18245">
        <ele>101.3</ele>
        <time>2023-03-29T14:05:24Z</time>
      </trkpt>
      <trkpt lat="49.83406" lon="2.18244">
        <ele>101.3</ele>
        <time>2023-03-29T14:05:25Z</time>
      </trkpt>
      <trkpt lat="49.83405" lon="2.18243">
        <ele>101.3</ele>
        <time>2023-03-29T14:05:26Z</time>
      </trkpt>
      <trkpt lat="49.83405" lon="2.18241">
        <ele>101.4</ele>
        <time>2023-03-29T14:05:27Z</time>
      </trkpt>
      <trkpt lat="49.83404" lon="2.18239">
        <ele>101.4</ele>
        <time>2023-03-29T14:05:28Z</time>
      </trkpt>
      <trkpt lat="49.83404" lon="2.18238">
        <ele>101.4</ele>
        <time>2023-03-29T14:05:29Z</time>
      </trkpt>
      <trkpt lat="49.83403" lon="2.18236">
        <ele>101.4</ele>
        <time>2023-03-29T14:05:30Z</time>
      </trkpt>
      <trkpt lat="49.83403" lon="2.18235">
        <ele>101.4</ele>
        <time>2023-03-29T14:05:31Z</time>
      </trkpt>
      <trkpt lat="49.83402" lon="2.18232">
        <ele>101.5</ele>
        <time>2023-03-29T14:05:33Z</time>
      </trkpt>
      <trkpt lat="49.83402" lon="2.18231">
        <ele>101.5</ele>
        <time>2023-03-29T14:05:34Z</time>
      </trkpt>
      <trkpt lat="49.83401" lon="2.1823">
        <ele>101.5</ele>
        <time>2023-03-29T14:05:35Z</time>
      </trkpt>
      <trkpt lat="49.834" lon="2.18228">
        <ele>101.5</ele>
        <time>2023-03-29T14:05:36Z</time>
      </trkpt>
      <trkpt lat="49.834" lon="2.18225">
        <ele>101.6</ele>
        <time>2023-03-29T14:05:37Z</time>
      </trkpt>
      <trkpt lat="49.83399" lon="2.18222">
        <ele>101.6</ele>
        <time>2023-03-29T14:05:39Z</time>
      </trkpt>
      <trkpt lat="49.83399" lon="2.18221">
        <ele>101.6</ele>
        <time>2023-03-29T14:05:40Z</time>
      </trkpt>
      <trkpt lat="49.83398" lon="2.18219">
        <ele>101.6</ele>
        <time>2023-03-29T14:05:41Z</time>
      </trkpt>
      <trkpt lat="49.83398" lon="2.18217">
        <ele>101.7</ele>
        <time>2023-03-29T14:05:42Z</time>
      </trkpt>
      <trkpt lat="49.83397" lon="2.18215">
        <ele>101.7</ele>
        <time>2023-03-29T14:05:43Z</time>
      </trkpt>
      <trkpt lat="49.83397" lon="2.18213">
        <ele>101.7</ele>
        <time>2023-03-29T14:05:44Z</time>
      </trkpt>
      <trkpt lat="49.83396" lon="2.18211">
        <ele>101.8</ele>
        <time>2023-03-29T14:05:45Z</time>
      </trkpt>
      <trkpt lat="49.83396" lon="2.18208">
        <ele>101.8</ele>
        <time>2023-03-29T14:05:47Z</time>
      </trkpt>
      <trkpt lat="49.83396" lon="2.18206">
        <ele>101.8</ele>
        <time>2023-03-29T14:05:48Z</time>
      </trkpt>
      <trkpt lat="49.83396" lon="2.18204">
        <ele>101.8</ele>
        <time>2023-03-29T14:05:49Z</time>
      </trkpt>
      <trkpt lat="49.83395" lon="2.18202">
        <ele>101.9</ele>
        <time>2023-03-29T14:05:50Z</time>
      </trkpt>
      <trkpt lat="49.83394" lon="2.18199">
        <ele>101.9</ele>
        <time>2023-03-29T14:05:52Z</time>
      </trkpt>
      <trkpt lat="49.83394" lon="2.18197">
        <ele>101.9</ele>
        <time>2023-03-29T14:05:53Z</time>
      </trkpt>
      <trkpt lat="49.83393" lon="2.18196">
        <ele>102</ele>
        <time>2023-03-29T14:05:54Z</time>
      </trkpt>
      <trkpt lat="49.83393" lon="2.18194">
        <ele>102</ele>
        <time>2023-03-29T14:05:55Z</time>
      </trkpt>
      <trkpt lat="49.83392" lon="2.18192">
        <ele>102</ele>
        <time>2023-03-29T14:05:56Z</time>
      </trkpt>
      <trkpt lat="49.83392" lon="2.1819">
        <ele>102</ele>
        <time>2023-03-29T14:05:58Z</time>
      </trkpt>
      <trkpt lat="49.83392" lon="2.18188">
        <ele>102.1</ele>
        <time>2023-03-29T14:05:59Z</time>
      </trkpt>
      <trkpt lat="49.83392" lon="2.18188">
        <ele>102.1</ele>
        <time>2023-03-29T14:06:00Z</time>
      </trkpt>
      <trkpt lat="49.83392" lon="2.18187">
        <ele>102.1</ele>
        <time>2023-03-29T14:06:01Z</time>
      </trkpt>
      <trkpt lat="49.83391" lon="2.18184">
        <ele>102.1</ele>
        <time>2023-03-29T14:06:02Z</time>
      </trkpt>
      <trkpt lat="49.83391" lon="2.18183">
        <ele>102.1</ele>
        <time>2023-03-29T14:06:03Z</time>
      </trkpt>
      <trkpt lat="49.8339" lon="2.18182">
        <ele>102.2</ele>
        <time>2023-03-29T14:06:04Z</time>
      </trkpt>
      <trkpt lat="49.8339" lon="2.1818">
        <ele>102.2</ele>
        <time>2023-03-29T14:06:06Z</time>
      </trkpt>
      <trkpt lat="49.83389" lon="2.18178">
        <ele>102.2</ele>
        <time>2023-03-29T14:06:07Z</time>
      </trkpt>
      <trkpt lat="49.83389" lon="2.18177">
        <ele>102.2</ele>
        <time>2023-03-29T14:06:08Z</time>
      </trkpt>
      <trkpt lat="49.83388" lon="2.18175">
        <ele>102.3</ele>
        <time>2023-03-29T14:06:09Z</time>
      </trkpt>
      <trkpt lat="49.83388" lon="2.18173">
        <ele>102.3</ele>
        <time>2023-03-29T14:06:10Z</time>
      </trkpt>
      <trkpt lat="49.83388" lon="2.18172">
        <ele>102.3</ele>
        <time>2023-03-29T14:06:11Z</time>
      </trkpt>
      <trkpt lat="49.83388" lon="2.1817">
        <ele>102.3</ele>
        <time>2023-03-29T14:06:12Z</time>
      </trkpt>
      <trkpt lat="49.83387" lon="2.18168">
        <ele>102.4</ele>
        <time>2023-03-29T14:06:14Z</time>
      </trkpt>
      <trkpt lat="49.83387" lon="2.18167">
        <ele>102.4</ele>
        <time>2023-03-29T14:06:15Z</time>
      </trkpt>
      <trkpt lat="49.83386" lon="2.18165">
        <ele>102.4</ele>
        <time>2023-03-29T14:06:16Z</time>
      </trkpt>
      <trkpt lat="49.83386" lon="2.18164">
        <ele>102.5</ele>
        <time>2023-03-29T14:06:17Z</time>
      </trkpt>
      <trkpt lat="49.83386" lon="2.18162">
        <ele>102.5</ele>
        <time>2023-03-29T14:06:18Z</time>
      </trkpt>
      <trkpt lat="49.83385" lon="2.18159">
        <ele>102.6</ele>
        <time>2023-03-29T14:06:19Z</time>
      </trkpt>
      <trkpt lat="49.83385" lon="2.18158">
        <ele>102.6</ele>
        <time>2023-03-29T14:06:20Z</time>
      </trkpt>
      <trkpt lat="49.83384" lon="2.18156">
        <ele>102.6</ele>
        <time>2023-03-29T14:06:21Z</time>
      </trkpt>
      <trkpt lat="49.83384" lon="2.18155">
        <ele>102.6</ele>
        <time>2023-03-29T14:06:23Z</time>
      </trkpt>
      <trkpt lat="49.83384" lon="2.18154">
        <ele>102.7</ele>
        <time>2023-03-29T14:06:24Z</time>
      </trkpt>
      <trkpt lat="49.83384" lon="2.18153">
        <ele>102.7</ele>
        <time>2023-03-29T14:06:25Z</time>
      </trkpt>
      <trkpt lat="49.83384" lon="2.18151">
        <ele>102.7</ele>
        <time>2023-03-29T14:06:26Z</time>
      </trkpt>
      <trkpt lat="49.83384" lon="2.1815">
        <ele>102.7</ele>
        <time>2023-03-29T14:06:27Z</time>
      </trkpt>
      <trkpt lat="49.83384" lon="2.18148">
        <ele>102.8</ele>
        <time>2023-03-29T14:06:28Z</time>
      </trkpt>
      <trkpt lat="49.83383" lon="2.18147">
        <ele>102.8</ele>
        <time>2023-03-29T14:06:29Z</time>
      </trkpt>
      <trkpt lat="49.83383" lon="2.18145">
        <ele>102.9</ele>
        <time>2023-03-29T14:06:30Z</time>
      </trkpt>
      <trkpt lat="49.83383" lon="2.18143">
        <ele>102.9</ele>
        <time>2023-03-29T14:06:32Z</time>
      </trkpt>
      <trkpt lat="49.83383" lon="2.18141">
        <ele>103</ele>
        <time>2023-03-29T14:06:33Z</time>
      </trkpt>
      <trkpt lat="49.83383" lon="2.18139">
        <ele>103</ele>
        <time>2023-03-29T14:06:34Z</time>
      </trkpt>
      <trkpt lat="49.83382" lon="2.18138">
        <ele>103</ele>
        <time>2023-03-29T14:06:35Z</time>
      </trkpt>
      <trkpt lat="49.83382" lon="2.18135">
        <ele>103.1</ele>
        <time>2023-03-29T14:06:36Z</time>
      </trkpt>
      <trkpt lat="49.83382" lon="2.18133">
        <ele>103.2</ele>
        <time>2023-03-29T14:06:37Z</time>
      </trkpt>
      <trkpt lat="49.83382" lon="2.1813">
        <ele>103.2</ele>
        <time>2023-03-29T14:06:39Z</time>
      </trkpt>
      <trkpt lat="49.83382" lon="2.18129">
        <ele>103.3</ele>
        <time>2023-03-29T14:06:40Z</time>
      </trkpt>
      <trkpt lat="49.83382" lon="2.18127">
        <ele>103.3</ele>
        <time>2023-03-29T14:06:41Z</time>
      </trkpt>
      <trkpt lat="49.83382" lon="2.18126">
        <ele>103.3</ele>
        <time>2023-03-29T14:06:42Z</time>
      </trkpt>
      <trkpt lat="49.83381" lon="2.18124">
        <ele>103.4</ele>
        <time>2023-03-29T14:06:43Z</time>
      </trkpt>
      <trkpt lat="49.83381" lon="2.18123">
        <ele>103.4</ele>
        <time>2023-03-29T14:06:44Z</time>
      </trkpt>
      <trkpt lat="49.83381" lon="2.18122">
        <ele>103.4</ele>
        <time>2023-03-29T14:06:46Z</time>
      </trkpt>
      <trkpt lat="49.83382" lon="2.1812">
        <ele>103.5</ele>
        <time>2023-03-29T14:06:47Z</time>
      </trkpt>
      <trkpt lat="49.83381" lon="2.18119">
        <ele>103.5</ele>
        <time>2023-03-29T14:06:48Z</time>
      </trkpt>
      <trkpt lat="49.83381" lon="2.18117">
        <ele>103.5</ele>
        <time>2023-03-29T14:06:49Z</time>
      </trkpt>
      <trkpt lat="49.83381" lon="2.18116">
        <ele>103.6</ele>
        <time>2023-03-29T14:06:51Z</time>
      </trkpt>
      <trkpt lat="49.83381" lon="2.18114">
        <ele>103.6</ele>
        <time>2023-03-29T14:06:52Z</time>
      </trkpt>
      <trkpt lat="49.8338" lon="2.18112">
        <ele>103.7</ele>
        <time>2023-03-29T14:06:53Z</time>
      </trkpt>
      <trkpt lat="49.8338" lon="2.18111">
        <ele>103.7</ele>
        <time>2023-03-29T14:06:54Z</time>
      </trkpt>
      <trkpt lat="49.8338" lon="2.1811">
        <ele>103.7</ele>
        <time>2023-03-29T14:06:55Z</time>
      </trkpt>
      <trkpt lat="49.83379" lon="2.18108">
        <ele>103.7</ele>
        <time>2023-03-29T14:06:57Z</time>
      </trkpt>
      <trkpt lat="49.83379" lon="2.18108">
        <ele>103.8</ele>
        <time>2023-03-29T14:06:58Z</time>
      </trkpt>
      <trkpt lat="49.83379" lon="2.18107">
        <ele>103.8</ele>
        <time>2023-03-29T14:06:59Z</time>
      </trkpt>
      <trkpt lat="49.83378" lon="2.18106">
        <ele>103.8</ele>
        <time>2023-03-29T14:07:00Z</time>
      </trkpt>
      <trkpt lat="49.83378" lon="2.18104">
        <ele>103.8</ele>
        <time>2023-03-29T14:07:01Z</time>
      </trkpt>
      <trkpt lat="49.83378" lon="2.18104">
        <ele>103.8</ele>
        <time>2023-03-29T14:07:02Z</time>
      </trkpt>
      <trkpt lat="49.83377" lon="2.18102">
        <ele>103.9</ele>
        <time>2023-03-29T14:07:04Z</time>
      </trkpt>
      <trkpt lat="49.83377" lon="2.18101">
        <ele>103.9</ele>
        <time>2023-03-29T14:07:05Z</time>
      </trkpt>
      <trkpt lat="49.83376" lon="2.181">
        <ele>103.9</ele>
        <time>2023-03-29T14:07:06Z</time>
      </trkpt>
      <trkpt lat="49.83376" lon="2.18099">
        <ele>104</ele>
        <time>2023-03-29T14:07:07Z</time>
      </trkpt>
      <trkpt lat="49.83376" lon="2.18098">
        <ele>104</ele>
        <time>2023-03-29T14:07:09Z</time>
      </trkpt>
      <trkpt lat="49.83376" lon="2.18097">
        <ele>104</ele>
        <time>2023-03-29T14:07:10Z</time>
      </trkpt>
      <trkpt lat="49.83376" lon="2.18095">
        <ele>104</ele>
        <time>2023-03-29T14:07:11Z</time>
      </trkpt>
      <trkpt lat="49.83375" lon="2.18093">
        <ele>104.1</ele>
        <time>2023-03-29T14:07:12Z</time>
      </trkpt>
      <trkpt lat="49.83376" lon="2.18092">
        <ele>104.1</ele>
        <time>2023-03-29T14:07:13Z</time>
      </trkpt>
      <trkpt lat="49.83376" lon="2.1809">
        <ele>104.1</ele>
        <time>2023-03-29T14:07:14Z</time>
      </trkpt>
      <trkpt lat="49.83376" lon="2.18088">
        <ele>104.2</ele>
        <time>2023-03-29T14:07:16Z</time>
      </trkpt>
      <trkpt lat="49.83376" lon="2.18087">
        <ele>104.2</ele>
        <time>2023-03-29T14:07:17Z</time>
      </trkpt>
      <trkpt lat="49.83376" lon="2.18086">
        <ele>104.2</ele>
        <time>2023-03-29T14:07:18Z</time>
      </trkpt>
      <trkpt lat="49.83376" lon="2.18084">
        <ele>104.2</ele>
        <time>2023-03-29T14:07:19Z</time>
      </trkpt>
      <trkpt lat="49.83375" lon="2.18082">
        <ele>104.3</ele>
        <time>2023-03-29T14:07:20Z</time>
      </trkpt>
      <trkpt lat="49.83375" lon="2.1808">
        <ele>104.3</ele>
        <time>2023-03-29T14:07:21Z</time>
      </trkpt>
      <trkpt lat="49.83375" lon="2.18079">
        <ele>104.3</ele>
        <time>2023-03-29T14:07:22Z</time>
      </trkpt>
      <trkpt lat="49.83375" lon="2.18077">
        <ele>104.3</ele>
        <time>2023-03-29T14:07:23Z</time>
      </trkpt>
      <trkpt lat="49.83375" lon="2.18076">
        <ele>104.3</ele>
        <time>2023-03-29T14:07:25Z</time>
      </trkpt>
      <trkpt lat="49.83375" lon="2.18074">
        <ele>104.4</ele>
        <time>2023-03-29T14:07:26Z</time>
      </trkpt>
      <trkpt lat="49.83375" lon="2.18072">
        <ele>104.4</ele>
        <time>2023-03-29T14:07:27Z</time>
      </trkpt>
      <trkpt lat="49.83374" lon="2.18071">
        <ele>104.4</ele>
        <time>2023-03-29T14:07:28Z</time>
      </trkpt>
      <trkpt lat="49.83374" lon="2.18069">
        <ele>104.4</ele>
        <time>2023-03-29T14:07:29Z</time>
      </trkpt>
      <trkpt lat="49.83373" lon="2.18065">
        <ele>104.5</ele>
        <time>2023-03-29T14:07:31Z</time>
      </trkpt>
      <trkpt lat="49.83373" lon="2.18064">
        <ele>104.5</ele>
        <time>2023-03-29T14:07:33Z</time>
      </trkpt>
      <trkpt lat="49.83373" lon="2.18062">
        <ele>104.5</ele>
        <time>2023-03-29T14:07:34Z</time>
      </trkpt>
      <trkpt lat="49.83373" lon="2.1806">
        <ele>104.5</ele>
        <time>2023-03-29T14:07:35Z</time>
      </trkpt>
      <trkpt lat="49.83372" lon="2.18058">
        <ele>104.5</ele>
        <time>2023-03-29T14:07:36Z</time>
      </trkpt>
      <trkpt lat="49.83372" lon="2.18056">
        <ele>104.5</ele>
        <time>2023-03-29T14:07:37Z</time>
      </trkpt>
      <trkpt lat="49.83372" lon="2.18055">
        <ele>104.6</ele>
        <time>2023-03-29T14:07:38Z</time>
      </trkpt>
      <trkpt lat="49.83371" lon="2.18053">
        <ele>104.6</ele>
        <time>2023-03-29T14:07:39Z</time>
      </trkpt>
      <trkpt lat="49.83371" lon="2.18051">
        <ele>104.6</ele>
        <time>2023-03-29T14:07:41Z</time>
      </trkpt>
      <trkpt lat="49.8337" lon="2.18049">
        <ele>104.6</ele>
        <time>2023-03-29T14:07:42Z</time>
      </trkpt>
      <trkpt lat="49.8337" lon="2.18048">
        <ele>104.6</ele>
        <time>2023-03-29T14:07:43Z</time>
      </trkpt>
      <trkpt lat="49.83369" lon="2.18045">
        <ele>104.6</ele>
        <time>2023-03-29T14:07:44Z</time>
      </trkpt>
      <trkpt lat="49.83369" lon="2.18043">
        <ele>104.6</ele>
        <time>2023-03-29T14:07:45Z</time>
      </trkpt>
      <trkpt lat="49.83369" lon="2.18042">
        <ele>104.7</ele>
        <time>2023-03-29T14:07:46Z</time>
      </trkpt>
      <trkpt lat="49.83368" lon="2.1804">
        <ele>104.7</ele>
        <time>2023-03-29T14:07:47Z</time>
      </trkpt>
      <trkpt lat="49.83368" lon="2.18038">
        <ele>104.7</ele>
        <time>2023-03-29T14:07:49Z</time>
      </trkpt>
      <trkpt lat="49.83368" lon="2.18037">
        <ele>104.7</ele>
        <time>2023-03-29T14:07:50Z</time>
      </trkpt>
      <trkpt lat="49.83368" lon="2.18035">
        <ele>104.7</ele>
        <time>2023-03-29T14:07:51Z</time>
      </trkpt>
      <trkpt lat="49.83367" lon="2.18032">
        <ele>104.7</ele>
        <time>2023-03-29T14:07:52Z</time>
      </trkpt>
      <trkpt lat="49.83366" lon="2.18029">
        <ele>104.8</ele>
        <time>2023-03-29T14:07:53Z</time>
      </trkpt>
      <trkpt lat="49.83366" lon="2.18028">
        <ele>104.8</ele>
        <time>2023-03-29T14:07:54Z</time>
      </trkpt>
      <trkpt lat="49.83365" lon="2.18026">
        <ele>104.8</ele>
        <time>2023-03-29T14:07:56Z</time>
      </trkpt>
      <trkpt lat="49.83365" lon="2.18025">
        <ele>104.8</ele>
        <time>2023-03-29T14:07:57Z</time>
      </trkpt>
      <trkpt lat="49.83365" lon="2.18023">
        <ele>104.8</ele>
        <time>2023-03-29T14:07:58Z</time>
      </trkpt>
      <trkpt lat="49.83364" lon="2.18022">
        <ele>104.8</ele>
        <time>2023-03-29T14:07:59Z</time>
      </trkpt>
      <trkpt lat="49.83364" lon="2.1802">
        <ele>104.8</ele>
        <time>2023-03-29T14:08:00Z</time>
      </trkpt>
      <trkpt lat="49.83363" lon="2.18018">
        <ele>104.9</ele>
        <time>2023-03-29T14:08:01Z</time>
      </trkpt>
      <trkpt lat="49.83363" lon="2.18017">
        <ele>104.9</ele>
        <time>2023-03-29T14:08:02Z</time>
      </trkpt>
      <trkpt lat="49.83363" lon="2.18016">
        <ele>104.9</ele>
        <time>2023-03-29T14:08:04Z</time>
      </trkpt>
      <trkpt lat="49.83362" lon="2.18014">
        <ele>104.9</ele>
        <time>2023-03-29T14:08:05Z</time>
      </trkpt>
      <trkpt lat="49.83362" lon="2.18012">
        <ele>104.9</ele>
        <time>2023-03-29T14:08:06Z</time>
      </trkpt>
      <trkpt lat="49.83361" lon="2.18008">
        <ele>105</ele>
        <time>2023-03-29T14:08:08Z</time>
      </trkpt>
      <trkpt lat="49.8336" lon="2.18005">
        <ele>105</ele>
        <time>2023-03-29T14:08:10Z</time>
      </trkpt>
      <trkpt lat="49.8336" lon="2.18002">
        <ele>105</ele>
        <time>2023-03-29T14:08:12Z</time>
      </trkpt>
      <trkpt lat="49.83359" lon="2.18001">
        <ele>105.1</ele>
        <time>2023-03-29T14:08:13Z</time>
      </trkpt>
      <trkpt lat="49.83359" lon="2.17999">
        <ele>105.1</ele>
        <time>2023-03-29T14:08:14Z</time>
      </trkpt>
      <trkpt lat="49.83359" lon="2.17996">
        <ele>105.1</ele>
        <time>2023-03-29T14:08:15Z</time>
      </trkpt>
      <trkpt lat="49.83358" lon="2.17995">
        <ele>105.1</ele>
        <time>2023-03-29T14:08:16Z</time>
      </trkpt>
      <trkpt lat="49.83357" lon="2.17992">
        <ele>105.2</ele>
        <time>2023-03-29T14:08:17Z</time>
      </trkpt>
      <trkpt lat="49.83357" lon="2.17991">
        <ele>105.2</ele>
        <time>2023-03-29T14:08:18Z</time>
      </trkpt>
      <trkpt lat="49.83356" lon="2.17989">
        <ele>105.2</ele>
        <time>2023-03-29T14:08:20Z</time>
      </trkpt>
      <trkpt lat="49.83356" lon="2.17987">
        <ele>105.2</ele>
        <time>2023-03-29T14:08:21Z</time>
      </trkpt>
      <trkpt lat="49.83355" lon="2.17984">
        <ele>105.3</ele>
        <time>2023-03-29T14:08:22Z</time>
      </trkpt>
      <trkpt lat="49.83354" lon="2.17983">
        <ele>105.3</ele>
        <time>2023-03-29T14:08:23Z</time>
      </trkpt>
      <trkpt lat="49.83354" lon="2.17982">
        <ele>105.3</ele>
        <time>2023-03-29T14:08:24Z</time>
      </trkpt>
      <trkpt lat="49.83353" lon="2.17981">
        <ele>105.3</ele>
        <time>2023-03-29T14:08:25Z</time>
      </trkpt>
      <trkpt lat="49.83353" lon="2.17978">
        <ele>105.3</ele>
        <time>2023-03-29T14:08:26Z</time>
      </trkpt>
      <trkpt lat="49.83352" lon="2.17975">
        <ele>105.4</ele>
        <time>2023-03-29T14:08:27Z</time>
      </trkpt>
      <trkpt lat="49.83351" lon="2.17974">
        <ele>105.4</ele>
        <time>2023-03-29T14:08:29Z</time>
      </trkpt>
      <trkpt lat="49.83351" lon="2.17973">
        <ele>105.4</ele>
        <time>2023-03-29T14:08:30Z</time>
      </trkpt>
      <trkpt lat="49.8335" lon="2.17971">
        <ele>105.4</ele>
        <time>2023-03-29T14:08:31Z</time>
      </trkpt>
      <trkpt lat="49.8335" lon="2.17968">
        <ele>105.4</ele>
        <time>2023-03-29T14:08:32Z</time>
      </trkpt>
      <trkpt lat="49.83349" lon="2.17966">
        <ele>105.4</ele>
        <time>2023-03-29T14:08:33Z</time>
      </trkpt>
      <trkpt lat="49.83348" lon="2.17965">
        <ele>105.4</ele>
        <time>2023-03-29T14:08:34Z</time>
      </trkpt>
      <trkpt lat="49.83348" lon="2.17963">
        <ele>105.4</ele>
        <time>2023-03-29T14:08:36Z</time>
      </trkpt>
      <trkpt lat="49.83347" lon="2.17959">
        <ele>105.4</ele>
        <time>2023-03-29T14:08:37Z</time>
      </trkpt>
      <trkpt lat="49.83346" lon="2.17957">
        <ele>105.4</ele>
        <time>2023-03-29T14:08:38Z</time>
      </trkpt>
      <trkpt lat="49.83346" lon="2.17955">
        <ele>105.4</ele>
        <time>2023-03-29T14:08:39Z</time>
      </trkpt>
      <trkpt lat="49.83345" lon="2.17953">
        <ele>105.4</ele>
        <time>2023-03-29T14:08:40Z</time>
      </trkpt>
      <trkpt lat="49.83344" lon="2.1795">
        <ele>105.4</ele>
        <time>2023-03-29T14:08:41Z</time>
      </trkpt>
      <trkpt lat="49.83343" lon="2.17948">
        <ele>105.4</ele>
        <time>2023-03-29T14:08:42Z</time>
      </trkpt>
      <trkpt lat="49.83342" lon="2.17946">
        <ele>105.4</ele>
        <time>2023-03-29T14:08:44Z</time>
      </trkpt>
      <trkpt lat="49.83342" lon="2.17945">
        <ele>105.4</ele>
        <time>2023-03-29T14:08:45Z</time>
      </trkpt>
      <trkpt lat="49.83341" lon="2.17944">
        <ele>105.4</ele>
        <time>2023-03-29T14:08:46Z</time>
      </trkpt>
      <trkpt lat="49.8334" lon="2.17942">
        <ele>105.4</ele>
        <time>2023-03-29T14:08:47Z</time>
      </trkpt>
      <trkpt lat="49.8334" lon="2.17941">
        <ele>105.4</ele>
        <time>2023-03-29T14:08:48Z</time>
      </trkpt>
      <trkpt lat="49.83339" lon="2.1794">
        <ele>105.4</ele>
        <time>2023-03-29T14:08:49Z</time>
      </trkpt>
      <trkpt lat="49.83339" lon="2.17939">
        <ele>105.4</ele>
        <time>2023-03-29T14:08:50Z</time>
      </trkpt>
      <trkpt lat="49.83338" lon="2.17937">
        <ele>105.3</ele>
        <time>2023-03-29T14:08:51Z</time>
      </trkpt>
      <trkpt lat="49.83337" lon="2.17936">
        <ele>105.3</ele>
        <time>2023-03-29T14:08:53Z</time>
      </trkpt>
      <trkpt lat="49.83337" lon="2.17936">
        <ele>105.3</ele>
        <time>2023-03-29T14:08:54Z</time>
      </trkpt>
      <trkpt lat="49.83337" lon="2.17935">
        <ele>105.3</ele>
        <time>2023-03-29T14:08:55Z</time>
      </trkpt>
      <trkpt lat="49.83336" lon="2.17934">
        <ele>105.3</ele>
        <time>2023-03-29T14:08:56Z</time>
      </trkpt>
      <trkpt lat="49.83335" lon="2.17933">
        <ele>105.3</ele>
        <time>2023-03-29T14:08:57Z</time>
      </trkpt>
      <trkpt lat="49.83335" lon="2.17933">
        <ele>105.3</ele>
        <time>2023-03-29T14:08:58Z</time>
      </trkpt>
      <trkpt lat="49.83335" lon="2.17932">
        <ele>105.3</ele>
        <time>2023-03-29T14:08:59Z</time>
      </trkpt>
      <trkpt lat="49.83334" lon="2.17931">
        <ele>105.3</ele>
        <time>2023-03-29T14:09:00Z</time>
      </trkpt>
      <trkpt lat="49.83334" lon="2.1793">
        <ele>105.3</ele>
        <time>2023-03-29T14:09:01Z</time>
      </trkpt>
      <trkpt lat="49.83333" lon="2.17929">
        <ele>105.3</ele>
        <time>2023-03-29T14:09:03Z</time>
      </trkpt>
      <trkpt lat="49.83333" lon="2.17927">
        <ele>105.2</ele>
        <time>2023-03-29T14:09:04Z</time>
      </trkpt>
      <trkpt lat="49.83332" lon="2.17925">
        <ele>105.2</ele>
        <time>2023-03-29T14:09:05Z</time>
      </trkpt>
      <trkpt lat="49.83331" lon="2.17924">
        <ele>105.2</ele>
        <time>2023-03-29T14:09:06Z</time>
      </trkpt>
      <trkpt lat="49.8333" lon="2.17922">
        <ele>105.2</ele>
        <time>2023-03-29T14:09:07Z</time>
      </trkpt>
      <trkpt lat="49.83329" lon="2.1792">
        <ele>105.2</ele>
        <time>2023-03-29T14:09:09Z</time>
      </trkpt>
      <trkpt lat="49.83328" lon="2.17917">
        <ele>105.2</ele>
        <time>2023-03-29T14:09:10Z</time>
      </trkpt>
      <trkpt lat="49.83328" lon="2.17916">
        <ele>105.2</ele>
        <time>2023-03-29T14:09:11Z</time>
      </trkpt>
      <trkpt lat="49.83327" lon="2.17915">
        <ele>105.2</ele>
        <time>2023-03-29T14:09:12Z</time>
      </trkpt>
      <trkpt lat="49.83326" lon="2.17912">
        <ele>105.1</ele>
        <time>2023-03-29T14:09:14Z</time>
      </trkpt>
      <trkpt lat="49.83325" lon="2.1791">
        <ele>105.1</ele>
        <time>2023-03-29T14:09:15Z</time>
      </trkpt>
      <trkpt lat="49.83324" lon="2.17908">
        <ele>105.1</ele>
        <time>2023-03-29T14:09:16Z</time>
      </trkpt>
      <trkpt lat="49.83324" lon="2.17906">
        <ele>105.1</ele>
        <time>2023-03-29T14:09:17Z</time>
      </trkpt>
      <trkpt lat="49.83322" lon="2.17903">
        <ele>105.1</ele>
        <time>2023-03-29T14:09:18Z</time>
      </trkpt>
      <trkpt lat="49.83322" lon="2.17902">
        <ele>105.1</ele>
        <time>2023-03-29T14:09:19Z</time>
      </trkpt>
      <trkpt lat="49.83321" lon="2.17901">
        <ele>105.1</ele>
        <time>2023-03-29T14:09:20Z</time>
      </trkpt>
      <trkpt lat="49.8332" lon="2.17898">
        <ele>105.1</ele>
        <time>2023-03-29T14:09:21Z</time>
      </trkpt>
      <trkpt lat="49.83319" lon="2.17897">
        <ele>105.1</ele>
        <time>2023-03-29T14:09:23Z</time>
      </trkpt>
      <trkpt lat="49.83319" lon="2.17896">
        <ele>105.1</ele>
        <time>2023-03-29T14:09:24Z</time>
      </trkpt>
      <trkpt lat="49.83318" lon="2.17894">
        <ele>105.1</ele>
        <time>2023-03-29T14:09:25Z</time>
      </trkpt>
      <trkpt lat="49.83317" lon="2.17893">
        <ele>105.1</ele>
        <time>2023-03-29T14:09:26Z</time>
      </trkpt>
      <trkpt lat="49.83316" lon="2.1789">
        <ele>105.1</ele>
        <time>2023-03-29T14:09:27Z</time>
      </trkpt>
      <trkpt lat="49.83316" lon="2.17889">
        <ele>105.1</ele>
        <time>2023-03-29T14:09:28Z</time>
      </trkpt>
      <trkpt lat="49.83315" lon="2.17889">
        <ele>105.1</ele>
        <time>2023-03-29T14:09:29Z</time>
      </trkpt>
      <trkpt lat="49.83314" lon="2.17887">
        <ele>105.1</ele>
        <time>2023-03-29T14:09:30Z</time>
      </trkpt>
      <trkpt lat="49.83314" lon="2.17885">
        <ele>105.1</ele>
        <time>2023-03-29T14:09:31Z</time>
      </trkpt>
      <trkpt lat="49.83313" lon="2.17884">
        <ele>105.1</ele>
        <time>2023-03-29T14:09:33Z</time>
      </trkpt>
      <trkpt lat="49.83312" lon="2.17882">
        <ele>105.1</ele>
        <time>2023-03-29T14:09:34Z</time>
      </trkpt>
      <trkpt lat="49.83311" lon="2.17881">
        <ele>105.1</ele>
        <time>2023-03-29T14:09:35Z</time>
      </trkpt>
      <trkpt lat="49.8331" lon="2.1788">
        <ele>105.1</ele>
        <time>2023-03-29T14:09:36Z</time>
      </trkpt>
      <trkpt lat="49.83309" lon="2.17878">
        <ele>105.1</ele>
        <time>2023-03-29T14:09:37Z</time>
      </trkpt>
      <trkpt lat="49.83308" lon="2.17877">
        <ele>105.1</ele>
        <time>2023-03-29T14:09:38Z</time>
      </trkpt>
      <trkpt lat="49.83307" lon="2.17876">
        <ele>105</ele>
        <time>2023-03-29T14:09:39Z</time>
      </trkpt>
      <trkpt lat="49.83307" lon="2.17874">
        <ele>105</ele>
        <time>2023-03-29T14:09:40Z</time>
      </trkpt>
      <trkpt lat="49.83306" lon="2.17873">
        <ele>105</ele>
        <time>2023-03-29T14:09:41Z</time>
      </trkpt>
      <trkpt lat="49.83305" lon="2.17871">
        <ele>105</ele>
        <time>2023-03-29T14:09:42Z</time>
      </trkpt>
      <trkpt lat="49.83304" lon="2.1787">
        <ele>105</ele>
        <time>2023-03-29T14:09:44Z</time>
      </trkpt>
      <trkpt lat="49.83303" lon="2.17868">
        <ele>105</ele>
        <time>2023-03-29T14:09:45Z</time>
      </trkpt>
      <trkpt lat="49.83302" lon="2.17866">
        <ele>105</ele>
        <time>2023-03-29T14:09:46Z</time>
      </trkpt>
      <trkpt lat="49.83301" lon="2.17864">
        <ele>105</ele>
        <time>2023-03-29T14:09:47Z</time>
      </trkpt>
      <trkpt lat="49.833" lon="2.17862">
        <ele>105</ele>
        <time>2023-03-29T14:09:48Z</time>
      </trkpt>
      <trkpt lat="49.83299" lon="2.17861">
        <ele>105</ele>
        <time>2023-03-29T14:09:49Z</time>
      </trkpt>
      <trkpt lat="49.83298" lon="2.17859">
        <ele>105</ele>
        <time>2023-03-29T14:09:50Z</time>
      </trkpt>
      <trkpt lat="49.83297" lon="2.17855">
        <ele>105</ele>
        <time>2023-03-29T14:09:51Z</time>
      </trkpt>
      <trkpt lat="49.83296" lon="2.17854">
        <ele>105</ele>
        <time>2023-03-29T14:09:53Z</time>
      </trkpt>
      <trkpt lat="49.83295" lon="2.17852">
        <ele>105</ele>
        <time>2023-03-29T14:09:55Z</time>
      </trkpt>
      <trkpt lat="49.83294" lon="2.1785">
        <ele>105</ele>
        <time>2023-03-29T14:09:56Z</time>
      </trkpt>
      <trkpt lat="49.83293" lon="2.17847">
        <ele>105</ele>
        <time>2023-03-29T14:09:57Z</time>
      </trkpt>
      <trkpt lat="49.83292" lon="2.17846">
        <ele>105</ele>
        <time>2023-03-29T14:09:58Z</time>
      </trkpt>
      <trkpt lat="49.83291" lon="2.17843">
        <ele>105</ele>
        <time>2023-03-29T14:09:59Z</time>
      </trkpt>
      <trkpt lat="49.83291" lon="2.17842">
        <ele>105</ele>
        <time>2023-03-29T14:10:00Z</time>
      </trkpt>
      <trkpt lat="49.8329" lon="2.17841">
        <ele>105</ele>
        <time>2023-03-29T14:10:01Z</time>
      </trkpt>
      <trkpt lat="49.83289" lon="2.17838">
        <ele>105</ele>
        <time>2023-03-29T14:10:02Z</time>
      </trkpt>
      <trkpt lat="49.83288" lon="2.17838">
        <ele>105</ele>
        <time>2023-03-29T14:10:03Z</time>
      </trkpt>
      <trkpt lat="49.83288" lon="2.17837">
        <ele>105</ele>
        <time>2023-03-29T14:10:04Z</time>
      </trkpt>
      <trkpt lat="49.83287" lon="2.17835">
        <ele>105</ele>
        <time>2023-03-29T14:10:05Z</time>
      </trkpt>
      <trkpt lat="49.83286" lon="2.17834">
        <ele>105</ele>
        <time>2023-03-29T14:10:06Z</time>
      </trkpt>
      <trkpt lat="49.83284" lon="2.17832">
        <ele>105</ele>
        <time>2023-03-29T14:10:08Z</time>
      </trkpt>
      <trkpt lat="49.83284" lon="2.17831">
        <ele>105</ele>
        <time>2023-03-29T14:10:09Z</time>
      </trkpt>
      <trkpt lat="49.83283" lon="2.1783">
        <ele>105</ele>
        <time>2023-03-29T14:10:10Z</time>
      </trkpt>
      <trkpt lat="49.83281" lon="2.17828">
        <ele>105</ele>
        <time>2023-03-29T14:10:11Z</time>
      </trkpt>
      <trkpt lat="49.8328" lon="2.17826">
        <ele>105</ele>
        <time>2023-03-29T14:10:12Z</time>
      </trkpt>
      <trkpt lat="49.83279" lon="2.17826">
        <ele>105</ele>
        <time>2023-03-29T14:10:13Z</time>
      </trkpt>
      <trkpt lat="49.83277" lon="2.17823">
        <ele>105</ele>
        <time>2023-03-29T14:10:15Z</time>
      </trkpt>
      <trkpt lat="49.83277" lon="2.17823">
        <ele>105</ele>
        <time>2023-03-29T14:10:16Z</time>
      </trkpt>
      <trkpt lat="49.83276" lon="2.17822">
        <ele>104.9</ele>
        <time>2023-03-29T14:10:17Z</time>
      </trkpt>
      <trkpt lat="49.83274" lon="2.17819">
        <ele>104.9</ele>
        <time>2023-03-29T14:10:18Z</time>
      </trkpt>
      <trkpt lat="49.83273" lon="2.17818">
        <ele>104.9</ele>
        <time>2023-03-29T14:10:19Z</time>
      </trkpt>
      <trkpt lat="49.83273" lon="2.17817">
        <ele>104.9</ele>
        <time>2023-03-29T14:10:21Z</time>
      </trkpt>
      <trkpt lat="49.83272" lon="2.17816">
        <ele>104.9</ele>
        <time>2023-03-29T14:10:22Z</time>
      </trkpt>
      <trkpt lat="49.83271" lon="2.17815">
        <ele>104.9</ele>
        <time>2023-03-29T14:10:23Z</time>
      </trkpt>
      <trkpt lat="49.8327" lon="2.17814">
        <ele>104.9</ele>
        <time>2023-03-29T14:10:24Z</time>
      </trkpt>
      <trkpt lat="49.8327" lon="2.17813">
        <ele>104.9</ele>
        <time>2023-03-29T14:10:25Z</time>
      </trkpt>
      <trkpt lat="49.83269" lon="2.17812">
        <ele>104.9</ele>
        <time>2023-03-29T14:10:26Z</time>
      </trkpt>
      <trkpt lat="49.83268" lon="2.17811">
        <ele>104.9</ele>
        <time>2023-03-29T14:10:28Z</time>
      </trkpt>
      <trkpt lat="49.83267" lon="2.1781">
        <ele>104.9</ele>
        <time>2023-03-29T14:10:29Z</time>
      </trkpt>
      <trkpt lat="49.83266" lon="2.17809">
        <ele>104.9</ele>
        <time>2023-03-29T14:10:30Z</time>
      </trkpt>
      <trkpt lat="49.83266" lon="2.17807">
        <ele>104.9</ele>
        <time>2023-03-29T14:10:31Z</time>
      </trkpt>
      <trkpt lat="49.83264" lon="2.17804">
        <ele>104.9</ele>
        <time>2023-03-29T14:10:32Z</time>
      </trkpt>
      <trkpt lat="49.83264" lon="2.17804">
        <ele>104.9</ele>
        <time>2023-03-29T14:10:34Z</time>
      </trkpt>
      <trkpt lat="49.83263" lon="2.17803">
        <ele>104.8</ele>
        <time>2023-03-29T14:10:35Z</time>
      </trkpt>
      <trkpt lat="49.83262" lon="2.17802">
        <ele>104.8</ele>
        <time>2023-03-29T14:10:36Z</time>
      </trkpt>
      <trkpt lat="49.83261" lon="2.17799">
        <ele>104.8</ele>
        <time>2023-03-29T14:10:37Z</time>
      </trkpt>
      <trkpt lat="49.83261" lon="2.17798">
        <ele>104.8</ele>
        <time>2023-03-29T14:10:38Z</time>
      </trkpt>
      <trkpt lat="49.8326" lon="2.17797">
        <ele>104.8</ele>
        <time>2023-03-29T14:10:39Z</time>
      </trkpt>
      <trkpt lat="49.83258" lon="2.17793">
        <ele>104.8</ele>
        <time>2023-03-29T14:10:41Z</time>
      </trkpt>
      <trkpt lat="49.83257" lon="2.17791">
        <ele>104.7</ele>
        <time>2023-03-29T14:10:42Z</time>
      </trkpt>
      <trkpt lat="49.83255" lon="2.17788">
        <ele>104.7</ele>
        <time>2023-03-29T14:10:43Z</time>
      </trkpt>
      <trkpt lat="49.83255" lon="2.17786">
        <ele>104.7</ele>
        <time>2023-03-29T14:10:45Z</time>
      </trkpt>
      <trkpt lat="49.83254" lon="2.17784">
        <ele>104.7</ele>
        <time>2023-03-29T14:10:46Z</time>
      </trkpt>
      <trkpt lat="49.83253" lon="2.17783">
        <ele>104.7</ele>
        <time>2023-03-29T14:10:47Z</time>
      </trkpt>
      <trkpt lat="49.83253" lon="2.17781">
        <ele>104.6</ele>
        <time>2023-03-29T14:10:48Z</time>
      </trkpt>
      <trkpt lat="49.83251" lon="2.17779">
        <ele>104.6</ele>
        <time>2023-03-29T14:10:50Z</time>
      </trkpt>
      <trkpt lat="49.8325" lon="2.17778">
        <ele>104.6</ele>
        <time>2023-03-29T14:10:52Z</time>
      </trkpt>
      <trkpt lat="49.83249" lon="2.17778">
        <ele>104.6</ele>
        <time>2023-03-29T14:10:54Z</time>
      </trkpt>
      <trkpt lat="49.83248" lon="2.17778">
        <ele>104.6</ele>
        <time>2023-03-29T14:10:55Z</time>
      </trkpt>
      <trkpt lat="49.83248" lon="2.17779">
        <ele>104.6</ele>
        <time>2023-03-29T14:10:57Z</time>
      </trkpt>
      <trkpt lat="49.83248" lon="2.17779">
        <ele>104.6</ele>
        <time>2023-03-29T14:10:58Z</time>
      </trkpt>
      <trkpt lat="49.83248" lon="2.17779">
        <ele>104.6</ele>
        <time>2023-03-29T14:10:59Z</time>
      </trkpt>
      <trkpt lat="49.83248" lon="2.17779">
        <ele>104.6</ele>
        <time>2023-03-29T14:11:01Z</time>
      </trkpt>
      <trkpt lat="49.83248" lon="2.17779">
        <ele>104.6</ele>
        <time>2023-03-29T14:11:02Z</time>
      </trkpt>
      <trkpt lat="49.83248" lon="2.17779">
        <ele>104.6</ele>
        <time>2023-03-29T14:11:04Z</time>
      </trkpt>
      <trkpt lat="49.83248" lon="2.17779">
        <ele>104.6</ele>
        <time>2023-03-29T14:11:05Z</time>
      </trkpt>
      <trkpt lat="49.83248" lon="2.17779">
        <ele>104.6</ele>
        <time>2023-03-29T14:11:07Z</time>
      </trkpt>
      <trkpt lat="49.83248" lon="2.17779">
        <ele>104.6</ele>
        <time>2023-03-29T14:11:08Z</time>
      </trkpt>
      <trkpt lat="49.83248" lon="2.17779">
        <ele>104.5</ele>
        <time>2023-03-29T14:11:09Z</time>
      </trkpt>
      <trkpt lat="49.83248" lon="2.17779">
        <ele>104.5</ele>
        <time>2023-03-29T14:11:11Z</time>
      </trkpt>
      <trkpt lat="49.83248" lon="2.17779">
        <ele>104.5</ele>
        <time>2023-03-29T14:11:12Z</time>
      </trkpt>
      <trkpt lat="49.83248" lon="2.17779">
        <ele>104.5</ele>
        <time>2023-03-29T14:11:13Z</time>
      </trkpt>
      <trkpt lat="49.83248" lon="2.17779">
        <ele>104.5</ele>
        <time>2023-03-29T14:11:14Z</time>
      </trkpt>
      <trkpt lat="49.83248" lon="2.17779">
        <ele>104.5</ele>
        <time>2023-03-29T14:11:15Z</time>
      </trkpt>
      <trkpt lat="49.83248" lon="2.17779">
        <ele>104.5</ele>
        <time>2023-03-29T14:11:16Z</time>
      </trkpt>
      <trkpt lat="49.83248" lon="2.17779">
        <ele>104.5</ele>
        <time>2023-03-29T14:11:17Z</time>
      </trkpt>
      <trkpt lat="49.83248" lon="2.17779">
        <ele>104.5</ele>
        <time>2023-03-29T14:11:18Z</time>
      </trkpt>
      <trkpt lat="49.83248" lon="2.17779">
        <ele>104.5</ele>
        <time>2023-03-29T14:11:19Z</time>
      </trkpt>
      <trkpt lat="49.83248" lon="2.17779">
        <ele>104.5</ele>
        <time>2023-03-29T14:11:20Z</time>
      </trkpt>
      <trkpt lat="49.83248" lon="2.17779">
        <ele>104.5</ele>
        <time>2023-03-29T14:11:21Z</time>
      </trkpt>
      <trkpt lat="49.83248" lon="2.17779">
        <ele>104.5</ele>
        <time>2023-03-29T14:11:22Z</time>
      </trkpt>
      <trkpt lat="49.83248" lon="2.17779">
        <ele>104.5</ele>
        <time>2023-03-29T14:11:23Z</time>
      </trkpt>
      <trkpt lat="49.83248" lon="2.17779">
        <ele>104.5</ele>
        <time>2023-03-29T14:11:24Z</time>
      </trkpt>
      <trkpt lat="49.83248" lon="2.17779">
        <ele>104.5</ele>
        <time>2023-03-29T14:11:25Z</time>
      </trkpt>
      <trkpt lat="49.83248" lon="2.17779">
        <ele>104.5</ele>
        <time>2023-03-29T14:11:26Z</time>
      </trkpt>
      <trkpt lat="49.83248" lon="2.17779">
        <ele>104.5</ele>
        <time>2023-03-29T14:11:27Z</time>
      </trkpt>
      <trkpt lat="49.83248" lon="2.17779">
        <ele>104.5</ele>
        <time>2023-03-29T14:11:28Z</time>
      </trkpt>
      <trkpt lat="49.83248" lon="2.17779">
        <ele>104.5</ele>
        <time>2023-03-29T14:11:29Z</time>
      </trkpt>
      <trkpt lat="49.83248" lon="2.17779">
        <ele>104.5</ele>
        <time>2023-03-29T14:11:30Z</time>
      </trkpt>
      <trkpt lat="49.83248" lon="2.17779">
        <ele>104.5</ele>
        <time>2023-03-29T14:11:31Z</time>
      </trkpt>
      <trkpt lat="49.83248" lon="2.17779">
        <ele>104.5</ele>
        <time>2023-03-29T14:11:32Z</time>
      </trkpt>
      <trkpt lat="49.83248" lon="2.17779">
        <ele>104.5</ele>
        <time>2023-03-29T14:11:33Z</time>
      </trkpt>
      <trkpt lat="49.83248" lon="2.17779">
        <ele>104.5</ele>
        <time>2023-03-29T14:11:34Z</time>
      </trkpt>
      <trkpt lat="49.83248" lon="2.17779">
        <ele>104.5</ele>
        <time>2023-03-29T14:11:35Z</time>
      </trkpt>
      <trkpt lat="49.83248" lon="2.17779">
        <ele>104.5</ele>
        <time>2023-03-29T14:11:36Z</time>
      </trkpt>
      <trkpt lat="49.83248" lon="2.17779">
        <ele>104.5</ele>
        <time>2023-03-29T14:11:37Z</time>
      </trkpt>
      <trkpt lat="49.83248" lon="2.17779">
        <ele>104.5</ele>
        <time>2023-03-29T14:11:38Z</time>
      </trkpt>
      <trkpt lat="49.83248" lon="2.17779">
        <ele>104.5</ele>
        <time>2023-03-29T14:11:39Z</time>
      </trkpt>
      <trkpt lat="49.83248" lon="2.17779">
        <ele>104.5</ele>
        <time>2023-03-29T14:11:40Z</time>
      </trkpt>
      <trkpt lat="49.83248" lon="2.17779">
        <ele>104.5</ele>
        <time>2023-03-29T14:11:41Z</time>
      </trkpt>
      <trkpt lat="49.83248" lon="2.17779">
        <ele>104.5</ele>
        <time>2023-03-29T14:11:42Z</time>
      </trkpt>
      <trkpt lat="49.83248" lon="2.17779">
        <ele>104.5</ele>
        <time>2023-03-29T14:11:43Z</time>
      </trkpt>
      <trkpt lat="49.83248" lon="2.17779">
        <ele>104.5</ele>
        <time>2023-03-29T14:11:44Z</time>
      </trkpt>
      <trkpt lat="49.83248" lon="2.17779">
        <ele>104.5</ele>
        <time>2023-03-29T14:11:45Z</time>
      </trkpt>
      <trkpt lat="49.83248" lon="2.17779">
        <ele>104.5</ele>
        <time>2023-03-29T14:11:46Z</time>
      </trkpt>
      <trkpt lat="49.83248" lon="2.17779">
        <ele>104.5</ele>
        <time>2023-03-29T14:11:47Z</time>
      </trkpt>
      <trkpt lat="49.83248" lon="2.17779">
        <ele>104.5</ele>
        <time>2023-03-29T14:11:48Z</time>
      </trkpt>
      <trkpt lat="49.83248" lon="2.17779">
        <ele>104.5</ele>
        <time>2023-03-29T14:11:49Z</time>
      </trkpt>
      <trkpt lat="49.83248" lon="2.17779">
        <ele>104.5</ele>
        <time>2023-03-29T14:11:50Z</time>
      </trkpt>
      <trkpt lat="49.83248" lon="2.17779">
        <ele>104.5</ele>
        <time>2023-03-29T14:11:51Z</time>
      </trkpt>
      <trkpt lat="49.83248" lon="2.17779">
        <ele>104.5</ele>
        <time>2023-03-29T14:11:52Z</time>
      </trkpt>
      <trkpt lat="49.83248" lon="2.17779">
        <ele>104.5</ele>
        <time>2023-03-29T14:11:53Z</time>
      </trkpt>
      <trkpt lat="49.83248" lon="2.17779">
        <ele>104.5</ele>
        <time>2023-03-29T14:11:54Z</time>
      </trkpt>
      <trkpt lat="49.83248" lon="2.17779">
        <ele>104.5</ele>
        <time>2023-03-29T14:11:55Z</time>
      </trkpt>
      <trkpt lat="49.83248" lon="2.17779">
        <ele>104.5</ele>
        <time>2023-03-29T14:11:56Z</time>
      </trkpt>
      <trkpt lat="49.83248" lon="2.17779">
        <ele>104.5</ele>
        <time>2023-03-29T14:11:57Z</time>
      </trkpt>
      <trkpt lat="49.83248" lon="2.17779">
        <ele>104.5</ele>
        <time>2023-03-29T14:11:58Z</time>
      </trkpt>
      <trkpt lat="49.83248" lon="2.17779">
        <ele>104.5</ele>
        <time>2023-03-29T14:11:59Z</time>
      </trkpt>
      <trkpt lat="49.83248" lon="2.17779">
        <ele>104.5</ele>
        <time>2023-03-29T14:12:00Z</time>
      </trkpt>
      <trkpt lat="49.83248" lon="2.17779">
        <ele>104.5</ele>
        <time>2023-03-29T14:12:01Z</time>
      </trkpt>
      <trkpt lat="49.83248" lon="2.17779">
        <ele>104.5</ele>
        <time>2023-03-29T14:12:02Z</time>
      </trkpt>
      <trkpt lat="49.83248" lon="2.17779">
        <ele>104.5</ele>
        <time>2023-03-29T14:12:03Z</time>
      </trkpt>
      <trkpt lat="49.83248" lon="2.17779">
        <ele>104.5</ele>
        <time>2023-03-29T14:12:04Z</time>
      </trkpt>
      <trkpt lat="49.83248" lon="2.17779">
        <ele>104.5</ele>
        <time>2023-03-29T14:12:05Z</time>
      </trkpt>
      <trkpt lat="49.83248" lon="2.17779">
        <ele>104.5</ele>
        <time>2023-03-29T14:12:06Z</time>
      </trkpt>
      <trkpt lat="49.83248" lon="2.17779">
        <ele>104.5</ele>
        <time>2023-03-29T14:12:07Z</time>
      </trkpt>
      <trkpt lat="49.83248" lon="2.17779">
        <ele>104.5</ele>
        <time>2023-03-29T14:12:08Z</time>
      </trkpt>
      <trkpt lat="49.83248" lon="2.17779">
        <ele>104.5</ele>
        <time>2023-03-29T14:12:09Z</time>
      </trkpt>
      <trkpt lat="49.83248" lon="2.17779">
        <ele>104.5</ele>
        <time>2023-03-29T14:12:10Z</time>
      </trkpt>
      <trkpt lat="49.83248" lon="2.17779">
        <ele>104.5</ele>
        <time>2023-03-29T14:12:11Z</time>
      </trkpt>
      <trkpt lat="49.83248" lon="2.17779">
        <ele>104.5</ele>
        <time>2023-03-29T14:12:12Z</time>
      </trkpt>
      <trkpt lat="49.83248" lon="2.17779">
        <ele>104.5</ele>
        <time>2023-03-29T14:12:13Z</time>
      </trkpt>
      <trkpt lat="49.83248" lon="2.17779">
        <ele>104.5</ele>
        <time>2023-03-29T14:12:14Z</time>
      </trkpt>
      <trkpt lat="49.83248" lon="2.17779">
        <ele>104.5</ele>
        <time>2023-03-29T14:12:15Z</time>
      </trkpt>
      <trkpt lat="49.83248" lon="2.17779">
        <ele>104.5</ele>
        <time>2023-03-29T14:12:16Z</time>
      </trkpt>
      <trkpt lat="49.83248" lon="2.17779">
        <ele>104.5</ele>
        <time>2023-03-29T14:12:17Z</time>
      </trkpt>
      <trkpt lat="49.83248" lon="2.17779">
        <ele>104.5</ele>
        <time>2023-03-29T14:12:18Z</time>
      </trkpt>
      <trkpt lat="49.83248" lon="2.17779">
        <ele>104.5</ele>
        <time>2023-03-29T14:12:19Z</time>
      </trkpt>
      <trkpt lat="49.83248" lon="2.17779">
        <ele>104.5</ele>
        <time>2023-03-29T14:12:20Z</time>
      </trkpt>
      <trkpt lat="49.83248" lon="2.17779">
        <ele>104.5</ele>
        <time>2023-03-29T14:12:21Z</time>
      </trkpt>
      <trkpt lat="49.83248" lon="2.17779">
        <ele>104.5</ele>
        <time>2023-03-29T14:12:22Z</time>
      </trkpt>
      <trkpt lat="49.83248" lon="2.17779">
        <ele>104.5</ele>
        <time>2023-03-29T14:12:23Z</time>
      </trkpt>
      <trkpt lat="49.83248" lon="2.17779">
        <ele>104.5</ele>
        <time>2023-03-29T14:12:24Z</time>
      </trkpt>
      <trkpt lat="49.83248" lon="2.17779">
        <ele>104.5</ele>
        <time>2023-03-29T14:12:25Z</time>
      </trkpt>
      <trkpt lat="49.83248" lon="2.17779">
        <ele>104.5</ele>
        <time>2023-03-29T14:12:26Z</time>
      </trkpt>
      <trkpt lat="49.83248" lon="2.17779">
        <ele>104.5</ele>
        <time>2023-03-29T14:12:27Z</time>
      </trkpt>
      <trkpt lat="49.83248" lon="2.17779">
        <ele>104.5</ele>
        <time>2023-03-29T14:12:28Z</time>
      </trkpt>
      <trkpt lat="49.83248" lon="2.17779">
        <ele>104.5</ele>
        <time>2023-03-29T14:12:29Z</time>
      </trkpt>
      <trkpt lat="49.83248" lon="2.17779">
        <ele>104.5</ele>
        <time>2023-03-29T14:12:30Z</time>
      </trkpt>
      <trkpt lat="49.83248" lon="2.17779">
        <ele>104.5</ele>
        <time>2023-03-29T14:12:31Z</time>
      </trkpt>
      <trkpt lat="49.83248" lon="2.17779">
        <ele>104.5</ele>
        <time>2023-03-29T14:12:32Z</time>
      </trkpt>
      <trkpt lat="49.8325" lon="2.17778">
        <ele>104.5</ele>
        <time>2023-03-29T14:12:33Z</time>
      </trkpt>
      <trkpt lat="49.8325" lon="2.17778">
        <ele>104.5</ele>
        <time>2023-03-29T14:12:34Z</time>
      </trkpt>
      <trkpt lat="49.8325" lon="2.17777">
        <ele>104.5</ele>
        <time>2023-03-29T14:12:35Z</time>
      </trkpt>
      <trkpt lat="49.8325" lon="2.17777">
        <ele>104.5</ele>
        <time>2023-03-29T14:12:36Z</time>
      </trkpt>
      <trkpt lat="49.83249" lon="2.17776">
        <ele>104.5</ele>
        <time>2023-03-29T14:12:37Z</time>
      </trkpt>
      <trkpt lat="49.83249" lon="2.17775">
        <ele>104.6</ele>
        <time>2023-03-29T14:12:38Z</time>
      </trkpt>
      <trkpt lat="49.83248" lon="2.17774">
        <ele>104.6</ele>
        <time>2023-03-29T14:12:39Z</time>
      </trkpt>
      <trkpt lat="49.83248" lon="2.17773">
        <ele>104.7</ele>
        <time>2023-03-29T14:12:40Z</time>
      </trkpt>
      <trkpt lat="49.83248" lon="2.17772">
        <ele>104.7</ele>
        <time>2023-03-29T14:12:41Z</time>
      </trkpt>
      <trkpt lat="49.83247" lon="2.17771">
        <ele>104.8</ele>
        <time>2023-03-29T14:12:43Z</time>
      </trkpt>
      <trkpt lat="49.83245" lon="2.17769">
        <ele>104.9</ele>
        <time>2023-03-29T14:12:45Z</time>
      </trkpt>
      <trkpt lat="49.83244" lon="2.17769">
        <ele>105</ele>
        <time>2023-03-29T14:12:46Z</time>
      </trkpt>
      <trkpt lat="49.83244" lon="2.17768">
        <ele>105</ele>
        <time>2023-03-29T14:12:47Z</time>
      </trkpt>
      <trkpt lat="49.83243" lon="2.17767">
        <ele>105.1</ele>
        <time>2023-03-29T14:12:48Z</time>
      </trkpt>
      <trkpt lat="49.83243" lon="2.17767">
        <ele>105.1</ele>
        <time>2023-03-29T14:12:50Z</time>
      </trkpt>
      <trkpt lat="49.83242" lon="2.17767">
        <ele>105.1</ele>
        <time>2023-03-29T14:12:51Z</time>
      </trkpt>
      <trkpt lat="49.83242" lon="2.17767">
        <ele>105.1</ele>
        <time>2023-03-29T14:12:52Z</time>
      </trkpt>
      <trkpt lat="49.83242" lon="2.17767">
        <ele>105.1</ele>
        <time>2023-03-29T14:12:54Z</time>
      </trkpt>
      <trkpt lat="49.83242" lon="2.17767">
        <ele>105.1</ele>
        <time>2023-03-29T14:12:55Z</time>
      </trkpt>
      <trkpt lat="49.83242" lon="2.17767">
        <ele>105.1</ele>
        <time>2023-03-29T14:12:57Z</time>
      </trkpt>
      <trkpt lat="49.83243" lon="2.17767">
        <ele>105.1</ele>
        <time>2023-03-29T14:12:58Z</time>
      </trkpt>
      <trkpt lat="49.83243" lon="2.17767">
        <ele>105.1</ele>
        <time>2023-03-29T14:12:59Z</time>
      </trkpt>
      <trkpt lat="49.83243" lon="2.17766">
        <ele>105.1</ele>
        <time>2023-03-29T14:13:01Z</time>
      </trkpt>
      <trkpt lat="49.83243" lon="2.17766">
        <ele>105.1</ele>
        <time>2023-03-29T14:13:02Z</time>
      </trkpt>
      <trkpt lat="49.83242" lon="2.17766">
        <ele>105.1</ele>
        <time>2023-03-29T14:13:04Z</time>
      </trkpt>
      <trkpt lat="49.83242" lon="2.17766">
        <ele>105.1</ele>
        <time>2023-03-29T14:13:05Z</time>
      </trkpt>
      <trkpt lat="49.83242" lon="2.17765">
        <ele>105.1</ele>
        <time>2023-03-29T14:13:07Z</time>
      </trkpt>
      <trkpt lat="49.83242" lon="2.17764">
        <ele>105.1</ele>
        <time>2023-03-29T14:13:08Z</time>
      </trkpt>
      <trkpt lat="49.83242" lon="2.17763">
        <ele>105.1</ele>
        <time>2023-03-29T14:13:09Z</time>
      </trkpt>
      <trkpt lat="49.83242" lon="2.17761">
        <ele>105.8</ele>
        <time>2023-03-29T14:13:10Z</time>
      </trkpt>
      <trkpt lat="49.83241" lon="2.17759">
        <ele>105.8</ele>
        <time>2023-03-29T14:13:11Z</time>
      </trkpt>
      <trkpt lat="49.83241" lon="2.17758">
        <ele>105.8</ele>
        <time>2023-03-29T14:13:12Z</time>
      </trkpt>
      <trkpt lat="49.83241" lon="2.17755">
        <ele>105.7</ele>
        <time>2023-03-29T14:13:13Z</time>
      </trkpt>
      <trkpt lat="49.8324" lon="2.17753">
        <ele>105.7</ele>
        <time>2023-03-29T14:13:15Z</time>
      </trkpt>
      <trkpt lat="49.8324" lon="2.17752">
        <ele>105.7</ele>
        <time>2023-03-29T14:13:16Z</time>
      </trkpt>
      <trkpt lat="49.8324" lon="2.1775">
        <ele>105.7</ele>
        <time>2023-03-29T14:13:17Z</time>
      </trkpt>
      <trkpt lat="49.83239" lon="2.17746">
        <ele>105.6</ele>
        <time>2023-03-29T14:13:19Z</time>
      </trkpt>
      <trkpt lat="49.83238" lon="2.17744">
        <ele>105.6</ele>
        <time>2023-03-29T14:13:20Z</time>
      </trkpt>
      <trkpt lat="49.83238" lon="2.17742">
        <ele>105.5</ele>
        <time>2023-03-29T14:13:21Z</time>
      </trkpt>
      <trkpt lat="49.83237" lon="2.17738">
        <ele>105.5</ele>
        <time>2023-03-29T14:13:22Z</time>
      </trkpt>
      <trkpt lat="49.83236" lon="2.17736">
        <ele>105.5</ele>
        <time>2023-03-29T14:13:23Z</time>
      </trkpt>
      <trkpt lat="49.83236" lon="2.17734">
        <ele>105.4</ele>
        <time>2023-03-29T14:13:24Z</time>
      </trkpt>
      <trkpt lat="49.83235" lon="2.17731">
        <ele>105.4</ele>
        <time>2023-03-29T14:13:25Z</time>
      </trkpt>
      <trkpt lat="49.83234" lon="2.17727">
        <ele>105.4</ele>
        <time>2023-03-29T14:13:26Z</time>
      </trkpt>
      <trkpt lat="49.83234" lon="2.17725">
        <ele>105.4</ele>
        <time>2023-03-29T14:13:27Z</time>
      </trkpt>
      <trkpt lat="49.83234" lon="2.17723">
        <ele>105.4</ele>
        <time>2023-03-29T14:13:29Z</time>
      </trkpt>
      <trkpt lat="49.83233" lon="2.17721">
        <ele>105.3</ele>
        <time>2023-03-29T14:13:30Z</time>
      </trkpt>
      <trkpt lat="49.83233" lon="2.17718">
        <ele>105.3</ele>
        <time>2023-03-29T14:13:31Z</time>
      </trkpt>
      <trkpt lat="49.83233" lon="2.17716">
        <ele>105.3</ele>
        <time>2023-03-29T14:13:32Z</time>
      </trkpt>
      <trkpt lat="49.83233" lon="2.17713">
        <ele>105.3</ele>
        <time>2023-03-29T14:13:33Z</time>
      </trkpt>
      <trkpt lat="49.83233" lon="2.17711">
        <ele>105.3</ele>
        <time>2023-03-29T14:13:34Z</time>
      </trkpt>
      <trkpt lat="49.83233" lon="2.17706">
        <ele>105.3</ele>
        <time>2023-03-29T14:13:35Z</time>
      </trkpt>
      <trkpt lat="49.83233" lon="2.17704">
        <ele>105.3</ele>
        <time>2023-03-29T14:13:37Z</time>
      </trkpt>
      <trkpt lat="49.83233" lon="2.17702">
        <ele>105.3</ele>
        <time>2023-03-29T14:13:39Z</time>
      </trkpt>
      <trkpt lat="49.83233" lon="2.177">
        <ele>105.3</ele>
        <time>2023-03-29T14:13:40Z</time>
      </trkpt>
      <trkpt lat="49.83233" lon="2.17698">
        <ele>105.3</ele>
        <time>2023-03-29T14:13:41Z</time>
      </trkpt>
      <trkpt lat="49.83233" lon="2.17695">
        <ele>105.3</ele>
        <time>2023-03-29T14:13:42Z</time>
      </trkpt>
      <trkpt lat="49.83233" lon="2.17693">
        <ele>105.4</ele>
        <time>2023-03-29T14:13:43Z</time>
      </trkpt>
      <trkpt lat="49.83233" lon="2.17692">
        <ele>105.4</ele>
        <time>2023-03-29T14:13:44Z</time>
      </trkpt>
      <trkpt lat="49.83233" lon="2.1769">
        <ele>105.4</ele>
        <time>2023-03-29T14:13:46Z</time>
      </trkpt>
      <trkpt lat="49.83232" lon="2.17688">
        <ele>105.4</ele>
        <time>2023-03-29T14:13:47Z</time>
      </trkpt>
      <trkpt lat="49.83232" lon="2.17686">
        <ele>105.4</ele>
        <time>2023-03-29T14:13:48Z</time>
      </trkpt>
      <trkpt lat="49.83232" lon="2.17685">
        <ele>105.4</ele>
        <time>2023-03-29T14:13:49Z</time>
      </trkpt>
      <trkpt lat="49.83232" lon="2.17683">
        <ele>105.4</ele>
        <time>2023-03-29T14:13:50Z</time>
      </trkpt>
      <trkpt lat="49.83232" lon="2.17682">
        <ele>105.5</ele>
        <time>2023-03-29T14:13:51Z</time>
      </trkpt>
      <trkpt lat="49.83231" lon="2.1768">
        <ele>105.5</ele>
        <time>2023-03-29T14:13:52Z</time>
      </trkpt>
      <trkpt lat="49.83231" lon="2.17679">
        <ele>105.5</ele>
        <time>2023-03-29T14:13:53Z</time>
      </trkpt>
      <trkpt lat="49.83231" lon="2.17678">
        <ele>105.5</ele>
        <time>2023-03-29T14:13:54Z</time>
      </trkpt>
      <trkpt lat="49.8323" lon="2.17676">
        <ele>105.5</ele>
        <time>2023-03-29T14:13:56Z</time>
      </trkpt>
      <trkpt lat="49.8323" lon="2.17675">
        <ele>105.5</ele>
        <time>2023-03-29T14:13:57Z</time>
      </trkpt>
      <trkpt lat="49.83229" lon="2.17673">
        <ele>105.5</ele>
        <time>2023-03-29T14:13:58Z</time>
      </trkpt>
      <trkpt lat="49.83229" lon="2.17672">
        <ele>105.6</ele>
        <time>2023-03-29T14:13:59Z</time>
      </trkpt>
      <trkpt lat="49.83229" lon="2.1767">
        <ele>105.6</ele>
        <time>2023-03-29T14:14:00Z</time>
      </trkpt>
      <trkpt lat="49.83228" lon="2.17669">
        <ele>105.6</ele>
        <time>2023-03-29T14:14:01Z</time>
      </trkpt>
      <trkpt lat="49.83228" lon="2.17669">
        <ele>105.6</ele>
        <time>2023-03-29T14:14:02Z</time>
      </trkpt>
      <trkpt lat="49.83228" lon="2.17667">
        <ele>105.6</ele>
        <time>2023-03-29T14:14:04Z</time>
      </trkpt>
      <trkpt lat="49.83227" lon="2.17665">
        <ele>105.6</ele>
        <time>2023-03-29T14:14:05Z</time>
      </trkpt>
      <trkpt lat="49.83227" lon="2.17664">
        <ele>105.6</ele>
        <time>2023-03-29T14:14:06Z</time>
      </trkpt>
      <trkpt lat="49.83227" lon="2.17663">
        <ele>105.7</ele>
        <time>2023-03-29T14:14:07Z</time>
      </trkpt>
      <trkpt lat="49.83227" lon="2.17662">
        <ele>105.7</ele>
        <time>2023-03-29T14:14:08Z</time>
      </trkpt>
      <trkpt lat="49.83226" lon="2.17661">
        <ele>105.7</ele>
        <time>2023-03-29T14:14:10Z</time>
      </trkpt>
      <trkpt lat="49.83226" lon="2.1766">
        <ele>105.7</ele>
        <time>2023-03-29T14:14:11Z</time>
      </trkpt>
      <trkpt lat="49.83226" lon="2.17659">
        <ele>105.7</ele>
        <time>2023-03-29T14:14:12Z</time>
      </trkpt>
      <trkpt lat="49.83226" lon="2.17657">
        <ele>105.7</ele>
        <time>2023-03-29T14:14:13Z</time>
      </trkpt>
      <trkpt lat="49.83225" lon="2.17655">
        <ele>105.8</ele>
        <time>2023-03-29T14:14:14Z</time>
      </trkpt>
      <trkpt lat="49.83225" lon="2.17654">
        <ele>105.8</ele>
        <time>2023-03-29T14:14:15Z</time>
      </trkpt>
      <trkpt lat="49.83225" lon="2.17653">
        <ele>105.8</ele>
        <time>2023-03-29T14:14:17Z</time>
      </trkpt>
      <trkpt lat="49.83224" lon="2.1765">
        <ele>105.8</ele>
        <time>2023-03-29T14:14:18Z</time>
      </trkpt>
      <trkpt lat="49.83224" lon="2.17649">
        <ele>105.9</ele>
        <time>2023-03-29T14:14:19Z</time>
      </trkpt>
      <trkpt lat="49.83223" lon="2.17645">
        <ele>105.9</ele>
        <time>2023-03-29T14:14:20Z</time>
      </trkpt>
      <trkpt lat="49.83223" lon="2.17644">
        <ele>105.9</ele>
        <time>2023-03-29T14:14:21Z</time>
      </trkpt>
      <trkpt lat="49.83223" lon="2.17643">
        <ele>105.9</ele>
        <time>2023-03-29T14:14:22Z</time>
      </trkpt>
      <trkpt lat="49.83222" lon="2.17639">
        <ele>106.1</ele>
        <time>2023-03-29T14:14:23Z</time>
      </trkpt>
      <trkpt lat="49.83222" lon="2.17637">
        <ele>106.1</ele>
        <time>2023-03-29T14:14:25Z</time>
      </trkpt>
      <trkpt lat="49.83221" lon="2.17636">
        <ele>106.2</ele>
        <time>2023-03-29T14:14:26Z</time>
      </trkpt>
      <trkpt lat="49.83221" lon="2.17634">
        <ele>106.3</ele>
        <time>2023-03-29T14:14:27Z</time>
      </trkpt>
      <trkpt lat="49.83221" lon="2.17632">
        <ele>106.3</ele>
        <time>2023-03-29T14:14:28Z</time>
      </trkpt>
      <trkpt lat="49.8322" lon="2.17631">
        <ele>106.4</ele>
        <time>2023-03-29T14:14:29Z</time>
      </trkpt>
      <trkpt lat="49.8322" lon="2.17629">
        <ele>106.4</ele>
        <time>2023-03-29T14:14:31Z</time>
      </trkpt>
      <trkpt lat="49.8322" lon="2.17628">
        <ele>106.5</ele>
        <time>2023-03-29T14:14:32Z</time>
      </trkpt>
      <trkpt lat="49.83219" lon="2.17626">
        <ele>106.6</ele>
        <time>2023-03-29T14:14:33Z</time>
      </trkpt>
      <trkpt lat="49.83219" lon="2.17624">
        <ele>106.6</ele>
        <time>2023-03-29T14:14:34Z</time>
      </trkpt>
      <trkpt lat="49.83219" lon="2.17623">
        <ele>106.7</ele>
        <time>2023-03-29T14:14:35Z</time>
      </trkpt>
      <trkpt lat="49.83219" lon="2.17621">
        <ele>106.7</ele>
        <time>2023-03-29T14:14:36Z</time>
      </trkpt>
      <trkpt lat="49.83218" lon="2.17619">
        <ele>106.8</ele>
        <time>2023-03-29T14:14:37Z</time>
      </trkpt>
      <trkpt lat="49.83218" lon="2.17616">
        <ele>106.9</ele>
        <time>2023-03-29T14:14:39Z</time>
      </trkpt>
      <trkpt lat="49.83218" lon="2.17615">
        <ele>106.9</ele>
        <time>2023-03-29T14:14:40Z</time>
      </trkpt>
      <trkpt lat="49.83218" lon="2.17613">
        <ele>107</ele>
        <time>2023-03-29T14:14:41Z</time>
      </trkpt>
      <trkpt lat="49.83217" lon="2.17611">
        <ele>107</ele>
        <time>2023-03-29T14:14:42Z</time>
      </trkpt>
      <trkpt lat="49.83217" lon="2.1761">
        <ele>107.1</ele>
        <time>2023-03-29T14:14:43Z</time>
      </trkpt>
      <trkpt lat="49.83217" lon="2.17608">
        <ele>107.1</ele>
        <time>2023-03-29T14:14:45Z</time>
      </trkpt>
      <trkpt lat="49.83217" lon="2.17606">
        <ele>107.2</ele>
        <time>2023-03-29T14:14:46Z</time>
      </trkpt>
      <trkpt lat="49.83217" lon="2.17604">
        <ele>107.3</ele>
        <time>2023-03-29T14:14:47Z</time>
      </trkpt>
      <trkpt lat="49.83217" lon="2.17602">
        <ele>107.3</ele>
        <time>2023-03-29T14:14:48Z</time>
      </trkpt>
      <trkpt lat="49.83217" lon="2.176">
        <ele>107.4</ele>
        <time>2023-03-29T14:14:49Z</time>
      </trkpt>
      <trkpt lat="49.83216" lon="2.17598">
        <ele>107.5</ele>
        <time>2023-03-29T14:14:50Z</time>
      </trkpt>
      <trkpt lat="49.83216" lon="2.17596">
        <ele>107.5</ele>
        <time>2023-03-29T14:14:52Z</time>
      </trkpt>
      <trkpt lat="49.83216" lon="2.17595">
        <ele>107.6</ele>
        <time>2023-03-29T14:14:53Z</time>
      </trkpt>
      <trkpt lat="49.83216" lon="2.17593">
        <ele>107.6</ele>
        <time>2023-03-29T14:14:54Z</time>
      </trkpt>
      <trkpt lat="49.83215" lon="2.17591">
        <ele>107.6</ele>
        <time>2023-03-29T14:14:55Z</time>
      </trkpt>
      <trkpt lat="49.83215" lon="2.17589">
        <ele>107.7</ele>
        <time>2023-03-29T14:14:56Z</time>
      </trkpt>
      <trkpt lat="49.83215" lon="2.17588">
        <ele>107.8</ele>
        <time>2023-03-29T14:14:57Z</time>
      </trkpt>
      <trkpt lat="49.83215" lon="2.17586">
        <ele>107.8</ele>
        <time>2023-03-29T14:14:58Z</time>
      </trkpt>
      <trkpt lat="49.83215" lon="2.17585">
        <ele>107.8</ele>
        <time>2023-03-29T14:15:00Z</time>
      </trkpt>
      <trkpt lat="49.83214" lon="2.17583">
        <ele>107.9</ele>
        <time>2023-03-29T14:15:01Z</time>
      </trkpt>
      <trkpt lat="49.83214" lon="2.17581">
        <ele>107.9</ele>
        <time>2023-03-29T14:15:02Z</time>
      </trkpt>
      <trkpt lat="49.83214" lon="2.1758">
        <ele>108</ele>
        <time>2023-03-29T14:15:03Z</time>
      </trkpt>
      <trkpt lat="49.83213" lon="2.17578">
        <ele>108</ele>
        <time>2023-03-29T14:15:04Z</time>
      </trkpt>
      <trkpt lat="49.83213" lon="2.17576">
        <ele>108.1</ele>
        <time>2023-03-29T14:15:05Z</time>
      </trkpt>
      <trkpt lat="49.83213" lon="2.17573">
        <ele>108.2</ele>
        <time>2023-03-29T14:15:07Z</time>
      </trkpt>
      <trkpt lat="49.83213" lon="2.17572">
        <ele>108.2</ele>
        <time>2023-03-29T14:15:08Z</time>
      </trkpt>
      <trkpt lat="49.83212" lon="2.1757">
        <ele>108.3</ele>
        <time>2023-03-29T14:15:09Z</time>
      </trkpt>
      <trkpt lat="49.83212" lon="2.17567">
        <ele>108.3</ele>
        <time>2023-03-29T14:15:10Z</time>
      </trkpt>
      <trkpt lat="49.83211" lon="2.17564">
        <ele>108.5</ele>
        <time>2023-03-29T14:15:11Z</time>
      </trkpt>
      <trkpt lat="49.83211" lon="2.17562">
        <ele>108.5</ele>
        <time>2023-03-29T14:15:12Z</time>
      </trkpt>
      <trkpt lat="49.8321" lon="2.17559">
        <ele>108.6</ele>
        <time>2023-03-29T14:15:13Z</time>
      </trkpt>
      <trkpt lat="49.8321" lon="2.17557">
        <ele>108.7</ele>
        <time>2023-03-29T14:15:15Z</time>
      </trkpt>
      <trkpt lat="49.83209" lon="2.17554">
        <ele>108.7</ele>
        <time>2023-03-29T14:15:16Z</time>
      </trkpt>
      <trkpt lat="49.83208" lon="2.17552">
        <ele>108.8</ele>
        <time>2023-03-29T14:15:17Z</time>
      </trkpt>
      <trkpt lat="49.83208" lon="2.1755">
        <ele>108.9</ele>
        <time>2023-03-29T14:15:18Z</time>
      </trkpt>
      <trkpt lat="49.83208" lon="2.17547">
        <ele>109</ele>
        <time>2023-03-29T14:15:19Z</time>
      </trkpt>
      <trkpt lat="49.83207" lon="2.17544">
        <ele>109</ele>
        <time>2023-03-29T14:15:21Z</time>
      </trkpt>
      <trkpt lat="49.83207" lon="2.17543">
        <ele>109.1</ele>
        <time>2023-03-29T14:15:22Z</time>
      </trkpt>
      <trkpt lat="49.83207" lon="2.17539">
        <ele>109.2</ele>
        <time>2023-03-29T14:15:23Z</time>
      </trkpt>
      <trkpt lat="49.83206" lon="2.17538">
        <ele>109.2</ele>
        <time>2023-03-29T14:15:24Z</time>
      </trkpt>
      <trkpt lat="49.83206" lon="2.17536">
        <ele>109.3</ele>
        <time>2023-03-29T14:15:25Z</time>
      </trkpt>
      <trkpt lat="49.83206" lon="2.17534">
        <ele>109.4</ele>
        <time>2023-03-29T14:15:26Z</time>
      </trkpt>
      <trkpt lat="49.83206" lon="2.17532">
        <ele>109.4</ele>
        <time>2023-03-29T14:15:28Z</time>
      </trkpt>
      <trkpt lat="49.83206" lon="2.1753">
        <ele>109.4</ele>
        <time>2023-03-29T14:15:29Z</time>
      </trkpt>
      <trkpt lat="49.83205" lon="2.17529">
        <ele>109.5</ele>
        <time>2023-03-29T14:15:30Z</time>
      </trkpt>
      <trkpt lat="49.83205" lon="2.17527">
        <ele>109.6</ele>
        <time>2023-03-29T14:15:31Z</time>
      </trkpt>
      <trkpt lat="49.83205" lon="2.17524">
        <ele>109.6</ele>
        <time>2023-03-29T14:15:32Z</time>
      </trkpt>
      <trkpt lat="49.83204" lon="2.17523">
        <ele>109.7</ele>
        <time>2023-03-29T14:15:33Z</time>
      </trkpt>
      <trkpt lat="49.83204" lon="2.17521">
        <ele>109.7</ele>
        <time>2023-03-29T14:15:34Z</time>
      </trkpt>
      <trkpt lat="49.83204" lon="2.1752">
        <ele>109.8</ele>
        <time>2023-03-29T14:15:36Z</time>
      </trkpt>
      <trkpt lat="49.83204" lon="2.17519">
        <ele>109.8</ele>
        <time>2023-03-29T14:15:37Z</time>
      </trkpt>
      <trkpt lat="49.83203" lon="2.17517">
        <ele>109.8</ele>
        <time>2023-03-29T14:15:38Z</time>
      </trkpt>
      <trkpt lat="49.83203" lon="2.17514">
        <ele>109.9</ele>
        <time>2023-03-29T14:15:39Z</time>
      </trkpt>
      <trkpt lat="49.83203" lon="2.17513">
        <ele>110</ele>
        <time>2023-03-29T14:15:40Z</time>
      </trkpt>
      <trkpt lat="49.83203" lon="2.17511">
        <ele>110</ele>
        <time>2023-03-29T14:15:42Z</time>
      </trkpt>
      <trkpt lat="49.83202" lon="2.17509">
        <ele>110.1</ele>
        <time>2023-03-29T14:15:43Z</time>
      </trkpt>
      <trkpt lat="49.83202" lon="2.17507">
        <ele>110.1</ele>
        <time>2023-03-29T14:15:44Z</time>
      </trkpt>
      <trkpt lat="49.83202" lon="2.17505">
        <ele>110.2</ele>
        <time>2023-03-29T14:15:45Z</time>
      </trkpt>
      <trkpt lat="49.83202" lon="2.17503">
        <ele>110.3</ele>
        <time>2023-03-29T14:15:46Z</time>
      </trkpt>
      <trkpt lat="49.83202" lon="2.17501">
        <ele>110.3</ele>
        <time>2023-03-29T14:15:48Z</time>
      </trkpt>
      <trkpt lat="49.83202" lon="2.17498">
        <ele>110.4</ele>
        <time>2023-03-29T14:15:49Z</time>
      </trkpt>
      <trkpt lat="49.83202" lon="2.17497">
        <ele>110.4</ele>
        <time>2023-03-29T14:15:50Z</time>
      </trkpt>
      <trkpt lat="49.83202" lon="2.17495">
        <ele>110.5</ele>
        <time>2023-03-29T14:15:51Z</time>
      </trkpt>
      <trkpt lat="49.83202" lon="2.17493">
        <ele>110.5</ele>
        <time>2023-03-29T14:15:52Z</time>
      </trkpt>
      <trkpt lat="49.83201" lon="2.17493">
        <ele>110.5</ele>
        <time>2023-03-29T14:15:53Z</time>
      </trkpt>
      <trkpt lat="49.83201" lon="2.1749">
        <ele>110.6</ele>
        <time>2023-03-29T14:15:55Z</time>
      </trkpt>
      <trkpt lat="49.83201" lon="2.17489">
        <ele>110.7</ele>
        <time>2023-03-29T14:15:56Z</time>
      </trkpt>
      <trkpt lat="49.83201" lon="2.17487">
        <ele>110.7</ele>
        <time>2023-03-29T14:15:57Z</time>
      </trkpt>
      <trkpt lat="49.83201" lon="2.17486">
        <ele>110.7</ele>
        <time>2023-03-29T14:15:59Z</time>
      </trkpt>
      <trkpt lat="49.83201" lon="2.17485">
        <ele>110.8</ele>
        <time>2023-03-29T14:16:00Z</time>
      </trkpt>
      <trkpt lat="49.83201" lon="2.17485">
        <ele>110.8</ele>
        <time>2023-03-29T14:16:01Z</time>
      </trkpt>
      <trkpt lat="49.83201" lon="2.17484">
        <ele>110.8</ele>
        <time>2023-03-29T14:16:02Z</time>
      </trkpt>
      <trkpt lat="49.83201" lon="2.17483">
        <ele>110.8</ele>
        <time>2023-03-29T14:16:03Z</time>
      </trkpt>
      <trkpt lat="49.83201" lon="2.17482">
        <ele>110.9</ele>
        <time>2023-03-29T14:16:04Z</time>
      </trkpt>
      <trkpt lat="49.83201" lon="2.17481">
        <ele>110.9</ele>
        <time>2023-03-29T14:16:06Z</time>
      </trkpt>
      <trkpt lat="49.83201" lon="2.1748">
        <ele>110.9</ele>
        <time>2023-03-29T14:16:07Z</time>
      </trkpt>
      <trkpt lat="49.83201" lon="2.1748">
        <ele>110.9</ele>
        <time>2023-03-29T14:16:08Z</time>
      </trkpt>
      <trkpt lat="49.83201" lon="2.17479">
        <ele>111</ele>
        <time>2023-03-29T14:16:09Z</time>
      </trkpt>
      <trkpt lat="49.83202" lon="2.17478">
        <ele>111</ele>
        <time>2023-03-29T14:16:10Z</time>
      </trkpt>
      <trkpt lat="49.83202" lon="2.17477">
        <ele>111</ele>
        <time>2023-03-29T14:16:11Z</time>
      </trkpt>
      <trkpt lat="49.83203" lon="2.17477">
        <ele>111.1</ele>
        <time>2023-03-29T14:16:13Z</time>
      </trkpt>
      <trkpt lat="49.83204" lon="2.17476">
        <ele>111.2</ele>
        <time>2023-03-29T14:16:14Z</time>
      </trkpt>
      <trkpt lat="49.83205" lon="2.17475">
        <ele>111.2</ele>
        <time>2023-03-29T14:16:15Z</time>
      </trkpt>
      <trkpt lat="49.83206" lon="2.17475">
        <ele>111.3</ele>
        <time>2023-03-29T14:16:16Z</time>
      </trkpt>
      <trkpt lat="49.83207" lon="2.17474">
        <ele>111.4</ele>
        <time>2023-03-29T14:16:17Z</time>
      </trkpt>
      <trkpt lat="49.83208" lon="2.17474">
        <ele>111.5</ele>
        <time>2023-03-29T14:16:18Z</time>
      </trkpt>
      <trkpt lat="49.83209" lon="2.17473">
        <ele>111.6</ele>
        <time>2023-03-29T14:16:19Z</time>
      </trkpt>
      <trkpt lat="49.8321" lon="2.17472">
        <ele>111.7</ele>
        <time>2023-03-29T14:16:20Z</time>
      </trkpt>
      <trkpt lat="49.83212" lon="2.17471">
        <ele>111.8</ele>
        <time>2023-03-29T14:16:22Z</time>
      </trkpt>
      <trkpt lat="49.83213" lon="2.17469">
        <ele>111.9</ele>
        <time>2023-03-29T14:16:24Z</time>
      </trkpt>
      <trkpt lat="49.83214" lon="2.17468">
        <ele>112</ele>
        <time>2023-03-29T14:16:25Z</time>
      </trkpt>
      <trkpt lat="49.83215" lon="2.17467">
        <ele>112.1</ele>
        <time>2023-03-29T14:16:26Z</time>
      </trkpt>
      <trkpt lat="49.83215" lon="2.17466">
        <ele>112.2</ele>
        <time>2023-03-29T14:16:27Z</time>
      </trkpt>
      <trkpt lat="49.83217" lon="2.17464">
        <ele>112.3</ele>
        <time>2023-03-29T14:16:28Z</time>
      </trkpt>
      <trkpt lat="49.83217" lon="2.17463">
        <ele>112.4</ele>
        <time>2023-03-29T14:16:30Z</time>
      </trkpt>
      <trkpt lat="49.83218" lon="2.17462">
        <ele>112.4</ele>
        <time>2023-03-29T14:16:31Z</time>
      </trkpt>
      <trkpt lat="49.83219" lon="2.17461">
        <ele>112.5</ele>
        <time>2023-03-29T14:16:32Z</time>
      </trkpt>
      <trkpt lat="49.83219" lon="2.1746">
        <ele>112.6</ele>
        <time>2023-03-29T14:16:33Z</time>
      </trkpt>
      <trkpt lat="49.83221" lon="2.17459">
        <ele>112.7</ele>
        <time>2023-03-29T14:16:34Z</time>
      </trkpt>
      <trkpt lat="49.83222" lon="2.17457">
        <ele>112.8</ele>
        <time>2023-03-29T14:16:36Z</time>
      </trkpt>
      <trkpt lat="49.83222" lon="2.17457">
        <ele>112.9</ele>
        <time>2023-03-29T14:16:38Z</time>
      </trkpt>
      <trkpt lat="49.83222" lon="2.17457">
        <ele>112.9</ele>
        <time>2023-03-29T14:16:39Z</time>
      </trkpt>
      <trkpt lat="49.83222" lon="2.17456">
        <ele>112.9</ele>
        <time>2023-03-29T14:16:40Z</time>
      </trkpt>
      <trkpt lat="49.83223" lon="2.17455">
        <ele>113</ele>
        <time>2023-03-29T14:16:42Z</time>
      </trkpt>
      <trkpt lat="49.83223" lon="2.17455">
        <ele>113</ele>
        <time>2023-03-29T14:16:43Z</time>
      </trkpt>
      <trkpt lat="49.83224" lon="2.17454">
        <ele>113.1</ele>
        <time>2023-03-29T14:16:44Z</time>
      </trkpt>
      <trkpt lat="49.83224" lon="2.17454">
        <ele>113.1</ele>
        <time>2023-03-29T14:16:45Z</time>
      </trkpt>
      <trkpt lat="49.83224" lon="2.17453">
        <ele>113.1</ele>
        <time>2023-03-29T14:16:46Z</time>
      </trkpt>
      <trkpt lat="49.83224" lon="2.17453">
        <ele>113.1</ele>
        <time>2023-03-29T14:16:47Z</time>
      </trkpt>
      <trkpt lat="49.83224" lon="2.17453">
        <ele>113.2</ele>
        <time>2023-03-29T14:16:48Z</time>
      </trkpt>
      <trkpt lat="49.83225" lon="2.17452">
        <ele>113.2</ele>
        <time>2023-03-29T14:16:49Z</time>
      </trkpt>
      <trkpt lat="49.83226" lon="2.17451">
        <ele>113.3</ele>
        <time>2023-03-29T14:16:51Z</time>
      </trkpt>
      <trkpt lat="49.83226" lon="2.17451">
        <ele>113.3</ele>
        <time>2023-03-29T14:16:52Z</time>
      </trkpt>
      <trkpt lat="49.83226" lon="2.1745">
        <ele>113.4</ele>
        <time>2023-03-29T14:16:53Z</time>
      </trkpt>
      <trkpt lat="49.83226" lon="2.17449">
        <ele>113.4</ele>
        <time>2023-03-29T14:16:54Z</time>
      </trkpt>
      <trkpt lat="49.83226" lon="2.17448">
        <ele>113.5</ele>
        <time>2023-03-29T14:16:56Z</time>
      </trkpt>
      <trkpt lat="49.83227" lon="2.17447">
        <ele>113.5</ele>
        <time>2023-03-29T14:16:57Z</time>
      </trkpt>
      <trkpt lat="49.83227" lon="2.17447">
        <ele>113.6</ele>
        <time>2023-03-29T14:16:58Z</time>
      </trkpt>
      <trkpt lat="49.83228" lon="2.17446">
        <ele>113.6</ele>
        <time>2023-03-29T14:16:59Z</time>
      </trkpt>
      <trkpt lat="49.83228" lon="2.17444">
        <ele>113.7</ele>
        <time>2023-03-29T14:17:00Z</time>
      </trkpt>
      <trkpt lat="49.83229" lon="2.17443">
        <ele>113.8</ele>
        <time>2023-03-29T14:17:01Z</time>
      </trkpt>
      <trkpt lat="49.83231" lon="2.17441">
        <ele>114</ele>
        <time>2023-03-29T14:17:03Z</time>
      </trkpt>
      <trkpt lat="49.83231" lon="2.17441">
        <ele>114</ele>
        <time>2023-03-29T14:17:04Z</time>
      </trkpt>
      <trkpt lat="49.83232" lon="2.17441">
        <ele>114.1</ele>
        <time>2023-03-29T14:17:06Z</time>
      </trkpt>
      <trkpt lat="49.83233" lon="2.1744">
        <ele>114.1</ele>
        <time>2023-03-29T14:17:07Z</time>
      </trkpt>
      <trkpt lat="49.83234" lon="2.1744">
        <ele>114.2</ele>
        <time>2023-03-29T14:17:08Z</time>
      </trkpt>
      <trkpt lat="49.83235" lon="2.17438">
        <ele>114.4</ele>
        <time>2023-03-29T14:17:09Z</time>
      </trkpt>
      <trkpt lat="49.83236" lon="2.17438">
        <ele>114.5</ele>
        <time>2023-03-29T14:17:11Z</time>
      </trkpt>
      <trkpt lat="49.83238" lon="2.17437">
        <ele>114.6</ele>
        <time>2023-03-29T14:17:12Z</time>
      </trkpt>
      <trkpt lat="49.83239" lon="2.17436">
        <ele>114.7</ele>
        <time>2023-03-29T14:17:13Z</time>
      </trkpt>
      <trkpt lat="49.8324" lon="2.17435">
        <ele>114.7</ele>
        <time>2023-03-29T14:17:15Z</time>
      </trkpt>
      <trkpt lat="49.8324" lon="2.17435">
        <ele>114.8</ele>
        <time>2023-03-29T14:17:16Z</time>
      </trkpt>
      <trkpt lat="49.83241" lon="2.17434">
        <ele>114.8</ele>
        <time>2023-03-29T14:17:17Z</time>
      </trkpt>
      <trkpt lat="49.83242" lon="2.17434">
        <ele>114.9</ele>
        <time>2023-03-29T14:17:18Z</time>
      </trkpt>
      <trkpt lat="49.83243" lon="2.17433">
        <ele>115</ele>
        <time>2023-03-29T14:17:19Z</time>
      </trkpt>
      <trkpt lat="49.83243" lon="2.17433">
        <ele>115</ele>
        <time>2023-03-29T14:17:20Z</time>
      </trkpt>
      <trkpt lat="49.83244" lon="2.17432">
        <ele>115.1</ele>
        <time>2023-03-29T14:17:21Z</time>
      </trkpt>
      <trkpt lat="49.83245" lon="2.17432">
        <ele>115.1</ele>
        <time>2023-03-29T14:17:22Z</time>
      </trkpt>
      <trkpt lat="49.83246" lon="2.17432">
        <ele>115.2</ele>
        <time>2023-03-29T14:17:23Z</time>
      </trkpt>
      <trkpt lat="49.83246" lon="2.17432">
        <ele>115.2</ele>
        <time>2023-03-29T14:17:25Z</time>
      </trkpt>
      <trkpt lat="49.83247" lon="2.17432">
        <ele>115.2</ele>
        <time>2023-03-29T14:17:26Z</time>
      </trkpt>
      <trkpt lat="49.83247" lon="2.17432">
        <ele>115.3</ele>
        <time>2023-03-29T14:17:27Z</time>
      </trkpt>
      <trkpt lat="49.83248" lon="2.17431">
        <ele>115.3</ele>
        <time>2023-03-29T14:17:28Z</time>
      </trkpt>
      <trkpt lat="49.83248" lon="2.17431">
        <ele>115.4</ele>
        <time>2023-03-29T14:17:29Z</time>
      </trkpt>
      <trkpt lat="49.83249" lon="2.1743">
        <ele>115.4</ele>
        <time>2023-03-29T14:17:31Z</time>
      </trkpt>
      <trkpt lat="49.83249" lon="2.1743">
        <ele>115.4</ele>
        <time>2023-03-29T14:17:32Z</time>
      </trkpt>
      <trkpt lat="49.83249" lon="2.1743">
        <ele>115.4</ele>
        <time>2023-03-29T14:17:33Z</time>
      </trkpt>
      <trkpt lat="49.83249" lon="2.1743">
        <ele>115.4</ele>
        <time>2023-03-29T14:17:34Z</time>
      </trkpt>
      <trkpt lat="49.83249" lon="2.17429">
        <ele>115.4</ele>
        <time>2023-03-29T14:17:36Z</time>
      </trkpt>
      <trkpt lat="49.83249" lon="2.17429">
        <ele>115.4</ele>
        <time>2023-03-29T14:17:38Z</time>
      </trkpt>
      <trkpt lat="49.83249" lon="2.17429">
        <ele>115.4</ele>
        <time>2023-03-29T14:17:39Z</time>
      </trkpt>
      <trkpt lat="49.83249" lon="2.17429">
        <ele>115.5</ele>
        <time>2023-03-29T14:17:40Z</time>
      </trkpt>
      <trkpt lat="49.83249" lon="2.17428">
        <ele>115.5</ele>
        <time>2023-03-29T14:17:41Z</time>
      </trkpt>
      <trkpt lat="49.83249" lon="2.17428">
        <ele>115.5</ele>
        <time>2023-03-29T14:17:43Z</time>
      </trkpt>
      <trkpt lat="49.83249" lon="2.17428">
        <ele>115.5</ele>
        <time>2023-03-29T14:17:44Z</time>
      </trkpt>
      <trkpt lat="49.83249" lon="2.17428">
        <ele>115.5</ele>
        <time>2023-03-29T14:17:45Z</time>
      </trkpt>
      <trkpt lat="49.83249" lon="2.17428">
        <ele>115.5</ele>
        <time>2023-03-29T14:17:46Z</time>
      </trkpt>
      <trkpt lat="49.83249" lon="2.17427">
        <ele>115.5</ele>
        <time>2023-03-29T14:17:48Z</time>
      </trkpt>
      <trkpt lat="49.83248" lon="2.17427">
        <ele>115.5</ele>
        <time>2023-03-29T14:17:49Z</time>
      </trkpt>
      <trkpt lat="49.83248" lon="2.17427">
        <ele>115.5</ele>
        <time>2023-03-29T14:17:50Z</time>
      </trkpt>
      <trkpt lat="49.83248" lon="2.17427">
        <ele>115.5</ele>
        <time>2023-03-29T14:17:51Z</time>
      </trkpt>
      <trkpt lat="49.83248" lon="2.17427">
        <ele>115.5</ele>
        <time>2023-03-29T14:17:52Z</time>
      </trkpt>
      <trkpt lat="49.83248" lon="2.17426">
        <ele>115.6</ele>
        <time>2023-03-29T14:17:53Z</time>
      </trkpt>
      <trkpt lat="49.83248" lon="2.17426">
        <ele>115.6</ele>
        <time>2023-03-29T14:17:55Z</time>
      </trkpt>
      <trkpt lat="49.83248" lon="2.17426">
        <ele>115.6</ele>
        <time>2023-03-29T14:17:56Z</time>
      </trkpt>
      <trkpt lat="49.83248" lon="2.17426">
        <ele>115.6</ele>
        <time>2023-03-29T14:17:57Z</time>
      </trkpt>
      <trkpt lat="49.83248" lon="2.17425">
        <ele>115.6</ele>
        <time>2023-03-29T14:17:59Z</time>
      </trkpt>
      <trkpt lat="49.83248" lon="2.17425">
        <ele>115.6</ele>
        <time>2023-03-29T14:18:00Z</time>
      </trkpt>
      <trkpt lat="49.83248" lon="2.17424">
        <ele>115.7</ele>
        <time>2023-03-29T14:18:02Z</time>
      </trkpt>
      <trkpt lat="49.83249" lon="2.17421">
        <ele>115.8</ele>
        <time>2023-03-29T14:18:03Z</time>
      </trkpt>
      <trkpt lat="49.83251" lon="2.17416">
        <ele>116</ele>
        <time>2023-03-29T14:18:04Z</time>
      </trkpt>
      <trkpt lat="49.83252" lon="2.17413">
        <ele>116.1</ele>
        <time>2023-03-29T14:18:05Z</time>
      </trkpt>
      <trkpt lat="49.83254" lon="2.17409">
        <ele>116.3</ele>
        <time>2023-03-29T14:18:07Z</time>
      </trkpt>
      <trkpt lat="49.83255" lon="2.17406">
        <ele>116.4</ele>
        <time>2023-03-29T14:18:08Z</time>
      </trkpt>
      <trkpt lat="49.83258" lon="2.17401">
        <ele>116.6</ele>
        <time>2023-03-29T14:18:09Z</time>
      </trkpt>
      <trkpt lat="49.83259" lon="2.17398">
        <ele>116.7</ele>
        <time>2023-03-29T14:18:10Z</time>
      </trkpt>
      <trkpt lat="49.83261" lon="2.17394">
        <ele>116.8</ele>
        <time>2023-03-29T14:18:12Z</time>
      </trkpt>
      <trkpt lat="49.83262" lon="2.17391">
        <ele>116.9</ele>
        <time>2023-03-29T14:18:13Z</time>
      </trkpt>
      <trkpt lat="49.83264" lon="2.17388">
        <ele>117</ele>
        <time>2023-03-29T14:18:15Z</time>
      </trkpt>
      <trkpt lat="49.83264" lon="2.17387">
        <ele>117.1</ele>
        <time>2023-03-29T14:18:16Z</time>
      </trkpt>
      <trkpt lat="49.83266" lon="2.17382">
        <ele>117.2</ele>
        <time>2023-03-29T14:18:18Z</time>
      </trkpt>
      <trkpt lat="49.83267" lon="2.17381">
        <ele>117.2</ele>
        <time>2023-03-29T14:18:19Z</time>
      </trkpt>
      <trkpt lat="49.83268" lon="2.17377">
        <ele>117.3</ele>
        <time>2023-03-29T14:18:20Z</time>
      </trkpt>
      <trkpt lat="49.83268" lon="2.17376">
        <ele>117.3</ele>
        <time>2023-03-29T14:18:21Z</time>
      </trkpt>
      <trkpt lat="49.83269" lon="2.17374">
        <ele>117.4</ele>
        <time>2023-03-29T14:18:22Z</time>
      </trkpt>
      <trkpt lat="49.8327" lon="2.17372">
        <ele>117.4</ele>
        <time>2023-03-29T14:18:23Z</time>
      </trkpt>
      <trkpt lat="49.83271" lon="2.17369">
        <ele>117.5</ele>
        <time>2023-03-29T14:18:25Z</time>
      </trkpt>
      <trkpt lat="49.83272" lon="2.17367">
        <ele>117.5</ele>
        <time>2023-03-29T14:18:26Z</time>
      </trkpt>
      <trkpt lat="49.83273" lon="2.17363">
        <ele>117.6</ele>
        <time>2023-03-29T14:18:27Z</time>
      </trkpt>
      <trkpt lat="49.83274" lon="2.17362">
        <ele>117.7</ele>
        <time>2023-03-29T14:18:28Z</time>
      </trkpt>
      <trkpt lat="49.83275" lon="2.1736">
        <ele>117.7</ele>
        <time>2023-03-29T14:18:29Z</time>
      </trkpt>
      <trkpt lat="49.83276" lon="2.17358">
        <ele>117.8</ele>
        <time>2023-03-29T14:18:30Z</time>
      </trkpt>
      <trkpt lat="49.83278" lon="2.17355">
        <ele>117.9</ele>
        <time>2023-03-29T14:18:32Z</time>
      </trkpt>
      <trkpt lat="49.83279" lon="2.17353">
        <ele>117.9</ele>
        <time>2023-03-29T14:18:33Z</time>
      </trkpt>
      <trkpt lat="49.8328" lon="2.17351">
        <ele>118</ele>
        <time>2023-03-29T14:18:34Z</time>
      </trkpt>
      <trkpt lat="49.8328" lon="2.1735">
        <ele>118</ele>
        <time>2023-03-29T14:18:35Z</time>
      </trkpt>
      <trkpt lat="49.83281" lon="2.17349">
        <ele>118</ele>
        <time>2023-03-29T14:18:36Z</time>
      </trkpt>
      <trkpt lat="49.83282" lon="2.17345">
        <ele>118.1</ele>
        <time>2023-03-29T14:18:37Z</time>
      </trkpt>
      <trkpt lat="49.83282" lon="2.17344">
        <ele>118.1</ele>
        <time>2023-03-29T14:18:39Z</time>
      </trkpt>
      <trkpt lat="49.83283" lon="2.17342">
        <ele>118.1</ele>
        <time>2023-03-29T14:18:40Z</time>
      </trkpt>
      <trkpt lat="49.83284" lon="2.17339">
        <ele>121.6</ele>
        <time>2023-03-29T14:18:41Z</time>
      </trkpt>
      <trkpt lat="49.83284" lon="2.17338">
        <ele>121.7</ele>
        <time>2023-03-29T14:18:42Z</time>
      </trkpt>
      <trkpt lat="49.83285" lon="2.17337">
        <ele>121.8</ele>
        <time>2023-03-29T14:18:43Z</time>
      </trkpt>
      <trkpt lat="49.83286" lon="2.17335">
        <ele>121.9</ele>
        <time>2023-03-29T14:18:44Z</time>
      </trkpt>
      <trkpt lat="49.83286" lon="2.17333">
        <ele>122</ele>
        <time>2023-03-29T14:18:45Z</time>
      </trkpt>
      <trkpt lat="49.83287" lon="2.1733">
        <ele>122.2</ele>
        <time>2023-03-29T14:18:47Z</time>
      </trkpt>
      <trkpt lat="49.83287" lon="2.17329">
        <ele>122.3</ele>
        <time>2023-03-29T14:18:48Z</time>
      </trkpt>
      <trkpt lat="49.83288" lon="2.17328">
        <ele>122.4</ele>
        <time>2023-03-29T14:18:49Z</time>
      </trkpt>
      <trkpt lat="49.83288" lon="2.17325">
        <ele>122.5</ele>
        <time>2023-03-29T14:18:50Z</time>
      </trkpt>
      <trkpt lat="49.83288" lon="2.17323">
        <ele>122.6</ele>
        <time>2023-03-29T14:18:51Z</time>
      </trkpt>
      <trkpt lat="49.83288" lon="2.17321">
        <ele>122.7</ele>
        <time>2023-03-29T14:18:52Z</time>
      </trkpt>
      <trkpt lat="49.83289" lon="2.17318">
        <ele>122.9</ele>
        <time>2023-03-29T14:18:53Z</time>
      </trkpt>
      <trkpt lat="49.83289" lon="2.17316">
        <ele>123</ele>
        <time>2023-03-29T14:18:55Z</time>
      </trkpt>
      <trkpt lat="49.83288" lon="2.17313">
        <ele>123.2</ele>
        <time>2023-03-29T14:18:56Z</time>
      </trkpt>
      <trkpt lat="49.83289" lon="2.17309">
        <ele>123.4</ele>
        <time>2023-03-29T14:18:57Z</time>
      </trkpt>
      <trkpt lat="49.83289" lon="2.17307">
        <ele>123.5</ele>
        <time>2023-03-29T14:18:58Z</time>
      </trkpt>
      <trkpt lat="49.83288" lon="2.17303">
        <ele>123.7</ele>
        <time>2023-03-29T14:18:59Z</time>
      </trkpt>
      <trkpt lat="49.83288" lon="2.17301">
        <ele>123.8</ele>
        <time>2023-03-29T14:19:00Z</time>
      </trkpt>
      <trkpt lat="49.83288" lon="2.17298">
        <ele>124</ele>
        <time>2023-03-29T14:19:01Z</time>
      </trkpt>
      <trkpt lat="49.83288" lon="2.17296">
        <ele>124.1</ele>
        <time>2023-03-29T14:19:03Z</time>
      </trkpt>
      <trkpt lat="49.83287" lon="2.17294">
        <ele>124.2</ele>
        <time>2023-03-29T14:19:04Z</time>
      </trkpt>
      <trkpt lat="49.83287" lon="2.17293">
        <ele>124.3</ele>
        <time>2023-03-29T14:19:05Z</time>
      </trkpt>
      <trkpt lat="49.83286" lon="2.17291">
        <ele>124.4</ele>
        <time>2023-03-29T14:19:06Z</time>
      </trkpt>
      <trkpt lat="49.83286" lon="2.1729">
        <ele>124.5</ele>
        <time>2023-03-29T14:19:07Z</time>
      </trkpt>
      <trkpt lat="49.83286" lon="2.17288">
        <ele>124.6</ele>
        <time>2023-03-29T14:19:08Z</time>
      </trkpt>
      <trkpt lat="49.83286" lon="2.17286">
        <ele>124.7</ele>
        <time>2023-03-29T14:19:10Z</time>
      </trkpt>
      <trkpt lat="49.83286" lon="2.17282">
        <ele>124.9</ele>
        <time>2023-03-29T14:19:11Z</time>
      </trkpt>
      <trkpt lat="49.83286" lon="2.17281">
        <ele>125</ele>
        <time>2023-03-29T14:19:12Z</time>
      </trkpt>
      <trkpt lat="49.83286" lon="2.1728">
        <ele>125</ele>
        <time>2023-03-29T14:19:13Z</time>
      </trkpt>
      <trkpt lat="49.83286" lon="2.17276">
        <ele>125.2</ele>
        <time>2023-03-29T14:19:14Z</time>
      </trkpt>
      <trkpt lat="49.83287" lon="2.17275">
        <ele>125.3</ele>
        <time>2023-03-29T14:19:15Z</time>
      </trkpt>
      <trkpt lat="49.83287" lon="2.17273">
        <ele>125.4</ele>
        <time>2023-03-29T14:19:16Z</time>
      </trkpt>
      <trkpt lat="49.83287" lon="2.17272">
        <ele>125.5</ele>
        <time>2023-03-29T14:19:17Z</time>
      </trkpt>
      <trkpt lat="49.83287" lon="2.1727">
        <ele>125.6</ele>
        <time>2023-03-29T14:19:19Z</time>
      </trkpt>
      <trkpt lat="49.83287" lon="2.17268">
        <ele>125.7</ele>
        <time>2023-03-29T14:19:20Z</time>
      </trkpt>
      <trkpt lat="49.83287" lon="2.17265">
        <ele>125.9</ele>
        <time>2023-03-29T14:19:21Z</time>
      </trkpt>
      <trkpt lat="49.83287" lon="2.17264">
        <ele>125.9</ele>
        <time>2023-03-29T14:19:22Z</time>
      </trkpt>
      <trkpt lat="49.83287" lon="2.17263">
        <ele>126</ele>
        <time>2023-03-29T14:19:23Z</time>
      </trkpt>
      <trkpt lat="49.83287" lon="2.17261">
        <ele>126.1</ele>
        <time>2023-03-29T14:19:24Z</time>
      </trkpt>
      <trkpt lat="49.83287" lon="2.17259">
        <ele>126.2</ele>
        <time>2023-03-29T14:19:25Z</time>
      </trkpt>
      <trkpt lat="49.83287" lon="2.17257">
        <ele>126.3</ele>
        <time>2023-03-29T14:19:26Z</time>
      </trkpt>
      <trkpt lat="49.83288" lon="2.17256">
        <ele>126.3</ele>
        <time>2023-03-29T14:19:28Z</time>
      </trkpt>
      <trkpt lat="49.83288" lon="2.17254">
        <ele>126.4</ele>
        <time>2023-03-29T14:19:29Z</time>
      </trkpt>
      <trkpt lat="49.83288" lon="2.17253">
        <ele>126.5</ele>
        <time>2023-03-29T14:19:30Z</time>
      </trkpt>
      <trkpt lat="49.83288" lon="2.1725">
        <ele>126.7</ele>
        <time>2023-03-29T14:19:32Z</time>
      </trkpt>
      <trkpt lat="49.83288" lon="2.17249">
        <ele>126.7</ele>
        <time>2023-03-29T14:19:33Z</time>
      </trkpt>
      <trkpt lat="49.83288" lon="2.17248">
        <ele>126.8</ele>
        <time>2023-03-29T14:19:34Z</time>
      </trkpt>
      <trkpt lat="49.83288" lon="2.17246">
        <ele>126.9</ele>
        <time>2023-03-29T14:19:35Z</time>
      </trkpt>
      <trkpt lat="49.83288" lon="2.17244">
        <ele>127</ele>
        <time>2023-03-29T14:19:36Z</time>
      </trkpt>
      <trkpt lat="49.83288" lon="2.17243">
        <ele>127</ele>
        <time>2023-03-29T14:19:37Z</time>
      </trkpt>
      <trkpt lat="49.83288" lon="2.17241">
        <ele>127.1</ele>
        <time>2023-03-29T14:19:38Z</time>
      </trkpt>
      <trkpt lat="49.83288" lon="2.1724">
        <ele>127.2</ele>
        <time>2023-03-29T14:19:39Z</time>
      </trkpt>
      <trkpt lat="49.83288" lon="2.17238">
        <ele>127.3</ele>
        <time>2023-03-29T14:19:41Z</time>
      </trkpt>
      <trkpt lat="49.83288" lon="2.17236">
        <ele>127.4</ele>
        <time>2023-03-29T14:19:42Z</time>
      </trkpt>
      <trkpt lat="49.83288" lon="2.17233">
        <ele>127.6</ele>
        <time>2023-03-29T14:19:43Z</time>
      </trkpt>
      <trkpt lat="49.83288" lon="2.1723">
        <ele>127.7</ele>
        <time>2023-03-29T14:19:44Z</time>
      </trkpt>
      <trkpt lat="49.83289" lon="2.17228">
        <ele>127.8</ele>
        <time>2023-03-29T14:19:46Z</time>
      </trkpt>
      <trkpt lat="49.83289" lon="2.17226">
        <ele>127.9</ele>
        <time>2023-03-29T14:19:47Z</time>
      </trkpt>
      <trkpt lat="49.8329" lon="2.17224">
        <ele>128.1</ele>
        <time>2023-03-29T14:19:48Z</time>
      </trkpt>
      <trkpt lat="49.8329" lon="2.17222">
        <ele>128.2</ele>
        <time>2023-03-29T14:19:49Z</time>
      </trkpt>
      <trkpt lat="49.83291" lon="2.1722">
        <ele>128.3</ele>
        <time>2023-03-29T14:19:50Z</time>
      </trkpt>
      <trkpt lat="49.83291" lon="2.17218">
        <ele>128.4</ele>
        <time>2023-03-29T14:19:51Z</time>
      </trkpt>
      <trkpt lat="49.83291" lon="2.17216">
        <ele>128.5</ele>
        <time>2023-03-29T14:19:52Z</time>
      </trkpt>
      <trkpt lat="49.83292" lon="2.17212">
        <ele>128.7</ele>
        <time>2023-03-29T14:19:53Z</time>
      </trkpt>
      <trkpt lat="49.83292" lon="2.17211">
        <ele>128.8</ele>
        <time>2023-03-29T14:19:55Z</time>
      </trkpt>
      <trkpt lat="49.83292" lon="2.17209">
        <ele>128.9</ele>
        <time>2023-03-29T14:19:56Z</time>
      </trkpt>
      <trkpt lat="49.83292" lon="2.17208">
        <ele>128.9</ele>
        <time>2023-03-29T14:19:57Z</time>
      </trkpt>
      <trkpt lat="49.83292" lon="2.17206">
        <ele>128.8</ele>
        <time>2023-03-29T14:19:58Z</time>
      </trkpt>
      <trkpt lat="49.83292" lon="2.17204">
        <ele>128.6</ele>
        <time>2023-03-29T14:19:59Z</time>
      </trkpt>
      <trkpt lat="49.83292" lon="2.17203">
        <ele>128.5</ele>
        <time>2023-03-29T14:20:00Z</time>
      </trkpt>
      <trkpt lat="49.83292" lon="2.172">
        <ele>128.3</ele>
        <time>2023-03-29T14:20:01Z</time>
      </trkpt>
      <trkpt lat="49.83292" lon="2.17199">
        <ele>128.3</ele>
        <time>2023-03-29T14:20:03Z</time>
      </trkpt>
      <trkpt lat="49.83291" lon="2.17198">
        <ele>128.2</ele>
        <time>2023-03-29T14:20:04Z</time>
      </trkpt>
      <trkpt lat="49.83291" lon="2.17196">
        <ele>128.1</ele>
        <time>2023-03-29T14:20:05Z</time>
      </trkpt>
      <trkpt lat="49.83291" lon="2.17194">
        <ele>127.9</ele>
        <time>2023-03-29T14:20:06Z</time>
      </trkpt>
      <trkpt lat="49.83291" lon="2.17191">
        <ele>127.7</ele>
        <time>2023-03-29T14:20:07Z</time>
      </trkpt>
      <trkpt lat="49.83291" lon="2.17189">
        <ele>127.5</ele>
        <time>2023-03-29T14:20:08Z</time>
      </trkpt>
      <trkpt lat="49.83291" lon="2.17188">
        <ele>127.4</ele>
        <time>2023-03-29T14:20:09Z</time>
      </trkpt>
      <trkpt lat="49.83291" lon="2.17186">
        <ele>127.3</ele>
        <time>2023-03-29T14:20:10Z</time>
      </trkpt>
      <trkpt lat="49.83291" lon="2.17184">
        <ele>127.2</ele>
        <time>2023-03-29T14:20:12Z</time>
      </trkpt>
      <trkpt lat="49.8329" lon="2.17182">
        <ele>127.1</ele>
        <time>2023-03-29T14:20:13Z</time>
      </trkpt>
      <trkpt lat="49.8329" lon="2.17181">
        <ele>126.9</ele>
        <time>2023-03-29T14:20:14Z</time>
      </trkpt>
      <trkpt lat="49.8329" lon="2.17179">
        <ele>126.8</ele>
        <time>2023-03-29T14:20:15Z</time>
      </trkpt>
      <trkpt lat="49.8329" lon="2.17177">
        <ele>126.7</ele>
        <time>2023-03-29T14:20:16Z</time>
      </trkpt>
      <trkpt lat="49.8329" lon="2.17174">
        <ele>126.4</ele>
        <time>2023-03-29T14:20:17Z</time>
      </trkpt>
      <trkpt lat="49.8329" lon="2.17172">
        <ele>126.4</ele>
        <time>2023-03-29T14:20:18Z</time>
      </trkpt>
      <trkpt lat="49.8329" lon="2.17171">
        <ele>126.3</ele>
        <time>2023-03-29T14:20:19Z</time>
      </trkpt>
      <trkpt lat="49.83291" lon="2.17169">
        <ele>126.1</ele>
        <time>2023-03-29T14:20:21Z</time>
      </trkpt>
      <trkpt lat="49.8329" lon="2.17168">
        <ele>126</ele>
        <time>2023-03-29T14:20:22Z</time>
      </trkpt>
      <trkpt lat="49.8329" lon="2.17166">
        <ele>125.9</ele>
        <time>2023-03-29T14:20:23Z</time>
      </trkpt>
      <trkpt lat="49.83289" lon="2.17165">
        <ele>125.8</ele>
        <time>2023-03-29T14:20:24Z</time>
      </trkpt>
      <trkpt lat="49.83288" lon="2.17162">
        <ele>125.6</ele>
        <time>2023-03-29T14:20:25Z</time>
      </trkpt>
      <trkpt lat="49.83287" lon="2.17161">
        <ele>125.5</ele>
        <time>2023-03-29T14:20:26Z</time>
      </trkpt>
      <trkpt lat="49.83287" lon="2.1716">
        <ele>125.3</ele>
        <time>2023-03-29T14:20:27Z</time>
      </trkpt>
      <trkpt lat="49.83286" lon="2.17158">
        <ele>125.2</ele>
        <time>2023-03-29T14:20:28Z</time>
      </trkpt>
      <trkpt lat="49.83285" lon="2.17156">
        <ele>125</ele>
        <time>2023-03-29T14:20:30Z</time>
      </trkpt>
      <trkpt lat="49.83285" lon="2.17154">
        <ele>124.8</ele>
        <time>2023-03-29T14:20:31Z</time>
      </trkpt>
      <trkpt lat="49.83284" lon="2.17152">
        <ele>124.7</ele>
        <time>2023-03-29T14:20:32Z</time>
      </trkpt>
      <trkpt lat="49.83283" lon="2.1715">
        <ele>124.5</ele>
        <time>2023-03-29T14:20:33Z</time>
      </trkpt>
      <trkpt lat="49.83282" lon="2.17149">
        <ele>124.4</ele>
        <time>2023-03-29T14:20:34Z</time>
      </trkpt>
      <trkpt lat="49.83282" lon="2.17146">
        <ele>124.2</ele>
        <time>2023-03-29T14:20:35Z</time>
      </trkpt>
      <trkpt lat="49.83281" lon="2.17145">
        <ele>124.1</ele>
        <time>2023-03-29T14:20:36Z</time>
      </trkpt>
      <trkpt lat="49.8328" lon="2.17143">
        <ele>123.9</ele>
        <time>2023-03-29T14:20:37Z</time>
      </trkpt>
      <trkpt lat="49.8328" lon="2.17141">
        <ele>123.8</ele>
        <time>2023-03-29T14:20:39Z</time>
      </trkpt>
      <trkpt lat="49.83279" lon="2.1714">
        <ele>123.7</ele>
        <time>2023-03-29T14:20:40Z</time>
      </trkpt>
      <trkpt lat="49.83278" lon="2.17138">
        <ele>123.5</ele>
        <time>2023-03-29T14:20:41Z</time>
      </trkpt>
      <trkpt lat="49.83278" lon="2.17137">
        <ele>123.4</ele>
        <time>2023-03-29T14:20:42Z</time>
      </trkpt>
      <trkpt lat="49.83277" lon="2.17135">
        <ele>123.3</ele>
        <time>2023-03-29T14:20:43Z</time>
      </trkpt>
      <trkpt lat="49.83277" lon="2.17133">
        <ele>123.1</ele>
        <time>2023-03-29T14:20:44Z</time>
      </trkpt>
      <trkpt lat="49.83276" lon="2.1713">
        <ele>122.9</ele>
        <time>2023-03-29T14:20:45Z</time>
      </trkpt>
      <trkpt lat="49.83275" lon="2.17129">
        <ele>122.8</ele>
        <time>2023-03-29T14:20:47Z</time>
      </trkpt>
      <trkpt lat="49.83275" lon="2.17128">
        <ele>122.7</ele>
        <time>2023-03-29T14:20:48Z</time>
      </trkpt>
      <trkpt lat="49.83274" lon="2.17126">
        <ele>122.6</ele>
        <time>2023-03-29T14:20:49Z</time>
      </trkpt>
      <trkpt lat="49.83273" lon="2.17125">
        <ele>122.4</ele>
        <time>2023-03-29T14:20:50Z</time>
      </trkpt>
      <trkpt lat="49.83273" lon="2.17124">
        <ele>122.3</ele>
        <time>2023-03-29T14:20:51Z</time>
      </trkpt>
      <trkpt lat="49.83271" lon="2.17121">
        <ele>120.9</ele>
        <time>2023-03-29T14:20:53Z</time>
      </trkpt>
      <trkpt lat="49.83271" lon="2.1712">
        <ele>120.9</ele>
        <time>2023-03-29T14:20:54Z</time>
      </trkpt>
      <trkpt lat="49.8327" lon="2.17119">
        <ele>120.9</ele>
        <time>2023-03-29T14:20:55Z</time>
      </trkpt>
      <trkpt lat="49.83269" lon="2.17118">
        <ele>120.9</ele>
        <time>2023-03-29T14:20:56Z</time>
      </trkpt>
      <trkpt lat="49.83267" lon="2.17115">
        <ele>120.9</ele>
        <time>2023-03-29T14:20:58Z</time>
      </trkpt>
      <trkpt lat="49.83267" lon="2.17114">
        <ele>120.9</ele>
        <time>2023-03-29T14:20:59Z</time>
      </trkpt>
      <trkpt lat="49.83266" lon="2.17113">
        <ele>120.9</ele>
        <time>2023-03-29T14:21:01Z</time>
      </trkpt>
      <trkpt lat="49.83265" lon="2.17112">
        <ele>120.9</ele>
        <time>2023-03-29T14:21:02Z</time>
      </trkpt>
      <trkpt lat="49.83264" lon="2.1711">
        <ele>121</ele>
        <time>2023-03-29T14:21:03Z</time>
      </trkpt>
      <trkpt lat="49.83263" lon="2.17109">
        <ele>121</ele>
        <time>2023-03-29T14:21:04Z</time>
      </trkpt>
      <trkpt lat="49.83263" lon="2.17108">
        <ele>121</ele>
        <time>2023-03-29T14:21:05Z</time>
      </trkpt>
      <trkpt lat="49.83263" lon="2.17106">
        <ele>121</ele>
        <time>2023-03-29T14:21:06Z</time>
      </trkpt>
      <trkpt lat="49.83262" lon="2.17105">
        <ele>121</ele>
        <time>2023-03-29T14:21:07Z</time>
      </trkpt>
      <trkpt lat="49.83262" lon="2.17103">
        <ele>121</ele>
        <time>2023-03-29T14:21:09Z</time>
      </trkpt>
      <trkpt lat="49.83261" lon="2.17102">
        <ele>121</ele>
        <time>2023-03-29T14:21:10Z</time>
      </trkpt>
      <trkpt lat="49.83261" lon="2.171">
        <ele>121</ele>
        <time>2023-03-29T14:21:11Z</time>
      </trkpt>
      <trkpt lat="49.83261" lon="2.17098">
        <ele>121</ele>
        <time>2023-03-29T14:21:12Z</time>
      </trkpt>
      <trkpt lat="49.83261" lon="2.17096">
        <ele>121</ele>
        <time>2023-03-29T14:21:13Z</time>
      </trkpt>
      <trkpt lat="49.83261" lon="2.17094">
        <ele>121</ele>
        <time>2023-03-29T14:21:14Z</time>
      </trkpt>
      <trkpt lat="49.83261" lon="2.17091">
        <ele>121</ele>
        <time>2023-03-29T14:21:15Z</time>
      </trkpt>
      <trkpt lat="49.83261" lon="2.17087">
        <ele>121</ele>
        <time>2023-03-29T14:21:16Z</time>
      </trkpt>
      <trkpt lat="49.83261" lon="2.17086">
        <ele>121</ele>
        <time>2023-03-29T14:21:18Z</time>
      </trkpt>
      <trkpt lat="49.83261" lon="2.17084">
        <ele>121</ele>
        <time>2023-03-29T14:21:19Z</time>
      </trkpt>
      <trkpt lat="49.83261" lon="2.17082">
        <ele>121</ele>
        <time>2023-03-29T14:21:20Z</time>
      </trkpt>
      <trkpt lat="49.83261" lon="2.17081">
        <ele>121</ele>
        <time>2023-03-29T14:21:21Z</time>
      </trkpt>
      <trkpt lat="49.83261" lon="2.17079">
        <ele>121</ele>
        <time>2023-03-29T14:21:22Z</time>
      </trkpt>
      <trkpt lat="49.83261" lon="2.17076">
        <ele>121</ele>
        <time>2023-03-29T14:21:23Z</time>
      </trkpt>
      <trkpt lat="49.83261" lon="2.17074">
        <ele>121.1</ele>
        <time>2023-03-29T14:21:24Z</time>
      </trkpt>
      <trkpt lat="49.83261" lon="2.17071">
        <ele>121.1</ele>
        <time>2023-03-29T14:21:25Z</time>
      </trkpt>
      <trkpt lat="49.83261" lon="2.17069">
        <ele>121.1</ele>
        <time>2023-03-29T14:21:27Z</time>
      </trkpt>
      <trkpt lat="49.83262" lon="2.17066">
        <ele>121.1</ele>
        <time>2023-03-29T14:21:28Z</time>
      </trkpt>
      <trkpt lat="49.83262" lon="2.17065">
        <ele>121.1</ele>
        <time>2023-03-29T14:21:29Z</time>
      </trkpt>
      <trkpt lat="49.83264" lon="2.17062">
        <ele>121.1</ele>
        <time>2023-03-29T14:21:31Z</time>
      </trkpt>
      <trkpt lat="49.83265" lon="2.17061">
        <ele>121.1</ele>
        <time>2023-03-29T14:21:32Z</time>
      </trkpt>
      <trkpt lat="49.83266" lon="2.17059">
        <ele>121.1</ele>
        <time>2023-03-29T14:21:34Z</time>
      </trkpt>
      <trkpt lat="49.83267" lon="2.17058">
        <ele>121.1</ele>
        <time>2023-03-29T14:21:35Z</time>
      </trkpt>
      <trkpt lat="49.83268" lon="2.17058">
        <ele>121.1</ele>
        <time>2023-03-29T14:21:37Z</time>
      </trkpt>
      <trkpt lat="49.83268" lon="2.17058">
        <ele>121.1</ele>
        <time>2023-03-29T14:21:38Z</time>
      </trkpt>
      <trkpt lat="49.83268" lon="2.17058">
        <ele>121.1</ele>
        <time>2023-03-29T14:21:39Z</time>
      </trkpt>
      <trkpt lat="49.83268" lon="2.17058">
        <ele>121.1</ele>
        <time>2023-03-29T14:21:40Z</time>
      </trkpt>
      <trkpt lat="49.83269" lon="2.17057">
        <ele>121.1</ele>
        <time>2023-03-29T14:21:41Z</time>
      </trkpt>
      <trkpt lat="49.83269" lon="2.17057">
        <ele>121.1</ele>
        <time>2023-03-29T14:21:43Z</time>
      </trkpt>
      <trkpt lat="49.8327" lon="2.17056">
        <ele>121.1</ele>
        <time>2023-03-29T14:21:44Z</time>
      </trkpt>
      <trkpt lat="49.8327" lon="2.17056">
        <ele>121.1</ele>
        <time>2023-03-29T14:21:45Z</time>
      </trkpt>
      <trkpt lat="49.83271" lon="2.17055">
        <ele>121.1</ele>
        <time>2023-03-29T14:21:46Z</time>
      </trkpt>
      <trkpt lat="49.83271" lon="2.17054">
        <ele>121.1</ele>
        <time>2023-03-29T14:21:47Z</time>
      </trkpt>
      <trkpt lat="49.83271" lon="2.17054">
        <ele>121.1</ele>
        <time>2023-03-29T14:21:48Z</time>
      </trkpt>
      <trkpt lat="49.83271" lon="2.17053">
        <ele>121.1</ele>
        <time>2023-03-29T14:21:49Z</time>
      </trkpt>
      <trkpt lat="49.83271" lon="2.17052">
        <ele>121.1</ele>
        <time>2023-03-29T14:21:50Z</time>
      </trkpt>
      <trkpt lat="49.83271" lon="2.17053">
        <ele>121.1</ele>
        <time>2023-03-29T14:21:52Z</time>
      </trkpt>
      <trkpt lat="49.83271" lon="2.17053">
        <ele>121.1</ele>
        <time>2023-03-29T14:21:53Z</time>
      </trkpt>
      <trkpt lat="49.83272" lon="2.17053">
        <ele>121.1</ele>
        <time>2023-03-29T14:21:54Z</time>
      </trkpt>
      <trkpt lat="49.83271" lon="2.17052">
        <ele>121.1</ele>
        <time>2023-03-29T14:21:55Z</time>
      </trkpt>
      <trkpt lat="49.83271" lon="2.17052">
        <ele>121.1</ele>
        <time>2023-03-29T14:21:57Z</time>
      </trkpt>
      <trkpt lat="49.8327" lon="2.17051">
        <ele>121.1</ele>
        <time>2023-03-29T14:21:58Z</time>
      </trkpt>
      <trkpt lat="49.83269" lon="2.1705">
        <ele>121.1</ele>
        <time>2023-03-29T14:21:59Z</time>
      </trkpt>
      <trkpt lat="49.83268" lon="2.17049">
        <ele>121.1</ele>
        <time>2023-03-29T14:22:00Z</time>
      </trkpt>
      <trkpt lat="49.83268" lon="2.17048">
        <ele>121.2</ele>
        <time>2023-03-29T14:22:01Z</time>
      </trkpt>
      <trkpt lat="49.83267" lon="2.17046">
        <ele>121.2</ele>
        <time>2023-03-29T14:22:02Z</time>
      </trkpt>
      <trkpt lat="49.83267" lon="2.17045">
        <ele>121.2</ele>
        <time>2023-03-29T14:22:03Z</time>
      </trkpt>
      <trkpt lat="49.83267" lon="2.17043">
        <ele>121.2</ele>
        <time>2023-03-29T14:22:04Z</time>
      </trkpt>
      <trkpt lat="49.83267" lon="2.17041">
        <ele>121.2</ele>
        <time>2023-03-29T14:22:06Z</time>
      </trkpt>
      <trkpt lat="49.83267" lon="2.1704">
        <ele>121.2</ele>
        <time>2023-03-29T14:22:07Z</time>
      </trkpt>
      <trkpt lat="49.83267" lon="2.17038">
        <ele>121.2</ele>
        <time>2023-03-29T14:22:08Z</time>
      </trkpt>
      <trkpt lat="49.83267" lon="2.17037">
        <ele>121.2</ele>
        <time>2023-03-29T14:22:09Z</time>
      </trkpt>
      <trkpt lat="49.83267" lon="2.17036">
        <ele>121.2</ele>
        <time>2023-03-29T14:22:10Z</time>
      </trkpt>
      <trkpt lat="49.83266" lon="2.17034">
        <ele>121.2</ele>
        <time>2023-03-29T14:22:12Z</time>
      </trkpt>
      <trkpt lat="49.83265" lon="2.17033">
        <ele>121.2</ele>
        <time>2023-03-29T14:22:13Z</time>
      </trkpt>
      <trkpt lat="49.83264" lon="2.17031">
        <ele>121.2</ele>
        <time>2023-03-29T14:22:14Z</time>
      </trkpt>
      <trkpt lat="49.83263" lon="2.17028">
        <ele>121.3</ele>
        <time>2023-03-29T14:22:15Z</time>
      </trkpt>
      <trkpt lat="49.83262" lon="2.17026">
        <ele>121.3</ele>
        <time>2023-03-29T14:22:16Z</time>
      </trkpt>
      <trkpt lat="49.83261" lon="2.17023">
        <ele>121.3</ele>
        <time>2023-03-29T14:22:17Z</time>
      </trkpt>
      <trkpt lat="49.8326" lon="2.17019">
        <ele>121.3</ele>
        <time>2023-03-29T14:22:19Z</time>
      </trkpt>
      <trkpt lat="49.83259" lon="2.17017">
        <ele>121.3</ele>
        <time>2023-03-29T14:22:20Z</time>
      </trkpt>
      <trkpt lat="49.83258" lon="2.17014">
        <ele>121.3</ele>
        <time>2023-03-29T14:22:21Z</time>
      </trkpt>
      <trkpt lat="49.83258" lon="2.17013">
        <ele>121.3</ele>
        <time>2023-03-29T14:22:23Z</time>
      </trkpt>
      <trkpt lat="49.83258" lon="2.17012">
        <ele>121.3</ele>
        <time>2023-03-29T14:22:24Z</time>
      </trkpt>
      <trkpt lat="49.83257" lon="2.1701">
        <ele>121.3</ele>
        <time>2023-03-29T14:22:25Z</time>
      </trkpt>
      <trkpt lat="49.83256" lon="2.17008">
        <ele>121.3</ele>
        <time>2023-03-29T14:22:26Z</time>
      </trkpt>
      <trkpt lat="49.83256" lon="2.17007">
        <ele>121.3</ele>
        <time>2023-03-29T14:22:28Z</time>
      </trkpt>
      <trkpt lat="49.83255" lon="2.17006">
        <ele>121.3</ele>
        <time>2023-03-29T14:22:29Z</time>
      </trkpt>
      <trkpt lat="49.83255" lon="2.17006">
        <ele>121.3</ele>
        <time>2023-03-29T14:22:30Z</time>
      </trkpt>
      <trkpt lat="49.83255" lon="2.17004">
        <ele>121.3</ele>
        <time>2023-03-29T14:22:31Z</time>
      </trkpt>
      <trkpt lat="49.83254" lon="2.17003">
        <ele>121.3</ele>
        <time>2023-03-29T14:22:32Z</time>
      </trkpt>
      <trkpt lat="49.83254" lon="2.17002">
        <ele>121.3</ele>
        <time>2023-03-29T14:22:33Z</time>
      </trkpt>
      <trkpt lat="49.83253" lon="2.17">
        <ele>121.3</ele>
        <time>2023-03-29T14:22:34Z</time>
      </trkpt>
      <trkpt lat="49.83253" lon="2.16999">
        <ele>121.3</ele>
        <time>2023-03-29T14:22:35Z</time>
      </trkpt>
      <trkpt lat="49.83252" lon="2.16998">
        <ele>121.4</ele>
        <time>2023-03-29T14:22:37Z</time>
      </trkpt>
      <trkpt lat="49.83251" lon="2.16997">
        <ele>121.4</ele>
        <time>2023-03-29T14:22:38Z</time>
      </trkpt>
      <trkpt lat="49.83251" lon="2.16996">
        <ele>121.4</ele>
        <time>2023-03-29T14:22:39Z</time>
      </trkpt>
      <trkpt lat="49.83251" lon="2.16995">
        <ele>121.4</ele>
        <time>2023-03-29T14:22:41Z</time>
      </trkpt>
      <trkpt lat="49.8325" lon="2.16994">
        <ele>121.4</ele>
        <time>2023-03-29T14:22:42Z</time>
      </trkpt>
      <trkpt lat="49.8325" lon="2.16992">
        <ele>121.4</ele>
        <time>2023-03-29T14:22:43Z</time>
      </trkpt>
      <trkpt lat="49.83249" lon="2.1699">
        <ele>121.4</ele>
        <time>2023-03-29T14:22:44Z</time>
      </trkpt>
      <trkpt lat="49.83248" lon="2.16989">
        <ele>121.4</ele>
        <time>2023-03-29T14:22:46Z</time>
      </trkpt>
      <trkpt lat="49.83248" lon="2.16987">
        <ele>121.4</ele>
        <time>2023-03-29T14:22:47Z</time>
      </trkpt>
      <trkpt lat="49.83247" lon="2.16986">
        <ele>121.4</ele>
        <time>2023-03-29T14:22:48Z</time>
      </trkpt>
      <trkpt lat="49.83246" lon="2.16984">
        <ele>121.4</ele>
        <time>2023-03-29T14:22:49Z</time>
      </trkpt>
      <trkpt lat="49.83245" lon="2.16981">
        <ele>121.4</ele>
        <time>2023-03-29T14:22:50Z</time>
      </trkpt>
      <trkpt lat="49.83244" lon="2.16979">
        <ele>121.4</ele>
        <time>2023-03-29T14:22:51Z</time>
      </trkpt>
      <trkpt lat="49.83243" lon="2.16976">
        <ele>121.4</ele>
        <time>2023-03-29T14:22:52Z</time>
      </trkpt>
      <trkpt lat="49.83241" lon="2.16974">
        <ele>121.4</ele>
        <time>2023-03-29T14:22:54Z</time>
      </trkpt>
      <trkpt lat="49.83239" lon="2.1697">
        <ele>121.5</ele>
        <time>2023-03-29T14:22:55Z</time>
      </trkpt>
      <trkpt lat="49.83238" lon="2.16969">
        <ele>121.5</ele>
        <time>2023-03-29T14:22:56Z</time>
      </trkpt>
      <trkpt lat="49.83237" lon="2.16966">
        <ele>121.5</ele>
        <time>2023-03-29T14:22:57Z</time>
      </trkpt>
      <trkpt lat="49.83236" lon="2.16964">
        <ele>121.5</ele>
        <time>2023-03-29T14:22:58Z</time>
      </trkpt>
      <trkpt lat="49.83235" lon="2.16963">
        <ele>121.5</ele>
        <time>2023-03-29T14:22:59Z</time>
      </trkpt>
      <trkpt lat="49.83234" lon="2.16961">
        <ele>121.5</ele>
        <time>2023-03-29T14:23:00Z</time>
      </trkpt>
      <trkpt lat="49.83232" lon="2.16957">
        <ele>121.6</ele>
        <time>2023-03-29T14:23:01Z</time>
      </trkpt>
      <trkpt lat="49.83232" lon="2.16956">
        <ele>121.6</ele>
        <time>2023-03-29T14:23:03Z</time>
      </trkpt>
      <trkpt lat="49.83231" lon="2.16954">
        <ele>121.6</ele>
        <time>2023-03-29T14:23:04Z</time>
      </trkpt>
      <trkpt lat="49.8323" lon="2.16952">
        <ele>121.6</ele>
        <time>2023-03-29T14:23:05Z</time>
      </trkpt>
      <trkpt lat="49.83229" lon="2.1695">
        <ele>121.6</ele>
        <time>2023-03-29T14:23:06Z</time>
      </trkpt>
      <trkpt lat="49.83228" lon="2.16949">
        <ele>121.6</ele>
        <time>2023-03-29T14:23:07Z</time>
      </trkpt>
      <trkpt lat="49.83227" lon="2.16947">
        <ele>121.6</ele>
        <time>2023-03-29T14:23:08Z</time>
      </trkpt>
      <trkpt lat="49.83226" lon="2.16945">
        <ele>121.6</ele>
        <time>2023-03-29T14:23:10Z</time>
      </trkpt>
      <trkpt lat="49.83226" lon="2.16943">
        <ele>121.7</ele>
        <time>2023-03-29T14:23:11Z</time>
      </trkpt>
      <trkpt lat="49.83225" lon="2.16941">
        <ele>121.7</ele>
        <time>2023-03-29T14:23:12Z</time>
      </trkpt>
      <trkpt lat="49.83224" lon="2.16938">
        <ele>121.7</ele>
        <time>2023-03-29T14:23:13Z</time>
      </trkpt>
      <trkpt lat="49.83224" lon="2.16937">
        <ele>121.7</ele>
        <time>2023-03-29T14:23:14Z</time>
      </trkpt>
      <trkpt lat="49.83223" lon="2.16936">
        <ele>121.7</ele>
        <time>2023-03-29T14:23:15Z</time>
      </trkpt>
      <trkpt lat="49.83223" lon="2.16935">
        <ele>121.7</ele>
        <time>2023-03-29T14:23:16Z</time>
      </trkpt>
      <trkpt lat="49.83222" lon="2.16933">
        <ele>121.7</ele>
        <time>2023-03-29T14:23:18Z</time>
      </trkpt>
      <trkpt lat="49.83222" lon="2.16932">
        <ele>121.7</ele>
        <time>2023-03-29T14:23:19Z</time>
      </trkpt>
      <trkpt lat="49.83221" lon="2.1693">
        <ele>121.7</ele>
        <time>2023-03-29T14:23:20Z</time>
      </trkpt>
      <trkpt lat="49.8322" lon="2.16928">
        <ele>121.7</ele>
        <time>2023-03-29T14:23:21Z</time>
      </trkpt>
      <trkpt lat="49.83219" lon="2.16926">
        <ele>121.7</ele>
        <time>2023-03-29T14:23:22Z</time>
      </trkpt>
      <trkpt lat="49.83218" lon="2.16924">
        <ele>121.8</ele>
        <time>2023-03-29T14:23:24Z</time>
      </trkpt>
      <trkpt lat="49.83217" lon="2.16923">
        <ele>121.8</ele>
        <time>2023-03-29T14:23:25Z</time>
      </trkpt>
      <trkpt lat="49.83216" lon="2.16922">
        <ele>121.8</ele>
        <time>2023-03-29T14:23:27Z</time>
      </trkpt>
      <trkpt lat="49.83216" lon="2.1692">
        <ele>121.8</ele>
        <time>2023-03-29T14:23:28Z</time>
      </trkpt>
      <trkpt lat="49.83214" lon="2.16918">
        <ele>121.8</ele>
        <time>2023-03-29T14:23:29Z</time>
      </trkpt>
      <trkpt lat="49.83214" lon="2.16917">
        <ele>121.8</ele>
        <time>2023-03-29T14:23:30Z</time>
      </trkpt>
      <trkpt lat="49.83213" lon="2.16916">
        <ele>121.8</ele>
        <time>2023-03-29T14:23:31Z</time>
      </trkpt>
      <trkpt lat="49.83212" lon="2.16914">
        <ele>121.8</ele>
        <time>2023-03-29T14:23:32Z</time>
      </trkpt>
      <trkpt lat="49.83212" lon="2.16912">
        <ele>121.8</ele>
        <time>2023-03-29T14:23:33Z</time>
      </trkpt>
      <trkpt lat="49.83211" lon="2.16911">
        <ele>121.8</ele>
        <time>2023-03-29T14:23:35Z</time>
      </trkpt>
      <trkpt lat="49.83211" lon="2.1691">
        <ele>121.8</ele>
        <time>2023-03-29T14:23:36Z</time>
      </trkpt>
      <trkpt lat="49.8321" lon="2.16909">
        <ele>121.8</ele>
        <time>2023-03-29T14:23:37Z</time>
      </trkpt>
      <trkpt lat="49.8321" lon="2.16907">
        <ele>121.8</ele>
        <time>2023-03-29T14:23:38Z</time>
      </trkpt>
      <trkpt lat="49.83209" lon="2.16904">
        <ele>121.9</ele>
        <time>2023-03-29T14:23:40Z</time>
      </trkpt>
      <trkpt lat="49.83208" lon="2.16903">
        <ele>121.9</ele>
        <time>2023-03-29T14:23:41Z</time>
      </trkpt>
      <trkpt lat="49.83208" lon="2.16902">
        <ele>121.9</ele>
        <time>2023-03-29T14:23:42Z</time>
      </trkpt>
      <trkpt lat="49.83208" lon="2.169">
        <ele>121.9</ele>
        <time>2023-03-29T14:23:43Z</time>
      </trkpt>
      <trkpt lat="49.83207" lon="2.16898">
        <ele>121.9</ele>
        <time>2023-03-29T14:23:44Z</time>
      </trkpt>
      <trkpt lat="49.83207" lon="2.16897">
        <ele>121.9</ele>
        <time>2023-03-29T14:23:45Z</time>
      </trkpt>
      <trkpt lat="49.83207" lon="2.16896">
        <ele>121.9</ele>
        <time>2023-03-29T14:23:46Z</time>
      </trkpt>
      <trkpt lat="49.83207" lon="2.16894">
        <ele>121.9</ele>
        <time>2023-03-29T14:23:47Z</time>
      </trkpt>
      <trkpt lat="49.83206" lon="2.16893">
        <ele>121.9</ele>
        <time>2023-03-29T14:23:49Z</time>
      </trkpt>
      <trkpt lat="49.83206" lon="2.16891">
        <ele>121.9</ele>
        <time>2023-03-29T14:23:50Z</time>
      </trkpt>
      <trkpt lat="49.83206" lon="2.1689">
        <ele>121.9</ele>
        <time>2023-03-29T14:23:51Z</time>
      </trkpt>
      <trkpt lat="49.83206" lon="2.16888">
        <ele>121.9</ele>
        <time>2023-03-29T14:23:52Z</time>
      </trkpt>
      <trkpt lat="49.83206" lon="2.16885">
        <ele>121.9</ele>
        <time>2023-03-29T14:23:53Z</time>
      </trkpt>
      <trkpt lat="49.83205" lon="2.16882">
        <ele>121.9</ele>
        <time>2023-03-29T14:23:55Z</time>
      </trkpt>
      <trkpt lat="49.83205" lon="2.16881">
        <ele>121.9</ele>
        <time>2023-03-29T14:23:56Z</time>
      </trkpt>
      <trkpt lat="49.83205" lon="2.1688">
        <ele>121.9</ele>
        <time>2023-03-29T14:23:57Z</time>
      </trkpt>
      <trkpt lat="49.83205" lon="2.16878">
        <ele>121.9</ele>
        <time>2023-03-29T14:23:58Z</time>
      </trkpt>
      <trkpt lat="49.83204" lon="2.16875">
        <ele>121.9</ele>
        <time>2023-03-29T14:23:59Z</time>
      </trkpt>
      <trkpt lat="49.83203" lon="2.16874">
        <ele>121.9</ele>
        <time>2023-03-29T14:24:00Z</time>
      </trkpt>
      <trkpt lat="49.83203" lon="2.16873">
        <ele>121.9</ele>
        <time>2023-03-29T14:24:01Z</time>
      </trkpt>
      <trkpt lat="49.83203" lon="2.16871">
        <ele>121.9</ele>
        <time>2023-03-29T14:24:02Z</time>
      </trkpt>
      <trkpt lat="49.83202" lon="2.16869">
        <ele>121.9</ele>
        <time>2023-03-29T14:24:03Z</time>
      </trkpt>
      <trkpt lat="49.83201" lon="2.16866">
        <ele>121.9</ele>
        <time>2023-03-29T14:24:04Z</time>
      </trkpt>
      <trkpt lat="49.83201" lon="2.16865">
        <ele>121.9</ele>
        <time>2023-03-29T14:24:06Z</time>
      </trkpt>
      <trkpt lat="49.832" lon="2.16864">
        <ele>121.9</ele>
        <time>2023-03-29T14:24:07Z</time>
      </trkpt>
      <trkpt lat="49.832" lon="2.1686">
        <ele>121.9</ele>
        <time>2023-03-29T14:24:08Z</time>
      </trkpt>
      <trkpt lat="49.83199" lon="2.16859">
        <ele>121.9</ele>
        <time>2023-03-29T14:24:09Z</time>
      </trkpt>
      <trkpt lat="49.83199" lon="2.16857">
        <ele>121.9</ele>
        <time>2023-03-29T14:24:10Z</time>
      </trkpt>
      <trkpt lat="49.83198" lon="2.16855">
        <ele>121.9</ele>
        <time>2023-03-29T14:24:11Z</time>
      </trkpt>
      <trkpt lat="49.83197" lon="2.16853">
        <ele>121.9</ele>
        <time>2023-03-29T14:24:12Z</time>
      </trkpt>
      <trkpt lat="49.83196" lon="2.1685">
        <ele>121.9</ele>
        <time>2023-03-29T14:24:13Z</time>
      </trkpt>
      <trkpt lat="49.83196" lon="2.16848">
        <ele>121.9</ele>
        <time>2023-03-29T14:24:15Z</time>
      </trkpt>
      <trkpt lat="49.83195" lon="2.16847">
        <ele>121.9</ele>
        <time>2023-03-29T14:24:16Z</time>
      </trkpt>
      <trkpt lat="49.83194" lon="2.16845">
        <ele>121.9</ele>
        <time>2023-03-29T14:24:17Z</time>
      </trkpt>
      <trkpt lat="49.83193" lon="2.16843">
        <ele>121.9</ele>
        <time>2023-03-29T14:24:18Z</time>
      </trkpt>
      <trkpt lat="49.83193" lon="2.16841">
        <ele>121.9</ele>
        <time>2023-03-29T14:24:19Z</time>
      </trkpt>
      <trkpt lat="49.83191" lon="2.16838">
        <ele>121.9</ele>
        <time>2023-03-29T14:24:20Z</time>
      </trkpt>
      <trkpt lat="49.83191" lon="2.16837">
        <ele>121.9</ele>
        <time>2023-03-29T14:24:21Z</time>
      </trkpt>
      <trkpt lat="49.8319" lon="2.16836">
        <ele>121.8</ele>
        <time>2023-03-29T14:24:22Z</time>
      </trkpt>
      <trkpt lat="49.83189" lon="2.16834">
        <ele>121.8</ele>
        <time>2023-03-29T14:24:23Z</time>
      </trkpt>
      <trkpt lat="49.83189" lon="2.16833">
        <ele>121.8</ele>
        <time>2023-03-29T14:24:25Z</time>
      </trkpt>
      <trkpt lat="49.83188" lon="2.16832">
        <ele>121.8</ele>
        <time>2023-03-29T14:24:26Z</time>
      </trkpt>
      <trkpt lat="49.83187" lon="2.1683">
        <ele>121.8</ele>
        <time>2023-03-29T14:24:27Z</time>
      </trkpt>
      <trkpt lat="49.83187" lon="2.16829">
        <ele>121.9</ele>
        <time>2023-03-29T14:24:28Z</time>
      </trkpt>
      <trkpt lat="49.83186" lon="2.16828">
        <ele>121.9</ele>
        <time>2023-03-29T14:24:29Z</time>
      </trkpt>
      <trkpt lat="49.83185" lon="2.16825">
        <ele>121.9</ele>
        <time>2023-03-29T14:24:30Z</time>
      </trkpt>
      <trkpt lat="49.83184" lon="2.16824">
        <ele>121.9</ele>
        <time>2023-03-29T14:24:31Z</time>
      </trkpt>
      <trkpt lat="49.83184" lon="2.16823">
        <ele>121.9</ele>
        <time>2023-03-29T14:24:32Z</time>
      </trkpt>
      <trkpt lat="49.83183" lon="2.16822">
        <ele>121.9</ele>
        <time>2023-03-29T14:24:33Z</time>
      </trkpt>
      <trkpt lat="49.83183" lon="2.16821">
        <ele>121.9</ele>
        <time>2023-03-29T14:24:34Z</time>
      </trkpt>
      <trkpt lat="49.83182" lon="2.16819">
        <ele>122</ele>
        <time>2023-03-29T14:24:36Z</time>
      </trkpt>
      <trkpt lat="49.83182" lon="2.16818">
        <ele>122</ele>
        <time>2023-03-29T14:24:37Z</time>
      </trkpt>
      <trkpt lat="49.83181" lon="2.16817">
        <ele>122</ele>
        <time>2023-03-29T14:24:38Z</time>
      </trkpt>
      <trkpt lat="49.8318" lon="2.16815">
        <ele>122</ele>
        <time>2023-03-29T14:24:39Z</time>
      </trkpt>
      <trkpt lat="49.83179" lon="2.16813">
        <ele>122</ele>
        <time>2023-03-29T14:24:40Z</time>
      </trkpt>
      <trkpt lat="49.83179" lon="2.16811">
        <ele>122</ele>
        <time>2023-03-29T14:24:41Z</time>
      </trkpt>
      <trkpt lat="49.83178" lon="2.1681">
        <ele>122</ele>
        <time>2023-03-29T14:24:42Z</time>
      </trkpt>
      <trkpt lat="49.83178" lon="2.16808">
        <ele>122</ele>
        <time>2023-03-29T14:24:43Z</time>
      </trkpt>
      <trkpt lat="49.83177" lon="2.16807">
        <ele>122.1</ele>
        <time>2023-03-29T14:24:45Z</time>
      </trkpt>
      <trkpt lat="49.83177" lon="2.16805">
        <ele>122.1</ele>
        <time>2023-03-29T14:24:46Z</time>
      </trkpt>
      <trkpt lat="49.83176" lon="2.16804">
        <ele>122.1</ele>
        <time>2023-03-29T14:24:47Z</time>
      </trkpt>
      <trkpt lat="49.83175" lon="2.16801">
        <ele>122.1</ele>
        <time>2023-03-29T14:24:48Z</time>
      </trkpt>
      <trkpt lat="49.83174" lon="2.168">
        <ele>122.1</ele>
        <time>2023-03-29T14:24:49Z</time>
      </trkpt>
      <trkpt lat="49.83174" lon="2.16799">
        <ele>122.1</ele>
        <time>2023-03-29T14:24:50Z</time>
      </trkpt>
      <trkpt lat="49.83173" lon="2.16798">
        <ele>122.1</ele>
        <time>2023-03-29T14:24:51Z</time>
      </trkpt>
      <trkpt lat="49.83173" lon="2.16797">
        <ele>122.2</ele>
        <time>2023-03-29T14:24:52Z</time>
      </trkpt>
      <trkpt lat="49.83172" lon="2.16796">
        <ele>122.2</ele>
        <time>2023-03-29T14:24:54Z</time>
      </trkpt>
      <trkpt lat="49.83172" lon="2.16794">
        <ele>122.2</ele>
        <time>2023-03-29T14:24:55Z</time>
      </trkpt>
      <trkpt lat="49.83171" lon="2.16794">
        <ele>122.2</ele>
        <time>2023-03-29T14:24:56Z</time>
      </trkpt>
      <trkpt lat="49.83171" lon="2.16792">
        <ele>122.2</ele>
        <time>2023-03-29T14:24:57Z</time>
      </trkpt>
      <trkpt lat="49.8317" lon="2.16791">
        <ele>122.2</ele>
        <time>2023-03-29T14:24:58Z</time>
      </trkpt>
      <trkpt lat="49.8317" lon="2.1679">
        <ele>122.2</ele>
        <time>2023-03-29T14:24:59Z</time>
      </trkpt>
      <trkpt lat="49.83169" lon="2.16788">
        <ele>122.2</ele>
        <time>2023-03-29T14:25:00Z</time>
      </trkpt>
      <trkpt lat="49.83169" lon="2.16788">
        <ele>122.2</ele>
        <time>2023-03-29T14:25:02Z</time>
      </trkpt>
      <trkpt lat="49.83169" lon="2.16787">
        <ele>122.2</ele>
        <time>2023-03-29T14:25:03Z</time>
      </trkpt>
      <trkpt lat="49.83169" lon="2.16786">
        <ele>122.3</ele>
        <time>2023-03-29T14:25:04Z</time>
      </trkpt>
      <trkpt lat="49.83168" lon="2.16784">
        <ele>122.3</ele>
        <time>2023-03-29T14:25:05Z</time>
      </trkpt>
      <trkpt lat="49.83168" lon="2.16782">
        <ele>122.3</ele>
        <time>2023-03-29T14:25:06Z</time>
      </trkpt>
      <trkpt lat="49.83167" lon="2.1678">
        <ele>122.3</ele>
        <time>2023-03-29T14:25:07Z</time>
      </trkpt>
      <trkpt lat="49.83167" lon="2.16778">
        <ele>122.3</ele>
        <time>2023-03-29T14:25:08Z</time>
      </trkpt>
      <trkpt lat="49.83166" lon="2.16775">
        <ele>122.3</ele>
        <time>2023-03-29T14:25:09Z</time>
      </trkpt>
      <trkpt lat="49.83165" lon="2.16773">
        <ele>122.4</ele>
        <time>2023-03-29T14:25:11Z</time>
      </trkpt>
      <trkpt lat="49.83165" lon="2.16772">
        <ele>122.4</ele>
        <time>2023-03-29T14:25:12Z</time>
      </trkpt>
      <trkpt lat="49.83164" lon="2.1677">
        <ele>122.4</ele>
        <time>2023-03-29T14:25:13Z</time>
      </trkpt>
      <trkpt lat="49.83164" lon="2.16769">
        <ele>122.4</ele>
        <time>2023-03-29T14:25:14Z</time>
      </trkpt>
      <trkpt lat="49.83163" lon="2.16766">
        <ele>122.4</ele>
        <time>2023-03-29T14:25:15Z</time>
      </trkpt>
      <trkpt lat="49.83162" lon="2.16764">
        <ele>122.4</ele>
        <time>2023-03-29T14:25:16Z</time>
      </trkpt>
      <trkpt lat="49.83161" lon="2.16763">
        <ele>122.5</ele>
        <time>2023-03-29T14:25:17Z</time>
      </trkpt>
      <trkpt lat="49.8316" lon="2.16761">
        <ele>122.5</ele>
        <time>2023-03-29T14:25:18Z</time>
      </trkpt>
      <trkpt lat="49.8316" lon="2.16759">
        <ele>122.5</ele>
        <time>2023-03-29T14:25:20Z</time>
      </trkpt>
      <trkpt lat="49.83158" lon="2.16757">
        <ele>122.5</ele>
        <time>2023-03-29T14:25:21Z</time>
      </trkpt>
      <trkpt lat="49.83158" lon="2.16756">
        <ele>122.5</ele>
        <time>2023-03-29T14:25:22Z</time>
      </trkpt>
      <trkpt lat="49.83157" lon="2.16755">
        <ele>122.5</ele>
        <time>2023-03-29T14:25:23Z</time>
      </trkpt>
      <trkpt lat="49.83157" lon="2.16753">
        <ele>122.5</ele>
        <time>2023-03-29T14:25:24Z</time>
      </trkpt>
      <trkpt lat="49.83156" lon="2.16751">
        <ele>122.6</ele>
        <time>2023-03-29T14:25:25Z</time>
      </trkpt>
      <trkpt lat="49.83155" lon="2.1675">
        <ele>122.6</ele>
        <time>2023-03-29T14:25:26Z</time>
      </trkpt>
      <trkpt lat="49.83154" lon="2.16749">
        <ele>122.6</ele>
        <time>2023-03-29T14:25:27Z</time>
      </trkpt>
      <trkpt lat="49.83154" lon="2.16747">
        <ele>122.6</ele>
        <time>2023-03-29T14:25:28Z</time>
      </trkpt>
      <trkpt lat="49.83153" lon="2.16745">
        <ele>122.6</ele>
        <time>2023-03-29T14:25:30Z</time>
      </trkpt>
      <trkpt lat="49.83153" lon="2.16744">
        <ele>122.6</ele>
        <time>2023-03-29T14:25:31Z</time>
      </trkpt>
      <trkpt lat="49.83152" lon="2.16742">
        <ele>122.6</ele>
        <time>2023-03-29T14:25:32Z</time>
      </trkpt>
      <trkpt lat="49.83152" lon="2.16739">
        <ele>122.6</ele>
        <time>2023-03-29T14:25:33Z</time>
      </trkpt>
      <trkpt lat="49.83151" lon="2.16738">
        <ele>122.6</ele>
        <time>2023-03-29T14:25:34Z</time>
      </trkpt>
      <trkpt lat="49.83151" lon="2.16737">
        <ele>122.6</ele>
        <time>2023-03-29T14:25:35Z</time>
      </trkpt>
      <trkpt lat="49.8315" lon="2.16734">
        <ele>122.7</ele>
        <time>2023-03-29T14:25:36Z</time>
      </trkpt>
      <trkpt lat="49.8315" lon="2.16733">
        <ele>122.7</ele>
        <time>2023-03-29T14:25:37Z</time>
      </trkpt>
      <trkpt lat="49.8315" lon="2.16729">
        <ele>122.7</ele>
        <time>2023-03-29T14:25:39Z</time>
      </trkpt>
      <trkpt lat="49.8315" lon="2.16728">
        <ele>122.7</ele>
        <time>2023-03-29T14:25:40Z</time>
      </trkpt>
      <trkpt lat="49.83149" lon="2.16726">
        <ele>122.7</ele>
        <time>2023-03-29T14:25:41Z</time>
      </trkpt>
      <trkpt lat="49.83149" lon="2.16724">
        <ele>122.7</ele>
        <time>2023-03-29T14:25:42Z</time>
      </trkpt>
      <trkpt lat="49.83149" lon="2.16723">
        <ele>122.7</ele>
        <time>2023-03-29T14:25:43Z</time>
      </trkpt>
      <trkpt lat="49.83148" lon="2.16721">
        <ele>122.7</ele>
        <time>2023-03-29T14:25:44Z</time>
      </trkpt>
      <trkpt lat="49.83148" lon="2.16719">
        <ele>122.7</ele>
        <time>2023-03-29T14:25:45Z</time>
      </trkpt>
      <trkpt lat="49.83147" lon="2.16716">
        <ele>122.8</ele>
        <time>2023-03-29T14:25:46Z</time>
      </trkpt>
      <trkpt lat="49.83147" lon="2.16715">
        <ele>122.8</ele>
        <time>2023-03-29T14:25:48Z</time>
      </trkpt>
      <trkpt lat="49.83146" lon="2.16713">
        <ele>122.8</ele>
        <time>2023-03-29T14:25:49Z</time>
      </trkpt>
      <trkpt lat="49.83146" lon="2.16711">
        <ele>122.8</ele>
        <time>2023-03-29T14:25:50Z</time>
      </trkpt>
      <trkpt lat="49.83145" lon="2.16709">
        <ele>122.8</ele>
        <time>2023-03-29T14:25:51Z</time>
      </trkpt>
      <trkpt lat="49.83145" lon="2.16707">
        <ele>122.8</ele>
        <time>2023-03-29T14:25:52Z</time>
      </trkpt>
      <trkpt lat="49.83144" lon="2.16705">
        <ele>122.8</ele>
        <time>2023-03-29T14:25:53Z</time>
      </trkpt>
      <trkpt lat="49.83143" lon="2.16703">
        <ele>122.8</ele>
        <time>2023-03-29T14:25:54Z</time>
      </trkpt>
      <trkpt lat="49.83143" lon="2.16702">
        <ele>122.8</ele>
        <time>2023-03-29T14:25:55Z</time>
      </trkpt>
      <trkpt lat="49.83142" lon="2.167">
        <ele>122.8</ele>
        <time>2023-03-29T14:25:57Z</time>
      </trkpt>
      <trkpt lat="49.83141" lon="2.16699">
        <ele>122.9</ele>
        <time>2023-03-29T14:25:58Z</time>
      </trkpt>
      <trkpt lat="49.8314" lon="2.16696">
        <ele>122.9</ele>
        <time>2023-03-29T14:25:59Z</time>
      </trkpt>
      <trkpt lat="49.8314" lon="2.16695">
        <ele>122.9</ele>
        <time>2023-03-29T14:26:00Z</time>
      </trkpt>
      <trkpt lat="49.83139" lon="2.16693">
        <ele>122.9</ele>
        <time>2023-03-29T14:26:01Z</time>
      </trkpt>
      <trkpt lat="49.83139" lon="2.16692">
        <ele>122.9</ele>
        <time>2023-03-29T14:26:02Z</time>
      </trkpt>
      <trkpt lat="49.83138" lon="2.16691">
        <ele>122.9</ele>
        <time>2023-03-29T14:26:03Z</time>
      </trkpt>
      <trkpt lat="49.83137" lon="2.1669">
        <ele>122.9</ele>
        <time>2023-03-29T14:26:04Z</time>
      </trkpt>
      <trkpt lat="49.83137" lon="2.16688">
        <ele>122.9</ele>
        <time>2023-03-29T14:26:05Z</time>
      </trkpt>
      <trkpt lat="49.83136" lon="2.16686">
        <ele>122.9</ele>
        <time>2023-03-29T14:26:07Z</time>
      </trkpt>
      <trkpt lat="49.83135" lon="2.16685">
        <ele>122.9</ele>
        <time>2023-03-29T14:26:08Z</time>
      </trkpt>
      <trkpt lat="49.83135" lon="2.16684">
        <ele>122.9</ele>
        <time>2023-03-29T14:26:09Z</time>
      </trkpt>
      <trkpt lat="49.83134" lon="2.16682">
        <ele>122.9</ele>
        <time>2023-03-29T14:26:10Z</time>
      </trkpt>
      <trkpt lat="49.83133" lon="2.1668">
        <ele>123</ele>
        <time>2023-03-29T14:26:11Z</time>
      </trkpt>
      <trkpt lat="49.83133" lon="2.16679">
        <ele>123</ele>
        <time>2023-03-29T14:26:12Z</time>
      </trkpt>
      <trkpt lat="49.83132" lon="2.16677">
        <ele>123</ele>
        <time>2023-03-29T14:26:13Z</time>
      </trkpt>
      <trkpt lat="49.83132" lon="2.16675">
        <ele>123</ele>
        <time>2023-03-29T14:26:14Z</time>
      </trkpt>
      <trkpt lat="49.83131" lon="2.16674">
        <ele>123</ele>
        <time>2023-03-29T14:26:16Z</time>
      </trkpt>
      <trkpt lat="49.83131" lon="2.16673">
        <ele>123</ele>
        <time>2023-03-29T14:26:17Z</time>
      </trkpt>
      <trkpt lat="49.8313" lon="2.16671">
        <ele>123</ele>
        <time>2023-03-29T14:26:18Z</time>
      </trkpt>
      <trkpt lat="49.8313" lon="2.1667">
        <ele>123</ele>
        <time>2023-03-29T14:26:19Z</time>
      </trkpt>
      <trkpt lat="49.83129" lon="2.16668">
        <ele>123</ele>
        <time>2023-03-29T14:26:20Z</time>
      </trkpt>
      <trkpt lat="49.83129" lon="2.16667">
        <ele>123</ele>
        <time>2023-03-29T14:26:21Z</time>
      </trkpt>
      <trkpt lat="49.83128" lon="2.16665">
        <ele>123</ele>
        <time>2023-03-29T14:26:22Z</time>
      </trkpt>
      <trkpt lat="49.83127" lon="2.16664">
        <ele>123.1</ele>
        <time>2023-03-29T14:26:23Z</time>
      </trkpt>
      <trkpt lat="49.83127" lon="2.16663">
        <ele>123.1</ele>
        <time>2023-03-29T14:26:25Z</time>
      </trkpt>
      <trkpt lat="49.83127" lon="2.16662">
        <ele>123.1</ele>
        <time>2023-03-29T14:26:26Z</time>
      </trkpt>
      <trkpt lat="49.83126" lon="2.16661">
        <ele>123.1</ele>
        <time>2023-03-29T14:26:27Z</time>
      </trkpt>
      <trkpt lat="49.83126" lon="2.1666">
        <ele>123.1</ele>
        <time>2023-03-29T14:26:28Z</time>
      </trkpt>
      <trkpt lat="49.83125" lon="2.16659">
        <ele>123.1</ele>
        <time>2023-03-29T14:26:29Z</time>
      </trkpt>
      <trkpt lat="49.83125" lon="2.16657">
        <ele>123.1</ele>
        <time>2023-03-29T14:26:30Z</time>
      </trkpt>
      <trkpt lat="49.83124" lon="2.16656">
        <ele>123.1</ele>
        <time>2023-03-29T14:26:31Z</time>
      </trkpt>
      <trkpt lat="49.83124" lon="2.16655">
        <ele>123.1</ele>
        <time>2023-03-29T14:26:33Z</time>
      </trkpt>
      <trkpt lat="49.83123" lon="2.16654">
        <ele>123.1</ele>
        <time>2023-03-29T14:26:34Z</time>
      </trkpt>
      <trkpt lat="49.83123" lon="2.16653">
        <ele>123.1</ele>
        <time>2023-03-29T14:26:35Z</time>
      </trkpt>
      <trkpt lat="49.83123" lon="2.16651">
        <ele>123.1</ele>
        <time>2023-03-29T14:26:36Z</time>
      </trkpt>
      <trkpt lat="49.83122" lon="2.1665">
        <ele>123.1</ele>
        <time>2023-03-29T14:26:37Z</time>
      </trkpt>
      <trkpt lat="49.83122" lon="2.16649">
        <ele>123.1</ele>
        <time>2023-03-29T14:26:38Z</time>
      </trkpt>
      <trkpt lat="49.83121" lon="2.16648">
        <ele>123.1</ele>
        <time>2023-03-29T14:26:39Z</time>
      </trkpt>
      <trkpt lat="49.83121" lon="2.16646">
        <ele>123.1</ele>
        <time>2023-03-29T14:26:41Z</time>
      </trkpt>
      <trkpt lat="49.83121" lon="2.16645">
        <ele>123.1</ele>
        <time>2023-03-29T14:26:42Z</time>
      </trkpt>
      <trkpt lat="49.8312" lon="2.16644">
        <ele>123.1</ele>
        <time>2023-03-29T14:26:43Z</time>
      </trkpt>
      <trkpt lat="49.83119" lon="2.16642">
        <ele>123.1</ele>
        <time>2023-03-29T14:26:44Z</time>
      </trkpt>
      <trkpt lat="49.83118" lon="2.16639">
        <ele>123.2</ele>
        <time>2023-03-29T14:26:45Z</time>
      </trkpt>
      <trkpt lat="49.83118" lon="2.16638">
        <ele>123.2</ele>
        <time>2023-03-29T14:26:46Z</time>
      </trkpt>
      <trkpt lat="49.83118" lon="2.16637">
        <ele>123.2</ele>
        <time>2023-03-29T14:26:47Z</time>
      </trkpt>
      <trkpt lat="49.83117" lon="2.16635">
        <ele>123.2</ele>
        <time>2023-03-29T14:26:48Z</time>
      </trkpt>
      <trkpt lat="49.83116" lon="2.16633">
        <ele>123.2</ele>
        <time>2023-03-29T14:26:50Z</time>
      </trkpt>
      <trkpt lat="49.83115" lon="2.16631">
        <ele>123.2</ele>
        <time>2023-03-29T14:26:51Z</time>
      </trkpt>
      <trkpt lat="49.83114" lon="2.16629">
        <ele>123.2</ele>
        <time>2023-03-29T14:26:52Z</time>
      </trkpt>
      <trkpt lat="49.83113" lon="2.16627">
        <ele>123.2</ele>
        <time>2023-03-29T14:26:53Z</time>
      </trkpt>
      <trkpt lat="49.83112" lon="2.16625">
        <ele>123.2</ele>
        <time>2023-03-29T14:26:54Z</time>
      </trkpt>
      <trkpt lat="49.83111" lon="2.16624">
        <ele>123.2</ele>
        <time>2023-03-29T14:26:55Z</time>
      </trkpt>
      <trkpt lat="49.8311" lon="2.16622">
        <ele>123.2</ele>
        <time>2023-03-29T14:26:56Z</time>
      </trkpt>
      <trkpt lat="49.83109" lon="2.1662">
        <ele>123.2</ele>
        <time>2023-03-29T14:26:58Z</time>
      </trkpt>
      <trkpt lat="49.83108" lon="2.16618">
        <ele>123.2</ele>
        <time>2023-03-29T14:26:59Z</time>
      </trkpt>
      <trkpt lat="49.83107" lon="2.16616">
        <ele>123.3</ele>
        <time>2023-03-29T14:27:00Z</time>
      </trkpt>
      <trkpt lat="49.83106" lon="2.16615">
        <ele>123.3</ele>
        <time>2023-03-29T14:27:01Z</time>
      </trkpt>
      <trkpt lat="49.83105" lon="2.16613">
        <ele>123.3</ele>
        <time>2023-03-29T14:27:02Z</time>
      </trkpt>
      <trkpt lat="49.83104" lon="2.16611">
        <ele>123.3</ele>
        <time>2023-03-29T14:27:03Z</time>
      </trkpt>
      <trkpt lat="49.83104" lon="2.16609">
        <ele>123.3</ele>
        <time>2023-03-29T14:27:04Z</time>
      </trkpt>
      <trkpt lat="49.83103" lon="2.16607">
        <ele>123.3</ele>
        <time>2023-03-29T14:27:05Z</time>
      </trkpt>
      <trkpt lat="49.83102" lon="2.16604">
        <ele>123.3</ele>
        <time>2023-03-29T14:27:07Z</time>
      </trkpt>
      <trkpt lat="49.83101" lon="2.16603">
        <ele>123.3</ele>
        <time>2023-03-29T14:27:08Z</time>
      </trkpt>
      <trkpt lat="49.83101" lon="2.16602">
        <ele>123.3</ele>
        <time>2023-03-29T14:27:09Z</time>
      </trkpt>
      <trkpt lat="49.831" lon="2.166">
        <ele>123.3</ele>
        <time>2023-03-29T14:27:10Z</time>
      </trkpt>
      <trkpt lat="49.831" lon="2.16598">
        <ele>123.4</ele>
        <time>2023-03-29T14:27:11Z</time>
      </trkpt>
      <trkpt lat="49.83099" lon="2.16596">
        <ele>123.4</ele>
        <time>2023-03-29T14:27:12Z</time>
      </trkpt>
      <trkpt lat="49.83099" lon="2.16594">
        <ele>123.4</ele>
        <time>2023-03-29T14:27:13Z</time>
      </trkpt>
      <trkpt lat="49.83098" lon="2.16593">
        <ele>123.4</ele>
        <time>2023-03-29T14:27:15Z</time>
      </trkpt>
      <trkpt lat="49.83098" lon="2.16591">
        <ele>123.4</ele>
        <time>2023-03-29T14:27:16Z</time>
      </trkpt>
      <trkpt lat="49.83097" lon="2.16589">
        <ele>123.4</ele>
        <time>2023-03-29T14:27:17Z</time>
      </trkpt>
      <trkpt lat="49.83097" lon="2.16588">
        <ele>123.4</ele>
        <time>2023-03-29T14:27:18Z</time>
      </trkpt>
      <trkpt lat="49.83096" lon="2.16586">
        <ele>123.4</ele>
        <time>2023-03-29T14:27:19Z</time>
      </trkpt>
      <trkpt lat="49.83096" lon="2.16585">
        <ele>123.4</ele>
        <time>2023-03-29T14:27:20Z</time>
      </trkpt>
      <trkpt lat="49.83095" lon="2.16583">
        <ele>123.4</ele>
        <time>2023-03-29T14:27:22Z</time>
      </trkpt>
      <trkpt lat="49.83095" lon="2.16582">
        <ele>123.5</ele>
        <time>2023-03-29T14:27:23Z</time>
      </trkpt>
      <trkpt lat="49.83095" lon="2.1658">
        <ele>123.5</ele>
        <time>2023-03-29T14:27:24Z</time>
      </trkpt>
      <trkpt lat="49.83094" lon="2.16579">
        <ele>123.5</ele>
        <time>2023-03-29T14:27:25Z</time>
      </trkpt>
      <trkpt lat="49.83094" lon="2.16578">
        <ele>123.5</ele>
        <time>2023-03-29T14:27:26Z</time>
      </trkpt>
      <trkpt lat="49.83094" lon="2.16576">
        <ele>123.5</ele>
        <time>2023-03-29T14:27:27Z</time>
      </trkpt>
      <trkpt lat="49.83094" lon="2.16575">
        <ele>123.5</ele>
        <time>2023-03-29T14:27:28Z</time>
      </trkpt>
      <trkpt lat="49.83094" lon="2.16574">
        <ele>123.5</ele>
        <time>2023-03-29T14:27:30Z</time>
      </trkpt>
      <trkpt lat="49.83094" lon="2.16573">
        <ele>123.5</ele>
        <time>2023-03-29T14:27:31Z</time>
      </trkpt>
      <trkpt lat="49.83093" lon="2.16572">
        <ele>123.5</ele>
        <time>2023-03-29T14:27:32Z</time>
      </trkpt>
      <trkpt lat="49.83093" lon="2.1657">
        <ele>123.5</ele>
        <time>2023-03-29T14:27:33Z</time>
      </trkpt>
      <trkpt lat="49.83093" lon="2.16569">
        <ele>123.5</ele>
        <time>2023-03-29T14:27:34Z</time>
      </trkpt>
      <trkpt lat="49.83093" lon="2.16568">
        <ele>123.5</ele>
        <time>2023-03-29T14:27:35Z</time>
      </trkpt>
      <trkpt lat="49.83093" lon="2.16568">
        <ele>123.5</ele>
        <time>2023-03-29T14:27:36Z</time>
      </trkpt>
      <trkpt lat="49.83093" lon="2.16567">
        <ele>123.5</ele>
        <time>2023-03-29T14:27:38Z</time>
      </trkpt>
      <trkpt lat="49.83093" lon="2.16567">
        <ele>123.5</ele>
        <time>2023-03-29T14:27:39Z</time>
      </trkpt>
      <trkpt lat="49.83093" lon="2.16565">
        <ele>123.5</ele>
        <time>2023-03-29T14:27:40Z</time>
      </trkpt>
      <trkpt lat="49.83093" lon="2.16564">
        <ele>123.5</ele>
        <time>2023-03-29T14:27:41Z</time>
      </trkpt>
      <trkpt lat="49.83092" lon="2.16563">
        <ele>123.5</ele>
        <time>2023-03-29T14:27:42Z</time>
      </trkpt>
      <trkpt lat="49.83092" lon="2.16563">
        <ele>123.5</ele>
        <time>2023-03-29T14:27:43Z</time>
      </trkpt>
      <trkpt lat="49.83092" lon="2.16562">
        <ele>123.5</ele>
        <time>2023-03-29T14:27:44Z</time>
      </trkpt>
      <trkpt lat="49.83091" lon="2.1656">
        <ele>123.5</ele>
        <time>2023-03-29T14:27:46Z</time>
      </trkpt>
      <trkpt lat="49.83091" lon="2.1656">
        <ele>123.5</ele>
        <time>2023-03-29T14:27:47Z</time>
      </trkpt>
      <trkpt lat="49.8309" lon="2.16559">
        <ele>123.5</ele>
        <time>2023-03-29T14:27:48Z</time>
      </trkpt>
      <trkpt lat="49.8309" lon="2.16557">
        <ele>123.6</ele>
        <time>2023-03-29T14:27:49Z</time>
      </trkpt>
      <trkpt lat="49.83089" lon="2.16556">
        <ele>123.6</ele>
        <time>2023-03-29T14:27:50Z</time>
      </trkpt>
      <trkpt lat="49.83089" lon="2.16554">
        <ele>123.6</ele>
        <time>2023-03-29T14:27:51Z</time>
      </trkpt>
      <trkpt lat="49.83088" lon="2.16552">
        <ele>123.6</ele>
        <time>2023-03-29T14:27:52Z</time>
      </trkpt>
      <trkpt lat="49.83088" lon="2.16551">
        <ele>123.6</ele>
        <time>2023-03-29T14:27:54Z</time>
      </trkpt>
      <trkpt lat="49.83087" lon="2.16549">
        <ele>123.6</ele>
        <time>2023-03-29T14:27:55Z</time>
      </trkpt>
      <trkpt lat="49.83086" lon="2.16548">
        <ele>123.6</ele>
        <time>2023-03-29T14:27:56Z</time>
      </trkpt>
      <trkpt lat="49.83086" lon="2.16547">
        <ele>123.6</ele>
        <time>2023-03-29T14:27:57Z</time>
      </trkpt>
      <trkpt lat="49.83084" lon="2.16544">
        <ele>123.6</ele>
        <time>2023-03-29T14:27:59Z</time>
      </trkpt>
      <trkpt lat="49.83084" lon="2.16543">
        <ele>123.6</ele>
        <time>2023-03-29T14:28:00Z</time>
      </trkpt>
      <trkpt lat="49.83084" lon="2.16542">
        <ele>123.6</ele>
        <time>2023-03-29T14:28:01Z</time>
      </trkpt>
      <trkpt lat="49.83083" lon="2.1654">
        <ele>123.6</ele>
        <time>2023-03-29T14:28:03Z</time>
      </trkpt>
      <trkpt lat="49.83083" lon="2.16538">
        <ele>123.6</ele>
        <time>2023-03-29T14:28:04Z</time>
      </trkpt>
      <trkpt lat="49.83082" lon="2.16537">
        <ele>123.6</ele>
        <time>2023-03-29T14:28:05Z</time>
      </trkpt>
      <trkpt lat="49.83082" lon="2.16535">
        <ele>123.6</ele>
        <time>2023-03-29T14:28:06Z</time>
      </trkpt>
      <trkpt lat="49.83081" lon="2.16534">
        <ele>123.6</ele>
        <time>2023-03-29T14:28:08Z</time>
      </trkpt>
      <trkpt lat="49.83081" lon="2.16533">
        <ele>123.6</ele>
        <time>2023-03-29T14:28:09Z</time>
      </trkpt>
      <trkpt lat="49.8308" lon="2.16532">
        <ele>123.6</ele>
        <time>2023-03-29T14:28:10Z</time>
      </trkpt>
      <trkpt lat="49.8308" lon="2.16529">
        <ele>123.6</ele>
        <time>2023-03-29T14:28:11Z</time>
      </trkpt>
      <trkpt lat="49.83079" lon="2.16528">
        <ele>123.6</ele>
        <time>2023-03-29T14:28:12Z</time>
      </trkpt>
      <trkpt lat="49.83079" lon="2.16527">
        <ele>123.6</ele>
        <time>2023-03-29T14:28:13Z</time>
      </trkpt>
      <trkpt lat="49.83078" lon="2.16525">
        <ele>123.6</ele>
        <time>2023-03-29T14:28:14Z</time>
      </trkpt>
      <trkpt lat="49.83077" lon="2.16522">
        <ele>123.7</ele>
        <time>2023-03-29T14:28:15Z</time>
      </trkpt>
      <trkpt lat="49.83076" lon="2.1652">
        <ele>123.7</ele>
        <time>2023-03-29T14:28:17Z</time>
      </trkpt>
      <trkpt lat="49.83076" lon="2.16518">
        <ele>123.7</ele>
        <time>2023-03-29T14:28:18Z</time>
      </trkpt>
      <trkpt lat="49.83074" lon="2.16514">
        <ele>123.7</ele>
        <time>2023-03-29T14:28:19Z</time>
      </trkpt>
      <trkpt lat="49.83074" lon="2.16513">
        <ele>123.7</ele>
        <time>2023-03-29T14:28:20Z</time>
      </trkpt>
      <trkpt lat="49.83073" lon="2.16511">
        <ele>123.7</ele>
        <time>2023-03-29T14:28:21Z</time>
      </trkpt>
      <trkpt lat="49.83072" lon="2.16509">
        <ele>123.7</ele>
        <time>2023-03-29T14:28:22Z</time>
      </trkpt>
      <trkpt lat="49.83072" lon="2.16507">
        <ele>123.7</ele>
        <time>2023-03-29T14:28:24Z</time>
      </trkpt>
      <trkpt lat="49.83071" lon="2.16505">
        <ele>123.7</ele>
        <time>2023-03-29T14:28:25Z</time>
      </trkpt>
      <trkpt lat="49.8307" lon="2.16503">
        <ele>123.7</ele>
        <time>2023-03-29T14:28:26Z</time>
      </trkpt>
      <trkpt lat="49.83069" lon="2.16501">
        <ele>123.7</ele>
        <time>2023-03-29T14:28:27Z</time>
      </trkpt>
      <trkpt lat="49.83068" lon="2.16498">
        <ele>123.7</ele>
        <time>2023-03-29T14:28:28Z</time>
      </trkpt>
      <trkpt lat="49.83068" lon="2.16497">
        <ele>123.7</ele>
        <time>2023-03-29T14:28:30Z</time>
      </trkpt>
      <trkpt lat="49.83067" lon="2.16496">
        <ele>123.7</ele>
        <time>2023-03-29T14:28:31Z</time>
      </trkpt>
      <trkpt lat="49.83066" lon="2.16494">
        <ele>123.7</ele>
        <time>2023-03-29T14:28:32Z</time>
      </trkpt>
      <trkpt lat="49.83065" lon="2.16492">
        <ele>123.8</ele>
        <time>2023-03-29T14:28:33Z</time>
      </trkpt>
      <trkpt lat="49.83064" lon="2.16491">
        <ele>123.8</ele>
        <time>2023-03-29T14:28:34Z</time>
      </trkpt>
      <trkpt lat="49.83064" lon="2.16489">
        <ele>123.8</ele>
        <time>2023-03-29T14:28:35Z</time>
      </trkpt>
      <trkpt lat="49.83062" lon="2.16486">
        <ele>123.8</ele>
        <time>2023-03-29T14:28:37Z</time>
      </trkpt>
      <trkpt lat="49.83062" lon="2.16485">
        <ele>123.8</ele>
        <time>2023-03-29T14:28:38Z</time>
      </trkpt>
      <trkpt lat="49.83061" lon="2.16484">
        <ele>123.8</ele>
        <time>2023-03-29T14:28:39Z</time>
      </trkpt>
      <trkpt lat="49.83061" lon="2.16483">
        <ele>123.8</ele>
        <time>2023-03-29T14:28:40Z</time>
      </trkpt>
      <trkpt lat="49.8306" lon="2.16481">
        <ele>123.8</ele>
        <time>2023-03-29T14:28:41Z</time>
      </trkpt>
      <trkpt lat="49.83059" lon="2.1648">
        <ele>123.8</ele>
        <time>2023-03-29T14:28:43Z</time>
      </trkpt>
      <trkpt lat="49.83059" lon="2.16479">
        <ele>123.8</ele>
        <time>2023-03-29T14:28:44Z</time>
      </trkpt>
      <trkpt lat="49.83058" lon="2.16478">
        <ele>123.8</ele>
        <time>2023-03-29T14:28:45Z</time>
      </trkpt>
      <trkpt lat="49.83058" lon="2.16477">
        <ele>123.8</ele>
        <time>2023-03-29T14:28:46Z</time>
      </trkpt>
      <trkpt lat="49.83057" lon="2.16476">
        <ele>123.8</ele>
        <time>2023-03-29T14:28:47Z</time>
      </trkpt>
      <trkpt lat="49.83056" lon="2.16475">
        <ele>123.8</ele>
        <time>2023-03-29T14:28:49Z</time>
      </trkpt>
      <trkpt lat="49.83056" lon="2.16474">
        <ele>123.8</ele>
        <time>2023-03-29T14:28:50Z</time>
      </trkpt>
      <trkpt lat="49.83055" lon="2.16473">
        <ele>123.9</ele>
        <time>2023-03-29T14:28:52Z</time>
      </trkpt>
      <trkpt lat="49.83055" lon="2.16472">
        <ele>123.9</ele>
        <time>2023-03-29T14:28:53Z</time>
      </trkpt>
      <trkpt lat="49.83054" lon="2.16472">
        <ele>123.9</ele>
        <time>2023-03-29T14:28:54Z</time>
      </trkpt>
      <trkpt lat="49.83054" lon="2.16471">
        <ele>123.9</ele>
        <time>2023-03-29T14:28:55Z</time>
      </trkpt>
      <trkpt lat="49.83053" lon="2.16471">
        <ele>123.9</ele>
        <time>2023-03-29T14:28:56Z</time>
      </trkpt>
      <trkpt lat="49.83052" lon="2.16472">
        <ele>123.9</ele>
        <time>2023-03-29T14:28:58Z</time>
      </trkpt>
      <trkpt lat="49.83051" lon="2.16474">
        <ele>123.9</ele>
        <time>2023-03-29T14:29:00Z</time>
      </trkpt>
      <trkpt lat="49.83051" lon="2.16475">
        <ele>123.9</ele>
        <time>2023-03-29T14:29:01Z</time>
      </trkpt>
      <trkpt lat="49.83051" lon="2.16476">
        <ele>123.9</ele>
        <time>2023-03-29T14:29:02Z</time>
      </trkpt>
      <trkpt lat="49.8305" lon="2.16475">
        <ele>123.9</ele>
        <time>2023-03-29T14:29:03Z</time>
      </trkpt>
      <trkpt lat="49.8305" lon="2.16474">
        <ele>123.9</ele>
        <time>2023-03-29T14:29:05Z</time>
      </trkpt>
      <trkpt lat="49.83049" lon="2.16473">
        <ele>123.9</ele>
        <time>2023-03-29T14:29:06Z</time>
      </trkpt>
      <trkpt lat="49.83049" lon="2.16472">
        <ele>123.9</ele>
        <time>2023-03-29T14:29:07Z</time>
      </trkpt>
      <trkpt lat="49.83048" lon="2.16471">
        <ele>123.9</ele>
        <time>2023-03-29T14:29:08Z</time>
      </trkpt>
      <trkpt lat="49.83048" lon="2.1647">
        <ele>123.9</ele>
        <time>2023-03-29T14:29:10Z</time>
      </trkpt>
      <trkpt lat="49.83048" lon="2.16469">
        <ele>123.9</ele>
        <time>2023-03-29T14:29:11Z</time>
      </trkpt>
      <trkpt lat="49.83047" lon="2.16468">
        <ele>123.9</ele>
        <time>2023-03-29T14:29:12Z</time>
      </trkpt>
      <trkpt lat="49.83047" lon="2.16467">
        <ele>123.9</ele>
        <time>2023-03-29T14:29:13Z</time>
      </trkpt>
      <trkpt lat="49.83046" lon="2.16464">
        <ele>123.9</ele>
        <time>2023-03-29T14:29:14Z</time>
      </trkpt>
      <trkpt lat="49.83045" lon="2.16463">
        <ele>123.9</ele>
        <time>2023-03-29T14:29:15Z</time>
      </trkpt>
      <trkpt lat="49.83045" lon="2.16462">
        <ele>123.9</ele>
        <time>2023-03-29T14:29:16Z</time>
      </trkpt>
      <trkpt lat="49.83044" lon="2.16461">
        <ele>123.9</ele>
        <time>2023-03-29T14:29:18Z</time>
      </trkpt>
      <trkpt lat="49.83043" lon="2.1646">
        <ele>123.9</ele>
        <time>2023-03-29T14:29:19Z</time>
      </trkpt>
      <trkpt lat="49.83041" lon="2.1646">
        <ele>123.9</ele>
        <time>2023-03-29T14:29:20Z</time>
      </trkpt>
      <trkpt lat="49.8304" lon="2.16461">
        <ele>123.9</ele>
        <time>2023-03-29T14:29:22Z</time>
      </trkpt>
      <trkpt lat="49.8304" lon="2.16462">
        <ele>123.9</ele>
        <time>2023-03-29T14:29:23Z</time>
      </trkpt>
      <trkpt lat="49.8304" lon="2.16462">
        <ele>123.9</ele>
        <time>2023-03-29T14:29:24Z</time>
      </trkpt>
      <trkpt lat="49.83041" lon="2.16463">
        <ele>123.9</ele>
        <time>2023-03-29T14:29:26Z</time>
      </trkpt>
      <trkpt lat="49.83041" lon="2.16463">
        <ele>123.9</ele>
        <time>2023-03-29T14:29:27Z</time>
      </trkpt>
      <trkpt lat="49.83041" lon="2.16464">
        <ele>123.9</ele>
        <time>2023-03-29T14:29:29Z</time>
      </trkpt>
      <trkpt lat="49.83041" lon="2.16464">
        <ele>123.9</ele>
        <time>2023-03-29T14:29:30Z</time>
      </trkpt>
      <trkpt lat="49.83041" lon="2.16464">
        <ele>123.9</ele>
        <time>2023-03-29T14:29:31Z</time>
      </trkpt>
      <trkpt lat="49.83041" lon="2.16464">
        <ele>123.9</ele>
        <time>2023-03-29T14:29:32Z</time>
      </trkpt>
      <trkpt lat="49.8304" lon="2.16464">
        <ele>123.9</ele>
        <time>2023-03-29T14:29:33Z</time>
      </trkpt>
      <trkpt lat="49.8304" lon="2.16465">
        <ele>123.9</ele>
        <time>2023-03-29T14:29:35Z</time>
      </trkpt>
      <trkpt lat="49.83039" lon="2.16465">
        <ele>123.8</ele>
        <time>2023-03-29T14:29:36Z</time>
      </trkpt>
      <trkpt lat="49.83038" lon="2.16465">
        <ele>123.8</ele>
        <time>2023-03-29T14:29:37Z</time>
      </trkpt>
      <trkpt lat="49.83036" lon="2.16467">
        <ele>123.8</ele>
        <time>2023-03-29T14:29:39Z</time>
      </trkpt>
      <trkpt lat="49.83035" lon="2.16467">
        <ele>123.8</ele>
        <time>2023-03-29T14:29:41Z</time>
      </trkpt>
      <trkpt lat="49.83034" lon="2.16469">
        <ele>123.8</ele>
        <time>2023-03-29T14:29:42Z</time>
      </trkpt>
      <trkpt lat="49.83031" lon="2.16471">
        <ele>123.7</ele>
        <time>2023-03-29T14:29:43Z</time>
      </trkpt>
      <trkpt lat="49.83028" lon="2.16473">
        <ele>123.6</ele>
        <time>2023-03-29T14:29:44Z</time>
      </trkpt>
      <trkpt lat="49.83027" lon="2.16474">
        <ele>123.6</ele>
        <time>2023-03-29T14:29:46Z</time>
      </trkpt>
      <trkpt lat="49.83026" lon="2.16475">
        <ele>123.6</ele>
        <time>2023-03-29T14:29:47Z</time>
      </trkpt>
      <trkpt lat="49.83025" lon="2.16476">
        <ele>123.5</ele>
        <time>2023-03-29T14:29:48Z</time>
      </trkpt>
      <trkpt lat="49.83023" lon="2.16478">
        <ele>123.5</ele>
        <time>2023-03-29T14:29:50Z</time>
      </trkpt>
      <trkpt lat="49.83022" lon="2.1648">
        <ele>123.5</ele>
        <time>2023-03-29T14:29:52Z</time>
      </trkpt>
      <trkpt lat="49.83021" lon="2.16481">
        <ele>123.4</ele>
        <time>2023-03-29T14:29:53Z</time>
      </trkpt>
      <trkpt lat="49.8302" lon="2.16482">
        <ele>123.4</ele>
        <time>2023-03-29T14:29:54Z</time>
      </trkpt>
      <trkpt lat="49.83019" lon="2.16483">
        <ele>123.4</ele>
        <time>2023-03-29T14:29:56Z</time>
      </trkpt>
      <trkpt lat="49.83019" lon="2.16483">
        <ele>123.4</ele>
        <time>2023-03-29T14:29:57Z</time>
      </trkpt>
      <trkpt lat="49.83018" lon="2.16483">
        <ele>123.4</ele>
        <time>2023-03-29T14:29:59Z</time>
      </trkpt>
      <trkpt lat="49.83019" lon="2.16483">
        <ele>123.4</ele>
        <time>2023-03-29T14:30:00Z</time>
      </trkpt>
      <trkpt lat="49.83019" lon="2.16483">
        <ele>123.4</ele>
        <time>2023-03-29T14:30:02Z</time>
      </trkpt>
      <trkpt lat="49.83019" lon="2.16483">
        <ele>123.4</ele>
        <time>2023-03-29T14:30:03Z</time>
      </trkpt>
      <trkpt lat="49.83019" lon="2.16483">
        <ele>123.4</ele>
        <time>2023-03-29T14:30:04Z</time>
      </trkpt>
      <trkpt lat="49.83019" lon="2.16483">
        <ele>123.4</ele>
        <time>2023-03-29T14:30:06Z</time>
      </trkpt>
      <trkpt lat="49.83019" lon="2.16482">
        <ele>123.4</ele>
        <time>2023-03-29T14:30:07Z</time>
      </trkpt>
      <trkpt lat="49.83019" lon="2.16483">
        <ele>123.3</ele>
        <time>2023-03-29T14:30:09Z</time>
      </trkpt>
      <trkpt lat="49.83019" lon="2.16483">
        <ele>123.3</ele>
        <time>2023-03-29T14:30:10Z</time>
      </trkpt>
      <trkpt lat="49.83019" lon="2.16483">
        <ele>123.3</ele>
        <time>2023-03-29T14:30:12Z</time>
      </trkpt>
      <trkpt lat="49.83019" lon="2.16483">
        <ele>123.3</ele>
        <time>2023-03-29T14:30:13Z</time>
      </trkpt>
      <trkpt lat="49.83019" lon="2.16483">
        <ele>123.3</ele>
        <time>2023-03-29T14:30:14Z</time>
      </trkpt>
      <trkpt lat="49.83019" lon="2.16483">
        <ele>123.3</ele>
        <time>2023-03-29T14:30:15Z</time>
      </trkpt>
      <trkpt lat="49.8302" lon="2.16483">
        <ele>123.3</ele>
        <time>2023-03-29T14:30:16Z</time>
      </trkpt>
      <trkpt lat="49.8302" lon="2.16483">
        <ele>123.3</ele>
        <time>2023-03-29T14:30:17Z</time>
      </trkpt>
      <trkpt lat="49.8302" lon="2.16483">
        <ele>123.3</ele>
        <time>2023-03-29T14:30:18Z</time>
      </trkpt>
      <trkpt lat="49.8302" lon="2.16483">
        <ele>123.3</ele>
        <time>2023-03-29T14:30:19Z</time>
      </trkpt>
      <trkpt lat="49.8302" lon="2.16483">
        <ele>123.3</ele>
        <time>2023-03-29T14:30:20Z</time>
      </trkpt>
      <trkpt lat="49.8302" lon="2.16483">
        <ele>123.3</ele>
        <time>2023-03-29T14:30:21Z</time>
      </trkpt>
      <trkpt lat="49.8302" lon="2.16483">
        <ele>123.3</ele>
        <time>2023-03-29T14:30:22Z</time>
      </trkpt>
      <trkpt lat="49.8302" lon="2.16483">
        <ele>123.3</ele>
        <time>2023-03-29T14:30:23Z</time>
      </trkpt>
      <trkpt lat="49.8302" lon="2.16483">
        <ele>123.3</ele>
        <time>2023-03-29T14:30:24Z</time>
      </trkpt>
      <trkpt lat="49.8302" lon="2.16483">
        <ele>123.3</ele>
        <time>2023-03-29T14:30:25Z</time>
      </trkpt>
      <trkpt lat="49.8302" lon="2.16483">
        <ele>123.3</ele>
        <time>2023-03-29T14:30:26Z</time>
      </trkpt>
      <trkpt lat="49.8302" lon="2.16483">
        <ele>123.3</ele>
        <time>2023-03-29T14:30:27Z</time>
      </trkpt>
      <trkpt lat="49.8302" lon="2.16483">
        <ele>123.3</ele>
        <time>2023-03-29T14:30:28Z</time>
      </trkpt>
      <trkpt lat="49.8302" lon="2.16483">
        <ele>123.3</ele>
        <time>2023-03-29T14:30:29Z</time>
      </trkpt>
      <trkpt lat="49.8302" lon="2.16483">
        <ele>123.3</ele>
        <time>2023-03-29T14:30:30Z</time>
      </trkpt>
      <trkpt lat="49.8302" lon="2.16483">
        <ele>123.3</ele>
        <time>2023-03-29T14:30:31Z</time>
      </trkpt>
      <trkpt lat="49.8302" lon="2.16483">
        <ele>123.3</ele>
        <time>2023-03-29T14:30:32Z</time>
      </trkpt>
      <trkpt lat="49.8302" lon="2.16483">
        <ele>123.3</ele>
        <time>2023-03-29T14:30:33Z</time>
      </trkpt>
      <trkpt lat="49.8302" lon="2.16483">
        <ele>123.3</ele>
        <time>2023-03-29T14:30:34Z</time>
      </trkpt>
      <trkpt lat="49.8302" lon="2.16483">
        <ele>123.3</ele>
        <time>2023-03-29T14:30:35Z</time>
      </trkpt>
      <trkpt lat="49.8302" lon="2.16483">
        <ele>123.3</ele>
        <time>2023-03-29T14:30:36Z</time>
      </trkpt>
      <trkpt lat="49.8302" lon="2.16483">
        <ele>123.3</ele>
        <time>2023-03-29T14:30:37Z</time>
      </trkpt>
      <trkpt lat="49.8302" lon="2.16483">
        <ele>123.3</ele>
        <time>2023-03-29T14:30:38Z</time>
      </trkpt>
      <trkpt lat="49.8302" lon="2.16483">
        <ele>123.3</ele>
        <time>2023-03-29T14:30:39Z</time>
      </trkpt>
      <trkpt lat="49.8302" lon="2.16483">
        <ele>123.3</ele>
        <time>2023-03-29T14:30:40Z</time>
      </trkpt>
      <trkpt lat="49.8302" lon="2.16483">
        <ele>123.3</ele>
        <time>2023-03-29T14:30:41Z</time>
      </trkpt>
      <trkpt lat="49.8302" lon="2.16483">
        <ele>123.3</ele>
        <time>2023-03-29T14:30:42Z</time>
      </trkpt>
      <trkpt lat="49.8302" lon="2.16483">
        <ele>123.3</ele>
        <time>2023-03-29T14:30:43Z</time>
      </trkpt>
      <trkpt lat="49.8302" lon="2.16483">
        <ele>123.3</ele>
        <time>2023-03-29T14:30:44Z</time>
      </trkpt>
      <trkpt lat="49.8302" lon="2.16483">
        <ele>123.3</ele>
        <time>2023-03-29T14:30:45Z</time>
      </trkpt>
      <trkpt lat="49.8302" lon="2.16483">
        <ele>123.3</ele>
        <time>2023-03-29T14:30:46Z</time>
      </trkpt>
      <trkpt lat="49.83021" lon="2.16479">
        <ele>123.3</ele>
        <time>2023-03-29T14:30:47Z</time>
      </trkpt>
      <trkpt lat="49.83021" lon="2.16477">
        <ele>123.2</ele>
        <time>2023-03-29T14:30:48Z</time>
      </trkpt>
      <trkpt lat="49.83022" lon="2.16476">
        <ele>123.2</ele>
        <time>2023-03-29T14:30:49Z</time>
      </trkpt>
      <trkpt lat="49.83022" lon="2.16475">
        <ele>123.2</ele>
        <time>2023-03-29T14:30:50Z</time>
      </trkpt>
      <trkpt lat="49.83022" lon="2.16475">
        <ele>123.2</ele>
        <time>2023-03-29T14:30:51Z</time>
      </trkpt>
      <trkpt lat="49.83022" lon="2.16475">
        <ele>123.2</ele>
        <time>2023-03-29T14:30:52Z</time>
      </trkpt>
      <trkpt lat="49.83022" lon="2.16475">
        <ele>123.2</ele>
        <time>2023-03-29T14:30:53Z</time>
      </trkpt>
      <trkpt lat="49.83022" lon="2.16475">
        <ele>123.2</ele>
        <time>2023-03-29T14:30:54Z</time>
      </trkpt>
      <trkpt lat="49.83022" lon="2.16475">
        <ele>123.2</ele>
        <time>2023-03-29T14:30:55Z</time>
      </trkpt>
      <trkpt lat="49.83022" lon="2.16475">
        <ele>123.2</ele>
        <time>2023-03-29T14:30:56Z</time>
      </trkpt>
      <trkpt lat="49.83022" lon="2.16475">
        <ele>123.2</ele>
        <time>2023-03-29T14:30:57Z</time>
      </trkpt>
      <trkpt lat="49.83022" lon="2.16475">
        <ele>123.2</ele>
        <time>2023-03-29T14:30:58Z</time>
      </trkpt>
      <trkpt lat="49.83022" lon="2.16475">
        <ele>123.2</ele>
        <time>2023-03-29T14:30:59Z</time>
      </trkpt>
      <trkpt lat="49.83022" lon="2.16475">
        <ele>123.2</ele>
        <time>2023-03-29T14:31:00Z</time>
      </trkpt>
      <trkpt lat="49.83022" lon="2.16475">
        <ele>123.2</ele>
        <time>2023-03-29T14:31:01Z</time>
      </trkpt>
      <trkpt lat="49.83022" lon="2.16475">
        <ele>123.2</ele>
        <time>2023-03-29T14:31:02Z</time>
      </trkpt>
      <trkpt lat="49.83022" lon="2.16475">
        <ele>123.2</ele>
        <time>2023-03-29T14:31:03Z</time>
      </trkpt>
      <trkpt lat="49.83022" lon="2.16475">
        <ele>123.2</ele>
        <time>2023-03-29T14:31:04Z</time>
      </trkpt>
      <trkpt lat="49.83022" lon="2.16475">
        <ele>123.2</ele>
        <time>2023-03-29T14:31:05Z</time>
      </trkpt>
      <trkpt lat="49.83022" lon="2.16475">
        <ele>123.2</ele>
        <time>2023-03-29T14:31:06Z</time>
      </trkpt>
      <trkpt lat="49.83022" lon="2.16475">
        <ele>123.2</ele>
        <time>2023-03-29T14:31:07Z</time>
      </trkpt>
      <trkpt lat="49.83022" lon="2.16475">
        <ele>123.2</ele>
        <time>2023-03-29T14:31:08Z</time>
      </trkpt>
      <trkpt lat="49.83022" lon="2.16475">
        <ele>123.2</ele>
        <time>2023-03-29T14:31:09Z</time>
      </trkpt>
      <trkpt lat="49.83022" lon="2.16475">
        <ele>123.2</ele>
        <time>2023-03-29T14:31:10Z</time>
      </trkpt>
      <trkpt lat="49.83022" lon="2.16475">
        <ele>123.2</ele>
        <time>2023-03-29T14:31:11Z</time>
      </trkpt>
      <trkpt lat="49.83022" lon="2.16475">
        <ele>123.2</ele>
        <time>2023-03-29T14:31:12Z</time>
      </trkpt>
      <trkpt lat="49.83022" lon="2.16475">
        <ele>123.2</ele>
        <time>2023-03-29T14:31:13Z</time>
      </trkpt>
      <trkpt lat="49.83022" lon="2.16475">
        <ele>123.2</ele>
        <time>2023-03-29T14:31:14Z</time>
      </trkpt>
      <trkpt lat="49.83022" lon="2.16475">
        <ele>123.2</ele>
        <time>2023-03-29T14:31:15Z</time>
      </trkpt>
      <trkpt lat="49.83022" lon="2.16475">
        <ele>123.2</ele>
        <time>2023-03-29T14:31:16Z</time>
      </trkpt>
      <trkpt lat="49.83022" lon="2.16475">
        <ele>123.2</ele>
        <time>2023-03-29T14:31:17Z</time>
      </trkpt>
      <trkpt lat="49.83022" lon="2.16475">
        <ele>123.2</ele>
        <time>2023-03-29T14:31:18Z</time>
      </trkpt>
      <trkpt lat="49.83022" lon="2.16475">
        <ele>123.2</ele>
        <time>2023-03-29T14:31:19Z</time>
      </trkpt>
      <trkpt lat="49.83022" lon="2.16475">
        <ele>123.2</ele>
        <time>2023-03-29T14:31:20Z</time>
      </trkpt>
      <trkpt lat="49.83022" lon="2.16475">
        <ele>123.2</ele>
        <time>2023-03-29T14:31:21Z</time>
      </trkpt>
      <trkpt lat="49.83022" lon="2.16475">
        <ele>123.2</ele>
        <time>2023-03-29T14:31:22Z</time>
      </trkpt>
      <trkpt lat="49.83022" lon="2.16475">
        <ele>123.2</ele>
        <time>2023-03-29T14:31:23Z</time>
      </trkpt>
      <trkpt lat="49.83022" lon="2.16475">
        <ele>123.2</ele>
        <time>2023-03-29T14:31:24Z</time>
      </trkpt>
      <trkpt lat="49.83022" lon="2.16475">
        <ele>123.2</ele>
        <time>2023-03-29T14:31:25Z</time>
      </trkpt>
      <trkpt lat="49.83022" lon="2.16475">
        <ele>123.2</ele>
        <time>2023-03-29T14:31:26Z</time>
      </trkpt>
      <trkpt lat="49.83022" lon="2.16475">
        <ele>123.2</ele>
        <time>2023-03-29T14:31:27Z</time>
      </trkpt>
      <trkpt lat="49.83022" lon="2.16475">
        <ele>123.2</ele>
        <time>2023-03-29T14:31:28Z</time>
      </trkpt>
      <trkpt lat="49.83022" lon="2.16475">
        <ele>123.2</ele>
        <time>2023-03-29T14:31:29Z</time>
      </trkpt>
      <trkpt lat="49.83022" lon="2.16475">
        <ele>123.2</ele>
        <time>2023-03-29T14:31:30Z</time>
      </trkpt>
      <trkpt lat="49.83022" lon="2.16475">
        <ele>123.2</ele>
        <time>2023-03-29T14:31:31Z</time>
      </trkpt>
      <trkpt lat="49.83022" lon="2.16475">
        <ele>123.2</ele>
        <time>2023-03-29T14:31:32Z</time>
      </trkpt>
      <trkpt lat="49.83022" lon="2.16475">
        <ele>123.2</ele>
        <time>2023-03-29T14:31:33Z</time>
      </trkpt>
      <trkpt lat="49.83022" lon="2.16475">
        <ele>123.2</ele>
        <time>2023-03-29T14:31:34Z</time>
      </trkpt>
      <trkpt lat="49.83022" lon="2.16475">
        <ele>123.2</ele>
        <time>2023-03-29T14:31:35Z</time>
      </trkpt>
      <trkpt lat="49.83022" lon="2.16475">
        <ele>123.2</ele>
        <time>2023-03-29T14:31:36Z</time>
      </trkpt>
      <trkpt lat="49.83022" lon="2.16475">
        <ele>123.2</ele>
        <time>2023-03-29T14:31:37Z</time>
      </trkpt>
      <trkpt lat="49.83022" lon="2.16475">
        <ele>123.2</ele>
        <time>2023-03-29T14:31:38Z</time>
      </trkpt>
      <trkpt lat="49.83022" lon="2.16475">
        <ele>123.2</ele>
        <time>2023-03-29T14:31:39Z</time>
      </trkpt>
      <trkpt lat="49.83022" lon="2.16475">
        <ele>123.2</ele>
        <time>2023-03-29T14:31:40Z</time>
      </trkpt>
      <trkpt lat="49.83022" lon="2.16475">
        <ele>123.2</ele>
        <time>2023-03-29T14:31:41Z</time>
      </trkpt>
      <trkpt lat="49.83022" lon="2.16475">
        <ele>123.2</ele>
        <time>2023-03-29T14:31:42Z</time>
      </trkpt>
      <trkpt lat="49.83022" lon="2.16475">
        <ele>123.2</ele>
        <time>2023-03-29T14:31:43Z</time>
      </trkpt>
      <trkpt lat="49.83022" lon="2.16475">
        <ele>123.2</ele>
        <time>2023-03-29T14:31:44Z</time>
      </trkpt>
      <trkpt lat="49.83022" lon="2.16475">
        <ele>123.2</ele>
        <time>2023-03-29T14:31:45Z</time>
      </trkpt>
      <trkpt lat="49.83022" lon="2.16475">
        <ele>123.2</ele>
        <time>2023-03-29T14:31:46Z</time>
      </trkpt>
      <trkpt lat="49.83022" lon="2.16475">
        <ele>123.2</ele>
        <time>2023-03-29T14:31:47Z</time>
      </trkpt>
      <trkpt lat="49.83022" lon="2.16475">
        <ele>123.2</ele>
        <time>2023-03-29T14:31:48Z</time>
      </trkpt>
      <trkpt lat="49.83022" lon="2.16475">
        <ele>123.2</ele>
        <time>2023-03-29T14:31:49Z</time>
      </trkpt>
      <trkpt lat="49.83022" lon="2.16475">
        <ele>123.2</ele>
        <time>2023-03-29T14:31:50Z</time>
      </trkpt>
      <trkpt lat="49.83022" lon="2.16475">
        <ele>123.2</ele>
        <time>2023-03-29T14:31:51Z</time>
      </trkpt>
      <trkpt lat="49.83022" lon="2.16475">
        <ele>123.2</ele>
        <time>2023-03-29T14:31:52Z</time>
      </trkpt>
      <trkpt lat="49.83022" lon="2.16475">
        <ele>123.2</ele>
        <time>2023-03-29T14:31:53Z</time>
      </trkpt>
      <trkpt lat="49.83022" lon="2.16475">
        <ele>123.2</ele>
        <time>2023-03-29T14:31:54Z</time>
      </trkpt>
      <trkpt lat="49.83022" lon="2.16475">
        <ele>123.2</ele>
        <time>2023-03-29T14:31:55Z</time>
      </trkpt>
      <trkpt lat="49.83022" lon="2.16475">
        <ele>123.2</ele>
        <time>2023-03-29T14:31:56Z</time>
      </trkpt>
      <trkpt lat="49.83022" lon="2.16475">
        <ele>123.2</ele>
        <time>2023-03-29T14:31:57Z</time>
      </trkpt>
      <trkpt lat="49.83022" lon="2.16475">
        <ele>123.2</ele>
        <time>2023-03-29T14:31:58Z</time>
      </trkpt>
      <trkpt lat="49.83022" lon="2.16475">
        <ele>123.2</ele>
        <time>2023-03-29T14:31:59Z</time>
      </trkpt>
      <trkpt lat="49.83022" lon="2.16475">
        <ele>123.2</ele>
        <time>2023-03-29T14:32:00Z</time>
      </trkpt>
      <trkpt lat="49.83022" lon="2.16475">
        <ele>123.2</ele>
        <time>2023-03-29T14:32:01Z</time>
      </trkpt>
      <trkpt lat="49.83022" lon="2.16475">
        <ele>123.2</ele>
        <time>2023-03-29T14:32:02Z</time>
      </trkpt>
      <trkpt lat="49.83022" lon="2.16475">
        <ele>123.2</ele>
        <time>2023-03-29T14:32:03Z</time>
      </trkpt>
      <trkpt lat="49.83022" lon="2.16475">
        <ele>123.2</ele>
        <time>2023-03-29T14:32:04Z</time>
      </trkpt>
      <trkpt lat="49.83022" lon="2.16475">
        <ele>123.2</ele>
        <time>2023-03-29T14:32:05Z</time>
      </trkpt>
      <trkpt lat="49.83022" lon="2.16475">
        <ele>123.2</ele>
        <time>2023-03-29T14:32:06Z</time>
      </trkpt>
      <trkpt lat="49.83022" lon="2.16475">
        <ele>123.2</ele>
        <time>2023-03-29T14:32:07Z</time>
      </trkpt>
      <trkpt lat="49.83022" lon="2.16475">
        <ele>123.2</ele>
        <time>2023-03-29T14:32:08Z</time>
      </trkpt>
      <trkpt lat="49.83022" lon="2.16475">
        <ele>123.2</ele>
        <time>2023-03-29T14:32:09Z</time>
      </trkpt>
      <trkpt lat="49.83022" lon="2.16475">
        <ele>123.2</ele>
        <time>2023-03-29T14:32:10Z</time>
      </trkpt>
      <trkpt lat="49.83022" lon="2.16475">
        <ele>123.2</ele>
        <time>2023-03-29T14:32:11Z</time>
      </trkpt>
      <trkpt lat="49.83022" lon="2.16475">
        <ele>123.2</ele>
        <time>2023-03-29T14:32:12Z</time>
      </trkpt>
      <trkpt lat="49.83022" lon="2.16475">
        <ele>123.2</ele>
        <time>2023-03-29T14:32:13Z</time>
      </trkpt>
      <trkpt lat="49.83022" lon="2.16475">
        <ele>123.2</ele>
        <time>2023-03-29T14:32:14Z</time>
      </trkpt>
      <trkpt lat="49.83022" lon="2.16475">
        <ele>123.2</ele>
        <time>2023-03-29T14:32:15Z</time>
      </trkpt>
      <trkpt lat="49.83022" lon="2.16475">
        <ele>123.2</ele>
        <time>2023-03-29T14:32:16Z</time>
      </trkpt>
      <trkpt lat="49.83022" lon="2.16475">
        <ele>123.2</ele>
        <time>2023-03-29T14:32:17Z</time>
      </trkpt>
      <trkpt lat="49.83022" lon="2.16475">
        <ele>123.2</ele>
        <time>2023-03-29T14:32:18Z</time>
      </trkpt>
      <trkpt lat="49.83022" lon="2.16475">
        <ele>123.2</ele>
        <time>2023-03-29T14:32:19Z</time>
      </trkpt>
      <trkpt lat="49.83022" lon="2.16475">
        <ele>123.2</ele>
        <time>2023-03-29T14:32:20Z</time>
      </trkpt>
      <trkpt lat="49.83022" lon="2.16475">
        <ele>123.2</ele>
        <time>2023-03-29T14:32:21Z</time>
      </trkpt>
      <trkpt lat="49.83022" lon="2.16475">
        <ele>123.2</ele>
        <time>2023-03-29T14:32:22Z</time>
      </trkpt>
      <trkpt lat="49.83022" lon="2.16475">
        <ele>123.2</ele>
        <time>2023-03-29T14:32:23Z</time>
      </trkpt>
      <trkpt lat="49.83022" lon="2.16475">
        <ele>123.2</ele>
        <time>2023-03-29T14:32:24Z</time>
      </trkpt>
      <trkpt lat="49.83022" lon="2.16475">
        <ele>123.2</ele>
        <time>2023-03-29T14:32:25Z</time>
      </trkpt>
      <trkpt lat="49.83022" lon="2.16475">
        <ele>123.2</ele>
        <time>2023-03-29T14:32:26Z</time>
      </trkpt>
      <trkpt lat="49.83022" lon="2.16475">
        <ele>123.2</ele>
        <time>2023-03-29T14:32:27Z</time>
      </trkpt>
      <trkpt lat="49.83022" lon="2.16475">
        <ele>123.2</ele>
        <time>2023-03-29T14:32:28Z</time>
      </trkpt>
      <trkpt lat="49.83022" lon="2.16475">
        <ele>123.2</ele>
        <time>2023-03-29T14:32:29Z</time>
      </trkpt>
      <trkpt lat="49.83022" lon="2.16475">
        <ele>123.2</ele>
        <time>2023-03-29T14:32:30Z</time>
      </trkpt>
      <trkpt lat="49.83021" lon="2.16476">
        <ele>123.1</ele>
        <time>2023-03-29T14:32:31Z</time>
      </trkpt>
      <trkpt lat="49.8302" lon="2.16476">
        <ele>123.1</ele>
        <time>2023-03-29T14:32:32Z</time>
      </trkpt>
      <trkpt lat="49.8302" lon="2.16476">
        <ele>123.1</ele>
        <time>2023-03-29T14:32:33Z</time>
      </trkpt>
      <trkpt lat="49.8302" lon="2.16477">
        <ele>123.1</ele>
        <time>2023-03-29T14:32:34Z</time>
      </trkpt>
      <trkpt lat="49.8302" lon="2.16477">
        <ele>123.1</ele>
        <time>2023-03-29T14:32:35Z</time>
      </trkpt>
      <trkpt lat="49.8302" lon="2.16477">
        <ele>123.1</ele>
        <time>2023-03-29T14:32:36Z</time>
      </trkpt>
      <trkpt lat="49.8302" lon="2.16477">
        <ele>123.1</ele>
        <time>2023-03-29T14:32:37Z</time>
      </trkpt>
      <trkpt lat="49.8302" lon="2.16477">
        <ele>123.1</ele>
        <time>2023-03-29T14:32:38Z</time>
      </trkpt>
      <trkpt lat="49.8302" lon="2.16477">
        <ele>123.1</ele>
        <time>2023-03-29T14:32:39Z</time>
      </trkpt>
      <trkpt lat="49.8302" lon="2.16477">
        <ele>123.1</ele>
        <time>2023-03-29T14:32:40Z</time>
      </trkpt>
      <trkpt lat="49.8302" lon="2.16477">
        <ele>123.1</ele>
        <time>2023-03-29T14:32:41Z</time>
      </trkpt>
      <trkpt lat="49.8302" lon="2.16477">
        <ele>123.1</ele>
        <time>2023-03-29T14:32:42Z</time>
      </trkpt>
      <trkpt lat="49.8302" lon="2.16477">
        <ele>123.1</ele>
        <time>2023-03-29T14:32:43Z</time>
      </trkpt>
      <trkpt lat="49.8302" lon="2.16477">
        <ele>123.1</ele>
        <time>2023-03-29T14:32:44Z</time>
      </trkpt>
      <trkpt lat="49.8302" lon="2.16477">
        <ele>123.1</ele>
        <time>2023-03-29T14:32:45Z</time>
      </trkpt>
      <trkpt lat="49.8302" lon="2.16476">
        <ele>123.1</ele>
        <time>2023-03-29T14:32:46Z</time>
      </trkpt>
      <trkpt lat="49.8302" lon="2.16476">
        <ele>123.1</ele>
        <time>2023-03-29T14:32:47Z</time>
      </trkpt>
      <trkpt lat="49.8302" lon="2.16476">
        <ele>123.1</ele>
        <time>2023-03-29T14:32:48Z</time>
      </trkpt>
      <trkpt lat="49.8302" lon="2.16476">
        <ele>123.1</ele>
        <time>2023-03-29T14:32:49Z</time>
      </trkpt>
      <trkpt lat="49.8302" lon="2.16476">
        <ele>123.1</ele>
        <time>2023-03-29T14:32:50Z</time>
      </trkpt>
      <trkpt lat="49.8302" lon="2.16476">
        <ele>123.1</ele>
        <time>2023-03-29T14:32:51Z</time>
      </trkpt>
      <trkpt lat="49.8302" lon="2.16476">
        <ele>123.1</ele>
        <time>2023-03-29T14:32:52Z</time>
      </trkpt>
      <trkpt lat="49.8302" lon="2.16476">
        <ele>123.1</ele>
        <time>2023-03-29T14:32:53Z</time>
      </trkpt>
      <trkpt lat="49.8302" lon="2.16476">
        <ele>123.1</ele>
        <time>2023-03-29T14:32:54Z</time>
      </trkpt>
      <trkpt lat="49.8302" lon="2.16476">
        <ele>123.1</ele>
        <time>2023-03-29T14:32:55Z</time>
      </trkpt>
      <trkpt lat="49.8302" lon="2.16476">
        <ele>123.1</ele>
        <time>2023-03-29T14:32:56Z</time>
      </trkpt>
      <trkpt lat="49.8302" lon="2.16476">
        <ele>123.1</ele>
        <time>2023-03-29T14:32:57Z</time>
      </trkpt>
      <trkpt lat="49.8302" lon="2.16476">
        <ele>123.1</ele>
        <time>2023-03-29T14:32:58Z</time>
      </trkpt>
      <trkpt lat="49.8302" lon="2.16476">
        <ele>123.1</ele>
        <time>2023-03-29T14:32:59Z</time>
      </trkpt>
      <trkpt lat="49.8302" lon="2.16476">
        <ele>123.1</ele>
        <time>2023-03-29T14:33:00Z</time>
      </trkpt>
      <trkpt lat="49.8302" lon="2.16476">
        <ele>123.1</ele>
        <time>2023-03-29T14:33:01Z</time>
      </trkpt>
      <trkpt lat="49.8302" lon="2.16476">
        <ele>123.1</ele>
        <time>2023-03-29T14:33:02Z</time>
      </trkpt>
      <trkpt lat="49.8302" lon="2.16476">
        <ele>123.1</ele>
        <time>2023-03-29T14:33:03Z</time>
      </trkpt>
      <trkpt lat="49.8302" lon="2.16476">
        <ele>123.1</ele>
        <time>2023-03-29T14:33:04Z</time>
      </trkpt>
      <trkpt lat="49.8302" lon="2.16476">
        <ele>123.1</ele>
        <time>2023-03-29T14:33:05Z</time>
      </trkpt>
      <trkpt lat="49.8302" lon="2.16476">
        <ele>123.1</ele>
        <time>2023-03-29T14:33:06Z</time>
      </trkpt>
      <trkpt lat="49.8302" lon="2.16476">
        <ele>123.1</ele>
        <time>2023-03-29T14:33:07Z</time>
      </trkpt>
      <trkpt lat="49.8302" lon="2.16476">
        <ele>123.1</ele>
        <time>2023-03-29T14:33:08Z</time>
      </trkpt>
      <trkpt lat="49.8302" lon="2.16476">
        <ele>123.1</ele>
        <time>2023-03-29T14:33:09Z</time>
      </trkpt>
      <trkpt lat="49.8302" lon="2.16476">
        <ele>123.1</ele>
        <time>2023-03-29T14:33:10Z</time>
      </trkpt>
      <trkpt lat="49.8302" lon="2.16476">
        <ele>123.1</ele>
        <time>2023-03-29T14:33:11Z</time>
      </trkpt>
      <trkpt lat="49.8302" lon="2.16476">
        <ele>123.1</ele>
        <time>2023-03-29T14:33:12Z</time>
      </trkpt>
      <trkpt lat="49.8302" lon="2.16476">
        <ele>123.1</ele>
        <time>2023-03-29T14:33:13Z</time>
      </trkpt>
      <trkpt lat="49.8302" lon="2.16476">
        <ele>123.1</ele>
        <time>2023-03-29T14:33:14Z</time>
      </trkpt>
      <trkpt lat="49.8302" lon="2.16476">
        <ele>123.1</ele>
        <time>2023-03-29T14:33:15Z</time>
      </trkpt>
      <trkpt lat="49.8302" lon="2.16476">
        <ele>123.1</ele>
        <time>2023-03-29T14:33:16Z</time>
      </trkpt>
      <trkpt lat="49.8302" lon="2.16476">
        <ele>123.1</ele>
        <time>2023-03-29T14:33:17Z</time>
      </trkpt>
      <trkpt lat="49.8302" lon="2.16476">
        <ele>123.1</ele>
        <time>2023-03-29T14:33:18Z</time>
      </trkpt>
      <trkpt lat="49.8302" lon="2.16476">
        <ele>123.1</ele>
        <time>2023-03-29T14:33:19Z</time>
      </trkpt>
      <trkpt lat="49.8302" lon="2.16476">
        <ele>123.1</ele>
        <time>2023-03-29T14:33:20Z</time>
      </trkpt>
      <trkpt lat="49.8302" lon="2.16476">
        <ele>123.1</ele>
        <time>2023-03-29T14:33:21Z</time>
      </trkpt>
      <trkpt lat="49.8302" lon="2.16476">
        <ele>123.1</ele>
        <time>2023-03-29T14:33:22Z</time>
      </trkpt>
      <trkpt lat="49.8302" lon="2.16476">
        <ele>123.1</ele>
        <time>2023-03-29T14:33:23Z</time>
      </trkpt>
      <trkpt lat="49.8302" lon="2.16476">
        <ele>123.1</ele>
        <time>2023-03-29T14:33:24Z</time>
      </trkpt>
      <trkpt lat="49.8302" lon="2.16476">
        <ele>123.1</ele>
        <time>2023-03-29T14:33:25Z</time>
      </trkpt>
      <trkpt lat="49.8302" lon="2.16476">
        <ele>123.1</ele>
        <time>2023-03-29T14:33:26Z</time>
      </trkpt>
      <trkpt lat="49.8302" lon="2.16476">
        <ele>123.1</ele>
        <time>2023-03-29T14:33:27Z</time>
      </trkpt>
      <trkpt lat="49.8302" lon="2.16476">
        <ele>123.1</ele>
        <time>2023-03-29T14:33:28Z</time>
      </trkpt>
      <trkpt lat="49.8302" lon="2.16476">
        <ele>123.1</ele>
        <time>2023-03-29T14:33:29Z</time>
      </trkpt>
    </trkseg>
  </trk>
</gpx>